<?xml version="1.0" encoding="UTF-8"?>
<gpx creator="Garmin Connect" version="1.1"
  xsi:schemaLocation="http://www.topografix.com/GPX/1/1 http://www.topografix.com/GPX/11.xsd"
  xmlns="http://www.topografix.com/GPX/1/1"
  xmlns:ns3="http://www.garmin.com/xmlschemas/TrackPointExtension/v1"
  xmlns:ns2="http://www.garmin.com/xmlschemas/GpxExtensions/v3" xmlns:xsi="http://www.w3.org/2001/XMLSchema-instance">
  <metadata>
    <link href="connect.garmin.com">
      <text>Garmin Connect</text>
    </link>
    <time>2017-05-05T11:46:43.000Z</time>
  </metadata>
  <trk>
    <name>Cugy fr - Vallon des Vaux- Tour de la Molière</name>
    <desc>Parcours varié et assez roulant, avec comme des passages au vallon des vaux et à la tour de la molière. Portages au vallon et boueux en général.</desc>
    <type>mountain_biking</type>
    <trkseg>
      <trkpt lat="46.81515351869165897369384765625" lon="6.88987872563302516937255859375">
        <ele>466.600006103515625</ele>
        <time>2017-05-05T11:46:43.000Z</time>
        <extensions>
          <ns3:TrackPointExtension>
            <ns3:hr>93</ns3:hr>
          </ns3:TrackPointExtension>
        </extensions>
      </trkpt>
      <trkpt lat="46.8151492439210414886474609375" lon="6.8898762948811054229736328125">
        <ele>466.600006103515625</ele>
        <time>2017-05-05T11:46:44.000Z</time>
        <extensions>
          <ns3:TrackPointExtension>
            <ns3:hr>94</ns3:hr>
          </ns3:TrackPointExtension>
        </extensions>
      </trkpt>
      <trkpt lat="46.81514966301620006561279296875" lon="6.88989649526774883270263671875">
        <ele>466.399993896484375</ele>
        <time>2017-05-05T11:46:46.000Z</time>
        <extensions>
          <ns3:TrackPointExtension>
            <ns3:hr>97</ns3:hr>
          </ns3:TrackPointExtension>
        </extensions>
      </trkpt>
      <trkpt lat="46.815143711864948272705078125" lon="6.8899852596223354339599609375">
        <ele>466.20001220703125</ele>
        <time>2017-05-05T11:46:53.000Z</time>
        <extensions>
          <ns3:TrackPointExtension>
            <ns3:hr>97</ns3:hr>
          </ns3:TrackPointExtension>
        </extensions>
      </trkpt>
      <trkpt lat="46.81515251286327838897705078125" lon="6.89007528126239776611328125">
        <ele>465.79998779296875</ele>
        <time>2017-05-05T11:46:56.000Z</time>
        <extensions>
          <ns3:TrackPointExtension>
            <ns3:hr>100</ns3:hr>
          </ns3:TrackPointExtension>
        </extensions>
      </trkpt>
      <trkpt lat="46.81512661278247833251953125" lon="6.890152730047702789306640625">
        <ele>465.79998779296875</ele>
        <time>2017-05-05T11:46:58.000Z</time>
        <extensions>
          <ns3:TrackPointExtension>
            <ns3:hr>103</ns3:hr>
          </ns3:TrackPointExtension>
        </extensions>
      </trkpt>
      <trkpt lat="46.814988143742084503173828125" lon="6.89025658182799816131591796875">
        <ele>466</ele>
        <time>2017-05-05T11:47:02.000Z</time>
        <extensions>
          <ns3:TrackPointExtension>
            <ns3:hr>109</ns3:hr>
          </ns3:TrackPointExtension>
        </extensions>
      </trkpt>
      <trkpt lat="46.8149594776332378387451171875" lon="6.89025658182799816131591796875">
        <ele>466</ele>
        <time>2017-05-05T11:47:03.000Z</time>
        <extensions>
          <ns3:TrackPointExtension>
            <ns3:hr>112</ns3:hr>
          </ns3:TrackPointExtension>
        </extensions>
      </trkpt>
      <trkpt lat="46.81493257172405719757080078125" lon="6.8902595154941082000732421875">
        <ele>466</ele>
        <time>2017-05-05T11:47:04.000Z</time>
        <extensions>
          <ns3:TrackPointExtension>
            <ns3:hr>117</ns3:hr>
          </ns3:TrackPointExtension>
        </extensions>
      </trkpt>
      <trkpt lat="46.81488521397113800048828125" lon="6.890294551849365234375">
        <ele>466.20001220703125</ele>
        <time>2017-05-05T11:47:06.000Z</time>
        <extensions>
          <ns3:TrackPointExtension>
            <ns3:hr>117</ns3:hr>
          </ns3:TrackPointExtension>
        </extensions>
      </trkpt>
      <trkpt lat="46.814871132373809814453125" lon="6.89037476666271686553955078125">
        <ele>466.20001220703125</ele>
        <time>2017-05-05T11:47:08.000Z</time>
        <extensions>
          <ns3:TrackPointExtension>
            <ns3:hr>114</ns3:hr>
          </ns3:TrackPointExtension>
        </extensions>
      </trkpt>
      <trkpt lat="46.814874149858951568603515625" lon="6.8904563225805759429931640625">
        <ele>466.20001220703125</ele>
        <time>2017-05-05T11:47:10.000Z</time>
        <extensions>
          <ns3:TrackPointExtension>
            <ns3:hr>109</ns3:hr>
          </ns3:TrackPointExtension>
        </extensions>
      </trkpt>
      <trkpt lat="46.81487339548766613006591796875" lon="6.89053938724100589752197265625">
        <ele>466.600006103515625</ele>
        <time>2017-05-05T11:47:12.000Z</time>
        <extensions>
          <ns3:TrackPointExtension>
            <ns3:hr>105</ns3:hr>
          </ns3:TrackPointExtension>
        </extensions>
      </trkpt>
      <trkpt lat="46.8148689530789852142333984375" lon="6.8906695581972599029541015625">
        <ele>467.20001220703125</ele>
        <time>2017-05-05T11:47:15.000Z</time>
        <extensions>
          <ns3:TrackPointExtension>
            <ns3:hr>110</ns3:hr>
          </ns3:TrackPointExtension>
        </extensions>
      </trkpt>
      <trkpt lat="46.814868450164794921875" lon="6.89071238972246646881103515625">
        <ele>467.20001220703125</ele>
        <time>2017-05-05T11:47:16.000Z</time>
        <extensions>
          <ns3:TrackPointExtension>
            <ns3:hr>110</ns3:hr>
          </ns3:TrackPointExtension>
        </extensions>
      </trkpt>
      <trkpt lat="46.81485227309167385101318359375" lon="6.89083476550877094268798828125">
        <ele>467.399993896484375</ele>
        <time>2017-05-05T11:47:19.000Z</time>
        <extensions>
          <ns3:TrackPointExtension>
            <ns3:hr>116</ns3:hr>
          </ns3:TrackPointExtension>
        </extensions>
      </trkpt>
      <trkpt lat="46.814811117947101593017578125" lon="6.8910209275782108306884765625">
        <ele>467.399993896484375</ele>
        <time>2017-05-05T11:47:23.000Z</time>
        <extensions>
          <ns3:TrackPointExtension>
            <ns3:hr>120</ns3:hr>
          </ns3:TrackPointExtension>
        </extensions>
      </trkpt>
      <trkpt lat="46.81480281986296176910400390625" lon="6.89107515849173069000244140625">
        <ele>467.399993896484375</ele>
        <time>2017-05-05T11:47:24.000Z</time>
        <extensions>
          <ns3:TrackPointExtension>
            <ns3:hr>123</ns3:hr>
          </ns3:TrackPointExtension>
        </extensions>
      </trkpt>
      <trkpt lat="46.81479879654943943023681640625" lon="6.89119418151676654815673828125">
        <ele>467.600006103515625</ele>
        <time>2017-05-05T11:47:26.000Z</time>
        <extensions>
          <ns3:TrackPointExtension>
            <ns3:hr>126</ns3:hr>
          </ns3:TrackPointExtension>
        </extensions>
      </trkpt>
      <trkpt lat="46.8147784285247325897216796875" lon="6.89180664718151092529296875">
        <ele>468.20001220703125</ele>
        <time>2017-05-05T11:47:37.000Z</time>
        <extensions>
          <ns3:TrackPointExtension>
            <ns3:hr>123</ns3:hr>
          </ns3:TrackPointExtension>
        </extensions>
      </trkpt>
      <trkpt lat="46.814774908125400543212890625" lon="6.891975291073322296142578125">
        <ele>468.600006103515625</ele>
        <time>2017-05-05T11:47:40.000Z</time>
        <extensions>
          <ns3:TrackPointExtension>
            <ns3:hr>120</ns3:hr>
          </ns3:TrackPointExtension>
        </extensions>
      </trkpt>
      <trkpt lat="46.81478798389434814453125" lon="6.8920237384736537933349609375">
        <ele>468.79998779296875</ele>
        <time>2017-05-05T11:47:41.000Z</time>
        <extensions>
          <ns3:TrackPointExtension>
            <ns3:hr>120</ns3:hr>
          </ns3:TrackPointExtension>
        </extensions>
      </trkpt>
      <trkpt lat="46.814873479306697845458984375" lon="6.89213144592940807342529296875">
        <ele>469.399993896484375</ele>
        <time>2017-05-05T11:47:45.000Z</time>
        <extensions>
          <ns3:TrackPointExtension>
            <ns3:hr>117</ns3:hr>
          </ns3:TrackPointExtension>
        </extensions>
      </trkpt>
      <trkpt lat="46.81494430638849735260009765625" lon="6.89213194884359836578369140625">
        <ele>469.79998779296875</ele>
        <time>2017-05-05T11:47:48.000Z</time>
        <extensions>
          <ns3:TrackPointExtension>
            <ns3:hr>115</ns3:hr>
          </ns3:TrackPointExtension>
        </extensions>
      </trkpt>
      <trkpt lat="46.81533138267695903778076171875" lon="6.8922721780836582183837890625">
        <ele>470.20001220703125</ele>
        <time>2017-05-05T11:48:01.000Z</time>
        <extensions>
          <ns3:TrackPointExtension>
            <ns3:hr>115</ns3:hr>
          </ns3:TrackPointExtension>
        </extensions>
      </trkpt>
      <trkpt lat="46.815383769571781158447265625" lon="6.892268657684326171875">
        <ele>468.399993896484375</ele>
        <time>2017-05-05T11:48:06.000Z</time>
        <extensions>
          <ns3:TrackPointExtension>
            <ns3:hr>113</ns3:hr>
          </ns3:TrackPointExtension>
        </extensions>
      </trkpt>
      <trkpt lat="46.81550488807260990142822265625" lon="6.89218777231872081756591796875">
        <ele>467.399993896484375</ele>
        <time>2017-05-05T11:48:10.000Z</time>
        <extensions>
          <ns3:TrackPointExtension>
            <ns3:hr>114</ns3:hr>
          </ns3:TrackPointExtension>
        </extensions>
      </trkpt>
      <trkpt lat="46.8158358894288539886474609375" lon="6.8920044600963592529296875">
        <ele>466</ele>
        <time>2017-05-05T11:48:18.000Z</time>
        <extensions>
          <ns3:TrackPointExtension>
            <ns3:hr>115</ns3:hr>
          </ns3:TrackPointExtension>
        </extensions>
      </trkpt>
      <trkpt lat="46.815970838069915771484375" lon="6.89189826138317584991455078125">
        <ele>465</ele>
        <time>2017-05-05T11:48:21.000Z</time>
        <extensions>
          <ns3:TrackPointExtension>
            <ns3:hr>115</ns3:hr>
          </ns3:TrackPointExtension>
        </extensions>
      </trkpt>
      <trkpt lat="46.8161942996084690093994140625" lon="6.891808323562145233154296875">
        <ele>463.79998779296875</ele>
        <time>2017-05-05T11:48:25.000Z</time>
        <extensions>
          <ns3:TrackPointExtension>
            <ns3:hr>115</ns3:hr>
          </ns3:TrackPointExtension>
        </extensions>
      </trkpt>
      <trkpt lat="46.816487498581409454345703125" lon="6.89173682592809200286865234375">
        <ele>462.600006103515625</ele>
        <time>2017-05-05T11:48:30.000Z</time>
        <extensions>
          <ns3:TrackPointExtension>
            <ns3:hr>116</ns3:hr>
          </ns3:TrackPointExtension>
        </extensions>
      </trkpt>
      <trkpt lat="46.8166878260672092437744140625" lon="6.89166717231273651123046875">
        <ele>461.79998779296875</ele>
        <time>2017-05-05T11:48:33.000Z</time>
        <extensions>
          <ns3:TrackPointExtension>
            <ns3:hr>117</ns3:hr>
          </ns3:TrackPointExtension>
        </extensions>
      </trkpt>
      <trkpt lat="46.81682621128857135772705078125" lon="6.8917280249297618865966796875">
        <ele>461.399993896484375</ele>
        <time>2017-05-05T11:48:35.000Z</time>
        <extensions>
          <ns3:TrackPointExtension>
            <ns3:hr>118</ns3:hr>
          </ns3:TrackPointExtension>
        </extensions>
      </trkpt>
      <trkpt lat="46.8169909156858921051025390625" lon="6.8918946571648120880126953125">
        <ele>460.20001220703125</ele>
        <time>2017-05-05T11:48:38.000Z</time>
        <extensions>
          <ns3:TrackPointExtension>
            <ns3:hr>118</ns3:hr>
          </ns3:TrackPointExtension>
        </extensions>
      </trkpt>
      <trkpt lat="46.81716375052928924560546875" lon="6.8921099044382572174072265625">
        <ele>459</ele>
        <time>2017-05-05T11:48:42.000Z</time>
        <extensions>
          <ns3:TrackPointExtension>
            <ns3:hr>118</ns3:hr>
          </ns3:TrackPointExtension>
        </extensions>
      </trkpt>
      <trkpt lat="46.81748251430690288543701171875" lon="6.89268716610968112945556640625">
        <ele>460</ele>
        <time>2017-05-05T11:48:53.000Z</time>
        <extensions>
          <ns3:TrackPointExtension>
            <ns3:hr>119</ns3:hr>
          </ns3:TrackPointExtension>
        </extensions>
      </trkpt>
      <trkpt lat="46.81764428503811359405517578125" lon="6.89301489852368831634521484375">
        <ele>461.20001220703125</ele>
        <time>2017-05-05T11:48:59.000Z</time>
        <extensions>
          <ns3:TrackPointExtension>
            <ns3:hr>118</ns3:hr>
          </ns3:TrackPointExtension>
        </extensions>
      </trkpt>
      <trkpt lat="46.8177597038447856903076171875" lon="6.89331681467592716217041015625">
        <ele>462.20001220703125</ele>
        <time>2017-05-05T11:49:04.000Z</time>
        <extensions>
          <ns3:TrackPointExtension>
            <ns3:hr>118</ns3:hr>
          </ns3:TrackPointExtension>
        </extensions>
      </trkpt>
      <trkpt lat="46.81792742572724819183349609375" lon="6.893762312829494476318359375">
        <ele>463.20001220703125</ele>
        <time>2017-05-05T11:49:11.000Z</time>
        <extensions>
          <ns3:TrackPointExtension>
            <ns3:hr>120</ns3:hr>
          </ns3:TrackPointExtension>
        </extensions>
      </trkpt>
      <trkpt lat="46.8181836605072021484375" lon="6.89443764276802539825439453125">
        <ele>464</ele>
        <time>2017-05-05T11:49:22.000Z</time>
        <extensions>
          <ns3:TrackPointExtension>
            <ns3:hr>123</ns3:hr>
          </ns3:TrackPointExtension>
        </extensions>
      </trkpt>
      <trkpt lat="46.81833059526979923248291015625" lon="6.89484869129955768585205078125">
        <ele>464.20001220703125</ele>
        <time>2017-05-05T11:49:29.000Z</time>
        <extensions>
          <ns3:TrackPointExtension>
            <ns3:hr>124</ns3:hr>
          </ns3:TrackPointExtension>
        </extensions>
      </trkpt>
      <trkpt lat="46.81860744953155517578125" lon="6.895594932138919830322265625">
        <ele>465.600006103515625</ele>
        <time>2017-05-05T11:49:42.000Z</time>
        <extensions>
          <ns3:TrackPointExtension>
            <ns3:hr>122</ns3:hr>
          </ns3:TrackPointExtension>
        </extensions>
      </trkpt>
      <trkpt lat="46.81887508369982242584228515625" lon="6.89629658125340938568115234375">
        <ele>466.20001220703125</ele>
        <time>2017-05-05T11:49:54.000Z</time>
        <extensions>
          <ns3:TrackPointExtension>
            <ns3:hr>122</ns3:hr>
          </ns3:TrackPointExtension>
        </extensions>
      </trkpt>
      <trkpt lat="46.81904397904872894287109375" lon="6.8966844119131565093994140625">
        <ele>466.20001220703125</ele>
        <time>2017-05-05T11:50:01.000Z</time>
        <extensions>
          <ns3:TrackPointExtension>
            <ns3:hr>122</ns3:hr>
          </ns3:TrackPointExtension>
        </extensions>
      </trkpt>
      <trkpt lat="46.81909619830548763275146484375" lon="6.89684660173952579498291015625">
        <ele>466.20001220703125</ele>
        <time>2017-05-05T11:50:04.000Z</time>
        <extensions>
          <ns3:TrackPointExtension>
            <ns3:hr>122</ns3:hr>
          </ns3:TrackPointExtension>
        </extensions>
      </trkpt>
      <trkpt lat="46.81943046860396862030029296875" lon="6.8963952362537384033203125">
        <ele>466.20001220703125</ele>
        <time>2017-05-05T11:50:14.000Z</time>
        <extensions>
          <ns3:TrackPointExtension>
            <ns3:hr>125</ns3:hr>
          </ns3:TrackPointExtension>
        </extensions>
      </trkpt>
      <trkpt lat="46.81977546773850917816162109375" lon="6.8957810103893280029296875">
        <ele>465.79998779296875</ele>
        <time>2017-05-05T11:50:23.000Z</time>
        <extensions>
          <ns3:TrackPointExtension>
            <ns3:hr>124</ns3:hr>
          </ns3:TrackPointExtension>
        </extensions>
      </trkpt>
      <trkpt lat="46.82011962868273258209228515625" lon="6.89517407678067684173583984375">
        <ele>465.79998779296875</ele>
        <time>2017-05-05T11:50:33.000Z</time>
        <extensions>
          <ns3:TrackPointExtension>
            <ns3:hr>125</ns3:hr>
          </ns3:TrackPointExtension>
        </extensions>
      </trkpt>
      <trkpt lat="46.82021065615117549896240234375" lon="6.89502839930355548858642578125">
        <ele>466.399993896484375</ele>
        <time>2017-05-05T11:50:36.000Z</time>
        <extensions>
          <ns3:TrackPointExtension>
            <ns3:hr>123</ns3:hr>
          </ns3:TrackPointExtension>
        </extensions>
      </trkpt>
      <trkpt lat="46.82023353874683380126953125" lon="6.89497307874262332916259765625">
        <ele>466.79998779296875</ele>
        <time>2017-05-05T11:50:37.000Z</time>
        <extensions>
          <ns3:TrackPointExtension>
            <ns3:hr>123</ns3:hr>
          </ns3:TrackPointExtension>
        </extensions>
      </trkpt>
      <trkpt lat="46.82025977410376071929931640625" lon="6.89492094330489635467529296875">
        <ele>467</ele>
        <time>2017-05-05T11:50:38.000Z</time>
        <extensions>
          <ns3:TrackPointExtension>
            <ns3:hr>122</ns3:hr>
          </ns3:TrackPointExtension>
        </extensions>
      </trkpt>
      <trkpt lat="46.82031928561627864837646484375" lon="6.89482807181775569915771484375">
        <ele>467</ele>
        <time>2017-05-05T11:50:40.000Z</time>
        <extensions>
          <ns3:TrackPointExtension>
            <ns3:hr>121</ns3:hr>
          </ns3:TrackPointExtension>
        </extensions>
      </trkpt>
      <trkpt lat="46.82039723731577396392822265625" lon="6.894668228924274444580078125">
        <ele>468.399993896484375</ele>
        <time>2017-05-05T11:50:43.000Z</time>
        <extensions>
          <ns3:TrackPointExtension>
            <ns3:hr>120</ns3:hr>
          </ns3:TrackPointExtension>
        </extensions>
      </trkpt>
      <trkpt lat="46.82048960588872432708740234375" lon="6.89451240934431552886962890625">
        <ele>469.600006103515625</ele>
        <time>2017-05-05T11:50:46.000Z</time>
        <extensions>
          <ns3:TrackPointExtension>
            <ns3:hr>119</ns3:hr>
          </ns3:TrackPointExtension>
        </extensions>
      </trkpt>
      <trkpt lat="46.82058029808104038238525390625" lon="6.89435818232595920562744140625">
        <ele>470.79998779296875</ele>
        <time>2017-05-05T11:50:49.000Z</time>
        <extensions>
          <ns3:TrackPointExtension>
            <ns3:hr>118</ns3:hr>
          </ns3:TrackPointExtension>
        </extensions>
      </trkpt>
      <trkpt lat="46.82070267386734485626220703125" lon="6.89414955675601959228515625">
        <ele>471.79998779296875</ele>
        <time>2017-05-05T11:50:53.000Z</time>
        <extensions>
          <ns3:TrackPointExtension>
            <ns3:hr>118</ns3:hr>
          </ns3:TrackPointExtension>
        </extensions>
      </trkpt>
      <trkpt lat="46.8210879899561405181884765625" lon="6.89347992651164531707763671875">
        <ele>471.79998779296875</ele>
        <time>2017-05-05T11:51:04.000Z</time>
        <extensions>
          <ns3:TrackPointExtension>
            <ns3:hr>118</ns3:hr>
          </ns3:TrackPointExtension>
        </extensions>
      </trkpt>
      <trkpt lat="46.8213151395320892333984375" lon="6.8930677883327007293701171875">
        <ele>470.399993896484375</ele>
        <time>2017-05-05T11:51:10.000Z</time>
        <extensions>
          <ns3:TrackPointExtension>
            <ns3:hr>119</ns3:hr>
          </ns3:TrackPointExtension>
        </extensions>
      </trkpt>
      <trkpt lat="46.82139216922223567962646484375" lon="6.89288648776710033416748046875">
        <ele>469.20001220703125</ele>
        <time>2017-05-05T11:51:12.000Z</time>
        <extensions>
          <ns3:TrackPointExtension>
            <ns3:hr>118</ns3:hr>
          </ns3:TrackPointExtension>
        </extensions>
      </trkpt>
      <trkpt lat="46.82147414423525333404541015625" lon="6.89263352192938327789306640625">
        <ele>467.399993896484375</ele>
        <time>2017-05-05T11:51:14.000Z</time>
        <extensions>
          <ns3:TrackPointExtension>
            <ns3:hr>118</ns3:hr>
          </ns3:TrackPointExtension>
        </extensions>
      </trkpt>
      <trkpt lat="46.82152443565428256988525390625" lon="6.89248449169099330902099609375">
        <ele>466.20001220703125</ele>
        <time>2017-05-05T11:51:15.000Z</time>
        <extensions>
          <ns3:TrackPointExtension>
            <ns3:hr>117</ns3:hr>
          </ns3:TrackPointExtension>
        </extensions>
      </trkpt>
      <trkpt lat="46.82162334211170673370361328125" lon="6.8921893648803234100341796875">
        <ele>464.600006103515625</ele>
        <time>2017-05-05T11:51:17.000Z</time>
        <extensions>
          <ns3:TrackPointExtension>
            <ns3:hr>117</ns3:hr>
          </ns3:TrackPointExtension>
        </extensions>
      </trkpt>
      <trkpt lat="46.821693666279315948486328125" lon="6.891979984939098358154296875">
        <ele>461.600006103515625</ele>
        <time>2017-05-05T11:51:19.000Z</time>
        <extensions>
          <ns3:TrackPointExtension>
            <ns3:hr>117</ns3:hr>
          </ns3:TrackPointExtension>
        </extensions>
      </trkpt>
      <trkpt lat="46.821721494197845458984375" lon="6.89192525111138820648193359375">
        <ele>459.399993896484375</ele>
        <time>2017-05-05T11:51:20.000Z</time>
        <extensions>
          <ns3:TrackPointExtension>
            <ns3:hr>118</ns3:hr>
          </ns3:TrackPointExtension>
        </extensions>
      </trkpt>
      <trkpt lat="46.8217523396015167236328125" lon="6.89189113676548004150390625">
        <ele>457.20001220703125</ele>
        <time>2017-05-05T11:51:21.000Z</time>
        <extensions>
          <ns3:TrackPointExtension>
            <ns3:hr>118</ns3:hr>
          </ns3:TrackPointExtension>
        </extensions>
      </trkpt>
      <trkpt lat="46.8217872083187103271484375" lon="6.89187311567366123199462890625">
        <ele>454</ele>
        <time>2017-05-05T11:51:22.000Z</time>
        <extensions>
          <ns3:TrackPointExtension>
            <ns3:hr>117</ns3:hr>
          </ns3:TrackPointExtension>
        </extensions>
      </trkpt>
      <trkpt lat="46.82182534597814083099365234375" lon="6.89187797717750072479248046875">
        <ele>451.600006103515625</ele>
        <time>2017-05-05T11:51:23.000Z</time>
        <extensions>
          <ns3:TrackPointExtension>
            <ns3:hr>117</ns3:hr>
          </ns3:TrackPointExtension>
        </extensions>
      </trkpt>
      <trkpt lat="46.82186457328498363494873046875" lon="6.89190027303993701934814453125">
        <ele>450.20001220703125</ele>
        <time>2017-05-05T11:51:24.000Z</time>
        <extensions>
          <ns3:TrackPointExtension>
            <ns3:hr>117</ns3:hr>
          </ns3:TrackPointExtension>
        </extensions>
      </trkpt>
      <trkpt lat="46.82194612920284271240234375" lon="6.8919650651514530181884765625">
        <ele>449</ele>
        <time>2017-05-05T11:51:26.000Z</time>
        <extensions>
          <ns3:TrackPointExtension>
            <ns3:hr>117</ns3:hr>
          </ns3:TrackPointExtension>
        </extensions>
      </trkpt>
      <trkpt lat="46.822086274623870849609375" lon="6.89206003211438655853271484375">
        <ele>447.600006103515625</ele>
        <time>2017-05-05T11:51:29.000Z</time>
        <extensions>
          <ns3:TrackPointExtension>
            <ns3:hr>118</ns3:hr>
          </ns3:TrackPointExtension>
        </extensions>
      </trkpt>
      <trkpt lat="46.82236245833337306976318359375" lon="6.89234619028866291046142578125">
        <ele>446.79998779296875</ele>
        <time>2017-05-05T11:51:35.000Z</time>
        <extensions>
          <ns3:TrackPointExtension>
            <ns3:hr>121</ns3:hr>
          </ns3:TrackPointExtension>
        </extensions>
      </trkpt>
      <trkpt lat="46.82244258932769298553466796875" lon="6.89247258938848972320556640625">
        <ele>446.600006103515625</ele>
        <time>2017-05-05T11:51:37.000Z</time>
        <extensions>
          <ns3:TrackPointExtension>
            <ns3:hr>124</ns3:hr>
          </ns3:TrackPointExtension>
        </extensions>
      </trkpt>
      <trkpt lat="46.82251475751399993896484375" lon="6.89260703511536121368408203125">
        <ele>446.399993896484375</ele>
        <time>2017-05-05T11:51:39.000Z</time>
        <extensions>
          <ns3:TrackPointExtension>
            <ns3:hr>127</ns3:hr>
          </ns3:TrackPointExtension>
        </extensions>
      </trkpt>
      <trkpt lat="46.82284978218376636505126953125" lon="6.89325906336307525634765625">
        <ele>446.20001220703125</ele>
        <time>2017-05-05T11:51:49.000Z</time>
        <extensions>
          <ns3:TrackPointExtension>
            <ns3:hr>129</ns3:hr>
          </ns3:TrackPointExtension>
        </extensions>
      </trkpt>
      <trkpt lat="46.82301691733300685882568359375" lon="6.89358218573033809661865234375">
        <ele>445.600006103515625</ele>
        <time>2017-05-05T11:51:54.000Z</time>
        <extensions>
          <ns3:TrackPointExtension>
            <ns3:hr>126</ns3:hr>
          </ns3:TrackPointExtension>
        </extensions>
      </trkpt>
      <trkpt lat="46.8233561329543590545654296875" lon="6.894241087138652801513671875">
        <ele>445.600006103515625</ele>
        <time>2017-05-05T11:52:04.000Z</time>
        <extensions>
          <ns3:TrackPointExtension>
            <ns3:hr>125</ns3:hr>
          </ns3:TrackPointExtension>
        </extensions>
      </trkpt>
      <trkpt lat="46.8236883915960788726806640625" lon="6.89489118754863739013671875">
        <ele>445.79998779296875</ele>
        <time>2017-05-05T11:52:14.000Z</time>
        <extensions>
          <ns3:TrackPointExtension>
            <ns3:hr>124</ns3:hr>
          </ns3:TrackPointExtension>
        </extensions>
      </trkpt>
      <trkpt lat="46.8240246735513210296630859375" lon="6.89551991410553455352783203125">
        <ele>445.600006103515625</ele>
        <time>2017-05-05T11:52:24.000Z</time>
        <extensions>
          <ns3:TrackPointExtension>
            <ns3:hr>123</ns3:hr>
          </ns3:TrackPointExtension>
        </extensions>
      </trkpt>
      <trkpt lat="46.8243753723800182342529296875" lon="6.89615827985107898712158203125">
        <ele>445.399993896484375</ele>
        <time>2017-05-05T11:52:34.000Z</time>
        <extensions>
          <ns3:TrackPointExtension>
            <ns3:hr>123</ns3:hr>
          </ns3:TrackPointExtension>
        </extensions>
      </trkpt>
      <trkpt lat="46.82445307262241840362548828125" lon="6.896246038377285003662109375">
        <ele>445.20001220703125</ele>
        <time>2017-05-05T11:52:36.000Z</time>
        <extensions>
          <ns3:TrackPointExtension>
            <ns3:hr>124</ns3:hr>
          </ns3:TrackPointExtension>
        </extensions>
      </trkpt>
      <trkpt lat="46.8246196210384368896484375" lon="6.89634737558662891387939453125">
        <ele>445.20001220703125</ele>
        <time>2017-05-05T11:52:40.000Z</time>
        <extensions>
          <ns3:TrackPointExtension>
            <ns3:hr>123</ns3:hr>
          </ns3:TrackPointExtension>
        </extensions>
      </trkpt>
      <trkpt lat="46.82497392408549785614013671875" lon="6.896347291767597198486328125">
        <ele>446.79998779296875</ele>
        <time>2017-05-05T11:52:49.000Z</time>
        <extensions>
          <ns3:TrackPointExtension>
            <ns3:hr>122</ns3:hr>
          </ns3:TrackPointExtension>
        </extensions>
      </trkpt>
      <trkpt lat="46.82504902593791484832763671875" lon="6.896339915692806243896484375">
        <ele>448</ele>
        <time>2017-05-05T11:52:51.000Z</time>
        <extensions>
          <ns3:TrackPointExtension>
            <ns3:hr>122</ns3:hr>
          </ns3:TrackPointExtension>
        </extensions>
      </trkpt>
      <trkpt lat="46.82513150386512279510498046875" lon="6.89633295871317386627197265625">
        <ele>449.20001220703125</ele>
        <time>2017-05-05T11:52:53.000Z</time>
        <extensions>
          <ns3:TrackPointExtension>
            <ns3:hr>121</ns3:hr>
          </ns3:TrackPointExtension>
        </extensions>
      </trkpt>
      <trkpt lat="46.82526444084942340850830078125" lon="6.89631217159330844879150390625">
        <ele>450.399993896484375</ele>
        <time>2017-05-05T11:52:56.000Z</time>
        <extensions>
          <ns3:TrackPointExtension>
            <ns3:hr>120</ns3:hr>
          </ns3:TrackPointExtension>
        </extensions>
      </trkpt>
      <trkpt lat="46.82543241418898105621337890625" lon="6.89629138447344303131103515625">
        <ele>451.399993896484375</ele>
        <time>2017-05-05T11:53:00.000Z</time>
        <extensions>
          <ns3:TrackPointExtension>
            <ns3:hr>119</ns3:hr>
          </ns3:TrackPointExtension>
        </extensions>
      </trkpt>
      <trkpt lat="46.82561866007745265960693359375" lon="6.89623975194990634918212890625">
        <ele>452</ele>
        <time>2017-05-05T11:53:05.000Z</time>
        <extensions>
          <ns3:TrackPointExtension>
            <ns3:hr>119</ns3:hr>
          </ns3:TrackPointExtension>
        </extensions>
      </trkpt>
      <trkpt lat="46.8256554566323757171630859375" lon="6.89613581635057926177978515625">
        <ele>452.20001220703125</ele>
        <time>2017-05-05T11:53:07.000Z</time>
        <extensions>
          <ns3:TrackPointExtension>
            <ns3:hr>119</ns3:hr>
          </ns3:TrackPointExtension>
        </extensions>
      </trkpt>
      <trkpt lat="46.8256219290196895599365234375" lon="6.89584513194859027862548828125">
        <ele>452.600006103515625</ele>
        <time>2017-05-05T11:53:11.000Z</time>
        <extensions>
          <ns3:TrackPointExtension>
            <ns3:hr>120</ns3:hr>
          </ns3:TrackPointExtension>
        </extensions>
      </trkpt>
      <trkpt lat="46.8255572207272052764892578125" lon="6.8952982127666473388671875">
        <ele>452.600006103515625</ele>
        <time>2017-05-05T11:53:18.000Z</time>
        <extensions>
          <ns3:TrackPointExtension>
            <ns3:hr>123</ns3:hr>
          </ns3:TrackPointExtension>
        </extensions>
      </trkpt>
      <trkpt lat="46.8254988826811313629150390625" lon="6.8944769538938999176025390625">
        <ele>452.399993896484375</ele>
        <time>2017-05-05T11:53:27.000Z</time>
        <extensions>
          <ns3:TrackPointExtension>
            <ns3:hr>121</ns3:hr>
          </ns3:TrackPointExtension>
        </extensions>
      </trkpt>
      <trkpt lat="46.825470216572284698486328125" lon="6.894038580358028411865234375">
        <ele>452</ele>
        <time>2017-05-05T11:53:31.000Z</time>
        <extensions>
          <ns3:TrackPointExtension>
            <ns3:hr>118</ns3:hr>
          </ns3:TrackPointExtension>
        </extensions>
      </trkpt>
      <trkpt lat="46.82545789517462253570556640625" lon="6.8936860375106334686279296875">
        <ele>451.399993896484375</ele>
        <time>2017-05-05T11:53:34.000Z</time>
        <extensions>
          <ns3:TrackPointExtension>
            <ns3:hr>117</ns3:hr>
          </ns3:TrackPointExtension>
        </extensions>
      </trkpt>
      <trkpt lat="46.8254475854337215423583984375" lon="6.8934473209083080291748046875">
        <ele>450.20001220703125</ele>
        <time>2017-05-05T11:53:36.000Z</time>
        <extensions>
          <ns3:TrackPointExtension>
            <ns3:hr>117</ns3:hr>
          </ns3:TrackPointExtension>
        </extensions>
      </trkpt>
      <trkpt lat="46.82544465176761150360107421875" lon="6.89321002922952175140380859375">
        <ele>449.20001220703125</ele>
        <time>2017-05-05T11:53:38.000Z</time>
        <extensions>
          <ns3:TrackPointExtension>
            <ns3:hr>118</ns3:hr>
          </ns3:TrackPointExtension>
        </extensions>
      </trkpt>
      <trkpt lat="46.82544347830116748809814453125" lon="6.89297785051167011260986328125">
        <ele>448</ele>
        <time>2017-05-05T11:53:40.000Z</time>
        <extensions>
          <ns3:TrackPointExtension>
            <ns3:hr>119</ns3:hr>
          </ns3:TrackPointExtension>
        </extensions>
      </trkpt>
      <trkpt lat="46.8254495970904827117919921875" lon="6.89252086915075778961181640625">
        <ele>446.79998779296875</ele>
        <time>2017-05-05T11:53:44.000Z</time>
        <extensions>
          <ns3:TrackPointExtension>
            <ns3:hr>122</ns3:hr>
          </ns3:TrackPointExtension>
        </extensions>
      </trkpt>
      <trkpt lat="46.8254606612026691436767578125" lon="6.89219045452773571014404296875">
        <ele>446.600006103515625</ele>
        <time>2017-05-05T11:53:47.000Z</time>
        <extensions>
          <ns3:TrackPointExtension>
            <ns3:hr>126</ns3:hr>
          </ns3:TrackPointExtension>
        </extensions>
      </trkpt>
      <trkpt lat="46.82548438198864459991455078125" lon="6.8917709402740001678466796875">
        <ele>446.399993896484375</ele>
        <time>2017-05-05T11:53:51.000Z</time>
        <extensions>
          <ns3:TrackPointExtension>
            <ns3:hr>129</ns3:hr>
          </ns3:TrackPointExtension>
        </extensions>
      </trkpt>
      <trkpt lat="46.82554833590984344482421875" lon="6.890983879566192626953125">
        <ele>446.399993896484375</ele>
        <time>2017-05-05T11:53:59.000Z</time>
        <extensions>
          <ns3:TrackPointExtension>
            <ns3:hr>130</ns3:hr>
          </ns3:TrackPointExtension>
        </extensions>
      </trkpt>
      <trkpt lat="46.82559133507311344146728515625" lon="6.890533603727817535400390625">
        <ele>446.399993896484375</ele>
        <time>2017-05-05T11:54:04.000Z</time>
        <extensions>
          <ns3:TrackPointExtension>
            <ns3:hr>131</ns3:hr>
          </ns3:TrackPointExtension>
        </extensions>
      </trkpt>
      <trkpt lat="46.82565629482269287109375" lon="6.890389434993267059326171875">
        <ele>446.20001220703125</ele>
        <time>2017-05-05T11:54:06.000Z</time>
        <extensions>
          <ns3:TrackPointExtension>
            <ns3:hr>131</ns3:hr>
          </ns3:TrackPointExtension>
        </extensions>
      </trkpt>
      <trkpt lat="46.8257687799632549285888671875" lon="6.89037191681563854217529296875">
        <ele>446.20001220703125</ele>
        <time>2017-05-05T11:54:08.000Z</time>
        <extensions>
          <ns3:TrackPointExtension>
            <ns3:hr>131</ns3:hr>
          </ns3:TrackPointExtension>
        </extensions>
      </trkpt>
      <trkpt lat="46.82605468668043613433837890625" lon="6.89055698923766613006591796875">
        <ele>445.79998779296875</ele>
        <time>2017-05-05T11:54:13.000Z</time>
        <extensions>
          <ns3:TrackPointExtension>
            <ns3:hr>130</ns3:hr>
          </ns3:TrackPointExtension>
        </extensions>
      </trkpt>
      <trkpt lat="46.82640018872916698455810546875" lon="6.89078204333782196044921875">
        <ele>444.600006103515625</ele>
        <time>2017-05-05T11:54:19.000Z</time>
        <extensions>
          <ns3:TrackPointExtension>
            <ns3:hr>128</ns3:hr>
          </ns3:TrackPointExtension>
        </extensions>
      </trkpt>
      <trkpt lat="46.82692238129675388336181640625" lon="6.891122348606586456298828125">
        <ele>443.79998779296875</ele>
        <time>2017-05-05T11:54:28.000Z</time>
        <extensions>
          <ns3:TrackPointExtension>
            <ns3:hr>129</ns3:hr>
          </ns3:TrackPointExtension>
        </extensions>
      </trkpt>
      <trkpt lat="46.8269813060760498046875" lon="6.891159899532794952392578125">
        <ele>443.600006103515625</ele>
        <time>2017-05-05T11:54:29.000Z</time>
        <extensions>
          <ns3:TrackPointExtension>
            <ns3:hr>129</ns3:hr>
          </ns3:TrackPointExtension>
        </extensions>
      </trkpt>
      <trkpt lat="46.82747508399188518524169921875" lon="6.8914789147675037384033203125">
        <ele>443</ele>
        <time>2017-05-05T11:54:38.000Z</time>
        <extensions>
          <ns3:TrackPointExtension>
            <ns3:hr>130</ns3:hr>
          </ns3:TrackPointExtension>
        </extensions>
      </trkpt>
      <trkpt lat="46.8278330750763416290283203125" lon="6.89173062331974506378173828125">
        <ele>442.79998779296875</ele>
        <time>2017-05-05T11:54:45.000Z</time>
        <extensions>
          <ns3:TrackPointExtension>
            <ns3:hr>132</ns3:hr>
          </ns3:TrackPointExtension>
        </extensions>
      </trkpt>
      <trkpt lat="46.82793977670371532440185546875" lon="6.89178694970905780792236328125">
        <ele>442.79998779296875</ele>
        <time>2017-05-05T11:54:47.000Z</time>
        <extensions>
          <ns3:TrackPointExtension>
            <ns3:hr>132</ns3:hr>
          </ns3:TrackPointExtension>
        </extensions>
      </trkpt>
      <trkpt lat="46.8284654058516025543212890625" lon="6.89211920835077762603759765625">
        <ele>443.20001220703125</ele>
        <time>2017-05-05T11:54:57.000Z</time>
        <extensions>
          <ns3:TrackPointExtension>
            <ns3:hr>131</ns3:hr>
          </ns3:TrackPointExtension>
        </extensions>
      </trkpt>
      <trkpt lat="46.82862239889800548553466796875" lon="6.89221543259918689727783203125">
        <ele>443.20001220703125</ele>
        <time>2017-05-05T11:55:00.000Z</time>
        <extensions>
          <ns3:TrackPointExtension>
            <ns3:hr>128</ns3:hr>
          </ns3:TrackPointExtension>
        </extensions>
      </trkpt>
      <trkpt lat="46.8291228823363780975341796875" lon="6.89254023134708404541015625">
        <ele>442.79998779296875</ele>
        <time>2017-05-05T11:55:10.000Z</time>
        <extensions>
          <ns3:TrackPointExtension>
            <ns3:hr>129</ns3:hr>
          </ns3:TrackPointExtension>
        </extensions>
      </trkpt>
      <trkpt lat="46.829320527613162994384765625" lon="6.8926644511520862579345703125">
        <ele>442.600006103515625</ele>
        <time>2017-05-05T11:55:14.000Z</time>
        <extensions>
          <ns3:TrackPointExtension>
            <ns3:hr>129</ns3:hr>
          </ns3:TrackPointExtension>
        </extensions>
      </trkpt>
      <trkpt lat="46.82941180653870105743408203125" lon="6.892730332911014556884765625">
        <ele>442.600006103515625</ele>
        <time>2017-05-05T11:55:16.000Z</time>
        <extensions>
          <ns3:TrackPointExtension>
            <ns3:hr>128</ns3:hr>
          </ns3:TrackPointExtension>
        </extensions>
      </trkpt>
      <trkpt lat="46.829496882855892181396484375" lon="6.89271667040884494781494140625">
        <ele>442.600006103515625</ele>
        <time>2017-05-05T11:55:18.000Z</time>
        <extensions>
          <ns3:TrackPointExtension>
            <ns3:hr>128</ns3:hr>
          </ns3:TrackPointExtension>
        </extensions>
      </trkpt>
      <trkpt lat="46.8295530416071414947509765625" lon="6.89262782223522663116455078125">
        <ele>442.600006103515625</ele>
        <time>2017-05-05T11:55:20.000Z</time>
        <extensions>
          <ns3:TrackPointExtension>
            <ns3:hr>128</ns3:hr>
          </ns3:TrackPointExtension>
        </extensions>
      </trkpt>
      <trkpt lat="46.82963476516306400299072265625" lon="6.8925839848816394805908203125">
        <ele>442.600006103515625</ele>
        <time>2017-05-05T11:55:22.000Z</time>
        <extensions>
          <ns3:TrackPointExtension>
            <ns3:hr>129</ns3:hr>
          </ns3:TrackPointExtension>
        </extensions>
      </trkpt>
      <trkpt lat="46.8301961012184619903564453125" lon="6.89278707839548587799072265625">
        <ele>443.79998779296875</ele>
        <time>2017-05-05T11:55:33.000Z</time>
        <extensions>
          <ns3:TrackPointExtension>
            <ns3:hr>128</ns3:hr>
          </ns3:TrackPointExtension>
        </extensions>
      </trkpt>
      <trkpt lat="46.83052861131727695465087890625" lon="6.8927985616028308868408203125">
        <ele>443.79998779296875</ele>
        <time>2017-05-05T11:55:40.000Z</time>
        <extensions>
          <ns3:TrackPointExtension>
            <ns3:hr>129</ns3:hr>
          </ns3:TrackPointExtension>
        </extensions>
      </trkpt>
      <trkpt lat="46.83044814504683017730712890625" lon="6.89249421469867229461669921875">
        <ele>443.79998779296875</ele>
        <time>2017-05-05T11:55:47.000Z</time>
        <extensions>
          <ns3:TrackPointExtension>
            <ns3:hr>126</ns3:hr>
          </ns3:TrackPointExtension>
        </extensions>
      </trkpt>
      <trkpt lat="46.8302643299102783203125" lon="6.89204343594610691070556640625">
        <ele>442.399993896484375</ele>
        <time>2017-05-05T11:55:54.000Z</time>
        <extensions>
          <ns3:TrackPointExtension>
            <ns3:hr>127</ns3:hr>
          </ns3:TrackPointExtension>
        </extensions>
      </trkpt>
      <trkpt lat="46.8301230110228061676025390625" lon="6.8912502564489841461181640625">
        <ele>442.399993896484375</ele>
        <time>2017-05-05T11:56:04.000Z</time>
        <extensions>
          <ns3:TrackPointExtension>
            <ns3:hr>128</ns3:hr>
          </ns3:TrackPointExtension>
        </extensions>
      </trkpt>
      <trkpt lat="46.83005872182548046112060546875" lon="6.890776343643665313720703125">
        <ele>442.600006103515625</ele>
        <time>2017-05-05T11:56:10.000Z</time>
        <extensions>
          <ns3:TrackPointExtension>
            <ns3:hr>129</ns3:hr>
          </ns3:TrackPointExtension>
        </extensions>
      </trkpt>
      <trkpt lat="46.830070205032825469970703125" lon="6.8906175903975963592529296875">
        <ele>442.600006103515625</ele>
        <time>2017-05-05T11:56:12.000Z</time>
        <extensions>
          <ns3:TrackPointExtension>
            <ns3:hr>128</ns3:hr>
          </ns3:TrackPointExtension>
        </extensions>
      </trkpt>
      <trkpt lat="46.83018361218273639678955078125" lon="6.8897862732410430908203125">
        <ele>442.600006103515625</ele>
        <time>2017-05-05T11:56:22.000Z</time>
        <extensions>
          <ns3:TrackPointExtension>
            <ns3:hr>126</ns3:hr>
          </ns3:TrackPointExtension>
        </extensions>
      </trkpt>
      <trkpt lat="46.83023625053465366363525390625" lon="6.889248825609683990478515625">
        <ele>442.399993896484375</ele>
        <time>2017-05-05T11:56:28.000Z</time>
        <extensions>
          <ns3:TrackPointExtension>
            <ns3:hr>128</ns3:hr>
          </ns3:TrackPointExtension>
        </extensions>
      </trkpt>
      <trkpt lat="46.83039911091327667236328125" lon="6.88852270133793354034423828125">
        <ele>443</ele>
        <time>2017-05-05T11:56:38.000Z</time>
        <extensions>
          <ns3:TrackPointExtension>
            <ns3:hr>127</ns3:hr>
          </ns3:TrackPointExtension>
        </extensions>
      </trkpt>
      <trkpt lat="46.830371953547000885009765625" lon="6.88838808797299861907958984375">
        <ele>443.399993896484375</ele>
        <time>2017-05-05T11:56:40.000Z</time>
        <extensions>
          <ns3:TrackPointExtension>
            <ns3:hr>127</ns3:hr>
          </ns3:TrackPointExtension>
        </extensions>
      </trkpt>
      <trkpt lat="46.83032912202179431915283203125" lon="6.888336874544620513916015625">
        <ele>443.600006103515625</ele>
        <time>2017-05-05T11:56:41.000Z</time>
        <extensions>
          <ns3:TrackPointExtension>
            <ns3:hr>127</ns3:hr>
          </ns3:TrackPointExtension>
        </extensions>
      </trkpt>
      <trkpt lat="46.83029257692396640777587890625" lon="6.8882890976965427398681640625">
        <ele>443.79998779296875</ele>
        <time>2017-05-05T11:56:42.000Z</time>
        <extensions>
          <ns3:TrackPointExtension>
            <ns3:hr>127</ns3:hr>
          </ns3:TrackPointExtension>
        </extensions>
      </trkpt>
      <trkpt lat="46.830265335738658905029296875" lon="6.88816429115831851959228515625">
        <ele>444.79998779296875</ele>
        <time>2017-05-05T11:56:44.000Z</time>
        <extensions>
          <ns3:TrackPointExtension>
            <ns3:hr>127</ns3:hr>
          </ns3:TrackPointExtension>
        </extensions>
      </trkpt>
      <trkpt lat="46.83032660745084285736083984375" lon="6.88803453929722309112548828125">
        <ele>445.20001220703125</ele>
        <time>2017-05-05T11:56:46.000Z</time>
        <extensions>
          <ns3:TrackPointExtension>
            <ns3:hr>126</ns3:hr>
          </ns3:TrackPointExtension>
        </extensions>
      </trkpt>
      <trkpt lat="46.8306390009820461273193359375" lon="6.88734286464750766754150390625">
        <ele>444.600006103515625</ele>
        <time>2017-05-05T11:56:55.000Z</time>
        <extensions>
          <ns3:TrackPointExtension>
            <ns3:hr>128</ns3:hr>
          </ns3:TrackPointExtension>
        </extensions>
      </trkpt>
      <trkpt lat="46.83069775812327861785888671875" lon="6.88718654215335845947265625">
        <ele>443.600006103515625</ele>
        <time>2017-05-05T11:56:57.000Z</time>
        <extensions>
          <ns3:TrackPointExtension>
            <ns3:hr>128</ns3:hr>
          </ns3:TrackPointExtension>
        </extensions>
      </trkpt>
      <trkpt lat="46.8308998458087444305419921875" lon="6.8864437378942966461181640625">
        <ele>442.79998779296875</ele>
        <time>2017-05-05T11:57:06.000Z</time>
        <extensions>
          <ns3:TrackPointExtension>
            <ns3:hr>125</ns3:hr>
          </ns3:TrackPointExtension>
        </extensions>
      </trkpt>
      <trkpt lat="46.83096279390156269073486328125" lon="6.8856021948158740997314453125">
        <ele>443.20001220703125</ele>
        <time>2017-05-05T11:57:16.000Z</time>
        <extensions>
          <ns3:TrackPointExtension>
            <ns3:hr>124</ns3:hr>
          </ns3:TrackPointExtension>
        </extensions>
      </trkpt>
      <trkpt lat="46.8308428488671779632568359375" lon="6.8848018907010555267333984375">
        <ele>443.399993896484375</ele>
        <time>2017-05-05T11:57:25.000Z</time>
        <extensions>
          <ns3:TrackPointExtension>
            <ns3:hr>126</ns3:hr>
          </ns3:TrackPointExtension>
        </extensions>
      </trkpt>
      <trkpt lat="46.83061343617737293243408203125" lon="6.8842617608606815338134765625">
        <ele>443.399993896484375</ele>
        <time>2017-05-05T11:57:32.000Z</time>
        <extensions>
          <ns3:TrackPointExtension>
            <ns3:hr>126</ns3:hr>
          </ns3:TrackPointExtension>
        </extensions>
      </trkpt>
      <trkpt lat="46.83022568933665752410888671875" lon="6.88368164934217929840087890625">
        <ele>443.600006103515625</ele>
        <time>2017-05-05T11:57:41.000Z</time>
        <extensions>
          <ns3:TrackPointExtension>
            <ns3:hr>128</ns3:hr>
          </ns3:TrackPointExtension>
        </extensions>
      </trkpt>
      <trkpt lat="46.8299194984138011932373046875" lon="6.8832582794129848480224609375">
        <ele>443.600006103515625</ele>
        <time>2017-05-05T11:57:48.000Z</time>
        <extensions>
          <ns3:TrackPointExtension>
            <ns3:hr>128</ns3:hr>
          </ns3:TrackPointExtension>
        </extensions>
      </trkpt>
      <trkpt lat="46.829446256160736083984375" lon="6.88293716870248317718505859375">
        <ele>443.79998779296875</ele>
        <time>2017-05-05T11:57:57.000Z</time>
        <extensions>
          <ns3:TrackPointExtension>
            <ns3:hr>125</ns3:hr>
          </ns3:TrackPointExtension>
        </extensions>
      </trkpt>
      <trkpt lat="46.8288870155811309814453125" lon="6.88268437050282955169677734375">
        <ele>444.399993896484375</ele>
        <time>2017-05-05T11:58:08.000Z</time>
        <extensions>
          <ns3:TrackPointExtension>
            <ns3:hr>125</ns3:hr>
          </ns3:TrackPointExtension>
        </extensions>
      </trkpt>
      <trkpt lat="46.8286940641701221466064453125" lon="6.88260926865041255950927734375">
        <ele>444.600006103515625</ele>
        <time>2017-05-05T11:58:12.000Z</time>
        <extensions>
          <ns3:TrackPointExtension>
            <ns3:hr>125</ns3:hr>
          </ns3:TrackPointExtension>
        </extensions>
      </trkpt>
      <trkpt lat="46.8285490572452545166015625" lon="6.88254707492887973785400390625">
        <ele>444.600006103515625</ele>
        <time>2017-05-05T11:58:15.000Z</time>
        <extensions>
          <ns3:TrackPointExtension>
            <ns3:hr>125</ns3:hr>
          </ns3:TrackPointExtension>
        </extensions>
      </trkpt>
      <trkpt lat="46.8284540064632892608642578125" lon="6.8825069256126880645751953125">
        <ele>444.79998779296875</ele>
        <time>2017-05-05T11:58:17.000Z</time>
        <extensions>
          <ns3:TrackPointExtension>
            <ns3:hr>125</ns3:hr>
          </ns3:TrackPointExtension>
        </extensions>
      </trkpt>
      <trkpt lat="46.82799744419753551483154296875" lon="6.8822975456714630126953125">
        <ele>445</ele>
        <time>2017-05-05T11:58:27.000Z</time>
        <extensions>
          <ns3:TrackPointExtension>
            <ns3:hr>128</ns3:hr>
          </ns3:TrackPointExtension>
        </extensions>
      </trkpt>
      <trkpt lat="46.8277727253735065460205078125" lon="6.882203333079814910888671875">
        <ele>445.399993896484375</ele>
        <time>2017-05-05T11:58:32.000Z</time>
        <extensions>
          <ns3:TrackPointExtension>
            <ns3:hr>127</ns3:hr>
          </ns3:TrackPointExtension>
        </extensions>
      </trkpt>
      <trkpt lat="46.82754255831241607666015625" lon="6.88209839165210723876953125">
        <ele>445.399993896484375</ele>
        <time>2017-05-05T11:58:37.000Z</time>
        <extensions>
          <ns3:TrackPointExtension>
            <ns3:hr>130</ns3:hr>
          </ns3:TrackPointExtension>
        </extensions>
      </trkpt>
      <trkpt lat="46.82734432630240917205810546875" lon="6.881978698074817657470703125">
        <ele>445.600006103515625</ele>
        <time>2017-05-05T11:58:41.000Z</time>
        <extensions>
          <ns3:TrackPointExtension>
            <ns3:hr>132</ns3:hr>
          </ns3:TrackPointExtension>
        </extensions>
      </trkpt>
      <trkpt lat="46.82698625139892101287841796875" lon="6.8818363733589649200439453125">
        <ele>445.600006103515625</ele>
        <time>2017-05-05T11:58:48.000Z</time>
        <extensions>
          <ns3:TrackPointExtension>
            <ns3:hr>130</ns3:hr>
          </ns3:TrackPointExtension>
        </extensions>
      </trkpt>
      <trkpt lat="46.82688541710376739501953125" lon="6.88182287849485874176025390625">
        <ele>445.600006103515625</ele>
        <time>2017-05-05T11:58:50.000Z</time>
        <extensions>
          <ns3:TrackPointExtension>
            <ns3:hr>130</ns3:hr>
          </ns3:TrackPointExtension>
        </extensions>
      </trkpt>
      <trkpt lat="46.82674434967339038848876953125" lon="6.88176135532557964324951171875">
        <ele>445.79998779296875</ele>
        <time>2017-05-05T11:58:53.000Z</time>
        <extensions>
          <ns3:TrackPointExtension>
            <ns3:hr>132</ns3:hr>
          </ns3:TrackPointExtension>
        </extensions>
      </trkpt>
      <trkpt lat="46.826356351375579833984375" lon="6.88130923546850681304931640625">
        <ele>446.600006103515625</ele>
        <time>2017-05-05T11:59:03.000Z</time>
        <extensions>
          <ns3:TrackPointExtension>
            <ns3:hr>134</ns3:hr>
          </ns3:TrackPointExtension>
        </extensions>
      </trkpt>
      <trkpt lat="46.82628862559795379638671875" lon="6.88121787272393703460693359375">
        <ele>447</ele>
        <time>2017-05-05T11:59:05.000Z</time>
        <extensions>
          <ns3:TrackPointExtension>
            <ns3:hr>134</ns3:hr>
          </ns3:TrackPointExtension>
        </extensions>
      </trkpt>
      <trkpt lat="46.826237328350543975830078125" lon="6.88111192546784877777099609375">
        <ele>447</ele>
        <time>2017-05-05T11:59:07.000Z</time>
        <extensions>
          <ns3:TrackPointExtension>
            <ns3:hr>133</ns3:hr>
          </ns3:TrackPointExtension>
        </extensions>
      </trkpt>
      <trkpt lat="46.8262234143912792205810546875" lon="6.88098552636802196502685546875">
        <ele>447.20001220703125</ele>
        <time>2017-05-05T11:59:09.000Z</time>
        <extensions>
          <ns3:TrackPointExtension>
            <ns3:hr>133</ns3:hr>
          </ns3:TrackPointExtension>
        </extensions>
      </trkpt>
      <trkpt lat="46.82628728449344635009765625" lon="6.88088066875934600830078125">
        <ele>447.20001220703125</ele>
        <time>2017-05-05T11:59:11.000Z</time>
        <extensions>
          <ns3:TrackPointExtension>
            <ns3:hr>132</ns3:hr>
          </ns3:TrackPointExtension>
        </extensions>
      </trkpt>
      <trkpt lat="46.82638979516923427581787109375" lon="6.88086700625717639923095703125">
        <ele>447.600006103515625</ele>
        <time>2017-05-05T11:59:13.000Z</time>
        <extensions>
          <ns3:TrackPointExtension>
            <ns3:hr>131</ns3:hr>
          </ns3:TrackPointExtension>
        </extensions>
      </trkpt>
      <trkpt lat="46.8264916352927684783935546875" lon="6.880958788096904754638671875">
        <ele>447.600006103515625</ele>
        <time>2017-05-05T11:59:15.000Z</time>
        <extensions>
          <ns3:TrackPointExtension>
            <ns3:hr>131</ns3:hr>
          </ns3:TrackPointExtension>
        </extensions>
      </trkpt>
      <trkpt lat="46.82693914510309696197509765625" lon="6.88147167675197124481201171875">
        <ele>447.79998779296875</ele>
        <time>2017-05-05T11:59:24.000Z</time>
        <extensions>
          <ns3:TrackPointExtension>
            <ns3:hr>131</ns3:hr>
          </ns3:TrackPointExtension>
        </extensions>
      </trkpt>
      <trkpt lat="46.82718540541827678680419921875" lon="6.88171408139169216156005859375">
        <ele>446.600006103515625</ele>
        <time>2017-05-05T11:59:29.000Z</time>
        <extensions>
          <ns3:TrackPointExtension>
            <ns3:hr>132</ns3:hr>
          </ns3:TrackPointExtension>
        </extensions>
      </trkpt>
      <trkpt lat="46.82728967629373073577880859375" lon="6.88174299895763397216796875">
        <ele>446.399993896484375</ele>
        <time>2017-05-05T11:59:31.000Z</time>
        <extensions>
          <ns3:TrackPointExtension>
            <ns3:hr>132</ns3:hr>
          </ns3:TrackPointExtension>
        </extensions>
      </trkpt>
      <trkpt lat="46.82744859717786312103271484375" lon="6.8816922046244144439697265625">
        <ele>445.79998779296875</ele>
        <time>2017-05-05T11:59:33.000Z</time>
        <extensions>
          <ns3:TrackPointExtension>
            <ns3:hr>133</ns3:hr>
          </ns3:TrackPointExtension>
        </extensions>
      </trkpt>
      <trkpt lat="46.8275299854576587677001953125" lon="6.881582401692867279052734375">
        <ele>445.79998779296875</ele>
        <time>2017-05-05T11:59:35.000Z</time>
        <extensions>
          <ns3:TrackPointExtension>
            <ns3:hr>133</ns3:hr>
          </ns3:TrackPointExtension>
        </extensions>
      </trkpt>
      <trkpt lat="46.82755957357585430145263671875" lon="6.881444938480854034423828125">
        <ele>445.79998779296875</ele>
        <time>2017-05-05T11:59:37.000Z</time>
        <extensions>
          <ns3:TrackPointExtension>
            <ns3:hr>132</ns3:hr>
          </ns3:TrackPointExtension>
        </extensions>
      </trkpt>
      <trkpt lat="46.8275821208953857421875" lon="6.88130672089755535125732421875">
        <ele>445.79998779296875</ele>
        <time>2017-05-05T11:59:39.000Z</time>
        <extensions>
          <ns3:TrackPointExtension>
            <ns3:hr>133</ns3:hr>
          </ns3:TrackPointExtension>
        </extensions>
      </trkpt>
      <trkpt lat="46.827683039009571075439453125" lon="6.88088661991059780120849609375">
        <ele>448</ele>
        <time>2017-05-05T11:59:46.000Z</time>
        <extensions>
          <ns3:TrackPointExtension>
            <ns3:hr>133</ns3:hr>
          </ns3:TrackPointExtension>
        </extensions>
      </trkpt>
      <trkpt lat="46.8277355097234249114990234375" lon="6.880732476711273193359375">
        <ele>449.20001220703125</ele>
        <time>2017-05-05T11:59:49.000Z</time>
        <extensions>
          <ns3:TrackPointExtension>
            <ns3:hr>132</ns3:hr>
          </ns3:TrackPointExtension>
        </extensions>
      </trkpt>
      <trkpt lat="46.8277988769114017486572265625" lon="6.88051479868590831756591796875">
        <ele>450.20001220703125</ele>
        <time>2017-05-05T11:59:53.000Z</time>
        <extensions>
          <ns3:TrackPointExtension>
            <ns3:hr>131</ns3:hr>
          </ns3:TrackPointExtension>
        </extensions>
      </trkpt>
      <trkpt lat="46.8278505094349384307861328125" lon="6.880356632173061370849609375">
        <ele>451.20001220703125</ele>
        <time>2017-05-05T11:59:56.000Z</time>
        <extensions>
          <ns3:TrackPointExtension>
            <ns3:hr>132</ns3:hr>
          </ns3:TrackPointExtension>
        </extensions>
      </trkpt>
      <trkpt lat="46.8279420398175716400146484375" lon="6.88016762025654315948486328125">
        <ele>452.20001220703125</ele>
        <time>2017-05-05T12:00:00.000Z</time>
        <extensions>
          <ns3:TrackPointExtension>
            <ns3:hr>131</ns3:hr>
          </ns3:TrackPointExtension>
        </extensions>
      </trkpt>
      <trkpt lat="46.828059218823909759521484375" lon="6.87992437742650508880615234375">
        <ele>453.399993896484375</ele>
        <time>2017-05-05T12:00:05.000Z</time>
        <extensions>
          <ns3:TrackPointExtension>
            <ns3:hr>129</ns3:hr>
          </ns3:TrackPointExtension>
        </extensions>
      </trkpt>
      <trkpt lat="46.8281656689941883087158203125" lon="6.879665963351726531982421875">
        <ele>454.399993896484375</ele>
        <time>2017-05-05T12:00:10.000Z</time>
        <extensions>
          <ns3:TrackPointExtension>
            <ns3:hr>129</ns3:hr>
          </ns3:TrackPointExtension>
        </extensions>
      </trkpt>
      <trkpt lat="46.82826784439384937286376953125" lon="6.87939749099314212799072265625">
        <ele>455</ele>
        <time>2017-05-05T12:00:15.000Z</time>
        <extensions>
          <ns3:TrackPointExtension>
            <ns3:hr>132</ns3:hr>
          </ns3:TrackPointExtension>
        </extensions>
      </trkpt>
      <trkpt lat="46.8283607997000217437744140625" lon="6.8791749514639377593994140625">
        <ele>455.20001220703125</ele>
        <time>2017-05-05T12:00:19.000Z</time>
        <extensions>
          <ns3:TrackPointExtension>
            <ns3:hr>135</ns3:hr>
          </ns3:TrackPointExtension>
        </extensions>
      </trkpt>
      <trkpt lat="46.82842961512506008148193359375" lon="6.87898744828999042510986328125">
        <ele>455.399993896484375</ele>
        <time>2017-05-05T12:00:22.000Z</time>
        <extensions>
          <ns3:TrackPointExtension>
            <ns3:hr>136</ns3:hr>
          </ns3:TrackPointExtension>
        </extensions>
      </trkpt>
      <trkpt lat="46.828588955104351043701171875" lon="6.878580339252948760986328125">
        <ele>455.600006103515625</ele>
        <time>2017-05-05T12:00:28.000Z</time>
        <extensions>
          <ns3:TrackPointExtension>
            <ns3:hr>135</ns3:hr>
          </ns3:TrackPointExtension>
        </extensions>
      </trkpt>
      <trkpt lat="46.82868459261953830718994140625" lon="6.878494508564472198486328125">
        <ele>455.600006103515625</ele>
        <time>2017-05-05T12:00:30.000Z</time>
        <extensions>
          <ns3:TrackPointExtension>
            <ns3:hr>135</ns3:hr>
          </ns3:TrackPointExtension>
        </extensions>
      </trkpt>
      <trkpt lat="46.8287949822843074798583984375" lon="6.87851185910403728485107421875">
        <ele>455.600006103515625</ele>
        <time>2017-05-05T12:00:32.000Z</time>
        <extensions>
          <ns3:TrackPointExtension>
            <ns3:hr>135</ns3:hr>
          </ns3:TrackPointExtension>
        </extensions>
      </trkpt>
      <trkpt lat="46.828975193202495574951171875" lon="6.8786442093551158905029296875">
        <ele>455</ele>
        <time>2017-05-05T12:00:36.000Z</time>
        <extensions>
          <ns3:TrackPointExtension>
            <ns3:hr>134</ns3:hr>
          </ns3:TrackPointExtension>
        </extensions>
      </trkpt>
      <trkpt lat="46.8291104771196842193603515625" lon="6.8787008710205554962158203125">
        <ele>454.600006103515625</ele>
        <time>2017-05-05T12:00:39.000Z</time>
        <extensions>
          <ns3:TrackPointExtension>
            <ns3:hr>133</ns3:hr>
          </ns3:TrackPointExtension>
        </extensions>
      </trkpt>
      <trkpt lat="46.829623281955718994140625" lon="6.879002116620540618896484375">
        <ele>455.20001220703125</ele>
        <time>2017-05-05T12:00:51.000Z</time>
        <extensions>
          <ns3:TrackPointExtension>
            <ns3:hr>130</ns3:hr>
          </ns3:TrackPointExtension>
        </extensions>
      </trkpt>
      <trkpt lat="46.82966686785221099853515625" lon="6.8790264241397380828857421875">
        <ele>455.399993896484375</ele>
        <time>2017-05-05T12:00:52.000Z</time>
        <extensions>
          <ns3:TrackPointExtension>
            <ns3:hr>127</ns3:hr>
          </ns3:TrackPointExtension>
        </extensions>
      </trkpt>
      <trkpt lat="46.830116473138332366943359375" lon="6.87927846796810626983642578125">
        <ele>456</ele>
        <time>2017-05-05T12:01:02.000Z</time>
        <extensions>
          <ns3:TrackPointExtension>
            <ns3:hr>124</ns3:hr>
          </ns3:TrackPointExtension>
        </extensions>
      </trkpt>
      <trkpt lat="46.83016198687255382537841796875" lon="6.8792909570038318634033203125">
        <ele>456</ele>
        <time>2017-05-05T12:01:03.000Z</time>
        <extensions>
          <ns3:TrackPointExtension>
            <ns3:hr>123</ns3:hr>
          </ns3:TrackPointExtension>
        </extensions>
      </trkpt>
      <trkpt lat="46.83024312369525432586669921875" lon="6.879249550402164459228515625">
        <ele>456</ele>
        <time>2017-05-05T12:01:05.000Z</time>
        <extensions>
          <ns3:TrackPointExtension>
            <ns3:hr>122</ns3:hr>
          </ns3:TrackPointExtension>
        </extensions>
      </trkpt>
      <trkpt lat="46.830366589128971099853515625" lon="6.8790763802826404571533203125">
        <ele>456.399993896484375</ele>
        <time>2017-05-05T12:01:09.000Z</time>
        <extensions>
          <ns3:TrackPointExtension>
            <ns3:hr>120</ns3:hr>
          </ns3:TrackPointExtension>
        </extensions>
      </trkpt>
      <trkpt lat="46.83039919473230838775634765625" lon="6.8790401704609394073486328125">
        <ele>456.600006103515625</ele>
        <time>2017-05-05T12:01:10.000Z</time>
        <extensions>
          <ns3:TrackPointExtension>
            <ns3:hr>120</ns3:hr>
          </ns3:TrackPointExtension>
        </extensions>
      </trkpt>
      <trkpt lat="46.830580495297908782958984375" lon="6.87882903032004833221435546875">
        <ele>457.79998779296875</ele>
        <time>2017-05-05T12:01:16.000Z</time>
        <extensions>
          <ns3:TrackPointExtension>
            <ns3:hr>120</ns3:hr>
          </ns3:TrackPointExtension>
        </extensions>
      </trkpt>
      <trkpt lat="46.83072566986083984375" lon="6.87865586020052433013916015625">
        <ele>458.79998779296875</ele>
        <time>2017-05-05T12:01:21.000Z</time>
        <extensions>
          <ns3:TrackPointExtension>
            <ns3:hr>121</ns3:hr>
          </ns3:TrackPointExtension>
        </extensions>
      </trkpt>
      <trkpt lat="46.83089959435164928436279296875" lon="6.87846089713275432586669921875">
        <ele>460</ele>
        <time>2017-05-05T12:01:27.000Z</time>
        <extensions>
          <ns3:TrackPointExtension>
            <ns3:hr>120</ns3:hr>
          </ns3:TrackPointExtension>
        </extensions>
      </trkpt>
      <trkpt lat="46.8310034461319446563720703125" lon="6.87834262847900390625">
        <ele>461</ele>
        <time>2017-05-05T12:01:31.000Z</time>
        <extensions>
          <ns3:TrackPointExtension>
            <ns3:hr>120</ns3:hr>
          </ns3:TrackPointExtension>
        </extensions>
      </trkpt>
      <trkpt lat="46.83109782636165618896484375" lon="6.87823466956615447998046875">
        <ele>462.399993896484375</ele>
        <time>2017-05-05T12:01:35.000Z</time>
        <extensions>
          <ns3:TrackPointExtension>
            <ns3:hr>121</ns3:hr>
          </ns3:TrackPointExtension>
        </extensions>
      </trkpt>
      <trkpt lat="46.8311667256057262420654296875" lon="6.87815554440021514892578125">
        <ele>463.79998779296875</ele>
        <time>2017-05-05T12:01:38.000Z</time>
        <extensions>
          <ns3:TrackPointExtension>
            <ns3:hr>123</ns3:hr>
          </ns3:TrackPointExtension>
        </extensions>
      </trkpt>
      <trkpt lat="46.83123235590755939483642578125" lon="6.87807105481624603271484375">
        <ele>464.79998779296875</ele>
        <time>2017-05-05T12:01:41.000Z</time>
        <extensions>
          <ns3:TrackPointExtension>
            <ns3:hr>125</ns3:hr>
          </ns3:TrackPointExtension>
        </extensions>
      </trkpt>
      <trkpt lat="46.8313018418848514556884765625" lon="6.877988912165164947509765625">
        <ele>466</ele>
        <time>2017-05-05T12:01:44.000Z</time>
        <extensions>
          <ns3:TrackPointExtension>
            <ns3:hr>127</ns3:hr>
          </ns3:TrackPointExtension>
        </extensions>
      </trkpt>
      <trkpt lat="46.83138373307883739471435546875" lon="6.87788153998553752899169921875">
        <ele>467.20001220703125</ele>
        <time>2017-05-05T12:01:48.000Z</time>
        <extensions>
          <ns3:TrackPointExtension>
            <ns3:hr>128</ns3:hr>
          </ns3:TrackPointExtension>
        </extensions>
      </trkpt>
      <trkpt lat="46.83135305531322956085205078125" lon="6.8776269815862178802490234375">
        <ele>468.20001220703125</ele>
        <time>2017-05-05T12:01:55.000Z</time>
        <extensions>
          <ns3:TrackPointExtension>
            <ns3:hr>128</ns3:hr>
          </ns3:TrackPointExtension>
        </extensions>
      </trkpt>
      <trkpt lat="46.83129186742007732391357421875" lon="6.87745791859924793243408203125">
        <ele>469.20001220703125</ele>
        <time>2017-05-05T12:01:59.000Z</time>
        <extensions>
          <ns3:TrackPointExtension>
            <ns3:hr>125</ns3:hr>
          </ns3:TrackPointExtension>
        </extensions>
      </trkpt>
      <trkpt lat="46.831275187432765960693359375" lon="6.87740896828472614288330078125">
        <ele>469.20001220703125</ele>
        <time>2017-05-05T12:02:00.000Z</time>
        <extensions>
          <ns3:TrackPointExtension>
            <ns3:hr>122</ns3:hr>
          </ns3:TrackPointExtension>
        </extensions>
      </trkpt>
      <trkpt lat="46.8312582559883594512939453125" lon="6.87735750339925289154052734375">
        <ele>469.20001220703125</ele>
        <time>2017-05-05T12:02:01.000Z</time>
        <extensions>
          <ns3:TrackPointExtension>
            <ns3:hr>122</ns3:hr>
          </ns3:TrackPointExtension>
        </extensions>
      </trkpt>
      <trkpt lat="46.83121374808251857757568359375" lon="6.87724300660192966461181640625">
        <ele>469.20001220703125</ele>
        <time>2017-05-05T12:02:03.000Z</time>
        <extensions>
          <ns3:TrackPointExtension>
            <ns3:hr>125</ns3:hr>
          </ns3:TrackPointExtension>
        </extensions>
      </trkpt>
      <trkpt lat="46.83117292821407318115234375" lon="6.87713555060327053070068359375">
        <ele>469.20001220703125</ele>
        <time>2017-05-05T12:02:05.000Z</time>
        <extensions>
          <ns3:TrackPointExtension>
            <ns3:hr>128</ns3:hr>
          </ns3:TrackPointExtension>
        </extensions>
      </trkpt>
      <trkpt lat="46.83113914914429187774658203125" lon="6.87702231109142303466796875">
        <ele>469.20001220703125</ele>
        <time>2017-05-05T12:02:07.000Z</time>
        <extensions>
          <ns3:TrackPointExtension>
            <ns3:hr>131</ns3:hr>
          </ns3:TrackPointExtension>
        </extensions>
      </trkpt>
      <trkpt lat="46.83106966316699981689453125" lon="6.87682290561497211456298828125">
        <ele>469.20001220703125</ele>
        <time>2017-05-05T12:02:11.000Z</time>
        <extensions>
          <ns3:TrackPointExtension>
            <ns3:hr>134</ns3:hr>
          </ns3:TrackPointExtension>
        </extensions>
      </trkpt>
      <trkpt lat="46.83088886551558971405029296875" lon="6.87650623731315135955810546875">
        <ele>469.399993896484375</ele>
        <time>2017-05-05T12:02:19.000Z</time>
        <extensions>
          <ns3:TrackPointExtension>
            <ns3:hr>136</ns3:hr>
          </ns3:TrackPointExtension>
        </extensions>
      </trkpt>
      <trkpt lat="46.83084628544747829437255859375" lon="6.87642945908010005950927734375">
        <ele>470.399993896484375</ele>
        <time>2017-05-05T12:02:21.000Z</time>
        <extensions>
          <ns3:TrackPointExtension>
            <ns3:hr>137</ns3:hr>
          </ns3:TrackPointExtension>
        </extensions>
      </trkpt>
      <trkpt lat="46.83062718249857425689697265625" lon="6.87613525427877902984619140625">
        <ele>471.399993896484375</ele>
        <time>2017-05-05T12:02:28.000Z</time>
        <extensions>
          <ns3:TrackPointExtension>
            <ns3:hr>136</ns3:hr>
          </ns3:TrackPointExtension>
        </extensions>
      </trkpt>
      <trkpt lat="46.83057689107954502105712890625" lon="6.875775419175624847412109375">
        <ele>471.399993896484375</ele>
        <time>2017-05-05T12:02:41.000Z</time>
        <extensions>
          <ns3:TrackPointExtension>
            <ns3:hr>133</ns3:hr>
          </ns3:TrackPointExtension>
        </extensions>
      </trkpt>
      <trkpt lat="46.83058124966919422149658203125" lon="6.87577147968113422393798828125">
        <ele>471.600006103515625</ele>
        <time>2017-05-05T12:02:42.000Z</time>
        <extensions>
          <ns3:TrackPointExtension>
            <ns3:hr>133</ns3:hr>
          </ns3:TrackPointExtension>
        </extensions>
      </trkpt>
      <trkpt lat="46.83058745227754116058349609375" lon="6.87576712109148502349853515625">
        <ele>472.79998779296875</ele>
        <time>2017-05-05T12:02:44.000Z</time>
        <extensions>
          <ns3:TrackPointExtension>
            <ns3:hr>133</ns3:hr>
          </ns3:TrackPointExtension>
        </extensions>
      </trkpt>
      <trkpt lat="46.8306031264364719390869140625" lon="6.87575404532253742218017578125">
        <ele>473.79998779296875</ele>
        <time>2017-05-05T12:02:48.000Z</time>
        <extensions>
          <ns3:TrackPointExtension>
            <ns3:hr>132</ns3:hr>
          </ns3:TrackPointExtension>
        </extensions>
      </trkpt>
      <trkpt lat="46.8306349776685237884521484375" lon="6.8757055141031742095947265625">
        <ele>474.79998779296875</ele>
        <time>2017-05-05T12:02:52.000Z</time>
        <extensions>
          <ns3:TrackPointExtension>
            <ns3:hr>132</ns3:hr>
          </ns3:TrackPointExtension>
        </extensions>
      </trkpt>
      <trkpt lat="46.83067278005182743072509765625" lon="6.8756501935422420501708984375">
        <ele>476</ele>
        <time>2017-05-05T12:02:57.000Z</time>
        <extensions>
          <ns3:TrackPointExtension>
            <ns3:hr>132</ns3:hr>
          </ns3:TrackPointExtension>
        </extensions>
      </trkpt>
      <trkpt lat="46.83070898987352848052978515625" lon="6.87562085688114166259765625">
        <ele>477</ele>
        <time>2017-05-05T12:03:02.000Z</time>
        <extensions>
          <ns3:TrackPointExtension>
            <ns3:hr>131</ns3:hr>
          </ns3:TrackPointExtension>
        </extensions>
      </trkpt>
      <trkpt lat="46.8307509832084178924560546875" lon="6.87559805810451507568359375">
        <ele>478</ele>
        <time>2017-05-05T12:03:10.000Z</time>
        <extensions>
          <ns3:TrackPointExtension>
            <ns3:hr>131</ns3:hr>
          </ns3:TrackPointExtension>
        </extensions>
      </trkpt>
      <trkpt lat="46.83078593574464321136474609375" lon="6.875598728656768798828125">
        <ele>478</ele>
        <time>2017-05-05T12:03:12.000Z</time>
        <extensions>
          <ns3:TrackPointExtension>
            <ns3:hr>130</ns3:hr>
          </ns3:TrackPointExtension>
        </extensions>
      </trkpt>
      <trkpt lat="46.830930523574352264404296875" lon="6.87561004422605037689208984375">
        <ele>478.399993896484375</ele>
        <time>2017-05-05T12:03:18.000Z</time>
        <extensions>
          <ns3:TrackPointExtension>
            <ns3:hr>134</ns3:hr>
          </ns3:TrackPointExtension>
        </extensions>
      </trkpt>
      <trkpt lat="46.83098609559237957000732421875" lon="6.87559830956161022186279296875">
        <ele>478.399993896484375</ele>
        <time>2017-05-05T12:03:20.000Z</time>
        <extensions>
          <ns3:TrackPointExtension>
            <ns3:hr>137</ns3:hr>
          </ns3:TrackPointExtension>
        </extensions>
      </trkpt>
      <trkpt lat="46.83115339837968349456787109375" lon="6.87563686631619930267333984375">
        <ele>478.20001220703125</ele>
        <time>2017-05-05T12:03:26.000Z</time>
        <extensions>
          <ns3:TrackPointExtension>
            <ns3:hr>140</ns3:hr>
          </ns3:TrackPointExtension>
        </extensions>
      </trkpt>
      <trkpt lat="46.83125113137066364288330078125" lon="6.875673830509185791015625">
        <ele>478.20001220703125</ele>
        <time>2017-05-05T12:03:29.000Z</time>
        <extensions>
          <ns3:TrackPointExtension>
            <ns3:hr>143</ns3:hr>
          </ns3:TrackPointExtension>
        </extensions>
      </trkpt>
      <trkpt lat="46.83170526288449764251708984375" lon="6.87579193152487277984619140625">
        <ele>476.79998779296875</ele>
        <time>2017-05-05T12:03:42.000Z</time>
        <extensions>
          <ns3:TrackPointExtension>
            <ns3:hr>142</ns3:hr>
          </ns3:TrackPointExtension>
        </extensions>
      </trkpt>
      <trkpt lat="46.8317408859729766845703125" lon="6.87577835284173488616943359375">
        <ele>476.600006103515625</ele>
        <time>2017-05-05T12:03:43.000Z</time>
        <extensions>
          <ns3:TrackPointExtension>
            <ns3:hr>142</ns3:hr>
          </ns3:TrackPointExtension>
        </extensions>
      </trkpt>
      <trkpt lat="46.83180148713290691375732421875" lon="6.87566687352955341339111328125">
        <ele>476</ele>
        <time>2017-05-05T12:03:45.000Z</time>
        <extensions>
          <ns3:TrackPointExtension>
            <ns3:hr>142</ns3:hr>
          </ns3:TrackPointExtension>
        </extensions>
      </trkpt>
      <trkpt lat="46.8318342603743076324462890625" lon="6.87550996430218219757080078125">
        <ele>475.79998779296875</ele>
        <time>2017-05-05T12:03:47.000Z</time>
        <extensions>
          <ns3:TrackPointExtension>
            <ns3:hr>141</ns3:hr>
          </ns3:TrackPointExtension>
        </extensions>
      </trkpt>
      <trkpt lat="46.83185714296996593475341796875" lon="6.87542296014726161956787109375">
        <ele>475.600006103515625</ele>
        <time>2017-05-05T12:03:48.000Z</time>
        <extensions>
          <ns3:TrackPointExtension>
            <ns3:hr>141</ns3:hr>
          </ns3:TrackPointExtension>
        </extensions>
      </trkpt>
      <trkpt lat="46.83191481046378612518310546875" lon="6.875267811119556427001953125">
        <ele>474.79998779296875</ele>
        <time>2017-05-05T12:03:50.000Z</time>
        <extensions>
          <ns3:TrackPointExtension>
            <ns3:hr>140</ns3:hr>
          </ns3:TrackPointExtension>
        </extensions>
      </trkpt>
      <trkpt lat="46.8319623358547687530517578125" lon="6.87521793879568576812744140625">
        <ele>474.399993896484375</ele>
        <time>2017-05-05T12:03:51.000Z</time>
        <extensions>
          <ns3:TrackPointExtension>
            <ns3:hr>140</ns3:hr>
          </ns3:TrackPointExtension>
        </extensions>
      </trkpt>
      <trkpt lat="46.8320166505873203277587890625" lon="6.87519748695194721221923828125">
        <ele>474</ele>
        <time>2017-05-05T12:03:52.000Z</time>
        <extensions>
          <ns3:TrackPointExtension>
            <ns3:hr>139</ns3:hr>
          </ns3:TrackPointExtension>
        </extensions>
      </trkpt>
      <trkpt lat="46.83212754316627979278564453125" lon="6.875214166939258575439453125">
        <ele>473.600006103515625</ele>
        <time>2017-05-05T12:03:54.000Z</time>
        <extensions>
          <ns3:TrackPointExtension>
            <ns3:hr>138</ns3:hr>
          </ns3:TrackPointExtension>
        </extensions>
      </trkpt>
      <trkpt lat="46.83218454010784626007080078125" lon="6.8752321042120456695556640625">
        <ele>472.79998779296875</ele>
        <time>2017-05-05T12:03:55.000Z</time>
        <extensions>
          <ns3:TrackPointExtension>
            <ns3:hr>137</ns3:hr>
          </ns3:TrackPointExtension>
        </extensions>
      </trkpt>
      <trkpt lat="46.832297109067440032958984375" lon="6.87525398097932338714599609375">
        <ele>471.20001220703125</ele>
        <time>2017-05-05T12:03:57.000Z</time>
        <extensions>
          <ns3:TrackPointExtension>
            <ns3:hr>136</ns3:hr>
          </ns3:TrackPointExtension>
        </extensions>
      </trkpt>
      <trkpt lat="46.832403056323528289794921875" lon="6.8752659671008586883544921875">
        <ele>470.20001220703125</ele>
        <time>2017-05-05T12:03:59.000Z</time>
        <extensions>
          <ns3:TrackPointExtension>
            <ns3:hr>135</ns3:hr>
          </ns3:TrackPointExtension>
        </extensions>
      </trkpt>
      <trkpt lat="46.83274897746741771697998046875" lon="6.8753182701766490936279296875">
        <ele>469.79998779296875</ele>
        <time>2017-05-05T12:04:06.000Z</time>
        <extensions>
          <ns3:TrackPointExtension>
            <ns3:hr>133</ns3:hr>
          </ns3:TrackPointExtension>
        </extensions>
      </trkpt>
      <trkpt lat="46.83282625861465930938720703125" lon="6.8752622790634632110595703125">
        <ele>469.79998779296875</ele>
        <time>2017-05-05T12:04:08.000Z</time>
        <extensions>
          <ns3:TrackPointExtension>
            <ns3:hr>134</ns3:hr>
          </ns3:TrackPointExtension>
        </extensions>
      </trkpt>
      <trkpt lat="46.83292038738727569580078125" lon="6.874927170574665069580078125">
        <ele>471.20001220703125</ele>
        <time>2017-05-05T12:04:14.000Z</time>
        <extensions>
          <ns3:TrackPointExtension>
            <ns3:hr>134</ns3:hr>
          </ns3:TrackPointExtension>
        </extensions>
      </trkpt>
      <trkpt lat="46.8329795636236667633056640625" lon="6.874692477285861968994140625">
        <ele>472.600006103515625</ele>
        <time>2017-05-05T12:04:18.000Z</time>
        <extensions>
          <ns3:TrackPointExtension>
            <ns3:hr>132</ns3:hr>
          </ns3:TrackPointExtension>
        </extensions>
      </trkpt>
      <trkpt lat="46.83303027413785457611083984375" lon="6.874495334923267364501953125">
        <ele>473.600006103515625</ele>
        <time>2017-05-05T12:04:21.000Z</time>
        <extensions>
          <ns3:TrackPointExtension>
            <ns3:hr>131</ns3:hr>
          </ns3:TrackPointExtension>
        </extensions>
      </trkpt>
      <trkpt lat="46.8331683240830898284912109375" lon="6.8739349208772182464599609375">
        <ele>474.79998779296875</ele>
        <time>2017-05-05T12:04:29.000Z</time>
        <extensions>
          <ns3:TrackPointExtension>
            <ns3:hr>132</ns3:hr>
          </ns3:TrackPointExtension>
        </extensions>
      </trkpt>
      <trkpt lat="46.83331676758825778961181640625" lon="6.8733223713934421539306640625">
        <ele>475.79998779296875</ele>
        <time>2017-05-05T12:04:37.000Z</time>
        <extensions>
          <ns3:TrackPointExtension>
            <ns3:hr>133</ns3:hr>
          </ns3:TrackPointExtension>
        </extensions>
      </trkpt>
      <trkpt lat="46.83331559412181377410888671875" lon="6.87324106693267822265625">
        <ele>475.79998779296875</ele>
        <time>2017-05-05T12:04:38.000Z</time>
        <extensions>
          <ns3:TrackPointExtension>
            <ns3:hr>133</ns3:hr>
          </ns3:TrackPointExtension>
        </extensions>
      </trkpt>
      <trkpt lat="46.83329329825937747955322265625" lon="6.8731674738228321075439453125">
        <ele>475.79998779296875</ele>
        <time>2017-05-05T12:04:39.000Z</time>
        <extensions>
          <ns3:TrackPointExtension>
            <ns3:hr>134</ns3:hr>
          </ns3:TrackPointExtension>
        </extensions>
      </trkpt>
      <trkpt lat="46.83320042677223682403564453125" lon="6.873056329786777496337890625">
        <ele>475.79998779296875</ele>
        <time>2017-05-05T12:04:41.000Z</time>
        <extensions>
          <ns3:TrackPointExtension>
            <ns3:hr>136</ns3:hr>
          </ns3:TrackPointExtension>
        </extensions>
      </trkpt>
      <trkpt lat="46.8330229818820953369140625" lon="6.87291492708027362823486328125">
        <ele>475.79998779296875</ele>
        <time>2017-05-05T12:04:44.000Z</time>
        <extensions>
          <ns3:TrackPointExtension>
            <ns3:hr>139</ns3:hr>
          </ns3:TrackPointExtension>
        </extensions>
      </trkpt>
      <trkpt lat="46.83284084312617778778076171875" lon="6.87276187352836132049560546875">
        <ele>475.600006103515625</ele>
        <time>2017-05-05T12:04:47.000Z</time>
        <extensions>
          <ns3:TrackPointExtension>
            <ns3:hr>142</ns3:hr>
          </ns3:TrackPointExtension>
        </extensions>
      </trkpt>
      <trkpt lat="46.832423508167266845703125" lon="6.87222761102020740509033203125">
        <ele>475.399993896484375</ele>
        <time>2017-05-05T12:04:56.000Z</time>
        <extensions>
          <ns3:TrackPointExtension>
            <ns3:hr>143</ns3:hr>
          </ns3:TrackPointExtension>
        </extensions>
      </trkpt>
      <trkpt lat="46.831962168216705322265625" lon="6.871686391532421112060546875">
        <ele>476.20001220703125</ele>
        <time>2017-05-05T12:05:05.000Z</time>
        <extensions>
          <ns3:TrackPointExtension>
            <ns3:hr>143</ns3:hr>
          </ns3:TrackPointExtension>
        </extensions>
      </trkpt>
      <trkpt lat="46.83157769031822681427001953125" lon="6.87125044874846935272216796875">
        <ele>476.79998779296875</ele>
        <time>2017-05-05T12:05:15.000Z</time>
        <extensions>
          <ns3:TrackPointExtension>
            <ns3:hr>141</ns3:hr>
          </ns3:TrackPointExtension>
        </extensions>
      </trkpt>
      <trkpt lat="46.83144517242908477783203125" lon="6.8711031787097454071044921875">
        <ele>477.600006103515625</ele>
        <time>2017-05-05T12:05:19.000Z</time>
        <extensions>
          <ns3:TrackPointExtension>
            <ns3:hr>139</ns3:hr>
          </ns3:TrackPointExtension>
        </extensions>
      </trkpt>
      <trkpt lat="46.83141390793025493621826171875" lon="6.87106219120323657989501953125">
        <ele>477.79998779296875</ele>
        <time>2017-05-05T12:05:20.000Z</time>
        <extensions>
          <ns3:TrackPointExtension>
            <ns3:hr>139</ns3:hr>
          </ns3:TrackPointExtension>
        </extensions>
      </trkpt>
      <trkpt lat="46.83131910860538482666015625" lon="6.87094719149172306060791015625">
        <ele>479</ele>
        <time>2017-05-05T12:05:23.000Z</time>
        <extensions>
          <ns3:TrackPointExtension>
            <ns3:hr>137</ns3:hr>
          </ns3:TrackPointExtension>
        </extensions>
      </trkpt>
      <trkpt lat="46.831196732819080352783203125" lon="6.8708123266696929931640625">
        <ele>480</ele>
        <time>2017-05-05T12:05:27.000Z</time>
        <extensions>
          <ns3:TrackPointExtension>
            <ns3:hr>135</ns3:hr>
          </ns3:TrackPointExtension>
        </extensions>
      </trkpt>
      <trkpt lat="46.831067316234111785888671875" lon="6.870775111019611358642578125">
        <ele>481</ele>
        <time>2017-05-05T12:05:31.000Z</time>
        <extensions>
          <ns3:TrackPointExtension>
            <ns3:hr>132</ns3:hr>
          </ns3:TrackPointExtension>
        </extensions>
      </trkpt>
      <trkpt lat="46.831039488315582275390625" lon="6.8708111532032489776611328125">
        <ele>481.20001220703125</ele>
        <time>2017-05-05T12:05:32.000Z</time>
        <extensions>
          <ns3:TrackPointExtension>
            <ns3:hr>131</ns3:hr>
          </ns3:TrackPointExtension>
        </extensions>
      </trkpt>
      <trkpt lat="46.8309387378394603729248046875" lon="6.87102296389639377593994140625">
        <ele>482.600006103515625</ele>
        <time>2017-05-05T12:05:37.000Z</time>
        <extensions>
          <ns3:TrackPointExtension>
            <ns3:hr>131</ns3:hr>
          </ns3:TrackPointExtension>
        </extensions>
      </trkpt>
      <trkpt lat="46.83083631098270416259765625" lon="6.871231086552143096923828125">
        <ele>484</ele>
        <time>2017-05-05T12:05:42.000Z</time>
        <extensions>
          <ns3:TrackPointExtension>
            <ns3:hr>136</ns3:hr>
          </ns3:TrackPointExtension>
        </extensions>
      </trkpt>
      <trkpt lat="46.83082466013729572296142578125" lon="6.87127810902893543243408203125">
        <ele>484.20001220703125</ele>
        <time>2017-05-05T12:05:43.000Z</time>
        <extensions>
          <ns3:TrackPointExtension>
            <ns3:hr>139</ns3:hr>
          </ns3:TrackPointExtension>
        </extensions>
      </trkpt>
      <trkpt lat="46.83074503205716609954833984375" lon="6.8714480102062225341796875">
        <ele>485</ele>
        <time>2017-05-05T12:05:47.000Z</time>
        <extensions>
          <ns3:TrackPointExtension>
            <ns3:hr>140</ns3:hr>
          </ns3:TrackPointExtension>
        </extensions>
      </trkpt>
      <trkpt lat="46.830646209418773651123046875" lon="6.87159729190170764923095703125">
        <ele>485.399993896484375</ele>
        <time>2017-05-05T12:05:51.000Z</time>
        <extensions>
          <ns3:TrackPointExtension>
            <ns3:hr>139</ns3:hr>
          </ns3:TrackPointExtension>
        </extensions>
      </trkpt>
      <trkpt lat="46.83068853802978992462158203125" lon="6.871316917240619659423828125">
        <ele>486.20001220703125</ele>
        <time>2017-05-05T12:05:59.000Z</time>
        <extensions>
          <ns3:TrackPointExtension>
            <ns3:hr>139</ns3:hr>
          </ns3:TrackPointExtension>
        </extensions>
      </trkpt>
      <trkpt lat="46.83082868345081806182861328125" lon="6.8709811381995677947998046875">
        <ele>487.20001220703125</ele>
        <time>2017-05-05T12:06:06.000Z</time>
        <extensions>
          <ns3:TrackPointExtension>
            <ns3:hr>140</ns3:hr>
          </ns3:TrackPointExtension>
        </extensions>
      </trkpt>
      <trkpt lat="46.830976791679859161376953125" lon="6.870593726634979248046875">
        <ele>487.600006103515625</ele>
        <time>2017-05-05T12:06:13.000Z</time>
        <extensions>
          <ns3:TrackPointExtension>
            <ns3:hr>138</ns3:hr>
          </ns3:TrackPointExtension>
        </extensions>
      </trkpt>
      <trkpt lat="46.83100990019738674163818359375" lon="6.87038158066570758819580078125">
        <ele>487.79998779296875</ele>
        <time>2017-05-05T12:06:16.000Z</time>
        <extensions>
          <ns3:TrackPointExtension>
            <ns3:hr>138</ns3:hr>
          </ns3:TrackPointExtension>
        </extensions>
      </trkpt>
      <trkpt lat="46.8313787877559661865234375" lon="6.86968688853085041046142578125">
        <ele>487.399993896484375</ele>
        <time>2017-05-05T12:06:26.000Z</time>
        <extensions>
          <ns3:TrackPointExtension>
            <ns3:hr>135</ns3:hr>
          </ns3:TrackPointExtension>
        </extensions>
      </trkpt>
      <trkpt lat="46.831661425530910491943359375" lon="6.86911222524940967559814453125">
        <ele>486.20001220703125</ele>
        <time>2017-05-05T12:06:32.000Z</time>
        <extensions>
          <ns3:TrackPointExtension>
            <ns3:hr>131</ns3:hr>
          </ns3:TrackPointExtension>
        </extensions>
      </trkpt>
      <trkpt lat="46.83170425705611705780029296875" lon="6.86901390552520751953125">
        <ele>485.79998779296875</ele>
        <time>2017-05-05T12:06:33.000Z</time>
        <extensions>
          <ns3:TrackPointExtension>
            <ns3:hr>129</ns3:hr>
          </ns3:TrackPointExtension>
        </extensions>
      </trkpt>
      <trkpt lat="46.831752955913543701171875" lon="6.86893142759799957275390625">
        <ele>485.20001220703125</ele>
        <time>2017-05-05T12:06:34.000Z</time>
        <extensions>
          <ns3:TrackPointExtension>
            <ns3:hr>124</ns3:hr>
          </ns3:TrackPointExtension>
        </extensions>
      </trkpt>
      <trkpt lat="46.831817664206027984619140625" lon="6.86887887306511402130126953125">
        <ele>484.79998779296875</ele>
        <time>2017-05-05T12:06:35.000Z</time>
        <extensions>
          <ns3:TrackPointExtension>
            <ns3:hr>124</ns3:hr>
          </ns3:TrackPointExtension>
        </extensions>
      </trkpt>
      <trkpt lat="46.83189519681036472320556640625" lon="6.86887769959867000579833984375">
        <ele>484</ele>
        <time>2017-05-05T12:06:36.000Z</time>
        <extensions>
          <ns3:TrackPointExtension>
            <ns3:hr>124</ns3:hr>
          </ns3:TrackPointExtension>
        </extensions>
      </trkpt>
      <trkpt lat="46.83197549544274806976318359375" lon="6.86891273595392704010009765625">
        <ele>483.399993896484375</ele>
        <time>2017-05-05T12:06:37.000Z</time>
        <extensions>
          <ns3:TrackPointExtension>
            <ns3:hr>124</ns3:hr>
          </ns3:TrackPointExtension>
        </extensions>
      </trkpt>
      <trkpt lat="46.8321324884891510009765625" lon="6.8690110556781291961669921875">
        <ele>481.20001220703125</ele>
        <time>2017-05-05T12:06:39.000Z</time>
        <extensions>
          <ns3:TrackPointExtension>
            <ns3:hr>124</ns3:hr>
          </ns3:TrackPointExtension>
        </extensions>
      </trkpt>
      <trkpt lat="46.832206249237060546875" lon="6.86904869042336940765380859375">
        <ele>480.399993896484375</ele>
        <time>2017-05-05T12:06:40.000Z</time>
        <extensions>
          <ns3:TrackPointExtension>
            <ns3:hr>124</ns3:hr>
          </ns3:TrackPointExtension>
        </extensions>
      </trkpt>
      <trkpt lat="46.8322791717946529388427734375" lon="6.869066543877124786376953125">
        <ele>479.79998779296875</ele>
        <time>2017-05-05T12:06:41.000Z</time>
        <extensions>
          <ns3:TrackPointExtension>
            <ns3:hr>124</ns3:hr>
          </ns3:TrackPointExtension>
        </extensions>
      </trkpt>
      <trkpt lat="46.8323515914380550384521484375" lon="6.869062520563602447509765625">
        <ele>479.399993896484375</ele>
        <time>2017-05-05T12:06:42.000Z</time>
        <extensions>
          <ns3:TrackPointExtension>
            <ns3:hr>124</ns3:hr>
          </ns3:TrackPointExtension>
        </extensions>
      </trkpt>
      <trkpt lat="46.83248276822268962860107421875" lon="6.86899370513856410980224609375">
        <ele>478</ele>
        <time>2017-05-05T12:06:44.000Z</time>
        <extensions>
          <ns3:TrackPointExtension>
            <ns3:hr>124</ns3:hr>
          </ns3:TrackPointExtension>
        </extensions>
      </trkpt>
      <trkpt lat="46.83258200995624065399169921875" lon="6.86882556416094303131103515625">
        <ele>476.600006103515625</ele>
        <time>2017-05-05T12:06:46.000Z</time>
        <extensions>
          <ns3:TrackPointExtension>
            <ns3:hr>124</ns3:hr>
          </ns3:TrackPointExtension>
        </extensions>
      </trkpt>
      <trkpt lat="46.83264411985874176025390625" lon="6.86859791167080402374267578125">
        <ele>476</ele>
        <time>2017-05-05T12:06:48.000Z</time>
        <extensions>
          <ns3:TrackPointExtension>
            <ns3:hr>124</ns3:hr>
          </ns3:TrackPointExtension>
        </extensions>
      </trkpt>
      <trkpt lat="46.83271276764571666717529296875" lon="6.8680947460234165191650390625">
        <ele>475.20001220703125</ele>
        <time>2017-05-05T12:06:52.000Z</time>
        <extensions>
          <ns3:TrackPointExtension>
            <ns3:hr>124</ns3:hr>
          </ns3:TrackPointExtension>
        </extensions>
      </trkpt>
      <trkpt lat="46.8327676691114902496337890625" lon="6.86759325675666332244873046875">
        <ele>473.79998779296875</ele>
        <time>2017-05-05T12:06:56.000Z</time>
        <extensions>
          <ns3:TrackPointExtension>
            <ns3:hr>124</ns3:hr>
          </ns3:TrackPointExtension>
        </extensions>
      </trkpt>
      <trkpt lat="46.8328099139034748077392578125" lon="6.86722017824649810791015625">
        <ele>473</ele>
        <time>2017-05-05T12:06:59.000Z</time>
        <extensions>
          <ns3:TrackPointExtension>
            <ns3:hr>127</ns3:hr>
          </ns3:TrackPointExtension>
        </extensions>
      </trkpt>
      <trkpt lat="46.832905299961566925048828125" lon="6.8663563393056392669677734375">
        <ele>472.399993896484375</ele>
        <time>2017-05-05T12:07:06.000Z</time>
        <extensions>
          <ns3:TrackPointExtension>
            <ns3:hr>128</ns3:hr>
          </ns3:TrackPointExtension>
        </extensions>
      </trkpt>
      <trkpt lat="46.832975707948207855224609375" lon="6.86576507985591888427734375">
        <ele>472.600006103515625</ele>
        <time>2017-05-05T12:07:11.000Z</time>
        <extensions>
          <ns3:TrackPointExtension>
            <ns3:hr>131</ns3:hr>
          </ns3:TrackPointExtension>
        </extensions>
      </trkpt>
      <trkpt lat="46.833004541695117950439453125" lon="6.86553600244224071502685546875">
        <ele>472.600006103515625</ele>
        <time>2017-05-05T12:07:13.000Z</time>
        <extensions>
          <ns3:TrackPointExtension>
            <ns3:hr>135</ns3:hr>
          </ns3:TrackPointExtension>
        </extensions>
      </trkpt>
      <trkpt lat="46.8330308608710765838623046875" lon="6.8653129599988460540771484375">
        <ele>472.600006103515625</ele>
        <time>2017-05-05T12:07:15.000Z</time>
        <extensions>
          <ns3:TrackPointExtension>
            <ns3:hr>138</ns3:hr>
          </ns3:TrackPointExtension>
        </extensions>
      </trkpt>
      <trkpt lat="46.8330808170139789581298828125" lon="6.864542327821254730224609375">
        <ele>472.600006103515625</ele>
        <time>2017-05-05T12:07:23.000Z</time>
        <extensions>
          <ns3:TrackPointExtension>
            <ns3:hr>139</ns3:hr>
          </ns3:TrackPointExtension>
        </extensions>
      </trkpt>
      <trkpt lat="46.83309875428676605224609375" lon="6.864370666444301605224609375">
        <ele>472.600006103515625</ele>
        <time>2017-05-05T12:07:25.000Z</time>
        <extensions>
          <ns3:TrackPointExtension>
            <ns3:hr>138</ns3:hr>
          </ns3:TrackPointExtension>
        </extensions>
      </trkpt>
      <trkpt lat="46.83312197215855121612548828125" lon="6.8640311993658542633056640625">
        <ele>473.20001220703125</ele>
        <time>2017-05-05T12:07:29.000Z</time>
        <extensions>
          <ns3:TrackPointExtension>
            <ns3:hr>137</ns3:hr>
          </ns3:TrackPointExtension>
        </extensions>
      </trkpt>
      <trkpt lat="46.8331374786794185638427734375" lon="6.863949559628963470458984375">
        <ele>473.399993896484375</ele>
        <time>2017-05-05T12:07:30.000Z</time>
        <extensions>
          <ns3:TrackPointExtension>
            <ns3:hr>137</ns3:hr>
          </ns3:TrackPointExtension>
        </extensions>
      </trkpt>
      <trkpt lat="46.83317025192081928253173828125" lon="6.86370916664600372314453125">
        <ele>474.600006103515625</ele>
        <time>2017-05-05T12:07:33.000Z</time>
        <extensions>
          <ns3:TrackPointExtension>
            <ns3:hr>136</ns3:hr>
          </ns3:TrackPointExtension>
        </extensions>
      </trkpt>
      <trkpt lat="46.83320729993283748626708984375" lon="6.863389313220977783203125">
        <ele>475.600006103515625</ele>
        <time>2017-05-05T12:07:37.000Z</time>
        <extensions>
          <ns3:TrackPointExtension>
            <ns3:hr>134</ns3:hr>
          </ns3:TrackPointExtension>
        </extensions>
      </trkpt>
      <trkpt lat="46.8334519676864147186279296875" lon="6.86261775903403759002685546875">
        <ele>476.20001220703125</ele>
        <time>2017-05-05T12:07:47.000Z</time>
        <extensions>
          <ns3:TrackPointExtension>
            <ns3:hr>133</ns3:hr>
          </ns3:TrackPointExtension>
        </extensions>
      </trkpt>
      <trkpt lat="46.83374055661261081695556640625" lon="6.86195206828415393829345703125">
        <ele>475.20001220703125</ele>
        <time>2017-05-05T12:07:55.000Z</time>
        <extensions>
          <ns3:TrackPointExtension>
            <ns3:hr>132</ns3:hr>
          </ns3:TrackPointExtension>
        </extensions>
      </trkpt>
      <trkpt lat="46.83382018469274044036865234375" lon="6.86178526841104030609130859375">
        <ele>474</ele>
        <time>2017-05-05T12:07:57.000Z</time>
        <extensions>
          <ns3:TrackPointExtension>
            <ns3:hr>133</ns3:hr>
          </ns3:TrackPointExtension>
        </extensions>
      </trkpt>
      <trkpt lat="46.833889000117778778076171875" lon="6.86161763034760951995849609375">
        <ele>472.79998779296875</ele>
        <time>2017-05-05T12:07:59.000Z</time>
        <extensions>
          <ns3:TrackPointExtension>
            <ns3:hr>133</ns3:hr>
          </ns3:TrackPointExtension>
        </extensions>
      </trkpt>
      <trkpt lat="46.83391456492245197296142578125" lon="6.8614341504871845245361328125">
        <ele>472</ele>
        <time>2017-05-05T12:08:01.000Z</time>
        <extensions>
          <ns3:TrackPointExtension>
            <ns3:hr>133</ns3:hr>
          </ns3:TrackPointExtension>
        </extensions>
      </trkpt>
      <trkpt lat="46.83391674421727657318115234375" lon="6.86134404502809047698974609375">
        <ele>471.600006103515625</ele>
        <time>2017-05-05T12:08:02.000Z</time>
        <extensions>
          <ns3:TrackPointExtension>
            <ns3:hr>133</ns3:hr>
          </ns3:TrackPointExtension>
        </extensions>
      </trkpt>
      <trkpt lat="46.8339107930660247802734375" lon="6.86124647967517375946044921875">
        <ele>471.399993896484375</ele>
        <time>2017-05-05T12:08:03.000Z</time>
        <extensions>
          <ns3:TrackPointExtension>
            <ns3:hr>133</ns3:hr>
          </ns3:TrackPointExtension>
        </extensions>
      </trkpt>
      <trkpt lat="46.8337191827595233917236328125" lon="6.86067600734531879425048828125">
        <ele>471.20001220703125</ele>
        <time>2017-05-05T12:08:10.000Z</time>
        <extensions>
          <ns3:TrackPointExtension>
            <ns3:hr>134</ns3:hr>
          </ns3:TrackPointExtension>
        </extensions>
      </trkpt>
      <trkpt lat="46.8335889279842376708984375" lon="6.86009882949292659759521484375">
        <ele>472.79998779296875</ele>
        <time>2017-05-05T12:08:17.000Z</time>
        <extensions>
          <ns3:TrackPointExtension>
            <ns3:hr>133</ns3:hr>
          </ns3:TrackPointExtension>
        </extensions>
      </trkpt>
      <trkpt lat="46.83341500349342823028564453125" lon="6.8592830188572406768798828125">
        <ele>473.20001220703125</ele>
        <time>2017-05-05T12:08:27.000Z</time>
        <extensions>
          <ns3:TrackPointExtension>
            <ns3:hr>132</ns3:hr>
          </ns3:TrackPointExtension>
        </extensions>
      </trkpt>
      <trkpt lat="46.8333597667515277862548828125" lon="6.85895335860550403594970703125">
        <ele>473.79998779296875</ele>
        <time>2017-05-05T12:08:31.000Z</time>
        <extensions>
          <ns3:TrackPointExtension>
            <ns3:hr>132</ns3:hr>
          </ns3:TrackPointExtension>
        </extensions>
      </trkpt>
      <trkpt lat="46.83327435515820980072021484375" lon="6.8584817089140415191650390625">
        <ele>474.399993896484375</ele>
        <time>2017-05-05T12:08:37.000Z</time>
        <extensions>
          <ns3:TrackPointExtension>
            <ns3:hr>132</ns3:hr>
          </ns3:TrackPointExtension>
        </extensions>
      </trkpt>
      <trkpt lat="46.83328910730779170989990234375" lon="6.8583241291344165802001953125">
        <ele>474.399993896484375</ele>
        <time>2017-05-05T12:08:39.000Z</time>
        <extensions>
          <ns3:TrackPointExtension>
            <ns3:hr>133</ns3:hr>
          </ns3:TrackPointExtension>
        </extensions>
      </trkpt>
      <trkpt lat="46.8332917056977748870849609375" lon="6.8581642024219036102294921875">
        <ele>474.600006103515625</ele>
        <time>2017-05-05T12:08:41.000Z</time>
        <extensions>
          <ns3:TrackPointExtension>
            <ns3:hr>134</ns3:hr>
          </ns3:TrackPointExtension>
        </extensions>
      </trkpt>
      <trkpt lat="46.83324183337390422821044921875" lon="6.8580113165080547332763671875">
        <ele>474.600006103515625</ele>
        <time>2017-05-05T12:08:43.000Z</time>
        <extensions>
          <ns3:TrackPointExtension>
            <ns3:hr>134</ns3:hr>
          </ns3:TrackPointExtension>
        </extensions>
      </trkpt>
      <trkpt lat="46.83317997492849826812744140625" lon="6.85787200927734375">
        <ele>474.79998779296875</ele>
        <time>2017-05-05T12:08:45.000Z</time>
        <extensions>
          <ns3:TrackPointExtension>
            <ns3:hr>135</ns3:hr>
          </ns3:TrackPointExtension>
        </extensions>
      </trkpt>
      <trkpt lat="46.8331505544483661651611328125" lon="6.8578118272125720977783203125">
        <ele>474.79998779296875</ele>
        <time>2017-05-05T12:08:46.000Z</time>
        <extensions>
          <ns3:TrackPointExtension>
            <ns3:hr>135</ns3:hr>
          </ns3:TrackPointExtension>
        </extensions>
      </trkpt>
      <trkpt lat="46.83309012092649936676025390625" lon="6.8577099032700061798095703125">
        <ele>475</ele>
        <time>2017-05-05T12:08:48.000Z</time>
        <extensions>
          <ns3:TrackPointExtension>
            <ns3:hr>134</ns3:hr>
          </ns3:TrackPointExtension>
        </extensions>
      </trkpt>
      <trkpt lat="46.83297428302466869354248046875" lon="6.8575479649007320404052734375">
        <ele>475.600006103515625</ele>
        <time>2017-05-05T12:08:53.000Z</time>
        <extensions>
          <ns3:TrackPointExtension>
            <ns3:hr>131</ns3:hr>
          </ns3:TrackPointExtension>
        </extensions>
      </trkpt>
      <trkpt lat="46.83287881314754486083984375" lon="6.85752265155315399169921875">
        <ele>476</ele>
        <time>2017-05-05T12:08:56.000Z</time>
        <extensions>
          <ns3:TrackPointExtension>
            <ns3:hr>131</ns3:hr>
          </ns3:TrackPointExtension>
        </extensions>
      </trkpt>
      <trkpt lat="46.832719556987285614013671875" lon="6.8574410118162631988525390625">
        <ele>477.20001220703125</ele>
        <time>2017-05-05T12:09:01.000Z</time>
        <extensions>
          <ns3:TrackPointExtension>
            <ns3:hr>132</ns3:hr>
          </ns3:TrackPointExtension>
        </extensions>
      </trkpt>
      <trkpt lat="46.83265945874154567718505859375" lon="6.8573315441608428955078125">
        <ele>478.20001220703125</ele>
        <time>2017-05-05T12:09:05.000Z</time>
        <extensions>
          <ns3:TrackPointExtension>
            <ns3:hr>133</ns3:hr>
          </ns3:TrackPointExtension>
        </extensions>
      </trkpt>
      <trkpt lat="46.832651160657405853271484375" lon="6.8571406044065952301025390625">
        <ele>479.600006103515625</ele>
        <time>2017-05-05T12:09:10.000Z</time>
        <extensions>
          <ns3:TrackPointExtension>
            <ns3:hr>131</ns3:hr>
          </ns3:TrackPointExtension>
        </extensions>
      </trkpt>
      <trkpt lat="46.83252350427210330963134765625" lon="6.85631305910646915435791015625">
        <ele>479.79998779296875</ele>
        <time>2017-05-05T12:09:25.000Z</time>
        <extensions>
          <ns3:TrackPointExtension>
            <ns3:hr>129</ns3:hr>
          </ns3:TrackPointExtension>
        </extensions>
      </trkpt>
      <trkpt lat="46.83238319121301174163818359375" lon="6.85568190179765224456787109375">
        <ele>479.20001220703125</ele>
        <time>2017-05-05T12:09:33.000Z</time>
        <extensions>
          <ns3:TrackPointExtension>
            <ns3:hr>128</ns3:hr>
          </ns3:TrackPointExtension>
        </extensions>
      </trkpt>
      <trkpt lat="46.83224983513355255126953125" lon="6.85537193901836872100830078125">
        <ele>478.399993896484375</ele>
        <time>2017-05-05T12:09:37.000Z</time>
        <extensions>
          <ns3:TrackPointExtension>
            <ns3:hr>129</ns3:hr>
          </ns3:TrackPointExtension>
        </extensions>
      </trkpt>
      <trkpt lat="46.83218873105943202972412109375" lon="6.85521737672388553619384765625">
        <ele>478.20001220703125</ele>
        <time>2017-05-05T12:09:39.000Z</time>
        <extensions>
          <ns3:TrackPointExtension>
            <ns3:hr>129</ns3:hr>
          </ns3:TrackPointExtension>
        </extensions>
      </trkpt>
      <trkpt lat="46.83215729892253875732421875" lon="6.8549604713916778564453125">
        <ele>477.79998779296875</ele>
        <time>2017-05-05T12:09:42.000Z</time>
        <extensions>
          <ns3:TrackPointExtension>
            <ns3:hr>129</ns3:hr>
          </ns3:TrackPointExtension>
        </extensions>
      </trkpt>
      <trkpt lat="46.83215319178998470306396484375" lon="6.8547284603118896484375">
        <ele>477.399993896484375</ele>
        <time>2017-05-05T12:09:45.000Z</time>
        <extensions>
          <ns3:TrackPointExtension>
            <ns3:hr>130</ns3:hr>
          </ns3:TrackPointExtension>
        </extensions>
      </trkpt>
      <trkpt lat="46.83213860727846622467041015625" lon="6.8544213473796844482421875">
        <ele>477.20001220703125</ele>
        <time>2017-05-05T12:09:48.000Z</time>
        <extensions>
          <ns3:TrackPointExtension>
            <ns3:hr>133</ns3:hr>
          </ns3:TrackPointExtension>
        </extensions>
      </trkpt>
      <trkpt lat="46.83209837414324283599853515625" lon="6.85426770709455013275146484375">
        <ele>477.20001220703125</ele>
        <time>2017-05-05T12:09:50.000Z</time>
        <extensions>
          <ns3:TrackPointExtension>
            <ns3:hr>133</ns3:hr>
          </ns3:TrackPointExtension>
        </extensions>
      </trkpt>
      <trkpt lat="46.8318483419716358184814453125" lon="6.853509061038494110107421875">
        <ele>477.20001220703125</ele>
        <time>2017-05-05T12:09:59.000Z</time>
        <extensions>
          <ns3:TrackPointExtension>
            <ns3:hr>133</ns3:hr>
          </ns3:TrackPointExtension>
        </extensions>
      </trkpt>
      <trkpt lat="46.83159663341939449310302734375" lon="6.85269542969763278961181640625">
        <ele>477.600006103515625</ele>
        <time>2017-05-05T12:10:12.000Z</time>
        <extensions>
          <ns3:TrackPointExtension>
            <ns3:hr>133</ns3:hr>
          </ns3:TrackPointExtension>
        </extensions>
      </trkpt>
      <trkpt lat="46.83164524845778942108154296875" lon="6.85226024128496646881103515625">
        <ele>477.79998779296875</ele>
        <time>2017-05-05T12:10:19.000Z</time>
        <extensions>
          <ns3:TrackPointExtension>
            <ns3:hr>133</ns3:hr>
          </ns3:TrackPointExtension>
        </extensions>
      </trkpt>
      <trkpt lat="46.8316763453185558319091796875" lon="6.8522224389016628265380859375">
        <ele>478</ele>
        <time>2017-05-05T12:10:21.000Z</time>
        <extensions>
          <ns3:TrackPointExtension>
            <ns3:hr>134</ns3:hr>
          </ns3:TrackPointExtension>
        </extensions>
      </trkpt>
      <trkpt lat="46.8320568837225437164306640625" lon="6.8526542745530605316162109375">
        <ele>477.20001220703125</ele>
        <time>2017-05-05T12:10:33.000Z</time>
        <extensions>
          <ns3:TrackPointExtension>
            <ns3:hr>135</ns3:hr>
          </ns3:TrackPointExtension>
        </extensions>
      </trkpt>
      <trkpt lat="46.83220130391418933868408203125" lon="6.85273163951933383941650390625">
        <ele>477.20001220703125</ele>
        <time>2017-05-05T12:10:36.000Z</time>
        <extensions>
          <ns3:TrackPointExtension>
            <ns3:hr>134</ns3:hr>
          </ns3:TrackPointExtension>
        </extensions>
      </trkpt>
      <trkpt lat="46.83230079710483551025390625" lon="6.8527283705770969390869140625">
        <ele>477.20001220703125</ele>
        <time>2017-05-05T12:10:38.000Z</time>
        <extensions>
          <ns3:TrackPointExtension>
            <ns3:hr>134</ns3:hr>
          </ns3:TrackPointExtension>
        </extensions>
      </trkpt>
      <trkpt lat="46.832398362457752227783203125" lon="6.85267548076808452606201171875">
        <ele>477.20001220703125</ele>
        <time>2017-05-05T12:10:40.000Z</time>
        <extensions>
          <ns3:TrackPointExtension>
            <ns3:hr>135</ns3:hr>
          </ns3:TrackPointExtension>
        </extensions>
      </trkpt>
      <trkpt lat="46.83260581456124782562255859375" lon="6.852506585419178009033203125">
        <ele>477.600006103515625</ele>
        <time>2017-05-05T12:10:45.000Z</time>
        <extensions>
          <ns3:TrackPointExtension>
            <ns3:hr>140</ns3:hr>
          </ns3:TrackPointExtension>
        </extensions>
      </trkpt>
      <trkpt lat="46.8327411822974681854248046875" lon="6.85239301063120365142822265625">
        <ele>478</ele>
        <time>2017-05-05T12:10:49.000Z</time>
        <extensions>
          <ns3:TrackPointExtension>
            <ns3:hr>143</ns3:hr>
          </ns3:TrackPointExtension>
        </extensions>
      </trkpt>
      <trkpt lat="46.832810752093791961669921875" lon="6.85233525931835174560546875">
        <ele>478.399993896484375</ele>
        <time>2017-05-05T12:10:51.000Z</time>
        <extensions>
          <ns3:TrackPointExtension>
            <ns3:hr>144</ns3:hr>
          </ns3:TrackPointExtension>
        </extensions>
      </trkpt>
      <trkpt lat="46.8329091556370258331298828125" lon="6.85225009918212890625">
        <ele>479</ele>
        <time>2017-05-05T12:10:54.000Z</time>
        <extensions>
          <ns3:TrackPointExtension>
            <ns3:hr>141</ns3:hr>
          </ns3:TrackPointExtension>
        </extensions>
      </trkpt>
      <trkpt lat="46.832943521440029144287109375" lon="6.85222134925425052642822265625">
        <ele>479.399993896484375</ele>
        <time>2017-05-05T12:10:55.000Z</time>
        <extensions>
          <ns3:TrackPointExtension>
            <ns3:hr>141</ns3:hr>
          </ns3:TrackPointExtension>
        </extensions>
      </trkpt>
      <trkpt lat="46.83303697966039180755615234375" lon="6.8521413020789623260498046875">
        <ele>480.600006103515625</ele>
        <time>2017-05-05T12:10:58.000Z</time>
        <extensions>
          <ns3:TrackPointExtension>
            <ns3:hr>142</ns3:hr>
          </ns3:TrackPointExtension>
        </extensions>
      </trkpt>
      <trkpt lat="46.83317477814853191375732421875" lon="6.85204289853572845458984375">
        <ele>481.399993896484375</ele>
        <time>2017-05-05T12:11:02.000Z</time>
        <extensions>
          <ns3:TrackPointExtension>
            <ns3:hr>145</ns3:hr>
          </ns3:TrackPointExtension>
        </extensions>
      </trkpt>
      <trkpt lat="46.83321945369243621826171875" lon="6.8520135618746280670166015625">
        <ele>481.79998779296875</ele>
        <time>2017-05-05T12:11:03.000Z</time>
        <extensions>
          <ns3:TrackPointExtension>
            <ns3:hr>146</ns3:hr>
          </ns3:TrackPointExtension>
        </extensions>
      </trkpt>
      <trkpt lat="46.83326597325503826141357421875" lon="6.85197726823389530181884765625">
        <ele>482.20001220703125</ele>
        <time>2017-05-05T12:11:04.000Z</time>
        <extensions>
          <ns3:TrackPointExtension>
            <ns3:hr>146</ns3:hr>
          </ns3:TrackPointExtension>
        </extensions>
      </trkpt>
      <trkpt lat="46.833750195801258087158203125" lon="6.85159899294376373291015625">
        <ele>482.600006103515625</ele>
        <time>2017-05-05T12:11:13.000Z</time>
        <extensions>
          <ns3:TrackPointExtension>
            <ns3:hr>145</ns3:hr>
          </ns3:TrackPointExtension>
        </extensions>
      </trkpt>
      <trkpt lat="46.83417993597686290740966796875" lon="6.85127335600554943084716796875">
        <ele>481</ele>
        <time>2017-05-05T12:11:19.000Z</time>
        <extensions>
          <ns3:TrackPointExtension>
            <ns3:hr>142</ns3:hr>
          </ns3:TrackPointExtension>
        </extensions>
      </trkpt>
      <trkpt lat="46.834251768887042999267578125" lon="6.85121535323560237884521484375">
        <ele>480.20001220703125</ele>
        <time>2017-05-05T12:11:20.000Z</time>
        <extensions>
          <ns3:TrackPointExtension>
            <ns3:hr>142</ns3:hr>
          </ns3:TrackPointExtension>
        </extensions>
      </trkpt>
      <trkpt lat="46.83438797481358051300048828125" lon="6.85109817422926425933837890625">
        <ele>479</ele>
        <time>2017-05-05T12:11:22.000Z</time>
        <extensions>
          <ns3:TrackPointExtension>
            <ns3:hr>141</ns3:hr>
          </ns3:TrackPointExtension>
        </extensions>
      </trkpt>
      <trkpt lat="46.83443985879421234130859375" lon="6.8510362319648265838623046875">
        <ele>478.600006103515625</ele>
        <time>2017-05-05T12:11:23.000Z</time>
        <extensions>
          <ns3:TrackPointExtension>
            <ns3:hr>141</ns3:hr>
          </ns3:TrackPointExtension>
        </extensions>
      </trkpt>
      <trkpt lat="46.8344715423882007598876953125" lon="6.850964985787868499755859375">
        <ele>477.79998779296875</ele>
        <time>2017-05-05T12:11:24.000Z</time>
        <extensions>
          <ns3:TrackPointExtension>
            <ns3:hr>141</ns3:hr>
          </ns3:TrackPointExtension>
        </extensions>
      </trkpt>
      <trkpt lat="46.834476403892040252685546875" lon="6.85088644735515117645263671875">
        <ele>477.399993896484375</ele>
        <time>2017-05-05T12:11:25.000Z</time>
        <extensions>
          <ns3:TrackPointExtension>
            <ns3:hr>141</ns3:hr>
          </ns3:TrackPointExtension>
        </extensions>
      </trkpt>
      <trkpt lat="46.83441848494112491607666015625" lon="6.8506573699414730072021484375">
        <ele>477.20001220703125</ele>
        <time>2017-05-05T12:11:28.000Z</time>
        <extensions>
          <ns3:TrackPointExtension>
            <ns3:hr>141</ns3:hr>
          </ns3:TrackPointExtension>
        </extensions>
      </trkpt>
      <trkpt lat="46.83423039503395557403564453125" lon="6.84987190179526805877685546875">
        <ele>477.399993896484375</ele>
        <time>2017-05-05T12:11:38.000Z</time>
        <extensions>
          <ns3:TrackPointExtension>
            <ns3:hr>143</ns3:hr>
          </ns3:TrackPointExtension>
        </extensions>
      </trkpt>
      <trkpt lat="46.8340422213077545166015625" lon="6.84909540228545665740966796875">
        <ele>478.20001220703125</ele>
        <time>2017-05-05T12:11:48.000Z</time>
        <extensions>
          <ns3:TrackPointExtension>
            <ns3:hr>143</ns3:hr>
          </ns3:TrackPointExtension>
        </extensions>
      </trkpt>
      <trkpt lat="46.83387299068272113800048828125" lon="6.8484012968838214874267578125">
        <ele>478.79998779296875</ele>
        <time>2017-05-05T12:11:57.000Z</time>
        <extensions>
          <ns3:TrackPointExtension>
            <ns3:hr>144</ns3:hr>
          </ns3:TrackPointExtension>
        </extensions>
      </trkpt>
      <trkpt lat="46.83369814418256282806396484375" lon="6.84763192199170589447021484375">
        <ele>479.20001220703125</ele>
        <time>2017-05-05T12:12:07.000Z</time>
        <extensions>
          <ns3:TrackPointExtension>
            <ns3:hr>144</ns3:hr>
          </ns3:TrackPointExtension>
        </extensions>
      </trkpt>
      <trkpt lat="46.8336776085197925567626953125" lon="6.84744684956967830657958984375">
        <ele>479.399993896484375</ele>
        <time>2017-05-05T12:12:10.000Z</time>
        <extensions>
          <ns3:TrackPointExtension>
            <ns3:hr>144</ns3:hr>
          </ns3:TrackPointExtension>
        </extensions>
      </trkpt>
      <trkpt lat="46.833701916038990020751953125" lon="6.84732489287853240966796875">
        <ele>479.399993896484375</ele>
        <time>2017-05-05T12:12:12.000Z</time>
        <extensions>
          <ns3:TrackPointExtension>
            <ns3:hr>144</ns3:hr>
          </ns3:TrackPointExtension>
        </extensions>
      </trkpt>
      <trkpt lat="46.8337627686560153961181640625" lon="6.84722774662077426910400390625">
        <ele>479.600006103515625</ele>
        <time>2017-05-05T12:12:14.000Z</time>
        <extensions>
          <ns3:TrackPointExtension>
            <ns3:hr>143</ns3:hr>
          </ns3:TrackPointExtension>
        </extensions>
      </trkpt>
      <trkpt lat="46.8338368646800518035888671875" lon="6.8471446819603443145751953125">
        <ele>480</ele>
        <time>2017-05-05T12:12:16.000Z</time>
        <extensions>
          <ns3:TrackPointExtension>
            <ns3:hr>142</ns3:hr>
          </ns3:TrackPointExtension>
        </extensions>
      </trkpt>
      <trkpt lat="46.83394524268805980682373046875" lon="6.847018115222454071044921875">
        <ele>481</ele>
        <time>2017-05-05T12:12:19.000Z</time>
        <extensions>
          <ns3:TrackPointExtension>
            <ns3:hr>142</ns3:hr>
          </ns3:TrackPointExtension>
        </extensions>
      </trkpt>
      <trkpt lat="46.83398790657520294189453125" lon="6.8469938077032566070556640625">
        <ele>481.20001220703125</ele>
        <time>2017-05-05T12:12:20.000Z</time>
        <extensions>
          <ns3:TrackPointExtension>
            <ns3:hr>142</ns3:hr>
          </ns3:TrackPointExtension>
        </extensions>
      </trkpt>
      <trkpt lat="46.8340279720723628997802734375" lon="6.8469700030982494354248046875">
        <ele>481.399993896484375</ele>
        <time>2017-05-05T12:12:21.000Z</time>
        <extensions>
          <ns3:TrackPointExtension>
            <ns3:hr>142</ns3:hr>
          </ns3:TrackPointExtension>
        </extensions>
      </trkpt>
      <trkpt lat="46.8341986276209354400634765625" lon="6.8468107469379901885986328125">
        <ele>482.20001220703125</ele>
        <time>2017-05-05T12:12:26.000Z</time>
        <extensions>
          <ns3:TrackPointExtension>
            <ns3:hr>142</ns3:hr>
          </ns3:TrackPointExtension>
        </extensions>
      </trkpt>
      <trkpt lat="46.83432544581592082977294921875" lon="6.84669666923582553863525390625">
        <ele>483.79998779296875</ele>
        <time>2017-05-05T12:12:30.000Z</time>
        <extensions>
          <ns3:TrackPointExtension>
            <ns3:hr>140</ns3:hr>
          </ns3:TrackPointExtension>
        </extensions>
      </trkpt>
      <trkpt lat="46.83435142971575260162353515625" lon="6.846607066690921783447265625">
        <ele>485</ele>
        <time>2017-05-05T12:12:32.000Z</time>
        <extensions>
          <ns3:TrackPointExtension>
            <ns3:hr>141</ns3:hr>
          </ns3:TrackPointExtension>
        </extensions>
      </trkpt>
      <trkpt lat="46.834317483007907867431640625" lon="6.8465101718902587890625">
        <ele>485.600006103515625</ele>
        <time>2017-05-05T12:12:34.000Z</time>
        <extensions>
          <ns3:TrackPointExtension>
            <ns3:hr>142</ns3:hr>
          </ns3:TrackPointExtension>
        </extensions>
      </trkpt>
      <trkpt lat="46.834222264587879180908203125" lon="6.8463775701820850372314453125">
        <ele>486</ele>
        <time>2017-05-05T12:12:37.000Z</time>
        <extensions>
          <ns3:TrackPointExtension>
            <ns3:hr>144</ns3:hr>
          </ns3:TrackPointExtension>
        </extensions>
      </trkpt>
      <trkpt lat="46.8340931832790374755859375" lon="6.8461391888558864593505859375">
        <ele>487.20001220703125</ele>
        <time>2017-05-05T12:12:42.000Z</time>
        <extensions>
          <ns3:TrackPointExtension>
            <ns3:hr>143</ns3:hr>
          </ns3:TrackPointExtension>
        </extensions>
      </trkpt>
      <trkpt lat="46.8338023312389850616455078125" lon="6.84547743760049343109130859375">
        <ele>488</ele>
        <time>2017-05-05T12:12:53.000Z</time>
        <extensions>
          <ns3:TrackPointExtension>
            <ns3:hr>140</ns3:hr>
          </ns3:TrackPointExtension>
        </extensions>
      </trkpt>
      <trkpt lat="46.83354274369776248931884765625" lon="6.8447370640933513641357421875">
        <ele>487.79998779296875</ele>
        <time>2017-05-05T12:13:03.000Z</time>
        <extensions>
          <ns3:TrackPointExtension>
            <ns3:hr>139</ns3:hr>
          </ns3:TrackPointExtension>
        </extensions>
      </trkpt>
      <trkpt lat="46.83353318832814693450927734375" lon="6.8446679972112178802490234375">
        <ele>487.79998779296875</ele>
        <time>2017-05-05T12:13:04.000Z</time>
        <extensions>
          <ns3:TrackPointExtension>
            <ns3:hr>139</ns3:hr>
          </ns3:TrackPointExtension>
        </extensions>
      </trkpt>
      <trkpt lat="46.83352522552013397216796875" lon="6.844531707465648651123046875">
        <ele>487.79998779296875</ele>
        <time>2017-05-05T12:13:06.000Z</time>
        <extensions>
          <ns3:TrackPointExtension>
            <ns3:hr>139</ns3:hr>
          </ns3:TrackPointExtension>
        </extensions>
      </trkpt>
      <trkpt lat="46.83346747420728206634521484375" lon="6.844404302537441253662109375">
        <ele>487.79998779296875</ele>
        <time>2017-05-05T12:13:08.000Z</time>
        <extensions>
          <ns3:TrackPointExtension>
            <ns3:hr>140</ns3:hr>
          </ns3:TrackPointExtension>
        </extensions>
      </trkpt>
      <trkpt lat="46.8331971578299999237060546875" lon="6.84394908137619495391845703125">
        <ele>487.79998779296875</ele>
        <time>2017-05-05T12:13:15.000Z</time>
        <extensions>
          <ns3:TrackPointExtension>
            <ns3:hr>143</ns3:hr>
          </ns3:TrackPointExtension>
        </extensions>
      </trkpt>
      <trkpt lat="46.833185590803623199462890625" lon="6.84378563426434993743896484375">
        <ele>487.600006103515625</ele>
        <time>2017-05-05T12:13:17.000Z</time>
        <extensions>
          <ns3:TrackPointExtension>
            <ns3:hr>143</ns3:hr>
          </ns3:TrackPointExtension>
        </extensions>
      </trkpt>
      <trkpt lat="46.83324485085904598236083984375" lon="6.84365990571677684783935546875">
        <ele>487.600006103515625</ele>
        <time>2017-05-05T12:13:19.000Z</time>
        <extensions>
          <ns3:TrackPointExtension>
            <ns3:hr>143</ns3:hr>
          </ns3:TrackPointExtension>
        </extensions>
      </trkpt>
      <trkpt lat="46.8337335996329784393310546875" lon="6.84327475726604461669921875">
        <ele>487</ele>
        <time>2017-05-05T12:13:29.000Z</time>
        <extensions>
          <ns3:TrackPointExtension>
            <ns3:hr>140</ns3:hr>
          </ns3:TrackPointExtension>
        </extensions>
      </trkpt>
      <trkpt lat="46.83395169675350189208984375" lon="6.84309194795787334442138671875">
        <ele>486.600006103515625</ele>
        <time>2017-05-05T12:13:33.000Z</time>
        <extensions>
          <ns3:TrackPointExtension>
            <ns3:hr>144</ns3:hr>
          </ns3:TrackPointExtension>
        </extensions>
      </trkpt>
      <trkpt lat="46.83406476862728595733642578125" lon="6.8429936282336711883544921875">
        <ele>486</ele>
        <time>2017-05-05T12:13:35.000Z</time>
        <extensions>
          <ns3:TrackPointExtension>
            <ns3:hr>145</ns3:hr>
          </ns3:TrackPointExtension>
        </extensions>
      </trkpt>
      <trkpt lat="46.834302730858325958251953125" lon="6.84278986416757106781005859375">
        <ele>484.79998779296875</ele>
        <time>2017-05-05T12:13:39.000Z</time>
        <extensions>
          <ns3:TrackPointExtension>
            <ns3:hr>146</ns3:hr>
          </ns3:TrackPointExtension>
        </extensions>
      </trkpt>
      <trkpt lat="46.83442401699721813201904296875" lon="6.84268659912049770355224609375">
        <ele>484.399993896484375</ele>
        <time>2017-05-05T12:13:41.000Z</time>
        <extensions>
          <ns3:TrackPointExtension>
            <ns3:hr>149</ns3:hr>
          </ns3:TrackPointExtension>
        </extensions>
      </trkpt>
      <trkpt lat="46.8345426209270954132080078125" lon="6.8425882793962955474853515625">
        <ele>483.79998779296875</ele>
        <time>2017-05-05T12:13:43.000Z</time>
        <extensions>
          <ns3:TrackPointExtension>
            <ns3:hr>149</ns3:hr>
          </ns3:TrackPointExtension>
        </extensions>
      </trkpt>
      <trkpt lat="46.83505048044025897979736328125" lon="6.84216524474322795867919921875">
        <ele>483</ele>
        <time>2017-05-05T12:13:53.000Z</time>
        <extensions>
          <ns3:TrackPointExtension>
            <ns3:hr>149</ns3:hr>
          </ns3:TrackPointExtension>
        </extensions>
      </trkpt>
      <trkpt lat="46.83518308214843273162841796875" lon="6.84204907156527042388916015625">
        <ele>483.399993896484375</ele>
        <time>2017-05-05T12:13:56.000Z</time>
        <extensions>
          <ns3:TrackPointExtension>
            <ns3:hr>144</ns3:hr>
          </ns3:TrackPointExtension>
        </extensions>
      </trkpt>
      <trkpt lat="46.83522440493106842041015625" lon="6.8420136161148548126220703125">
        <ele>483.600006103515625</ele>
        <time>2017-05-05T12:13:57.000Z</time>
        <extensions>
          <ns3:TrackPointExtension>
            <ns3:hr>144</ns3:hr>
          </ns3:TrackPointExtension>
        </extensions>
      </trkpt>
      <trkpt lat="46.83538508601486682891845703125" lon="6.8418712913990020751953125">
        <ele>484</ele>
        <time>2017-05-05T12:14:01.000Z</time>
        <extensions>
          <ns3:TrackPointExtension>
            <ns3:hr>147</ns3:hr>
          </ns3:TrackPointExtension>
        </extensions>
      </trkpt>
      <trkpt lat="46.8355119042098522186279296875" lon="6.8417651765048503875732421875">
        <ele>484.399993896484375</ele>
        <time>2017-05-05T12:14:04.000Z</time>
        <extensions>
          <ns3:TrackPointExtension>
            <ns3:hr>151</ns3:hr>
          </ns3:TrackPointExtension>
        </extensions>
      </trkpt>
      <trkpt lat="46.8355558253824710845947265625" lon="6.84173139743506908416748046875">
        <ele>484.600006103515625</ele>
        <time>2017-05-05T12:14:05.000Z</time>
        <extensions>
          <ns3:TrackPointExtension>
            <ns3:hr>157</ns3:hr>
          </ns3:TrackPointExtension>
        </extensions>
      </trkpt>
      <trkpt lat="46.83560125529766082763671875" lon="6.84169854037463665008544921875">
        <ele>484.79998779296875</ele>
        <time>2017-05-05T12:14:06.000Z</time>
        <extensions>
          <ns3:TrackPointExtension>
            <ns3:hr>161</ns3:hr>
          </ns3:TrackPointExtension>
        </extensions>
      </trkpt>
      <trkpt lat="46.83564660139381885528564453125" lon="6.84166534803807735443115234375">
        <ele>485</ele>
        <time>2017-05-05T12:14:07.000Z</time>
        <extensions>
          <ns3:TrackPointExtension>
            <ns3:hr>165</ns3:hr>
          </ns3:TrackPointExtension>
        </extensions>
      </trkpt>
      <trkpt lat="46.8356899358332157135009765625" lon="6.841628216207027435302734375">
        <ele>485.20001220703125</ele>
        <time>2017-05-05T12:14:08.000Z</time>
        <extensions>
          <ns3:TrackPointExtension>
            <ns3:hr>169</ns3:hr>
          </ns3:TrackPointExtension>
        </extensions>
      </trkpt>
      <trkpt lat="46.83573142625391483306884765625" lon="6.841587983071804046630859375">
        <ele>485.399993896484375</ele>
        <time>2017-05-05T12:14:09.000Z</time>
        <extensions>
          <ns3:TrackPointExtension>
            <ns3:hr>169</ns3:hr>
          </ns3:TrackPointExtension>
        </extensions>
      </trkpt>
      <trkpt lat="46.8357727490365505218505859375" lon="6.841547079384326934814453125">
        <ele>485.399993896484375</ele>
        <time>2017-05-05T12:14:10.000Z</time>
        <extensions>
          <ns3:TrackPointExtension>
            <ns3:hr>166</ns3:hr>
          </ns3:TrackPointExtension>
        </extensions>
      </trkpt>
      <trkpt lat="46.835861764848232269287109375" lon="6.84147633612155914306640625">
        <ele>485.79998779296875</ele>
        <time>2017-05-05T12:14:12.000Z</time>
        <extensions>
          <ns3:TrackPointExtension>
            <ns3:hr>163</ns3:hr>
          </ns3:TrackPointExtension>
        </extensions>
      </trkpt>
      <trkpt lat="46.83590702712535858154296875" lon="6.841443143784999847412109375">
        <ele>486</ele>
        <time>2017-05-05T12:14:13.000Z</time>
        <extensions>
          <ns3:TrackPointExtension>
            <ns3:hr>163</ns3:hr>
          </ns3:TrackPointExtension>
        </extensions>
      </trkpt>
      <trkpt lat="46.83594935573637485504150390625" lon="6.8414044193923473358154296875">
        <ele>486.20001220703125</ele>
        <time>2017-05-05T12:14:14.000Z</time>
        <extensions>
          <ns3:TrackPointExtension>
            <ns3:hr>162</ns3:hr>
          </ns3:TrackPointExtension>
        </extensions>
      </trkpt>
      <trkpt lat="46.83600702323019504547119140625" lon="6.8412900902330875396728515625">
        <ele>486.600006103515625</ele>
        <time>2017-05-05T12:14:16.000Z</time>
        <extensions>
          <ns3:TrackPointExtension>
            <ns3:hr>161</ns3:hr>
          </ns3:TrackPointExtension>
        </extensions>
      </trkpt>
      <trkpt lat="46.835989169776439666748046875" lon="6.8411524593830108642578125">
        <ele>487</ele>
        <time>2017-05-05T12:14:18.000Z</time>
        <extensions>
          <ns3:TrackPointExtension>
            <ns3:hr>160</ns3:hr>
          </ns3:TrackPointExtension>
        </extensions>
      </trkpt>
      <trkpt lat="46.83576889336109161376953125" lon="6.84064258821308612823486328125">
        <ele>488</ele>
        <time>2017-05-05T12:14:26.000Z</time>
        <extensions>
          <ns3:TrackPointExtension>
            <ns3:hr>157</ns3:hr>
          </ns3:TrackPointExtension>
        </extensions>
      </trkpt>
      <trkpt lat="46.8357415683567523956298828125" lon="6.84057779610157012939453125">
        <ele>488</ele>
        <time>2017-05-05T12:14:27.000Z</time>
        <extensions>
          <ns3:TrackPointExtension>
            <ns3:hr>156</ns3:hr>
          </ns3:TrackPointExtension>
        </extensions>
      </trkpt>
      <trkpt lat="46.835659258067607879638671875" lon="6.8403835035860538482666015625">
        <ele>489.399993896484375</ele>
        <time>2017-05-05T12:14:30.000Z</time>
        <extensions>
          <ns3:TrackPointExtension>
            <ns3:hr>155</ns3:hr>
          </ns3:TrackPointExtension>
        </extensions>
      </trkpt>
      <trkpt lat="46.83551542460918426513671875" lon="6.84005476534366607666015625">
        <ele>490.399993896484375</ele>
        <time>2017-05-05T12:14:35.000Z</time>
        <extensions>
          <ns3:TrackPointExtension>
            <ns3:hr>153</ns3:hr>
          </ns3:TrackPointExtension>
        </extensions>
      </trkpt>
      <trkpt lat="46.83532507158815860748291015625" lon="6.83959015645086765289306640625">
        <ele>490.79998779296875</ele>
        <time>2017-05-05T12:14:42.000Z</time>
        <extensions>
          <ns3:TrackPointExtension>
            <ns3:hr>156</ns3:hr>
          </ns3:TrackPointExtension>
        </extensions>
      </trkpt>
      <trkpt lat="46.83525516651570796966552734375" lon="6.83940122835338115692138671875">
        <ele>491.20001220703125</ele>
        <time>2017-05-05T12:14:45.000Z</time>
        <extensions>
          <ns3:TrackPointExtension>
            <ns3:hr>156</ns3:hr>
          </ns3:TrackPointExtension>
        </extensions>
      </trkpt>
      <trkpt lat="46.83517201803624629974365234375" lon="6.83923291973769664764404296875">
        <ele>491.79998779296875</ele>
        <time>2017-05-05T12:14:48.000Z</time>
        <extensions>
          <ns3:TrackPointExtension>
            <ns3:hr>156</ns3:hr>
          </ns3:TrackPointExtension>
        </extensions>
      </trkpt>
      <trkpt lat="46.8351048789918422698974609375" lon="6.83905907906591892242431640625">
        <ele>492.79998779296875</ele>
        <time>2017-05-05T12:14:51.000Z</time>
        <extensions>
          <ns3:TrackPointExtension>
            <ns3:hr>155</ns3:hr>
          </ns3:TrackPointExtension>
        </extensions>
      </trkpt>
      <trkpt lat="46.8350676633417606353759765625" lon="6.83894340880215167999267578125">
        <ele>493.399993896484375</ele>
        <time>2017-05-05T12:14:53.000Z</time>
        <extensions>
          <ns3:TrackPointExtension>
            <ns3:hr>153</ns3:hr>
          </ns3:TrackPointExtension>
        </extensions>
      </trkpt>
      <trkpt lat="46.83502114377915859222412109375" lon="6.83883612044155597686767578125">
        <ele>493.79998779296875</ele>
        <time>2017-05-05T12:14:56.000Z</time>
        <extensions>
          <ns3:TrackPointExtension>
            <ns3:hr>152</ns3:hr>
          </ns3:TrackPointExtension>
        </extensions>
      </trkpt>
      <trkpt lat="46.83495056815445423126220703125" lon="6.83867669664323329925537109375">
        <ele>494.600006103515625</ele>
        <time>2017-05-05T12:14:59.000Z</time>
        <extensions>
          <ns3:TrackPointExtension>
            <ns3:hr>149</ns3:hr>
          </ns3:TrackPointExtension>
        </extensions>
      </trkpt>
      <trkpt lat="46.83492600917816162109375" lon="6.8386258184909820556640625">
        <ele>495</ele>
        <time>2017-05-05T12:15:00.000Z</time>
        <extensions>
          <ns3:TrackPointExtension>
            <ns3:hr>149</ns3:hr>
          </ns3:TrackPointExtension>
        </extensions>
      </trkpt>
      <trkpt lat="46.834900192916393280029296875" lon="6.83857611380517482757568359375">
        <ele>495.399993896484375</ele>
        <time>2017-05-05T12:15:01.000Z</time>
        <extensions>
          <ns3:TrackPointExtension>
            <ns3:hr>152</ns3:hr>
          </ns3:TrackPointExtension>
        </extensions>
      </trkpt>
      <trkpt lat="46.83487496338784694671630859375" lon="6.83852481655776500701904296875">
        <ele>496</ele>
        <time>2017-05-05T12:15:02.000Z</time>
        <extensions>
          <ns3:TrackPointExtension>
            <ns3:hr>153</ns3:hr>
          </ns3:TrackPointExtension>
        </extensions>
      </trkpt>
      <trkpt lat="46.83485115878283977508544921875" lon="6.83847050182521343231201171875">
        <ele>496.20001220703125</ele>
        <time>2017-05-05T12:15:03.000Z</time>
        <extensions>
          <ns3:TrackPointExtension>
            <ns3:hr>154</ns3:hr>
          </ns3:TrackPointExtension>
        </extensions>
      </trkpt>
      <trkpt lat="46.8347883783280849456787109375" lon="6.83829532004892826080322265625">
        <ele>497</ele>
        <time>2017-05-05T12:15:06.000Z</time>
        <extensions>
          <ns3:TrackPointExtension>
            <ns3:hr>158</ns3:hr>
          </ns3:TrackPointExtension>
        </extensions>
      </trkpt>
      <trkpt lat="46.83469542302191257476806640625" lon="6.838074289262294769287109375">
        <ele>498.20001220703125</ele>
        <time>2017-05-05T12:15:10.000Z</time>
        <extensions>
          <ns3:TrackPointExtension>
            <ns3:hr>161</ns3:hr>
          </ns3:TrackPointExtension>
        </extensions>
      </trkpt>
      <trkpt lat="46.834536753594875335693359375" lon="6.83771495707333087921142578125">
        <ele>498.399993896484375</ele>
        <time>2017-05-05T12:15:16.000Z</time>
        <extensions>
          <ns3:TrackPointExtension>
            <ns3:hr>158</ns3:hr>
          </ns3:TrackPointExtension>
        </extensions>
      </trkpt>
      <trkpt lat="46.8342603184282779693603515625" lon="6.83700769208371639251708984375">
        <ele>498</ele>
        <time>2017-05-05T12:15:26.000Z</time>
        <extensions>
          <ns3:TrackPointExtension>
            <ns3:hr>157</ns3:hr>
          </ns3:TrackPointExtension>
        </extensions>
      </trkpt>
      <trkpt lat="46.83409812860190868377685546875" lon="6.836619190871715545654296875">
        <ele>497</ele>
        <time>2017-05-05T12:15:31.000Z</time>
        <extensions>
          <ns3:TrackPointExtension>
            <ns3:hr>156</ns3:hr>
          </ns3:TrackPointExtension>
        </extensions>
      </trkpt>
      <trkpt lat="46.83391355909407138824462890625" lon="6.83617050759494304656982421875">
        <ele>496.399993896484375</ele>
        <time>2017-05-05T12:15:37.000Z</time>
        <extensions>
          <ns3:TrackPointExtension>
            <ns3:hr>159</ns3:hr>
          </ns3:TrackPointExtension>
        </extensions>
      </trkpt>
      <trkpt lat="46.8337359465658664703369140625" lon="6.83570732362568378448486328125">
        <ele>496.79998779296875</ele>
        <time>2017-05-05T12:15:44.000Z</time>
        <extensions>
          <ns3:TrackPointExtension>
            <ns3:hr>156</ns3:hr>
          </ns3:TrackPointExtension>
        </extensions>
      </trkpt>
      <trkpt lat="46.83364416472613811492919921875" lon="6.835412196815013885498046875">
        <ele>497.399993896484375</ele>
        <time>2017-05-05T12:15:49.000Z</time>
        <extensions>
          <ns3:TrackPointExtension>
            <ns3:hr>153</ns3:hr>
          </ns3:TrackPointExtension>
        </extensions>
      </trkpt>
      <trkpt lat="46.8336118943989276885986328125" lon="6.83530231006443500518798828125">
        <ele>498</ele>
        <time>2017-05-05T12:15:51.000Z</time>
        <extensions>
          <ns3:TrackPointExtension>
            <ns3:hr>152</ns3:hr>
          </ns3:TrackPointExtension>
        </extensions>
      </trkpt>
      <trkpt lat="46.8335391394793987274169921875" lon="6.83503459207713603973388671875">
        <ele>499.20001220703125</ele>
        <time>2017-05-05T12:15:56.000Z</time>
        <extensions>
          <ns3:TrackPointExtension>
            <ns3:hr>151</ns3:hr>
          </ns3:TrackPointExtension>
        </extensions>
      </trkpt>
      <trkpt lat="46.83344182558357715606689453125" lon="6.83482646942138671875">
        <ele>500.20001220703125</ele>
        <time>2017-05-05T12:16:01.000Z</time>
        <extensions>
          <ns3:TrackPointExtension>
            <ns3:hr>152</ns3:hr>
          </ns3:TrackPointExtension>
        </extensions>
      </trkpt>
      <trkpt lat="46.83338365517556667327880859375" lon="6.83467919938266277313232421875">
        <ele>501.600006103515625</ele>
        <time>2017-05-05T12:16:04.000Z</time>
        <extensions>
          <ns3:TrackPointExtension>
            <ns3:hr>153</ns3:hr>
          </ns3:TrackPointExtension>
        </extensions>
      </trkpt>
      <trkpt lat="46.83332405984401702880859375" lon="6.834523379802703857421875">
        <ele>502.79998779296875</ele>
        <time>2017-05-05T12:16:07.000Z</time>
        <extensions>
          <ns3:TrackPointExtension>
            <ns3:hr>153</ns3:hr>
          </ns3:TrackPointExtension>
        </extensions>
      </trkpt>
      <trkpt lat="46.8331812322139739990234375" lon="6.8341827392578125">
        <ele>503.79998779296875</ele>
        <time>2017-05-05T12:16:14.000Z</time>
        <extensions>
          <ns3:TrackPointExtension>
            <ns3:hr>155</ns3:hr>
          </ns3:TrackPointExtension>
        </extensions>
      </trkpt>
      <trkpt lat="46.83290471322834491729736328125" lon="6.83351327665150165557861328125">
        <ele>504.20001220703125</ele>
        <time>2017-05-05T12:16:24.000Z</time>
        <extensions>
          <ns3:TrackPointExtension>
            <ns3:hr>152</ns3:hr>
          </ns3:TrackPointExtension>
        </extensions>
      </trkpt>
      <trkpt lat="46.83269935660064220428466796875" lon="6.832892931997776031494140625">
        <ele>503.20001220703125</ele>
        <time>2017-05-05T12:16:32.000Z</time>
        <extensions>
          <ns3:TrackPointExtension>
            <ns3:hr>154</ns3:hr>
          </ns3:TrackPointExtension>
        </extensions>
      </trkpt>
      <trkpt lat="46.83258712291717529296875" lon="6.8327308259904384613037109375">
        <ele>502.600006103515625</ele>
        <time>2017-05-05T12:16:35.000Z</time>
        <extensions>
          <ns3:TrackPointExtension>
            <ns3:hr>155</ns3:hr>
          </ns3:TrackPointExtension>
        </extensions>
      </trkpt>
      <trkpt lat="46.83256633579730987548828125" lon="6.83260023593902587890625">
        <ele>502.600006103515625</ele>
        <time>2017-05-05T12:16:37.000Z</time>
        <extensions>
          <ns3:TrackPointExtension>
            <ns3:hr>155</ns3:hr>
          </ns3:TrackPointExtension>
        </extensions>
      </trkpt>
      <trkpt lat="46.8326235003769397735595703125" lon="6.8322269059717655181884765625">
        <ele>502.399993896484375</ele>
        <time>2017-05-05T12:16:42.000Z</time>
        <extensions>
          <ns3:TrackPointExtension>
            <ns3:hr>154</ns3:hr>
          </ns3:TrackPointExtension>
        </extensions>
      </trkpt>
      <trkpt lat="46.8327036313712596893310546875" lon="6.83215825818479061126708984375">
        <ele>502.399993896484375</ele>
        <time>2017-05-05T12:16:44.000Z</time>
        <extensions>
          <ns3:TrackPointExtension>
            <ns3:hr>154</ns3:hr>
          </ns3:TrackPointExtension>
        </extensions>
      </trkpt>
      <trkpt lat="46.832807399332523345947265625" lon="6.83210461400449275970458984375">
        <ele>502.20001220703125</ele>
        <time>2017-05-05T12:16:46.000Z</time>
        <extensions>
          <ns3:TrackPointExtension>
            <ns3:hr>155</ns3:hr>
          </ns3:TrackPointExtension>
        </extensions>
      </trkpt>
      <trkpt lat="46.8331180326640605926513671875" lon="6.832011826336383819580078125">
        <ele>501.399993896484375</ele>
        <time>2017-05-05T12:16:51.000Z</time>
        <extensions>
          <ns3:TrackPointExtension>
            <ns3:hr>154</ns3:hr>
          </ns3:TrackPointExtension>
        </extensions>
      </trkpt>
      <trkpt lat="46.83333688415586948394775390625" lon="6.8319295160472393035888671875">
        <ele>499.600006103515625</ele>
        <time>2017-05-05T12:16:54.000Z</time>
        <extensions>
          <ns3:TrackPointExtension>
            <ns3:hr>154</ns3:hr>
          </ns3:TrackPointExtension>
        </extensions>
      </trkpt>
      <trkpt lat="46.833474598824977874755859375" lon="6.83184946887195110321044921875">
        <ele>498.20001220703125</ele>
        <time>2017-05-05T12:16:56.000Z</time>
        <extensions>
          <ns3:TrackPointExtension>
            <ns3:hr>154</ns3:hr>
          </ns3:TrackPointExtension>
        </extensions>
      </trkpt>
      <trkpt lat="46.8336598388850688934326171875" lon="6.8316928111016750335693359375">
        <ele>496.79998779296875</ele>
        <time>2017-05-05T12:16:59.000Z</time>
        <extensions>
          <ns3:TrackPointExtension>
            <ns3:hr>154</ns3:hr>
          </ns3:TrackPointExtension>
        </extensions>
      </trkpt>
      <trkpt lat="46.83377743698656558990478515625" lon="6.8315935693681240081787109375">
        <ele>495</ele>
        <time>2017-05-05T12:17:01.000Z</time>
        <extensions>
          <ns3:TrackPointExtension>
            <ns3:hr>154</ns3:hr>
          </ns3:TrackPointExtension>
        </extensions>
      </trkpt>
      <trkpt lat="46.83388757519423961639404296875" lon="6.83148988522589206695556640625">
        <ele>493.79998779296875</ele>
        <time>2017-05-05T12:17:03.000Z</time>
        <extensions>
          <ns3:TrackPointExtension>
            <ns3:hr>155</ns3:hr>
          </ns3:TrackPointExtension>
        </extensions>
      </trkpt>
      <trkpt lat="46.8339885771274566650390625" lon="6.83137639425694942474365234375">
        <ele>492.600006103515625</ele>
        <time>2017-05-05T12:17:05.000Z</time>
        <extensions>
          <ns3:TrackPointExtension>
            <ns3:hr>155</ns3:hr>
          </ns3:TrackPointExtension>
        </extensions>
      </trkpt>
      <trkpt lat="46.83415696956217288970947265625" lon="6.83122954331338405609130859375">
        <ele>491.399993896484375</ele>
        <time>2017-05-05T12:17:08.000Z</time>
        <extensions>
          <ns3:TrackPointExtension>
            <ns3:hr>154</ns3:hr>
          </ns3:TrackPointExtension>
        </extensions>
      </trkpt>
      <trkpt lat="46.83461579494178295135498046875" lon="6.83074607513844966888427734375">
        <ele>491</ele>
        <time>2017-05-05T12:17:18.000Z</time>
        <extensions>
          <ns3:TrackPointExtension>
            <ns3:hr>153</ns3:hr>
          </ns3:TrackPointExtension>
        </extensions>
      </trkpt>
      <trkpt lat="46.8346846103668212890625" lon="6.830655969679355621337890625">
        <ele>491</ele>
        <time>2017-05-05T12:17:20.000Z</time>
        <extensions>
          <ns3:TrackPointExtension>
            <ns3:hr>154</ns3:hr>
          </ns3:TrackPointExtension>
        </extensions>
      </trkpt>
      <trkpt lat="46.8347583711147308349609375" lon="6.83058924973011016845703125">
        <ele>491.20001220703125</ele>
        <time>2017-05-05T12:17:22.000Z</time>
        <extensions>
          <ns3:TrackPointExtension>
            <ns3:hr>154</ns3:hr>
          </ns3:TrackPointExtension>
        </extensions>
      </trkpt>
      <trkpt lat="46.83493606746196746826171875" lon="6.8304465897381305694580078125">
        <ele>493</ele>
        <time>2017-05-05T12:17:27.000Z</time>
        <extensions>
          <ns3:TrackPointExtension>
            <ns3:hr>156</ns3:hr>
          </ns3:TrackPointExtension>
        </extensions>
      </trkpt>
      <trkpt lat="46.8350173719227313995361328125" lon="6.8304169178009033203125">
        <ele>493.79998779296875</ele>
        <time>2017-05-05T12:17:29.000Z</time>
        <extensions>
          <ns3:TrackPointExtension>
            <ns3:hr>157</ns3:hr>
          </ns3:TrackPointExtension>
        </extensions>
      </trkpt>
      <trkpt lat="46.83506322093307971954345703125" lon="6.83041951619088649749755859375">
        <ele>494.20001220703125</ele>
        <time>2017-05-05T12:17:30.000Z</time>
        <extensions>
          <ns3:TrackPointExtension>
            <ns3:hr>157</ns3:hr>
          </ns3:TrackPointExtension>
        </extensions>
      </trkpt>
      <trkpt lat="46.83511015959084033966064453125" lon="6.83043996803462505340576171875">
        <ele>494.399993896484375</ele>
        <time>2017-05-05T12:17:31.000Z</time>
        <extensions>
          <ns3:TrackPointExtension>
            <ns3:hr>157</ns3:hr>
          </ns3:TrackPointExtension>
        </extensions>
      </trkpt>
      <trkpt lat="46.835195235908031463623046875" lon="6.83053552173078060150146484375">
        <ele>494.79998779296875</ele>
        <time>2017-05-05T12:17:33.000Z</time>
        <extensions>
          <ns3:TrackPointExtension>
            <ns3:hr>157</ns3:hr>
          </ns3:TrackPointExtension>
        </extensions>
      </trkpt>
      <trkpt lat="46.83525533415377140045166015625" lon="6.83068974874913692474365234375">
        <ele>494.79998779296875</ele>
        <time>2017-05-05T12:17:35.000Z</time>
        <extensions>
          <ns3:TrackPointExtension>
            <ns3:hr>156</ns3:hr>
          </ns3:TrackPointExtension>
        </extensions>
      </trkpt>
      <trkpt lat="46.83551031164824962615966796875" lon="6.8315063975751399993896484375">
        <ele>494.600006103515625</ele>
        <time>2017-05-05T12:17:43.000Z</time>
        <extensions>
          <ns3:TrackPointExtension>
            <ns3:hr>154</ns3:hr>
          </ns3:TrackPointExtension>
        </extensions>
      </trkpt>
      <trkpt lat="46.8355833180248737335205078125" lon="6.8316911347210407257080078125">
        <ele>493.399993896484375</ele>
        <time>2017-05-05T12:17:45.000Z</time>
        <extensions>
          <ns3:TrackPointExtension>
            <ns3:hr>153</ns3:hr>
          </ns3:TrackPointExtension>
        </extensions>
      </trkpt>
      <trkpt lat="46.835625059902667999267578125" lon="6.83174150995910167694091796875">
        <ele>492.600006103515625</ele>
        <time>2017-05-05T12:17:46.000Z</time>
        <extensions>
          <ns3:TrackPointExtension>
            <ns3:hr>153</ns3:hr>
          </ns3:TrackPointExtension>
        </extensions>
      </trkpt>
      <trkpt lat="46.83567929081618785858154296875" lon="6.8317457847297191619873046875">
        <ele>491.79998779296875</ele>
        <time>2017-05-05T12:17:47.000Z</time>
        <extensions>
          <ns3:TrackPointExtension>
            <ns3:hr>152</ns3:hr>
          </ns3:TrackPointExtension>
        </extensions>
      </trkpt>
      <trkpt lat="46.83573125861585140228271484375" lon="6.83172306977212429046630859375">
        <ele>491.20001220703125</ele>
        <time>2017-05-05T12:17:48.000Z</time>
        <extensions>
          <ns3:TrackPointExtension>
            <ns3:hr>152</ns3:hr>
          </ns3:TrackPointExtension>
        </extensions>
      </trkpt>
      <trkpt lat="46.83578289113938808441162109375" lon="6.83168090879917144775390625">
        <ele>490.600006103515625</ele>
        <time>2017-05-05T12:17:49.000Z</time>
        <extensions>
          <ns3:TrackPointExtension>
            <ns3:hr>151</ns3:hr>
          </ns3:TrackPointExtension>
        </extensions>
      </trkpt>
      <trkpt lat="46.83583385311067104339599609375" lon="6.8316361494362354278564453125">
        <ele>490</ele>
        <time>2017-05-05T12:17:50.000Z</time>
        <extensions>
          <ns3:TrackPointExtension>
            <ns3:hr>151</ns3:hr>
          </ns3:TrackPointExtension>
        </extensions>
      </trkpt>
      <trkpt lat="46.83610148727893829345703125" lon="6.831442527472972869873046875">
        <ele>489</ele>
        <time>2017-05-05T12:17:55.000Z</time>
        <extensions>
          <ns3:TrackPointExtension>
            <ns3:hr>151</ns3:hr>
          </ns3:TrackPointExtension>
        </extensions>
      </trkpt>
      <trkpt lat="46.8364615738391876220703125" lon="6.8311922438442707061767578125">
        <ele>488</ele>
        <time>2017-05-05T12:18:01.000Z</time>
        <extensions>
          <ns3:TrackPointExtension>
            <ns3:hr>154</ns3:hr>
          </ns3:TrackPointExtension>
        </extensions>
      </trkpt>
      <trkpt lat="46.83652385137975215911865234375" lon="6.83114639483392238616943359375">
        <ele>487.600006103515625</ele>
        <time>2017-05-05T12:18:02.000Z</time>
        <extensions>
          <ns3:TrackPointExtension>
            <ns3:hr>154</ns3:hr>
          </ns3:TrackPointExtension>
        </extensions>
      </trkpt>
      <trkpt lat="46.83680648915469646453857421875" lon="6.830957047641277313232421875">
        <ele>486.399993896484375</ele>
        <time>2017-05-05T12:18:06.000Z</time>
        <extensions>
          <ns3:TrackPointExtension>
            <ns3:hr>153</ns3:hr>
          </ns3:TrackPointExtension>
        </extensions>
      </trkpt>
      <trkpt lat="46.8369639851152896881103515625" lon="6.83085084892809391021728515625">
        <ele>485.20001220703125</ele>
        <time>2017-05-05T12:18:08.000Z</time>
        <extensions>
          <ns3:TrackPointExtension>
            <ns3:hr>152</ns3:hr>
          </ns3:TrackPointExtension>
        </extensions>
      </trkpt>
      <trkpt lat="46.837132461369037628173828125" lon="6.830735765397548675537109375">
        <ele>483.79998779296875</ele>
        <time>2017-05-05T12:18:10.000Z</time>
        <extensions>
          <ns3:TrackPointExtension>
            <ns3:hr>151</ns3:hr>
          </ns3:TrackPointExtension>
        </extensions>
      </trkpt>
      <trkpt lat="46.83731376193463802337646484375" lon="6.83061431162059307098388671875">
        <ele>482.20001220703125</ele>
        <time>2017-05-05T12:18:12.000Z</time>
        <extensions>
          <ns3:TrackPointExtension>
            <ns3:hr>153</ns3:hr>
          </ns3:TrackPointExtension>
        </extensions>
      </trkpt>
      <trkpt lat="46.83750553987920284271240234375" lon="6.83049512095749378204345703125">
        <ele>480.399993896484375</ele>
        <time>2017-05-05T12:18:14.000Z</time>
        <extensions>
          <ns3:TrackPointExtension>
            <ns3:hr>154</ns3:hr>
          </ns3:TrackPointExtension>
        </extensions>
      </trkpt>
      <trkpt lat="46.8377066217362880706787109375" lon="6.8303838931024074554443359375">
        <ele>478.20001220703125</ele>
        <time>2017-05-05T12:18:16.000Z</time>
        <extensions>
          <ns3:TrackPointExtension>
            <ns3:hr>155</ns3:hr>
          </ns3:TrackPointExtension>
        </extensions>
      </trkpt>
      <trkpt lat="46.83791826479136943817138671875" lon="6.83026595972478389739990234375">
        <ele>476.79998779296875</ele>
        <time>2017-05-05T12:18:18.000Z</time>
        <extensions>
          <ns3:TrackPointExtension>
            <ns3:hr>155</ns3:hr>
          </ns3:TrackPointExtension>
        </extensions>
      </trkpt>
      <trkpt lat="46.83802806772291660308837890625" lon="6.830203346908092498779296875">
        <ele>475.399993896484375</ele>
        <time>2017-05-05T12:18:19.000Z</time>
        <extensions>
          <ns3:TrackPointExtension>
            <ns3:hr>154</ns3:hr>
          </ns3:TrackPointExtension>
        </extensions>
      </trkpt>
      <trkpt lat="46.8381387926638126373291015625" lon="6.83014006353914737701416015625">
        <ele>473.79998779296875</ele>
        <time>2017-05-05T12:18:20.000Z</time>
        <extensions>
          <ns3:TrackPointExtension>
            <ns3:hr>154</ns3:hr>
          </ns3:TrackPointExtension>
        </extensions>
      </trkpt>
      <trkpt lat="46.83824800886213779449462890625" lon="6.83007820509374141693115234375">
        <ele>472.79998779296875</ele>
        <time>2017-05-05T12:18:21.000Z</time>
        <extensions>
          <ns3:TrackPointExtension>
            <ns3:hr>154</ns3:hr>
          </ns3:TrackPointExtension>
        </extensions>
      </trkpt>
      <trkpt lat="46.838346831500530242919921875" lon="6.8300197832286357879638671875">
        <ele>470.79998779296875</ele>
        <time>2017-05-05T12:18:22.000Z</time>
        <extensions>
          <ns3:TrackPointExtension>
            <ns3:hr>154</ns3:hr>
          </ns3:TrackPointExtension>
        </extensions>
      </trkpt>
      <trkpt lat="46.83843174017965793609619140625" lon="6.82997544296085834503173828125">
        <ele>469.79998779296875</ele>
        <time>2017-05-05T12:18:23.000Z</time>
        <extensions>
          <ns3:TrackPointExtension>
            <ns3:hr>154</ns3:hr>
          </ns3:TrackPointExtension>
        </extensions>
      </trkpt>
      <trkpt lat="46.83850734494626522064208984375" lon="6.82996773160994052886962890625">
        <ele>468.399993896484375</ele>
        <time>2017-05-05T12:18:24.000Z</time>
        <extensions>
          <ns3:TrackPointExtension>
            <ns3:hr>154</ns3:hr>
          </ns3:TrackPointExtension>
        </extensions>
      </trkpt>
      <trkpt lat="46.838566102087497711181640625" lon="6.83001098223030567169189453125">
        <ele>467.20001220703125</ele>
        <time>2017-05-05T12:18:25.000Z</time>
        <extensions>
          <ns3:TrackPointExtension>
            <ns3:hr>154</ns3:hr>
          </ns3:TrackPointExtension>
        </extensions>
      </trkpt>
      <trkpt lat="46.838606335222721099853515625" lon="6.83007501997053623199462890625">
        <ele>466</ele>
        <time>2017-05-05T12:18:26.000Z</time>
        <extensions>
          <ns3:TrackPointExtension>
            <ns3:hr>154</ns3:hr>
          </ns3:TrackPointExtension>
        </extensions>
      </trkpt>
      <trkpt lat="46.83864891529083251953125" lon="6.8301123194396495819091796875">
        <ele>465.399993896484375</ele>
        <time>2017-05-05T12:18:27.000Z</time>
        <extensions>
          <ns3:TrackPointExtension>
            <ns3:hr>153</ns3:hr>
          </ns3:TrackPointExtension>
        </extensions>
      </trkpt>
      <trkpt lat="46.83875016868114471435546875" lon="6.8300814740359783172607421875">
        <ele>464.79998779296875</ele>
        <time>2017-05-05T12:18:29.000Z</time>
        <extensions>
          <ns3:TrackPointExtension>
            <ns3:hr>154</ns3:hr>
          </ns3:TrackPointExtension>
        </extensions>
      </trkpt>
      <trkpt lat="46.8392349779605865478515625" lon="6.8297797255218029022216796875">
        <ele>466.20001220703125</ele>
        <time>2017-05-05T12:18:42.000Z</time>
        <extensions>
          <ns3:TrackPointExtension>
            <ns3:hr>155</ns3:hr>
          </ns3:TrackPointExtension>
        </extensions>
      </trkpt>
      <trkpt lat="46.83931418694555759429931640625" lon="6.82973890565335750579833984375">
        <ele>467.20001220703125</ele>
        <time>2017-05-05T12:18:45.000Z</time>
        <extensions>
          <ns3:TrackPointExtension>
            <ns3:hr>155</ns3:hr>
          </ns3:TrackPointExtension>
        </extensions>
      </trkpt>
      <trkpt lat="46.83939666487276554107666015625" lon="6.82969112880527973175048828125">
        <ele>468.79998779296875</ele>
        <time>2017-05-05T12:18:48.000Z</time>
        <extensions>
          <ns3:TrackPointExtension>
            <ns3:hr>155</ns3:hr>
          </ns3:TrackPointExtension>
        </extensions>
      </trkpt>
      <trkpt lat="46.83949054218828678131103515625" lon="6.8296355567872524261474609375">
        <ele>470.20001220703125</ele>
        <time>2017-05-05T12:18:51.000Z</time>
        <extensions>
          <ns3:TrackPointExtension>
            <ns3:hr>157</ns3:hr>
          </ns3:TrackPointExtension>
        </extensions>
      </trkpt>
      <trkpt lat="46.8396307714283466339111328125" lon="6.8295537494122982025146484375">
        <ele>471.20001220703125</ele>
        <time>2017-05-05T12:18:55.000Z</time>
        <extensions>
          <ns3:TrackPointExtension>
            <ns3:hr>156</ns3:hr>
          </ns3:TrackPointExtension>
        </extensions>
      </trkpt>
      <trkpt lat="46.8397392332553863525390625" lon="6.82948275469243526458740234375">
        <ele>471.79998779296875</ele>
        <time>2017-05-05T12:18:58.000Z</time>
        <extensions>
          <ns3:TrackPointExtension>
            <ns3:hr>156</ns3:hr>
          </ns3:TrackPointExtension>
        </extensions>
      </trkpt>
      <trkpt lat="46.83976806700229644775390625" lon="6.8293686769902706146240234375">
        <ele>472</ele>
        <time>2017-05-05T12:19:00.000Z</time>
        <extensions>
          <ns3:TrackPointExtension>
            <ns3:hr>156</ns3:hr>
          </ns3:TrackPointExtension>
        </extensions>
      </trkpt>
      <trkpt lat="46.8394886143505573272705078125" lon="6.82865294627845287322998046875">
        <ele>471.399993896484375</ele>
        <time>2017-05-05T12:19:11.000Z</time>
        <extensions>
          <ns3:TrackPointExtension>
            <ns3:hr>156</ns3:hr>
          </ns3:TrackPointExtension>
        </extensions>
      </trkpt>
      <trkpt lat="46.8393380753695964813232421875" lon="6.8281536363065242767333984375">
        <ele>470.79998779296875</ele>
        <time>2017-05-05T12:19:18.000Z</time>
        <extensions>
          <ns3:TrackPointExtension>
            <ns3:hr>153</ns3:hr>
          </ns3:TrackPointExtension>
        </extensions>
      </trkpt>
      <trkpt lat="46.83911050669848918914794921875" lon="6.827423237264156341552734375">
        <ele>470.399993896484375</ele>
        <time>2017-05-05T12:19:28.000Z</time>
        <extensions>
          <ns3:TrackPointExtension>
            <ns3:hr>155</ns3:hr>
          </ns3:TrackPointExtension>
        </extensions>
      </trkpt>
      <trkpt lat="46.8389575369656085968017578125" lon="6.8269496597349643707275390625">
        <ele>470.20001220703125</ele>
        <time>2017-05-05T12:19:34.000Z</time>
        <extensions>
          <ns3:TrackPointExtension>
            <ns3:hr>154</ns3:hr>
          </ns3:TrackPointExtension>
        </extensions>
      </trkpt>
      <trkpt lat="46.83882719837129116058349609375" lon="6.8264930136501789093017578125">
        <ele>469.20001220703125</ele>
        <time>2017-05-05T12:19:39.000Z</time>
        <extensions>
          <ns3:TrackPointExtension>
            <ns3:hr>154</ns3:hr>
          </ns3:TrackPointExtension>
        </extensions>
      </trkpt>
      <trkpt lat="46.83878730051219463348388671875" lon="6.82643542997539043426513671875">
        <ele>469</ele>
        <time>2017-05-05T12:19:40.000Z</time>
        <extensions>
          <ns3:TrackPointExtension>
            <ns3:hr>154</ns3:hr>
          </ns3:TrackPointExtension>
        </extensions>
      </trkpt>
      <trkpt lat="46.8387401103973388671875" lon="6.8264105357229709625244140625">
        <ele>468.600006103515625</ele>
        <time>2017-05-05T12:19:41.000Z</time>
        <extensions>
          <ns3:TrackPointExtension>
            <ns3:hr>154</ns3:hr>
          </ns3:TrackPointExtension>
        </extensions>
      </trkpt>
      <trkpt lat="46.838638521730899810791015625" lon="6.82641447521746158599853515625">
        <ele>467.399993896484375</ele>
        <time>2017-05-05T12:19:43.000Z</time>
        <extensions>
          <ns3:TrackPointExtension>
            <ns3:hr>154</ns3:hr>
          </ns3:TrackPointExtension>
        </extensions>
      </trkpt>
      <trkpt lat="46.8384569697082042694091796875" lon="6.82646174915134906768798828125">
        <ele>466</ele>
        <time>2017-05-05T12:19:46.000Z</time>
        <extensions>
          <ns3:TrackPointExtension>
            <ns3:hr>154</ns3:hr>
          </ns3:TrackPointExtension>
        </extensions>
      </trkpt>
      <trkpt lat="46.83838698081672191619873046875" lon="6.82648337446153163909912109375">
        <ele>465.79998779296875</ele>
        <time>2017-05-05T12:19:47.000Z</time>
        <extensions>
          <ns3:TrackPointExtension>
            <ns3:hr>154</ns3:hr>
          </ns3:TrackPointExtension>
        </extensions>
      </trkpt>
      <trkpt lat="46.83794818818569183349609375" lon="6.826562248170375823974609375">
        <ele>465</ele>
        <time>2017-05-05T12:19:52.000Z</time>
        <extensions>
          <ns3:TrackPointExtension>
            <ns3:hr>153</ns3:hr>
          </ns3:TrackPointExtension>
        </extensions>
      </trkpt>
      <trkpt lat="46.837771832942962646484375" lon="6.82655830867588520050048828125">
        <ele>464.20001220703125</ele>
        <time>2017-05-05T12:19:54.000Z</time>
        <extensions>
          <ns3:TrackPointExtension>
            <ns3:hr>152</ns3:hr>
          </ns3:TrackPointExtension>
        </extensions>
      </trkpt>
      <trkpt lat="46.83769530616700649261474609375" lon="6.82651841081678867340087890625">
        <ele>463.600006103515625</ele>
        <time>2017-05-05T12:19:55.000Z</time>
        <extensions>
          <ns3:TrackPointExtension>
            <ns3:hr>152</ns3:hr>
          </ns3:TrackPointExtension>
        </extensions>
      </trkpt>
      <trkpt lat="46.8376409076154232025146484375" lon="6.82645118795335292816162109375">
        <ele>462.79998779296875</ele>
        <time>2017-05-05T12:19:56.000Z</time>
        <extensions>
          <ns3:TrackPointExtension>
            <ns3:hr>151</ns3:hr>
          </ns3:TrackPointExtension>
        </extensions>
      </trkpt>
      <trkpt lat="46.83760729618370532989501953125" lon="6.82636267505586147308349609375">
        <ele>461.399993896484375</ele>
        <time>2017-05-05T12:19:57.000Z</time>
        <extensions>
          <ns3:TrackPointExtension>
            <ns3:hr>151</ns3:hr>
          </ns3:TrackPointExtension>
        </extensions>
      </trkpt>
      <trkpt lat="46.83758298866450786590576171875" lon="6.82626863010227680206298828125">
        <ele>460.20001220703125</ele>
        <time>2017-05-05T12:19:58.000Z</time>
        <extensions>
          <ns3:TrackPointExtension>
            <ns3:hr>151</ns3:hr>
          </ns3:TrackPointExtension>
        </extensions>
      </trkpt>
      <trkpt lat="46.8375104852020740509033203125" lon="6.8260051868855953216552734375">
        <ele>459.20001220703125</ele>
        <time>2017-05-05T12:20:01.000Z</time>
        <extensions>
          <ns3:TrackPointExtension>
            <ns3:hr>150</ns3:hr>
          </ns3:TrackPointExtension>
        </extensions>
      </trkpt>
      <trkpt lat="46.83735382743179798126220703125" lon="6.82549816556274890899658203125">
        <ele>459</ele>
        <time>2017-05-05T12:20:07.000Z</time>
        <extensions>
          <ns3:TrackPointExtension>
            <ns3:hr>147</ns3:hr>
          </ns3:TrackPointExtension>
        </extensions>
      </trkpt>
      <trkpt lat="46.83710320852696895599365234375" lon="6.8247774057090282440185546875">
        <ele>459.399993896484375</ele>
        <time>2017-05-05T12:20:15.000Z</time>
        <extensions>
          <ns3:TrackPointExtension>
            <ns3:hr>147</ns3:hr>
          </ns3:TrackPointExtension>
        </extensions>
      </trkpt>
      <trkpt lat="46.83683641254901885986328125" lon="6.8240354396402835845947265625">
        <ele>459.399993896484375</ele>
        <time>2017-05-05T12:20:23.000Z</time>
        <extensions>
          <ns3:TrackPointExtension>
            <ns3:hr>147</ns3:hr>
          </ns3:TrackPointExtension>
        </extensions>
      </trkpt>
      <trkpt lat="46.8365750648081302642822265625" lon="6.82334619574248790740966796875">
        <ele>459</ele>
        <time>2017-05-05T12:20:31.000Z</time>
        <extensions>
          <ns3:TrackPointExtension>
            <ns3:hr>147</ns3:hr>
          </ns3:TrackPointExtension>
        </extensions>
      </trkpt>
      <trkpt lat="46.8363065086305141448974609375" lon="6.82264295406639575958251953125">
        <ele>459.79998779296875</ele>
        <time>2017-05-05T12:20:40.000Z</time>
        <extensions>
          <ns3:TrackPointExtension>
            <ns3:hr>150</ns3:hr>
          </ns3:TrackPointExtension>
        </extensions>
      </trkpt>
      <trkpt lat="46.836190335452556610107421875" lon="6.82235914282500743865966796875">
        <ele>460.20001220703125</ele>
        <time>2017-05-05T12:20:44.000Z</time>
        <extensions>
          <ns3:TrackPointExtension>
            <ns3:hr>150</ns3:hr>
          </ns3:TrackPointExtension>
        </extensions>
      </trkpt>
      <trkpt lat="46.83609553612768650054931640625" lon="6.8221039138734340667724609375">
        <ele>461</ele>
        <time>2017-05-05T12:20:48.000Z</time>
        <extensions>
          <ns3:TrackPointExtension>
            <ns3:hr>150</ns3:hr>
          </ns3:TrackPointExtension>
        </extensions>
      </trkpt>
      <trkpt lat="46.83607575483620166778564453125" lon="6.82203778065741062164306640625">
        <ele>461.399993896484375</ele>
        <time>2017-05-05T12:20:49.000Z</time>
        <extensions>
          <ns3:TrackPointExtension>
            <ns3:hr>150</ns3:hr>
          </ns3:TrackPointExtension>
        </extensions>
      </trkpt>
      <trkpt lat="46.836006939411163330078125" lon="6.8217493593692779541015625">
        <ele>461.79998779296875</ele>
        <time>2017-05-05T12:20:53.000Z</time>
        <extensions>
          <ns3:TrackPointExtension>
            <ns3:hr>151</ns3:hr>
          </ns3:TrackPointExtension>
        </extensions>
      </trkpt>
      <trkpt lat="46.8360201828181743621826171875" lon="6.82159773074090480804443359375">
        <ele>461.79998779296875</ele>
        <time>2017-05-05T12:20:55.000Z</time>
        <extensions>
          <ns3:TrackPointExtension>
            <ns3:hr>151</ns3:hr>
          </ns3:TrackPointExtension>
        </extensions>
      </trkpt>
      <trkpt lat="46.83605228550732135772705078125" lon="6.821462698280811309814453125">
        <ele>461.79998779296875</ele>
        <time>2017-05-05T12:20:57.000Z</time>
        <extensions>
          <ns3:TrackPointExtension>
            <ns3:hr>152</ns3:hr>
          </ns3:TrackPointExtension>
        </extensions>
      </trkpt>
      <trkpt lat="46.83603049255907535552978515625" lon="6.82131140492856502532958984375">
        <ele>461.600006103515625</ele>
        <time>2017-05-05T12:20:59.000Z</time>
        <extensions>
          <ns3:TrackPointExtension>
            <ns3:hr>152</ns3:hr>
          </ns3:TrackPointExtension>
        </extensions>
      </trkpt>
      <trkpt lat="46.835949607193470001220703125" lon="6.8209676630795001983642578125">
        <ele>460.79998779296875</ele>
        <time>2017-05-05T12:21:03.000Z</time>
        <extensions>
          <ns3:TrackPointExtension>
            <ns3:hr>151</ns3:hr>
          </ns3:TrackPointExtension>
        </extensions>
      </trkpt>
      <trkpt lat="46.83599746786057949066162109375" lon="6.82083480991423130035400390625">
        <ele>460.20001220703125</ele>
        <time>2017-05-05T12:21:05.000Z</time>
        <extensions>
          <ns3:TrackPointExtension>
            <ns3:hr>151</ns3:hr>
          </ns3:TrackPointExtension>
        </extensions>
      </trkpt>
      <trkpt lat="46.83607726357877254486083984375" lon="6.8207381665706634521484375">
        <ele>458.79998779296875</ele>
        <time>2017-05-05T12:21:07.000Z</time>
        <extensions>
          <ns3:TrackPointExtension>
            <ns3:hr>151</ns3:hr>
          </ns3:TrackPointExtension>
        </extensions>
      </trkpt>
      <trkpt lat="46.83611883781850337982177734375" lon="6.82068930007517337799072265625">
        <ele>457.79998779296875</ele>
        <time>2017-05-05T12:21:08.000Z</time>
        <extensions>
          <ns3:TrackPointExtension>
            <ns3:hr>151</ns3:hr>
          </ns3:TrackPointExtension>
        </extensions>
      </trkpt>
      <trkpt lat="46.83619536459445953369140625" lon="6.82058301754295825958251953125">
        <ele>456.600006103515625</ele>
        <time>2017-05-05T12:21:10.000Z</time>
        <extensions>
          <ns3:TrackPointExtension>
            <ns3:hr>152</ns3:hr>
          </ns3:TrackPointExtension>
        </extensions>
      </trkpt>
      <trkpt lat="46.836403571069240570068359375" lon="6.82025863789021968841552734375">
        <ele>456</ele>
        <time>2017-05-05T12:21:19.000Z</time>
        <extensions>
          <ns3:TrackPointExtension>
            <ns3:hr>153</ns3:hr>
          </ns3:TrackPointExtension>
        </extensions>
      </trkpt>
      <trkpt lat="46.83656039647758007049560546875" lon="6.82009737007319927215576171875">
        <ele>455.600006103515625</ele>
        <time>2017-05-05T12:21:22.000Z</time>
        <extensions>
          <ns3:TrackPointExtension>
            <ns3:hr>152</ns3:hr>
          </ns3:TrackPointExtension>
        </extensions>
      </trkpt>
      <trkpt lat="46.83691947720944881439208984375" lon="6.81970660574734210968017578125">
        <ele>454.20001220703125</ele>
        <time>2017-05-05T12:21:28.000Z</time>
        <extensions>
          <ns3:TrackPointExtension>
            <ns3:hr>152</ns3:hr>
          </ns3:TrackPointExtension>
        </extensions>
      </trkpt>
      <trkpt lat="46.83704302646219730377197265625" lon="6.8195581622421741485595703125">
        <ele>452.79998779296875</ele>
        <time>2017-05-05T12:21:30.000Z</time>
        <extensions>
          <ns3:TrackPointExtension>
            <ns3:hr>152</ns3:hr>
          </ns3:TrackPointExtension>
        </extensions>
      </trkpt>
      <trkpt lat="46.83732247911393642425537109375" lon="6.81921458803117275238037109375">
        <ele>451</ele>
        <time>2017-05-05T12:21:34.000Z</time>
        <extensions>
          <ns3:TrackPointExtension>
            <ns3:hr>151</ns3:hr>
          </ns3:TrackPointExtension>
        </extensions>
      </trkpt>
      <trkpt lat="46.83748525567352771759033203125" lon="6.819035299122333526611328125">
        <ele>449.79998779296875</ele>
        <time>2017-05-05T12:21:36.000Z</time>
        <extensions>
          <ns3:TrackPointExtension>
            <ns3:hr>150</ns3:hr>
          </ns3:TrackPointExtension>
        </extensions>
      </trkpt>
      <trkpt lat="46.83772950433194637298583984375" lon="6.8187964148819446563720703125">
        <ele>448</ele>
        <time>2017-05-05T12:21:39.000Z</time>
        <extensions>
          <ns3:TrackPointExtension>
            <ns3:hr>151</ns3:hr>
          </ns3:TrackPointExtension>
        </extensions>
      </trkpt>
      <trkpt lat="46.8378870002925395965576171875" lon="6.81860840879380702972412109375">
        <ele>446.399993896484375</ele>
        <time>2017-05-05T12:21:41.000Z</time>
        <extensions>
          <ns3:TrackPointExtension>
            <ns3:hr>151</ns3:hr>
          </ns3:TrackPointExtension>
        </extensions>
      </trkpt>
      <trkpt lat="46.8379634432494640350341796875" lon="6.8185137771070003509521484375">
        <ele>444.79998779296875</ele>
        <time>2017-05-05T12:21:42.000Z</time>
        <extensions>
          <ns3:TrackPointExtension>
            <ns3:hr>151</ns3:hr>
          </ns3:TrackPointExtension>
        </extensions>
      </trkpt>
      <trkpt lat="46.83804072439670562744140625" lon="6.81842216290533542633056640625">
        <ele>443.79998779296875</ele>
        <time>2017-05-05T12:21:43.000Z</time>
        <extensions>
          <ns3:TrackPointExtension>
            <ns3:hr>151</ns3:hr>
          </ns3:TrackPointExtension>
        </extensions>
      </trkpt>
      <trkpt lat="46.83811775408685207366943359375" lon="6.81834622286260128021240234375">
        <ele>442.600006103515625</ele>
        <time>2017-05-05T12:21:44.000Z</time>
        <extensions>
          <ns3:TrackPointExtension>
            <ns3:hr>151</ns3:hr>
          </ns3:TrackPointExtension>
        </extensions>
      </trkpt>
      <trkpt lat="46.83818824589252471923828125" lon="6.81828084401786327362060546875">
        <ele>441.20001220703125</ele>
        <time>2017-05-05T12:21:45.000Z</time>
        <extensions>
          <ns3:TrackPointExtension>
            <ns3:hr>151</ns3:hr>
          </ns3:TrackPointExtension>
        </extensions>
      </trkpt>
      <trkpt lat="46.838270723819732666015625" lon="6.8182425387203693389892578125">
        <ele>439.79998779296875</ele>
        <time>2017-05-05T12:21:46.000Z</time>
        <extensions>
          <ns3:TrackPointExtension>
            <ns3:hr>151</ns3:hr>
          </ns3:TrackPointExtension>
        </extensions>
      </trkpt>
      <trkpt lat="46.83842536993324756622314453125" lon="6.81819132529199123382568359375">
        <ele>437.600006103515625</ele>
        <time>2017-05-05T12:21:48.000Z</time>
        <extensions>
          <ns3:TrackPointExtension>
            <ns3:hr>151</ns3:hr>
          </ns3:TrackPointExtension>
        </extensions>
      </trkpt>
      <trkpt lat="46.83853014372289180755615234375" lon="6.8181513436138629913330078125">
        <ele>434.399993896484375</ele>
        <time>2017-05-05T12:21:50.000Z</time>
        <extensions>
          <ns3:TrackPointExtension>
            <ns3:hr>152</ns3:hr>
          </ns3:TrackPointExtension>
        </extensions>
      </trkpt>
      <trkpt lat="46.83856585063040256500244140625" lon="6.81813734583556652069091796875">
        <ele>432.20001220703125</ele>
        <time>2017-05-05T12:21:51.000Z</time>
        <extensions>
          <ns3:TrackPointExtension>
            <ns3:hr>152</ns3:hr>
          </ns3:TrackPointExtension>
        </extensions>
      </trkpt>
      <trkpt lat="46.8385894037783145904541015625" lon="6.8181164748966693878173828125">
        <ele>431.20001220703125</ele>
        <time>2017-05-05T12:21:52.000Z</time>
        <extensions>
          <ns3:TrackPointExtension>
            <ns3:hr>152</ns3:hr>
          </ns3:TrackPointExtension>
        </extensions>
      </trkpt>
      <trkpt lat="46.8386046588420867919921875" lon="6.818083785474300384521484375">
        <ele>430</ele>
        <time>2017-05-05T12:21:53.000Z</time>
        <extensions>
          <ns3:TrackPointExtension>
            <ns3:hr>152</ns3:hr>
          </ns3:TrackPointExtension>
        </extensions>
      </trkpt>
      <trkpt lat="46.83860977180302143096923828125" lon="6.8180165626108646392822265625">
        <ele>428.600006103515625</ele>
        <time>2017-05-05T12:21:55.000Z</time>
        <extensions>
          <ns3:TrackPointExtension>
            <ns3:hr>153</ns3:hr>
          </ns3:TrackPointExtension>
        </extensions>
      </trkpt>
      <trkpt lat="46.838557720184326171875" lon="6.8178774230182170867919921875">
        <ele>428.20001220703125</ele>
        <time>2017-05-05T12:21:58.000Z</time>
        <extensions>
          <ns3:TrackPointExtension>
            <ns3:hr>154</ns3:hr>
          </ns3:TrackPointExtension>
        </extensions>
      </trkpt>
      <trkpt lat="46.8384703807532787322998046875" lon="6.8176812864840030670166015625">
        <ele>427.600006103515625</ele>
        <time>2017-05-05T12:22:01.000Z</time>
        <extensions>
          <ns3:TrackPointExtension>
            <ns3:hr>154</ns3:hr>
          </ns3:TrackPointExtension>
        </extensions>
      </trkpt>
      <trkpt lat="46.8383218534290790557861328125" lon="6.81721315719187259674072265625">
        <ele>427</ele>
        <time>2017-05-05T12:22:07.000Z</time>
        <extensions>
          <ns3:TrackPointExtension>
            <ns3:hr>155</ns3:hr>
          </ns3:TrackPointExtension>
        </extensions>
      </trkpt>
      <trkpt lat="46.83825655840337276458740234375" lon="6.816954910755157470703125">
        <ele>426.399993896484375</ele>
        <time>2017-05-05T12:22:10.000Z</time>
        <extensions>
          <ns3:TrackPointExtension>
            <ns3:hr>155</ns3:hr>
          </ns3:TrackPointExtension>
        </extensions>
      </trkpt>
      <trkpt lat="46.83803728781640529632568359375" lon="6.8161795847117900848388671875">
        <ele>426</ele>
        <time>2017-05-05T12:22:19.000Z</time>
        <extensions>
          <ns3:TrackPointExtension>
            <ns3:hr>155</ns3:hr>
          </ns3:TrackPointExtension>
        </extensions>
      </trkpt>
      <trkpt lat="46.8378001637756824493408203125" lon="6.81537215597927570343017578125">
        <ele>425.79998779296875</ele>
        <time>2017-05-05T12:22:28.000Z</time>
        <extensions>
          <ns3:TrackPointExtension>
            <ns3:hr>153</ns3:hr>
          </ns3:TrackPointExtension>
        </extensions>
      </trkpt>
      <trkpt lat="46.83754862286150455474853515625" lon="6.81462599895894527435302734375">
        <ele>425.79998779296875</ele>
        <time>2017-05-05T12:22:36.000Z</time>
        <extensions>
          <ns3:TrackPointExtension>
            <ns3:hr>151</ns3:hr>
          </ns3:TrackPointExtension>
        </extensions>
      </trkpt>
      <trkpt lat="46.83725492097437381744384765625" lon="6.81393231265246868133544921875">
        <ele>426.20001220703125</ele>
        <time>2017-05-05T12:22:43.000Z</time>
        <extensions>
          <ns3:TrackPointExtension>
            <ns3:hr>152</ns3:hr>
          </ns3:TrackPointExtension>
        </extensions>
      </trkpt>
      <trkpt lat="46.83700312860310077667236328125" lon="6.8132150731980800628662109375">
        <ele>426.79998779296875</ele>
        <time>2017-05-05T12:22:51.000Z</time>
        <extensions>
          <ns3:TrackPointExtension>
            <ns3:hr>152</ns3:hr>
          </ns3:TrackPointExtension>
        </extensions>
      </trkpt>
      <trkpt lat="46.83682124130427837371826171875" lon="6.8125855922698974609375">
        <ele>427.20001220703125</ele>
        <time>2017-05-05T12:22:58.000Z</time>
        <extensions>
          <ns3:TrackPointExtension>
            <ns3:hr>149</ns3:hr>
          </ns3:TrackPointExtension>
        </extensions>
      </trkpt>
      <trkpt lat="46.83657598681747913360595703125" lon="6.8117656745016574859619140625">
        <ele>427.399993896484375</ele>
        <time>2017-05-05T12:23:07.000Z</time>
        <extensions>
          <ns3:TrackPointExtension>
            <ns3:hr>151</ns3:hr>
          </ns3:TrackPointExtension>
        </extensions>
      </trkpt>
      <trkpt lat="46.83652519248425960540771484375" lon="6.8116751499474048614501953125">
        <ele>427.399993896484375</ele>
        <time>2017-05-05T12:23:08.000Z</time>
        <extensions>
          <ns3:TrackPointExtension>
            <ns3:hr>151</ns3:hr>
          </ns3:TrackPointExtension>
        </extensions>
      </trkpt>
      <trkpt lat="46.836416311562061309814453125" lon="6.81152218021452426910400390625">
        <ele>427.399993896484375</ele>
        <time>2017-05-05T12:23:10.000Z</time>
        <extensions>
          <ns3:TrackPointExtension>
            <ns3:hr>151</ns3:hr>
          </ns3:TrackPointExtension>
        </extensions>
      </trkpt>
      <trkpt lat="46.83619611896574497222900390625" lon="6.81135110557079315185546875">
        <ele>427.20001220703125</ele>
        <time>2017-05-05T12:23:14.000Z</time>
        <extensions>
          <ns3:TrackPointExtension>
            <ns3:hr>152</ns3:hr>
          </ns3:TrackPointExtension>
        </extensions>
      </trkpt>
      <trkpt lat="46.836100481450557708740234375" lon="6.81132336147129535675048828125">
        <ele>427.20001220703125</ele>
        <time>2017-05-05T12:23:16.000Z</time>
        <extensions>
          <ns3:TrackPointExtension>
            <ns3:hr>153</ns3:hr>
          </ns3:TrackPointExtension>
        </extensions>
      </trkpt>
      <trkpt lat="46.8360034190118312835693359375" lon="6.8113760836422443389892578125">
        <ele>427.20001220703125</ele>
        <time>2017-05-05T12:23:18.000Z</time>
        <extensions>
          <ns3:TrackPointExtension>
            <ns3:hr>153</ns3:hr>
          </ns3:TrackPointExtension>
        </extensions>
      </trkpt>
      <trkpt lat="46.8359189294278621673583984375" lon="6.81153860874474048614501953125">
        <ele>427.20001220703125</ele>
        <time>2017-05-05T12:23:20.000Z</time>
        <extensions>
          <ns3:TrackPointExtension>
            <ns3:hr>153</ns3:hr>
          </ns3:TrackPointExtension>
        </extensions>
      </trkpt>
      <trkpt lat="46.835720278322696685791015625" lon="6.81181621737778186798095703125">
        <ele>427.79998779296875</ele>
        <time>2017-05-05T12:23:27.000Z</time>
        <extensions>
          <ns3:TrackPointExtension>
            <ns3:hr>150</ns3:hr>
          </ns3:TrackPointExtension>
        </extensions>
      </trkpt>
      <trkpt lat="46.83563101105391979217529296875" lon="6.81182057596743106842041015625">
        <ele>429.20001220703125</ele>
        <time>2017-05-05T12:23:30.000Z</time>
        <extensions>
          <ns3:TrackPointExtension>
            <ns3:hr>148</ns3:hr>
          </ns3:TrackPointExtension>
        </extensions>
      </trkpt>
      <trkpt lat="46.83556932024657726287841796875" lon="6.81183247826993465423583984375">
        <ele>430.399993896484375</ele>
        <time>2017-05-05T12:23:32.000Z</time>
        <extensions>
          <ns3:TrackPointExtension>
            <ns3:hr>147</ns3:hr>
          </ns3:TrackPointExtension>
        </extensions>
      </trkpt>
      <trkpt lat="46.8353958986699581146240234375" lon="6.81175318546593189239501953125">
        <ele>431.600006103515625</ele>
        <time>2017-05-05T12:23:36.000Z</time>
        <extensions>
          <ns3:TrackPointExtension>
            <ns3:hr>147</ns3:hr>
          </ns3:TrackPointExtension>
        </extensions>
      </trkpt>
      <trkpt lat="46.83534049428999423980712890625" lon="6.8116830289363861083984375">
        <ele>432.600006103515625</ele>
        <time>2017-05-05T12:23:38.000Z</time>
        <extensions>
          <ns3:TrackPointExtension>
            <ns3:hr>149</ns3:hr>
          </ns3:TrackPointExtension>
        </extensions>
      </trkpt>
      <trkpt lat="46.835261620581150054931640625" lon="6.81163944303989410400390625">
        <ele>433.600006103515625</ele>
        <time>2017-05-05T12:23:40.000Z</time>
        <extensions>
          <ns3:TrackPointExtension>
            <ns3:hr>150</ns3:hr>
          </ns3:TrackPointExtension>
        </extensions>
      </trkpt>
      <trkpt lat="46.83521912433207035064697265625" lon="6.81160482577979564666748046875">
        <ele>434</ele>
        <time>2017-05-05T12:23:41.000Z</time>
        <extensions>
          <ns3:TrackPointExtension>
            <ns3:hr>150</ns3:hr>
          </ns3:TrackPointExtension>
        </extensions>
      </trkpt>
      <trkpt lat="46.83508954010903835296630859375" lon="6.81149032898247241973876953125">
        <ele>434.399993896484375</ele>
        <time>2017-05-05T12:23:44.000Z</time>
        <extensions>
          <ns3:TrackPointExtension>
            <ns3:hr>150</ns3:hr>
          </ns3:TrackPointExtension>
        </extensions>
      </trkpt>
      <trkpt lat="46.8346106819808483123779296875" lon="6.8112270534038543701171875">
        <ele>434.600006103515625</ele>
        <time>2017-05-05T12:23:54.000Z</time>
        <extensions>
          <ns3:TrackPointExtension>
            <ns3:hr>153</ns3:hr>
          </ns3:TrackPointExtension>
        </extensions>
      </trkpt>
      <trkpt lat="46.83408915996551513671875" lon="6.8110109679400920867919921875">
        <ele>434.399993896484375</ele>
        <time>2017-05-05T12:24:04.000Z</time>
        <extensions>
          <ns3:TrackPointExtension>
            <ns3:hr>155</ns3:hr>
          </ns3:TrackPointExtension>
        </extensions>
      </trkpt>
      <trkpt lat="46.83353922329843044281005859375" lon="6.81077837012708187103271484375">
        <ele>433.600006103515625</ele>
        <time>2017-05-05T12:24:14.000Z</time>
        <extensions>
          <ns3:TrackPointExtension>
            <ns3:hr>155</ns3:hr>
          </ns3:TrackPointExtension>
        </extensions>
      </trkpt>
      <trkpt lat="46.83298769406974315643310546875" lon="6.81053512729704380035400390625">
        <ele>433.20001220703125</ele>
        <time>2017-05-05T12:24:23.000Z</time>
        <extensions>
          <ns3:TrackPointExtension>
            <ns3:hr>153</ns3:hr>
          </ns3:TrackPointExtension>
        </extensions>
      </trkpt>
      <trkpt lat="46.832804381847381591796875" lon="6.810433454811573028564453125">
        <ele>433</ele>
        <time>2017-05-05T12:24:26.000Z</time>
        <extensions>
          <ns3:TrackPointExtension>
            <ns3:hr>150</ns3:hr>
          </ns3:TrackPointExtension>
        </extensions>
      </trkpt>
      <trkpt lat="46.832273639738559722900390625" lon="6.81004176847636699676513671875">
        <ele>432.600006103515625</ele>
        <time>2017-05-05T12:24:36.000Z</time>
        <extensions>
          <ns3:TrackPointExtension>
            <ns3:hr>152</ns3:hr>
          </ns3:TrackPointExtension>
        </extensions>
      </trkpt>
      <trkpt lat="46.83179092593491077423095703125" lon="6.80959249846637248992919921875">
        <ele>432.399993896484375</ele>
        <time>2017-05-05T12:24:45.000Z</time>
        <extensions>
          <ns3:TrackPointExtension>
            <ns3:hr>151</ns3:hr>
          </ns3:TrackPointExtension>
        </extensions>
      </trkpt>
      <trkpt lat="46.831537373363971710205078125" lon="6.80931287817656993865966796875">
        <ele>431.79998779296875</ele>
        <time>2017-05-05T12:24:49.000Z</time>
        <extensions>
          <ns3:TrackPointExtension>
            <ns3:hr>154</ns3:hr>
          </ns3:TrackPointExtension>
        </extensions>
      </trkpt>
      <trkpt lat="46.8312049470841884613037109375" lon="6.80899537168443202972412109375">
        <ele>431.20001220703125</ele>
        <time>2017-05-05T12:24:54.000Z</time>
        <extensions>
          <ns3:TrackPointExtension>
            <ns3:hr>155</ns3:hr>
          </ns3:TrackPointExtension>
        </extensions>
      </trkpt>
      <trkpt lat="46.83107259683310985565185546875" lon="6.80886478163301944732666015625">
        <ele>430.79998779296875</ele>
        <time>2017-05-05T12:24:56.000Z</time>
        <extensions>
          <ns3:TrackPointExtension>
            <ns3:hr>155</ns3:hr>
          </ns3:TrackPointExtension>
        </extensions>
      </trkpt>
      <trkpt lat="46.83065366931259632110595703125" lon="6.80832901038229465484619140625">
        <ele>430</ele>
        <time>2017-05-05T12:25:03.000Z</time>
        <extensions>
          <ns3:TrackPointExtension>
            <ns3:hr>159</ns3:hr>
          </ns3:TrackPointExtension>
        </extensions>
      </trkpt>
      <trkpt lat="46.8303184770047664642333984375" lon="6.80766248144209384918212890625">
        <ele>429.79998779296875</ele>
        <time>2017-05-05T12:25:11.000Z</time>
        <extensions>
          <ns3:TrackPointExtension>
            <ns3:hr>161</ns3:hr>
          </ns3:TrackPointExtension>
        </extensions>
      </trkpt>
      <trkpt lat="46.830265335738658905029296875" lon="6.80758167989552021026611328125">
        <ele>429.79998779296875</ele>
        <time>2017-05-05T12:25:12.000Z</time>
        <extensions>
          <ns3:TrackPointExtension>
            <ns3:hr>160</ns3:hr>
          </ns3:TrackPointExtension>
        </extensions>
      </trkpt>
      <trkpt lat="46.830104403197765350341796875" lon="6.80734229274094104766845703125">
        <ele>429.79998779296875</ele>
        <time>2017-05-05T12:25:15.000Z</time>
        <extensions>
          <ns3:TrackPointExtension>
            <ns3:hr>160</ns3:hr>
          </ns3:TrackPointExtension>
        </extensions>
      </trkpt>
      <trkpt lat="46.82996727526187896728515625" lon="6.80702738463878631591796875">
        <ele>429.79998779296875</ele>
        <time>2017-05-05T12:25:19.000Z</time>
        <extensions>
          <ns3:TrackPointExtension>
            <ns3:hr>157</ns3:hr>
          </ns3:TrackPointExtension>
        </extensions>
      </trkpt>
      <trkpt lat="46.8296683765947818756103515625" lon="6.806316263973712921142578125">
        <ele>430.399993896484375</ele>
        <time>2017-05-05T12:25:28.000Z</time>
        <extensions>
          <ns3:TrackPointExtension>
            <ns3:hr>156</ns3:hr>
          </ns3:TrackPointExtension>
        </extensions>
      </trkpt>
      <trkpt lat="46.82950987480580806732177734375" lon="6.80596229620277881622314453125">
        <ele>430.399993896484375</ele>
        <time>2017-05-05T12:25:33.000Z</time>
        <extensions>
          <ns3:TrackPointExtension>
            <ns3:hr>153</ns3:hr>
          </ns3:TrackPointExtension>
        </extensions>
      </trkpt>
      <trkpt lat="46.8291456811130046844482421875" lon="6.80530867539346218109130859375">
        <ele>430.399993896484375</ele>
        <time>2017-05-05T12:25:41.000Z</time>
        <extensions>
          <ns3:TrackPointExtension>
            <ns3:hr>152</ns3:hr>
          </ns3:TrackPointExtension>
        </extensions>
      </trkpt>
      <trkpt lat="46.82880512438714504241943359375" lon="6.80465161800384521484375">
        <ele>430</ele>
        <time>2017-05-05T12:25:49.000Z</time>
        <extensions>
          <ns3:TrackPointExtension>
            <ns3:hr>154</ns3:hr>
          </ns3:TrackPointExtension>
        </extensions>
      </trkpt>
      <trkpt lat="46.82844118215143680572509765625" lon="6.803970001637935638427734375">
        <ele>429.79998779296875</ele>
        <time>2017-05-05T12:25:58.000Z</time>
        <extensions>
          <ns3:TrackPointExtension>
            <ns3:hr>157</ns3:hr>
          </ns3:TrackPointExtension>
        </extensions>
      </trkpt>
      <trkpt lat="46.8281080015003681182861328125" lon="6.8033234216272830963134765625">
        <ele>430</ele>
        <time>2017-05-05T12:26:07.000Z</time>
        <extensions>
          <ns3:TrackPointExtension>
            <ns3:hr>159</ns3:hr>
          </ns3:TrackPointExtension>
        </extensions>
      </trkpt>
      <trkpt lat="46.8277861364185810089111328125" lon="6.8027279712259769439697265625">
        <ele>430.600006103515625</ele>
        <time>2017-05-05T12:26:17.000Z</time>
        <extensions>
          <ns3:TrackPointExtension>
            <ns3:hr>159</ns3:hr>
          </ns3:TrackPointExtension>
        </extensions>
      </trkpt>
      <trkpt lat="46.827711872756481170654296875" lon="6.80264063179492950439453125">
        <ele>430.79998779296875</ele>
        <time>2017-05-05T12:26:19.000Z</time>
        <extensions>
          <ns3:TrackPointExtension>
            <ns3:hr>159</ns3:hr>
          </ns3:TrackPointExtension>
        </extensions>
      </trkpt>
      <trkpt lat="46.8276754952967166900634765625" lon="6.8025854788720607757568359375">
        <ele>430.79998779296875</ele>
        <time>2017-05-05T12:26:20.000Z</time>
        <extensions>
          <ns3:TrackPointExtension>
            <ns3:hr>158</ns3:hr>
          </ns3:TrackPointExtension>
        </extensions>
      </trkpt>
      <trkpt lat="46.82723552919924259185791015625" lon="6.8019519746303558349609375">
        <ele>430.79998779296875</ele>
        <time>2017-05-05T12:26:29.000Z</time>
        <extensions>
          <ns3:TrackPointExtension>
            <ns3:hr>156</ns3:hr>
          </ns3:TrackPointExtension>
        </extensions>
      </trkpt>
      <trkpt lat="46.826978959143161773681640625" lon="6.801584176719188690185546875">
        <ele>430.600006103515625</ele>
        <time>2017-05-05T12:26:34.000Z</time>
        <extensions>
          <ns3:TrackPointExtension>
            <ns3:hr>159</ns3:hr>
          </ns3:TrackPointExtension>
        </extensions>
      </trkpt>
      <trkpt lat="46.8265543319284915924072265625" lon="6.80102585814893245697021484375">
        <ele>430.399993896484375</ele>
        <time>2017-05-05T12:26:42.000Z</time>
        <extensions>
          <ns3:TrackPointExtension>
            <ns3:hr>159</ns3:hr>
          </ns3:TrackPointExtension>
        </extensions>
      </trkpt>
      <trkpt lat="46.8261660821735858917236328125" lon="6.80047474801540374755859375">
        <ele>430.399993896484375</ele>
        <time>2017-05-05T12:26:50.000Z</time>
        <extensions>
          <ns3:TrackPointExtension>
            <ns3:hr>157</ns3:hr>
          </ns3:TrackPointExtension>
        </extensions>
      </trkpt>
      <trkpt lat="46.82593164034187793731689453125" lon="6.80013268254697322845458984375">
        <ele>430.399993896484375</ele>
        <time>2017-05-05T12:26:55.000Z</time>
        <extensions>
          <ns3:TrackPointExtension>
            <ns3:hr>154</ns3:hr>
          </ns3:TrackPointExtension>
        </extensions>
      </trkpt>
      <trkpt lat="46.8255119584500789642333984375" lon="6.79952792823314666748046875">
        <ele>430</ele>
        <time>2017-05-05T12:27:04.000Z</time>
        <extensions>
          <ns3:TrackPointExtension>
            <ns3:hr>156</ns3:hr>
          </ns3:TrackPointExtension>
        </extensions>
      </trkpt>
      <trkpt lat="46.8250836431980133056640625" lon="6.7989484034478664398193359375">
        <ele>430.600006103515625</ele>
        <time>2017-05-05T12:27:13.000Z</time>
        <extensions>
          <ns3:TrackPointExtension>
            <ns3:hr>156</ns3:hr>
          </ns3:TrackPointExtension>
        </extensions>
      </trkpt>
      <trkpt lat="46.824696399271488189697265625" lon="6.79834364913403987884521484375">
        <ele>430.79998779296875</ele>
        <time>2017-05-05T12:27:21.000Z</time>
        <extensions>
          <ns3:TrackPointExtension>
            <ns3:hr>158</ns3:hr>
          </ns3:TrackPointExtension>
        </extensions>
      </trkpt>
      <trkpt lat="46.82465516030788421630859375" lon="6.79825681261718273162841796875">
        <ele>430.79998779296875</ele>
        <time>2017-05-05T12:27:22.000Z</time>
        <extensions>
          <ns3:TrackPointExtension>
            <ns3:hr>159</ns3:hr>
          </ns3:TrackPointExtension>
        </extensions>
      </trkpt>
      <trkpt lat="46.8245311081409454345703125" lon="6.79799177683889865875244140625">
        <ele>430.600006103515625</ele>
        <time>2017-05-05T12:27:25.000Z</time>
        <extensions>
          <ns3:TrackPointExtension>
            <ns3:hr>160</ns3:hr>
          </ns3:TrackPointExtension>
        </extensions>
      </trkpt>
      <trkpt lat="46.82440630160272121429443359375" lon="6.79782732389867305755615234375">
        <ele>430.399993896484375</ele>
        <time>2017-05-05T12:27:27.000Z</time>
        <extensions>
          <ns3:TrackPointExtension>
            <ns3:hr>160</ns3:hr>
          </ns3:TrackPointExtension>
        </extensions>
      </trkpt>
      <trkpt lat="46.82422106154263019561767578125" lon="6.7976264096796512603759765625">
        <ele>430.399993896484375</ele>
        <time>2017-05-05T12:27:30.000Z</time>
        <extensions>
          <ns3:TrackPointExtension>
            <ns3:hr>164</ns3:hr>
          </ns3:TrackPointExtension>
        </extensions>
      </trkpt>
      <trkpt lat="46.82393406517803668975830078125" lon="6.79728736169636249542236328125">
        <ele>430.20001220703125</ele>
        <time>2017-05-05T12:27:35.000Z</time>
        <extensions>
          <ns3:TrackPointExtension>
            <ns3:hr>156</ns3:hr>
          </ns3:TrackPointExtension>
        </extensions>
      </trkpt>
      <trkpt lat="46.82387421838939189910888671875" lon="6.79721812717616558074951171875">
        <ele>430.20001220703125</ele>
        <time>2017-05-05T12:27:36.000Z</time>
        <extensions>
          <ns3:TrackPointExtension>
            <ns3:hr>156</ns3:hr>
          </ns3:TrackPointExtension>
        </extensions>
      </trkpt>
      <trkpt lat="46.8234687857329845428466796875" lon="6.796653605997562408447265625">
        <ele>430</ele>
        <time>2017-05-05T12:27:44.000Z</time>
        <extensions>
          <ns3:TrackPointExtension>
            <ns3:hr>153</ns3:hr>
          </ns3:TrackPointExtension>
        </extensions>
      </trkpt>
      <trkpt lat="46.82342134416103363037109375" lon="6.7965820245444774627685546875">
        <ele>430</ele>
        <time>2017-05-05T12:27:45.000Z</time>
        <extensions>
          <ns3:TrackPointExtension>
            <ns3:hr>157</ns3:hr>
          </ns3:TrackPointExtension>
        </extensions>
      </trkpt>
      <trkpt lat="46.82317533530294895172119140625" lon="6.79621850140392780303955078125">
        <ele>429.79998779296875</ele>
        <time>2017-05-05T12:27:50.000Z</time>
        <extensions>
          <ns3:TrackPointExtension>
            <ns3:hr>156</ns3:hr>
          </ns3:TrackPointExtension>
        </extensions>
      </trkpt>
      <trkpt lat="46.8230674602091312408447265625" lon="6.79609335958957672119140625">
        <ele>429.79998779296875</ele>
        <time>2017-05-05T12:27:52.000Z</time>
        <extensions>
          <ns3:TrackPointExtension>
            <ns3:hr>155</ns3:hr>
          </ns3:TrackPointExtension>
        </extensions>
      </trkpt>
      <trkpt lat="46.82295556180179119110107421875" lon="6.7959547229111194610595703125">
        <ele>429.600006103515625</ele>
        <time>2017-05-05T12:27:54.000Z</time>
        <extensions>
          <ns3:TrackPointExtension>
            <ns3:hr>154</ns3:hr>
          </ns3:TrackPointExtension>
        </extensions>
      </trkpt>
      <trkpt lat="46.822847686707973480224609375" lon="6.79580091498792171478271484375">
        <ele>429.399993896484375</ele>
        <time>2017-05-05T12:27:56.000Z</time>
        <extensions>
          <ns3:TrackPointExtension>
            <ns3:hr>153</ns3:hr>
          </ns3:TrackPointExtension>
        </extensions>
      </trkpt>
      <trkpt lat="46.82243739254772663116455078125" lon="6.79517202079296112060546875">
        <ele>429</ele>
        <time>2017-05-05T12:28:04.000Z</time>
        <extensions>
          <ns3:TrackPointExtension>
            <ns3:hr>153</ns3:hr>
          </ns3:TrackPointExtension>
        </extensions>
      </trkpt>
      <trkpt lat="46.822384335100650787353515625" lon="6.79510354064404964447021484375">
        <ele>429</ele>
        <time>2017-05-05T12:28:05.000Z</time>
        <extensions>
          <ns3:TrackPointExtension>
            <ns3:hr>153</ns3:hr>
          </ns3:TrackPointExtension>
        </extensions>
      </trkpt>
      <trkpt lat="46.82199382223188877105712890625" lon="6.79453843273222446441650390625">
        <ele>428.79998779296875</ele>
        <time>2017-05-05T12:28:13.000Z</time>
        <extensions>
          <ns3:TrackPointExtension>
            <ns3:hr>152</ns3:hr>
          </ns3:TrackPointExtension>
        </extensions>
      </trkpt>
      <trkpt lat="46.82161889970302581787109375" lon="6.79405144415795803070068359375">
        <ele>429.20001220703125</ele>
        <time>2017-05-05T12:28:22.000Z</time>
        <extensions>
          <ns3:TrackPointExtension>
            <ns3:hr>152</ns3:hr>
          </ns3:TrackPointExtension>
        </extensions>
      </trkpt>
      <trkpt lat="46.82157891802489757537841796875" lon="6.79395488463342189788818359375">
        <ele>429.600006103515625</ele>
        <time>2017-05-05T12:28:24.000Z</time>
        <extensions>
          <ns3:TrackPointExtension>
            <ns3:hr>152</ns3:hr>
          </ns3:TrackPointExtension>
        </extensions>
      </trkpt>
      <trkpt lat="46.8216200731694698333740234375" lon="6.79383753798902034759521484375">
        <ele>429.79998779296875</ele>
        <time>2017-05-05T12:28:26.000Z</time>
        <extensions>
          <ns3:TrackPointExtension>
            <ns3:hr>152</ns3:hr>
          </ns3:TrackPointExtension>
        </extensions>
      </trkpt>
      <trkpt lat="46.82181729935109615325927734375" lon="6.79360887967050075531005859375">
        <ele>429.79998779296875</ele>
        <time>2017-05-05T12:28:30.000Z</time>
        <extensions>
          <ns3:TrackPointExtension>
            <ns3:hr>152</ns3:hr>
          </ns3:TrackPointExtension>
        </extensions>
      </trkpt>
      <trkpt lat="46.821844875812530517578125" lon="6.7934334464371204376220703125">
        <ele>429.79998779296875</ele>
        <time>2017-05-05T12:28:32.000Z</time>
        <extensions>
          <ns3:TrackPointExtension>
            <ns3:hr>152</ns3:hr>
          </ns3:TrackPointExtension>
        </extensions>
      </trkpt>
      <trkpt lat="46.8216867931187152862548828125" lon="6.79307947866618633270263671875">
        <ele>429</ele>
        <time>2017-05-05T12:28:36.000Z</time>
        <extensions>
          <ns3:TrackPointExtension>
            <ns3:hr>150</ns3:hr>
          </ns3:TrackPointExtension>
        </extensions>
      </trkpt>
      <trkpt lat="46.821640022099018096923828125" lon="6.79300211369991302490234375">
        <ele>428.600006103515625</ele>
        <time>2017-05-05T12:28:37.000Z</time>
        <extensions>
          <ns3:TrackPointExtension>
            <ns3:hr>150</ns3:hr>
          </ns3:TrackPointExtension>
        </extensions>
      </trkpt>
      <trkpt lat="46.821487806737422943115234375" lon="6.7927729524672031402587890625">
        <ele>427.600006103515625</ele>
        <time>2017-05-05T12:28:40.000Z</time>
        <extensions>
          <ns3:TrackPointExtension>
            <ns3:hr>151</ns3:hr>
          </ns3:TrackPointExtension>
        </extensions>
      </trkpt>
      <trkpt lat="46.82112243957817554473876953125" lon="6.79227783344686031341552734375">
        <ele>427</ele>
        <time>2017-05-05T12:28:47.000Z</time>
        <extensions>
          <ns3:TrackPointExtension>
            <ns3:hr>154</ns3:hr>
          </ns3:TrackPointExtension>
        </extensions>
      </trkpt>
      <trkpt lat="46.8207094632089138031005859375" lon="6.79175178520381450653076171875">
        <ele>428.20001220703125</ele>
        <time>2017-05-05T12:28:55.000Z</time>
        <extensions>
          <ns3:TrackPointExtension>
            <ns3:hr>153</ns3:hr>
          </ns3:TrackPointExtension>
        </extensions>
      </trkpt>
      <trkpt lat="46.82061374187469482421875" lon="6.791617758572101593017578125">
        <ele>428.79998779296875</ele>
        <time>2017-05-05T12:28:57.000Z</time>
        <extensions>
          <ns3:TrackPointExtension>
            <ns3:hr>153</ns3:hr>
          </ns3:TrackPointExtension>
        </extensions>
      </trkpt>
      <trkpt lat="46.820278465747833251953125" lon="6.79102658294141292572021484375">
        <ele>429.399993896484375</ele>
        <time>2017-05-05T12:29:05.000Z</time>
        <extensions>
          <ns3:TrackPointExtension>
            <ns3:hr>151</ns3:hr>
          </ns3:TrackPointExtension>
        </extensions>
      </trkpt>
      <trkpt lat="46.81987487711012363433837890625" lon="6.79038888774812221527099609375">
        <ele>429.399993896484375</ele>
        <time>2017-05-05T12:29:14.000Z</time>
        <extensions>
          <ns3:TrackPointExtension>
            <ns3:hr>151</ns3:hr>
          </ns3:TrackPointExtension>
        </extensions>
      </trkpt>
      <trkpt lat="46.8194739706814289093017578125" lon="6.789856888353824615478515625">
        <ele>429.20001220703125</ele>
        <time>2017-05-05T12:29:22.000Z</time>
        <extensions>
          <ns3:TrackPointExtension>
            <ns3:hr>153</ns3:hr>
          </ns3:TrackPointExtension>
        </extensions>
      </trkpt>
      <trkpt lat="46.8190709687769412994384765625" lon="6.789315082132816314697265625">
        <ele>429</ele>
        <time>2017-05-05T12:29:30.000Z</time>
        <extensions>
          <ns3:TrackPointExtension>
            <ns3:hr>154</ns3:hr>
          </ns3:TrackPointExtension>
        </extensions>
      </trkpt>
      <trkpt lat="46.8186984769999980926513671875" lon="6.7888748645782470703125">
        <ele>429</ele>
        <time>2017-05-05T12:29:37.000Z</time>
        <extensions>
          <ns3:TrackPointExtension>
            <ns3:hr>156</ns3:hr>
          </ns3:TrackPointExtension>
        </extensions>
      </trkpt>
      <trkpt lat="46.81832439266145229339599609375" lon="6.7881950922310352325439453125">
        <ele>429</ele>
        <time>2017-05-05T12:29:46.000Z</time>
        <extensions>
          <ns3:TrackPointExtension>
            <ns3:hr>157</ns3:hr>
          </ns3:TrackPointExtension>
        </extensions>
      </trkpt>
      <trkpt lat="46.818100176751613616943359375" lon="6.78782117553055286407470703125">
        <ele>429</ele>
        <time>2017-05-05T12:29:51.000Z</time>
        <extensions>
          <ns3:TrackPointExtension>
            <ns3:hr>154</ns3:hr>
          </ns3:TrackPointExtension>
        </extensions>
      </trkpt>
      <trkpt lat="46.8178720213472843170166015625" lon="6.7874511145055294036865234375">
        <ele>429</ele>
        <time>2017-05-05T12:29:56.000Z</time>
        <extensions>
          <ns3:TrackPointExtension>
            <ns3:hr>151</ns3:hr>
          </ns3:TrackPointExtension>
        </extensions>
      </trkpt>
      <trkpt lat="46.81750581599771976470947265625" lon="6.786811910569667816162109375">
        <ele>428.399993896484375</ele>
        <time>2017-05-05T12:30:04.000Z</time>
        <extensions>
          <ns3:TrackPointExtension>
            <ns3:hr>150</ns3:hr>
          </ns3:TrackPointExtension>
        </extensions>
      </trkpt>
      <trkpt lat="46.8171565420925617218017578125" lon="6.78619206883013248443603515625">
        <ele>428.79998779296875</ele>
        <time>2017-05-05T12:30:12.000Z</time>
        <extensions>
          <ns3:TrackPointExtension>
            <ns3:hr>152</ns3:hr>
          </ns3:TrackPointExtension>
        </extensions>
      </trkpt>
      <trkpt lat="46.81678949855268001556396484375" lon="6.78574011661112308502197265625">
        <ele>429.600006103515625</ele>
        <time>2017-05-05T12:30:21.000Z</time>
        <extensions>
          <ns3:TrackPointExtension>
            <ns3:hr>149</ns3:hr>
          </ns3:TrackPointExtension>
        </extensions>
      </trkpt>
      <trkpt lat="46.81672244332730770111083984375" lon="6.78565084934234619140625">
        <ele>430</ele>
        <time>2017-05-05T12:30:23.000Z</time>
        <extensions>
          <ns3:TrackPointExtension>
            <ns3:hr>149</ns3:hr>
          </ns3:TrackPointExtension>
        </extensions>
      </trkpt>
      <trkpt lat="46.816692687571048736572265625" lon="6.785596199333667755126953125">
        <ele>430.399993896484375</ele>
        <time>2017-05-05T12:30:24.000Z</time>
        <extensions>
          <ns3:TrackPointExtension>
            <ns3:hr>149</ns3:hr>
          </ns3:TrackPointExtension>
        </extensions>
      </trkpt>
      <trkpt lat="46.8166459165513515472412109375" lon="6.78544524125754833221435546875">
        <ele>431.20001220703125</ele>
        <time>2017-05-05T12:30:26.000Z</time>
        <extensions>
          <ns3:TrackPointExtension>
            <ns3:hr>149</ns3:hr>
          </ns3:TrackPointExtension>
        </extensions>
      </trkpt>
      <trkpt lat="46.81658028624951839447021484375" lon="6.78490863181650638580322265625">
        <ele>431.399993896484375</ele>
        <time>2017-05-05T12:30:31.000Z</time>
        <extensions>
          <ns3:TrackPointExtension>
            <ns3:hr>151</ns3:hr>
          </ns3:TrackPointExtension>
        </extensions>
      </trkpt>
      <trkpt lat="46.81664197705686092376708984375" lon="6.78444913588464260101318359375">
        <ele>431.399993896484375</ele>
        <time>2017-05-05T12:30:35.000Z</time>
        <extensions>
          <ns3:TrackPointExtension>
            <ns3:hr>154</ns3:hr>
          </ns3:TrackPointExtension>
        </extensions>
      </trkpt>
      <trkpt lat="46.816692017018795013427734375" lon="6.7840182222425937652587890625">
        <ele>430.20001220703125</ele>
        <time>2017-05-05T12:30:39.000Z</time>
        <extensions>
          <ns3:TrackPointExtension>
            <ns3:hr>154</ns3:hr>
          </ns3:TrackPointExtension>
        </extensions>
      </trkpt>
      <trkpt lat="46.8166814558207988739013671875" lon="6.78369945846498012542724609375">
        <ele>428.600006103515625</ele>
        <time>2017-05-05T12:30:42.000Z</time>
        <extensions>
          <ns3:TrackPointExtension>
            <ns3:hr>153</ns3:hr>
          </ns3:TrackPointExtension>
        </extensions>
      </trkpt>
      <trkpt lat="46.81665739975869655609130859375" lon="6.78349544294178485870361328125">
        <ele>428.20001220703125</ele>
        <time>2017-05-05T12:30:44.000Z</time>
        <extensions>
          <ns3:TrackPointExtension>
            <ns3:hr>153</ns3:hr>
          </ns3:TrackPointExtension>
        </extensions>
      </trkpt>
      <trkpt lat="46.81655262596905231475830078125" lon="6.7832779325544834136962890625">
        <ele>428.20001220703125</ele>
        <time>2017-05-05T12:30:46.000Z</time>
        <extensions>
          <ns3:TrackPointExtension>
            <ns3:hr>153</ns3:hr>
          </ns3:TrackPointExtension>
        </extensions>
      </trkpt>
      <trkpt lat="46.81645120494067668914794921875" lon="6.7831263877451419830322265625">
        <ele>428.20001220703125</ele>
        <time>2017-05-05T12:30:48.000Z</time>
        <extensions>
          <ns3:TrackPointExtension>
            <ns3:hr>153</ns3:hr>
          </ns3:TrackPointExtension>
        </extensions>
      </trkpt>
      <trkpt lat="46.816341988742351531982421875" lon="6.78302002139389514923095703125">
        <ele>428.20001220703125</ele>
        <time>2017-05-05T12:30:50.000Z</time>
        <extensions>
          <ns3:TrackPointExtension>
            <ns3:hr>152</ns3:hr>
          </ns3:TrackPointExtension>
        </extensions>
      </trkpt>
      <trkpt lat="46.8162100575864315032958984375" lon="6.7829453386366367340087890625">
        <ele>428.20001220703125</ele>
        <time>2017-05-05T12:30:52.000Z</time>
        <extensions>
          <ns3:TrackPointExtension>
            <ns3:hr>152</ns3:hr>
          </ns3:TrackPointExtension>
        </extensions>
      </trkpt>
      <trkpt lat="46.81600503623485565185546875" lon="6.78291021846234798431396484375">
        <ele>428.600006103515625</ele>
        <time>2017-05-05T12:30:55.000Z</time>
        <extensions>
          <ns3:TrackPointExtension>
            <ns3:hr>152</ns3:hr>
          </ns3:TrackPointExtension>
        </extensions>
      </trkpt>
      <trkpt lat="46.8155157007277011871337890625" lon="6.7829480208456516265869140625">
        <ele>428.79998779296875</ele>
        <time>2017-05-05T12:31:02.000Z</time>
        <extensions>
          <ns3:TrackPointExtension>
            <ns3:hr>155</ns3:hr>
          </ns3:TrackPointExtension>
        </extensions>
      </trkpt>
      <trkpt lat="46.81520699523389339447021484375" lon="6.782907284796237945556640625">
        <ele>428.600006103515625</ele>
        <time>2017-05-05T12:31:07.000Z</time>
        <extensions>
          <ns3:TrackPointExtension>
            <ns3:hr>156</ns3:hr>
          </ns3:TrackPointExtension>
        </extensions>
      </trkpt>
      <trkpt lat="46.81508881039917469024658203125" lon="6.78283913992345333099365234375">
        <ele>428.600006103515625</ele>
        <time>2017-05-05T12:31:09.000Z</time>
        <extensions>
          <ns3:TrackPointExtension>
            <ns3:hr>156</ns3:hr>
          </ns3:TrackPointExtension>
        </extensions>
      </trkpt>
      <trkpt lat="46.81498655118048191070556640625" lon="6.7827317677438259124755859375">
        <ele>428.79998779296875</ele>
        <time>2017-05-05T12:31:11.000Z</time>
        <extensions>
          <ns3:TrackPointExtension>
            <ns3:hr>155</ns3:hr>
          </ns3:TrackPointExtension>
        </extensions>
      </trkpt>
      <trkpt lat="46.81465311907231807708740234375" lon="6.78222910501062870025634765625">
        <ele>429.20001220703125</ele>
        <time>2017-05-05T12:31:18.000Z</time>
        <extensions>
          <ns3:TrackPointExtension>
            <ns3:hr>152</ns3:hr>
          </ns3:TrackPointExtension>
        </extensions>
      </trkpt>
      <trkpt lat="46.81428146548569202423095703125" lon="6.78163901902735233306884765625">
        <ele>429.20001220703125</ele>
        <time>2017-05-05T12:31:26.000Z</time>
        <extensions>
          <ns3:TrackPointExtension>
            <ns3:hr>152</ns3:hr>
          </ns3:TrackPointExtension>
        </extensions>
      </trkpt>
      <trkpt lat="46.8139228038489818572998046875" lon="6.78104474209249019622802734375">
        <ele>429</ele>
        <time>2017-05-05T12:31:34.000Z</time>
        <extensions>
          <ns3:TrackPointExtension>
            <ns3:hr>152</ns3:hr>
          </ns3:TrackPointExtension>
        </extensions>
      </trkpt>
      <trkpt lat="46.81357068009674549102783203125" lon="6.7804891057312488555908203125">
        <ele>429</ele>
        <time>2017-05-05T12:31:42.000Z</time>
        <extensions>
          <ns3:TrackPointExtension>
            <ns3:hr>149</ns3:hr>
          </ns3:TrackPointExtension>
        </extensions>
      </trkpt>
      <trkpt lat="46.8134852685034275054931640625" lon="6.78035072050988674163818359375">
        <ele>429</ele>
        <time>2017-05-05T12:31:44.000Z</time>
        <extensions>
          <ns3:TrackPointExtension>
            <ns3:hr>149</ns3:hr>
          </ns3:TrackPointExtension>
        </extensions>
      </trkpt>
      <trkpt lat="46.81330405175685882568359375" lon="6.78007059730589389801025390625">
        <ele>429.20001220703125</ele>
        <time>2017-05-05T12:31:48.000Z</time>
        <extensions>
          <ns3:TrackPointExtension>
            <ns3:hr>148</ns3:hr>
          </ns3:TrackPointExtension>
        </extensions>
      </trkpt>
      <trkpt lat="46.8132361583411693572998046875" lon="6.7799080722033977508544921875">
        <ele>429.20001220703125</ele>
        <time>2017-05-05T12:31:50.000Z</time>
        <extensions>
          <ns3:TrackPointExtension>
            <ns3:hr>148</ns3:hr>
          </ns3:TrackPointExtension>
        </extensions>
      </trkpt>
      <trkpt lat="46.81316633708775043487548828125" lon="6.7795506678521633148193359375">
        <ele>429.399993896484375</ele>
        <time>2017-05-05T12:31:54.000Z</time>
        <extensions>
          <ns3:TrackPointExtension>
            <ns3:hr>147</ns3:hr>
          </ns3:TrackPointExtension>
        </extensions>
      </trkpt>
      <trkpt lat="46.81315527297556400299072265625" lon="6.7793619073927402496337890625">
        <ele>429.399993896484375</ele>
        <time>2017-05-05T12:31:56.000Z</time>
        <extensions>
          <ns3:TrackPointExtension>
            <ns3:hr>156</ns3:hr>
          </ns3:TrackPointExtension>
        </extensions>
      </trkpt>
      <trkpt lat="46.81314923800528049468994140625" lon="6.77926694042980670928955078125">
        <ele>429.399993896484375</ele>
        <time>2017-05-05T12:31:57.000Z</time>
        <extensions>
          <ns3:TrackPointExtension>
            <ns3:hr>156</ns3:hr>
          </ns3:TrackPointExtension>
        </extensions>
      </trkpt>
      <trkpt lat="46.8130158819258213043212890625" lon="6.77848725579679012298583984375">
        <ele>429.20001220703125</ele>
        <time>2017-05-05T12:32:06.000Z</time>
        <extensions>
          <ns3:TrackPointExtension>
            <ns3:hr>155</ns3:hr>
          </ns3:TrackPointExtension>
        </extensions>
      </trkpt>
      <trkpt lat="46.8125736527144908905029296875" lon="6.77788744680583477020263671875">
        <ele>429.20001220703125</ele>
        <time>2017-05-05T12:32:15.000Z</time>
        <extensions>
          <ns3:TrackPointExtension>
            <ns3:hr>154</ns3:hr>
          </ns3:TrackPointExtension>
        </extensions>
      </trkpt>
      <trkpt lat="46.81218967773020267486572265625" lon="6.7773405276238918304443359375">
        <ele>429.399993896484375</ele>
        <time>2017-05-05T12:32:23.000Z</time>
        <extensions>
          <ns3:TrackPointExtension>
            <ns3:hr>151</ns3:hr>
          </ns3:TrackPointExtension>
        </extensions>
      </trkpt>
      <trkpt lat="46.81211306713521480560302734375" lon="6.77717699669301509857177734375">
        <ele>429.399993896484375</ele>
        <time>2017-05-05T12:32:25.000Z</time>
        <extensions>
          <ns3:TrackPointExtension>
            <ns3:hr>150</ns3:hr>
          </ns3:TrackPointExtension>
        </extensions>
      </trkpt>
      <trkpt lat="46.81206378154456615447998046875" lon="6.77699737250804901123046875">
        <ele>429.399993896484375</ele>
        <time>2017-05-05T12:32:27.000Z</time>
        <extensions>
          <ns3:TrackPointExtension>
            <ns3:hr>150</ns3:hr>
          </ns3:TrackPointExtension>
        </extensions>
      </trkpt>
      <trkpt lat="46.81204785592854022979736328125" lon="6.776804588735103607177734375">
        <ele>429.399993896484375</ele>
        <time>2017-05-05T12:32:29.000Z</time>
        <extensions>
          <ns3:TrackPointExtension>
            <ns3:hr>149</ns3:hr>
          </ns3:TrackPointExtension>
        </extensions>
      </trkpt>
      <trkpt lat="46.81201734580099582672119140625" lon="6.77634517662227153778076171875">
        <ele>429.399993896484375</ele>
        <time>2017-05-05T12:32:34.000Z</time>
        <extensions>
          <ns3:TrackPointExtension>
            <ns3:hr>151</ns3:hr>
          </ns3:TrackPointExtension>
        </extensions>
      </trkpt>
      <trkpt lat="46.811969988048076629638671875" lon="6.77619044668972492218017578125">
        <ele>429.399993896484375</ele>
        <time>2017-05-05T12:32:36.000Z</time>
        <extensions>
          <ns3:TrackPointExtension>
            <ns3:hr>151</ns3:hr>
          </ns3:TrackPointExtension>
        </extensions>
      </trkpt>
      <trkpt lat="46.811690367758274078369140625" lon="6.77579431794583797454833984375">
        <ele>429.399993896484375</ele>
        <time>2017-05-05T12:32:42.000Z</time>
        <extensions>
          <ns3:TrackPointExtension>
            <ns3:hr>148</ns3:hr>
          </ns3:TrackPointExtension>
        </extensions>
      </trkpt>
      <trkpt lat="46.81120254099369049072265625" lon="6.77545853890478610992431640625">
        <ele>429.600006103515625</ele>
        <time>2017-05-05T12:32:50.000Z</time>
        <extensions>
          <ns3:TrackPointExtension>
            <ns3:hr>148</ns3:hr>
          </ns3:TrackPointExtension>
        </extensions>
      </trkpt>
      <trkpt lat="46.8106800131499767303466796875" lon="6.7752628214657306671142578125">
        <ele>429.399993896484375</ele>
        <time>2017-05-05T12:32:58.000Z</time>
        <extensions>
          <ns3:TrackPointExtension>
            <ns3:hr>150</ns3:hr>
          </ns3:TrackPointExtension>
        </extensions>
      </trkpt>
      <trkpt lat="46.810191012918949127197265625" lon="6.77480123005807399749755859375">
        <ele>429.600006103515625</ele>
        <time>2017-05-05T12:33:07.000Z</time>
        <extensions>
          <ns3:TrackPointExtension>
            <ns3:hr>148</ns3:hr>
          </ns3:TrackPointExtension>
        </extensions>
      </trkpt>
      <trkpt lat="46.8100382946431636810302734375" lon="6.77462236024439334869384765625">
        <ele>429.600006103515625</ele>
        <time>2017-05-05T12:33:10.000Z</time>
        <extensions>
          <ns3:TrackPointExtension>
            <ns3:hr>148</ns3:hr>
          </ns3:TrackPointExtension>
        </extensions>
      </trkpt>
      <trkpt lat="46.809780634939670562744140625" lon="6.77433167584240436553955078125">
        <ele>430.79998779296875</ele>
        <time>2017-05-05T12:33:15.000Z</time>
        <extensions>
          <ns3:TrackPointExtension>
            <ns3:hr>147</ns3:hr>
          </ns3:TrackPointExtension>
        </extensions>
      </trkpt>
      <trkpt lat="46.8092571012675762176513671875" lon="6.7739403247833251953125">
        <ele>431.20001220703125</ele>
        <time>2017-05-05T12:33:24.000Z</time>
        <extensions>
          <ns3:TrackPointExtension>
            <ns3:hr>146</ns3:hr>
          </ns3:TrackPointExtension>
        </extensions>
      </trkpt>
      <trkpt lat="46.808846555650234222412109375" lon="6.7734100855886936187744140625">
        <ele>430.399993896484375</ele>
        <time>2017-05-05T12:33:32.000Z</time>
        <extensions>
          <ns3:TrackPointExtension>
            <ns3:hr>149</ns3:hr>
          </ns3:TrackPointExtension>
        </extensions>
      </trkpt>
      <trkpt lat="46.808552183210849761962890625" lon="6.7729755677282810211181640625">
        <ele>430</ele>
        <time>2017-05-05T12:33:38.000Z</time>
        <extensions>
          <ns3:TrackPointExtension>
            <ns3:hr>152</ns3:hr>
          </ns3:TrackPointExtension>
        </extensions>
      </trkpt>
      <trkpt lat="46.80820726789534091949462890625" lon="6.77246435545384883880615234375">
        <ele>429.79998779296875</ele>
        <time>2017-05-05T12:33:45.000Z</time>
        <extensions>
          <ns3:TrackPointExtension>
            <ns3:hr>154</ns3:hr>
          </ns3:TrackPointExtension>
        </extensions>
      </trkpt>
      <trkpt lat="46.80791951715946197509765625" lon="6.772034950554370880126953125">
        <ele>429.79998779296875</ele>
        <time>2017-05-05T12:33:51.000Z</time>
        <extensions>
          <ns3:TrackPointExtension>
            <ns3:hr>157</ns3:hr>
          </ns3:TrackPointExtension>
        </extensions>
      </trkpt>
      <trkpt lat="46.807553060352802276611328125" lon="6.77147738635540008544921875">
        <ele>430.20001220703125</ele>
        <time>2017-05-05T12:33:59.000Z</time>
        <extensions>
          <ns3:TrackPointExtension>
            <ns3:hr>154</ns3:hr>
          </ns3:TrackPointExtension>
        </extensions>
      </trkpt>
      <trkpt lat="46.80715911090373992919921875" lon="6.77091152407228946685791015625">
        <ele>430.399993896484375</ele>
        <time>2017-05-05T12:34:08.000Z</time>
        <extensions>
          <ns3:TrackPointExtension>
            <ns3:hr>152</ns3:hr>
          </ns3:TrackPointExtension>
        </extensions>
      </trkpt>
      <trkpt lat="46.80697864852845668792724609375" lon="6.770638860762119293212890625">
        <ele>430.399993896484375</ele>
        <time>2017-05-05T12:34:12.000Z</time>
        <extensions>
          <ns3:TrackPointExtension>
            <ns3:hr>149</ns3:hr>
          </ns3:TrackPointExtension>
        </extensions>
      </trkpt>
      <trkpt lat="46.80677915923297405242919921875" lon="6.77027919329702854156494140625">
        <ele>430.20001220703125</ele>
        <time>2017-05-05T12:34:17.000Z</time>
        <extensions>
          <ns3:TrackPointExtension>
            <ns3:hr>149</ns3:hr>
          </ns3:TrackPointExtension>
        </extensions>
      </trkpt>
      <trkpt lat="46.80672216229140758514404296875" lon="6.77011356689035892486572265625">
        <ele>430.20001220703125</ele>
        <time>2017-05-05T12:34:19.000Z</time>
        <extensions>
          <ns3:TrackPointExtension>
            <ns3:hr>152</ns3:hr>
          </ns3:TrackPointExtension>
        </extensions>
      </trkpt>
      <trkpt lat="46.80653440766036510467529296875" lon="6.769559271633625030517578125">
        <ele>429.600006103515625</ele>
        <time>2017-05-05T12:34:26.000Z</time>
        <extensions>
          <ns3:TrackPointExtension>
            <ns3:hr>153</ns3:hr>
          </ns3:TrackPointExtension>
        </extensions>
      </trkpt>
      <trkpt lat="46.80648998357355594635009765625" lon="6.769457347691059112548828125">
        <ele>428.79998779296875</ele>
        <time>2017-05-05T12:34:39.000Z</time>
        <extensions>
          <ns3:TrackPointExtension>
            <ns3:hr>153</ns3:hr>
          </ns3:TrackPointExtension>
        </extensions>
      </trkpt>
      <trkpt lat="46.80647321976721286773681640625" lon="6.76944561302661895751953125">
        <ele>429</ele>
        <time>2017-05-05T12:35:14.000Z</time>
        <extensions>
          <ns3:TrackPointExtension>
            <ns3:hr>151</ns3:hr>
          </ns3:TrackPointExtension>
        </extensions>
      </trkpt>
      <trkpt lat="46.8060592375695705413818359375" lon="6.76886114291846752166748046875">
        <ele>429.79998779296875</ele>
        <time>2017-05-05T12:35:27.000Z</time>
        <extensions>
          <ns3:TrackPointExtension>
            <ns3:hr>149</ns3:hr>
          </ns3:TrackPointExtension>
        </extensions>
      </trkpt>
      <trkpt lat="46.80587659589946269989013671875" lon="6.7685914970934391021728515625">
        <ele>429.79998779296875</ele>
        <time>2017-05-05T12:35:31.000Z</time>
        <extensions>
          <ns3:TrackPointExtension>
            <ns3:hr>147</ns3:hr>
          </ns3:TrackPointExtension>
        </extensions>
      </trkpt>
      <trkpt lat="46.80561206303536891937255859375" lon="6.76816142164170742034912109375">
        <ele>429.79998779296875</ele>
        <time>2017-05-05T12:35:37.000Z</time>
        <extensions>
          <ns3:TrackPointExtension>
            <ns3:hr>150</ns3:hr>
          </ns3:TrackPointExtension>
        </extensions>
      </trkpt>
      <trkpt lat="46.8053450994193553924560546875" lon="6.7677390575408935546875">
        <ele>429.399993896484375</ele>
        <time>2017-05-05T12:35:43.000Z</time>
        <extensions>
          <ns3:TrackPointExtension>
            <ns3:hr>153</ns3:hr>
          </ns3:TrackPointExtension>
        </extensions>
      </trkpt>
      <trkpt lat="46.80516497232019901275634765625" lon="6.76744812168180942535400390625">
        <ele>429.20001220703125</ele>
        <time>2017-05-05T12:35:47.000Z</time>
        <extensions>
          <ns3:TrackPointExtension>
            <ns3:hr>150</ns3:hr>
          </ns3:TrackPointExtension>
        </extensions>
      </trkpt>
      <trkpt lat="46.8051184527575969696044921875" lon="6.767376959323883056640625">
        <ele>429.20001220703125</ele>
        <time>2017-05-05T12:35:48.000Z</time>
        <extensions>
          <ns3:TrackPointExtension>
            <ns3:hr>147</ns3:hr>
          </ns3:TrackPointExtension>
        </extensions>
      </trkpt>
      <trkpt lat="46.80507176555693149566650390625" lon="6.7673057131469249725341796875">
        <ele>429.20001220703125</ele>
        <time>2017-05-05T12:35:49.000Z</time>
        <extensions>
          <ns3:TrackPointExtension>
            <ns3:hr>143</ns3:hr>
          </ns3:TrackPointExtension>
        </extensions>
      </trkpt>
      <trkpt lat="46.805025078356266021728515625" lon="6.7672383226454257965087890625">
        <ele>429.20001220703125</ele>
        <time>2017-05-05T12:35:50.000Z</time>
        <extensions>
          <ns3:TrackPointExtension>
            <ns3:hr>140</ns3:hr>
          </ns3:TrackPointExtension>
        </extensions>
      </trkpt>
      <trkpt lat="46.80489272810518741607666015625" lon="6.76703673787415027618408203125">
        <ele>429.20001220703125</ele>
        <time>2017-05-05T12:35:53.000Z</time>
        <extensions>
          <ns3:TrackPointExtension>
            <ns3:hr>144</ns3:hr>
          </ns3:TrackPointExtension>
        </extensions>
      </trkpt>
      <trkpt lat="46.8048088252544403076171875" lon="6.76690279506146907806396484375">
        <ele>429.20001220703125</ele>
        <time>2017-05-05T12:35:55.000Z</time>
        <extensions>
          <ns3:TrackPointExtension>
            <ns3:hr>144</ns3:hr>
          </ns3:TrackPointExtension>
        </extensions>
      </trkpt>
      <trkpt lat="46.8046237528324127197265625" lon="6.766636334359645843505859375">
        <ele>428.79998779296875</ele>
        <time>2017-05-05T12:35:59.000Z</time>
        <extensions>
          <ns3:TrackPointExtension>
            <ns3:hr>143</ns3:hr>
          </ns3:TrackPointExtension>
        </extensions>
      </trkpt>
      <trkpt lat="46.80425084196031093597412109375" lon="6.76600760780274868011474609375">
        <ele>428.600006103515625</ele>
        <time>2017-05-05T12:36:07.000Z</time>
        <extensions>
          <ns3:TrackPointExtension>
            <ns3:hr>144</ns3:hr>
          </ns3:TrackPointExtension>
        </extensions>
      </trkpt>
      <trkpt lat="46.80407188832759857177734375" lon="6.765708290040493011474609375">
        <ele>429</ele>
        <time>2017-05-05T12:36:11.000Z</time>
        <extensions>
          <ns3:TrackPointExtension>
            <ns3:hr>148</ns3:hr>
          </ns3:TrackPointExtension>
        </extensions>
      </trkpt>
      <trkpt lat="46.803670562803745269775390625" lon="6.76506950519979000091552734375">
        <ele>429.20001220703125</ele>
        <time>2017-05-05T12:36:20.000Z</time>
        <extensions>
          <ns3:TrackPointExtension>
            <ns3:hr>149</ns3:hr>
          </ns3:TrackPointExtension>
        </extensions>
      </trkpt>
      <trkpt lat="46.803266890347003936767578125" lon="6.76444471813738346099853515625">
        <ele>429.20001220703125</ele>
        <time>2017-05-05T12:36:29.000Z</time>
        <extensions>
          <ns3:TrackPointExtension>
            <ns3:hr>151</ns3:hr>
          </ns3:TrackPointExtension>
        </extensions>
      </trkpt>
      <trkpt lat="46.80322858504951000213623046875" lon="6.76438151858747005462646484375">
        <ele>429.20001220703125</ele>
        <time>2017-05-05T12:36:30.000Z</time>
        <extensions>
          <ns3:TrackPointExtension>
            <ns3:hr>157</ns3:hr>
          </ns3:TrackPointExtension>
        </extensions>
      </trkpt>
      <trkpt lat="46.80319086648523807525634765625" lon="6.7643178999423980712890625">
        <ele>429.20001220703125</ele>
        <time>2017-05-05T12:36:31.000Z</time>
        <extensions>
          <ns3:TrackPointExtension>
            <ns3:hr>161</ns3:hr>
          </ns3:TrackPointExtension>
        </extensions>
      </trkpt>
      <trkpt lat="46.80287956260144710540771484375" lon="6.76380903460085391998291015625">
        <ele>429.79998779296875</ele>
        <time>2017-05-05T12:36:39.000Z</time>
        <extensions>
          <ns3:TrackPointExtension>
            <ns3:hr>159</ns3:hr>
          </ns3:TrackPointExtension>
        </extensions>
      </trkpt>
      <trkpt lat="46.80246658623218536376953125" lon="6.76319514401257038116455078125">
        <ele>430</ele>
        <time>2017-05-05T12:36:47.000Z</time>
        <extensions>
          <ns3:TrackPointExtension>
            <ns3:hr>159</ns3:hr>
          </ns3:TrackPointExtension>
        </extensions>
      </trkpt>
      <trkpt lat="46.80209250189363956451416015625" lon="6.7626064829528331756591796875">
        <ele>429.20001220703125</ele>
        <time>2017-05-05T12:36:55.000Z</time>
        <extensions>
          <ns3:TrackPointExtension>
            <ns3:hr>161</ns3:hr>
          </ns3:TrackPointExtension>
        </extensions>
      </trkpt>
      <trkpt lat="46.80195570923388004302978515625" lon="6.76240171305835247039794921875">
        <ele>428.79998779296875</ele>
        <time>2017-05-05T12:36:58.000Z</time>
        <extensions>
          <ns3:TrackPointExtension>
            <ns3:hr>161</ns3:hr>
          </ns3:TrackPointExtension>
        </extensions>
      </trkpt>
      <trkpt lat="46.80173375643789768218994140625" lon="6.762044392526149749755859375">
        <ele>428.79998779296875</ele>
        <time>2017-05-05T12:37:03.000Z</time>
        <extensions>
          <ns3:TrackPointExtension>
            <ns3:hr>158</ns3:hr>
          </ns3:TrackPointExtension>
        </extensions>
      </trkpt>
      <trkpt lat="46.80134533904492855072021484375" lon="6.76139337010681629180908203125">
        <ele>429</ele>
        <time>2017-05-05T12:37:12.000Z</time>
        <extensions>
          <ns3:TrackPointExtension>
            <ns3:hr>159</ns3:hr>
          </ns3:TrackPointExtension>
        </extensions>
      </trkpt>
      <trkpt lat="46.80109404958784580230712890625" lon="6.7609455250203609466552734375">
        <ele>429.20001220703125</ele>
        <time>2017-05-05T12:37:18.000Z</time>
        <extensions>
          <ns3:TrackPointExtension>
            <ns3:hr>156</ns3:hr>
          </ns3:TrackPointExtension>
        </extensions>
      </trkpt>
      <trkpt lat="46.800725162029266357421875" lon="6.7602639086544513702392578125">
        <ele>429.399993896484375</ele>
        <time>2017-05-05T12:37:27.000Z</time>
        <extensions>
          <ns3:TrackPointExtension>
            <ns3:hr>155</ns3:hr>
          </ns3:TrackPointExtension>
        </extensions>
      </trkpt>
      <trkpt lat="46.8003786541521549224853515625" lon="6.7596131376922130584716796875">
        <ele>429.399993896484375</ele>
        <time>2017-05-05T12:37:36.000Z</time>
        <extensions>
          <ns3:TrackPointExtension>
            <ns3:hr>156</ns3:hr>
          </ns3:TrackPointExtension>
        </extensions>
      </trkpt>
      <trkpt lat="46.80005888454616069793701171875" lon="6.75892070867121219635009765625">
        <ele>429.399993896484375</ele>
        <time>2017-05-05T12:37:45.000Z</time>
        <extensions>
          <ns3:TrackPointExtension>
            <ns3:hr>155</ns3:hr>
          </ns3:TrackPointExtension>
        </extensions>
      </trkpt>
      <trkpt lat="46.79987967945635318756103515625" lon="6.75852240063250064849853515625">
        <ele>429.399993896484375</ele>
        <time>2017-05-05T12:37:50.000Z</time>
        <extensions>
          <ns3:TrackPointExtension>
            <ns3:hr>158</ns3:hr>
          </ns3:TrackPointExtension>
        </extensions>
      </trkpt>
      <trkpt lat="46.79978429339826107025146484375" lon="6.75826507620513439178466796875">
        <ele>429.399993896484375</ele>
        <time>2017-05-05T12:37:53.000Z</time>
        <extensions>
          <ns3:TrackPointExtension>
            <ns3:hr>158</ns3:hr>
          </ns3:TrackPointExtension>
        </extensions>
      </trkpt>
      <trkpt lat="46.7996366880834102630615234375" lon="6.7576477490365505218505859375">
        <ele>429.20001220703125</ele>
        <time>2017-05-05T12:38:00.000Z</time>
        <extensions>
          <ns3:TrackPointExtension>
            <ns3:hr>156</ns3:hr>
          </ns3:TrackPointExtension>
        </extensions>
      </trkpt>
      <trkpt lat="46.79963015019893646240234375" lon="6.757192946970462799072265625">
        <ele>429.399993896484375</ele>
        <time>2017-05-05T12:38:05.000Z</time>
        <extensions>
          <ns3:TrackPointExtension>
            <ns3:hr>153</ns3:hr>
          </ns3:TrackPointExtension>
        </extensions>
      </trkpt>
      <trkpt lat="46.79964381270110607147216796875" lon="6.75669833086431026458740234375">
        <ele>429.79998779296875</ele>
        <time>2017-05-05T12:38:10.000Z</time>
        <extensions>
          <ns3:TrackPointExtension>
            <ns3:hr>156</ns3:hr>
          </ns3:TrackPointExtension>
        </extensions>
      </trkpt>
      <trkpt lat="46.79967063479125499725341796875" lon="6.7558300495147705078125">
        <ele>429.79998779296875</ele>
        <time>2017-05-05T12:38:19.000Z</time>
        <extensions>
          <ns3:TrackPointExtension>
            <ns3:hr>158</ns3:hr>
          </ns3:TrackPointExtension>
        </extensions>
      </trkpt>
      <trkpt lat="46.799706928431987762451171875" lon="6.755162514746189117431640625">
        <ele>429.600006103515625</ele>
        <time>2017-05-05T12:38:26.000Z</time>
        <extensions>
          <ns3:TrackPointExtension>
            <ns3:hr>161</ns3:hr>
          </ns3:TrackPointExtension>
        </extensions>
      </trkpt>
      <trkpt lat="46.7997818626463413238525390625" lon="6.75431669689714908599853515625">
        <ele>429.399993896484375</ele>
        <time>2017-05-05T12:38:35.000Z</time>
        <extensions>
          <ns3:TrackPointExtension>
            <ns3:hr>160</ns3:hr>
          </ns3:TrackPointExtension>
        </extensions>
      </trkpt>
      <trkpt lat="46.79979904554784297943115234375" lon="6.75412726588547229766845703125">
        <ele>429.399993896484375</ele>
        <time>2017-05-05T12:38:37.000Z</time>
        <extensions>
          <ns3:TrackPointExtension>
            <ns3:hr>157</ns3:hr>
          </ns3:TrackPointExtension>
        </extensions>
      </trkpt>
      <trkpt lat="46.79991739802062511444091796875" lon="6.75326225347816944122314453125">
        <ele>429</ele>
        <time>2017-05-05T12:38:46.000Z</time>
        <extensions>
          <ns3:TrackPointExtension>
            <ns3:hr>156</ns3:hr>
          </ns3:TrackPointExtension>
        </extensions>
      </trkpt>
      <trkpt lat="46.80005536414682865142822265625" lon="6.752406544983386993408203125">
        <ele>429</ele>
        <time>2017-05-05T12:38:55.000Z</time>
        <extensions>
          <ns3:TrackPointExtension>
            <ns3:hr>157</ns3:hr>
          </ns3:TrackPointExtension>
        </extensions>
      </trkpt>
      <trkpt lat="46.8001042306423187255859375" lon="6.75212600268423557281494140625">
        <ele>429</ele>
        <time>2017-05-05T12:38:58.000Z</time>
        <extensions>
          <ns3:TrackPointExtension>
            <ns3:hr>160</ns3:hr>
          </ns3:TrackPointExtension>
        </extensions>
      </trkpt>
      <trkpt lat="46.8002717010676860809326171875" lon="6.75129602663218975067138671875">
        <ele>429</ele>
        <time>2017-05-05T12:39:07.000Z</time>
        <extensions>
          <ns3:TrackPointExtension>
            <ns3:hr>160</ns3:hr>
          </ns3:TrackPointExtension>
        </extensions>
      </trkpt>
      <trkpt lat="46.8004956655204296112060546875" lon="6.75052941776812076568603515625">
        <ele>429.399993896484375</ele>
        <time>2017-05-05T12:39:16.000Z</time>
        <extensions>
          <ns3:TrackPointExtension>
            <ns3:hr>161</ns3:hr>
          </ns3:TrackPointExtension>
        </extensions>
      </trkpt>
      <trkpt lat="46.80055744014680385589599609375" lon="6.7502602748572826385498046875">
        <ele>429.399993896484375</ele>
        <time>2017-05-05T12:39:19.000Z</time>
        <extensions>
          <ns3:TrackPointExtension>
            <ns3:hr>157</ns3:hr>
          </ns3:TrackPointExtension>
        </extensions>
      </trkpt>
      <trkpt lat="46.80075240321457386016845703125" lon="6.7495709471404552459716796875">
        <ele>429.79998779296875</ele>
        <time>2017-05-05T12:39:27.000Z</time>
        <extensions>
          <ns3:TrackPointExtension>
            <ns3:hr>157</ns3:hr>
          </ns3:TrackPointExtension>
        </extensions>
      </trkpt>
      <trkpt lat="46.80096924304962158203125" lon="6.7488306574523448944091796875">
        <ele>429.79998779296875</ele>
        <time>2017-05-05T12:39:36.000Z</time>
        <extensions>
          <ns3:TrackPointExtension>
            <ns3:hr>159</ns3:hr>
          </ns3:TrackPointExtension>
        </extensions>
      </trkpt>
      <trkpt lat="46.80120955221354961395263671875" lon="6.748050637543201446533203125">
        <ele>429.600006103515625</ele>
        <time>2017-05-05T12:39:45.000Z</time>
        <extensions>
          <ns3:TrackPointExtension>
            <ns3:hr>157</ns3:hr>
          </ns3:TrackPointExtension>
        </extensions>
      </trkpt>
      <trkpt lat="46.8013943731784820556640625" lon="6.74744873307645320892333984375">
        <ele>429.399993896484375</ele>
        <time>2017-05-05T12:39:52.000Z</time>
        <extensions>
          <ns3:TrackPointExtension>
            <ns3:hr>154</ns3:hr>
          </ns3:TrackPointExtension>
        </extensions>
      </trkpt>
      <trkpt lat="46.80162445642054080963134765625" lon="6.7467023245990276336669921875">
        <ele>429.79998779296875</ele>
        <time>2017-05-05T12:40:01.000Z</time>
        <extensions>
          <ns3:TrackPointExtension>
            <ns3:hr>152</ns3:hr>
          </ns3:TrackPointExtension>
        </extensions>
      </trkpt>
      <trkpt lat="46.80173576809465885162353515625" lon="6.7463784478604793548583984375">
        <ele>430</ele>
        <time>2017-05-05T12:40:05.000Z</time>
        <extensions>
          <ns3:TrackPointExtension>
            <ns3:hr>155</ns3:hr>
          </ns3:TrackPointExtension>
        </extensions>
      </trkpt>
      <trkpt lat="46.80193844251334667205810546875" lon="6.74573714844882488250732421875">
        <ele>430</ele>
        <time>2017-05-05T12:40:13.000Z</time>
        <extensions>
          <ns3:TrackPointExtension>
            <ns3:hr>158</ns3:hr>
          </ns3:TrackPointExtension>
        </extensions>
      </trkpt>
      <trkpt lat="46.801991499960422515869140625" lon="6.74547026865184307098388671875">
        <ele>429.79998779296875</ele>
        <time>2017-05-05T12:40:16.000Z</time>
        <extensions>
          <ns3:TrackPointExtension>
            <ns3:hr>159</ns3:hr>
          </ns3:TrackPointExtension>
        </extensions>
      </trkpt>
      <trkpt lat="46.8019402027130126953125" lon="6.7453022114932537078857421875">
        <ele>429.600006103515625</ele>
        <time>2017-05-05T12:40:18.000Z</time>
        <extensions>
          <ns3:TrackPointExtension>
            <ns3:hr>158</ns3:hr>
          </ns3:TrackPointExtension>
        </extensions>
      </trkpt>
      <trkpt lat="46.80179242976009845733642578125" lon="6.7451959289610385894775390625">
        <ele>429.600006103515625</ele>
        <time>2017-05-05T12:40:22.000Z</time>
        <extensions>
          <ns3:TrackPointExtension>
            <ns3:hr>157</ns3:hr>
          </ns3:TrackPointExtension>
        </extensions>
      </trkpt>
      <trkpt lat="46.8018039129674434661865234375" lon="6.7452391795814037322998046875">
        <ele>429.600006103515625</ele>
        <time>2017-05-05T12:40:24.000Z</time>
        <extensions>
          <ns3:TrackPointExtension>
            <ns3:hr>157</ns3:hr>
          </ns3:TrackPointExtension>
        </extensions>
      </trkpt>
      <trkpt lat="46.8019018135964870452880859375" lon="6.7452795803546905517578125">
        <ele>429.600006103515625</ele>
        <time>2017-05-05T12:40:26.000Z</time>
        <extensions>
          <ns3:TrackPointExtension>
            <ns3:hr>158</ns3:hr>
          </ns3:TrackPointExtension>
        </extensions>
      </trkpt>
      <trkpt lat="46.8020080961287021636962890625" lon="6.7453479766845703125">
        <ele>429.79998779296875</ele>
        <time>2017-05-05T12:40:28.000Z</time>
        <extensions>
          <ns3:TrackPointExtension>
            <ns3:hr>158</ns3:hr>
          </ns3:TrackPointExtension>
        </extensions>
      </trkpt>
      <trkpt lat="46.8024885468184947967529296875" lon="6.74585080705583095550537109375">
        <ele>429.399993896484375</ele>
        <time>2017-05-05T12:40:38.000Z</time>
        <extensions>
          <ns3:TrackPointExtension>
            <ns3:hr>157</ns3:hr>
          </ns3:TrackPointExtension>
        </extensions>
      </trkpt>
      <trkpt lat="46.8026920594274997711181640625" lon="6.74599966965615749359130859375">
        <ele>428.600006103515625</ele>
        <time>2017-05-05T12:40:42.000Z</time>
        <extensions>
          <ns3:TrackPointExtension>
            <ns3:hr>157</ns3:hr>
          </ns3:TrackPointExtension>
        </extensions>
      </trkpt>
      <trkpt lat="46.8028352223336696624755859375" lon="6.74607326276600360870361328125">
        <ele>428.600006103515625</ele>
        <time>2017-05-05T12:40:45.000Z</time>
        <extensions>
          <ns3:TrackPointExtension>
            <ns3:hr>158</ns3:hr>
          </ns3:TrackPointExtension>
        </extensions>
      </trkpt>
      <trkpt lat="46.803284995257854461669921875" lon="6.746305860579013824462890625">
        <ele>427.79998779296875</ele>
        <time>2017-05-05T12:40:55.000Z</time>
        <extensions>
          <ns3:TrackPointExtension>
            <ns3:hr>159</ns3:hr>
          </ns3:TrackPointExtension>
        </extensions>
      </trkpt>
      <trkpt lat="46.8033505417406558990478515625" lon="6.746247522532939910888671875">
        <ele>427.600006103515625</ele>
        <time>2017-05-05T12:41:20.000Z</time>
        <extensions>
          <ns3:TrackPointExtension>
            <ns3:hr>160</ns3:hr>
          </ns3:TrackPointExtension>
        </extensions>
      </trkpt>
      <trkpt lat="46.8033505417406558990478515625" lon="6.746247522532939910888671875">
        <ele>427.79998779296875</ele>
        <time>2017-05-05T12:41:33.000Z</time>
        <extensions>
          <ns3:TrackPointExtension>
            <ns3:hr>157</ns3:hr>
          </ns3:TrackPointExtension>
        </extensions>
      </trkpt>
      <trkpt lat="46.80334995500743389129638671875" lon="6.7462478578090667724609375">
        <ele>427.79998779296875</ele>
        <time>2017-05-05T12:41:38.000Z</time>
        <extensions>
          <ns3:TrackPointExtension>
            <ns3:hr>154</ns3:hr>
          </ns3:TrackPointExtension>
        </extensions>
      </trkpt>
      <trkpt lat="46.80334995500743389129638671875" lon="6.7462478578090667724609375">
        <ele>428</ele>
        <time>2017-05-05T12:41:42.000Z</time>
        <extensions>
          <ns3:TrackPointExtension>
            <ns3:hr>151</ns3:hr>
          </ns3:TrackPointExtension>
        </extensions>
      </trkpt>
      <trkpt lat="46.80334542877972126007080078125" lon="6.7462473548948764801025390625">
        <ele>428.399993896484375</ele>
        <time>2017-05-05T12:41:59.000Z</time>
        <extensions>
          <ns3:TrackPointExtension>
            <ns3:hr>148</ns3:hr>
          </ns3:TrackPointExtension>
        </extensions>
      </trkpt>
      <trkpt lat="46.80334542877972126007080078125" lon="6.7462473548948764801025390625">
        <ele>428.600006103515625</ele>
        <time>2017-05-05T12:42:03.000Z</time>
        <extensions>
          <ns3:TrackPointExtension>
            <ns3:hr>143</ns3:hr>
          </ns3:TrackPointExtension>
        </extensions>
      </trkpt>
      <trkpt lat="46.80334542877972126007080078125" lon="6.7462473548948764801025390625">
        <ele>428.600006103515625</ele>
        <time>2017-05-05T12:42:04.000Z</time>
        <extensions>
          <ns3:TrackPointExtension>
            <ns3:hr>139</ns3:hr>
          </ns3:TrackPointExtension>
        </extensions>
      </trkpt>
      <trkpt lat="46.80334542877972126007080078125" lon="6.7462473548948764801025390625">
        <ele>428.600006103515625</ele>
        <time>2017-05-05T12:42:06.000Z</time>
        <extensions>
          <ns3:TrackPointExtension>
            <ns3:hr>136</ns3:hr>
          </ns3:TrackPointExtension>
        </extensions>
      </trkpt>
      <trkpt lat="46.80334542877972126007080078125" lon="6.7462473548948764801025390625">
        <ele>428.600006103515625</ele>
        <time>2017-05-05T12:42:08.000Z</time>
        <extensions>
          <ns3:TrackPointExtension>
            <ns3:hr>139</ns3:hr>
          </ns3:TrackPointExtension>
        </extensions>
      </trkpt>
      <trkpt lat="46.80334542877972126007080078125" lon="6.7462473548948764801025390625">
        <ele>428.600006103515625</ele>
        <time>2017-05-05T12:42:09.000Z</time>
        <extensions>
          <ns3:TrackPointExtension>
            <ns3:hr>145</ns3:hr>
          </ns3:TrackPointExtension>
        </extensions>
      </trkpt>
      <trkpt lat="46.80334542877972126007080078125" lon="6.7462473548948764801025390625">
        <ele>428.600006103515625</ele>
        <time>2017-05-05T12:42:12.000Z</time>
        <extensions>
          <ns3:TrackPointExtension>
            <ns3:hr>149</ns3:hr>
          </ns3:TrackPointExtension>
        </extensions>
      </trkpt>
      <trkpt lat="46.80334006436169147491455078125" lon="6.7462520487606525421142578125">
        <ele>428.399993896484375</ele>
        <time>2017-05-05T12:42:15.000Z</time>
        <extensions>
          <ns3:TrackPointExtension>
            <ns3:hr>146</ns3:hr>
          </ns3:TrackPointExtension>
        </extensions>
      </trkpt>
      <trkpt lat="46.80327652953565120697021484375" lon="6.74622011370956897735595703125">
        <ele>428.20001220703125</ele>
        <time>2017-05-05T12:42:20.000Z</time>
        <extensions>
          <ns3:TrackPointExtension>
            <ns3:hr>146</ns3:hr>
          </ns3:TrackPointExtension>
        </extensions>
      </trkpt>
      <trkpt lat="46.8028097413480281829833984375" lon="6.7459144257009029388427734375">
        <ele>428</ele>
        <time>2017-05-05T12:42:32.000Z</time>
        <extensions>
          <ns3:TrackPointExtension>
            <ns3:hr>147</ns3:hr>
          </ns3:TrackPointExtension>
        </extensions>
      </trkpt>
      <trkpt lat="46.8023894727230072021484375" lon="6.74562751315534114837646484375">
        <ele>427.79998779296875</ele>
        <time>2017-05-05T12:42:41.000Z</time>
        <extensions>
          <ns3:TrackPointExtension>
            <ns3:hr>147</ns3:hr>
          </ns3:TrackPointExtension>
        </extensions>
      </trkpt>
      <trkpt lat="46.80217615328729152679443359375" lon="6.745464988052845001220703125">
        <ele>427.79998779296875</ele>
        <time>2017-05-05T12:42:46.000Z</time>
        <extensions>
          <ns3:TrackPointExtension>
            <ns3:hr>144</ns3:hr>
          </ns3:TrackPointExtension>
        </extensions>
      </trkpt>
      <trkpt lat="46.8018468283116817474365234375" lon="6.7452147044241428375244140625">
        <ele>428.79998779296875</ele>
        <time>2017-05-05T12:42:54.000Z</time>
        <extensions>
          <ns3:TrackPointExtension>
            <ns3:hr>144</ns3:hr>
          </ns3:TrackPointExtension>
        </extensions>
      </trkpt>
      <trkpt lat="46.8016215227544307708740234375" lon="6.7450903169810771942138671875">
        <ele>429.79998779296875</ele>
        <time>2017-05-05T12:42:59.000Z</time>
        <extensions>
          <ns3:TrackPointExtension>
            <ns3:hr>141</ns3:hr>
          </ns3:TrackPointExtension>
        </extensions>
      </trkpt>
      <trkpt lat="46.8015776015818119049072265625" lon="6.7450584657490253448486328125">
        <ele>430</ele>
        <time>2017-05-05T12:43:00.000Z</time>
        <extensions>
          <ns3:TrackPointExtension>
            <ns3:hr>141</ns3:hr>
          </ns3:TrackPointExtension>
        </extensions>
      </trkpt>
      <trkpt lat="46.801441647112369537353515625" lon="6.7449568770825862884521484375">
        <ele>430.399993896484375</ele>
        <time>2017-05-05T12:43:03.000Z</time>
        <extensions>
          <ns3:TrackPointExtension>
            <ns3:hr>144</ns3:hr>
          </ns3:TrackPointExtension>
        </extensions>
      </trkpt>
      <trkpt lat="46.80126353166997432708740234375" lon="6.744842045009136199951171875">
        <ele>431</ele>
        <time>2017-05-05T12:43:07.000Z</time>
        <extensions>
          <ns3:TrackPointExtension>
            <ns3:hr>148</ns3:hr>
          </ns3:TrackPointExtension>
        </extensions>
      </trkpt>
      <trkpt lat="46.8011266551911830902099609375" lon="6.74473701976239681243896484375">
        <ele>431.20001220703125</ele>
        <time>2017-05-05T12:43:10.000Z</time>
        <extensions>
          <ns3:TrackPointExtension>
            <ns3:hr>153</ns3:hr>
          </ns3:TrackPointExtension>
        </extensions>
      </trkpt>
      <trkpt lat="46.8007451109588146209716796875" lon="6.7443962953984737396240234375">
        <ele>432</ele>
        <time>2017-05-05T12:43:18.000Z</time>
        <extensions>
          <ns3:TrackPointExtension>
            <ns3:hr>152</ns3:hr>
          </ns3:TrackPointExtension>
        </extensions>
      </trkpt>
      <trkpt lat="46.80064410902559757232666015625" lon="6.7443285696208477020263671875">
        <ele>432.399993896484375</ele>
        <time>2017-05-05T12:43:20.000Z</time>
        <extensions>
          <ns3:TrackPointExtension>
            <ns3:hr>149</ns3:hr>
          </ns3:TrackPointExtension>
        </extensions>
      </trkpt>
      <trkpt lat="46.80054604075849056243896484375" lon="6.74425656907260417938232421875">
        <ele>432.399993896484375</ele>
        <time>2017-05-05T12:43:22.000Z</time>
        <extensions>
          <ns3:TrackPointExtension>
            <ns3:hr>146</ns3:hr>
          </ns3:TrackPointExtension>
        </extensions>
      </trkpt>
      <trkpt lat="46.80045585148036479949951171875" lon="6.7441743426024913787841796875">
        <ele>432.399993896484375</ele>
        <time>2017-05-05T12:43:24.000Z</time>
        <extensions>
          <ns3:TrackPointExtension>
            <ns3:hr>141</ns3:hr>
          </ns3:TrackPointExtension>
        </extensions>
      </trkpt>
      <trkpt lat="46.8003172986209392547607421875" lon="6.74406060017645359039306640625">
        <ele>432.600006103515625</ele>
        <time>2017-05-05T12:43:27.000Z</time>
        <extensions>
          <ns3:TrackPointExtension>
            <ns3:hr>138</ns3:hr>
          </ns3:TrackPointExtension>
        </extensions>
      </trkpt>
      <trkpt lat="46.800184361636638641357421875" lon="6.7439557425677776336669921875">
        <ele>432.79998779296875</ele>
        <time>2017-05-05T12:43:30.000Z</time>
        <extensions>
          <ns3:TrackPointExtension>
            <ns3:hr>141</ns3:hr>
          </ns3:TrackPointExtension>
        </extensions>
      </trkpt>
      <trkpt lat="46.8001121096312999725341796875" lon="6.7439252324402332305908203125">
        <ele>432.79998779296875</ele>
        <time>2017-05-05T12:43:32.000Z</time>
        <extensions>
          <ns3:TrackPointExtension>
            <ns3:hr>149</ns3:hr>
          </ns3:TrackPointExtension>
        </extensions>
      </trkpt>
      <trkpt lat="46.80008386261761188507080078125" lon="6.74393051303923130035400390625">
        <ele>432.79998779296875</ele>
        <time>2017-05-05T12:43:33.000Z</time>
        <extensions>
          <ns3:TrackPointExtension>
            <ns3:hr>153</ns3:hr>
          </ns3:TrackPointExtension>
        </extensions>
      </trkpt>
      <trkpt lat="46.8000564537942409515380859375" lon="6.74395146779716014862060546875">
        <ele>432.79998779296875</ele>
        <time>2017-05-05T12:43:34.000Z</time>
        <extensions>
          <ns3:TrackPointExtension>
            <ns3:hr>158</ns3:hr>
          </ns3:TrackPointExtension>
        </extensions>
      </trkpt>
      <trkpt lat="46.80003155954182147979736328125" lon="6.74398206174373626708984375">
        <ele>433</ele>
        <time>2017-05-05T12:43:35.000Z</time>
        <extensions>
          <ns3:TrackPointExtension>
            <ns3:hr>158</ns3:hr>
          </ns3:TrackPointExtension>
        </extensions>
      </trkpt>
      <trkpt lat="46.8000031448900699615478515625" lon="6.744037382304668426513671875">
        <ele>433</ele>
        <time>2017-05-05T12:43:36.000Z</time>
        <extensions>
          <ns3:TrackPointExtension>
            <ns3:hr>156</ns3:hr>
          </ns3:TrackPointExtension>
        </extensions>
      </trkpt>
      <trkpt lat="46.79996081627905368804931640625" lon="6.7441659606993198394775390625">
        <ele>433.20001220703125</ele>
        <time>2017-05-05T12:43:38.000Z</time>
        <extensions>
          <ns3:TrackPointExtension>
            <ns3:hr>156</ns3:hr>
          </ns3:TrackPointExtension>
        </extensions>
      </trkpt>
      <trkpt lat="46.79987951181828975677490234375" lon="6.74445840530097484588623046875">
        <ele>433.20001220703125</ele>
        <time>2017-05-05T12:43:42.000Z</time>
        <extensions>
          <ns3:TrackPointExtension>
            <ns3:hr>159</ns3:hr>
          </ns3:TrackPointExtension>
        </extensions>
      </trkpt>
      <trkpt lat="46.79965839721262454986572265625" lon="6.7451831884682178497314453125">
        <ele>432.600006103515625</ele>
        <time>2017-05-05T12:43:51.000Z</time>
        <extensions>
          <ns3:TrackPointExtension>
            <ns3:hr>158</ns3:hr>
          </ns3:TrackPointExtension>
        </extensions>
      </trkpt>
      <trkpt lat="46.79958329536020755767822265625" lon="6.74540706910192966461181640625">
        <ele>432.399993896484375</ele>
        <time>2017-05-05T12:43:54.000Z</time>
        <extensions>
          <ns3:TrackPointExtension>
            <ns3:hr>157</ns3:hr>
          </ns3:TrackPointExtension>
        </extensions>
      </trkpt>
      <trkpt lat="46.79950006306171417236328125" lon="6.74551418982446193695068359375">
        <ele>432.20001220703125</ele>
        <time>2017-05-05T12:43:56.000Z</time>
        <extensions>
          <ns3:TrackPointExtension>
            <ns3:hr>157</ns3:hr>
          </ns3:TrackPointExtension>
        </extensions>
      </trkpt>
      <trkpt lat="46.7993919365108013153076171875" lon="6.745554842054843902587890625">
        <ele>432.20001220703125</ele>
        <time>2017-05-05T12:43:58.000Z</time>
        <extensions>
          <ns3:TrackPointExtension>
            <ns3:hr>156</ns3:hr>
          </ns3:TrackPointExtension>
        </extensions>
      </trkpt>
      <trkpt lat="46.79927903227508068084716796875" lon="6.7455196380615234375">
        <ele>432.20001220703125</ele>
        <time>2017-05-05T12:44:00.000Z</time>
        <extensions>
          <ns3:TrackPointExtension>
            <ns3:hr>156</ns3:hr>
          </ns3:TrackPointExtension>
        </extensions>
      </trkpt>
      <trkpt lat="46.79873789660632610321044921875" lon="6.7451999522745609283447265625">
        <ele>432.79998779296875</ele>
        <time>2017-05-05T12:44:10.000Z</time>
        <extensions>
          <ns3:TrackPointExtension>
            <ns3:hr>156</ns3:hr>
          </ns3:TrackPointExtension>
        </extensions>
      </trkpt>
      <trkpt lat="46.79858132265508174896240234375" lon="6.74511135555803775787353515625">
        <ele>433.20001220703125</ele>
        <time>2017-05-05T12:44:13.000Z</time>
        <extensions>
          <ns3:TrackPointExtension>
            <ns3:hr>156</ns3:hr>
          </ns3:TrackPointExtension>
        </extensions>
      </trkpt>
      <trkpt lat="46.79832450114190578460693359375" lon="6.74495042301714420318603515625">
        <ele>434</ele>
        <time>2017-05-05T12:44:18.000Z</time>
        <extensions>
          <ns3:TrackPointExtension>
            <ns3:hr>153</ns3:hr>
          </ns3:TrackPointExtension>
        </extensions>
      </trkpt>
      <trkpt lat="46.79823028855025768280029296875" lon="6.74488596618175506591796875">
        <ele>434.20001220703125</ele>
        <time>2017-05-05T12:44:20.000Z</time>
        <extensions>
          <ns3:TrackPointExtension>
            <ns3:hr>153</ns3:hr>
          </ns3:TrackPointExtension>
        </extensions>
      </trkpt>
      <trkpt lat="46.7978664301335811614990234375" lon="6.74465663731098175048828125">
        <ele>435.20001220703125</ele>
        <time>2017-05-05T12:44:29.000Z</time>
        <extensions>
          <ns3:TrackPointExtension>
            <ns3:hr>155</ns3:hr>
          </ns3:TrackPointExtension>
        </extensions>
      </trkpt>
      <trkpt lat="46.7973549664020538330078125" lon="6.7443470098078250885009765625">
        <ele>435.399993896484375</ele>
        <time>2017-05-05T12:44:38.000Z</time>
        <extensions>
          <ns3:TrackPointExtension>
            <ns3:hr>154</ns3:hr>
          </ns3:TrackPointExtension>
        </extensions>
      </trkpt>
      <trkpt lat="46.7967982403934001922607421875" lon="6.7441342771053314208984375">
        <ele>435.20001220703125</ele>
        <time>2017-05-05T12:44:46.000Z</time>
        <extensions>
          <ns3:TrackPointExtension>
            <ns3:hr>156</ns3:hr>
          </ns3:TrackPointExtension>
        </extensions>
      </trkpt>
      <trkpt lat="46.7962758801877498626708984375" lon="6.74378894269466400146484375">
        <ele>434.79998779296875</ele>
        <time>2017-05-05T12:44:54.000Z</time>
        <extensions>
          <ns3:TrackPointExtension>
            <ns3:hr>158</ns3:hr>
          </ns3:TrackPointExtension>
        </extensions>
      </trkpt>
      <trkpt lat="46.7958437092602252960205078125" lon="6.743287034332752227783203125">
        <ele>434.399993896484375</ele>
        <time>2017-05-05T12:45:02.000Z</time>
        <extensions>
          <ns3:TrackPointExtension>
            <ns3:hr>156</ns3:hr>
          </ns3:TrackPointExtension>
        </extensions>
      </trkpt>
      <trkpt lat="46.7954443953931331634521484375" lon="6.74275101162493228912353515625">
        <ele>434.399993896484375</ele>
        <time>2017-05-05T12:45:10.000Z</time>
        <extensions>
          <ns3:TrackPointExtension>
            <ns3:hr>154</ns3:hr>
          </ns3:TrackPointExtension>
        </extensions>
      </trkpt>
      <trkpt lat="46.79508506320416927337646484375" lon="6.74215924926102161407470703125">
        <ele>434.399993896484375</ele>
        <time>2017-05-05T12:45:18.000Z</time>
        <extensions>
          <ns3:TrackPointExtension>
            <ns3:hr>154</ns3:hr>
          </ns3:TrackPointExtension>
        </extensions>
      </trkpt>
      <trkpt lat="46.79473645985126495361328125" lon="6.741442345082759857177734375">
        <ele>434.399993896484375</ele>
        <time>2017-05-05T12:45:27.000Z</time>
        <extensions>
          <ns3:TrackPointExtension>
            <ns3:hr>152</ns3:hr>
          </ns3:TrackPointExtension>
        </extensions>
      </trkpt>
      <trkpt lat="46.794394813477993011474609375" lon="6.7407417856156826019287109375">
        <ele>435</ele>
        <time>2017-05-05T12:45:36.000Z</time>
        <extensions>
          <ns3:TrackPointExtension>
            <ns3:hr>150</ns3:hr>
          </ns3:TrackPointExtension>
        </extensions>
      </trkpt>
      <trkpt lat="46.7940647341310977935791015625" lon="6.74003728665411472320556640625">
        <ele>435.20001220703125</ele>
        <time>2017-05-05T12:45:45.000Z</time>
        <extensions>
          <ns3:TrackPointExtension>
            <ns3:hr>149</ns3:hr>
          </ns3:TrackPointExtension>
        </extensions>
      </trkpt>
      <trkpt lat="46.79376508109271526336669921875" lon="6.73936371691524982452392578125">
        <ele>435.399993896484375</ele>
        <time>2017-05-05T12:45:54.000Z</time>
        <extensions>
          <ns3:TrackPointExtension>
            <ns3:hr>147</ns3:hr>
          </ns3:TrackPointExtension>
        </extensions>
      </trkpt>
      <trkpt lat="46.79372736252844333648681640625" lon="6.73930102027952671051025390625">
        <ele>435.399993896484375</ele>
        <time>2017-05-05T12:45:55.000Z</time>
        <extensions>
          <ns3:TrackPointExtension>
            <ns3:hr>146</ns3:hr>
          </ns3:TrackPointExtension>
        </extensions>
      </trkpt>
      <trkpt lat="46.79362979717552661895751953125" lon="6.73923916183412075042724609375">
        <ele>435.399993896484375</ele>
        <time>2017-05-05T12:45:57.000Z</time>
        <extensions>
          <ns3:TrackPointExtension>
            <ns3:hr>145</ns3:hr>
          </ns3:TrackPointExtension>
        </extensions>
      </trkpt>
      <trkpt lat="46.79352636449038982391357421875" lon="6.73930755816400051116943359375">
        <ele>435.600006103515625</ele>
        <time>2017-05-05T12:45:59.000Z</time>
        <extensions>
          <ns3:TrackPointExtension>
            <ns3:hr>145</ns3:hr>
          </ns3:TrackPointExtension>
        </extensions>
      </trkpt>
      <trkpt lat="46.79338940419256687164306640625" lon="6.739497743546962738037109375">
        <ele>435.600006103515625</ele>
        <time>2017-05-05T12:46:02.000Z</time>
        <extensions>
          <ns3:TrackPointExtension>
            <ns3:hr>149</ns3:hr>
          </ns3:TrackPointExtension>
        </extensions>
      </trkpt>
      <trkpt lat="46.7932949401438236236572265625" lon="6.73962908796966075897216796875">
        <ele>435.600006103515625</ele>
        <time>2017-05-05T12:46:04.000Z</time>
        <extensions>
          <ns3:TrackPointExtension>
            <ns3:hr>152</ns3:hr>
          </ns3:TrackPointExtension>
        </extensions>
      </trkpt>
      <trkpt lat="46.79306066595017910003662109375" lon="6.7399196885526180267333984375">
        <ele>435.79998779296875</ele>
        <time>2017-05-05T12:46:09.000Z</time>
        <extensions>
          <ns3:TrackPointExtension>
            <ns3:hr>153</ns3:hr>
          </ns3:TrackPointExtension>
        </extensions>
      </trkpt>
      <trkpt lat="46.7929247952997684478759765625" lon="6.74011624418199062347412109375">
        <ele>435.79998779296875</ele>
        <time>2017-05-05T12:46:14.000Z</time>
        <extensions>
          <ns3:TrackPointExtension>
            <ns3:hr>156</ns3:hr>
          </ns3:TrackPointExtension>
        </extensions>
      </trkpt>
      <trkpt lat="46.79290643893182277679443359375" lon="6.74017391167581081390380859375">
        <ele>436</ele>
        <time>2017-05-05T12:46:15.000Z</time>
        <extensions>
          <ns3:TrackPointExtension>
            <ns3:hr>157</ns3:hr>
          </ns3:TrackPointExtension>
        </extensions>
      </trkpt>
      <trkpt lat="46.79249010980129241943359375" lon="6.74078813754022121429443359375">
        <ele>436.20001220703125</ele>
        <time>2017-05-05T12:46:25.000Z</time>
        <extensions>
          <ns3:TrackPointExtension>
            <ns3:hr>157</ns3:hr>
          </ns3:TrackPointExtension>
        </extensions>
      </trkpt>
      <trkpt lat="46.79235708899796009063720703125" lon="6.74098075367510318756103515625">
        <ele>436.20001220703125</ele>
        <time>2017-05-05T12:46:28.000Z</time>
        <extensions>
          <ns3:TrackPointExtension>
            <ns3:hr>154</ns3:hr>
          </ns3:TrackPointExtension>
        </extensions>
      </trkpt>
      <trkpt lat="46.7923124134540557861328125" lon="6.74104194156825542449951171875">
        <ele>436.20001220703125</ele>
        <time>2017-05-05T12:46:29.000Z</time>
        <extensions>
          <ns3:TrackPointExtension>
            <ns3:hr>153</ns3:hr>
          </ns3:TrackPointExtension>
        </extensions>
      </trkpt>
      <trkpt lat="46.79189239628612995147705078125" lon="6.74162800423800945281982421875">
        <ele>437</ele>
        <time>2017-05-05T12:46:39.000Z</time>
        <extensions>
          <ns3:TrackPointExtension>
            <ns3:hr>152</ns3:hr>
          </ns3:TrackPointExtension>
        </extensions>
      </trkpt>
      <trkpt lat="46.79169609211385250091552734375" lon="6.74190041609108448028564453125">
        <ele>437.20001220703125</ele>
        <time>2017-05-05T12:46:44.000Z</time>
        <extensions>
          <ns3:TrackPointExtension>
            <ns3:hr>151</ns3:hr>
          </ns3:TrackPointExtension>
        </extensions>
      </trkpt>
      <trkpt lat="46.79161730222404003143310546875" lon="6.74201072193682193756103515625">
        <ele>437.600006103515625</ele>
        <time>2017-05-05T12:46:46.000Z</time>
        <extensions>
          <ns3:TrackPointExtension>
            <ns3:hr>148</ns3:hr>
          </ns3:TrackPointExtension>
        </extensions>
      </trkpt>
      <trkpt lat="46.79150012321770191192626953125" lon="6.7421722412109375">
        <ele>437.79998779296875</ele>
        <time>2017-05-05T12:46:49.000Z</time>
        <extensions>
          <ns3:TrackPointExtension>
            <ns3:hr>145</ns3:hr>
          </ns3:TrackPointExtension>
        </extensions>
      </trkpt>
      <trkpt lat="46.7914616502821445465087890625" lon="6.74222563393414020538330078125">
        <ele>437.79998779296875</ele>
        <time>2017-05-05T12:46:50.000Z</time>
        <extensions>
          <ns3:TrackPointExtension>
            <ns3:hr>142</ns3:hr>
          </ns3:TrackPointExtension>
        </extensions>
      </trkpt>
      <trkpt lat="46.79142284207046031951904296875" lon="6.7422780208289623260498046875">
        <ele>437.79998779296875</ele>
        <time>2017-05-05T12:46:51.000Z</time>
        <extensions>
          <ns3:TrackPointExtension>
            <ns3:hr>142</ns3:hr>
          </ns3:TrackPointExtension>
        </extensions>
      </trkpt>
      <trkpt lat="46.79123349487781524658203125" lon="6.7425422184169292449951171875">
        <ele>438.20001220703125</ele>
        <time>2017-05-05T12:46:56.000Z</time>
        <extensions>
          <ns3:TrackPointExtension>
            <ns3:hr>138</ns3:hr>
          </ns3:TrackPointExtension>
        </extensions>
      </trkpt>
      <trkpt lat="46.79112327285110950469970703125" lon="6.74270759336650371551513671875">
        <ele>438.399993896484375</ele>
        <time>2017-05-05T12:46:59.000Z</time>
        <extensions>
          <ns3:TrackPointExtension>
            <ns3:hr>139</ns3:hr>
          </ns3:TrackPointExtension>
        </extensions>
      </trkpt>
      <trkpt lat="46.7909708060324192047119140625" lon="6.74290691502392292022705078125">
        <ele>439</ele>
        <time>2017-05-05T12:47:03.000Z</time>
        <extensions>
          <ns3:TrackPointExtension>
            <ns3:hr>138</ns3:hr>
          </ns3:TrackPointExtension>
        </extensions>
      </trkpt>
      <trkpt lat="46.79092361591756343841552734375" lon="6.74293465912342071533203125">
        <ele>439.399993896484375</ele>
        <time>2017-05-05T12:47:04.000Z</time>
        <extensions>
          <ns3:TrackPointExtension>
            <ns3:hr>138</ns3:hr>
          </ns3:TrackPointExtension>
        </extensions>
      </trkpt>
      <trkpt lat="46.79087215103209018707275390625" lon="6.74293993972241878509521484375">
        <ele>439.600006103515625</ele>
        <time>2017-05-05T12:47:05.000Z</time>
        <extensions>
          <ns3:TrackPointExtension>
            <ns3:hr>138</ns3:hr>
          </ns3:TrackPointExtension>
        </extensions>
      </trkpt>
      <trkpt lat="46.79077324457466602325439453125" lon="6.742889396846294403076171875">
        <ele>440</ele>
        <time>2017-05-05T12:47:07.000Z</time>
        <extensions>
          <ns3:TrackPointExtension>
            <ns3:hr>138</ns3:hr>
          </ns3:TrackPointExtension>
        </extensions>
      </trkpt>
      <trkpt lat="46.79068154655396938323974609375" lon="6.74280968494713306427001953125">
        <ele>440.600006103515625</ele>
        <time>2017-05-05T12:47:09.000Z</time>
        <extensions>
          <ns3:TrackPointExtension>
            <ns3:hr>139</ns3:hr>
          </ns3:TrackPointExtension>
        </extensions>
      </trkpt>
      <trkpt lat="46.79054626263678073883056640625" lon="6.74268831498920917510986328125">
        <ele>441.79998779296875</ele>
        <time>2017-05-05T12:47:12.000Z</time>
        <extensions>
          <ns3:TrackPointExtension>
            <ns3:hr>141</ns3:hr>
          </ns3:TrackPointExtension>
        </extensions>
      </trkpt>
      <trkpt lat="46.79049731232225894927978515625" lon="6.7426612414419651031494140625">
        <ele>442</ele>
        <time>2017-05-05T12:47:13.000Z</time>
        <extensions>
          <ns3:TrackPointExtension>
            <ns3:hr>142</ns3:hr>
          </ns3:TrackPointExtension>
        </extensions>
      </trkpt>
      <trkpt lat="46.79039555601775646209716796875" lon="6.742667444050312042236328125">
        <ele>442.20001220703125</ele>
        <time>2017-05-05T12:47:15.000Z</time>
        <extensions>
          <ns3:TrackPointExtension>
            <ns3:hr>143</ns3:hr>
          </ns3:TrackPointExtension>
        </extensions>
      </trkpt>
      <trkpt lat="46.7903113178908824920654296875" lon="6.742753945291042327880859375">
        <ele>442.20001220703125</ele>
        <time>2017-05-05T12:47:17.000Z</time>
        <extensions>
          <ns3:TrackPointExtension>
            <ns3:hr>144</ns3:hr>
          </ns3:TrackPointExtension>
        </extensions>
      </trkpt>
      <trkpt lat="46.7899736948311328887939453125" lon="6.74317195080220699310302734375">
        <ele>442.600006103515625</ele>
        <time>2017-05-05T12:47:25.000Z</time>
        <extensions>
          <ns3:TrackPointExtension>
            <ns3:hr>147</ns3:hr>
          </ns3:TrackPointExtension>
        </extensions>
      </trkpt>
      <trkpt lat="46.7898315377533435821533203125" lon="6.74332902766764163970947265625">
        <ele>442.600006103515625</ele>
        <time>2017-05-05T12:47:28.000Z</time>
        <extensions>
          <ns3:TrackPointExtension>
            <ns3:hr>150</ns3:hr>
          </ns3:TrackPointExtension>
        </extensions>
      </trkpt>
      <trkpt lat="46.7896883748471736907958984375" lon="6.74346037209033966064453125">
        <ele>442.600006103515625</ele>
        <time>2017-05-05T12:47:31.000Z</time>
        <extensions>
          <ns3:TrackPointExtension>
            <ns3:hr>151</ns3:hr>
          </ns3:TrackPointExtension>
        </extensions>
      </trkpt>
      <trkpt lat="46.7895428650081157684326171875" lon="6.74351074732840061187744140625">
        <ele>442.79998779296875</ele>
        <time>2017-05-05T12:47:34.000Z</time>
        <extensions>
          <ns3:TrackPointExtension>
            <ns3:hr>152</ns3:hr>
          </ns3:TrackPointExtension>
        </extensions>
      </trkpt>
      <trkpt lat="46.78949081338942050933837890625" lon="6.74351443536579608917236328125">
        <ele>443.20001220703125</ele>
        <time>2017-05-05T12:47:35.000Z</time>
        <extensions>
          <ns3:TrackPointExtension>
            <ns3:hr>152</ns3:hr>
          </ns3:TrackPointExtension>
        </extensions>
      </trkpt>
      <trkpt lat="46.789284534752368927001953125" lon="6.74355366267263889312744140625">
        <ele>444.20001220703125</ele>
        <time>2017-05-05T12:47:39.000Z</time>
        <extensions>
          <ns3:TrackPointExtension>
            <ns3:hr>151</ns3:hr>
          </ns3:TrackPointExtension>
        </extensions>
      </trkpt>
      <trkpt lat="46.7891339957714080810546875" lon="6.74357444979250431060791015625">
        <ele>444.600006103515625</ele>
        <time>2017-05-05T12:47:42.000Z</time>
        <extensions>
          <ns3:TrackPointExtension>
            <ns3:hr>151</ns3:hr>
          </ns3:TrackPointExtension>
        </extensions>
      </trkpt>
      <trkpt lat="46.78881414234638214111328125" lon="6.74360848031938076019287109375">
        <ele>445.20001220703125</ele>
        <time>2017-05-05T12:47:48.000Z</time>
        <extensions>
          <ns3:TrackPointExtension>
            <ns3:hr>149</ns3:hr>
          </ns3:TrackPointExtension>
        </extensions>
      </trkpt>
      <trkpt lat="46.7882488667964935302734375" lon="6.7436962388455867767333984375">
        <ele>446.20001220703125</ele>
        <time>2017-05-05T12:47:58.000Z</time>
        <extensions>
          <ns3:TrackPointExtension>
            <ns3:hr>148</ns3:hr>
          </ns3:TrackPointExtension>
        </extensions>
      </trkpt>
      <trkpt lat="46.7878574319183826446533203125" lon="6.7437495477497577667236328125">
        <ele>447.20001220703125</ele>
        <time>2017-05-05T12:48:05.000Z</time>
        <extensions>
          <ns3:TrackPointExtension>
            <ns3:hr>146</ns3:hr>
          </ns3:TrackPointExtension>
        </extensions>
      </trkpt>
      <trkpt lat="46.78763841278851032257080078125" lon="6.74374560825526714324951171875">
        <ele>447.600006103515625</ele>
        <time>2017-05-05T12:48:09.000Z</time>
        <extensions>
          <ns3:TrackPointExtension>
            <ns3:hr>145</ns3:hr>
          </ns3:TrackPointExtension>
        </extensions>
      </trkpt>
      <trkpt lat="46.7872009612619876861572265625" lon="6.7438206262886524200439453125">
        <ele>448.20001220703125</ele>
        <time>2017-05-05T12:48:17.000Z</time>
        <extensions>
          <ns3:TrackPointExtension>
            <ns3:hr>144</ns3:hr>
          </ns3:TrackPointExtension>
        </extensions>
      </trkpt>
      <trkpt lat="46.78673182614147663116455078125" lon="6.74396202899515628814697265625">
        <ele>449.399993896484375</ele>
        <time>2017-05-05T12:48:26.000Z</time>
        <extensions>
          <ns3:TrackPointExtension>
            <ns3:hr>146</ns3:hr>
          </ns3:TrackPointExtension>
        </extensions>
      </trkpt>
      <trkpt lat="46.78617375902831554412841796875" lon="6.744137294590473175048828125">
        <ele>450.20001220703125</ele>
        <time>2017-05-05T12:48:37.000Z</time>
        <extensions>
          <ns3:TrackPointExtension>
            <ns3:hr>145</ns3:hr>
          </ns3:TrackPointExtension>
        </extensions>
      </trkpt>
      <trkpt lat="46.7860735952854156494140625" lon="6.74417409114539623260498046875">
        <ele>450.399993896484375</ele>
        <time>2017-05-05T12:48:39.000Z</time>
        <extensions>
          <ns3:TrackPointExtension>
            <ns3:hr>145</ns3:hr>
          </ns3:TrackPointExtension>
        </extensions>
      </trkpt>
      <trkpt lat="46.78588106296956539154052734375" lon="6.7442856542766094207763671875">
        <ele>450.79998779296875</ele>
        <time>2017-05-05T12:48:43.000Z</time>
        <extensions>
          <ns3:TrackPointExtension>
            <ns3:hr>145</ns3:hr>
          </ns3:TrackPointExtension>
        </extensions>
      </trkpt>
      <trkpt lat="46.7857844196259975433349609375" lon="6.744294203817844390869140625">
        <ele>451.399993896484375</ele>
        <time>2017-05-05T12:48:45.000Z</time>
        <extensions>
          <ns3:TrackPointExtension>
            <ns3:hr>146</ns3:hr>
          </ns3:TrackPointExtension>
        </extensions>
      </trkpt>
      <trkpt lat="46.78573605604469776153564453125" lon="6.7442722432315349578857421875">
        <ele>451.600006103515625</ele>
        <time>2017-05-05T12:48:46.000Z</time>
        <extensions>
          <ns3:TrackPointExtension>
            <ns3:hr>147</ns3:hr>
          </ns3:TrackPointExtension>
        </extensions>
      </trkpt>
      <trkpt lat="46.785585768520832061767578125" lon="6.74419772811233997344970703125">
        <ele>452.399993896484375</ele>
        <time>2017-05-05T12:48:49.000Z</time>
        <extensions>
          <ns3:TrackPointExtension>
            <ns3:hr>148</ns3:hr>
          </ns3:TrackPointExtension>
        </extensions>
      </trkpt>
      <trkpt lat="46.7855306155979633331298828125" lon="6.74418481998145580291748046875">
        <ele>452.600006103515625</ele>
        <time>2017-05-05T12:48:50.000Z</time>
        <extensions>
          <ns3:TrackPointExtension>
            <ns3:hr>149</ns3:hr>
          </ns3:TrackPointExtension>
        </extensions>
      </trkpt>
      <trkpt lat="46.78541989065706729888916015625" lon="6.74418414942920207977294921875">
        <ele>452.79998779296875</ele>
        <time>2017-05-05T12:48:52.000Z</time>
        <extensions>
          <ns3:TrackPointExtension>
            <ns3:hr>149</ns3:hr>
          </ns3:TrackPointExtension>
        </extensions>
      </trkpt>
      <trkpt lat="46.7851215787231922149658203125" lon="6.74425740726292133331298828125">
        <ele>453.600006103515625</ele>
        <time>2017-05-05T12:48:58.000Z</time>
        <extensions>
          <ns3:TrackPointExtension>
            <ns3:hr>150</ns3:hr>
          </ns3:TrackPointExtension>
        </extensions>
      </trkpt>
      <trkpt lat="46.78507589735090732574462890625" lon="6.7442873306572437286376953125">
        <ele>453.600006103515625</ele>
        <time>2017-05-05T12:48:59.000Z</time>
        <extensions>
          <ns3:TrackPointExtension>
            <ns3:hr>150</ns3:hr>
          </ns3:TrackPointExtension>
        </extensions>
      </trkpt>
      <trkpt lat="46.7849774099886417388916015625" lon="6.74434273503720760345458984375">
        <ele>453.79998779296875</ele>
        <time>2017-05-05T12:49:01.000Z</time>
        <extensions>
          <ns3:TrackPointExtension>
            <ns3:hr>150</ns3:hr>
          </ns3:TrackPointExtension>
        </extensions>
      </trkpt>
      <trkpt lat="46.78477146662771701812744140625" lon="6.74446192570030689239501953125">
        <ele>454.600006103515625</ele>
        <time>2017-05-05T12:49:05.000Z</time>
        <extensions>
          <ns3:TrackPointExtension>
            <ns3:hr>151</ns3:hr>
          </ns3:TrackPointExtension>
        </extensions>
      </trkpt>
      <trkpt lat="46.78461573086678981781005859375" lon="6.74455949105322360992431640625">
        <ele>455.79998779296875</ele>
        <time>2017-05-05T12:49:08.000Z</time>
        <extensions>
          <ns3:TrackPointExtension>
            <ns3:hr>151</ns3:hr>
          </ns3:TrackPointExtension>
        </extensions>
      </trkpt>
      <trkpt lat="46.78432487882673740386962890625" lon="6.74482050351798534393310546875">
        <ele>456.399993896484375</ele>
        <time>2017-05-05T12:49:16.000Z</time>
        <extensions>
          <ns3:TrackPointExtension>
            <ns3:hr>150</ns3:hr>
          </ns3:TrackPointExtension>
        </extensions>
      </trkpt>
      <trkpt lat="46.78423150442540645599365234375" lon="6.74485981464385986328125">
        <ele>456.600006103515625</ele>
        <time>2017-05-05T12:49:18.000Z</time>
        <extensions>
          <ns3:TrackPointExtension>
            <ns3:hr>150</ns3:hr>
          </ns3:TrackPointExtension>
        </extensions>
      </trkpt>
      <trkpt lat="46.7841288261115550994873046875" lon="6.744886972010135650634765625">
        <ele>456.79998779296875</ele>
        <time>2017-05-05T12:49:20.000Z</time>
        <extensions>
          <ns3:TrackPointExtension>
            <ns3:hr>151</ns3:hr>
          </ns3:TrackPointExtension>
        </extensions>
      </trkpt>
      <trkpt lat="46.7840758524835109710693359375" lon="6.7448904924094676971435546875">
        <ele>457</ele>
        <time>2017-05-05T12:49:21.000Z</time>
        <extensions>
          <ns3:TrackPointExtension>
            <ns3:hr>151</ns3:hr>
          </ns3:TrackPointExtension>
        </extensions>
      </trkpt>
      <trkpt lat="46.7839078791439533233642578125" lon="6.74487347714602947235107421875">
        <ele>458</ele>
        <time>2017-05-05T12:49:24.000Z</time>
        <extensions>
          <ns3:TrackPointExtension>
            <ns3:hr>153</ns3:hr>
          </ns3:TrackPointExtension>
        </extensions>
      </trkpt>
      <trkpt lat="46.78354670293629169464111328125" lon="6.7448157258331775665283203125">
        <ele>459</ele>
        <time>2017-05-05T12:49:31.000Z</time>
        <extensions>
          <ns3:TrackPointExtension>
            <ns3:hr>152</ns3:hr>
          </ns3:TrackPointExtension>
        </extensions>
      </trkpt>
      <trkpt lat="46.7833975888788700103759765625" lon="6.74482167698442935943603515625">
        <ele>459.20001220703125</ele>
        <time>2017-05-05T12:49:34.000Z</time>
        <extensions>
          <ns3:TrackPointExtension>
            <ns3:hr>152</ns3:hr>
          </ns3:TrackPointExtension>
        </extensions>
      </trkpt>
      <trkpt lat="46.7832599580287933349609375" lon="6.74486509524285793304443359375">
        <ele>459.600006103515625</ele>
        <time>2017-05-05T12:49:37.000Z</time>
        <extensions>
          <ns3:TrackPointExtension>
            <ns3:hr>151</ns3:hr>
          </ns3:TrackPointExtension>
        </extensions>
      </trkpt>
      <trkpt lat="46.78311050869524478912353515625" lon="6.74501043744385242462158203125">
        <ele>460</ele>
        <time>2017-05-05T12:49:41.000Z</time>
        <extensions>
          <ns3:TrackPointExtension>
            <ns3:hr>151</ns3:hr>
          </ns3:TrackPointExtension>
        </extensions>
      </trkpt>
      <trkpt lat="46.7830673418939113616943359375" lon="6.74505486153066158294677734375">
        <ele>460.20001220703125</ele>
        <time>2017-05-05T12:49:42.000Z</time>
        <extensions>
          <ns3:TrackPointExtension>
            <ns3:hr>151</ns3:hr>
          </ns3:TrackPointExtension>
        </extensions>
      </trkpt>
      <trkpt lat="46.7829037271440029144287109375" lon="6.7452066577970981597900390625">
        <ele>461.20001220703125</ele>
        <time>2017-05-05T12:49:46.000Z</time>
        <extensions>
          <ns3:TrackPointExtension>
            <ns3:hr>151</ns3:hr>
          </ns3:TrackPointExtension>
        </extensions>
      </trkpt>
      <trkpt lat="46.7828614823520183563232421875" lon="6.7452328093349933624267578125">
        <ele>461.399993896484375</ele>
        <time>2017-05-05T12:49:47.000Z</time>
        <extensions>
          <ns3:TrackPointExtension>
            <ns3:hr>152</ns3:hr>
          </ns3:TrackPointExtension>
        </extensions>
      </trkpt>
      <trkpt lat="46.78271940909326076507568359375" lon="6.745275221765041351318359375">
        <ele>462</ele>
        <time>2017-05-05T12:49:50.000Z</time>
        <extensions>
          <ns3:TrackPointExtension>
            <ns3:hr>152</ns3:hr>
          </ns3:TrackPointExtension>
        </extensions>
      </trkpt>
      <trkpt lat="46.78255788981914520263671875" lon="6.74527262337505817413330078125">
        <ele>462.600006103515625</ele>
        <time>2017-05-05T12:49:53.000Z</time>
        <extensions>
          <ns3:TrackPointExtension>
            <ns3:hr>152</ns3:hr>
          </ns3:TrackPointExtension>
        </extensions>
      </trkpt>
      <trkpt lat="46.78234976716339588165283203125" lon="6.74527631141245365142822265625">
        <ele>463.20001220703125</ele>
        <time>2017-05-05T12:49:57.000Z</time>
        <extensions>
          <ns3:TrackPointExtension>
            <ns3:hr>151</ns3:hr>
          </ns3:TrackPointExtension>
        </extensions>
      </trkpt>
      <trkpt lat="46.78212194703519344329833984375" lon="6.745361723005771636962890625">
        <ele>463.600006103515625</ele>
        <time>2017-05-05T12:50:02.000Z</time>
        <extensions>
          <ns3:TrackPointExtension>
            <ns3:hr>152</ns3:hr>
          </ns3:TrackPointExtension>
        </extensions>
      </trkpt>
      <trkpt lat="46.78180226124823093414306640625" lon="6.74546557478606700897216796875">
        <ele>464.600006103515625</ele>
        <time>2017-05-05T12:50:10.000Z</time>
        <extensions>
          <ns3:TrackPointExtension>
            <ns3:hr>151</ns3:hr>
          </ns3:TrackPointExtension>
        </extensions>
      </trkpt>
      <trkpt lat="46.7816011793911457061767578125" lon="6.74555006437003612518310546875">
        <ele>465.600006103515625</ele>
        <time>2017-05-05T12:50:15.000Z</time>
        <extensions>
          <ns3:TrackPointExtension>
            <ns3:hr>149</ns3:hr>
          </ns3:TrackPointExtension>
        </extensions>
      </trkpt>
      <trkpt lat="46.7814097367227077484130859375" lon="6.74571745097637176513671875">
        <ele>466.600006103515625</ele>
        <time>2017-05-05T12:50:20.000Z</time>
        <extensions>
          <ns3:TrackPointExtension>
            <ns3:hr>149</ns3:hr>
          </ns3:TrackPointExtension>
        </extensions>
      </trkpt>
      <trkpt lat="46.781065575778484344482421875" lon="6.74605800770223140716552734375">
        <ele>467.79998779296875</ele>
        <time>2017-05-05T12:50:31.000Z</time>
        <extensions>
          <ns3:TrackPointExtension>
            <ns3:hr>148</ns3:hr>
          </ns3:TrackPointExtension>
        </extensions>
      </trkpt>
      <trkpt lat="46.780944205820560455322265625" lon="6.74635154195129871368408203125">
        <ele>469.20001220703125</ele>
        <time>2017-05-05T12:50:37.000Z</time>
        <extensions>
          <ns3:TrackPointExtension>
            <ns3:hr>150</ns3:hr>
          </ns3:TrackPointExtension>
        </extensions>
      </trkpt>
      <trkpt lat="46.78088528104126453399658203125" lon="6.74656662158668041229248046875">
        <ele>470.399993896484375</ele>
        <time>2017-05-05T12:50:41.000Z</time>
        <extensions>
          <ns3:TrackPointExtension>
            <ns3:hr>153</ns3:hr>
          </ns3:TrackPointExtension>
        </extensions>
      </trkpt>
      <trkpt lat="46.78080548532307147979736328125" lon="6.74679175950586795806884765625">
        <ele>471.600006103515625</ele>
        <time>2017-05-05T12:50:45.000Z</time>
        <extensions>
          <ns3:TrackPointExtension>
            <ns3:hr>153</ns3:hr>
          </ns3:TrackPointExtension>
        </extensions>
      </trkpt>
      <trkpt lat="46.78070205263793468475341796875" lon="6.7470365948975086212158203125">
        <ele>472.600006103515625</ele>
        <time>2017-05-05T12:50:50.000Z</time>
        <extensions>
          <ns3:TrackPointExtension>
            <ns3:hr>152</ns3:hr>
          </ns3:TrackPointExtension>
        </extensions>
      </trkpt>
      <trkpt lat="46.7803288064897060394287109375" lon="6.74766599200665950775146484375">
        <ele>472.399993896484375</ele>
        <time>2017-05-05T12:51:01.000Z</time>
        <extensions>
          <ns3:TrackPointExtension>
            <ns3:hr>151</ns3:hr>
          </ns3:TrackPointExtension>
        </extensions>
      </trkpt>
      <trkpt lat="46.7802775092422962188720703125" lon="6.7477847635746002197265625">
        <ele>472.600006103515625</ele>
        <time>2017-05-05T12:51:03.000Z</time>
        <extensions>
          <ns3:TrackPointExtension>
            <ns3:hr>151</ns3:hr>
          </ns3:TrackPointExtension>
        </extensions>
      </trkpt>
      <trkpt lat="46.78001708351075649261474609375" lon="6.74827083013951778411865234375">
        <ele>473.600006103515625</ele>
        <time>2017-05-05T12:51:14.000Z</time>
        <extensions>
          <ns3:TrackPointExtension>
            <ns3:hr>151</ns3:hr>
          </ns3:TrackPointExtension>
        </extensions>
      </trkpt>
      <trkpt lat="46.779948770999908447265625" lon="6.74841935746371746063232421875">
        <ele>474.79998779296875</ele>
        <time>2017-05-05T12:51:18.000Z</time>
        <extensions>
          <ns3:TrackPointExtension>
            <ns3:hr>152</ns3:hr>
          </ns3:TrackPointExtension>
        </extensions>
      </trkpt>
      <trkpt lat="46.77992538549005985260009765625" lon="6.74851692281663417816162109375">
        <ele>475.79998779296875</ele>
        <time>2017-05-05T12:51:20.000Z</time>
        <extensions>
          <ns3:TrackPointExtension>
            <ns3:hr>152</ns3:hr>
          </ns3:TrackPointExtension>
        </extensions>
      </trkpt>
      <trkpt lat="46.779936365783214569091796875" lon="6.74867047928273677825927734375">
        <ele>477</ele>
        <time>2017-05-05T12:51:23.000Z</time>
        <extensions>
          <ns3:TrackPointExtension>
            <ns3:hr>152</ns3:hr>
          </ns3:TrackPointExtension>
        </extensions>
      </trkpt>
      <trkpt lat="46.77994675934314727783203125" lon="6.7492132075130939483642578125">
        <ele>478.20001220703125</ele>
        <time>2017-05-05T12:51:33.000Z</time>
        <extensions>
          <ns3:TrackPointExtension>
            <ns3:hr>153</ns3:hr>
          </ns3:TrackPointExtension>
        </extensions>
      </trkpt>
      <trkpt lat="46.7799412272870540618896484375" lon="6.74936517141759395599365234375">
        <ele>478.79998779296875</ele>
        <time>2017-05-05T12:51:36.000Z</time>
        <extensions>
          <ns3:TrackPointExtension>
            <ns3:hr>150</ns3:hr>
          </ns3:TrackPointExtension>
        </extensions>
      </trkpt>
      <trkpt lat="46.77993410266935825347900390625" lon="6.7494700290262699127197265625">
        <ele>479.600006103515625</ele>
        <time>2017-05-05T12:51:38.000Z</time>
        <extensions>
          <ns3:TrackPointExtension>
            <ns3:hr>148</ns3:hr>
          </ns3:TrackPointExtension>
        </extensions>
      </trkpt>
      <trkpt lat="46.7798882536590099334716796875" lon="6.74980404786765575408935546875">
        <ele>480.600006103515625</ele>
        <time>2017-05-05T12:51:45.000Z</time>
        <extensions>
          <ns3:TrackPointExtension>
            <ns3:hr>147</ns3:hr>
          </ns3:TrackPointExtension>
        </extensions>
      </trkpt>
      <trkpt lat="46.779904179275035858154296875" lon="6.75002030096948146820068359375">
        <ele>481.600006103515625</ele>
        <time>2017-05-05T12:51:50.000Z</time>
        <extensions>
          <ns3:TrackPointExtension>
            <ns3:hr>148</ns3:hr>
          </ns3:TrackPointExtension>
        </extensions>
      </trkpt>
      <trkpt lat="46.7799472622573375701904296875" lon="6.750123314559459686279296875">
        <ele>482.79998779296875</ele>
        <time>2017-05-05T12:51:53.000Z</time>
        <extensions>
          <ns3:TrackPointExtension>
            <ns3:hr>148</ns3:hr>
          </ns3:TrackPointExtension>
        </extensions>
      </trkpt>
      <trkpt lat="46.7800166644155979156494140625" lon="6.75022029317915439605712890625">
        <ele>483.79998779296875</ele>
        <time>2017-05-05T12:51:57.000Z</time>
        <extensions>
          <ns3:TrackPointExtension>
            <ns3:hr>146</ns3:hr>
          </ns3:TrackPointExtension>
        </extensions>
      </trkpt>
      <trkpt lat="46.78006368689239025115966796875" lon="6.75029774196445941925048828125">
        <ele>485.20001220703125</ele>
        <time>2017-05-05T12:52:00.000Z</time>
        <extensions>
          <ns3:TrackPointExtension>
            <ns3:hr>146</ns3:hr>
          </ns3:TrackPointExtension>
        </extensions>
      </trkpt>
      <trkpt lat="46.7801159061491489410400390625" lon="6.75041265785694122314453125">
        <ele>486.20001220703125</ele>
        <time>2017-05-05T12:52:04.000Z</time>
        <extensions>
          <ns3:TrackPointExtension>
            <ns3:hr>147</ns3:hr>
          </ns3:TrackPointExtension>
        </extensions>
      </trkpt>
      <trkpt lat="46.78016125224530696868896484375" lon="6.75065263174474239349365234375">
        <ele>487.600006103515625</ele>
        <time>2017-05-05T12:52:09.000Z</time>
        <extensions>
          <ns3:TrackPointExtension>
            <ns3:hr>148</ns3:hr>
          </ns3:TrackPointExtension>
        </extensions>
      </trkpt>
      <trkpt lat="46.78020953200757503509521484375" lon="6.7508312501013278961181640625">
        <ele>488.20001220703125</ele>
        <time>2017-05-05T12:52:13.000Z</time>
        <extensions>
          <ns3:TrackPointExtension>
            <ns3:hr>151</ns3:hr>
          </ns3:TrackPointExtension>
        </extensions>
      </trkpt>
      <trkpt lat="46.78022998385131359100341796875" lon="6.75096712075173854827880859375">
        <ele>488.600006103515625</ele>
        <time>2017-05-05T12:52:16.000Z</time>
        <extensions>
          <ns3:TrackPointExtension>
            <ns3:hr>151</ns3:hr>
          </ns3:TrackPointExtension>
        </extensions>
      </trkpt>
      <trkpt lat="46.78024859167635440826416015625" lon="6.75128638744354248046875">
        <ele>489.79998779296875</ele>
        <time>2017-05-05T12:52:25.000Z</time>
        <extensions>
          <ns3:TrackPointExtension>
            <ns3:hr>150</ns3:hr>
          </ns3:TrackPointExtension>
        </extensions>
      </trkpt>
      <trkpt lat="46.7801903374493122100830078125" lon="6.7514526844024658203125">
        <ele>490.79998779296875</ele>
        <time>2017-05-05T12:52:28.000Z</time>
        <extensions>
          <ns3:TrackPointExtension>
            <ns3:hr>150</ns3:hr>
          </ns3:TrackPointExtension>
        </extensions>
      </trkpt>
      <trkpt lat="46.78007860668003559112548828125" lon="6.75173138268291950225830078125">
        <ele>490.79998779296875</ele>
        <time>2017-05-05T12:52:32.000Z</time>
        <extensions>
          <ns3:TrackPointExtension>
            <ns3:hr>148</ns3:hr>
          </ns3:TrackPointExtension>
        </extensions>
      </trkpt>
      <trkpt lat="46.77990275435149669647216796875" lon="6.7521089874207973480224609375">
        <ele>490.79998779296875</ele>
        <time>2017-05-05T12:52:37.000Z</time>
        <extensions>
          <ns3:TrackPointExtension>
            <ns3:hr>149</ns3:hr>
          </ns3:TrackPointExtension>
        </extensions>
      </trkpt>
      <trkpt lat="46.77972572855651378631591796875" lon="6.75264291465282440185546875">
        <ele>490</ele>
        <time>2017-05-05T12:52:44.000Z</time>
        <extensions>
          <ns3:TrackPointExtension>
            <ns3:hr>147</ns3:hr>
          </ns3:TrackPointExtension>
        </extensions>
      </trkpt>
      <trkpt lat="46.779501177370548248291015625" lon="6.753094531595706939697265625">
        <ele>489.600006103515625</ele>
        <time>2017-05-05T12:52:50.000Z</time>
        <extensions>
          <ns3:TrackPointExtension>
            <ns3:hr>146</ns3:hr>
          </ns3:TrackPointExtension>
        </extensions>
      </trkpt>
      <trkpt lat="46.77922281436622142791748046875" lon="6.7535878904163837432861328125">
        <ele>489.20001220703125</ele>
        <time>2017-05-05T12:52:57.000Z</time>
        <extensions>
          <ns3:TrackPointExtension>
            <ns3:hr>147</ns3:hr>
          </ns3:TrackPointExtension>
        </extensions>
      </trkpt>
      <trkpt lat="46.77900396287441253662109375" lon="6.7538849450647830963134765625">
        <ele>489.20001220703125</ele>
        <time>2017-05-05T12:53:06.000Z</time>
        <extensions>
          <ns3:TrackPointExtension>
            <ns3:hr>150</ns3:hr>
          </ns3:TrackPointExtension>
        </extensions>
      </trkpt>
      <trkpt lat="46.77896884270012378692626953125" lon="6.75409608520567417144775390625">
        <ele>490.79998779296875</ele>
        <time>2017-05-05T12:53:12.000Z</time>
        <extensions>
          <ns3:TrackPointExtension>
            <ns3:hr>151</ns3:hr>
          </ns3:TrackPointExtension>
        </extensions>
      </trkpt>
      <trkpt lat="46.77897035144269466400146484375" lon="6.75421007908880710601806640625">
        <ele>492</ele>
        <time>2017-05-05T12:53:15.000Z</time>
        <extensions>
          <ns3:TrackPointExtension>
            <ns3:hr>151</ns3:hr>
          </ns3:TrackPointExtension>
        </extensions>
      </trkpt>
      <trkpt lat="46.77901494316756725311279296875" lon="6.7544656433165073394775390625">
        <ele>493.20001220703125</ele>
        <time>2017-05-05T12:53:21.000Z</time>
        <extensions>
          <ns3:TrackPointExtension>
            <ns3:hr>151</ns3:hr>
          </ns3:TrackPointExtension>
        </extensions>
      </trkpt>
      <trkpt lat="46.779025755822658538818359375" lon="6.754700504243373870849609375">
        <ele>494.399993896484375</ele>
        <time>2017-05-05T12:53:26.000Z</time>
        <extensions>
          <ns3:TrackPointExtension>
            <ns3:hr>151</ns3:hr>
          </ns3:TrackPointExtension>
        </extensions>
      </trkpt>
      <trkpt lat="46.77903204225003719329833984375" lon="6.75499160774052143096923828125">
        <ele>495.399993896484375</ele>
        <time>2017-05-05T12:53:32.000Z</time>
        <extensions>
          <ns3:TrackPointExtension>
            <ns3:hr>150</ns3:hr>
          </ns3:TrackPointExtension>
        </extensions>
      </trkpt>
      <trkpt lat="46.77902583964169025421142578125" lon="6.75526938401162624359130859375">
        <ele>495.79998779296875</ele>
        <time>2017-05-05T12:53:37.000Z</time>
        <extensions>
          <ns3:TrackPointExtension>
            <ns3:hr>151</ns3:hr>
          </ns3:TrackPointExtension>
        </extensions>
      </trkpt>
      <trkpt lat="46.778879575431346893310546875" lon="6.7554852180182933807373046875">
        <ele>496.20001220703125</ele>
        <time>2017-05-05T12:53:43.000Z</time>
        <extensions>
          <ns3:TrackPointExtension>
            <ns3:hr>152</ns3:hr>
          </ns3:TrackPointExtension>
        </extensions>
      </trkpt>
      <trkpt lat="46.77879584021866321563720703125" lon="6.75551748834550380706787109375">
        <ele>496</ele>
        <time>2017-05-05T12:53:47.000Z</time>
        <extensions>
          <ns3:TrackPointExtension>
            <ns3:hr>152</ns3:hr>
          </ns3:TrackPointExtension>
        </extensions>
      </trkpt>
      <trkpt lat="46.77872635424137115478515625" lon="6.75569585524499416351318359375">
        <ele>496</ele>
        <time>2017-05-05T12:53:50.000Z</time>
        <extensions>
          <ns3:TrackPointExtension>
            <ns3:hr>152</ns3:hr>
          </ns3:TrackPointExtension>
        </extensions>
      </trkpt>
      <trkpt lat="46.77866357378661632537841796875" lon="6.7557953484356403350830078125">
        <ele>495.600006103515625</ele>
        <time>2017-05-05T12:53:52.000Z</time>
        <extensions>
          <ns3:TrackPointExtension>
            <ns3:hr>152</ns3:hr>
          </ns3:TrackPointExtension>
        </extensions>
      </trkpt>
      <trkpt lat="46.77838034927845001220703125" lon="6.7559425346553325653076171875">
        <ele>496.399993896484375</ele>
        <time>2017-05-05T12:54:03.000Z</time>
        <extensions>
          <ns3:TrackPointExtension>
            <ns3:hr>150</ns3:hr>
          </ns3:TrackPointExtension>
        </extensions>
      </trkpt>
      <trkpt lat="46.77827079780399799346923828125" lon="6.75592593848705291748046875">
        <ele>497.399993896484375</ele>
        <time>2017-05-05T12:54:07.000Z</time>
        <extensions>
          <ns3:TrackPointExtension>
            <ns3:hr>148</ns3:hr>
          </ns3:TrackPointExtension>
        </extensions>
      </trkpt>
      <trkpt lat="46.7781449854373931884765625" lon="6.7558590508997440338134765625">
        <ele>498.600006103515625</ele>
        <time>2017-05-05T12:54:12.000Z</time>
        <extensions>
          <ns3:TrackPointExtension>
            <ns3:hr>148</ns3:hr>
          </ns3:TrackPointExtension>
        </extensions>
      </trkpt>
      <trkpt lat="46.77804331295192241668701171875" lon="6.75577171146869659423828125">
        <ele>500</ele>
        <time>2017-05-05T12:54:16.000Z</time>
        <extensions>
          <ns3:TrackPointExtension>
            <ns3:hr>150</ns3:hr>
          </ns3:TrackPointExtension>
        </extensions>
      </trkpt>
      <trkpt lat="46.777947843074798583984375" lon="6.75572116859257221221923828125">
        <ele>501.20001220703125</ele>
        <time>2017-05-05T12:54:20.000Z</time>
        <extensions>
          <ns3:TrackPointExtension>
            <ns3:hr>151</ns3:hr>
          </ns3:TrackPointExtension>
        </extensions>
      </trkpt>
      <trkpt lat="46.7778499424457550048828125" lon="6.75566584803164005279541015625">
        <ele>502.20001220703125</ele>
        <time>2017-05-05T12:54:24.000Z</time>
        <extensions>
          <ns3:TrackPointExtension>
            <ns3:hr>153</ns3:hr>
          </ns3:TrackPointExtension>
        </extensions>
      </trkpt>
      <trkpt lat="46.77742187865078449249267578125" lon="6.755553781986236572265625">
        <ele>503.399993896484375</ele>
        <time>2017-05-05T12:54:37.000Z</time>
        <extensions>
          <ns3:TrackPointExtension>
            <ns3:hr>151</ns3:hr>
          </ns3:TrackPointExtension>
        </extensions>
      </trkpt>
      <trkpt lat="46.77712683565914630889892578125" lon="6.75545562990009784698486328125">
        <ele>504.399993896484375</ele>
        <time>2017-05-05T12:54:45.000Z</time>
        <extensions>
          <ns3:TrackPointExtension>
            <ns3:hr>150</ns3:hr>
          </ns3:TrackPointExtension>
        </extensions>
      </trkpt>
      <trkpt lat="46.77662341855466365814208984375" lon="6.7551392130553722381591796875">
        <ele>505.20001220703125</ele>
        <time>2017-05-05T12:54:59.000Z</time>
        <extensions>
          <ns3:TrackPointExtension>
            <ns3:hr>151</ns3:hr>
          </ns3:TrackPointExtension>
        </extensions>
      </trkpt>
      <trkpt lat="46.776542030274868011474609375" lon="6.75507358275353908538818359375">
        <ele>505.600006103515625</ele>
        <time>2017-05-05T12:55:02.000Z</time>
        <extensions>
          <ns3:TrackPointExtension>
            <ns3:hr>150</ns3:hr>
          </ns3:TrackPointExtension>
        </extensions>
      </trkpt>
      <trkpt lat="46.77642627619206905364990234375" lon="6.7549454234540462493896484375">
        <ele>506.600006103515625</ele>
        <time>2017-05-05T12:55:06.000Z</time>
        <extensions>
          <ns3:TrackPointExtension>
            <ns3:hr>149</ns3:hr>
          </ns3:TrackPointExtension>
        </extensions>
      </trkpt>
      <trkpt lat="46.77632804028689861297607421875" lon="6.75494751892983913421630859375">
        <ele>507.600006103515625</ele>
        <time>2017-05-05T12:55:09.000Z</time>
        <extensions>
          <ns3:TrackPointExtension>
            <ns3:hr>152</ns3:hr>
          </ns3:TrackPointExtension>
        </extensions>
      </trkpt>
      <trkpt lat="46.77630297839641571044921875" lon="6.7549652047455310821533203125">
        <ele>507.600006103515625</ele>
        <time>2017-05-05T12:55:10.000Z</time>
        <extensions>
          <ns3:TrackPointExtension>
            <ns3:hr>154</ns3:hr>
          </ns3:TrackPointExtension>
        </extensions>
      </trkpt>
      <trkpt lat="46.7761281318962574005126953125" lon="6.754884235560894012451171875">
        <ele>508.79998779296875</ele>
        <time>2017-05-05T12:55:17.000Z</time>
        <extensions>
          <ns3:TrackPointExtension>
            <ns3:hr>153</ns3:hr>
          </ns3:TrackPointExtension>
        </extensions>
      </trkpt>
      <trkpt lat="46.776003576815128326416015625" lon="6.7548314295709133148193359375">
        <ele>510</ele>
        <time>2017-05-05T12:55:23.000Z</time>
        <extensions>
          <ns3:TrackPointExtension>
            <ns3:hr>153</ns3:hr>
          </ns3:TrackPointExtension>
        </extensions>
      </trkpt>
      <trkpt lat="46.7759142257273197174072265625" lon="6.75479832105338573455810546875">
        <ele>511.20001220703125</ele>
        <time>2017-05-05T12:55:28.000Z</time>
        <extensions>
          <ns3:TrackPointExtension>
            <ns3:hr>151</ns3:hr>
          </ns3:TrackPointExtension>
        </extensions>
      </trkpt>
      <trkpt lat="46.7758691310882568359375" lon="6.754734031856060028076171875">
        <ele>513</ele>
        <time>2017-05-05T12:55:33.000Z</time>
        <extensions>
          <ns3:TrackPointExtension>
            <ns3:hr>151</ns3:hr>
          </ns3:TrackPointExtension>
        </extensions>
      </trkpt>
      <trkpt lat="46.77586376667022705078125" lon="6.75473034381866455078125">
        <ele>514</ele>
        <time>2017-05-05T12:55:35.000Z</time>
        <extensions>
          <ns3:TrackPointExtension>
            <ns3:hr>151</ns3:hr>
          </ns3:TrackPointExtension>
        </extensions>
      </trkpt>
      <trkpt lat="46.775856055319309234619140625" lon="6.75472204573452472686767578125">
        <ele>515.20001220703125</ele>
        <time>2017-05-05T12:55:40.000Z</time>
        <extensions>
          <ns3:TrackPointExtension>
            <ns3:hr>150</ns3:hr>
          </ns3:TrackPointExtension>
        </extensions>
      </trkpt>
      <trkpt lat="46.7757801152765750885009765625" lon="6.75465079955756664276123046875">
        <ele>516</ele>
        <time>2017-05-05T12:55:46.000Z</time>
        <extensions>
          <ns3:TrackPointExtension>
            <ns3:hr>150</ns3:hr>
          </ns3:TrackPointExtension>
        </extensions>
      </trkpt>
      <trkpt lat="46.77560937590897083282470703125" lon="6.75452691502869129180908203125">
        <ele>516</ele>
        <time>2017-05-05T12:55:50.000Z</time>
        <extensions>
          <ns3:TrackPointExtension>
            <ns3:hr>152</ns3:hr>
          </ns3:TrackPointExtension>
        </extensions>
      </trkpt>
      <trkpt lat="46.77512406371533870697021484375" lon="6.75420127809047698974609375">
        <ele>516</ele>
        <time>2017-05-05T12:56:07.000Z</time>
        <extensions>
          <ns3:TrackPointExtension>
            <ns3:hr>149</ns3:hr>
          </ns3:TrackPointExtension>
        </extensions>
      </trkpt>
      <trkpt lat="46.77508181892335414886474609375" lon="6.75417101942002773284912109375">
        <ele>516.20001220703125</ele>
        <time>2017-05-05T12:56:10.000Z</time>
        <extensions>
          <ns3:TrackPointExtension>
            <ns3:hr>149</ns3:hr>
          </ns3:TrackPointExtension>
        </extensions>
      </trkpt>
      <trkpt lat="46.7750321142375469207763671875" lon="6.75416548736393451690673828125">
        <ele>517.79998779296875</ele>
        <time>2017-05-05T12:56:15.000Z</time>
        <extensions>
          <ns3:TrackPointExtension>
            <ns3:hr>149</ns3:hr>
          </ns3:TrackPointExtension>
        </extensions>
      </trkpt>
      <trkpt lat="46.775003783404827117919921875" lon="6.75419080071151256561279296875">
        <ele>518.5999755859375</ele>
        <time>2017-05-05T12:56:26.000Z</time>
        <extensions>
          <ns3:TrackPointExtension>
            <ns3:hr>153</ns3:hr>
          </ns3:TrackPointExtension>
        </extensions>
      </trkpt>
      <trkpt lat="46.774992048740386962890625" lon="6.7541917227208614349365234375">
        <ele>518.5999755859375</ele>
        <time>2017-05-05T12:56:27.000Z</time>
        <extensions>
          <ns3:TrackPointExtension>
            <ns3:hr>158</ns3:hr>
          </ns3:TrackPointExtension>
        </extensions>
      </trkpt>
      <trkpt lat="46.77497570402920246124267578125" lon="6.75418786704540252685546875">
        <ele>518.5999755859375</ele>
        <time>2017-05-05T12:56:28.000Z</time>
        <extensions>
          <ns3:TrackPointExtension>
            <ns3:hr>158</ns3:hr>
          </ns3:TrackPointExtension>
        </extensions>
      </trkpt>
      <trkpt lat="46.77493748255074024200439453125" lon="6.7541870288550853729248046875">
        <ele>518.79998779296875</ele>
        <time>2017-05-05T12:56:31.000Z</time>
        <extensions>
          <ns3:TrackPointExtension>
            <ns3:hr>153</ns3:hr>
          </ns3:TrackPointExtension>
        </extensions>
      </trkpt>
      <trkpt lat="46.77493547089397907257080078125" lon="6.75419189035892486572265625">
        <ele>518.79998779296875</ele>
        <time>2017-05-05T12:56:32.000Z</time>
        <extensions>
          <ns3:TrackPointExtension>
            <ns3:hr>147</ns3:hr>
          </ns3:TrackPointExtension>
        </extensions>
      </trkpt>
      <trkpt lat="46.7749030329287052154541015625" lon="6.75421200692653656005859375">
        <ele>518.79998779296875</ele>
        <time>2017-05-05T12:56:35.000Z</time>
        <extensions>
          <ns3:TrackPointExtension>
            <ns3:hr>144</ns3:hr>
          </ns3:TrackPointExtension>
        </extensions>
      </trkpt>
      <trkpt lat="46.77488140761852264404296875" lon="6.754213012754917144775390625">
        <ele>518.79998779296875</ele>
        <time>2017-05-05T12:56:36.000Z</time>
        <extensions>
          <ns3:TrackPointExtension>
            <ns3:hr>144</ns3:hr>
          </ns3:TrackPointExtension>
        </extensions>
      </trkpt>
      <trkpt lat="46.7747102491557598114013671875" lon="6.75424293614923954010009765625">
        <ele>519</ele>
        <time>2017-05-05T12:56:44.000Z</time>
        <extensions>
          <ns3:TrackPointExtension>
            <ns3:hr>141</ns3:hr>
          </ns3:TrackPointExtension>
        </extensions>
      </trkpt>
      <trkpt lat="46.774478070437908172607421875" lon="6.754411160945892333984375">
        <ele>519.79998779296875</ele>
        <time>2017-05-05T12:56:53.000Z</time>
        <extensions>
          <ns3:TrackPointExtension>
            <ns3:hr>142</ns3:hr>
          </ns3:TrackPointExtension>
        </extensions>
      </trkpt>
      <trkpt lat="46.77442551590502262115478515625" lon="6.75453655421733856201171875">
        <ele>520.79998779296875</ele>
        <time>2017-05-05T12:57:02.000Z</time>
        <extensions>
          <ns3:TrackPointExtension>
            <ns3:hr>145</ns3:hr>
          </ns3:TrackPointExtension>
        </extensions>
      </trkpt>
      <trkpt lat="46.77440506406128406524658203125" lon="6.75453060306608676910400390625">
        <ele>521.79998779296875</ele>
        <time>2017-05-05T12:57:06.000Z</time>
        <extensions>
          <ns3:TrackPointExtension>
            <ns3:hr>146</ns3:hr>
          </ns3:TrackPointExtension>
        </extensions>
      </trkpt>
      <trkpt lat="46.7743753083050251007080078125" lon="6.75455323420464992523193359375">
        <ele>523.20001220703125</ele>
        <time>2017-05-05T12:57:13.000Z</time>
        <extensions>
          <ns3:TrackPointExtension>
            <ns3:hr>145</ns3:hr>
          </ns3:TrackPointExtension>
        </extensions>
      </trkpt>
      <trkpt lat="46.77439148537814617156982421875" lon="6.75457410514354705810546875">
        <ele>524.4000244140625</ele>
        <time>2017-05-05T12:57:17.000Z</time>
        <extensions>
          <ns3:TrackPointExtension>
            <ns3:hr>146</ns3:hr>
          </ns3:TrackPointExtension>
        </extensions>
      </trkpt>
      <trkpt lat="46.77438427694141864776611328125" lon="6.7545948922634124755859375">
        <ele>525.4000244140625</ele>
        <time>2017-05-05T12:57:20.000Z</time>
        <extensions>
          <ns3:TrackPointExtension>
            <ns3:hr>145</ns3:hr>
          </ns3:TrackPointExtension>
        </extensions>
      </trkpt>
      <trkpt lat="46.77438947372138500213623046875" lon="6.75463604740798473358154296875">
        <ele>526.5999755859375</ele>
        <time>2017-05-05T12:57:25.000Z</time>
        <extensions>
          <ns3:TrackPointExtension>
            <ns3:hr>145</ns3:hr>
          </ns3:TrackPointExtension>
        </extensions>
      </trkpt>
      <trkpt lat="46.7743729613721370697021484375" lon="6.754703857004642486572265625">
        <ele>526.79998779296875</ele>
        <time>2017-05-05T12:57:37.000Z</time>
        <extensions>
          <ns3:TrackPointExtension>
            <ns3:hr>144</ns3:hr>
          </ns3:TrackPointExtension>
        </extensions>
      </trkpt>
      <trkpt lat="46.77418294362723827362060546875" lon="6.75514332018792629241943359375">
        <ele>526.5999755859375</ele>
        <time>2017-05-05T12:57:49.000Z</time>
        <extensions>
          <ns3:TrackPointExtension>
            <ns3:hr>145</ns3:hr>
          </ns3:TrackPointExtension>
        </extensions>
      </trkpt>
      <trkpt lat="46.77412359975278377532958984375" lon="6.75533476285636425018310546875">
        <ele>526.5999755859375</ele>
        <time>2017-05-05T12:57:55.000Z</time>
        <extensions>
          <ns3:TrackPointExtension>
            <ns3:hr>148</ns3:hr>
          </ns3:TrackPointExtension>
        </extensions>
      </trkpt>
      <trkpt lat="46.774007342755794525146484375" lon="6.7554397881031036376953125">
        <ele>526.5999755859375</ele>
        <time>2017-05-05T12:58:02.000Z</time>
        <extensions>
          <ns3:TrackPointExtension>
            <ns3:hr>149</ns3:hr>
          </ns3:TrackPointExtension>
        </extensions>
      </trkpt>
      <trkpt lat="46.773984543979167938232421875" lon="6.75544984638690948486328125">
        <ele>526.5999755859375</ele>
        <time>2017-05-05T12:58:04.000Z</time>
        <extensions>
          <ns3:TrackPointExtension>
            <ns3:hr>150</ns3:hr>
          </ns3:TrackPointExtension>
        </extensions>
      </trkpt>
      <trkpt lat="46.77386761642992496490478515625" lon="6.7556811869144439697265625">
        <ele>527.79998779296875</ele>
        <time>2017-05-05T12:58:27.000Z</time>
        <extensions>
          <ns3:TrackPointExtension>
            <ns3:hr>151</ns3:hr>
          </ns3:TrackPointExtension>
        </extensions>
      </trkpt>
      <trkpt lat="46.773821599781513214111328125" lon="6.75571898929774761199951171875">
        <ele>529</ele>
        <time>2017-05-05T12:58:32.000Z</time>
        <extensions>
          <ns3:TrackPointExtension>
            <ns3:hr>149</ns3:hr>
          </ns3:TrackPointExtension>
        </extensions>
      </trkpt>
      <trkpt lat="46.77378295920789241790771484375" lon="6.75573038868606090545654296875">
        <ele>529.5999755859375</ele>
        <time>2017-05-05T12:58:35.000Z</time>
        <extensions>
          <ns3:TrackPointExtension>
            <ns3:hr>147</ns3:hr>
          </ns3:TrackPointExtension>
        </extensions>
      </trkpt>
      <trkpt lat="46.77374758757650852203369140625" lon="6.7557500861585140228271484375">
        <ele>530.20001220703125</ele>
        <time>2017-05-05T12:58:37.000Z</time>
        <extensions>
          <ns3:TrackPointExtension>
            <ns3:hr>147</ns3:hr>
          </ns3:TrackPointExtension>
        </extensions>
      </trkpt>
      <trkpt lat="46.77370727062225341796875" lon="6.75578185357153415679931640625">
        <ele>531.20001220703125</ele>
        <time>2017-05-05T12:58:41.000Z</time>
        <extensions>
          <ns3:TrackPointExtension>
            <ns3:hr>148</ns3:hr>
          </ns3:TrackPointExtension>
        </extensions>
      </trkpt>
      <trkpt lat="46.773676760494709014892578125" lon="6.7558003775775432586669921875">
        <ele>531.4000244140625</ele>
        <time>2017-05-05T12:58:43.000Z</time>
        <extensions>
          <ns3:TrackPointExtension>
            <ns3:hr>148</ns3:hr>
          </ns3:TrackPointExtension>
        </extensions>
      </trkpt>
      <trkpt lat="46.7736308276653289794921875" lon="6.75583985634148120880126953125">
        <ele>531.5999755859375</ele>
        <time>2017-05-05T12:58:46.000Z</time>
        <extensions>
          <ns3:TrackPointExtension>
            <ns3:hr>148</ns3:hr>
          </ns3:TrackPointExtension>
        </extensions>
      </trkpt>
      <trkpt lat="46.77349395118653774261474609375" lon="6.75595401786267757415771484375">
        <ele>531.79998779296875</ele>
        <time>2017-05-05T12:58:55.000Z</time>
        <extensions>
          <ns3:TrackPointExtension>
            <ns3:hr>150</ns3:hr>
          </ns3:TrackPointExtension>
        </extensions>
      </trkpt>
      <trkpt lat="46.773473918437957763671875" lon="6.75601403228938579559326171875">
        <ele>531.79998779296875</ele>
        <time>2017-05-05T12:58:58.000Z</time>
        <extensions>
          <ns3:TrackPointExtension>
            <ns3:hr>150</ns3:hr>
          </ns3:TrackPointExtension>
        </extensions>
      </trkpt>
      <trkpt lat="46.77344550378620624542236328125" lon="6.75602526403963565826416015625">
        <ele>532.20001220703125</ele>
        <time>2017-05-05T12:59:00.000Z</time>
        <extensions>
          <ns3:TrackPointExtension>
            <ns3:hr>150</ns3:hr>
          </ns3:TrackPointExtension>
        </extensions>
      </trkpt>
      <trkpt lat="46.7734372057020664215087890625" lon="6.75602224655449390411376953125">
        <ele>532.4000244140625</ele>
        <time>2017-05-05T12:59:01.000Z</time>
        <extensions>
          <ns3:TrackPointExtension>
            <ns3:hr>149</ns3:hr>
          </ns3:TrackPointExtension>
        </extensions>
      </trkpt>
      <trkpt lat="46.773393787443637847900390625" lon="6.75598855130374431610107421875">
        <ele>533.4000244140625</ele>
        <time>2017-05-05T12:59:08.000Z</time>
        <extensions>
          <ns3:TrackPointExtension>
            <ns3:hr>148</ns3:hr>
          </ns3:TrackPointExtension>
        </extensions>
      </trkpt>
      <trkpt lat="46.77336587570607662200927734375" lon="6.7559502460062503814697265625">
        <ele>534.4000244140625</ele>
        <time>2017-05-05T12:59:13.000Z</time>
        <extensions>
          <ns3:TrackPointExtension>
            <ns3:hr>148</ns3:hr>
          </ns3:TrackPointExtension>
        </extensions>
      </trkpt>
      <trkpt lat="46.7733346112072467803955078125" lon="6.7559676803648471832275390625">
        <ele>535.5999755859375</ele>
        <time>2017-05-05T12:59:18.000Z</time>
        <extensions>
          <ns3:TrackPointExtension>
            <ns3:hr>147</ns3:hr>
          </ns3:TrackPointExtension>
        </extensions>
      </trkpt>
      <trkpt lat="46.77328792400658130645751953125" lon="6.75600749440491199493408203125">
        <ele>536.79998779296875</ele>
        <time>2017-05-05T12:59:23.000Z</time>
        <extensions>
          <ns3:TrackPointExtension>
            <ns3:hr>145</ns3:hr>
          </ns3:TrackPointExtension>
        </extensions>
      </trkpt>
      <trkpt lat="46.77325330674648284912109375" lon="6.75602476112544536590576171875">
        <ele>537.79998779296875</ele>
        <time>2017-05-05T12:59:27.000Z</time>
        <extensions>
          <ns3:TrackPointExtension>
            <ns3:hr>146</ns3:hr>
          </ns3:TrackPointExtension>
        </extensions>
      </trkpt>
      <trkpt lat="46.7732427455484867095947265625" lon="6.75600078888237476348876953125">
        <ele>539</ele>
        <time>2017-05-05T12:59:31.000Z</time>
        <extensions>
          <ns3:TrackPointExtension>
            <ns3:hr>147</ns3:hr>
          </ns3:TrackPointExtension>
        </extensions>
      </trkpt>
      <trkpt lat="46.77326093427836894989013671875" lon="6.755983270704746246337890625">
        <ele>540.20001220703125</ele>
        <time>2017-05-05T12:59:34.000Z</time>
        <extensions>
          <ns3:TrackPointExtension>
            <ns3:hr>146</ns3:hr>
          </ns3:TrackPointExtension>
        </extensions>
      </trkpt>
      <trkpt lat="46.77327116020023822784423828125" lon="6.75594069063663482666015625">
        <ele>540.79998779296875</ele>
        <time>2017-05-05T12:59:39.000Z</time>
        <extensions>
          <ns3:TrackPointExtension>
            <ns3:hr>143</ns3:hr>
          </ns3:TrackPointExtension>
        </extensions>
      </trkpt>
      <trkpt lat="46.773262359201908111572265625" lon="6.75589081831276416778564453125">
        <ele>541.5999755859375</ele>
        <time>2017-05-05T12:59:42.000Z</time>
        <extensions>
          <ns3:TrackPointExtension>
            <ns3:hr>143</ns3:hr>
          </ns3:TrackPointExtension>
        </extensions>
      </trkpt>
      <trkpt lat="46.7732554860413074493408203125" lon="6.755835749208927154541015625">
        <ele>542.4000244140625</ele>
        <time>2017-05-05T12:59:45.000Z</time>
        <extensions>
          <ns3:TrackPointExtension>
            <ns3:hr>143</ns3:hr>
          </ns3:TrackPointExtension>
        </extensions>
      </trkpt>
      <trkpt lat="46.77326495759189128875732421875" lon="6.75581269897520542144775390625">
        <ele>542.5999755859375</ele>
        <time>2017-05-05T12:59:47.000Z</time>
        <extensions>
          <ns3:TrackPointExtension>
            <ns3:hr>143</ns3:hr>
          </ns3:TrackPointExtension>
        </extensions>
      </trkpt>
      <trkpt lat="46.7732819728553295135498046875" lon="6.75578914582729339599609375">
        <ele>543.4000244140625</ele>
        <time>2017-05-05T12:59:50.000Z</time>
        <extensions>
          <ns3:TrackPointExtension>
            <ns3:hr>146</ns3:hr>
          </ns3:TrackPointExtension>
        </extensions>
      </trkpt>
      <trkpt lat="46.77327032200992107391357421875" lon="6.75577975809574127197265625">
        <ele>543.79998779296875</ele>
        <time>2017-05-05T12:59:52.000Z</time>
        <extensions>
          <ns3:TrackPointExtension>
            <ns3:hr>146</ns3:hr>
          </ns3:TrackPointExtension>
        </extensions>
      </trkpt>
      <trkpt lat="46.77317895926535129547119140625" lon="6.75578922964632511138916015625">
        <ele>545</ele>
        <time>2017-05-05T12:59:59.000Z</time>
        <extensions>
          <ns3:TrackPointExtension>
            <ns3:hr>146</ns3:hr>
          </ns3:TrackPointExtension>
        </extensions>
      </trkpt>
      <trkpt lat="46.7731435038149356842041015625" lon="6.7557963542640209197998046875">
        <ele>546</ele>
        <time>2017-05-05T13:00:03.000Z</time>
        <extensions>
          <ns3:TrackPointExtension>
            <ns3:hr>146</ns3:hr>
          </ns3:TrackPointExtension>
        </extensions>
      </trkpt>
      <trkpt lat="46.77314057014882564544677734375" lon="6.7557879723608493804931640625">
        <ele>546.20001220703125</ele>
        <time>2017-05-05T13:00:04.000Z</time>
        <extensions>
          <ns3:TrackPointExtension>
            <ns3:hr>146</ns3:hr>
          </ns3:TrackPointExtension>
        </extensions>
      </trkpt>
      <trkpt lat="46.773151047527790069580078125" lon="6.7557723820209503173828125">
        <ele>547</ele>
        <time>2017-05-05T13:00:07.000Z</time>
        <extensions>
          <ns3:TrackPointExtension>
            <ns3:hr>147</ns3:hr>
          </ns3:TrackPointExtension>
        </extensions>
      </trkpt>
      <trkpt lat="46.773146353662014007568359375" lon="6.75573105923831462860107421875">
        <ele>548</ele>
        <time>2017-05-05T13:00:12.000Z</time>
        <extensions>
          <ns3:TrackPointExtension>
            <ns3:hr>147</ns3:hr>
          </ns3:TrackPointExtension>
        </extensions>
      </trkpt>
      <trkpt lat="46.7731431685388088226318359375" lon="6.75567783415317535400390625">
        <ele>549.4000244140625</ele>
        <time>2017-05-05T13:00:18.000Z</time>
        <extensions>
          <ns3:TrackPointExtension>
            <ns3:hr>148</ns3:hr>
          </ns3:TrackPointExtension>
        </extensions>
      </trkpt>
      <trkpt lat="46.7731314338743686676025390625" lon="6.75562477670609951019287109375">
        <ele>550.5999755859375</ele>
        <time>2017-05-05T13:00:23.000Z</time>
        <extensions>
          <ns3:TrackPointExtension>
            <ns3:hr>148</ns3:hr>
          </ns3:TrackPointExtension>
        </extensions>
      </trkpt>
      <trkpt lat="46.7730945535004138946533203125" lon="6.75561857409775257110595703125">
        <ele>551.79998779296875</ele>
        <time>2017-05-05T13:00:28.000Z</time>
        <extensions>
          <ns3:TrackPointExtension>
            <ns3:hr>146</ns3:hr>
          </ns3:TrackPointExtension>
        </extensions>
      </trkpt>
      <trkpt lat="46.77310804836452007293701171875" lon="6.75556157715618610382080078125">
        <ele>553</ele>
        <time>2017-05-05T13:00:34.000Z</time>
        <extensions>
          <ns3:TrackPointExtension>
            <ns3:hr>148</ns3:hr>
          </ns3:TrackPointExtension>
        </extensions>
      </trkpt>
      <trkpt lat="46.7730777896940708160400390625" lon="6.75553777255117893218994140625">
        <ele>554</ele>
        <time>2017-05-05T13:00:40.000Z</time>
        <extensions>
          <ns3:TrackPointExtension>
            <ns3:hr>148</ns3:hr>
          </ns3:TrackPointExtension>
        </extensions>
      </trkpt>
      <trkpt lat="46.77304702810943126678466796875" lon="6.75557834096252918243408203125">
        <ele>555</ele>
        <time>2017-05-05T13:00:46.000Z</time>
        <extensions>
          <ns3:TrackPointExtension>
            <ns3:hr>150</ns3:hr>
          </ns3:TrackPointExtension>
        </extensions>
      </trkpt>
      <trkpt lat="46.7730077169835567474365234375" lon="6.7555985413491725921630859375">
        <ele>556.20001220703125</ele>
        <time>2017-05-05T13:00:50.000Z</time>
        <extensions>
          <ns3:TrackPointExtension>
            <ns3:hr>149</ns3:hr>
          </ns3:TrackPointExtension>
        </extensions>
      </trkpt>
      <trkpt lat="46.77297863177955150604248046875" lon="6.7556538619101047515869140625">
        <ele>557.20001220703125</ele>
        <time>2017-05-05T13:00:54.000Z</time>
        <extensions>
          <ns3:TrackPointExtension>
            <ns3:hr>150</ns3:hr>
          </ns3:TrackPointExtension>
        </extensions>
      </trkpt>
      <trkpt lat="46.7729527316987514495849609375" lon="6.7556867189705371856689453125">
        <ele>557.79998779296875</ele>
        <time>2017-05-05T13:00:57.000Z</time>
        <extensions>
          <ns3:TrackPointExtension>
            <ns3:hr>150</ns3:hr>
          </ns3:TrackPointExtension>
        </extensions>
      </trkpt>
      <trkpt lat="46.77293018437922000885009765625" lon="6.7557085119187831878662109375">
        <ele>558.5999755859375</ele>
        <time>2017-05-05T13:01:00.000Z</time>
        <extensions>
          <ns3:TrackPointExtension>
            <ns3:hr>150</ns3:hr>
          </ns3:TrackPointExtension>
        </extensions>
      </trkpt>
      <trkpt lat="46.77290906198322772979736328125" lon="6.7557296343147754669189453125">
        <ele>559.20001220703125</ele>
        <time>2017-05-05T13:01:03.000Z</time>
        <extensions>
          <ns3:TrackPointExtension>
            <ns3:hr>150</ns3:hr>
          </ns3:TrackPointExtension>
        </extensions>
      </trkpt>
      <trkpt lat="46.7728967405855655670166015625" lon="6.755733825266361236572265625">
        <ele>559.5999755859375</ele>
        <time>2017-05-05T13:01:05.000Z</time>
        <extensions>
          <ns3:TrackPointExtension>
            <ns3:hr>150</ns3:hr>
          </ns3:TrackPointExtension>
        </extensions>
      </trkpt>
      <trkpt lat="46.772853992879390716552734375" lon="6.7557524330914020538330078125">
        <ele>560.79998779296875</ele>
        <time>2017-05-05T13:01:10.000Z</time>
        <extensions>
          <ns3:TrackPointExtension>
            <ns3:hr>149</ns3:hr>
          </ns3:TrackPointExtension>
        </extensions>
      </trkpt>
      <trkpt lat="46.77280479110777378082275390625" lon="6.75576827488839626312255859375">
        <ele>562.20001220703125</ele>
        <time>2017-05-05T13:01:15.000Z</time>
        <extensions>
          <ns3:TrackPointExtension>
            <ns3:hr>150</ns3:hr>
          </ns3:TrackPointExtension>
        </extensions>
      </trkpt>
      <trkpt lat="46.77273974753916263580322265625" lon="6.75575151108205318450927734375">
        <ele>563.4000244140625</ele>
        <time>2017-05-05T13:01:22.000Z</time>
        <extensions>
          <ns3:TrackPointExtension>
            <ns3:hr>150</ns3:hr>
          </ns3:TrackPointExtension>
        </extensions>
      </trkpt>
      <trkpt lat="46.772709824144840240478515625" lon="6.7557229287922382354736328125">
        <ele>564.4000244140625</ele>
        <time>2017-05-05T13:01:26.000Z</time>
        <extensions>
          <ns3:TrackPointExtension>
            <ns3:hr>149</ns3:hr>
          </ns3:TrackPointExtension>
        </extensions>
      </trkpt>
      <trkpt lat="46.77268258295953273773193359375" lon="6.75569786690175533294677734375">
        <ele>565.4000244140625</ele>
        <time>2017-05-05T13:01:30.000Z</time>
        <extensions>
          <ns3:TrackPointExtension>
            <ns3:hr>147</ns3:hr>
          </ns3:TrackPointExtension>
        </extensions>
      </trkpt>
      <trkpt lat="46.77266196347773075103759765625" lon="6.7556944303214550018310546875">
        <ele>566.79998779296875</ele>
        <time>2017-05-05T13:01:34.000Z</time>
        <extensions>
          <ns3:TrackPointExtension>
            <ns3:hr>148</ns3:hr>
          </ns3:TrackPointExtension>
        </extensions>
      </trkpt>
      <trkpt lat="46.7726261727511882781982421875" lon="6.755693256855010986328125">
        <ele>568</ele>
        <time>2017-05-05T13:01:38.000Z</time>
        <extensions>
          <ns3:TrackPointExtension>
            <ns3:hr>148</ns3:hr>
          </ns3:TrackPointExtension>
        </extensions>
      </trkpt>
      <trkpt lat="46.77261569537222385406494140625" lon="6.7556785047054290771484375">
        <ele>569</ele>
        <time>2017-05-05T13:01:41.000Z</time>
        <extensions>
          <ns3:TrackPointExtension>
            <ns3:hr>148</ns3:hr>
          </ns3:TrackPointExtension>
        </extensions>
      </trkpt>
      <trkpt lat="46.7725928127765655517578125" lon="6.75565612502396106719970703125">
        <ele>570</ele>
        <time>2017-05-05T13:01:46.000Z</time>
        <extensions>
          <ns3:TrackPointExtension>
            <ns3:hr>148</ns3:hr>
          </ns3:TrackPointExtension>
        </extensions>
      </trkpt>
      <trkpt lat="46.7725617997348308563232421875" lon="6.755624525249004364013671875">
        <ele>571.20001220703125</ele>
        <time>2017-05-05T13:01:51.000Z</time>
        <extensions>
          <ns3:TrackPointExtension>
            <ns3:hr>150</ns3:hr>
          </ns3:TrackPointExtension>
        </extensions>
      </trkpt>
      <trkpt lat="46.77254193462431430816650390625" lon="6.75559493713080883026123046875">
        <ele>572.20001220703125</ele>
        <time>2017-05-05T13:01:55.000Z</time>
        <extensions>
          <ns3:TrackPointExtension>
            <ns3:hr>150</ns3:hr>
          </ns3:TrackPointExtension>
        </extensions>
      </trkpt>
      <trkpt lat="46.77251779474318027496337890625" lon="6.755570210516452789306640625">
        <ele>573.4000244140625</ele>
        <time>2017-05-05T13:01:59.000Z</time>
        <extensions>
          <ns3:TrackPointExtension>
            <ns3:hr>151</ns3:hr>
          </ns3:TrackPointExtension>
        </extensions>
      </trkpt>
      <trkpt lat="46.7724855244159698486328125" lon="6.75554112531244754791259765625">
        <ele>574.5999755859375</ele>
        <time>2017-05-05T13:02:05.000Z</time>
        <extensions>
          <ns3:TrackPointExtension>
            <ns3:hr>150</ns3:hr>
          </ns3:TrackPointExtension>
        </extensions>
      </trkpt>
      <trkpt lat="46.77244990132749080657958984375" lon="6.7555341683328151702880859375">
        <ele>575.79998779296875</ele>
        <time>2017-05-05T13:02:10.000Z</time>
        <extensions>
          <ns3:TrackPointExtension>
            <ns3:hr>150</ns3:hr>
          </ns3:TrackPointExtension>
        </extensions>
      </trkpt>
      <trkpt lat="46.77241779863834381103515625" lon="6.7555227689445018768310546875">
        <ele>576.79998779296875</ele>
        <time>2017-05-05T13:02:14.000Z</time>
        <extensions>
          <ns3:TrackPointExtension>
            <ns3:hr>150</ns3:hr>
          </ns3:TrackPointExtension>
        </extensions>
      </trkpt>
      <trkpt lat="46.77235954441130161285400390625" lon="6.75550776533782482147216796875">
        <ele>578</ele>
        <time>2017-05-05T13:02:20.000Z</time>
        <extensions>
          <ns3:TrackPointExtension>
            <ns3:hr>149</ns3:hr>
          </ns3:TrackPointExtension>
        </extensions>
      </trkpt>
      <trkpt lat="46.7722924053668975830078125" lon="6.75547800958156585693359375">
        <ele>578.79998779296875</ele>
        <time>2017-05-05T13:02:31.000Z</time>
        <extensions>
          <ns3:TrackPointExtension>
            <ns3:hr>148</ns3:hr>
          </ns3:TrackPointExtension>
        </extensions>
      </trkpt>
      <trkpt lat="46.77226449362933635711669921875" lon="6.75541640259325504302978515625">
        <ele>579</ele>
        <time>2017-05-05T13:02:34.000Z</time>
        <extensions>
          <ns3:TrackPointExtension>
            <ns3:hr>147</ns3:hr>
          </ns3:TrackPointExtension>
        </extensions>
      </trkpt>
      <trkpt lat="46.77218914031982421875" lon="6.7552870698273181915283203125">
        <ele>580.20001220703125</ele>
        <time>2017-05-05T13:02:42.000Z</time>
        <extensions>
          <ns3:TrackPointExtension>
            <ns3:hr>146</ns3:hr>
          </ns3:TrackPointExtension>
        </extensions>
      </trkpt>
      <trkpt lat="46.772139854729175567626953125" lon="6.75521993078291416168212890625">
        <ele>581.5999755859375</ele>
        <time>2017-05-05T13:02:47.000Z</time>
        <extensions>
          <ns3:TrackPointExtension>
            <ns3:hr>147</ns3:hr>
          </ns3:TrackPointExtension>
        </extensions>
      </trkpt>
      <trkpt lat="46.77207891829311847686767578125" lon="6.75516008399426937103271484375">
        <ele>582.79998779296875</ele>
        <time>2017-05-05T13:02:52.000Z</time>
        <extensions>
          <ns3:TrackPointExtension>
            <ns3:hr>150</ns3:hr>
          </ns3:TrackPointExtension>
        </extensions>
      </trkpt>
      <trkpt lat="46.77203700877726078033447265625" lon="6.75511197187006473541259765625">
        <ele>584.20001220703125</ele>
        <time>2017-05-05T13:02:56.000Z</time>
        <extensions>
          <ns3:TrackPointExtension>
            <ns3:hr>149</ns3:hr>
          </ns3:TrackPointExtension>
        </extensions>
      </trkpt>
      <trkpt lat="46.772002391517162322998046875" lon="6.75505556166172027587890625">
        <ele>585.4000244140625</ele>
        <time>2017-05-05T13:03:00.000Z</time>
        <extensions>
          <ns3:TrackPointExtension>
            <ns3:hr>149</ns3:hr>
          </ns3:TrackPointExtension>
        </extensions>
      </trkpt>
      <trkpt lat="46.77197565324604511260986328125" lon="6.75498892553150653839111328125">
        <ele>586.5999755859375</ele>
        <time>2017-05-05T13:03:04.000Z</time>
        <extensions>
          <ns3:TrackPointExtension>
            <ns3:hr>148</ns3:hr>
          </ns3:TrackPointExtension>
        </extensions>
      </trkpt>
      <trkpt lat="46.77193877287209033966064453125" lon="6.75491684116423130035400390625">
        <ele>587.5999755859375</ele>
        <time>2017-05-05T13:03:09.000Z</time>
        <extensions>
          <ns3:TrackPointExtension>
            <ns3:hr>147</ns3:hr>
          </ns3:TrackPointExtension>
        </extensions>
      </trkpt>
      <trkpt lat="46.77193340845406055450439453125" lon="6.75490074791014194488525390625">
        <ele>588</ele>
        <time>2017-05-05T13:03:10.000Z</time>
        <extensions>
          <ns3:TrackPointExtension>
            <ns3:hr>143</ns3:hr>
          </ns3:TrackPointExtension>
        </extensions>
      </trkpt>
      <trkpt lat="46.77193089388310909271240234375" lon="6.75488348118960857391357421875">
        <ele>588</ele>
        <time>2017-05-05T13:03:11.000Z</time>
        <extensions>
          <ns3:TrackPointExtension>
            <ns3:hr>140</ns3:hr>
          </ns3:TrackPointExtension>
        </extensions>
      </trkpt>
      <trkpt lat="46.7719153873622417449951171875" lon="6.75484626553952693939208984375">
        <ele>588.79998779296875</ele>
        <time>2017-05-05T13:03:13.000Z</time>
        <extensions>
          <ns3:TrackPointExtension>
            <ns3:hr>138</ns3:hr>
          </ns3:TrackPointExtension>
        </extensions>
      </trkpt>
      <trkpt lat="46.77189066074788570404052734375" lon="6.7548069544136524200439453125">
        <ele>589.5999755859375</ele>
        <time>2017-05-05T13:03:16.000Z</time>
        <extensions>
          <ns3:TrackPointExtension>
            <ns3:hr>135</ns3:hr>
          </ns3:TrackPointExtension>
        </extensions>
      </trkpt>
      <trkpt lat="46.77188278175890445709228515625" lon="6.7547885142266750335693359375">
        <ele>590</ele>
        <time>2017-05-05T13:03:17.000Z</time>
        <extensions>
          <ns3:TrackPointExtension>
            <ns3:hr>134</ns3:hr>
          </ns3:TrackPointExtension>
        </extensions>
      </trkpt>
      <trkpt lat="46.7718557082116603851318359375" lon="6.75473595969378948211669921875">
        <ele>591.20001220703125</ele>
        <time>2017-05-05T13:03:21.000Z</time>
        <extensions>
          <ns3:TrackPointExtension>
            <ns3:hr>132</ns3:hr>
          </ns3:TrackPointExtension>
        </extensions>
      </trkpt>
      <trkpt lat="46.771827377378940582275390625" lon="6.75469857640564441680908203125">
        <ele>592.4000244140625</ele>
        <time>2017-05-05T13:03:24.000Z</time>
        <extensions>
          <ns3:TrackPointExtension>
            <ns3:hr>134</ns3:hr>
          </ns3:TrackPointExtension>
        </extensions>
      </trkpt>
      <trkpt lat="46.77179963327944278717041015625" lon="6.75464677624404430389404296875">
        <ele>593.4000244140625</ele>
        <time>2017-05-05T13:03:28.000Z</time>
        <extensions>
          <ns3:TrackPointExtension>
            <ns3:hr>135</ns3:hr>
          </ns3:TrackPointExtension>
        </extensions>
      </trkpt>
      <trkpt lat="46.771769709885120391845703125" lon="6.75458156503736972808837890625">
        <ele>594.4000244140625</ele>
        <time>2017-05-05T13:03:32.000Z</time>
        <extensions>
          <ns3:TrackPointExtension>
            <ns3:hr>135</ns3:hr>
          </ns3:TrackPointExtension>
        </extensions>
      </trkpt>
      <trkpt lat="46.77174531854689121246337890625" lon="6.754520125687122344970703125">
        <ele>595.5999755859375</ele>
        <time>2017-05-05T13:03:36.000Z</time>
        <extensions>
          <ns3:TrackPointExtension>
            <ns3:hr>135</ns3:hr>
          </ns3:TrackPointExtension>
        </extensions>
      </trkpt>
      <trkpt lat="46.7717427201569080352783203125" lon="6.75448165275156497955322265625">
        <ele>596.79998779296875</ele>
        <time>2017-05-05T13:03:40.000Z</time>
        <extensions>
          <ns3:TrackPointExtension>
            <ns3:hr>136</ns3:hr>
          </ns3:TrackPointExtension>
        </extensions>
      </trkpt>
      <trkpt lat="46.771718077361583709716796875" lon="6.75440319813787937164306640625">
        <ele>598</ele>
        <time>2017-05-05T13:03:45.000Z</time>
        <extensions>
          <ns3:TrackPointExtension>
            <ns3:hr>137</ns3:hr>
          </ns3:TrackPointExtension>
        </extensions>
      </trkpt>
      <trkpt lat="46.77170508541166782379150390625" lon="6.75436195917427539825439453125">
        <ele>598.4000244140625</ele>
        <time>2017-05-05T13:03:47.000Z</time>
        <extensions>
          <ns3:TrackPointExtension>
            <ns3:hr>137</ns3:hr>
          </ns3:TrackPointExtension>
        </extensions>
      </trkpt>
      <trkpt lat="46.77169754169881343841552734375" lon="6.75433228723704814910888671875">
        <ele>599</ele>
        <time>2017-05-05T13:03:49.000Z</time>
        <extensions>
          <ns3:TrackPointExtension>
            <ns3:hr>138</ns3:hr>
          </ns3:TrackPointExtension>
        </extensions>
      </trkpt>
      <trkpt lat="46.77169100381433963775634765625" lon="6.75427998416125774383544921875">
        <ele>600</ele>
        <time>2017-05-05T13:03:53.000Z</time>
        <extensions>
          <ns3:TrackPointExtension>
            <ns3:hr>139</ns3:hr>
          </ns3:TrackPointExtension>
        </extensions>
      </trkpt>
      <trkpt lat="46.77169485948979854583740234375" lon="6.75421410240232944488525390625">
        <ele>600.79998779296875</ele>
        <time>2017-05-05T13:03:56.000Z</time>
        <extensions>
          <ns3:TrackPointExtension>
            <ns3:hr>141</ns3:hr>
          </ns3:TrackPointExtension>
        </extensions>
      </trkpt>
      <trkpt lat="46.77171028219163417816162109375" lon="6.75418040715157985687255859375">
        <ele>601.20001220703125</ele>
        <time>2017-05-05T13:03:57.000Z</time>
        <extensions>
          <ns3:TrackPointExtension>
            <ns3:hr>141</ns3:hr>
          </ns3:TrackPointExtension>
        </extensions>
      </trkpt>
      <trkpt lat="46.77173324860632419586181640625" lon="6.75408803857862949371337890625">
        <ele>602.4000244140625</ele>
        <time>2017-05-05T13:04:01.000Z</time>
        <extensions>
          <ns3:TrackPointExtension>
            <ns3:hr>143</ns3:hr>
          </ns3:TrackPointExtension>
        </extensions>
      </trkpt>
      <trkpt lat="46.77172251977026462554931640625" lon="6.75403070636093616485595703125">
        <ele>602.79998779296875</ele>
        <time>2017-05-05T13:04:04.000Z</time>
        <extensions>
          <ns3:TrackPointExtension>
            <ns3:hr>143</ns3:hr>
          </ns3:TrackPointExtension>
        </extensions>
      </trkpt>
      <trkpt lat="46.77154968492686748504638671875" lon="6.75381763838231563568115234375">
        <ele>603</ele>
        <time>2017-05-05T13:04:14.000Z</time>
        <extensions>
          <ns3:TrackPointExtension>
            <ns3:hr>146</ns3:hr>
          </ns3:TrackPointExtension>
        </extensions>
      </trkpt>
      <trkpt lat="46.77117970772087574005126953125" lon="6.75334556959569454193115234375">
        <ele>601.5999755859375</ele>
        <time>2017-05-05T13:04:23.000Z</time>
        <extensions>
          <ns3:TrackPointExtension>
            <ns3:hr>149</ns3:hr>
          </ns3:TrackPointExtension>
        </extensions>
      </trkpt>
      <trkpt lat="46.7711341939866542816162109375" lon="6.75328706391155719757080078125">
        <ele>601.4000244140625</ele>
        <time>2017-05-05T13:04:24.000Z</time>
        <extensions>
          <ns3:TrackPointExtension>
            <ns3:hr>149</ns3:hr>
          </ns3:TrackPointExtension>
        </extensions>
      </trkpt>
      <trkpt lat="46.77094258368015289306640625" lon="6.7530708946287631988525390625">
        <ele>600.20001220703125</ele>
        <time>2017-05-05T13:04:28.000Z</time>
        <extensions>
          <ns3:TrackPointExtension>
            <ns3:hr>150</ns3:hr>
          </ns3:TrackPointExtension>
        </extensions>
      </trkpt>
      <trkpt lat="46.77075876854360103607177734375" lon="6.75287852995097637176513671875">
        <ele>600</ele>
        <time>2017-05-05T13:04:32.000Z</time>
        <extensions>
          <ns3:TrackPointExtension>
            <ns3:hr>149</ns3:hr>
          </ns3:TrackPointExtension>
        </extensions>
      </trkpt>
      <trkpt lat="46.77042885683476924896240234375" lon="6.7525663040578365325927734375">
        <ele>600</ele>
        <time>2017-05-05T13:04:38.000Z</time>
        <extensions>
          <ns3:TrackPointExtension>
            <ns3:hr>147</ns3:hr>
          </ns3:TrackPointExtension>
        </extensions>
      </trkpt>
      <trkpt lat="46.77001428790390491485595703125" lon="6.75201569683849811553955078125">
        <ele>601</ele>
        <time>2017-05-05T13:04:49.000Z</time>
        <extensions>
          <ns3:TrackPointExtension>
            <ns3:hr>147</ns3:hr>
          </ns3:TrackPointExtension>
        </extensions>
      </trkpt>
      <trkpt lat="46.7699147947132587432861328125" lon="6.75188695080578327178955078125">
        <ele>601.4000244140625</ele>
        <time>2017-05-05T13:04:52.000Z</time>
        <extensions>
          <ns3:TrackPointExtension>
            <ns3:hr>150</ns3:hr>
          </ns3:TrackPointExtension>
        </extensions>
      </trkpt>
      <trkpt lat="46.7697236873209476470947265625" lon="6.75164538435637950897216796875">
        <ele>602.4000244140625</ele>
        <time>2017-05-05T13:04:58.000Z</time>
        <extensions>
          <ns3:TrackPointExtension>
            <ns3:hr>152</ns3:hr>
          </ns3:TrackPointExtension>
        </extensions>
      </trkpt>
      <trkpt lat="46.7696026526391506195068359375" lon="6.751493923366069793701171875">
        <ele>603.5999755859375</ele>
        <time>2017-05-05T13:05:02.000Z</time>
        <extensions>
          <ns3:TrackPointExtension>
            <ns3:hr>149</ns3:hr>
          </ns3:TrackPointExtension>
        </extensions>
      </trkpt>
      <trkpt lat="46.76948740147054195404052734375" lon="6.751339696347713470458984375">
        <ele>604.5999755859375</ele>
        <time>2017-05-05T13:05:06.000Z</time>
        <extensions>
          <ns3:TrackPointExtension>
            <ns3:hr>147</ns3:hr>
          </ns3:TrackPointExtension>
        </extensions>
      </trkpt>
      <trkpt lat="46.769305765628814697265625" lon="6.75120131112635135650634765625">
        <ele>605.79998779296875</ele>
        <time>2017-05-05T13:05:11.000Z</time>
        <extensions>
          <ns3:TrackPointExtension>
            <ns3:hr>145</ns3:hr>
          </ns3:TrackPointExtension>
        </extensions>
      </trkpt>
      <trkpt lat="46.76903645507991313934326171875" lon="6.7510501854121685028076171875">
        <ele>606.79998779296875</ele>
        <time>2017-05-05T13:05:17.000Z</time>
        <extensions>
          <ns3:TrackPointExtension>
            <ns3:hr>147</ns3:hr>
          </ns3:TrackPointExtension>
        </extensions>
      </trkpt>
      <trkpt lat="46.76859959028661251068115234375" lon="6.75080618821084499359130859375">
        <ele>606.79998779296875</ele>
        <time>2017-05-05T13:05:25.000Z</time>
        <extensions>
          <ns3:TrackPointExtension>
            <ns3:hr>150</ns3:hr>
          </ns3:TrackPointExtension>
        </extensions>
      </trkpt>
      <trkpt lat="46.76811528392136096954345703125" lon="6.7505170963704586029052734375">
        <ele>606.4000244140625</ele>
        <time>2017-05-05T13:05:33.000Z</time>
        <extensions>
          <ns3:TrackPointExtension>
            <ns3:hr>152</ns3:hr>
          </ns3:TrackPointExtension>
        </extensions>
      </trkpt>
      <trkpt lat="46.76764480769634246826171875" lon="6.7500560916960239410400390625">
        <ele>606</ele>
        <time>2017-05-05T13:05:41.000Z</time>
        <extensions>
          <ns3:TrackPointExtension>
            <ns3:hr>153</ns3:hr>
          </ns3:TrackPointExtension>
        </extensions>
      </trkpt>
      <trkpt lat="46.767184473574161529541015625" lon="6.7496086657047271728515625">
        <ele>606.20001220703125</ele>
        <time>2017-05-05T13:05:50.000Z</time>
        <extensions>
          <ns3:TrackPointExtension>
            <ns3:hr>152</ns3:hr>
          </ns3:TrackPointExtension>
        </extensions>
      </trkpt>
      <trkpt lat="46.76673092879354953765869140625" lon="6.7491414584219455718994140625">
        <ele>606.5999755859375</ele>
        <time>2017-05-05T13:05:59.000Z</time>
        <extensions>
          <ns3:TrackPointExtension>
            <ns3:hr>150</ns3:hr>
          </ns3:TrackPointExtension>
        </extensions>
      </trkpt>
      <trkpt lat="46.766467988491058349609375" lon="6.748857311904430389404296875">
        <ele>606.5999755859375</ele>
        <time>2017-05-05T13:06:04.000Z</time>
        <extensions>
          <ns3:TrackPointExtension>
            <ns3:hr>147</ns3:hr>
          </ns3:TrackPointExtension>
        </extensions>
      </trkpt>
      <trkpt lat="46.7660742066800594329833984375" lon="6.74830921925604343414306640625">
        <ele>606.20001220703125</ele>
        <time>2017-05-05T13:06:13.000Z</time>
        <extensions>
          <ns3:TrackPointExtension>
            <ns3:hr>147</ns3:hr>
          </ns3:TrackPointExtension>
        </extensions>
      </trkpt>
      <trkpt lat="46.76583959721028804779052734375" lon="6.747909486293792724609375">
        <ele>605.4000244140625</ele>
        <time>2017-05-05T13:06:19.000Z</time>
        <extensions>
          <ns3:TrackPointExtension>
            <ns3:hr>148</ns3:hr>
          </ns3:TrackPointExtension>
        </extensions>
      </trkpt>
      <trkpt lat="46.765579171478748321533203125" lon="6.74747270531952381134033203125">
        <ele>604.4000244140625</ele>
        <time>2017-05-05T13:06:25.000Z</time>
        <extensions>
          <ns3:TrackPointExtension>
            <ns3:hr>147</ns3:hr>
          </ns3:TrackPointExtension>
        </extensions>
      </trkpt>
      <trkpt lat="46.76539619453251361846923828125" lon="6.74727153964340686798095703125">
        <ele>603.5999755859375</ele>
        <time>2017-05-05T13:06:30.000Z</time>
        <extensions>
          <ns3:TrackPointExtension>
            <ns3:hr>145</ns3:hr>
          </ns3:TrackPointExtension>
        </extensions>
      </trkpt>
      <trkpt lat="46.7653079330921173095703125" lon="6.74733323045074939727783203125">
        <ele>602.4000244140625</ele>
        <time>2017-05-05T13:06:32.000Z</time>
        <extensions>
          <ns3:TrackPointExtension>
            <ns3:hr>145</ns3:hr>
          </ns3:TrackPointExtension>
        </extensions>
      </trkpt>
      <trkpt lat="46.76522277295589447021484375" lon="6.7473722063004970550537109375">
        <ele>601.20001220703125</ele>
        <time>2017-05-05T13:06:35.000Z</time>
        <extensions>
          <ns3:TrackPointExtension>
            <ns3:hr>146</ns3:hr>
          </ns3:TrackPointExtension>
        </extensions>
      </trkpt>
      <trkpt lat="46.7652252875268459320068359375" lon="6.7473648302257061004638671875">
        <ele>600.4000244140625</ele>
        <time>2017-05-05T13:06:53.000Z</time>
        <extensions>
          <ns3:TrackPointExtension>
            <ns3:hr>143</ns3:hr>
          </ns3:TrackPointExtension>
        </extensions>
      </trkpt>
      <trkpt lat="46.7652065120637416839599609375" lon="6.7474104277789592742919921875">
        <ele>600.4000244140625</ele>
        <time>2017-05-05T13:06:56.000Z</time>
        <extensions>
          <ns3:TrackPointExtension>
            <ns3:hr>143</ns3:hr>
          </ns3:TrackPointExtension>
        </extensions>
      </trkpt>
      <trkpt lat="46.76489286124706268310546875" lon="6.74766381271183490753173828125">
        <ele>600.20001220703125</ele>
        <time>2017-05-05T13:07:04.000Z</time>
        <extensions>
          <ns3:TrackPointExtension>
            <ns3:hr>143</ns3:hr>
          </ns3:TrackPointExtension>
        </extensions>
      </trkpt>
      <trkpt lat="46.76458935253322124481201171875" lon="6.747844778001308441162109375">
        <ele>599</ele>
        <time>2017-05-05T13:07:09.000Z</time>
        <extensions>
          <ns3:TrackPointExtension>
            <ns3:hr>142</ns3:hr>
          </ns3:TrackPointExtension>
        </extensions>
      </trkpt>
      <trkpt lat="46.76430973224341869354248046875" lon="6.7479720152914524078369140625">
        <ele>598</ele>
        <time>2017-05-05T13:07:13.000Z</time>
        <extensions>
          <ns3:TrackPointExtension>
            <ns3:hr>141</ns3:hr>
          </ns3:TrackPointExtension>
        </extensions>
      </trkpt>
      <trkpt lat="46.76421367563307285308837890625" lon="6.74806765280663967132568359375">
        <ele>597.79998779296875</ele>
        <time>2017-05-05T13:07:15.000Z</time>
        <extensions>
          <ns3:TrackPointExtension>
            <ns3:hr>141</ns3:hr>
          </ns3:TrackPointExtension>
        </extensions>
      </trkpt>
      <trkpt lat="46.76426446996629238128662109375" lon="6.74828474409878253936767578125">
        <ele>596.20001220703125</ele>
        <time>2017-05-05T13:07:18.000Z</time>
        <extensions>
          <ns3:TrackPointExtension>
            <ns3:hr>142</ns3:hr>
          </ns3:TrackPointExtension>
        </extensions>
      </trkpt>
      <trkpt lat="46.76435315050184726715087890625" lon="6.7483931221067905426025390625">
        <ele>595</ele>
        <time>2017-05-05T13:07:20.000Z</time>
        <extensions>
          <ns3:TrackPointExtension>
            <ns3:hr>143</ns3:hr>
          </ns3:TrackPointExtension>
        </extensions>
      </trkpt>
      <trkpt lat="46.764390952885150909423828125" lon="6.748456321656703948974609375">
        <ele>594.5999755859375</ele>
        <time>2017-05-05T13:07:21.000Z</time>
        <extensions>
          <ns3:TrackPointExtension>
            <ns3:hr>143</ns3:hr>
          </ns3:TrackPointExtension>
        </extensions>
      </trkpt>
      <trkpt lat="46.764563620090484619140625" lon="6.74880039878189563751220703125">
        <ele>593.79998779296875</ele>
        <time>2017-05-05T13:07:26.000Z</time>
        <extensions>
          <ns3:TrackPointExtension>
            <ns3:hr>144</ns3:hr>
          </ns3:TrackPointExtension>
        </extensions>
      </trkpt>
      <trkpt lat="46.76480912603437900543212890625" lon="6.7493449710309505462646484375">
        <ele>593.20001220703125</ele>
        <time>2017-05-05T13:07:33.000Z</time>
        <extensions>
          <ns3:TrackPointExtension>
            <ns3:hr>147</ns3:hr>
          </ns3:TrackPointExtension>
        </extensions>
      </trkpt>
      <trkpt lat="46.76487081684172153472900390625" lon="6.749527864158153533935546875">
        <ele>593.20001220703125</ele>
        <time>2017-05-05T13:07:35.000Z</time>
        <extensions>
          <ns3:TrackPointExtension>
            <ns3:hr>148</ns3:hr>
          </ns3:TrackPointExtension>
        </extensions>
      </trkpt>
      <trkpt lat="46.76491021178662776947021484375" lon="6.749731041491031646728515625">
        <ele>592.79998779296875</ele>
        <time>2017-05-05T13:07:37.000Z</time>
        <extensions>
          <ns3:TrackPointExtension>
            <ns3:hr>149</ns3:hr>
          </ns3:TrackPointExtension>
        </extensions>
      </trkpt>
      <trkpt lat="46.764917671680450439453125" lon="6.7498395033180713653564453125">
        <ele>592.5999755859375</ele>
        <time>2017-05-05T13:07:38.000Z</time>
        <extensions>
          <ns3:TrackPointExtension>
            <ns3:hr>149</ns3:hr>
          </ns3:TrackPointExtension>
        </extensions>
      </trkpt>
      <trkpt lat="46.7649082839488983154296875" lon="6.7501848377287387847900390625">
        <ele>591.4000244140625</ele>
        <time>2017-05-05T13:07:41.000Z</time>
        <extensions>
          <ns3:TrackPointExtension>
            <ns3:hr>150</ns3:hr>
          </ns3:TrackPointExtension>
        </extensions>
      </trkpt>
      <trkpt lat="46.7649007402360439300537109375" lon="6.7505445890128612518310546875">
        <ele>590.4000244140625</ele>
        <time>2017-05-05T13:07:44.000Z</time>
        <extensions>
          <ns3:TrackPointExtension>
            <ns3:hr>149</ns3:hr>
          </ns3:TrackPointExtension>
        </extensions>
      </trkpt>
      <trkpt lat="46.7648967169225215911865234375" lon="6.75135570578277111053466796875">
        <ele>589.4000244140625</ele>
        <time>2017-05-05T13:07:52.000Z</time>
        <extensions>
          <ns3:TrackPointExtension>
            <ns3:hr>147</ns3:hr>
          </ns3:TrackPointExtension>
        </extensions>
      </trkpt>
      <trkpt lat="46.7649144865572452545166015625" lon="6.75149417482316493988037109375">
        <ele>589.4000244140625</ele>
        <time>2017-05-05T13:07:54.000Z</time>
        <extensions>
          <ns3:TrackPointExtension>
            <ns3:hr>146</ns3:hr>
          </ns3:TrackPointExtension>
        </extensions>
      </trkpt>
      <trkpt lat="46.7649007402360439300537109375" lon="6.75162660889327526092529296875">
        <ele>589.5999755859375</ele>
        <time>2017-05-05T13:07:56.000Z</time>
        <extensions>
          <ns3:TrackPointExtension>
            <ns3:hr>146</ns3:hr>
          </ns3:TrackPointExtension>
        </extensions>
      </trkpt>
      <trkpt lat="46.76495497114956378936767578125" lon="6.75193808041512966156005859375">
        <ele>591.4000244140625</ele>
        <time>2017-05-05T13:08:02.000Z</time>
        <extensions>
          <ns3:TrackPointExtension>
            <ns3:hr>145</ns3:hr>
          </ns3:TrackPointExtension>
        </extensions>
      </trkpt>
      <trkpt lat="46.765129901468753814697265625" lon="6.75220261327922344207763671875">
        <ele>592.5999755859375</ele>
        <time>2017-05-05T13:08:09.000Z</time>
        <extensions>
          <ns3:TrackPointExtension>
            <ns3:hr>145</ns3:hr>
          </ns3:TrackPointExtension>
        </extensions>
      </trkpt>
      <trkpt lat="46.76520776934921741485595703125" lon="6.7523292638361454010009765625">
        <ele>593.79998779296875</ele>
        <time>2017-05-05T13:08:12.000Z</time>
        <extensions>
          <ns3:TrackPointExtension>
            <ns3:hr>145</ns3:hr>
          </ns3:TrackPointExtension>
        </extensions>
      </trkpt>
      <trkpt lat="46.7653231881558895111083984375" lon="6.752480976283550262451171875">
        <ele>594.79998779296875</ele>
        <time>2017-05-05T13:08:16.000Z</time>
        <extensions>
          <ns3:TrackPointExtension>
            <ns3:hr>145</ns3:hr>
          </ns3:TrackPointExtension>
        </extensions>
      </trkpt>
      <trkpt lat="46.76543190144002437591552734375" lon="6.75263461656868457794189453125">
        <ele>596.20001220703125</ele>
        <time>2017-05-05T13:08:20.000Z</time>
        <extensions>
          <ns3:TrackPointExtension>
            <ns3:hr>144</ns3:hr>
          </ns3:TrackPointExtension>
        </extensions>
      </trkpt>
      <trkpt lat="46.76566156558692455291748046875" lon="6.75285388715565204620361328125">
        <ele>597.20001220703125</ele>
        <time>2017-05-05T13:08:27.000Z</time>
        <extensions>
          <ns3:TrackPointExtension>
            <ns3:hr>145</ns3:hr>
          </ns3:TrackPointExtension>
        </extensions>
      </trkpt>
      <trkpt lat="46.765903718769550323486328125" lon="6.75307533703744411468505859375">
        <ele>597.20001220703125</ele>
        <time>2017-05-05T13:08:33.000Z</time>
        <extensions>
          <ns3:TrackPointExtension>
            <ns3:hr>148</ns3:hr>
          </ns3:TrackPointExtension>
        </extensions>
      </trkpt>
      <trkpt lat="46.766279898583889007568359375" lon="6.75333919934928417205810546875">
        <ele>596</ele>
        <time>2017-05-05T13:08:40.000Z</time>
        <extensions>
          <ns3:TrackPointExtension>
            <ns3:hr>149</ns3:hr>
          </ns3:TrackPointExtension>
        </extensions>
      </trkpt>
      <trkpt lat="46.76645164377987384796142578125" lon="6.753415726125240325927734375">
        <ele>595</ele>
        <time>2017-05-05T13:08:43.000Z</time>
        <extensions>
          <ns3:TrackPointExtension>
            <ns3:hr>149</ns3:hr>
          </ns3:TrackPointExtension>
        </extensions>
      </trkpt>
      <trkpt lat="46.76674358546733856201171875" lon="6.753457300364971160888671875">
        <ele>594</ele>
        <time>2017-05-05T13:08:48.000Z</time>
        <extensions>
          <ns3:TrackPointExtension>
            <ns3:hr>148</ns3:hr>
          </ns3:TrackPointExtension>
        </extensions>
      </trkpt>
      <trkpt lat="46.7673261277377605438232421875" lon="6.75349677912890911102294921875">
        <ele>594.5999755859375</ele>
        <time>2017-05-05T13:08:59.000Z</time>
        <extensions>
          <ns3:TrackPointExtension>
            <ns3:hr>147</ns3:hr>
          </ns3:TrackPointExtension>
        </extensions>
      </trkpt>
      <trkpt lat="46.76745344884693622589111328125" lon="6.75350817851722240447998046875">
        <ele>595</ele>
        <time>2017-05-05T13:09:02.000Z</time>
        <extensions>
          <ns3:TrackPointExtension>
            <ns3:hr>147</ns3:hr>
          </ns3:TrackPointExtension>
        </extensions>
      </trkpt>
      <trkpt lat="46.76771161146461963653564453125" lon="6.7535769939422607421875">
        <ele>596.20001220703125</ele>
        <time>2017-05-05T13:09:09.000Z</time>
        <extensions>
          <ns3:TrackPointExtension>
            <ns3:hr>148</ns3:hr>
          </ns3:TrackPointExtension>
        </extensions>
      </trkpt>
      <trkpt lat="46.76790456287562847137451171875" lon="6.7536975257098674774169921875">
        <ele>597.4000244140625</ele>
        <time>2017-05-05T13:09:15.000Z</time>
        <extensions>
          <ns3:TrackPointExtension>
            <ns3:hr>147</ns3:hr>
          </ns3:TrackPointExtension>
        </extensions>
      </trkpt>
      <trkpt lat="46.76803641021251678466796875" lon="6.75380959175527095794677734375">
        <ele>598.4000244140625</ele>
        <time>2017-05-05T13:09:20.000Z</time>
        <extensions>
          <ns3:TrackPointExtension>
            <ns3:hr>144</ns3:hr>
          </ns3:TrackPointExtension>
        </extensions>
      </trkpt>
      <trkpt lat="46.76816205494105815887451171875" lon="6.7539216578006744384765625">
        <ele>599</ele>
        <time>2017-05-05T13:09:25.000Z</time>
        <extensions>
          <ns3:TrackPointExtension>
            <ns3:hr>141</ns3:hr>
          </ns3:TrackPointExtension>
        </extensions>
      </trkpt>
      <trkpt lat="46.76823112182319164276123046875" lon="6.75396650098264217376708984375">
        <ele>599.5999755859375</ele>
        <time>2017-05-05T13:09:28.000Z</time>
        <extensions>
          <ns3:TrackPointExtension>
            <ns3:hr>140</ns3:hr>
          </ns3:TrackPointExtension>
        </extensions>
      </trkpt>
      <trkpt lat="46.7682950757443904876708984375" lon="6.753999106585979461669921875">
        <ele>600.79998779296875</ele>
        <time>2017-05-05T13:09:31.000Z</time>
        <extensions>
          <ns3:TrackPointExtension>
            <ns3:hr>139</ns3:hr>
          </ns3:TrackPointExtension>
        </extensions>
      </trkpt>
      <trkpt lat="46.7684117518365383148193359375" lon="6.75406591035425662994384765625">
        <ele>601.4000244140625</ele>
        <time>2017-05-05T13:09:35.000Z</time>
        <extensions>
          <ns3:TrackPointExtension>
            <ns3:hr>142</ns3:hr>
          </ns3:TrackPointExtension>
        </extensions>
      </trkpt>
      <trkpt lat="46.76857813261449337005615234375" lon="6.75419851206243038177490234375">
        <ele>601.5999755859375</ele>
        <time>2017-05-05T13:09:40.000Z</time>
        <extensions>
          <ns3:TrackPointExtension>
            <ns3:hr>145</ns3:hr>
          </ns3:TrackPointExtension>
        </extensions>
      </trkpt>
      <trkpt lat="46.7686102353036403656005859375" lon="6.75422717817127704620361328125">
        <ele>601.79998779296875</ele>
        <time>2017-05-05T13:09:41.000Z</time>
        <extensions>
          <ns3:TrackPointExtension>
            <ns3:hr>145</ns3:hr>
          </ns3:TrackPointExtension>
        </extensions>
      </trkpt>
      <trkpt lat="46.7689401470124721527099609375" lon="6.75457217730581760406494140625">
        <ele>602.79998779296875</ele>
        <time>2017-05-05T13:09:53.000Z</time>
        <extensions>
          <ns3:TrackPointExtension>
            <ns3:hr>144</ns3:hr>
          </ns3:TrackPointExtension>
        </extensions>
      </trkpt>
      <trkpt lat="46.76905405707657337188720703125" lon="6.7547046951949596405029296875">
        <ele>603.79998779296875</ele>
        <time>2017-05-05T13:09:57.000Z</time>
        <extensions>
          <ns3:TrackPointExtension>
            <ns3:hr>145</ns3:hr>
          </ns3:TrackPointExtension>
        </extensions>
      </trkpt>
      <trkpt lat="46.7691957950592041015625" lon="6.75489219836890697479248046875">
        <ele>604.79998779296875</ele>
        <time>2017-05-05T13:10:03.000Z</time>
        <extensions>
          <ns3:TrackPointExtension>
            <ns3:hr>143</ns3:hr>
          </ns3:TrackPointExtension>
        </extensions>
      </trkpt>
      <trkpt lat="46.76934842951595783233642578125" lon="6.75505799241364002227783203125">
        <ele>606.20001220703125</ele>
        <time>2017-05-05T13:10:09.000Z</time>
        <extensions>
          <ns3:TrackPointExtension>
            <ns3:hr>140</ns3:hr>
          </ns3:TrackPointExtension>
        </extensions>
      </trkpt>
      <trkpt lat="46.7695620842278003692626953125" lon="6.75522051751613616943359375">
        <ele>607.20001220703125</ele>
        <time>2017-05-05T13:10:15.000Z</time>
        <extensions>
          <ns3:TrackPointExtension>
            <ns3:hr>140</ns3:hr>
          </ns3:TrackPointExtension>
        </extensions>
      </trkpt>
      <trkpt lat="46.7698816023766994476318359375" lon="6.75548966042697429656982421875">
        <ele>608.20001220703125</ele>
        <time>2017-05-05T13:10:27.000Z</time>
        <extensions>
          <ns3:TrackPointExtension>
            <ns3:hr>141</ns3:hr>
          </ns3:TrackPointExtension>
        </extensions>
      </trkpt>
      <trkpt lat="46.769971959292888641357421875" lon="6.75558127462863922119140625">
        <ele>609.4000244140625</ele>
        <time>2017-05-05T13:10:31.000Z</time>
        <extensions>
          <ns3:TrackPointExtension>
            <ns3:hr>142</ns3:hr>
          </ns3:TrackPointExtension>
        </extensions>
      </trkpt>
      <trkpt lat="46.77005351521074771881103515625" lon="6.7556712962687015533447265625">
        <ele>610.4000244140625</ele>
        <time>2017-05-05T13:10:35.000Z</time>
        <extensions>
          <ns3:TrackPointExtension>
            <ns3:hr>142</ns3:hr>
          </ns3:TrackPointExtension>
        </extensions>
      </trkpt>
      <trkpt lat="46.77020899951457977294921875" lon="6.75583566538989543914794921875">
        <ele>611.20001220703125</ele>
        <time>2017-05-05T13:10:42.000Z</time>
        <extensions>
          <ns3:TrackPointExtension>
            <ns3:hr>146</ns3:hr>
          </ns3:TrackPointExtension>
        </extensions>
      </trkpt>
      <trkpt lat="46.770225428044795989990234375" lon="6.755853854119777679443359375">
        <ele>611.4000244140625</ele>
        <time>2017-05-05T13:10:43.000Z</time>
        <extensions>
          <ns3:TrackPointExtension>
            <ns3:hr>149</ns3:hr>
          </ns3:TrackPointExtension>
        </extensions>
      </trkpt>
      <trkpt lat="46.7702433653175830841064453125" lon="6.75587707199156284332275390625">
        <ele>611.4000244140625</ele>
        <time>2017-05-05T13:10:44.000Z</time>
        <extensions>
          <ns3:TrackPointExtension>
            <ns3:hr>149</ns3:hr>
          </ns3:TrackPointExtension>
        </extensions>
      </trkpt>
      <trkpt lat="46.77042483352124691009521484375" lon="6.75611771643161773681640625">
        <ele>612.20001220703125</ele>
        <time>2017-05-05T13:10:52.000Z</time>
        <extensions>
          <ns3:TrackPointExtension>
            <ns3:hr>146</ns3:hr>
          </ns3:TrackPointExtension>
        </extensions>
      </trkpt>
      <trkpt lat="46.77044863812625408172607421875" lon="6.756152249872684478759765625">
        <ele>612.20001220703125</ele>
        <time>2017-05-05T13:10:53.000Z</time>
        <extensions>
          <ns3:TrackPointExtension>
            <ns3:hr>142</ns3:hr>
          </ns3:TrackPointExtension>
        </extensions>
      </trkpt>
      <trkpt lat="46.770466826856136322021484375" lon="6.75618770532310009002685546875">
        <ele>612.20001220703125</ele>
        <time>2017-05-05T13:10:54.000Z</time>
        <extensions>
          <ns3:TrackPointExtension>
            <ns3:hr>137</ns3:hr>
          </ns3:TrackPointExtension>
        </extensions>
      </trkpt>
      <trkpt lat="46.77048602141439914703369140625" lon="6.75622173584997653961181640625">
        <ele>612.4000244140625</ele>
        <time>2017-05-05T13:10:55.000Z</time>
        <extensions>
          <ns3:TrackPointExtension>
            <ns3:hr>137</ns3:hr>
          </ns3:TrackPointExtension>
        </extensions>
      </trkpt>
      <trkpt lat="46.77056732587516307830810546875" lon="6.7563177086412906646728515625">
        <ele>612.5999755859375</ele>
        <time>2017-05-05T13:10:58.000Z</time>
        <extensions>
          <ns3:TrackPointExtension>
            <ns3:hr>138</ns3:hr>
          </ns3:TrackPointExtension>
        </extensions>
      </trkpt>
      <trkpt lat="46.77067243494093418121337890625" lon="6.75646179355680942535400390625">
        <ele>612.5999755859375</ele>
        <time>2017-05-05T13:11:01.000Z</time>
        <extensions>
          <ns3:TrackPointExtension>
            <ns3:hr>141</ns3:hr>
          </ns3:TrackPointExtension>
        </extensions>
      </trkpt>
      <trkpt lat="46.7709538154304027557373046875" lon="6.7569084651768207550048828125">
        <ele>612.4000244140625</ele>
        <time>2017-05-05T13:11:07.000Z</time>
        <extensions>
          <ns3:TrackPointExtension>
            <ns3:hr>144</ns3:hr>
          </ns3:TrackPointExtension>
        </extensions>
      </trkpt>
      <trkpt lat="46.7710698209702968597412109375" lon="6.7570866644382476806640625">
        <ele>611</ele>
        <time>2017-05-05T13:11:09.000Z</time>
        <extensions>
          <ns3:TrackPointExtension>
            <ns3:hr>145</ns3:hr>
          </ns3:TrackPointExtension>
        </extensions>
      </trkpt>
      <trkpt lat="46.77117518149316310882568359375" lon="6.757224462926387786865234375">
        <ele>609.5999755859375</ele>
        <time>2017-05-05T13:11:11.000Z</time>
        <extensions>
          <ns3:TrackPointExtension>
            <ns3:hr>145</ns3:hr>
          </ns3:TrackPointExtension>
        </extensions>
      </trkpt>
      <trkpt lat="46.77130325697362422943115234375" lon="6.75733300857245922088623046875">
        <ele>608.4000244140625</ele>
        <time>2017-05-05T13:11:13.000Z</time>
        <extensions>
          <ns3:TrackPointExtension>
            <ns3:hr>145</ns3:hr>
          </ns3:TrackPointExtension>
        </extensions>
      </trkpt>
      <trkpt lat="46.771371066570281982421875" lon="6.75739000551402568817138671875">
        <ele>607.20001220703125</ele>
        <time>2017-05-05T13:11:14.000Z</time>
        <extensions>
          <ns3:TrackPointExtension>
            <ns3:hr>145</ns3:hr>
          </ns3:TrackPointExtension>
        </extensions>
      </trkpt>
      <trkpt lat="46.771506182849407196044921875" lon="6.75751104019582271575927734375">
        <ele>606</ele>
        <time>2017-05-05T13:11:16.000Z</time>
        <extensions>
          <ns3:TrackPointExtension>
            <ns3:hr>145</ns3:hr>
          </ns3:TrackPointExtension>
        </extensions>
      </trkpt>
      <trkpt lat="46.77169066853821277618408203125" lon="6.757706589996814727783203125">
        <ele>605</ele>
        <time>2017-05-05T13:11:19.000Z</time>
        <extensions>
          <ns3:TrackPointExtension>
            <ns3:hr>145</ns3:hr>
          </ns3:TrackPointExtension>
        </extensions>
      </trkpt>
      <trkpt lat="46.771874986588954925537109375" lon="6.75789627246558666229248046875">
        <ele>603.4000244140625</ele>
        <time>2017-05-05T13:11:22.000Z</time>
        <extensions>
          <ns3:TrackPointExtension>
            <ns3:hr>145</ns3:hr>
          </ns3:TrackPointExtension>
        </extensions>
      </trkpt>
      <trkpt lat="46.772305481135845184326171875" lon="6.7583850212395191192626953125">
        <ele>602.4000244140625</ele>
        <time>2017-05-05T13:11:30.000Z</time>
        <extensions>
          <ns3:TrackPointExtension>
            <ns3:hr>145</ns3:hr>
          </ns3:TrackPointExtension>
        </extensions>
      </trkpt>
      <trkpt lat="46.77265475504100322723388671875" lon="6.758788861334323883056640625">
        <ele>603.5999755859375</ele>
        <time>2017-05-05T13:11:40.000Z</time>
        <extensions>
          <ns3:TrackPointExtension>
            <ns3:hr>144</ns3:hr>
          </ns3:TrackPointExtension>
        </extensions>
      </trkpt>
      <trkpt lat="46.7727106623351573944091796875" lon="6.7588631249964237213134765625">
        <ele>604.79998779296875</ele>
        <time>2017-05-05T13:11:42.000Z</time>
        <extensions>
          <ns3:TrackPointExtension>
            <ns3:hr>144</ns3:hr>
          </ns3:TrackPointExtension>
        </extensions>
      </trkpt>
      <trkpt lat="46.77288576029241085052490234375" lon="6.7591062001883983612060546875">
        <ele>606</ele>
        <time>2017-05-05T13:11:48.000Z</time>
        <extensions>
          <ns3:TrackPointExtension>
            <ns3:hr>144</ns3:hr>
          </ns3:TrackPointExtension>
        </extensions>
      </trkpt>
      <trkpt lat="46.77317912690341472625732421875" lon="6.759474836289882659912109375">
        <ele>606.20001220703125</ele>
        <time>2017-05-05T13:11:57.000Z</time>
        <extensions>
          <ns3:TrackPointExtension>
            <ns3:hr>147</ns3:hr>
          </ns3:TrackPointExtension>
        </extensions>
      </trkpt>
      <trkpt lat="46.7734636925160884857177734375" lon="6.75973006524145603179931640625">
        <ele>605.20001220703125</ele>
        <time>2017-05-05T13:12:04.000Z</time>
        <extensions>
          <ns3:TrackPointExtension>
            <ns3:hr>150</ns3:hr>
          </ns3:TrackPointExtension>
        </extensions>
      </trkpt>
      <trkpt lat="46.7735082842409610748291015625" lon="6.7597700469195842742919921875">
        <ele>605</ele>
        <time>2017-05-05T13:12:05.000Z</time>
        <extensions>
          <ns3:TrackPointExtension>
            <ns3:hr>150</ns3:hr>
          </ns3:TrackPointExtension>
        </extensions>
      </trkpt>
      <trkpt lat="46.7740009725093841552734375" lon="6.76025644876062870025634765625">
        <ele>604</ele>
        <time>2017-05-05T13:12:15.000Z</time>
        <extensions>
          <ns3:TrackPointExtension>
            <ns3:hr>149</ns3:hr>
          </ns3:TrackPointExtension>
        </extensions>
      </trkpt>
      <trkpt lat="46.77415209822356700897216796875" lon="6.760447137057781219482421875">
        <ele>603</ele>
        <time>2017-05-05T13:12:18.000Z</time>
        <extensions>
          <ns3:TrackPointExtension>
            <ns3:hr>149</ns3:hr>
          </ns3:TrackPointExtension>
        </extensions>
      </trkpt>
      <trkpt lat="46.7743603885173797607421875" lon="6.76071560941636562347412109375">
        <ele>601.79998779296875</ele>
        <time>2017-05-05T13:12:22.000Z</time>
        <extensions>
          <ns3:TrackPointExtension>
            <ns3:hr>147</ns3:hr>
          </ns3:TrackPointExtension>
        </extensions>
      </trkpt>
      <trkpt lat="46.77450053393840789794921875" lon="6.7608959041535854339599609375">
        <ele>600.79998779296875</ele>
        <time>2017-05-05T13:12:25.000Z</time>
        <extensions>
          <ns3:TrackPointExtension>
            <ns3:hr>145</ns3:hr>
          </ns3:TrackPointExtension>
        </extensions>
      </trkpt>
      <trkpt lat="46.77453045733273029327392578125" lon="6.7609584331512451171875">
        <ele>600.5999755859375</ele>
        <time>2017-05-05T13:12:26.000Z</time>
        <extensions>
          <ns3:TrackPointExtension>
            <ns3:hr>145</ns3:hr>
          </ns3:TrackPointExtension>
        </extensions>
      </trkpt>
      <trkpt lat="46.7745442874729633331298828125" lon="6.76102607510983943939208984375">
        <ele>600.5999755859375</ele>
        <time>2017-05-05T13:12:27.000Z</time>
        <extensions>
          <ns3:TrackPointExtension>
            <ns3:hr>144</ns3:hr>
          </ns3:TrackPointExtension>
        </extensions>
      </trkpt>
      <trkpt lat="46.77453699521720409393310546875" lon="6.76115482114255428314208984375">
        <ele>600.4000244140625</ele>
        <time>2017-05-05T13:12:29.000Z</time>
        <extensions>
          <ns3:TrackPointExtension>
            <ns3:hr>143</ns3:hr>
          </ns3:TrackPointExtension>
        </extensions>
      </trkpt>
      <trkpt lat="46.77440674044191837310791015625" lon="6.7616304941475391387939453125">
        <ele>601.5999755859375</ele>
        <time>2017-05-05T13:12:38.000Z</time>
        <extensions>
          <ns3:TrackPointExtension>
            <ns3:hr>142</ns3:hr>
          </ns3:TrackPointExtension>
        </extensions>
      </trkpt>
      <trkpt lat="46.7743394337594509124755859375" lon="6.7618501000106334686279296875">
        <ele>602.79998779296875</ele>
        <time>2017-05-05T13:12:43.000Z</time>
        <extensions>
          <ns3:TrackPointExtension>
            <ns3:hr>142</ns3:hr>
          </ns3:TrackPointExtension>
        </extensions>
      </trkpt>
      <trkpt lat="46.77425335161387920379638671875" lon="6.762056462466716766357421875">
        <ele>604</ele>
        <time>2017-05-05T13:12:49.000Z</time>
        <extensions>
          <ns3:TrackPointExtension>
            <ns3:hr>144</ns3:hr>
          </ns3:TrackPointExtension>
        </extensions>
      </trkpt>
      <trkpt lat="46.77420238964259624481201171875" lon="6.762175820767879486083984375">
        <ele>605.20001220703125</ele>
        <time>2017-05-05T13:12:53.000Z</time>
        <extensions>
          <ns3:TrackPointExtension>
            <ns3:hr>145</ns3:hr>
          </ns3:TrackPointExtension>
        </extensions>
      </trkpt>
      <trkpt lat="46.7741302214562892913818359375" lon="6.7622544430196285247802734375">
        <ele>606.5999755859375</ele>
        <time>2017-05-05T13:12:57.000Z</time>
        <extensions>
          <ns3:TrackPointExtension>
            <ns3:hr>145</ns3:hr>
          </ns3:TrackPointExtension>
        </extensions>
      </trkpt>
      <trkpt lat="46.77404279820621013641357421875" lon="6.76231605000793933868408203125">
        <ele>607.79998779296875</ele>
        <time>2017-05-05T13:13:01.000Z</time>
        <extensions>
          <ns3:TrackPointExtension>
            <ns3:hr>144</ns3:hr>
          </ns3:TrackPointExtension>
        </extensions>
      </trkpt>
      <trkpt lat="46.77397574298083782196044921875" lon="6.7623493261635303497314453125">
        <ele>609</ele>
        <time>2017-05-05T13:13:04.000Z</time>
        <extensions>
          <ns3:TrackPointExtension>
            <ns3:hr>143</ns3:hr>
          </ns3:TrackPointExtension>
        </extensions>
      </trkpt>
      <trkpt lat="46.773920170962810516357421875" lon="6.7623721249401569366455078125">
        <ele>610</ele>
        <time>2017-05-05T13:13:07.000Z</time>
        <extensions>
          <ns3:TrackPointExtension>
            <ns3:hr>143</ns3:hr>
          </ns3:TrackPointExtension>
        </extensions>
      </trkpt>
      <trkpt lat="46.7738549597561359405517578125" lon="6.76239852793514728546142578125">
        <ele>611</ele>
        <time>2017-05-05T13:13:10.000Z</time>
        <extensions>
          <ns3:TrackPointExtension>
            <ns3:hr>144</ns3:hr>
          </ns3:TrackPointExtension>
        </extensions>
      </trkpt>
      <trkpt lat="46.7737801931798458099365234375" lon="6.7624391801655292510986328125">
        <ele>612.4000244140625</ele>
        <time>2017-05-05T13:13:14.000Z</time>
        <extensions>
          <ns3:TrackPointExtension>
            <ns3:hr>144</ns3:hr>
          </ns3:TrackPointExtension>
        </extensions>
      </trkpt>
      <trkpt lat="46.77369721233844757080078125" lon="6.7624646611511707305908203125">
        <ele>613.5999755859375</ele>
        <time>2017-05-05T13:13:18.000Z</time>
        <extensions>
          <ns3:TrackPointExtension>
            <ns3:hr>143</ns3:hr>
          </ns3:TrackPointExtension>
        </extensions>
      </trkpt>
      <trkpt lat="46.7736182548105716705322265625" lon="6.7624891363084316253662109375">
        <ele>614.79998779296875</ele>
        <time>2017-05-05T13:13:22.000Z</time>
        <extensions>
          <ns3:TrackPointExtension>
            <ns3:hr>143</ns3:hr>
          </ns3:TrackPointExtension>
        </extensions>
      </trkpt>
      <trkpt lat="46.77357827313244342803955078125" lon="6.76249592565000057220458984375">
        <ele>615.20001220703125</ele>
        <time>2017-05-05T13:13:24.000Z</time>
        <extensions>
          <ns3:TrackPointExtension>
            <ns3:hr>147</ns3:hr>
          </ns3:TrackPointExtension>
        </extensions>
      </trkpt>
      <trkpt lat="46.77354558371007442474365234375" lon="6.7625100910663604736328125">
        <ele>616</ele>
        <time>2017-05-05T13:13:26.000Z</time>
        <extensions>
          <ns3:TrackPointExtension>
            <ns3:hr>147</ns3:hr>
          </ns3:TrackPointExtension>
        </extensions>
      </trkpt>
      <trkpt lat="46.7734658718109130859375" lon="6.76253481768071651458740234375">
        <ele>617.20001220703125</ele>
        <time>2017-05-05T13:13:30.000Z</time>
        <extensions>
          <ns3:TrackPointExtension>
            <ns3:hr>148</ns3:hr>
          </ns3:TrackPointExtension>
        </extensions>
      </trkpt>
      <trkpt lat="46.7734014987945556640625" lon="6.7625503242015838623046875">
        <ele>618.5999755859375</ele>
        <time>2017-05-05T13:13:33.000Z</time>
        <extensions>
          <ns3:TrackPointExtension>
            <ns3:hr>149</ns3:hr>
          </ns3:TrackPointExtension>
        </extensions>
      </trkpt>
      <trkpt lat="46.773305945098400115966796875" lon="6.7625970952212810516357421875">
        <ele>619.5999755859375</ele>
        <time>2017-05-05T13:13:38.000Z</time>
        <extensions>
          <ns3:TrackPointExtension>
            <ns3:hr>151</ns3:hr>
          </ns3:TrackPointExtension>
        </extensions>
      </trkpt>
      <trkpt lat="46.7732005007565021514892578125" lon="6.7626415193080902099609375">
        <ele>620.79998779296875</ele>
        <time>2017-05-05T13:13:43.000Z</time>
        <extensions>
          <ns3:TrackPointExtension>
            <ns3:hr>151</ns3:hr>
          </ns3:TrackPointExtension>
        </extensions>
      </trkpt>
      <trkpt lat="46.773135960102081298828125" lon="6.76267127506434917449951171875">
        <ele>621.79998779296875</ele>
        <time>2017-05-05T13:13:46.000Z</time>
        <extensions>
          <ns3:TrackPointExtension>
            <ns3:hr>152</ns3:hr>
          </ns3:TrackPointExtension>
        </extensions>
      </trkpt>
      <trkpt lat="46.77302221767604351043701171875" lon="6.76272290758788585662841796875">
        <ele>622.79998779296875</ele>
        <time>2017-05-05T13:13:51.000Z</time>
        <extensions>
          <ns3:TrackPointExtension>
            <ns3:hr>152</ns3:hr>
          </ns3:TrackPointExtension>
        </extensions>
      </trkpt>
      <trkpt lat="46.77292867563664913177490234375" lon="6.762779988348484039306640625">
        <ele>624</ele>
        <time>2017-05-05T13:13:55.000Z</time>
        <extensions>
          <ns3:TrackPointExtension>
            <ns3:hr>153</ns3:hr>
          </ns3:TrackPointExtension>
        </extensions>
      </trkpt>
      <trkpt lat="46.772790960967540740966796875" lon="6.7628472112119197845458984375">
        <ele>625</ele>
        <time>2017-05-05T13:14:01.000Z</time>
        <extensions>
          <ns3:TrackPointExtension>
            <ns3:hr>152</ns3:hr>
          </ns3:TrackPointExtension>
        </extensions>
      </trkpt>
      <trkpt lat="46.7726598680019378662109375" lon="6.7629109136760234832763671875">
        <ele>626</ele>
        <time>2017-05-05T13:14:07.000Z</time>
        <extensions>
          <ns3:TrackPointExtension>
            <ns3:hr>151</ns3:hr>
          </ns3:TrackPointExtension>
        </extensions>
      </trkpt>
      <trkpt lat="46.77251108922064304351806640625" lon="6.76299364306032657623291015625">
        <ele>627.4000244140625</ele>
        <time>2017-05-05T13:14:13.000Z</time>
        <extensions>
          <ns3:TrackPointExtension>
            <ns3:hr>153</ns3:hr>
          </ns3:TrackPointExtension>
        </extensions>
      </trkpt>
      <trkpt lat="46.7722912319004535675048828125" lon="6.76302532665431499481201171875">
        <ele>628.4000244140625</ele>
        <time>2017-05-05T13:14:20.000Z</time>
        <extensions>
          <ns3:TrackPointExtension>
            <ns3:hr>154</ns3:hr>
          </ns3:TrackPointExtension>
        </extensions>
      </trkpt>
      <trkpt lat="46.7721212469041347503662109375" lon="6.76304561085999011993408203125">
        <ele>628.5999755859375</ele>
        <time>2017-05-05T13:14:24.000Z</time>
        <extensions>
          <ns3:TrackPointExtension>
            <ns3:hr>153</ns3:hr>
          </ns3:TrackPointExtension>
        </extensions>
      </trkpt>
      <trkpt lat="46.7719854600727558135986328125" lon="6.76311853341758251190185546875">
        <ele>629</ele>
        <time>2017-05-05T13:14:27.000Z</time>
        <extensions>
          <ns3:TrackPointExtension>
            <ns3:hr>153</ns3:hr>
          </ns3:TrackPointExtension>
        </extensions>
      </trkpt>
      <trkpt lat="46.7717559635639190673828125" lon="6.7633201181888580322265625">
        <ele>629.4000244140625</ele>
        <time>2017-05-05T13:14:33.000Z</time>
        <extensions>
          <ns3:TrackPointExtension>
            <ns3:hr>153</ns3:hr>
          </ns3:TrackPointExtension>
        </extensions>
      </trkpt>
      <trkpt lat="46.7715110443532466888427734375" lon="6.7637705616652965545654296875">
        <ele>630.4000244140625</ele>
        <time>2017-05-05T13:14:43.000Z</time>
        <extensions>
          <ns3:TrackPointExtension>
            <ns3:hr>152</ns3:hr>
          </ns3:TrackPointExtension>
        </extensions>
      </trkpt>
      <trkpt lat="46.7713992297649383544921875" lon="6.76399846561253070831298828125">
        <ele>631.4000244140625</ele>
        <time>2017-05-05T13:14:49.000Z</time>
        <extensions>
          <ns3:TrackPointExtension>
            <ns3:hr>149</ns3:hr>
          </ns3:TrackPointExtension>
        </extensions>
      </trkpt>
      <trkpt lat="46.7712704837322235107421875" lon="6.76414112560451030731201171875">
        <ele>632.79998779296875</ele>
        <time>2017-05-05T13:14:54.000Z</time>
        <extensions>
          <ns3:TrackPointExtension>
            <ns3:hr>147</ns3:hr>
          </ns3:TrackPointExtension>
        </extensions>
      </trkpt>
      <trkpt lat="46.77109136246144771575927734375" lon="6.764198206365108489990234375">
        <ele>633.79998779296875</ele>
        <time>2017-05-05T13:14:59.000Z</time>
        <extensions>
          <ns3:TrackPointExtension>
            <ns3:hr>148</ns3:hr>
          </ns3:TrackPointExtension>
        </extensions>
      </trkpt>
      <trkpt lat="46.7710049450397491455078125" lon="6.7642669379711151123046875">
        <ele>634.4000244140625</ele>
        <time>2017-05-05T13:15:02.000Z</time>
        <extensions>
          <ns3:TrackPointExtension>
            <ns3:hr>151</ns3:hr>
          </ns3:TrackPointExtension>
        </extensions>
      </trkpt>
      <trkpt lat="46.7709568329155445098876953125" lon="6.76431697793304920196533203125">
        <ele>634.4000244140625</ele>
        <time>2017-05-05T13:15:04.000Z</time>
        <extensions>
          <ns3:TrackPointExtension>
            <ns3:hr>152</ns3:hr>
          </ns3:TrackPointExtension>
        </extensions>
      </trkpt>
      <trkpt lat="46.7709910310804843902587890625" lon="6.764489896595478057861328125">
        <ele>635</ele>
        <time>2017-05-05T13:15:08.000Z</time>
        <extensions>
          <ns3:TrackPointExtension>
            <ns3:hr>154</ns3:hr>
          </ns3:TrackPointExtension>
        </extensions>
      </trkpt>
      <trkpt lat="46.7710746824741363525390625" lon="6.764635406434535980224609375">
        <ele>635.5999755859375</ele>
        <time>2017-05-05T13:15:11.000Z</time>
        <extensions>
          <ns3:TrackPointExtension>
            <ns3:hr>149</ns3:hr>
          </ns3:TrackPointExtension>
        </extensions>
      </trkpt>
      <trkpt lat="46.7711566574871540069580078125" lon="6.764791645109653472900390625">
        <ele>635.5999755859375</ele>
        <time>2017-05-05T13:15:14.000Z</time>
        <extensions>
          <ns3:TrackPointExtension>
            <ns3:hr>154</ns3:hr>
          </ns3:TrackPointExtension>
        </extensions>
      </trkpt>
      <trkpt lat="46.7712498642504215240478515625" lon="6.764939837157726287841796875">
        <ele>636</ele>
        <time>2017-05-05T13:15:17.000Z</time>
        <extensions>
          <ns3:TrackPointExtension>
            <ns3:hr>155</ns3:hr>
          </ns3:TrackPointExtension>
        </extensions>
      </trkpt>
      <trkpt lat="46.77127861417829990386962890625" lon="6.76499105058610439300537109375">
        <ele>636</ele>
        <time>2017-05-05T13:15:18.000Z</time>
        <extensions>
          <ns3:TrackPointExtension>
            <ns3:hr>156</ns3:hr>
          </ns3:TrackPointExtension>
        </extensions>
      </trkpt>
      <trkpt lat="46.77141339518129825592041015625" lon="6.765261031687259674072265625">
        <ele>636</ele>
        <time>2017-05-05T13:15:23.000Z</time>
        <extensions>
          <ns3:TrackPointExtension>
            <ns3:hr>159</ns3:hr>
          </ns3:TrackPointExtension>
        </extensions>
      </trkpt>
      <trkpt lat="46.77151255309581756591796875" lon="6.7654787935316562652587890625">
        <ele>636</ele>
        <time>2017-05-05T13:15:27.000Z</time>
        <extensions>
          <ns3:TrackPointExtension>
            <ns3:hr>160</ns3:hr>
          </ns3:TrackPointExtension>
        </extensions>
      </trkpt>
      <trkpt lat="46.771592013537883758544921875" lon="6.76560510881245136260986328125">
        <ele>636.20001220703125</ele>
        <time>2017-05-05T13:15:30.000Z</time>
        <extensions>
          <ns3:TrackPointExtension>
            <ns3:hr>158</ns3:hr>
          </ns3:TrackPointExtension>
        </extensions>
      </trkpt>
      <trkpt lat="46.77175135351717472076416015625" lon="6.76564089953899383544921875">
        <ele>636.20001220703125</ele>
        <time>2017-05-05T13:15:34.000Z</time>
        <extensions>
          <ns3:TrackPointExtension>
            <ns3:hr>157</ns3:hr>
          </ns3:TrackPointExtension>
        </extensions>
      </trkpt>
      <trkpt lat="46.77225879393517971038818359375" lon="6.766069717705249786376953125">
        <ele>636.20001220703125</ele>
        <time>2017-05-05T13:15:44.000Z</time>
        <extensions>
          <ns3:TrackPointExtension>
            <ns3:hr>154</ns3:hr>
          </ns3:TrackPointExtension>
        </extensions>
      </trkpt>
      <trkpt lat="46.7723861150443553924560546875" lon="6.76623090170323848724365234375">
        <ele>636.20001220703125</ele>
        <time>2017-05-05T13:15:46.000Z</time>
        <extensions>
          <ns3:TrackPointExtension>
            <ns3:hr>153</ns3:hr>
          </ns3:TrackPointExtension>
        </extensions>
      </trkpt>
      <trkpt lat="46.77249549888074398040771484375" lon="6.76644824445247650146484375">
        <ele>636</ele>
        <time>2017-05-05T13:15:48.000Z</time>
        <extensions>
          <ns3:TrackPointExtension>
            <ns3:hr>152</ns3:hr>
          </ns3:TrackPointExtension>
        </extensions>
      </trkpt>
      <trkpt lat="46.77264587022364139556884765625" lon="6.7669473029673099517822265625">
        <ele>634.4000244140625</ele>
        <time>2017-05-05T13:15:52.000Z</time>
        <extensions>
          <ns3:TrackPointExtension>
            <ns3:hr>150</ns3:hr>
          </ns3:TrackPointExtension>
        </extensions>
      </trkpt>
      <trkpt lat="46.77266196347773075103759765625" lon="6.767210327088832855224609375">
        <ele>633</ele>
        <time>2017-05-05T13:15:54.000Z</time>
        <extensions>
          <ns3:TrackPointExtension>
            <ns3:hr>150</ns3:hr>
          </ns3:TrackPointExtension>
        </extensions>
      </trkpt>
      <trkpt lat="46.7726664058864116668701171875" lon="6.76734385080635547637939453125">
        <ele>631.20001220703125</ele>
        <time>2017-05-05T13:15:55.000Z</time>
        <extensions>
          <ns3:TrackPointExtension>
            <ns3:hr>150</ns3:hr>
          </ns3:TrackPointExtension>
        </extensions>
      </trkpt>
      <trkpt lat="46.7726845107972621917724609375" lon="6.7674797214567661285400390625">
        <ele>630</ele>
        <time>2017-05-05T13:15:56.000Z</time>
        <extensions>
          <ns3:TrackPointExtension>
            <ns3:hr>150</ns3:hr>
          </ns3:TrackPointExtension>
        </extensions>
      </trkpt>
      <trkpt lat="46.7727368138730525970458984375" lon="6.7676014266908168792724609375">
        <ele>628.4000244140625</ele>
        <time>2017-05-05T13:15:57.000Z</time>
        <extensions>
          <ns3:TrackPointExtension>
            <ns3:hr>150</ns3:hr>
          </ns3:TrackPointExtension>
        </extensions>
      </trkpt>
      <trkpt lat="46.77278316579759120941162109375" lon="6.7677164264023303985595703125">
        <ele>627</ele>
        <time>2017-05-05T13:15:58.000Z</time>
        <extensions>
          <ns3:TrackPointExtension>
            <ns3:hr>150</ns3:hr>
          </ns3:TrackPointExtension>
        </extensions>
      </trkpt>
      <trkpt lat="46.7728360556066036224365234375" lon="6.767832934856414794921875">
        <ele>625.79998779296875</ele>
        <time>2017-05-05T13:15:59.000Z</time>
        <extensions>
          <ns3:TrackPointExtension>
            <ns3:hr>151</ns3:hr>
          </ns3:TrackPointExtension>
        </extensions>
      </trkpt>
      <trkpt lat="46.77287955768406391143798828125" lon="6.76796545274555683135986328125">
        <ele>624.5999755859375</ele>
        <time>2017-05-05T13:16:00.000Z</time>
        <extensions>
          <ns3:TrackPointExtension>
            <ns3:hr>151</ns3:hr>
          </ns3:TrackPointExtension>
        </extensions>
      </trkpt>
      <trkpt lat="46.77295482717454433441162109375" lon="6.76824892871081829071044921875">
        <ele>622.79998779296875</ele>
        <time>2017-05-05T13:16:02.000Z</time>
        <extensions>
          <ns3:TrackPointExtension>
            <ns3:hr>151</ns3:hr>
          </ns3:TrackPointExtension>
        </extensions>
      </trkpt>
      <trkpt lat="46.7729926295578479766845703125" lon="6.768392510712146759033203125">
        <ele>621.4000244140625</ele>
        <time>2017-05-05T13:16:03.000Z</time>
        <extensions>
          <ns3:TrackPointExtension>
            <ns3:hr>151</ns3:hr>
          </ns3:TrackPointExtension>
        </extensions>
      </trkpt>
      <trkpt lat="46.77302607335150241851806640625" lon="6.7685412056744098663330078125">
        <ele>620.4000244140625</ele>
        <time>2017-05-05T13:16:04.000Z</time>
        <extensions>
          <ns3:TrackPointExtension>
            <ns3:hr>151</ns3:hr>
          </ns3:TrackPointExtension>
        </extensions>
      </trkpt>
      <trkpt lat="46.7730523087084293365478515625" lon="6.76869727671146392822265625">
        <ele>619.20001220703125</ele>
        <time>2017-05-05T13:16:05.000Z</time>
        <extensions>
          <ns3:TrackPointExtension>
            <ns3:hr>151</ns3:hr>
          </ns3:TrackPointExtension>
        </extensions>
      </trkpt>
      <trkpt lat="46.77310301922261714935302734375" lon="6.7690099216997623443603515625">
        <ele>617.79998779296875</ele>
        <time>2017-05-05T13:16:07.000Z</time>
        <extensions>
          <ns3:TrackPointExtension>
            <ns3:hr>151</ns3:hr>
          </ns3:TrackPointExtension>
        </extensions>
      </trkpt>
      <trkpt lat="46.7731411568820476531982421875" lon="6.7691594548523426055908203125">
        <ele>616.5999755859375</ele>
        <time>2017-05-05T13:16:08.000Z</time>
        <extensions>
          <ns3:TrackPointExtension>
            <ns3:hr>151</ns3:hr>
          </ns3:TrackPointExtension>
        </extensions>
      </trkpt>
      <trkpt lat="46.77319404669106006622314453125" lon="6.76928945817053318023681640625">
        <ele>616</ele>
        <time>2017-05-05T13:16:09.000Z</time>
        <extensions>
          <ns3:TrackPointExtension>
            <ns3:hr>151</ns3:hr>
          </ns3:TrackPointExtension>
        </extensions>
      </trkpt>
      <trkpt lat="46.773254312574863433837890625" lon="6.76941099576652050018310546875">
        <ele>614.79998779296875</ele>
        <time>2017-05-05T13:16:10.000Z</time>
        <extensions>
          <ns3:TrackPointExtension>
            <ns3:hr>152</ns3:hr>
          </ns3:TrackPointExtension>
        </extensions>
      </trkpt>
      <trkpt lat="46.773314662277698516845703125" lon="6.76953680813312530517578125">
        <ele>613.4000244140625</ele>
        <time>2017-05-05T13:16:11.000Z</time>
        <extensions>
          <ns3:TrackPointExtension>
            <ns3:hr>152</ns3:hr>
          </ns3:TrackPointExtension>
        </extensions>
      </trkpt>
      <trkpt lat="46.7733701504766941070556640625" lon="6.76967234350740909576416015625">
        <ele>611.5999755859375</ele>
        <time>2017-05-05T13:16:12.000Z</time>
        <extensions>
          <ns3:TrackPointExtension>
            <ns3:hr>153</ns3:hr>
          </ns3:TrackPointExtension>
        </extensions>
      </trkpt>
      <trkpt lat="46.77341616712510585784912109375" lon="6.7698048613965511322021484375">
        <ele>610.20001220703125</ele>
        <time>2017-05-05T13:16:13.000Z</time>
        <extensions>
          <ns3:TrackPointExtension>
            <ns3:hr>153</ns3:hr>
          </ns3:TrackPointExtension>
        </extensions>
      </trkpt>
      <trkpt lat="46.77345522679388523101806640625" lon="6.7699344456195831298828125">
        <ele>608.5999755859375</ele>
        <time>2017-05-05T13:16:14.000Z</time>
        <extensions>
          <ns3:TrackPointExtension>
            <ns3:hr>153</ns3:hr>
          </ns3:TrackPointExtension>
        </extensions>
      </trkpt>
      <trkpt lat="46.77352513186633586883544921875" lon="6.77016310393810272216796875">
        <ele>607.4000244140625</ele>
        <time>2017-05-05T13:16:16.000Z</time>
        <extensions>
          <ns3:TrackPointExtension>
            <ns3:hr>154</ns3:hr>
          </ns3:TrackPointExtension>
        </extensions>
      </trkpt>
      <trkpt lat="46.773633845150470733642578125" lon="6.77080624736845493316650390625">
        <ele>607</ele>
        <time>2017-05-05T13:16:24.000Z</time>
        <extensions>
          <ns3:TrackPointExtension>
            <ns3:hr>155</ns3:hr>
          </ns3:TrackPointExtension>
        </extensions>
      </trkpt>
      <trkpt lat="46.7738462425768375396728515625" lon="6.77144142799079418182373046875">
        <ele>608.5999755859375</ele>
        <time>2017-05-05T13:16:32.000Z</time>
        <extensions>
          <ns3:TrackPointExtension>
            <ns3:hr>153</ns3:hr>
          </ns3:TrackPointExtension>
        </extensions>
      </trkpt>
      <trkpt lat="46.77392561919987201690673828125" lon="6.771748624742031097412109375">
        <ele>609.5999755859375</ele>
        <time>2017-05-05T13:16:37.000Z</time>
        <extensions>
          <ns3:TrackPointExtension>
            <ns3:hr>152</ns3:hr>
          </ns3:TrackPointExtension>
        </extensions>
      </trkpt>
      <trkpt lat="46.77397188730537891387939453125" lon="6.771960519254207611083984375">
        <ele>611</ele>
        <time>2017-05-05T13:16:43.000Z</time>
        <extensions>
          <ns3:TrackPointExtension>
            <ns3:hr>153</ns3:hr>
          </ns3:TrackPointExtension>
        </extensions>
      </trkpt>
      <trkpt lat="46.77399217151105403900146484375" lon="6.772011481225490570068359375">
        <ele>612</ele>
        <time>2017-05-05T13:16:45.000Z</time>
        <extensions>
          <ns3:TrackPointExtension>
            <ns3:hr>154</ns3:hr>
          </ns3:TrackPointExtension>
        </extensions>
      </trkpt>
      <trkpt lat="46.77399267442524433135986328125" lon="6.77206923253834247589111328125">
        <ele>613.20001220703125</ele>
        <time>2017-05-05T13:16:47.000Z</time>
        <extensions>
          <ns3:TrackPointExtension>
            <ns3:hr>154</ns3:hr>
          </ns3:TrackPointExtension>
        </extensions>
      </trkpt>
      <trkpt lat="46.77399015985429286956787109375" lon="6.77215020172297954559326171875">
        <ele>614.4000244140625</ele>
        <time>2017-05-05T13:16:50.000Z</time>
        <extensions>
          <ns3:TrackPointExtension>
            <ns3:hr>156</ns3:hr>
          </ns3:TrackPointExtension>
        </extensions>
      </trkpt>
      <trkpt lat="46.77399653010070323944091796875" lon="6.772263944149017333984375">
        <ele>615.5999755859375</ele>
        <time>2017-05-05T13:16:53.000Z</time>
        <extensions>
          <ns3:TrackPointExtension>
            <ns3:hr>155</ns3:hr>
          </ns3:TrackPointExtension>
        </extensions>
      </trkpt>
      <trkpt lat="46.77402720786631107330322265625" lon="6.7724637687206268310546875">
        <ele>617</ele>
        <time>2017-05-05T13:16:58.000Z</time>
        <extensions>
          <ns3:TrackPointExtension>
            <ns3:hr>152</ns3:hr>
          </ns3:TrackPointExtension>
        </extensions>
      </trkpt>
      <trkpt lat="46.774055622518062591552734375" lon="6.77261196076869964599609375">
        <ele>618</ele>
        <time>2017-05-05T13:17:03.000Z</time>
        <extensions>
          <ns3:TrackPointExtension>
            <ns3:hr>151</ns3:hr>
          </ns3:TrackPointExtension>
        </extensions>
      </trkpt>
      <trkpt lat="46.7740873061120510101318359375" lon="6.77271363325417041778564453125">
        <ele>619.4000244140625</ele>
        <time>2017-05-05T13:17:06.000Z</time>
        <extensions>
          <ns3:TrackPointExtension>
            <ns3:hr>151</ns3:hr>
          </ns3:TrackPointExtension>
        </extensions>
      </trkpt>
      <trkpt lat="46.7741379328072071075439453125" lon="6.7728464864194393157958984375">
        <ele>620.5999755859375</ele>
        <time>2017-05-05T13:17:10.000Z</time>
        <extensions>
          <ns3:TrackPointExtension>
            <ns3:hr>150</ns3:hr>
          </ns3:TrackPointExtension>
        </extensions>
      </trkpt>
      <trkpt lat="46.77429123781621456146240234375" lon="6.77324370481073856353759765625">
        <ele>621.5999755859375</ele>
        <time>2017-05-05T13:17:19.000Z</time>
        <extensions>
          <ns3:TrackPointExtension>
            <ns3:hr>151</ns3:hr>
          </ns3:TrackPointExtension>
        </extensions>
      </trkpt>
      <trkpt lat="46.77450899966061115264892578125" lon="6.77394644357264041900634765625">
        <ele>620</ele>
        <time>2017-05-05T13:17:26.000Z</time>
        <extensions>
          <ns3:TrackPointExtension>
            <ns3:hr>151</ns3:hr>
          </ns3:TrackPointExtension>
        </extensions>
      </trkpt>
      <trkpt lat="46.7745281942188739776611328125" lon="6.77404048852622509002685546875">
        <ele>618.5999755859375</ele>
        <time>2017-05-05T13:17:27.000Z</time>
        <extensions>
          <ns3:TrackPointExtension>
            <ns3:hr>152</ns3:hr>
          </ns3:TrackPointExtension>
        </extensions>
      </trkpt>
      <trkpt lat="46.77453816868364810943603515625" lon="6.77412916906177997589111328125">
        <ele>616.79998779296875</ele>
        <time>2017-05-05T13:17:28.000Z</time>
        <extensions>
          <ns3:TrackPointExtension>
            <ns3:hr>152</ns3:hr>
          </ns3:TrackPointExtension>
        </extensions>
      </trkpt>
      <trkpt lat="46.7745422758162021636962890625" lon="6.7742130719125270843505859375">
        <ele>615.20001220703125</ele>
        <time>2017-05-05T13:17:29.000Z</time>
        <extensions>
          <ns3:TrackPointExtension>
            <ns3:hr>152</ns3:hr>
          </ns3:TrackPointExtension>
        </extensions>
      </trkpt>
      <trkpt lat="46.77455409429967403411865234375" lon="6.7742957174777984619140625">
        <ele>612.5999755859375</ele>
        <time>2017-05-05T13:17:30.000Z</time>
        <extensions>
          <ns3:TrackPointExtension>
            <ns3:hr>152</ns3:hr>
          </ns3:TrackPointExtension>
        </extensions>
      </trkpt>
      <trkpt lat="46.7745816707611083984375" lon="6.7743716575205326080322265625">
        <ele>610.79998779296875</ele>
        <time>2017-05-05T13:17:31.000Z</time>
        <extensions>
          <ns3:TrackPointExtension>
            <ns3:hr>152</ns3:hr>
          </ns3:TrackPointExtension>
        </extensions>
      </trkpt>
      <trkpt lat="46.7746190540492534637451171875" lon="6.774439550936222076416015625">
        <ele>609.4000244140625</ele>
        <time>2017-05-05T13:17:32.000Z</time>
        <extensions>
          <ns3:TrackPointExtension>
            <ns3:hr>152</ns3:hr>
          </ns3:TrackPointExtension>
        </extensions>
      </trkpt>
      <trkpt lat="46.77465015091001987457275390625" lon="6.7745022475719451904296875">
        <ele>608.20001220703125</ele>
        <time>2017-05-05T13:17:33.000Z</time>
        <extensions>
          <ns3:TrackPointExtension>
            <ns3:hr>152</ns3:hr>
          </ns3:TrackPointExtension>
        </extensions>
      </trkpt>
      <trkpt lat="46.7746820859611034393310546875" lon="6.774555556476116180419921875">
        <ele>607.5999755859375</ele>
        <time>2017-05-05T13:17:34.000Z</time>
        <extensions>
          <ns3:TrackPointExtension>
            <ns3:hr>151</ns3:hr>
          </ns3:TrackPointExtension>
        </extensions>
      </trkpt>
      <trkpt lat="46.77471645176410675048828125" lon="6.77460257895290851593017578125">
        <ele>607</ele>
        <time>2017-05-05T13:17:35.000Z</time>
        <extensions>
          <ns3:TrackPointExtension>
            <ns3:hr>151</ns3:hr>
          </ns3:TrackPointExtension>
        </extensions>
      </trkpt>
      <trkpt lat="46.77499028854072093963623046875" lon="6.774700395762920379638671875">
        <ele>607.20001220703125</ele>
        <time>2017-05-05T13:17:48.000Z</time>
        <extensions>
          <ns3:TrackPointExtension>
            <ns3:hr>154</ns3:hr>
          </ns3:TrackPointExtension>
        </extensions>
      </trkpt>
      <trkpt lat="46.775057427585124969482421875" lon="6.77470550872385501861572265625">
        <ele>608.20001220703125</ele>
        <time>2017-05-05T13:17:51.000Z</time>
        <extensions>
          <ns3:TrackPointExtension>
            <ns3:hr>154</ns3:hr>
          </ns3:TrackPointExtension>
        </extensions>
      </trkpt>
      <trkpt lat="46.77517016418278217315673828125" lon="6.774714477360248565673828125">
        <ele>609.4000244140625</ele>
        <time>2017-05-05T13:17:56.000Z</time>
        <extensions>
          <ns3:TrackPointExtension>
            <ns3:hr>153</ns3:hr>
          </ns3:TrackPointExtension>
        </extensions>
      </trkpt>
      <trkpt lat="46.7752661369740962982177734375" lon="6.77472378127276897430419921875">
        <ele>610.4000244140625</ele>
        <time>2017-05-05T13:18:01.000Z</time>
        <extensions>
          <ns3:TrackPointExtension>
            <ns3:hr>152</ns3:hr>
          </ns3:TrackPointExtension>
        </extensions>
      </trkpt>
      <trkpt lat="46.77534333430230617523193359375" lon="6.774719841778278350830078125">
        <ele>611.4000244140625</ele>
        <time>2017-05-05T13:18:05.000Z</time>
        <extensions>
          <ns3:TrackPointExtension>
            <ns3:hr>152</ns3:hr>
          </ns3:TrackPointExtension>
        </extensions>
      </trkpt>
      <trkpt lat="46.77540980279445648193359375" lon="6.77471213042736053466796875">
        <ele>612.5999755859375</ele>
        <time>2017-05-05T13:18:09.000Z</time>
        <extensions>
          <ns3:TrackPointExtension>
            <ns3:hr>154</ns3:hr>
          </ns3:TrackPointExtension>
        </extensions>
      </trkpt>
      <trkpt lat="46.77550728432834148406982421875" lon="6.77474590949714183807373046875">
        <ele>613.79998779296875</ele>
        <time>2017-05-05T13:18:15.000Z</time>
        <extensions>
          <ns3:TrackPointExtension>
            <ns3:hr>153</ns3:hr>
          </ns3:TrackPointExtension>
        </extensions>
      </trkpt>
      <trkpt lat="46.7756141535937786102294921875" lon="6.77484892308712005615234375">
        <ele>615</ele>
        <time>2017-05-05T13:18:22.000Z</time>
        <extensions>
          <ns3:TrackPointExtension>
            <ns3:hr>153</ns3:hr>
          </ns3:TrackPointExtension>
        </extensions>
      </trkpt>
      <trkpt lat="46.77568028680980205535888671875" lon="6.7749171517789363861083984375">
        <ele>616.4000244140625</ele>
        <time>2017-05-05T13:18:27.000Z</time>
        <extensions>
          <ns3:TrackPointExtension>
            <ns3:hr>155</ns3:hr>
          </ns3:TrackPointExtension>
        </extensions>
      </trkpt>
      <trkpt lat="46.77573929540812969207763671875" lon="6.7750043235719203948974609375">
        <ele>617.5999755859375</ele>
        <time>2017-05-05T13:18:32.000Z</time>
        <extensions>
          <ns3:TrackPointExtension>
            <ns3:hr>154</ns3:hr>
          </ns3:TrackPointExtension>
        </extensions>
      </trkpt>
      <trkpt lat="46.7757918499410152435302734375" lon="6.77507850341498851776123046875">
        <ele>618.5999755859375</ele>
        <time>2017-05-05T13:18:36.000Z</time>
        <extensions>
          <ns3:TrackPointExtension>
            <ns3:hr>154</ns3:hr>
          </ns3:TrackPointExtension>
        </extensions>
      </trkpt>
      <trkpt lat="46.77584155462682247161865234375" lon="6.77518025971949100494384765625">
        <ele>619.79998779296875</ele>
        <time>2017-05-05T13:18:41.000Z</time>
        <extensions>
          <ns3:TrackPointExtension>
            <ns3:hr>155</ns3:hr>
          </ns3:TrackPointExtension>
        </extensions>
      </trkpt>
      <trkpt lat="46.77587558515369892120361328125" lon="6.77526759915053844451904296875">
        <ele>620.79998779296875</ele>
        <time>2017-05-05T13:18:45.000Z</time>
        <extensions>
          <ns3:TrackPointExtension>
            <ns3:hr>155</ns3:hr>
          </ns3:TrackPointExtension>
        </extensions>
      </trkpt>
      <trkpt lat="46.77590928040444850921630859375" lon="6.7753744684159755706787109375">
        <ele>622</ele>
        <time>2017-05-05T13:18:50.000Z</time>
        <extensions>
          <ns3:TrackPointExtension>
            <ns3:hr>155</ns3:hr>
          </ns3:TrackPointExtension>
        </extensions>
      </trkpt>
      <trkpt lat="46.7759333364665508270263671875" lon="6.77546574734151363372802734375">
        <ele>623</ele>
        <time>2017-05-05T13:18:54.000Z</time>
        <extensions>
          <ns3:TrackPointExtension>
            <ns3:hr>155</ns3:hr>
          </ns3:TrackPointExtension>
        </extensions>
      </trkpt>
      <trkpt lat="46.77598890848457813262939453125" lon="6.77562969736754894256591796875">
        <ele>624.20001220703125</ele>
        <time>2017-05-05T13:19:02.000Z</time>
        <extensions>
          <ns3:TrackPointExtension>
            <ns3:hr>152</ns3:hr>
          </ns3:TrackPointExtension>
        </extensions>
      </trkpt>
      <trkpt lat="46.775997541844844818115234375" lon="6.7757172882556915283203125">
        <ele>625.4000244140625</ele>
        <time>2017-05-05T13:19:06.000Z</time>
        <extensions>
          <ns3:TrackPointExtension>
            <ns3:hr>152</ns3:hr>
          </ns3:TrackPointExtension>
        </extensions>
      </trkpt>
      <trkpt lat="46.7760003916919231414794921875" lon="6.77579708397388458251953125">
        <ele>626.5999755859375</ele>
        <time>2017-05-05T13:19:10.000Z</time>
        <extensions>
          <ns3:TrackPointExtension>
            <ns3:hr>153</ns3:hr>
          </ns3:TrackPointExtension>
        </extensions>
      </trkpt>
      <trkpt lat="46.77605965174734592437744140625" lon="6.77587528713047504425048828125">
        <ele>627.79998779296875</ele>
        <time>2017-05-05T13:19:15.000Z</time>
        <extensions>
          <ns3:TrackPointExtension>
            <ns3:hr>154</ns3:hr>
          </ns3:TrackPointExtension>
        </extensions>
      </trkpt>
      <trkpt lat="46.7760748229920864105224609375" lon="6.7758830823004245758056640625">
        <ele>628</ele>
        <time>2017-05-05T13:19:16.000Z</time>
        <extensions>
          <ns3:TrackPointExtension>
            <ns3:hr>154</ns3:hr>
          </ns3:TrackPointExtension>
        </extensions>
      </trkpt>
      <trkpt lat="46.77616157568991184234619140625" lon="6.77583354525268077850341796875">
        <ele>629</ele>
        <time>2017-05-05T13:19:21.000Z</time>
        <extensions>
          <ns3:TrackPointExtension>
            <ns3:hr>155</ns3:hr>
          </ns3:TrackPointExtension>
        </extensions>
      </trkpt>
      <trkpt lat="46.776240952312946319580078125" lon="6.7757824994623661041259765625">
        <ele>629.5999755859375</ele>
        <time>2017-05-05T13:19:25.000Z</time>
        <extensions>
          <ns3:TrackPointExtension>
            <ns3:hr>158</ns3:hr>
          </ns3:TrackPointExtension>
        </extensions>
      </trkpt>
      <trkpt lat="46.776262409985065460205078125" lon="6.77576984278857707977294921875">
        <ele>630.20001220703125</ele>
        <time>2017-05-05T13:19:26.000Z</time>
        <extensions>
          <ns3:TrackPointExtension>
            <ns3:hr>159</ns3:hr>
          </ns3:TrackPointExtension>
        </extensions>
      </trkpt>
      <trkpt lat="46.77632871083915233612060546875" lon="6.77572709508240222930908203125">
        <ele>631.20001220703125</ele>
        <time>2017-05-05T13:19:29.000Z</time>
        <extensions>
          <ns3:TrackPointExtension>
            <ns3:hr>158</ns3:hr>
          </ns3:TrackPointExtension>
        </extensions>
      </trkpt>
      <trkpt lat="46.77641085349023342132568359375" lon="6.77566699683666229248046875">
        <ele>632.20001220703125</ele>
        <time>2017-05-05T13:19:33.000Z</time>
        <extensions>
          <ns3:TrackPointExtension>
            <ns3:hr>158</ns3:hr>
          </ns3:TrackPointExtension>
        </extensions>
      </trkpt>
      <trkpt lat="46.7764717899262905120849609375" lon="6.77563321776688098907470703125">
        <ele>633</ele>
        <time>2017-05-05T13:19:36.000Z</time>
        <extensions>
          <ns3:TrackPointExtension>
            <ns3:hr>161</ns3:hr>
          </ns3:TrackPointExtension>
        </extensions>
      </trkpt>
      <trkpt lat="46.77653322927653789520263671875" lon="6.7755893804132938385009765625">
        <ele>633.4000244140625</ele>
        <time>2017-05-05T13:19:39.000Z</time>
        <extensions>
          <ns3:TrackPointExtension>
            <ns3:hr>163</ns3:hr>
          </ns3:TrackPointExtension>
        </extensions>
      </trkpt>
      <trkpt lat="46.77669064141809940338134765625" lon="6.775464825332164764404296875">
        <ele>634.4000244140625</ele>
        <time>2017-05-05T13:19:46.000Z</time>
        <extensions>
          <ns3:TrackPointExtension>
            <ns3:hr>163</ns3:hr>
          </ns3:TrackPointExtension>
        </extensions>
      </trkpt>
      <trkpt lat="46.7768328823149204254150390625" lon="6.7753660865128040313720703125">
        <ele>635.4000244140625</ele>
        <time>2017-05-05T13:19:52.000Z</time>
        <extensions>
          <ns3:TrackPointExtension>
            <ns3:hr>160</ns3:hr>
          </ns3:TrackPointExtension>
        </extensions>
      </trkpt>
      <trkpt lat="46.77690773271024227142333984375" lon="6.7753282003104686737060546875">
        <ele>636.5999755859375</ele>
        <time>2017-05-05T13:19:55.000Z</time>
        <extensions>
          <ns3:TrackPointExtension>
            <ns3:hr>158</ns3:hr>
          </ns3:TrackPointExtension>
        </extensions>
      </trkpt>
      <trkpt lat="46.77707352675497531890869140625" lon="6.77520540542900562286376953125">
        <ele>637.79998779296875</ele>
        <time>2017-05-05T13:20:02.000Z</time>
        <extensions>
          <ns3:TrackPointExtension>
            <ns3:hr>157</ns3:hr>
          </ns3:TrackPointExtension>
        </extensions>
      </trkpt>
      <trkpt lat="46.7772207967936992645263671875" lon="6.77511370740830898284912109375">
        <ele>639</ele>
        <time>2017-05-05T13:20:08.000Z</time>
        <extensions>
          <ns3:TrackPointExtension>
            <ns3:hr>156</ns3:hr>
          </ns3:TrackPointExtension>
        </extensions>
      </trkpt>
      <trkpt lat="46.7773632891476154327392578125" lon="6.77502653561532497406005859375">
        <ele>640.20001220703125</ele>
        <time>2017-05-05T13:20:14.000Z</time>
        <extensions>
          <ns3:TrackPointExtension>
            <ns3:hr>157</ns3:hr>
          </ns3:TrackPointExtension>
        </extensions>
      </trkpt>
      <trkpt lat="46.77750318311154842376708984375" lon="6.77493182010948657989501953125">
        <ele>641.4000244140625</ele>
        <time>2017-05-05T13:20:20.000Z</time>
        <extensions>
          <ns3:TrackPointExtension>
            <ns3:hr>156</ns3:hr>
          </ns3:TrackPointExtension>
        </extensions>
      </trkpt>
      <trkpt lat="46.77761265076696872711181640625" lon="6.77485437132418155670166015625">
        <ele>642.5999755859375</ele>
        <time>2017-05-05T13:20:25.000Z</time>
        <extensions>
          <ns3:TrackPointExtension>
            <ns3:hr>156</ns3:hr>
          </ns3:TrackPointExtension>
        </extensions>
      </trkpt>
      <trkpt lat="46.7776412330567836761474609375" lon="6.77480961196124553680419921875">
        <ele>643</ele>
        <time>2017-05-05T13:20:27.000Z</time>
        <extensions>
          <ns3:TrackPointExtension>
            <ns3:hr>157</ns3:hr>
          </ns3:TrackPointExtension>
        </extensions>
      </trkpt>
      <trkpt lat="46.77763662301003932952880859375" lon="6.774762086570262908935546875">
        <ele>643.20001220703125</ele>
        <time>2017-05-05T13:20:29.000Z</time>
        <extensions>
          <ns3:TrackPointExtension>
            <ns3:hr>157</ns3:hr>
          </ns3:TrackPointExtension>
        </extensions>
      </trkpt>
      <trkpt lat="46.777614913880825042724609375" lon="6.77474440075457096099853515625">
        <ele>643.5999755859375</ele>
        <time>2017-05-05T13:20:30.000Z</time>
        <extensions>
          <ns3:TrackPointExtension>
            <ns3:hr>157</ns3:hr>
          </ns3:TrackPointExtension>
        </extensions>
      </trkpt>
      <trkpt lat="46.77712976932525634765625" lon="6.77428297698497772216796875">
        <ele>644.4000244140625</ele>
        <time>2017-05-05T13:20:41.000Z</time>
        <extensions>
          <ns3:TrackPointExtension>
            <ns3:hr>157</ns3:hr>
          </ns3:TrackPointExtension>
        </extensions>
      </trkpt>
      <trkpt lat="46.776645965874195098876953125" lon="6.7737477086484432220458984375">
        <ele>642.5999755859375</ele>
        <time>2017-05-05T13:20:49.000Z</time>
        <extensions>
          <ns3:TrackPointExtension>
            <ns3:hr>159</ns3:hr>
          </ns3:TrackPointExtension>
        </extensions>
      </trkpt>
      <trkpt lat="46.7765800841152667999267578125" lon="6.773677803575992584228515625">
        <ele>640.5999755859375</ele>
        <time>2017-05-05T13:20:50.000Z</time>
        <extensions>
          <ns3:TrackPointExtension>
            <ns3:hr>158</ns3:hr>
          </ns3:TrackPointExtension>
        </extensions>
      </trkpt>
      <trkpt lat="46.77651395089924335479736328125" lon="6.77360647358000278472900390625">
        <ele>639.4000244140625</ele>
        <time>2017-05-05T13:20:51.000Z</time>
        <extensions>
          <ns3:TrackPointExtension>
            <ns3:hr>158</ns3:hr>
          </ns3:TrackPointExtension>
        </extensions>
      </trkpt>
      <trkpt lat="46.77637648768723011016845703125" lon="6.77346129901707172393798828125">
        <ele>637.79998779296875</ele>
        <time>2017-05-05T13:20:53.000Z</time>
        <extensions>
          <ns3:TrackPointExtension>
            <ns3:hr>157</ns3:hr>
          </ns3:TrackPointExtension>
        </extensions>
      </trkpt>
      <trkpt lat="46.77624388597905635833740234375" lon="6.77330455742776393890380859375">
        <ele>637</ele>
        <time>2017-05-05T13:20:55.000Z</time>
        <extensions>
          <ns3:TrackPointExtension>
            <ns3:hr>156</ns3:hr>
          </ns3:TrackPointExtension>
        </extensions>
      </trkpt>
      <trkpt lat="46.7761841230094432830810546875" lon="6.77321973256766796112060546875">
        <ele>636.5999755859375</ele>
        <time>2017-05-05T13:20:56.000Z</time>
        <extensions>
          <ns3:TrackPointExtension>
            <ns3:hr>156</ns3:hr>
          </ns3:TrackPointExtension>
        </extensions>
      </trkpt>
      <trkpt lat="46.77607155404984951019287109375" lon="6.773035414516925811767578125">
        <ele>635</ele>
        <time>2017-05-05T13:20:58.000Z</time>
        <extensions>
          <ns3:TrackPointExtension>
            <ns3:hr>156</ns3:hr>
          </ns3:TrackPointExtension>
        </extensions>
      </trkpt>
      <trkpt lat="46.77597130648791790008544921875" lon="6.772840283811092376708984375">
        <ele>633.4000244140625</ele>
        <time>2017-05-05T13:21:00.000Z</time>
        <extensions>
          <ns3:TrackPointExtension>
            <ns3:hr>156</ns3:hr>
          </ns3:TrackPointExtension>
        </extensions>
      </trkpt>
      <trkpt lat="46.77587860263884067535400390625" lon="6.77265848033130168914794921875">
        <ele>632.4000244140625</ele>
        <time>2017-05-05T13:21:02.000Z</time>
        <extensions>
          <ns3:TrackPointExtension>
            <ns3:hr>156</ns3:hr>
          </ns3:TrackPointExtension>
        </extensions>
      </trkpt>
      <trkpt lat="46.7757938615977764129638671875" lon="6.77249033935368061065673828125">
        <ele>631</ele>
        <time>2017-05-05T13:21:04.000Z</time>
        <extensions>
          <ns3:TrackPointExtension>
            <ns3:hr>156</ns3:hr>
          </ns3:TrackPointExtension>
        </extensions>
      </trkpt>
      <trkpt lat="46.77546453662216663360595703125" lon="6.77188818342983722686767578125">
        <ele>630.20001220703125</ele>
        <time>2017-05-05T13:21:13.000Z</time>
        <extensions>
          <ns3:TrackPointExtension>
            <ns3:hr>154</ns3:hr>
          </ns3:TrackPointExtension>
        </extensions>
      </trkpt>
      <trkpt lat="46.77537820301949977874755859375" lon="6.77172423340380191802978515625">
        <ele>631.20001220703125</ele>
        <time>2017-05-05T13:21:16.000Z</time>
        <extensions>
          <ns3:TrackPointExtension>
            <ns3:hr>153</ns3:hr>
          </ns3:TrackPointExtension>
        </extensions>
      </trkpt>
      <trkpt lat="46.77525482140481472015380859375" lon="6.77131569944322109222412109375">
        <ele>631.79998779296875</ele>
        <time>2017-05-05T13:21:22.000Z</time>
        <extensions>
          <ns3:TrackPointExtension>
            <ns3:hr>150</ns3:hr>
          </ns3:TrackPointExtension>
        </extensions>
      </trkpt>
      <trkpt lat="46.7751642130315303802490234375" lon="6.77100020460784435272216796875">
        <ele>632.20001220703125</ele>
        <time>2017-05-05T13:21:27.000Z</time>
        <extensions>
          <ns3:TrackPointExtension>
            <ns3:hr>149</ns3:hr>
          </ns3:TrackPointExtension>
        </extensions>
      </trkpt>
      <trkpt lat="46.77501727826893329620361328125" lon="6.770384721457958221435546875">
        <ele>632.20001220703125</ele>
        <time>2017-05-05T13:21:35.000Z</time>
        <extensions>
          <ns3:TrackPointExtension>
            <ns3:hr>149</ns3:hr>
          </ns3:TrackPointExtension>
        </extensions>
      </trkpt>
      <trkpt lat="46.7750052921473979949951171875" lon="6.770000159740447998046875">
        <ele>632.5999755859375</ele>
        <time>2017-05-05T13:21:43.000Z</time>
        <extensions>
          <ns3:TrackPointExtension>
            <ns3:hr>153</ns3:hr>
          </ns3:TrackPointExtension>
        </extensions>
      </trkpt>
      <trkpt lat="46.775015853345394134521484375" lon="6.7698836512863636016845703125">
        <ele>633.4000244140625</ele>
        <time>2017-05-05T13:21:47.000Z</time>
        <extensions>
          <ns3:TrackPointExtension>
            <ns3:hr>153</ns3:hr>
          </ns3:TrackPointExtension>
        </extensions>
      </trkpt>
      <trkpt lat="46.77503890357911586761474609375" lon="6.76981617696583271026611328125">
        <ele>634.79998779296875</ele>
        <time>2017-05-05T13:21:50.000Z</time>
        <extensions>
          <ns3:TrackPointExtension>
            <ns3:hr>152</ns3:hr>
          </ns3:TrackPointExtension>
        </extensions>
      </trkpt>
      <trkpt lat="46.77505709230899810791015625" lon="6.76972766406834125518798828125">
        <ele>636</ele>
        <time>2017-05-05T13:21:54.000Z</time>
        <extensions>
          <ns3:TrackPointExtension>
            <ns3:hr>150</ns3:hr>
          </ns3:TrackPointExtension>
        </extensions>
      </trkpt>
      <trkpt lat="46.775057427585124969482421875" lon="6.76964635960757732391357421875">
        <ele>637.20001220703125</ele>
        <time>2017-05-05T13:21:57.000Z</time>
        <extensions>
          <ns3:TrackPointExtension>
            <ns3:hr>148</ns3:hr>
          </ns3:TrackPointExtension>
        </extensions>
      </trkpt>
      <trkpt lat="46.77505885250866413116455078125" lon="6.76956404931843280792236328125">
        <ele>638.20001220703125</ele>
        <time>2017-05-05T13:22:00.000Z</time>
        <extensions>
          <ns3:TrackPointExtension>
            <ns3:hr>145</ns3:hr>
          </ns3:TrackPointExtension>
        </extensions>
      </trkpt>
      <trkpt lat="46.77507058717310428619384765625" lon="6.7694759555160999298095703125">
        <ele>639.4000244140625</ele>
        <time>2017-05-05T13:22:04.000Z</time>
        <extensions>
          <ns3:TrackPointExtension>
            <ns3:hr>146</ns3:hr>
          </ns3:TrackPointExtension>
        </extensions>
      </trkpt>
      <trkpt lat="46.7750751972198486328125" lon="6.76939154975116252899169921875">
        <ele>640.5999755859375</ele>
        <time>2017-05-05T13:22:08.000Z</time>
        <extensions>
          <ns3:TrackPointExtension>
            <ns3:hr>146</ns3:hr>
          </ns3:TrackPointExtension>
        </extensions>
      </trkpt>
      <trkpt lat="46.7750834114849567413330078125" lon="6.7693297751247882843017578125">
        <ele>641.79998779296875</ele>
        <time>2017-05-05T13:22:11.000Z</time>
        <extensions>
          <ns3:TrackPointExtension>
            <ns3:hr>147</ns3:hr>
          </ns3:TrackPointExtension>
        </extensions>
      </trkpt>
      <trkpt lat="46.77508953027427196502685546875" lon="6.7692442797124385833740234375">
        <ele>642.79998779296875</ele>
        <time>2017-05-05T13:22:15.000Z</time>
        <extensions>
          <ns3:TrackPointExtension>
            <ns3:hr>149</ns3:hr>
          </ns3:TrackPointExtension>
        </extensions>
      </trkpt>
      <trkpt lat="46.775104701519012451171875" lon="6.769164986908435821533203125">
        <ele>644</ele>
        <time>2017-05-05T13:22:19.000Z</time>
        <extensions>
          <ns3:TrackPointExtension>
            <ns3:hr>149</ns3:hr>
          </ns3:TrackPointExtension>
        </extensions>
      </trkpt>
      <trkpt lat="46.77512322552502155303955078125" lon="6.76909650675952434539794921875">
        <ele>645</ele>
        <time>2017-05-05T13:22:23.000Z</time>
        <extensions>
          <ns3:TrackPointExtension>
            <ns3:hr>149</ns3:hr>
          </ns3:TrackPointExtension>
        </extensions>
      </trkpt>
      <trkpt lat="46.7751387320458889007568359375" lon="6.76900799386203289031982421875">
        <ele>646.20001220703125</ele>
        <time>2017-05-05T13:22:28.000Z</time>
        <extensions>
          <ns3:TrackPointExtension>
            <ns3:hr>148</ns3:hr>
          </ns3:TrackPointExtension>
        </extensions>
      </trkpt>
      <trkpt lat="46.775145269930362701416015625" lon="6.76895954646170139312744140625">
        <ele>647.5999755859375</ele>
        <time>2017-05-05T13:22:31.000Z</time>
        <extensions>
          <ns3:TrackPointExtension>
            <ns3:hr>148</ns3:hr>
          </ns3:TrackPointExtension>
        </extensions>
      </trkpt>
      <trkpt lat="46.77513093687593936920166015625" lon="6.7689036391675472259521484375">
        <ele>648.5999755859375</ele>
        <time>2017-05-05T13:22:34.000Z</time>
        <extensions>
          <ns3:TrackPointExtension>
            <ns3:hr>148</ns3:hr>
          </ns3:TrackPointExtension>
        </extensions>
      </trkpt>
      <trkpt lat="46.77512289024889469146728515625" lon="6.7688225023448467254638671875">
        <ele>649.79998779296875</ele>
        <time>2017-05-05T13:22:38.000Z</time>
        <extensions>
          <ns3:TrackPointExtension>
            <ns3:hr>147</ns3:hr>
          </ns3:TrackPointExtension>
        </extensions>
      </trkpt>
      <trkpt lat="46.7751397378742694854736328125" lon="6.7687054909765720367431640625">
        <ele>651</ele>
        <time>2017-05-05T13:22:42.000Z</time>
        <extensions>
          <ns3:TrackPointExtension>
            <ns3:hr>148</ns3:hr>
          </ns3:TrackPointExtension>
        </extensions>
      </trkpt>
      <trkpt lat="46.7751226387917995452880859375" lon="6.76856962032616138458251953125">
        <ele>652</ele>
        <time>2017-05-05T13:22:48.000Z</time>
        <extensions>
          <ns3:TrackPointExtension>
            <ns3:hr>151</ns3:hr>
          </ns3:TrackPointExtension>
        </extensions>
      </trkpt>
      <trkpt lat="46.77513613365590572357177734375" lon="6.76847775466740131378173828125">
        <ele>653.20001220703125</ele>
        <time>2017-05-05T13:22:52.000Z</time>
        <extensions>
          <ns3:TrackPointExtension>
            <ns3:hr>152</ns3:hr>
          </ns3:TrackPointExtension>
        </extensions>
      </trkpt>
      <trkpt lat="46.77515725605189800262451171875" lon="6.76833861507475376129150390625">
        <ele>654.4000244140625</ele>
        <time>2017-05-05T13:22:58.000Z</time>
        <extensions>
          <ns3:TrackPointExtension>
            <ns3:hr>154</ns3:hr>
          </ns3:TrackPointExtension>
        </extensions>
      </trkpt>
      <trkpt lat="46.77519011311233043670654296875" lon="6.76826083101332187652587890625">
        <ele>655.4000244140625</ele>
        <time>2017-05-05T13:23:02.000Z</time>
        <extensions>
          <ns3:TrackPointExtension>
            <ns3:hr>152</ns3:hr>
          </ns3:TrackPointExtension>
        </extensions>
      </trkpt>
      <trkpt lat="46.77525063045322895050048828125" lon="6.76818841136991977691650390625">
        <ele>656.4000244140625</ele>
        <time>2017-05-05T13:23:07.000Z</time>
        <extensions>
          <ns3:TrackPointExtension>
            <ns3:hr>151</ns3:hr>
          </ns3:TrackPointExtension>
        </extensions>
      </trkpt>
      <trkpt lat="46.77532774396240711212158203125" lon="6.7681388743221759796142578125">
        <ele>657.5999755859375</ele>
        <time>2017-05-05T13:23:13.000Z</time>
        <extensions>
          <ns3:TrackPointExtension>
            <ns3:hr>148</ns3:hr>
          </ns3:TrackPointExtension>
        </extensions>
      </trkpt>
      <trkpt lat="46.775394380092620849609375" lon="6.76811045967042446136474609375">
        <ele>658.5999755859375</ele>
        <time>2017-05-05T13:23:18.000Z</time>
        <extensions>
          <ns3:TrackPointExtension>
            <ns3:hr>147</ns3:hr>
          </ns3:TrackPointExtension>
        </extensions>
      </trkpt>
      <trkpt lat="46.77545481361448764801025390625" lon="6.76808296702802181243896484375">
        <ele>659.79998779296875</ele>
        <time>2017-05-05T13:23:22.000Z</time>
        <extensions>
          <ns3:TrackPointExtension>
            <ns3:hr>148</ns3:hr>
          </ns3:TrackPointExtension>
        </extensions>
      </trkpt>
      <trkpt lat="46.77546537481248378753662109375" lon="6.7680885829031467437744140625">
        <ele>660</ele>
        <time>2017-05-05T13:23:23.000Z</time>
        <extensions>
          <ns3:TrackPointExtension>
            <ns3:hr>148</ns3:hr>
          </ns3:TrackPointExtension>
        </extensions>
      </trkpt>
      <trkpt lat="46.77548297680914402008056640625" lon="6.76808967255055904388427734375">
        <ele>660.4000244140625</ele>
        <time>2017-05-05T13:23:25.000Z</time>
        <extensions>
          <ns3:TrackPointExtension>
            <ns3:hr>147</ns3:hr>
          </ns3:TrackPointExtension>
        </extensions>
      </trkpt>
      <trkpt lat="46.77553175948560237884521484375" lon="6.7680493555963039398193359375">
        <ele>661</ele>
        <time>2017-05-05T13:23:28.000Z</time>
        <extensions>
          <ns3:TrackPointExtension>
            <ns3:hr>147</ns3:hr>
          </ns3:TrackPointExtension>
        </extensions>
      </trkpt>
      <trkpt lat="46.7757083661854267120361328125" lon="6.76789797842502593994140625">
        <ele>662.20001220703125</ele>
        <time>2017-05-05T13:23:36.000Z</time>
        <extensions>
          <ns3:TrackPointExtension>
            <ns3:hr>146</ns3:hr>
          </ns3:TrackPointExtension>
        </extensions>
      </trkpt>
      <trkpt lat="46.7757603339850902557373046875" lon="6.76775523461401462554931640625">
        <ele>662.20001220703125</ele>
        <time>2017-05-05T13:23:40.000Z</time>
        <extensions>
          <ns3:TrackPointExtension>
            <ns3:hr>147</ns3:hr>
          </ns3:TrackPointExtension>
        </extensions>
      </trkpt>
      <trkpt lat="46.77573091350495815277099609375" lon="6.7671762965619564056396484375">
        <ele>662.4000244140625</ele>
        <time>2017-05-05T13:23:51.000Z</time>
        <extensions>
          <ns3:TrackPointExtension>
            <ns3:hr>147</ns3:hr>
          </ns3:TrackPointExtension>
        </extensions>
      </trkpt>
      <trkpt lat="46.7759179137647151947021484375" lon="6.76685082726180553436279296875">
        <ele>663.4000244140625</ele>
        <time>2017-05-05T13:24:06.000Z</time>
        <extensions>
          <ns3:TrackPointExtension>
            <ns3:hr>148</ns3:hr>
          </ns3:TrackPointExtension>
        </extensions>
      </trkpt>
      <trkpt lat="46.77592612802982330322265625" lon="6.76683448255062103271484375">
        <ele>664.4000244140625</ele>
        <time>2017-05-05T13:24:09.000Z</time>
        <extensions>
          <ns3:TrackPointExtension>
            <ns3:hr>149</ns3:hr>
          </ns3:TrackPointExtension>
        </extensions>
      </trkpt>
      <trkpt lat="46.77592453546822071075439453125" lon="6.7668259330093860626220703125">
        <ele>665.4000244140625</ele>
        <time>2017-05-05T13:24:13.000Z</time>
        <extensions>
          <ns3:TrackPointExtension>
            <ns3:hr>150</ns3:hr>
          </ns3:TrackPointExtension>
        </extensions>
      </trkpt>
      <trkpt lat="46.77592453546822071075439453125" lon="6.7668259330093860626220703125">
        <ele>666.5999755859375</ele>
        <time>2017-05-05T13:24:19.000Z</time>
        <extensions>
          <ns3:TrackPointExtension>
            <ns3:hr>150</ns3:hr>
          </ns3:TrackPointExtension>
        </extensions>
      </trkpt>
      <trkpt lat="46.77592453546822071075439453125" lon="6.7668259330093860626220703125">
        <ele>667.5999755859375</ele>
        <time>2017-05-05T13:24:27.000Z</time>
        <extensions>
          <ns3:TrackPointExtension>
            <ns3:hr>148</ns3:hr>
          </ns3:TrackPointExtension>
        </extensions>
      </trkpt>
      <trkpt lat="46.77592813968658447265625" lon="6.7668212391436100006103515625">
        <ele>668.5999755859375</ele>
        <time>2017-05-05T13:24:31.000Z</time>
        <extensions>
          <ns3:TrackPointExtension>
            <ns3:hr>149</ns3:hr>
          </ns3:TrackPointExtension>
        </extensions>
      </trkpt>
      <trkpt lat="46.77595563232898712158203125" lon="6.76679064519703388214111328125">
        <ele>670</ele>
        <time>2017-05-05T13:24:37.000Z</time>
        <extensions>
          <ns3:TrackPointExtension>
            <ns3:hr>151</ns3:hr>
          </ns3:TrackPointExtension>
        </extensions>
      </trkpt>
      <trkpt lat="46.77603475749492645263671875" lon="6.7665506713092327117919921875">
        <ele>671</ele>
        <time>2017-05-05T13:24:45.000Z</time>
        <extensions>
          <ns3:TrackPointExtension>
            <ns3:hr>150</ns3:hr>
          </ns3:TrackPointExtension>
        </extensions>
      </trkpt>
      <trkpt lat="46.77603249438107013702392578125" lon="6.76650783978402614593505859375">
        <ele>671</ele>
        <time>2017-05-05T13:24:46.000Z</time>
        <extensions>
          <ns3:TrackPointExtension>
            <ns3:hr>150</ns3:hr>
          </ns3:TrackPointExtension>
        </extensions>
      </trkpt>
      <trkpt lat="46.7760050855576992034912109375" lon="6.76596754230558872222900390625">
        <ele>670.79998779296875</ele>
        <time>2017-05-05T13:24:57.000Z</time>
        <extensions>
          <ns3:TrackPointExtension>
            <ns3:hr>150</ns3:hr>
          </ns3:TrackPointExtension>
        </extensions>
      </trkpt>
      <trkpt lat="46.77608714438974857330322265625" lon="6.76582890562713146209716796875">
        <ele>670</ele>
        <time>2017-05-05T13:25:01.000Z</time>
        <extensions>
          <ns3:TrackPointExtension>
            <ns3:hr>150</ns3:hr>
          </ns3:TrackPointExtension>
        </extensions>
      </trkpt>
      <trkpt lat="46.77611413411796092987060546875" lon="6.76575497724115848541259765625">
        <ele>669</ele>
        <time>2017-05-05T13:25:03.000Z</time>
        <extensions>
          <ns3:TrackPointExtension>
            <ns3:hr>150</ns3:hr>
          </ns3:TrackPointExtension>
        </extensions>
      </trkpt>
      <trkpt lat="46.77624355070292949676513671875" lon="6.7655706591904163360595703125">
        <ele>667.79998779296875</ele>
        <time>2017-05-05T13:25:08.000Z</time>
        <extensions>
          <ns3:TrackPointExtension>
            <ns3:hr>150</ns3:hr>
          </ns3:TrackPointExtension>
        </extensions>
      </trkpt>
      <trkpt lat="46.776306331157684326171875" lon="6.76537276245653629302978515625">
        <ele>666.79998779296875</ele>
        <time>2017-05-05T13:25:12.000Z</time>
        <extensions>
          <ns3:TrackPointExtension>
            <ns3:hr>150</ns3:hr>
          </ns3:TrackPointExtension>
        </extensions>
      </trkpt>
      <trkpt lat="46.77629115991294384002685546875" lon="6.76531274802982807159423828125">
        <ele>666.4000244140625</ele>
        <time>2017-05-05T13:25:13.000Z</time>
        <extensions>
          <ns3:TrackPointExtension>
            <ns3:hr>150</ns3:hr>
          </ns3:TrackPointExtension>
        </extensions>
      </trkpt>
      <trkpt lat="46.776269786059856414794921875" lon="6.7651760391891002655029296875">
        <ele>665.5999755859375</ele>
        <time>2017-05-05T13:25:15.000Z</time>
        <extensions>
          <ns3:TrackPointExtension>
            <ns3:hr>150</ns3:hr>
          </ns3:TrackPointExtension>
        </extensions>
      </trkpt>
      <trkpt lat="46.77627607248723506927490234375" lon="6.76510940305888652801513671875">
        <ele>665.20001220703125</ele>
        <time>2017-05-05T13:25:16.000Z</time>
        <extensions>
          <ns3:TrackPointExtension>
            <ns3:hr>150</ns3:hr>
          </ns3:TrackPointExtension>
        </extensions>
      </trkpt>
      <trkpt lat="46.77627875469624996185302734375" lon="6.76500211469829082489013671875">
        <ele>664</ele>
        <time>2017-05-05T13:25:18.000Z</time>
        <extensions>
          <ns3:TrackPointExtension>
            <ns3:hr>149</ns3:hr>
          </ns3:TrackPointExtension>
        </extensions>
      </trkpt>
      <trkpt lat="46.77627255208790302276611328125" lon="6.76488543860614299774169921875">
        <ele>662.5999755859375</ele>
        <time>2017-05-05T13:25:20.000Z</time>
        <extensions>
          <ns3:TrackPointExtension>
            <ns3:hr>149</ns3:hr>
          </ns3:TrackPointExtension>
        </extensions>
      </trkpt>
      <trkpt lat="46.776275150477886199951171875" lon="6.7647157050669193267822265625">
        <ele>661.4000244140625</ele>
        <time>2017-05-05T13:25:22.000Z</time>
        <extensions>
          <ns3:TrackPointExtension>
            <ns3:hr>149</ns3:hr>
          </ns3:TrackPointExtension>
        </extensions>
      </trkpt>
      <trkpt lat="46.7762934230268001556396484375" lon="6.764530129730701446533203125">
        <ele>660.20001220703125</ele>
        <time>2017-05-05T13:25:24.000Z</time>
        <extensions>
          <ns3:TrackPointExtension>
            <ns3:hr>149</ns3:hr>
          </ns3:TrackPointExtension>
        </extensions>
      </trkpt>
      <trkpt lat="46.77633650600910186767578125" lon="6.76433072425425052642822265625">
        <ele>659</ele>
        <time>2017-05-05T13:25:26.000Z</time>
        <extensions>
          <ns3:TrackPointExtension>
            <ns3:hr>149</ns3:hr>
          </ns3:TrackPointExtension>
        </extensions>
      </trkpt>
      <trkpt lat="46.7764111049473285675048828125" lon="6.7641527764499187469482421875">
        <ele>658.20001220703125</ele>
        <time>2017-05-05T13:25:28.000Z</time>
        <extensions>
          <ns3:TrackPointExtension>
            <ns3:hr>148</ns3:hr>
          </ns3:TrackPointExtension>
        </extensions>
      </trkpt>
      <trkpt lat="46.77651596255600452423095703125" lon="6.7640008963644504547119140625">
        <ele>657.4000244140625</ele>
        <time>2017-05-05T13:25:30.000Z</time>
        <extensions>
          <ns3:TrackPointExtension>
            <ns3:hr>148</ns3:hr>
          </ns3:TrackPointExtension>
        </extensions>
      </trkpt>
      <trkpt lat="46.776606403291225433349609375" lon="6.76384842954576015472412109375">
        <ele>655.5999755859375</ele>
        <time>2017-05-05T13:25:32.000Z</time>
        <extensions>
          <ns3:TrackPointExtension>
            <ns3:hr>148</ns3:hr>
          </ns3:TrackPointExtension>
        </extensions>
      </trkpt>
      <trkpt lat="46.77663766779005527496337890625" lon="6.76378757692873477935791015625">
        <ele>654.4000244140625</ele>
        <time>2017-05-05T13:25:33.000Z</time>
        <extensions>
          <ns3:TrackPointExtension>
            <ns3:hr>149</ns3:hr>
          </ns3:TrackPointExtension>
        </extensions>
      </trkpt>
      <trkpt lat="46.7766939103603363037109375" lon="6.76370258443057537078857421875">
        <ele>652.5999755859375</ele>
        <time>2017-05-05T13:25:35.000Z</time>
        <extensions>
          <ns3:TrackPointExtension>
            <ns3:hr>149</ns3:hr>
          </ns3:TrackPointExtension>
        </extensions>
      </trkpt>
      <trkpt lat="46.77674814127385616302490234375" lon="6.76359973847866058349609375">
        <ele>651.20001220703125</ele>
        <time>2017-05-05T13:25:37.000Z</time>
        <extensions>
          <ns3:TrackPointExtension>
            <ns3:hr>150</ns3:hr>
          </ns3:TrackPointExtension>
        </extensions>
      </trkpt>
      <trkpt lat="46.77681184373795986175537109375" lon="6.76339496858417987823486328125">
        <ele>650.20001220703125</ele>
        <time>2017-05-05T13:25:40.000Z</time>
        <extensions>
          <ns3:TrackPointExtension>
            <ns3:hr>152</ns3:hr>
          </ns3:TrackPointExtension>
        </extensions>
      </trkpt>
      <trkpt lat="46.77684118039906024932861328125" lon="6.763340570032596588134765625">
        <ele>650</ele>
        <time>2017-05-05T13:25:41.000Z</time>
        <extensions>
          <ns3:TrackPointExtension>
            <ns3:hr>152</ns3:hr>
          </ns3:TrackPointExtension>
        </extensions>
      </trkpt>
      <trkpt lat="46.7769401706755161285400390625" lon="6.7631787993013858795166015625">
        <ele>649</ele>
        <time>2017-05-05T13:25:44.000Z</time>
        <extensions>
          <ns3:TrackPointExtension>
            <ns3:hr>152</ns3:hr>
          </ns3:TrackPointExtension>
        </extensions>
      </trkpt>
      <trkpt lat="46.77699289284646511077880859375" lon="6.76308349706232547760009765625">
        <ele>647.79998779296875</ele>
        <time>2017-05-05T13:25:46.000Z</time>
        <extensions>
          <ns3:TrackPointExtension>
            <ns3:hr>152</ns3:hr>
          </ns3:TrackPointExtension>
        </extensions>
      </trkpt>
      <trkpt lat="46.7770058847963809967041015625" lon="6.7630349658429622650146484375">
        <ele>646.79998779296875</ele>
        <time>2017-05-05T13:25:47.000Z</time>
        <extensions>
          <ns3:TrackPointExtension>
            <ns3:hr>152</ns3:hr>
          </ns3:TrackPointExtension>
        </extensions>
      </trkpt>
      <trkpt lat="46.7770157754421234130859375" lon="6.7629840038716793060302734375">
        <ele>645.20001220703125</ele>
        <time>2017-05-05T13:25:48.000Z</time>
        <extensions>
          <ns3:TrackPointExtension>
            <ns3:hr>152</ns3:hr>
          </ns3:TrackPointExtension>
        </extensions>
      </trkpt>
      <trkpt lat="46.77704050205647945404052734375" lon="6.76287260837852954864501953125">
        <ele>643.5999755859375</ele>
        <time>2017-05-05T13:25:50.000Z</time>
        <extensions>
          <ns3:TrackPointExtension>
            <ns3:hr>152</ns3:hr>
          </ns3:TrackPointExtension>
        </extensions>
      </trkpt>
      <trkpt lat="46.77704192698001861572265625" lon="6.76281812600791454315185546875">
        <ele>643</ele>
        <time>2017-05-05T13:25:51.000Z</time>
        <extensions>
          <ns3:TrackPointExtension>
            <ns3:hr>151</ns3:hr>
          </ns3:TrackPointExtension>
        </extensions>
      </trkpt>
      <trkpt lat="46.77704972214996814727783203125" lon="6.76276196725666522979736328125">
        <ele>642.5999755859375</ele>
        <time>2017-05-05T13:25:52.000Z</time>
        <extensions>
          <ns3:TrackPointExtension>
            <ns3:hr>151</ns3:hr>
          </ns3:TrackPointExtension>
        </extensions>
      </trkpt>
      <trkpt lat="46.77706028334796428680419921875" lon="6.7626892961561679840087890625">
        <ele>642.4000244140625</ele>
        <time>2017-05-05T13:25:53.000Z</time>
        <extensions>
          <ns3:TrackPointExtension>
            <ns3:hr>151</ns3:hr>
          </ns3:TrackPointExtension>
        </extensions>
      </trkpt>
      <trkpt lat="46.77710361778736114501953125" lon="6.76255292259156703948974609375">
        <ele>641.20001220703125</ele>
        <time>2017-05-05T13:25:55.000Z</time>
        <extensions>
          <ns3:TrackPointExtension>
            <ns3:hr>150</ns3:hr>
          </ns3:TrackPointExtension>
        </extensions>
      </trkpt>
      <trkpt lat="46.7771597765386104583740234375" lon="6.76243004389107227325439453125">
        <ele>639.79998779296875</ele>
        <time>2017-05-05T13:25:57.000Z</time>
        <extensions>
          <ns3:TrackPointExtension>
            <ns3:hr>149</ns3:hr>
          </ns3:TrackPointExtension>
        </extensions>
      </trkpt>
      <trkpt lat="46.7771842516958713531494140625" lon="6.76237824372947216033935546875">
        <ele>639</ele>
        <time>2017-05-05T13:25:58.000Z</time>
        <extensions>
          <ns3:TrackPointExtension>
            <ns3:hr>149</ns3:hr>
          </ns3:TrackPointExtension>
        </extensions>
      </trkpt>
      <trkpt lat="46.77718944847583770751953125" lon="6.76230825483798980712890625">
        <ele>638.20001220703125</ele>
        <time>2017-05-05T13:25:59.000Z</time>
        <extensions>
          <ns3:TrackPointExtension>
            <ns3:hr>150</ns3:hr>
          </ns3:TrackPointExtension>
        </extensions>
      </trkpt>
      <trkpt lat="46.777228005230426788330078125" lon="6.7621907405555248260498046875">
        <ele>636.5999755859375</ele>
        <time>2017-05-05T13:26:01.000Z</time>
        <extensions>
          <ns3:TrackPointExtension>
            <ns3:hr>150</ns3:hr>
          </ns3:TrackPointExtension>
        </extensions>
      </trkpt>
      <trkpt lat="46.77725574932992458343505859375" lon="6.76213701255619525909423828125">
        <ele>635.5999755859375</ele>
        <time>2017-05-05T13:26:02.000Z</time>
        <extensions>
          <ns3:TrackPointExtension>
            <ns3:hr>150</ns3:hr>
          </ns3:TrackPointExtension>
        </extensions>
      </trkpt>
      <trkpt lat="46.7772918753325939178466796875" lon="6.76209107972681522369384765625">
        <ele>634.5999755859375</ele>
        <time>2017-05-05T13:26:03.000Z</time>
        <extensions>
          <ns3:TrackPointExtension>
            <ns3:hr>150</ns3:hr>
          </ns3:TrackPointExtension>
        </extensions>
      </trkpt>
      <trkpt lat="46.77732951007783412933349609375" lon="6.7620326578617095947265625">
        <ele>633.20001220703125</ele>
        <time>2017-05-05T13:26:04.000Z</time>
        <extensions>
          <ns3:TrackPointExtension>
            <ns3:hr>150</ns3:hr>
          </ns3:TrackPointExtension>
        </extensions>
      </trkpt>
      <trkpt lat="46.7774259857833385467529296875" lon="6.761896200478076934814453125">
        <ele>631.5999755859375</ele>
        <time>2017-05-05T13:26:06.000Z</time>
        <extensions>
          <ns3:TrackPointExtension>
            <ns3:hr>149</ns3:hr>
          </ns3:TrackPointExtension>
        </extensions>
      </trkpt>
      <trkpt lat="46.7775215394794940948486328125" lon="6.761848926544189453125">
        <ele>630.4000244140625</ele>
        <time>2017-05-05T13:26:08.000Z</time>
        <extensions>
          <ns3:TrackPointExtension>
            <ns3:hr>149</ns3:hr>
          </ns3:TrackPointExtension>
        </extensions>
      </trkpt>
      <trkpt lat="46.77758230827748775482177734375" lon="6.761818416416645050048828125">
        <ele>629.20001220703125</ele>
        <time>2017-05-05T13:26:10.000Z</time>
        <extensions>
          <ns3:TrackPointExtension>
            <ns3:hr>150</ns3:hr>
          </ns3:TrackPointExtension>
        </extensions>
      </trkpt>
      <trkpt lat="46.7776112258434295654296875" lon="6.76182285882532596588134765625">
        <ele>628.20001220703125</ele>
        <time>2017-05-05T13:26:11.000Z</time>
        <extensions>
          <ns3:TrackPointExtension>
            <ns3:hr>152</ns3:hr>
          </ns3:TrackPointExtension>
        </extensions>
      </trkpt>
      <trkpt lat="46.77763863466680049896240234375" lon="6.7618212662637233734130859375">
        <ele>627.20001220703125</ele>
        <time>2017-05-05T13:26:12.000Z</time>
        <extensions>
          <ns3:TrackPointExtension>
            <ns3:hr>156</ns3:hr>
          </ns3:TrackPointExtension>
        </extensions>
      </trkpt>
      <trkpt lat="46.77767232991755008697509765625" lon="6.76182135008275508880615234375">
        <ele>626.5999755859375</ele>
        <time>2017-05-05T13:26:13.000Z</time>
        <extensions>
          <ns3:TrackPointExtension>
            <ns3:hr>156</ns3:hr>
          </ns3:TrackPointExtension>
        </extensions>
      </trkpt>
      <trkpt lat="46.77770166657865047454833984375" lon="6.76182419992983341217041015625">
        <ele>626</ele>
        <time>2017-05-05T13:26:14.000Z</time>
        <extensions>
          <ns3:TrackPointExtension>
            <ns3:hr>157</ns3:hr>
          </ns3:TrackPointExtension>
        </extensions>
      </trkpt>
      <trkpt lat="46.77790082059800624847412109375" lon="6.76185362040996551513671875">
        <ele>625.20001220703125</ele>
        <time>2017-05-05T13:26:19.000Z</time>
        <extensions>
          <ns3:TrackPointExtension>
            <ns3:hr>160</ns3:hr>
          </ns3:TrackPointExtension>
        </extensions>
      </trkpt>
      <trkpt lat="46.77797734737396240234375" lon="6.7618851363658905029296875">
        <ele>625</ele>
        <time>2017-05-05T13:26:21.000Z</time>
        <extensions>
          <ns3:TrackPointExtension>
            <ns3:hr>160</ns3:hr>
          </ns3:TrackPointExtension>
        </extensions>
      </trkpt>
      <trkpt lat="46.77823760546743869781494140625" lon="6.76208068616688251495361328125">
        <ele>625.4000244140625</ele>
        <time>2017-05-05T13:26:28.000Z</time>
        <extensions>
          <ns3:TrackPointExtension>
            <ns3:hr>157</ns3:hr>
          </ns3:TrackPointExtension>
        </extensions>
      </trkpt>
      <trkpt lat="46.778269372880458831787109375" lon="6.76212209276854991912841796875">
        <ele>625.4000244140625</ele>
        <time>2017-05-05T13:26:29.000Z</time>
        <extensions>
          <ns3:TrackPointExtension>
            <ns3:hr>156</ns3:hr>
          </ns3:TrackPointExtension>
        </extensions>
      </trkpt>
      <trkpt lat="46.77837624214589595794677734375" lon="6.76239584572613239288330078125">
        <ele>626</ele>
        <time>2017-05-05T13:26:37.000Z</time>
        <extensions>
          <ns3:TrackPointExtension>
            <ns3:hr>157</ns3:hr>
          </ns3:TrackPointExtension>
        </extensions>
      </trkpt>
      <trkpt lat="46.77843374200165271759033203125" lon="6.762476228177547454833984375">
        <ele>627</ele>
        <time>2017-05-05T13:26:40.000Z</time>
        <extensions>
          <ns3:TrackPointExtension>
            <ns3:hr>160</ns3:hr>
          </ns3:TrackPointExtension>
        </extensions>
      </trkpt>
      <trkpt lat="46.77849425934255123138427734375" lon="6.7625528387725353240966796875">
        <ele>628</ele>
        <time>2017-05-05T13:26:43.000Z</time>
        <extensions>
          <ns3:TrackPointExtension>
            <ns3:hr>159</ns3:hr>
          </ns3:TrackPointExtension>
        </extensions>
      </trkpt>
      <trkpt lat="46.7785364203155040740966796875" lon="6.76260053180158138275146484375">
        <ele>629</ele>
        <time>2017-05-05T13:26:45.000Z</time>
        <extensions>
          <ns3:TrackPointExtension>
            <ns3:hr>156</ns3:hr>
          </ns3:TrackPointExtension>
        </extensions>
      </trkpt>
      <trkpt lat="46.77855863235890865325927734375" lon="6.76262416876852512359619140625">
        <ele>629.20001220703125</ele>
        <time>2017-05-05T13:26:46.000Z</time>
        <extensions>
          <ns3:TrackPointExtension>
            <ns3:hr>154</ns3:hr>
          </ns3:TrackPointExtension>
        </extensions>
      </trkpt>
      <trkpt lat="46.7785826884210109710693359375" lon="6.7626457102596759796142578125">
        <ele>629.5999755859375</ele>
        <time>2017-05-05T13:26:47.000Z</time>
        <extensions>
          <ns3:TrackPointExtension>
            <ns3:hr>151</ns3:hr>
          </ns3:TrackPointExtension>
        </extensions>
      </trkpt>
      <trkpt lat="46.7786282859742641448974609375" lon="6.76269114017486572265625">
        <ele>630</ele>
        <time>2017-05-05T13:26:49.000Z</time>
        <extensions>
          <ns3:TrackPointExtension>
            <ns3:hr>148</ns3:hr>
          </ns3:TrackPointExtension>
        </extensions>
      </trkpt>
      <trkpt lat="46.77868821658194065093994140625" lon="6.76277504302561283111572265625">
        <ele>630.4000244140625</ele>
        <time>2017-05-05T13:26:52.000Z</time>
        <extensions>
          <ns3:TrackPointExtension>
            <ns3:hr>145</ns3:hr>
          </ns3:TrackPointExtension>
        </extensions>
      </trkpt>
      <trkpt lat="46.7788086645305156707763671875" lon="6.7630114965140819549560546875">
        <ele>631.4000244140625</ele>
        <time>2017-05-05T13:26:58.000Z</time>
        <extensions>
          <ns3:TrackPointExtension>
            <ns3:hr>143</ns3:hr>
          </ns3:TrackPointExtension>
        </extensions>
      </trkpt>
      <trkpt lat="46.7790188826620578765869140625" lon="6.76330201327800750732421875">
        <ele>632.4000244140625</ele>
        <time>2017-05-05T13:27:08.000Z</time>
        <extensions>
          <ns3:TrackPointExtension>
            <ns3:hr>143</ns3:hr>
          </ns3:TrackPointExtension>
        </extensions>
      </trkpt>
      <trkpt lat="46.7791167832911014556884765625" lon="6.76343838684260845184326171875">
        <ele>633.5999755859375</ele>
        <time>2017-05-05T13:27:13.000Z</time>
        <extensions>
          <ns3:TrackPointExtension>
            <ns3:hr>143</ns3:hr>
          </ns3:TrackPointExtension>
        </extensions>
      </trkpt>
      <trkpt lat="46.77923019044101238250732421875" lon="6.7635797895491123199462890625">
        <ele>635</ele>
        <time>2017-05-05T13:27:19.000Z</time>
        <extensions>
          <ns3:TrackPointExtension>
            <ns3:hr>145</ns3:hr>
          </ns3:TrackPointExtension>
        </extensions>
      </trkpt>
      <trkpt lat="46.77934502251446247100830078125" lon="6.7637232877314090728759765625">
        <ele>636</ele>
        <time>2017-05-05T13:27:24.000Z</time>
        <extensions>
          <ns3:TrackPointExtension>
            <ns3:hr>145</ns3:hr>
          </ns3:TrackPointExtension>
        </extensions>
      </trkpt>
      <trkpt lat="46.77952758036553859710693359375" lon="6.7639211006462574005126953125">
        <ele>637</ele>
        <time>2017-05-05T13:27:31.000Z</time>
        <extensions>
          <ns3:TrackPointExtension>
            <ns3:hr>147</ns3:hr>
          </ns3:TrackPointExtension>
        </extensions>
      </trkpt>
      <trkpt lat="46.77976076491177082061767578125" lon="6.76426299847662448883056640625">
        <ele>638</ele>
        <time>2017-05-05T13:27:43.000Z</time>
        <extensions>
          <ns3:TrackPointExtension>
            <ns3:hr>149</ns3:hr>
          </ns3:TrackPointExtension>
        </extensions>
      </trkpt>
      <trkpt lat="46.77992530167102813720703125" lon="6.7641856335103511810302734375">
        <ele>638</ele>
        <time>2017-05-05T13:27:47.000Z</time>
        <extensions>
          <ns3:TrackPointExtension>
            <ns3:hr>149</ns3:hr>
          </ns3:TrackPointExtension>
        </extensions>
      </trkpt>
      <trkpt lat="46.780110709369182586669921875" lon="6.76402042619884014129638671875">
        <ele>638</ele>
        <time>2017-05-05T13:27:50.000Z</time>
        <extensions>
          <ns3:TrackPointExtension>
            <ns3:hr>148</ns3:hr>
          </ns3:TrackPointExtension>
        </extensions>
      </trkpt>
      <trkpt lat="46.78019880317151546478271484375" lon="6.76388832740485668182373046875">
        <ele>638</ele>
        <time>2017-05-05T13:27:52.000Z</time>
        <extensions>
          <ns3:TrackPointExtension>
            <ns3:hr>148</ns3:hr>
          </ns3:TrackPointExtension>
        </extensions>
      </trkpt>
      <trkpt lat="46.78025898523628711700439453125" lon="6.763752289116382598876953125">
        <ele>636</ele>
        <time>2017-05-05T13:27:54.000Z</time>
        <extensions>
          <ns3:TrackPointExtension>
            <ns3:hr>148</ns3:hr>
          </ns3:TrackPointExtension>
        </extensions>
      </trkpt>
      <trkpt lat="46.7802781797945499420166015625" lon="6.76368230022490024566650390625">
        <ele>634.79998779296875</ele>
        <time>2017-05-05T13:27:55.000Z</time>
        <extensions>
          <ns3:TrackPointExtension>
            <ns3:hr>147</ns3:hr>
          </ns3:TrackPointExtension>
        </extensions>
      </trkpt>
      <trkpt lat="46.780295111238956451416015625" lon="6.76360954530537128448486328125">
        <ele>632.5999755859375</ele>
        <time>2017-05-05T13:27:56.000Z</time>
        <extensions>
          <ns3:TrackPointExtension>
            <ns3:hr>147</ns3:hr>
          </ns3:TrackPointExtension>
        </extensions>
      </trkpt>
      <trkpt lat="46.78031447343528270721435546875" lon="6.7635358683764934539794921875">
        <ele>631.4000244140625</ele>
        <time>2017-05-05T13:27:57.000Z</time>
        <extensions>
          <ns3:TrackPointExtension>
            <ns3:hr>147</ns3:hr>
          </ns3:TrackPointExtension>
        </extensions>
      </trkpt>
      <trkpt lat="46.78035437129437923431396484375" lon="6.763382144272327423095703125">
        <ele>630.20001220703125</ele>
        <time>2017-05-05T13:27:59.000Z</time>
        <extensions>
          <ns3:TrackPointExtension>
            <ns3:hr>147</ns3:hr>
          </ns3:TrackPointExtension>
        </extensions>
      </trkpt>
      <trkpt lat="46.78043919615447521209716796875" lon="6.76294737495481967926025390625">
        <ele>629.20001220703125</ele>
        <time>2017-05-05T13:28:04.000Z</time>
        <extensions>
          <ns3:TrackPointExtension>
            <ns3:hr>147</ns3:hr>
          </ns3:TrackPointExtension>
        </extensions>
      </trkpt>
      <trkpt lat="46.78049133159220218658447265625" lon="6.7624334804713726043701171875">
        <ele>628.20001220703125</ele>
        <time>2017-05-05T13:28:09.000Z</time>
        <extensions>
          <ns3:TrackPointExtension>
            <ns3:hr>149</ns3:hr>
          </ns3:TrackPointExtension>
        </extensions>
      </trkpt>
      <trkpt lat="46.78049753420054912567138671875" lon="6.7620968632400035858154296875">
        <ele>627</ele>
        <time>2017-05-05T13:28:12.000Z</time>
        <extensions>
          <ns3:TrackPointExtension>
            <ns3:hr>151</ns3:hr>
          </ns3:TrackPointExtension>
        </extensions>
      </trkpt>
      <trkpt lat="46.780480854213237762451171875" lon="6.76188169978559017181396484375">
        <ele>626</ele>
        <time>2017-05-05T13:28:14.000Z</time>
        <extensions>
          <ns3:TrackPointExtension>
            <ns3:hr>152</ns3:hr>
          </ns3:TrackPointExtension>
        </extensions>
      </trkpt>
      <trkpt lat="46.7804686166346073150634765625" lon="6.761783547699451446533203125">
        <ele>624.79998779296875</ele>
        <time>2017-05-05T13:28:15.000Z</time>
        <extensions>
          <ns3:TrackPointExtension>
            <ns3:hr>153</ns3:hr>
          </ns3:TrackPointExtension>
        </extensions>
      </trkpt>
      <trkpt lat="46.78044296801090240478515625" lon="6.76159755326807498931884765625">
        <ele>623.5999755859375</ele>
        <time>2017-05-05T13:28:17.000Z</time>
        <extensions>
          <ns3:TrackPointExtension>
            <ns3:hr>153</ns3:hr>
          </ns3:TrackPointExtension>
        </extensions>
      </trkpt>
      <trkpt lat="46.7804086022078990936279296875" lon="6.76142488606274127960205078125">
        <ele>623.20001220703125</ele>
        <time>2017-05-05T13:28:19.000Z</time>
        <extensions>
          <ns3:TrackPointExtension>
            <ns3:hr>154</ns3:hr>
          </ns3:TrackPointExtension>
        </extensions>
      </trkpt>
      <trkpt lat="46.78034850396215915679931640625" lon="6.7612730897963047027587890625">
        <ele>623</ele>
        <time>2017-05-05T13:28:21.000Z</time>
        <extensions>
          <ns3:TrackPointExtension>
            <ns3:hr>154</ns3:hr>
          </ns3:TrackPointExtension>
        </extensions>
      </trkpt>
      <trkpt lat="46.780259571969509124755859375" lon="6.761139817535877227783203125">
        <ele>623</ele>
        <time>2017-05-05T13:28:23.000Z</time>
        <extensions>
          <ns3:TrackPointExtension>
            <ns3:hr>153</ns3:hr>
          </ns3:TrackPointExtension>
        </extensions>
      </trkpt>
      <trkpt lat="46.780067123472690582275390625" lon="6.76092314533889293670654296875">
        <ele>623</ele>
        <time>2017-05-05T13:28:27.000Z</time>
        <extensions>
          <ns3:TrackPointExtension>
            <ns3:hr>150</ns3:hr>
          </ns3:TrackPointExtension>
        </extensions>
      </trkpt>
      <trkpt lat="46.77962061949074268341064453125" lon="6.76040447317063808441162109375">
        <ele>623.20001220703125</ele>
        <time>2017-05-05T13:28:37.000Z</time>
        <extensions>
          <ns3:TrackPointExtension>
            <ns3:hr>152</ns3:hr>
          </ns3:TrackPointExtension>
        </extensions>
      </trkpt>
      <trkpt lat="46.77957594394683837890625" lon="6.7602575384080410003662109375">
        <ele>623.20001220703125</ele>
        <time>2017-05-05T13:28:39.000Z</time>
        <extensions>
          <ns3:TrackPointExtension>
            <ns3:hr>151</ns3:hr>
          </ns3:TrackPointExtension>
        </extensions>
      </trkpt>
      <trkpt lat="46.77954417653381824493408203125" lon="6.75971531309187412261962890625">
        <ele>623</ele>
        <time>2017-05-05T13:28:47.000Z</time>
        <extensions>
          <ns3:TrackPointExtension>
            <ns3:hr>149</ns3:hr>
          </ns3:TrackPointExtension>
        </extensions>
      </trkpt>
      <trkpt lat="46.77944124676287174224853515625" lon="6.7594984732568264007568359375">
        <ele>623</ele>
        <time>2017-05-05T13:28:51.000Z</time>
        <extensions>
          <ns3:TrackPointExtension>
            <ns3:hr>148</ns3:hr>
          </ns3:TrackPointExtension>
        </extensions>
      </trkpt>
      <trkpt lat="46.77920387126505374908447265625" lon="6.75913989543914794921875">
        <ele>623.4000244140625</ele>
        <time>2017-05-05T13:29:00.000Z</time>
        <extensions>
          <ns3:TrackPointExtension>
            <ns3:hr>148</ns3:hr>
          </ns3:TrackPointExtension>
        </extensions>
      </trkpt>
      <trkpt lat="46.77916347049176692962646484375" lon="6.75902045331895351409912109375">
        <ele>623.4000244140625</ele>
        <time>2017-05-05T13:29:02.000Z</time>
        <extensions>
          <ns3:TrackPointExtension>
            <ns3:hr>148</ns3:hr>
          </ns3:TrackPointExtension>
        </extensions>
      </trkpt>
      <trkpt lat="46.7791177891194820404052734375" lon="6.75878374837338924407958984375">
        <ele>623.4000244140625</ele>
        <time>2017-05-05T13:29:05.000Z</time>
        <extensions>
          <ns3:TrackPointExtension>
            <ns3:hr>147</ns3:hr>
          </ns3:TrackPointExtension>
        </extensions>
      </trkpt>
      <trkpt lat="46.77904712967574596405029296875" lon="6.75826482474803924560546875">
        <ele>622.5999755859375</ele>
        <time>2017-05-05T13:29:10.000Z</time>
        <extensions>
          <ns3:TrackPointExtension>
            <ns3:hr>146</ns3:hr>
          </ns3:TrackPointExtension>
        </extensions>
      </trkpt>
      <trkpt lat="46.77903640083968639373779296875" lon="6.758053600788116455078125">
        <ele>621.20001220703125</ele>
        <time>2017-05-05T13:29:12.000Z</time>
        <extensions>
          <ns3:TrackPointExtension>
            <ns3:hr>145</ns3:hr>
          </ns3:TrackPointExtension>
        </extensions>
      </trkpt>
      <trkpt lat="46.77903874777257442474365234375" lon="6.75784514285624027252197265625">
        <ele>619.5999755859375</ele>
        <time>2017-05-05T13:29:14.000Z</time>
        <extensions>
          <ns3:TrackPointExtension>
            <ns3:hr>144</ns3:hr>
          </ns3:TrackPointExtension>
        </extensions>
      </trkpt>
      <trkpt lat="46.77909272722899913787841796875" lon="6.7576660215854644775390625">
        <ele>618.5999755859375</ele>
        <time>2017-05-05T13:29:16.000Z</time>
        <extensions>
          <ns3:TrackPointExtension>
            <ns3:hr>145</ns3:hr>
          </ns3:TrackPointExtension>
        </extensions>
      </trkpt>
      <trkpt lat="46.77917587570846080780029296875" lon="6.7575639300048351287841796875">
        <ele>617.20001220703125</ele>
        <time>2017-05-05T13:29:18.000Z</time>
        <extensions>
          <ns3:TrackPointExtension>
            <ns3:hr>146</ns3:hr>
          </ns3:TrackPointExtension>
        </extensions>
      </trkpt>
      <trkpt lat="46.77926053293049335479736328125" lon="6.75750584341585636138916015625">
        <ele>616.4000244140625</ele>
        <time>2017-05-05T13:29:20.000Z</time>
        <extensions>
          <ns3:TrackPointExtension>
            <ns3:hr>146</ns3:hr>
          </ns3:TrackPointExtension>
        </extensions>
      </trkpt>
      <trkpt lat="46.77934703417122364044189453125" lon="6.75746477209031581878662109375">
        <ele>616.20001220703125</ele>
        <time>2017-05-05T13:29:22.000Z</time>
        <extensions>
          <ns3:TrackPointExtension>
            <ns3:hr>147</ns3:hr>
          </ns3:TrackPointExtension>
        </extensions>
      </trkpt>
      <trkpt lat="46.779835782945156097412109375" lon="6.7571931146085262298583984375">
        <ele>617</ele>
        <time>2017-05-05T13:29:36.000Z</time>
        <extensions>
          <ns3:TrackPointExtension>
            <ns3:hr>144</ns3:hr>
          </ns3:TrackPointExtension>
        </extensions>
      </trkpt>
      <trkpt lat="46.7799536325037479400634765625" lon="6.7569604329764842987060546875">
        <ele>617.20001220703125</ele>
        <time>2017-05-05T13:29:41.000Z</time>
        <extensions>
          <ns3:TrackPointExtension>
            <ns3:hr>143</ns3:hr>
          </ns3:TrackPointExtension>
        </extensions>
      </trkpt>
      <trkpt lat="46.78013392724096775054931640625" lon="6.75660260953009128570556640625">
        <ele>617.79998779296875</ele>
        <time>2017-05-05T13:29:49.000Z</time>
        <extensions>
          <ns3:TrackPointExtension>
            <ns3:hr>142</ns3:hr>
          </ns3:TrackPointExtension>
        </extensions>
      </trkpt>
      <trkpt lat="46.780281700193881988525390625" lon="6.7561034671962261199951171875">
        <ele>617.79998779296875</ele>
        <time>2017-05-05T13:29:55.000Z</time>
        <extensions>
          <ns3:TrackPointExtension>
            <ns3:hr>145</ns3:hr>
          </ns3:TrackPointExtension>
        </extensions>
      </trkpt>
      <trkpt lat="46.78044741041958332061767578125" lon="6.75546049140393733978271484375">
        <ele>617.4000244140625</ele>
        <time>2017-05-05T13:30:01.000Z</time>
        <extensions>
          <ns3:TrackPointExtension>
            <ns3:hr>148</ns3:hr>
          </ns3:TrackPointExtension>
        </extensions>
      </trkpt>
      <trkpt lat="46.780665926635265350341796875" lon="6.75485699437558650970458984375">
        <ele>616.20001220703125</ele>
        <time>2017-05-05T13:30:06.000Z</time>
        <extensions>
          <ns3:TrackPointExtension>
            <ns3:hr>151</ns3:hr>
          </ns3:TrackPointExtension>
        </extensions>
      </trkpt>
      <trkpt lat="46.78072015754878520965576171875" lon="6.7547318525612354278564453125">
        <ele>615.5999755859375</ele>
        <time>2017-05-05T13:30:07.000Z</time>
        <extensions>
          <ns3:TrackPointExtension>
            <ns3:hr>151</ns3:hr>
          </ns3:TrackPointExtension>
        </extensions>
      </trkpt>
      <trkpt lat="46.78084085695445537567138671875" lon="6.7544897831976413726806640625">
        <ele>613.5999755859375</ele>
        <time>2017-05-05T13:30:09.000Z</time>
        <extensions>
          <ns3:TrackPointExtension>
            <ns3:hr>152</ns3:hr>
          </ns3:TrackPointExtension>
        </extensions>
      </trkpt>
      <trkpt lat="46.7809517495334148406982421875" lon="6.7542462050914764404296875">
        <ele>611.20001220703125</ele>
        <time>2017-05-05T13:30:11.000Z</time>
        <extensions>
          <ns3:TrackPointExtension>
            <ns3:hr>152</ns3:hr>
          </ns3:TrackPointExtension>
        </extensions>
      </trkpt>
      <trkpt lat="46.78105426020920276641845703125" lon="6.7540096677839756011962890625">
        <ele>610</ele>
        <time>2017-05-05T13:30:13.000Z</time>
        <extensions>
          <ns3:TrackPointExtension>
            <ns3:hr>151</ns3:hr>
          </ns3:TrackPointExtension>
        </extensions>
      </trkpt>
      <trkpt lat="46.78123782388865947723388671875" lon="6.7535617388784885406494140625">
        <ele>608.79998779296875</ele>
        <time>2017-05-05T13:30:17.000Z</time>
        <extensions>
          <ns3:TrackPointExtension>
            <ns3:hr>152</ns3:hr>
          </ns3:TrackPointExtension>
        </extensions>
      </trkpt>
      <trkpt lat="46.781337819993495941162109375" lon="6.7533498443663120269775390625">
        <ele>607.5999755859375</ele>
        <time>2017-05-05T13:30:19.000Z</time>
        <extensions>
          <ns3:TrackPointExtension>
            <ns3:hr>154</ns3:hr>
          </ns3:TrackPointExtension>
        </extensions>
      </trkpt>
      <trkpt lat="46.7815240658819675445556640625" lon="6.75288607366383075714111328125">
        <ele>606.4000244140625</ele>
        <time>2017-05-05T13:30:23.000Z</time>
        <extensions>
          <ns3:TrackPointExtension>
            <ns3:hr>156</ns3:hr>
          </ns3:TrackPointExtension>
        </extensions>
      </trkpt>
      <trkpt lat="46.7816819809377193450927734375" lon="6.75243730656802654266357421875">
        <ele>605.4000244140625</ele>
        <time>2017-05-05T13:30:27.000Z</time>
        <extensions>
          <ns3:TrackPointExtension>
            <ns3:hr>157</ns3:hr>
          </ns3:TrackPointExtension>
        </extensions>
      </trkpt>
      <trkpt lat="46.7817480303347110748291015625" lon="6.752164475619792938232421875">
        <ele>603.5999755859375</ele>
        <time>2017-05-05T13:30:30.000Z</time>
        <extensions>
          <ns3:TrackPointExtension>
            <ns3:hr>156</ns3:hr>
          </ns3:TrackPointExtension>
        </extensions>
      </trkpt>
      <trkpt lat="46.781736798584461212158203125" lon="6.75203531049191951751708984375">
        <ele>602.4000244140625</ele>
        <time>2017-05-05T13:30:32.000Z</time>
        <extensions>
          <ns3:TrackPointExtension>
            <ns3:hr>155</ns3:hr>
          </ns3:TrackPointExtension>
        </extensions>
      </trkpt>
      <trkpt lat="46.78172397427260875701904296875" lon="6.7518364079296588897705078125">
        <ele>601.20001220703125</ele>
        <time>2017-05-05T13:30:36.000Z</time>
        <extensions>
          <ns3:TrackPointExtension>
            <ns3:hr>157</ns3:hr>
          </ns3:TrackPointExtension>
        </extensions>
      </trkpt>
      <trkpt lat="46.781649291515350341796875" lon="6.75133575685322284698486328125">
        <ele>600.5999755859375</ele>
        <time>2017-05-05T13:30:44.000Z</time>
        <extensions>
          <ns3:TrackPointExtension>
            <ns3:hr>158</ns3:hr>
          </ns3:TrackPointExtension>
        </extensions>
      </trkpt>
      <trkpt lat="46.78165222518146038055419921875" lon="6.75118303857743740081787109375">
        <ele>600.5999755859375</ele>
        <time>2017-05-05T13:30:46.000Z</time>
        <extensions>
          <ns3:TrackPointExtension>
            <ns3:hr>158</ns3:hr>
          </ns3:TrackPointExtension>
        </extensions>
      </trkpt>
      <trkpt lat="46.7816732637584209442138671875" lon="6.75103627145290374755859375">
        <ele>600.5999755859375</ele>
        <time>2017-05-05T13:30:48.000Z</time>
        <extensions>
          <ns3:TrackPointExtension>
            <ns3:hr>157</ns3:hr>
          </ns3:TrackPointExtension>
        </extensions>
      </trkpt>
      <trkpt lat="46.78165666759014129638671875" lon="6.7506890930235385894775390625">
        <ele>600.20001220703125</ele>
        <time>2017-05-05T13:30:52.000Z</time>
        <extensions>
          <ns3:TrackPointExtension>
            <ns3:hr>155</ns3:hr>
          </ns3:TrackPointExtension>
        </extensions>
      </trkpt>
      <trkpt lat="46.78164501674473285675048828125" lon="6.75052975304424762725830078125">
        <ele>598.79998779296875</ele>
        <time>2017-05-05T13:30:54.000Z</time>
        <extensions>
          <ns3:TrackPointExtension>
            <ns3:hr>155</ns3:hr>
          </ns3:TrackPointExtension>
        </extensions>
      </trkpt>
      <trkpt lat="46.7816452682018280029296875" lon="6.75044945441186428070068359375">
        <ele>598.4000244140625</ele>
        <time>2017-05-05T13:30:55.000Z</time>
        <extensions>
          <ns3:TrackPointExtension>
            <ns3:hr>155</ns3:hr>
          </ns3:TrackPointExtension>
        </extensions>
      </trkpt>
      <trkpt lat="46.7816424183547496795654296875" lon="6.7502649687230587005615234375">
        <ele>597.5999755859375</ele>
        <time>2017-05-05T13:30:57.000Z</time>
        <extensions>
          <ns3:TrackPointExtension>
            <ns3:hr>154</ns3:hr>
          </ns3:TrackPointExtension>
        </extensions>
      </trkpt>
      <trkpt lat="46.7816491238772869110107421875" lon="6.75006707198917865753173828125">
        <ele>595.4000244140625</ele>
        <time>2017-05-05T13:30:59.000Z</time>
        <extensions>
          <ns3:TrackPointExtension>
            <ns3:hr>154</ns3:hr>
          </ns3:TrackPointExtension>
        </extensions>
      </trkpt>
      <trkpt lat="46.78164719603955745697021484375" lon="6.7499840073287487030029296875">
        <ele>594</ele>
        <time>2017-05-05T13:31:00.000Z</time>
        <extensions>
          <ns3:TrackPointExtension>
            <ns3:hr>154</ns3:hr>
          </ns3:TrackPointExtension>
        </extensions>
      </trkpt>
      <trkpt lat="46.781661696732044219970703125" lon="6.74982785247266292572021484375">
        <ele>591.79998779296875</ele>
        <time>2017-05-05T13:31:02.000Z</time>
        <extensions>
          <ns3:TrackPointExtension>
            <ns3:hr>153</ns3:hr>
          </ns3:TrackPointExtension>
        </extensions>
      </trkpt>
      <trkpt lat="46.78167820908129215240478515625" lon="6.74975283443927764892578125">
        <ele>590.5999755859375</ele>
        <time>2017-05-05T13:31:03.000Z</time>
        <extensions>
          <ns3:TrackPointExtension>
            <ns3:hr>153</ns3:hr>
          </ns3:TrackPointExtension>
        </extensions>
      </trkpt>
      <trkpt lat="46.78169514052569866180419921875" lon="6.74968569539487361907958984375">
        <ele>589.4000244140625</ele>
        <time>2017-05-05T13:31:04.000Z</time>
        <extensions>
          <ns3:TrackPointExtension>
            <ns3:hr>153</ns3:hr>
          </ns3:TrackPointExtension>
        </extensions>
      </trkpt>
      <trkpt lat="46.78172682411968708038330078125" lon="6.74956063739955425262451171875">
        <ele>586.79998779296875</ele>
        <time>2017-05-05T13:31:06.000Z</time>
        <extensions>
          <ns3:TrackPointExtension>
            <ns3:hr>153</ns3:hr>
          </ns3:TrackPointExtension>
        </extensions>
      </trkpt>
      <trkpt lat="46.781740486621856689453125" lon="6.74950347281992435455322265625">
        <ele>585.20001220703125</ele>
        <time>2017-05-05T13:31:07.000Z</time>
        <extensions>
          <ns3:TrackPointExtension>
            <ns3:hr>152</ns3:hr>
          </ns3:TrackPointExtension>
        </extensions>
      </trkpt>
      <trkpt lat="46.781739480793476104736328125" lon="6.74943105317652225494384765625">
        <ele>584.4000244140625</ele>
        <time>2017-05-05T13:31:08.000Z</time>
        <extensions>
          <ns3:TrackPointExtension>
            <ns3:hr>152</ns3:hr>
          </ns3:TrackPointExtension>
        </extensions>
      </trkpt>
      <trkpt lat="46.7817349545657634735107421875" lon="6.74935645423829555511474609375">
        <ele>583.79998779296875</ele>
        <time>2017-05-05T13:31:09.000Z</time>
        <extensions>
          <ns3:TrackPointExtension>
            <ns3:hr>151</ns3:hr>
          </ns3:TrackPointExtension>
        </extensions>
      </trkpt>
      <trkpt lat="46.7817208729684352874755859375" lon="6.74920826219022274017333984375">
        <ele>582</ele>
        <time>2017-05-05T13:31:11.000Z</time>
        <extensions>
          <ns3:TrackPointExtension>
            <ns3:hr>150</ns3:hr>
          </ns3:TrackPointExtension>
        </extensions>
      </trkpt>
      <trkpt lat="46.78171743638813495635986328125" lon="6.7491424642503261566162109375">
        <ele>581</ele>
        <time>2017-05-05T13:31:12.000Z</time>
        <extensions>
          <ns3:TrackPointExtension>
            <ns3:hr>150</ns3:hr>
          </ns3:TrackPointExtension>
        </extensions>
      </trkpt>
      <trkpt lat="46.78174576722085475921630859375" lon="6.74895999021828174591064453125">
        <ele>579.79998779296875</ele>
        <time>2017-05-05T13:31:15.000Z</time>
        <extensions>
          <ns3:TrackPointExtension>
            <ns3:hr>151</ns3:hr>
          </ns3:TrackPointExtension>
        </extensions>
      </trkpt>
      <trkpt lat="46.78180527873337268829345703125" lon="6.7488792724907398223876953125">
        <ele>578.20001220703125</ele>
        <time>2017-05-05T13:31:17.000Z</time>
        <extensions>
          <ns3:TrackPointExtension>
            <ns3:hr>151</ns3:hr>
          </ns3:TrackPointExtension>
        </extensions>
      </trkpt>
      <trkpt lat="46.781839393079280853271484375" lon="6.74884800799190998077392578125">
        <ele>577.20001220703125</ele>
        <time>2017-05-05T13:31:18.000Z</time>
        <extensions>
          <ns3:TrackPointExtension>
            <ns3:hr>151</ns3:hr>
          </ns3:TrackPointExtension>
        </extensions>
      </trkpt>
      <trkpt lat="46.78187216632068157196044921875" lon="6.74881431274116039276123046875">
        <ele>576</ele>
        <time>2017-05-05T13:31:19.000Z</time>
        <extensions>
          <ns3:TrackPointExtension>
            <ns3:hr>151</ns3:hr>
          </ns3:TrackPointExtension>
        </extensions>
      </trkpt>
      <trkpt lat="46.781909801065921783447265625" lon="6.7487900890409946441650390625">
        <ele>574.79998779296875</ele>
        <time>2017-05-05T13:31:20.000Z</time>
        <extensions>
          <ns3:TrackPointExtension>
            <ns3:hr>151</ns3:hr>
          </ns3:TrackPointExtension>
        </extensions>
      </trkpt>
      <trkpt lat="46.7819763533771038055419921875" lon="6.74875329248607158660888671875">
        <ele>573.5999755859375</ele>
        <time>2017-05-05T13:31:22.000Z</time>
        <extensions>
          <ns3:TrackPointExtension>
            <ns3:hr>152</ns3:hr>
          </ns3:TrackPointExtension>
        </extensions>
      </trkpt>
      <trkpt lat="46.782495863735675811767578125" lon="6.74846378155052661895751953125">
        <ele>574</ele>
        <time>2017-05-05T13:31:37.000Z</time>
        <extensions>
          <ns3:TrackPointExtension>
            <ns3:hr>152</ns3:hr>
          </ns3:TrackPointExtension>
        </extensions>
      </trkpt>
      <trkpt lat="46.782555878162384033203125" lon="6.74843092449009418487548828125">
        <ele>574.79998779296875</ele>
        <time>2017-05-05T13:31:39.000Z</time>
        <extensions>
          <ns3:TrackPointExtension>
            <ns3:hr>152</ns3:hr>
          </ns3:TrackPointExtension>
        </extensions>
      </trkpt>
      <trkpt lat="46.78272075019776821136474609375" lon="6.7483542300760746002197265625">
        <ele>576</ele>
        <time>2017-05-05T13:31:44.000Z</time>
        <extensions>
          <ns3:TrackPointExtension>
            <ns3:hr>154</ns3:hr>
          </ns3:TrackPointExtension>
        </extensions>
      </trkpt>
      <trkpt lat="46.78284480236470699310302734375" lon="6.74835330806672573089599609375">
        <ele>577.20001220703125</ele>
        <time>2017-05-05T13:31:48.000Z</time>
        <extensions>
          <ns3:TrackPointExtension>
            <ns3:hr>155</ns3:hr>
          </ns3:TrackPointExtension>
        </extensions>
      </trkpt>
      <trkpt lat="46.78300238214433193206787109375" lon="6.748349033296108245849609375">
        <ele>578.4000244140625</ele>
        <time>2017-05-05T13:31:53.000Z</time>
        <extensions>
          <ns3:TrackPointExtension>
            <ns3:hr>155</ns3:hr>
          </ns3:TrackPointExtension>
        </extensions>
      </trkpt>
      <trkpt lat="46.78317957557737827301025390625" lon="6.74831374548375606536865234375">
        <ele>579.4000244140625</ele>
        <time>2017-05-05T13:31:58.000Z</time>
        <extensions>
          <ns3:TrackPointExtension>
            <ns3:hr>155</ns3:hr>
          </ns3:TrackPointExtension>
        </extensions>
      </trkpt>
      <trkpt lat="46.7835062183439731597900390625" lon="6.74832548014819622039794921875">
        <ele>580.20001220703125</ele>
        <time>2017-05-05T13:32:06.000Z</time>
        <extensions>
          <ns3:TrackPointExtension>
            <ns3:hr>153</ns3:hr>
          </ns3:TrackPointExtension>
        </extensions>
      </trkpt>
      <trkpt lat="46.78404140286147594451904296875" lon="6.74814996309578418731689453125">
        <ele>580.4000244140625</ele>
        <time>2017-05-05T13:32:16.000Z</time>
        <extensions>
          <ns3:TrackPointExtension>
            <ns3:hr>152</ns3:hr>
          </ns3:TrackPointExtension>
        </extensions>
      </trkpt>
      <trkpt lat="46.7845841310918331146240234375" lon="6.74818097613751888275146484375">
        <ele>580.5999755859375</ele>
        <time>2017-05-05T13:32:30.000Z</time>
        <extensions>
          <ns3:TrackPointExtension>
            <ns3:hr>150</ns3:hr>
          </ns3:TrackPointExtension>
        </extensions>
      </trkpt>
      <trkpt lat="46.7849023081362247467041015625" lon="6.74840225838124752044677734375">
        <ele>581.5999755859375</ele>
        <time>2017-05-05T13:32:38.000Z</time>
        <extensions>
          <ns3:TrackPointExtension>
            <ns3:hr>151</ns3:hr>
          </ns3:TrackPointExtension>
        </extensions>
      </trkpt>
      <trkpt lat="46.785061061382293701171875" lon="6.74867366440594196319580078125">
        <ele>582.5999755859375</ele>
        <time>2017-05-05T13:32:44.000Z</time>
        <extensions>
          <ns3:TrackPointExtension>
            <ns3:hr>151</ns3:hr>
          </ns3:TrackPointExtension>
        </extensions>
      </trkpt>
      <trkpt lat="46.78521637804806232452392578125" lon="6.748978681862354278564453125">
        <ele>584</ele>
        <time>2017-05-05T13:32:51.000Z</time>
        <extensions>
          <ns3:TrackPointExtension>
            <ns3:hr>149</ns3:hr>
          </ns3:TrackPointExtension>
        </extensions>
      </trkpt>
      <trkpt lat="46.785284020006656646728515625" lon="6.7491062544286251068115234375">
        <ele>585</ele>
        <time>2017-05-05T13:32:54.000Z</time>
        <extensions>
          <ns3:TrackPointExtension>
            <ns3:hr>151</ns3:hr>
          </ns3:TrackPointExtension>
        </extensions>
      </trkpt>
      <trkpt lat="46.7853700183331966400146484375" lon="6.74926592968404293060302734375">
        <ele>586</ele>
        <time>2017-05-05T13:32:58.000Z</time>
        <extensions>
          <ns3:TrackPointExtension>
            <ns3:hr>152</ns3:hr>
          </ns3:TrackPointExtension>
        </extensions>
      </trkpt>
      <trkpt lat="46.7854504846036434173583984375" lon="6.749416552484035491943359375">
        <ele>587.4000244140625</ele>
        <time>2017-05-05T13:33:02.000Z</time>
        <extensions>
          <ns3:TrackPointExtension>
            <ns3:hr>153</ns3:hr>
          </ns3:TrackPointExtension>
        </extensions>
      </trkpt>
      <trkpt lat="46.7855658195912837982177734375" lon="6.7496487312018871307373046875">
        <ele>588.5999755859375</ele>
        <time>2017-05-05T13:33:08.000Z</time>
        <extensions>
          <ns3:TrackPointExtension>
            <ns3:hr>153</ns3:hr>
          </ns3:TrackPointExtension>
        </extensions>
      </trkpt>
      <trkpt lat="46.7856560088694095611572265625" lon="6.74980388022959232330322265625">
        <ele>589.5999755859375</ele>
        <time>2017-05-05T13:33:12.000Z</time>
        <extensions>
          <ns3:TrackPointExtension>
            <ns3:hr>152</ns3:hr>
          </ns3:TrackPointExtension>
        </extensions>
      </trkpt>
      <trkpt lat="46.7858685739338397979736328125" lon="6.75016799010336399078369140625">
        <ele>590.5999755859375</ele>
        <time>2017-05-05T13:33:20.000Z</time>
        <extensions>
          <ns3:TrackPointExtension>
            <ns3:hr>152</ns3:hr>
          </ns3:TrackPointExtension>
        </extensions>
      </trkpt>
      <trkpt lat="46.7862424068152904510498046875" lon="6.75083602778613567352294921875">
        <ele>591</ele>
        <time>2017-05-05T13:33:32.000Z</time>
        <extensions>
          <ns3:TrackPointExtension>
            <ns3:hr>154</ns3:hr>
          </ns3:TrackPointExtension>
        </extensions>
      </trkpt>
      <trkpt lat="46.78645757026970386505126953125" lon="6.75122511573135852813720703125">
        <ele>590.79998779296875</ele>
        <time>2017-05-05T13:33:38.000Z</time>
        <extensions>
          <ns3:TrackPointExtension>
            <ns3:hr>157</ns3:hr>
          </ns3:TrackPointExtension>
        </extensions>
      </trkpt>
      <trkpt lat="46.78672428242862224578857421875" lon="6.75173758529126644134521484375">
        <ele>589.79998779296875</ele>
        <time>2017-05-05T13:33:45.000Z</time>
        <extensions>
          <ns3:TrackPointExtension>
            <ns3:hr>154</ns3:hr>
          </ns3:TrackPointExtension>
        </extensions>
      </trkpt>
      <trkpt lat="46.78679653443396091461181640625" lon="6.75189952366054058074951171875">
        <ele>589.5999755859375</ele>
        <time>2017-05-05T13:33:47.000Z</time>
        <extensions>
          <ns3:TrackPointExtension>
            <ns3:hr>153</ns3:hr>
          </ns3:TrackPointExtension>
        </extensions>
      </trkpt>
      <trkpt lat="46.78704966790974140167236328125" lon="6.75259924493730068206787109375">
        <ele>588.5999755859375</ele>
        <time>2017-05-05T13:33:55.000Z</time>
        <extensions>
          <ns3:TrackPointExtension>
            <ns3:hr>151</ns3:hr>
          </ns3:TrackPointExtension>
        </extensions>
      </trkpt>
      <trkpt lat="46.7871349118649959564208984375" lon="6.75296687521040439605712890625">
        <ele>588.20001220703125</ele>
        <time>2017-05-05T13:33:59.000Z</time>
        <extensions>
          <ns3:TrackPointExtension>
            <ns3:hr>151</ns3:hr>
          </ns3:TrackPointExtension>
        </extensions>
      </trkpt>
      <trkpt lat="46.787141449749469757080078125" lon="6.75315781496465206146240234375">
        <ele>588.20001220703125</ele>
        <time>2017-05-05T13:34:01.000Z</time>
        <extensions>
          <ns3:TrackPointExtension>
            <ns3:hr>151</ns3:hr>
          </ns3:TrackPointExtension>
        </extensions>
      </trkpt>
      <trkpt lat="46.78712435066699981689453125" lon="6.753338277339935302734375">
        <ele>588</ele>
        <time>2017-05-05T13:34:03.000Z</time>
        <extensions>
          <ns3:TrackPointExtension>
            <ns3:hr>150</ns3:hr>
          </ns3:TrackPointExtension>
        </extensions>
      </trkpt>
      <trkpt lat="46.787034831941127777099609375" lon="6.75366089679300785064697265625">
        <ele>587.79998779296875</ele>
        <time>2017-05-05T13:34:07.000Z</time>
        <extensions>
          <ns3:TrackPointExtension>
            <ns3:hr>150</ns3:hr>
          </ns3:TrackPointExtension>
        </extensions>
      </trkpt>
      <trkpt lat="46.786975152790546417236328125" lon="6.75379802472889423370361328125">
        <ele>587.79998779296875</ele>
        <time>2017-05-05T13:34:09.000Z</time>
        <extensions>
          <ns3:TrackPointExtension>
            <ns3:hr>150</ns3:hr>
          </ns3:TrackPointExtension>
        </extensions>
      </trkpt>
      <trkpt lat="46.78689057938754558563232421875" lon="6.7539913952350616455078125">
        <ele>587.79998779296875</ele>
        <time>2017-05-05T13:34:12.000Z</time>
        <extensions>
          <ns3:TrackPointExtension>
            <ns3:hr>149</ns3:hr>
          </ns3:TrackPointExtension>
        </extensions>
      </trkpt>
      <trkpt lat="46.7868717201054096221923828125" lon="6.75414386205375194549560546875">
        <ele>588.4000244140625</ele>
        <time>2017-05-05T13:34:14.000Z</time>
        <extensions>
          <ns3:TrackPointExtension>
            <ns3:hr>149</ns3:hr>
          </ns3:TrackPointExtension>
        </extensions>
      </trkpt>
      <trkpt lat="46.7868951894342899322509765625" lon="6.754453741014003753662109375">
        <ele>589.20001220703125</ele>
        <time>2017-05-05T13:34:18.000Z</time>
        <extensions>
          <ns3:TrackPointExtension>
            <ns3:hr>152</ns3:hr>
          </ns3:TrackPointExtension>
        </extensions>
      </trkpt>
      <trkpt lat="46.78690935485064983367919921875" lon="6.75469187088310718536376953125">
        <ele>589.5999755859375</ele>
        <time>2017-05-05T13:34:21.000Z</time>
        <extensions>
          <ns3:TrackPointExtension>
            <ns3:hr>153</ns3:hr>
          </ns3:TrackPointExtension>
        </extensions>
      </trkpt>
      <trkpt lat="46.78692989051342010498046875" lon="6.75484660081565380096435546875">
        <ele>589.79998779296875</ele>
        <time>2017-05-05T13:34:23.000Z</time>
        <extensions>
          <ns3:TrackPointExtension>
            <ns3:hr>154</ns3:hr>
          </ns3:TrackPointExtension>
        </extensions>
      </trkpt>
      <trkpt lat="46.78698613308370113372802734375" lon="6.7549757659435272216796875">
        <ele>590</ele>
        <time>2017-05-05T13:34:25.000Z</time>
        <extensions>
          <ns3:TrackPointExtension>
            <ns3:hr>154</ns3:hr>
          </ns3:TrackPointExtension>
        </extensions>
      </trkpt>
      <trkpt lat="46.78707514889538288116455078125" lon="6.75507567822933197021484375">
        <ele>590</ele>
        <time>2017-05-05T13:34:27.000Z</time>
        <extensions>
          <ns3:TrackPointExtension>
            <ns3:hr>156</ns3:hr>
          </ns3:TrackPointExtension>
        </extensions>
      </trkpt>
      <trkpt lat="46.7872277833521366119384765625" lon="6.75521356053650379180908203125">
        <ele>590</ele>
        <time>2017-05-05T13:34:30.000Z</time>
        <extensions>
          <ns3:TrackPointExtension>
            <ns3:hr>153</ns3:hr>
          </ns3:TrackPointExtension>
        </extensions>
      </trkpt>
      <trkpt lat="46.787441186606884002685546875" lon="6.7553888261318206787109375">
        <ele>590</ele>
        <time>2017-05-05T13:34:34.000Z</time>
        <extensions>
          <ns3:TrackPointExtension>
            <ns3:hr>156</ns3:hr>
          </ns3:TrackPointExtension>
        </extensions>
      </trkpt>
      <trkpt lat="46.78748837672173976898193359375" lon="6.75544624216854572296142578125">
        <ele>590</ele>
        <time>2017-05-05T13:34:35.000Z</time>
        <extensions>
          <ns3:TrackPointExtension>
            <ns3:hr>156</ns3:hr>
          </ns3:TrackPointExtension>
        </extensions>
      </trkpt>
      <trkpt lat="46.78754671476781368255615234375" lon="6.755603738129138946533203125">
        <ele>590</ele>
        <time>2017-05-05T13:34:37.000Z</time>
        <extensions>
          <ns3:TrackPointExtension>
            <ns3:hr>158</ns3:hr>
          </ns3:TrackPointExtension>
        </extensions>
      </trkpt>
      <trkpt lat="46.78755576722323894500732421875" lon="6.75577229820191860198974609375">
        <ele>589.79998779296875</ele>
        <time>2017-05-05T13:34:39.000Z</time>
        <extensions>
          <ns3:TrackPointExtension>
            <ns3:hr>159</ns3:hr>
          </ns3:TrackPointExtension>
        </extensions>
      </trkpt>
      <trkpt lat="46.78749860264360904693603515625" lon="6.75588436424732208251953125">
        <ele>589.79998779296875</ele>
        <time>2017-05-05T13:34:41.000Z</time>
        <extensions>
          <ns3:TrackPointExtension>
            <ns3:hr>159</ns3:hr>
          </ns3:TrackPointExtension>
        </extensions>
      </trkpt>
      <trkpt lat="46.78718595765531063079833984375" lon="6.7562184669077396392822265625">
        <ele>590.5999755859375</ele>
        <time>2017-05-05T13:34:51.000Z</time>
        <extensions>
          <ns3:TrackPointExtension>
            <ns3:hr>156</ns3:hr>
          </ns3:TrackPointExtension>
        </extensions>
      </trkpt>
      <trkpt lat="46.7871603928506374359130859375" lon="6.75625316798686981201171875">
        <ele>590.79998779296875</ele>
        <time>2017-05-05T13:34:52.000Z</time>
        <extensions>
          <ns3:TrackPointExtension>
            <ns3:hr>155</ns3:hr>
          </ns3:TrackPointExtension>
        </extensions>
      </trkpt>
      <trkpt lat="46.78705218248069286346435546875" lon="6.7563891224563121795654296875">
        <ele>591.5999755859375</ele>
        <time>2017-05-05T13:34:56.000Z</time>
        <extensions>
          <ns3:TrackPointExtension>
            <ns3:hr>152</ns3:hr>
          </ns3:TrackPointExtension>
        </extensions>
      </trkpt>
      <trkpt lat="46.7870259471237659454345703125" lon="6.75642658956348896026611328125">
        <ele>591.79998779296875</ele>
        <time>2017-05-05T13:34:57.000Z</time>
        <extensions>
          <ns3:TrackPointExtension>
            <ns3:hr>151</ns3:hr>
          </ns3:TrackPointExtension>
        </extensions>
      </trkpt>
      <trkpt lat="46.78694321773946285247802734375" lon="6.75653890706598758697509765625">
        <ele>592.5999755859375</ele>
        <time>2017-05-05T13:35:00.000Z</time>
        <extensions>
          <ns3:TrackPointExtension>
            <ns3:hr>148</ns3:hr>
          </ns3:TrackPointExtension>
        </extensions>
      </trkpt>
      <trkpt lat="46.78688337095081806182861328125" lon="6.756606213748455047607421875">
        <ele>593</ele>
        <time>2017-05-05T13:35:02.000Z</time>
        <extensions>
          <ns3:TrackPointExtension>
            <ns3:hr>148</ns3:hr>
          </ns3:TrackPointExtension>
        </extensions>
      </trkpt>
      <trkpt lat="46.7867361009120941162109375" lon="6.75676622427999973297119140625">
        <ele>594</ele>
        <time>2017-05-05T13:35:07.000Z</time>
        <extensions>
          <ns3:TrackPointExtension>
            <ns3:hr>149</ns3:hr>
          </ns3:TrackPointExtension>
        </extensions>
      </trkpt>
      <trkpt lat="46.78648137487471103668212890625" lon="6.75680226646363735198974609375">
        <ele>595.20001220703125</ele>
        <time>2017-05-05T13:35:15.000Z</time>
        <extensions>
          <ns3:TrackPointExtension>
            <ns3:hr>147</ns3:hr>
          </ns3:TrackPointExtension>
        </extensions>
      </trkpt>
      <trkpt lat="46.7863969691097736358642578125" lon="6.7567203752696514129638671875">
        <ele>596.20001220703125</ele>
        <time>2017-05-05T13:35:18.000Z</time>
        <extensions>
          <ns3:TrackPointExtension>
            <ns3:hr>147</ns3:hr>
          </ns3:TrackPointExtension>
        </extensions>
      </trkpt>
      <trkpt lat="46.7862693965435028076171875" lon="6.75661736167967319488525390625">
        <ele>597.4000244140625</ele>
        <time>2017-05-05T13:35:22.000Z</time>
        <extensions>
          <ns3:TrackPointExtension>
            <ns3:hr>146</ns3:hr>
          </ns3:TrackPointExtension>
        </extensions>
      </trkpt>
      <trkpt lat="46.78612162359058856964111328125" lon="6.756508983671665191650390625">
        <ele>598.4000244140625</ele>
        <time>2017-05-05T13:35:26.000Z</time>
        <extensions>
          <ns3:TrackPointExtension>
            <ns3:hr>145</ns3:hr>
          </ns3:TrackPointExtension>
        </extensions>
      </trkpt>
      <trkpt lat="46.78590805269777774810791015625" lon="6.75635911524295806884765625">
        <ele>599.5999755859375</ele>
        <time>2017-05-05T13:35:31.000Z</time>
        <extensions>
          <ns3:TrackPointExtension>
            <ns3:hr>145</ns3:hr>
          </ns3:TrackPointExtension>
        </extensions>
      </trkpt>
      <trkpt lat="46.78554159589111804962158203125" lon="6.75609759986400604248046875">
        <ele>600.20001220703125</ele>
        <time>2017-05-05T13:35:39.000Z</time>
        <extensions>
          <ns3:TrackPointExtension>
            <ns3:hr>148</ns3:hr>
          </ns3:TrackPointExtension>
        </extensions>
      </trkpt>
      <trkpt lat="46.78523263894021511077880859375" lon="6.75586148165166378021240234375">
        <ele>600.5999755859375</ele>
        <time>2017-05-05T13:35:46.000Z</time>
        <extensions>
          <ns3:TrackPointExtension>
            <ns3:hr>149</ns3:hr>
          </ns3:TrackPointExtension>
        </extensions>
      </trkpt>
      <trkpt lat="46.78506516851484775543212890625" lon="6.75571739673614501953125">
        <ele>601</ele>
        <time>2017-05-05T13:35:50.000Z</time>
        <extensions>
          <ns3:TrackPointExtension>
            <ns3:hr>150</ns3:hr>
          </ns3:TrackPointExtension>
        </extensions>
      </trkpt>
      <trkpt lat="46.7849873006343841552734375" lon="6.755635254085063934326171875">
        <ele>601.4000244140625</ele>
        <time>2017-05-05T13:35:52.000Z</time>
        <extensions>
          <ns3:TrackPointExtension>
            <ns3:hr>149</ns3:hr>
          </ns3:TrackPointExtension>
        </extensions>
      </trkpt>
      <trkpt lat="46.7848335765302181243896484375" lon="6.75546853803098201751708984375">
        <ele>601.5999755859375</ele>
        <time>2017-05-05T13:35:56.000Z</time>
        <extensions>
          <ns3:TrackPointExtension>
            <ns3:hr>148</ns3:hr>
          </ns3:TrackPointExtension>
        </extensions>
      </trkpt>
      <trkpt lat="46.78465629927814006805419921875" lon="6.75525228492915630340576171875">
        <ele>603</ele>
        <time>2017-05-05T13:36:01.000Z</time>
        <extensions>
          <ns3:TrackPointExtension>
            <ns3:hr>150</ns3:hr>
          </ns3:TrackPointExtension>
        </extensions>
      </trkpt>
      <trkpt lat="46.78454138338565826416015625" lon="6.75512940622866153717041015625">
        <ele>603.5999755859375</ele>
        <time>2017-05-05T13:36:04.000Z</time>
        <extensions>
          <ns3:TrackPointExtension>
            <ns3:hr>149</ns3:hr>
          </ns3:TrackPointExtension>
        </extensions>
      </trkpt>
      <trkpt lat="46.78445823490619659423828125" lon="6.75511733628809452056884765625">
        <ele>603.79998779296875</ele>
        <time>2017-05-05T13:36:06.000Z</time>
        <extensions>
          <ns3:TrackPointExtension>
            <ns3:hr>148</ns3:hr>
          </ns3:TrackPointExtension>
        </extensions>
      </trkpt>
      <trkpt lat="46.7844292335212230682373046875" lon="6.75519109703600406646728515625">
        <ele>603.79998779296875</ele>
        <time>2017-05-05T13:36:08.000Z</time>
        <extensions>
          <ns3:TrackPointExtension>
            <ns3:hr>147</ns3:hr>
          </ns3:TrackPointExtension>
        </extensions>
      </trkpt>
      <trkpt lat="46.78446292877197265625" lon="6.7552927695214748382568359375">
        <ele>604</ele>
        <time>2017-05-05T13:36:10.000Z</time>
        <extensions>
          <ns3:TrackPointExtension>
            <ns3:hr>147</ns3:hr>
          </ns3:TrackPointExtension>
        </extensions>
      </trkpt>
      <trkpt lat="46.78446955047547817230224609375" lon="6.75567825324833393096923828125">
        <ele>605.20001220703125</ele>
        <time>2017-05-05T13:36:19.000Z</time>
        <extensions>
          <ns3:TrackPointExtension>
            <ns3:hr>148</ns3:hr>
          </ns3:TrackPointExtension>
        </extensions>
      </trkpt>
      <trkpt lat="46.7843947000801563262939453125" lon="6.755808927118778228759765625">
        <ele>606.20001220703125</ele>
        <time>2017-05-05T13:36:23.000Z</time>
        <extensions>
          <ns3:TrackPointExtension>
            <ns3:hr>148</ns3:hr>
          </ns3:TrackPointExtension>
        </extensions>
      </trkpt>
      <trkpt lat="46.78427542559802532196044921875" lon="6.755930297076702117919921875">
        <ele>607.4000244140625</ele>
        <time>2017-05-05T13:36:28.000Z</time>
        <extensions>
          <ns3:TrackPointExtension>
            <ns3:hr>148</ns3:hr>
          </ns3:TrackPointExtension>
        </extensions>
      </trkpt>
      <trkpt lat="46.78415606729686260223388671875" lon="6.7559789121150970458984375">
        <ele>608.5999755859375</ele>
        <time>2017-05-05T13:36:32.000Z</time>
        <extensions>
          <ns3:TrackPointExtension>
            <ns3:hr>148</ns3:hr>
          </ns3:TrackPointExtension>
        </extensions>
      </trkpt>
      <trkpt lat="46.78403855301439762115478515625" lon="6.756022833287715911865234375">
        <ele>609.5999755859375</ele>
        <time>2017-05-05T13:36:36.000Z</time>
        <extensions>
          <ns3:TrackPointExtension>
            <ns3:hr>150</ns3:hr>
          </ns3:TrackPointExtension>
        </extensions>
      </trkpt>
      <trkpt lat="46.78390880115330219268798828125" lon="6.7560701072216033935546875">
        <ele>610.5999755859375</ele>
        <time>2017-05-05T13:36:40.000Z</time>
        <extensions>
          <ns3:TrackPointExtension>
            <ns3:hr>151</ns3:hr>
          </ns3:TrackPointExtension>
        </extensions>
      </trkpt>
      <trkpt lat="46.783767230808734893798828125" lon="6.7561252601444721221923828125">
        <ele>611.79998779296875</ele>
        <time>2017-05-05T13:36:44.000Z</time>
        <extensions>
          <ns3:TrackPointExtension>
            <ns3:hr>151</ns3:hr>
          </ns3:TrackPointExtension>
        </extensions>
      </trkpt>
      <trkpt lat="46.78359749726951122283935546875" lon="6.75621159374713897705078125">
        <ele>612.79998779296875</ele>
        <time>2017-05-05T13:36:49.000Z</time>
        <extensions>
          <ns3:TrackPointExtension>
            <ns3:hr>151</ns3:hr>
          </ns3:TrackPointExtension>
        </extensions>
      </trkpt>
      <trkpt lat="46.78338979370892047882080078125" lon="6.7564367316663265228271484375">
        <ele>614</ele>
        <time>2017-05-05T13:36:56.000Z</time>
        <extensions>
          <ns3:TrackPointExtension>
            <ns3:hr>149</ns3:hr>
          </ns3:TrackPointExtension>
        </extensions>
      </trkpt>
      <trkpt lat="46.78322416730225086212158203125" lon="6.75664502196013927459716796875">
        <ele>615</ele>
        <time>2017-05-05T13:37:02.000Z</time>
        <extensions>
          <ns3:TrackPointExtension>
            <ns3:hr>150</ns3:hr>
          </ns3:TrackPointExtension>
        </extensions>
      </trkpt>
      <trkpt lat="46.78315124474465847015380859375" lon="6.756761111319065093994140625">
        <ele>615.20001220703125</ele>
        <time>2017-05-05T13:37:05.000Z</time>
        <extensions>
          <ns3:TrackPointExtension>
            <ns3:hr>153</ns3:hr>
          </ns3:TrackPointExtension>
        </extensions>
      </trkpt>
      <trkpt lat="46.78296692669391632080078125" lon="6.75703830085694789886474609375">
        <ele>616.20001220703125</ele>
        <time>2017-05-05T13:37:12.000Z</time>
        <extensions>
          <ns3:TrackPointExtension>
            <ns3:hr>152</ns3:hr>
          </ns3:TrackPointExtension>
        </extensions>
      </trkpt>
      <trkpt lat="46.7828269489109516143798828125" lon="6.757272742688655853271484375">
        <ele>617.20001220703125</ele>
        <time>2017-05-05T13:37:17.000Z</time>
        <extensions>
          <ns3:TrackPointExtension>
            <ns3:hr>151</ns3:hr>
          </ns3:TrackPointExtension>
        </extensions>
      </trkpt>
      <trkpt lat="46.78268973715603351593017578125" lon="6.75752059556543827056884765625">
        <ele>618.20001220703125</ele>
        <time>2017-05-05T13:37:22.000Z</time>
        <extensions>
          <ns3:TrackPointExtension>
            <ns3:hr>151</ns3:hr>
          </ns3:TrackPointExtension>
        </extensions>
      </trkpt>
      <trkpt lat="46.7824403755366802215576171875" lon="6.75803775899112224578857421875">
        <ele>619.20001220703125</ele>
        <time>2017-05-05T13:37:33.000Z</time>
        <extensions>
          <ns3:TrackPointExtension>
            <ns3:hr>149</ns3:hr>
          </ns3:TrackPointExtension>
        </extensions>
      </trkpt>
      <trkpt lat="46.782369799911975860595703125" lon="6.758214868605136871337890625">
        <ele>620.4000244140625</ele>
        <time>2017-05-05T13:37:37.000Z</time>
        <extensions>
          <ns3:TrackPointExtension>
            <ns3:hr>148</ns3:hr>
          </ns3:TrackPointExtension>
        </extensions>
      </trkpt>
      <trkpt lat="46.78232898004353046417236328125" lon="6.758414022624492645263671875">
        <ele>621.5999755859375</ele>
        <time>2017-05-05T13:37:41.000Z</time>
        <extensions>
          <ns3:TrackPointExtension>
            <ns3:hr>146</ns3:hr>
          </ns3:TrackPointExtension>
        </extensions>
      </trkpt>
      <trkpt lat="46.78229008801281452178955078125" lon="6.7586720176041126251220703125">
        <ele>622.5999755859375</ele>
        <time>2017-05-05T13:37:46.000Z</time>
        <extensions>
          <ns3:TrackPointExtension>
            <ns3:hr>149</ns3:hr>
          </ns3:TrackPointExtension>
        </extensions>
      </trkpt>
      <trkpt lat="46.78226192481815814971923828125" lon="6.75895708613097667694091796875">
        <ele>623.79998779296875</ele>
        <time>2017-05-05T13:37:51.000Z</time>
        <extensions>
          <ns3:TrackPointExtension>
            <ns3:hr>150</ns3:hr>
          </ns3:TrackPointExtension>
        </extensions>
      </trkpt>
      <trkpt lat="46.78222663700580596923828125" lon="6.7592027597129344940185546875">
        <ele>624.20001220703125</ele>
        <time>2017-05-05T13:37:55.000Z</time>
        <extensions>
          <ns3:TrackPointExtension>
            <ns3:hr>151</ns3:hr>
          </ns3:TrackPointExtension>
        </extensions>
      </trkpt>
      <trkpt lat="46.78214156068861484527587890625" lon="6.7598826996982097625732421875">
        <ele>624.79998779296875</ele>
        <time>2017-05-05T13:38:05.000Z</time>
        <extensions>
          <ns3:TrackPointExtension>
            <ns3:hr>151</ns3:hr>
          </ns3:TrackPointExtension>
        </extensions>
      </trkpt>
      <trkpt lat="46.78207534365355968475341796875" lon="6.76036574877798557281494140625">
        <ele>625.20001220703125</ele>
        <time>2017-05-05T13:38:12.000Z</time>
        <extensions>
          <ns3:TrackPointExtension>
            <ns3:hr>147</ns3:hr>
          </ns3:TrackPointExtension>
        </extensions>
      </trkpt>
      <trkpt lat="46.78205673582851886749267578125" lon="6.76055266521871089935302734375">
        <ele>625.79998779296875</ele>
        <time>2017-05-05T13:38:15.000Z</time>
        <extensions>
          <ns3:TrackPointExtension>
            <ns3:hr>147</ns3:hr>
          </ns3:TrackPointExtension>
        </extensions>
      </trkpt>
      <trkpt lat="46.78204416297376155853271484375" lon="6.76067822612822055816650390625">
        <ele>626.20001220703125</ele>
        <time>2017-05-05T13:38:17.000Z</time>
        <extensions>
          <ns3:TrackPointExtension>
            <ns3:hr>151</ns3:hr>
          </ns3:TrackPointExtension>
        </extensions>
      </trkpt>
      <trkpt lat="46.78202438168227672576904296875" lon="6.76085491664707660675048828125">
        <ele>627</ele>
        <time>2017-05-05T13:38:20.000Z</time>
        <extensions>
          <ns3:TrackPointExtension>
            <ns3:hr>151</ns3:hr>
          </ns3:TrackPointExtension>
        </extensions>
      </trkpt>
      <trkpt lat="46.7819483578205108642578125" lon="6.76133352331817150115966796875">
        <ele>628.20001220703125</ele>
        <time>2017-05-05T13:38:29.000Z</time>
        <extensions>
          <ns3:TrackPointExtension>
            <ns3:hr>150</ns3:hr>
          </ns3:TrackPointExtension>
        </extensions>
      </trkpt>
      <trkpt lat="46.7819414846599102020263671875" lon="6.76138347946107387542724609375">
        <ele>628.4000244140625</ele>
        <time>2017-05-05T13:38:30.000Z</time>
        <extensions>
          <ns3:TrackPointExtension>
            <ns3:hr>143</ns3:hr>
          </ns3:TrackPointExtension>
        </extensions>
      </trkpt>
      <trkpt lat="46.7819351144134998321533203125" lon="6.7614340223371982574462890625">
        <ele>628.4000244140625</ele>
        <time>2017-05-05T13:38:31.000Z</time>
        <extensions>
          <ns3:TrackPointExtension>
            <ns3:hr>140</ns3:hr>
          </ns3:TrackPointExtension>
        </extensions>
      </trkpt>
      <trkpt lat="46.7819297499954700469970703125" lon="6.761699058115482330322265625">
        <ele>629.20001220703125</ele>
        <time>2017-05-05T13:38:36.000Z</time>
        <extensions>
          <ns3:TrackPointExtension>
            <ns3:hr>140</ns3:hr>
          </ns3:TrackPointExtension>
        </extensions>
      </trkpt>
      <trkpt lat="46.78194056265056133270263671875" lon="6.7618081904947757720947265625">
        <ele>629.5999755859375</ele>
        <time>2017-05-05T13:38:38.000Z</time>
        <extensions>
          <ns3:TrackPointExtension>
            <ns3:hr>143</ns3:hr>
          </ns3:TrackPointExtension>
        </extensions>
      </trkpt>
      <trkpt lat="46.78203175775706768035888671875" lon="6.762106418609619140625">
        <ele>630.20001220703125</ele>
        <time>2017-05-05T13:38:44.000Z</time>
        <extensions>
          <ns3:TrackPointExtension>
            <ns3:hr>145</ns3:hr>
          </ns3:TrackPointExtension>
        </extensions>
      </trkpt>
      <trkpt lat="46.78210216574370861053466796875" lon="6.76223021931946277618408203125">
        <ele>630.4000244140625</ele>
        <time>2017-05-05T13:38:47.000Z</time>
        <extensions>
          <ns3:TrackPointExtension>
            <ns3:hr>144</ns3:hr>
          </ns3:TrackPointExtension>
        </extensions>
      </trkpt>
      <trkpt lat="46.782322190701961517333984375" lon="6.76252006553113460540771484375">
        <ele>631.4000244140625</ele>
        <time>2017-05-05T13:38:54.000Z</time>
        <extensions>
          <ns3:TrackPointExtension>
            <ns3:hr>145</ns3:hr>
          </ns3:TrackPointExtension>
        </extensions>
      </trkpt>
      <trkpt lat="46.782681941986083984375" lon="6.76298392005264759063720703125">
        <ele>632.5999755859375</ele>
        <time>2017-05-05T13:39:05.000Z</time>
        <extensions>
          <ns3:TrackPointExtension>
            <ns3:hr>145</ns3:hr>
          </ns3:TrackPointExtension>
        </extensions>
      </trkpt>
      <trkpt lat="46.7829412780702114105224609375" lon="6.76330612041056156158447265625">
        <ele>633.79998779296875</ele>
        <time>2017-05-05T13:39:14.000Z</time>
        <extensions>
          <ns3:TrackPointExtension>
            <ns3:hr>146</ns3:hr>
          </ns3:TrackPointExtension>
        </extensions>
      </trkpt>
      <trkpt lat="46.78305988200008869171142578125" lon="6.7634389735758304595947265625">
        <ele>634.79998779296875</ele>
        <time>2017-05-05T13:39:18.000Z</time>
        <extensions>
          <ns3:TrackPointExtension>
            <ns3:hr>145</ns3:hr>
          </ns3:TrackPointExtension>
        </extensions>
      </trkpt>
      <trkpt lat="46.7832036316394805908203125" lon="6.76360242068767547607421875">
        <ele>636</ele>
        <time>2017-05-05T13:39:23.000Z</time>
        <extensions>
          <ns3:TrackPointExtension>
            <ns3:hr>146</ns3:hr>
          </ns3:TrackPointExtension>
        </extensions>
      </trkpt>
      <trkpt lat="46.78342667408287525177001953125" lon="6.76385530270636081695556640625">
        <ele>637</ele>
        <time>2017-05-05T13:39:31.000Z</time>
        <extensions>
          <ns3:TrackPointExtension>
            <ns3:hr>144</ns3:hr>
          </ns3:TrackPointExtension>
        </extensions>
      </trkpt>
      <trkpt lat="46.78353496827185153961181640625" lon="6.7639881558716297149658203125">
        <ele>638.20001220703125</ele>
        <time>2017-05-05T13:39:35.000Z</time>
        <extensions>
          <ns3:TrackPointExtension>
            <ns3:hr>143</ns3:hr>
          </ns3:TrackPointExtension>
        </extensions>
      </trkpt>
      <trkpt lat="46.7836393229663372039794921875" lon="6.7641296423971652984619140625">
        <ele>639.20001220703125</ele>
        <time>2017-05-05T13:39:39.000Z</time>
        <extensions>
          <ns3:TrackPointExtension>
            <ns3:hr>142</ns3:hr>
          </ns3:TrackPointExtension>
        </extensions>
      </trkpt>
      <trkpt lat="46.78377888165414333343505859375" lon="6.7642939276993274688720703125">
        <ele>640.4000244140625</ele>
        <time>2017-05-05T13:39:44.000Z</time>
        <extensions>
          <ns3:TrackPointExtension>
            <ns3:hr>144</ns3:hr>
          </ns3:TrackPointExtension>
        </extensions>
      </trkpt>
      <trkpt lat="46.78391399793326854705810546875" lon="6.7644592188298702239990234375">
        <ele>641.4000244140625</ele>
        <time>2017-05-05T13:39:49.000Z</time>
        <extensions>
          <ns3:TrackPointExtension>
            <ns3:hr>146</ns3:hr>
          </ns3:TrackPointExtension>
        </extensions>
      </trkpt>
      <trkpt lat="46.78399630822241306304931640625" lon="6.7645547725260257720947265625">
        <ele>642.5999755859375</ele>
        <time>2017-05-05T13:39:52.000Z</time>
        <extensions>
          <ns3:TrackPointExtension>
            <ns3:hr>148</ns3:hr>
          </ns3:TrackPointExtension>
        </extensions>
      </trkpt>
      <trkpt lat="46.78411399014294147491455078125" lon="6.7647271044552326202392578125">
        <ele>643.79998779296875</ele>
        <time>2017-05-05T13:39:57.000Z</time>
        <extensions>
          <ns3:TrackPointExtension>
            <ns3:hr>148</ns3:hr>
          </ns3:TrackPointExtension>
        </extensions>
      </trkpt>
      <trkpt lat="46.7842022515833377838134765625" lon="6.76487856544554233551025390625">
        <ele>644.5999755859375</ele>
        <time>2017-05-05T13:40:01.000Z</time>
        <extensions>
          <ns3:TrackPointExtension>
            <ns3:hr>145</ns3:hr>
          </ns3:TrackPointExtension>
        </extensions>
      </trkpt>
      <trkpt lat="46.784248016774654388427734375" lon="6.764956600964069366455078125">
        <ele>645</ele>
        <time>2017-05-05T13:40:03.000Z</time>
        <extensions>
          <ns3:TrackPointExtension>
            <ns3:hr>144</ns3:hr>
          </ns3:TrackPointExtension>
        </extensions>
      </trkpt>
      <trkpt lat="46.784397549927234649658203125" lon="6.76518048159778118133544921875">
        <ele>645.79998779296875</ele>
        <time>2017-05-05T13:40:12.000Z</time>
        <extensions>
          <ns3:TrackPointExtension>
            <ns3:hr>142</ns3:hr>
          </ns3:TrackPointExtension>
        </extensions>
      </trkpt>
      <trkpt lat="46.7844148166477680206298828125" lon="6.765169836580753326416015625">
        <ele>646</ele>
        <time>2017-05-05T13:40:13.000Z</time>
        <extensions>
          <ns3:TrackPointExtension>
            <ns3:hr>142</ns3:hr>
          </ns3:TrackPointExtension>
        </extensions>
      </trkpt>
      <trkpt lat="46.784683875739574432373046875" lon="6.76478753797709941864013671875">
        <ele>646.5999755859375</ele>
        <time>2017-05-05T13:40:26.000Z</time>
        <extensions>
          <ns3:TrackPointExtension>
            <ns3:hr>145</ns3:hr>
          </ns3:TrackPointExtension>
        </extensions>
      </trkpt>
      <trkpt lat="46.7848664335906505584716796875" lon="6.764544211328029632568359375">
        <ele>646</ele>
        <time>2017-05-05T13:40:35.000Z</time>
        <extensions>
          <ns3:TrackPointExtension>
            <ns3:hr>145</ns3:hr>
          </ns3:TrackPointExtension>
        </extensions>
      </trkpt>
      <trkpt lat="46.78484640084207057952880859375" lon="6.7645110189914703369140625">
        <ele>645.79998779296875</ele>
        <time>2017-05-05T13:40:37.000Z</time>
        <extensions>
          <ns3:TrackPointExtension>
            <ns3:hr>145</ns3:hr>
          </ns3:TrackPointExtension>
        </extensions>
      </trkpt>
      <trkpt lat="46.78445429541170597076416015625" lon="6.76506045274436473846435546875">
        <ele>646.4000244140625</ele>
        <time>2017-05-05T13:40:49.000Z</time>
        <extensions>
          <ns3:TrackPointExtension>
            <ns3:hr>143</ns3:hr>
          </ns3:TrackPointExtension>
        </extensions>
      </trkpt>
      <trkpt lat="46.784261427819728851318359375" lon="6.76529380492866039276123046875">
        <ele>646.5999755859375</ele>
        <time>2017-05-05T13:40:54.000Z</time>
        <extensions>
          <ns3:TrackPointExtension>
            <ns3:hr>146</ns3:hr>
          </ns3:TrackPointExtension>
        </extensions>
      </trkpt>
      <trkpt lat="46.78409873507916927337646484375" lon="6.7654905281960964202880859375">
        <ele>646.5999755859375</ele>
        <time>2017-05-05T13:40:58.000Z</time>
        <extensions>
          <ns3:TrackPointExtension>
            <ns3:hr>147</ns3:hr>
          </ns3:TrackPointExtension>
        </extensions>
      </trkpt>
      <trkpt lat="46.78379380144178867340087890625" lon="6.7658435739576816558837890625">
        <ele>646.5999755859375</ele>
        <time>2017-05-05T13:41:05.000Z</time>
        <extensions>
          <ns3:TrackPointExtension>
            <ns3:hr>147</ns3:hr>
          </ns3:TrackPointExtension>
        </extensions>
      </trkpt>
      <trkpt lat="46.783758513629436492919921875" lon="6.76595094613730907440185546875">
        <ele>646.5999755859375</ele>
        <time>2017-05-05T13:41:07.000Z</time>
        <extensions>
          <ns3:TrackPointExtension>
            <ns3:hr>147</ns3:hr>
          </ns3:TrackPointExtension>
        </extensions>
      </trkpt>
      <trkpt lat="46.78377485834062099456787109375" lon="6.76616937853395938873291015625">
        <ele>647</ele>
        <time>2017-05-05T13:41:11.000Z</time>
        <extensions>
          <ns3:TrackPointExtension>
            <ns3:hr>148</ns3:hr>
          </ns3:TrackPointExtension>
        </extensions>
      </trkpt>
      <trkpt lat="46.783826909959316253662109375" lon="6.7663625814020633697509765625">
        <ele>648</ele>
        <time>2017-05-05T13:41:18.000Z</time>
        <extensions>
          <ns3:TrackPointExtension>
            <ns3:hr>147</ns3:hr>
          </ns3:TrackPointExtension>
        </extensions>
      </trkpt>
      <trkpt lat="46.78383755497634410858154296875" lon="6.76629158668220043182373046875">
        <ele>648.20001220703125</ele>
        <time>2017-05-05T13:41:20.000Z</time>
        <extensions>
          <ns3:TrackPointExtension>
            <ns3:hr>147</ns3:hr>
          </ns3:TrackPointExtension>
        </extensions>
      </trkpt>
      <trkpt lat="46.78382934071123600006103515625" lon="6.7662351764738559722900390625">
        <ele>648.20001220703125</ele>
        <time>2017-05-05T13:41:21.000Z</time>
        <extensions>
          <ns3:TrackPointExtension>
            <ns3:hr>147</ns3:hr>
          </ns3:TrackPointExtension>
        </extensions>
      </trkpt>
      <trkpt lat="46.78377628326416015625" lon="6.76597659476101398468017578125">
        <ele>648.4000244140625</ele>
        <time>2017-05-05T13:41:25.000Z</time>
        <extensions>
          <ns3:TrackPointExtension>
            <ns3:hr>147</ns3:hr>
          </ns3:TrackPointExtension>
        </extensions>
      </trkpt>
      <trkpt lat="46.7836971580982208251953125" lon="6.76595865748822689056396484375">
        <ele>648.5999755859375</ele>
        <time>2017-05-05T13:41:27.000Z</time>
        <extensions>
          <ns3:TrackPointExtension>
            <ns3:hr>147</ns3:hr>
          </ns3:TrackPointExtension>
        </extensions>
      </trkpt>
      <trkpt lat="46.7836078070104122161865234375" lon="6.76601934246718883514404296875">
        <ele>648.5999755859375</ele>
        <time>2017-05-05T13:41:29.000Z</time>
        <extensions>
          <ns3:TrackPointExtension>
            <ns3:hr>148</ns3:hr>
          </ns3:TrackPointExtension>
        </extensions>
      </trkpt>
      <trkpt lat="46.78338996134698390960693359375" lon="6.76624213345348834991455078125">
        <ele>648.4000244140625</ele>
        <time>2017-05-05T13:41:35.000Z</time>
        <extensions>
          <ns3:TrackPointExtension>
            <ns3:hr>147</ns3:hr>
          </ns3:TrackPointExtension>
        </extensions>
      </trkpt>
      <trkpt lat="46.78307513706386089324951171875" lon="6.766362749040126800537109375">
        <ele>648.79998779296875</ele>
        <time>2017-05-05T13:41:43.000Z</time>
        <extensions>
          <ns3:TrackPointExtension>
            <ns3:hr>144</ns3:hr>
          </ns3:TrackPointExtension>
        </extensions>
      </trkpt>
      <trkpt lat="46.782958209514617919921875" lon="6.76641345955431461334228515625">
        <ele>649.20001220703125</ele>
        <time>2017-05-05T13:41:46.000Z</time>
        <extensions>
          <ns3:TrackPointExtension>
            <ns3:hr>142</ns3:hr>
          </ns3:TrackPointExtension>
        </extensions>
      </trkpt>
      <trkpt lat="46.7828081734478473663330078125" lon="6.76647766493260860443115234375">
        <ele>649.79998779296875</ele>
        <time>2017-05-05T13:41:50.000Z</time>
        <extensions>
          <ns3:TrackPointExtension>
            <ns3:hr>139</ns3:hr>
          </ns3:TrackPointExtension>
        </extensions>
      </trkpt>
      <trkpt lat="46.78271614015102386474609375" lon="6.7665416188538074493408203125">
        <ele>650.20001220703125</ele>
        <time>2017-05-05T13:41:53.000Z</time>
        <extensions>
          <ns3:TrackPointExtension>
            <ns3:hr>138</ns3:hr>
          </ns3:TrackPointExtension>
        </extensions>
      </trkpt>
      <trkpt lat="46.7826217599213123321533203125" lon="6.7666774056851863861083984375">
        <ele>651.20001220703125</ele>
        <time>2017-05-05T13:41:57.000Z</time>
        <extensions>
          <ns3:TrackPointExtension>
            <ns3:hr>141</ns3:hr>
          </ns3:TrackPointExtension>
        </extensions>
      </trkpt>
      <trkpt lat="46.782606504857540130615234375" lon="6.76671436987817287445068359375">
        <ele>651.4000244140625</ele>
        <time>2017-05-05T13:41:58.000Z</time>
        <extensions>
          <ns3:TrackPointExtension>
            <ns3:hr>141</ns3:hr>
          </ns3:TrackPointExtension>
        </extensions>
      </trkpt>
      <trkpt lat="46.78257876075804233551025390625" lon="6.7668633162975311279296875">
        <ele>652.5999755859375</ele>
        <time>2017-05-05T13:42:02.000Z</time>
        <extensions>
          <ns3:TrackPointExtension>
            <ns3:hr>142</ns3:hr>
          </ns3:TrackPointExtension>
        </extensions>
      </trkpt>
      <trkpt lat="46.782582364976406097412109375" lon="6.76697337068617343902587890625">
        <ele>654</ele>
        <time>2017-05-05T13:42:05.000Z</time>
        <extensions>
          <ns3:TrackPointExtension>
            <ns3:hr>143</ns3:hr>
          </ns3:TrackPointExtension>
        </extensions>
      </trkpt>
      <trkpt lat="46.782582700252532958984375" lon="6.7671135999262332916259765625">
        <ele>655.20001220703125</ele>
        <time>2017-05-05T13:42:09.000Z</time>
        <extensions>
          <ns3:TrackPointExtension>
            <ns3:hr>142</ns3:hr>
          </ns3:TrackPointExtension>
        </extensions>
      </trkpt>
      <trkpt lat="46.78261647932231426239013671875" lon="6.76725835539400577545166015625">
        <ele>656.4000244140625</ele>
        <time>2017-05-05T13:42:13.000Z</time>
        <extensions>
          <ns3:TrackPointExtension>
            <ns3:hr>142</ns3:hr>
          </ns3:TrackPointExtension>
        </extensions>
      </trkpt>
      <trkpt lat="46.7826562933623790740966796875" lon="6.7674656398594379425048828125">
        <ele>657.5999755859375</ele>
        <time>2017-05-05T13:42:19.000Z</time>
        <extensions>
          <ns3:TrackPointExtension>
            <ns3:hr>145</ns3:hr>
          </ns3:TrackPointExtension>
        </extensions>
      </trkpt>
      <trkpt lat="46.78273382596671581268310546875" lon="6.7676706612110137939453125">
        <ele>658.5999755859375</ele>
        <time>2017-05-05T13:42:25.000Z</time>
        <extensions>
          <ns3:TrackPointExtension>
            <ns3:hr>145</ns3:hr>
          </ns3:TrackPointExtension>
        </extensions>
      </trkpt>
      <trkpt lat="46.78283055312931537628173828125" lon="6.76800568588078022003173828125">
        <ele>659.5999755859375</ele>
        <time>2017-05-05T13:42:34.000Z</time>
        <extensions>
          <ns3:TrackPointExtension>
            <ns3:hr>148</ns3:hr>
          </ns3:TrackPointExtension>
        </extensions>
      </trkpt>
      <trkpt lat="46.78293867968022823333740234375" lon="6.7682931013405323028564453125">
        <ele>660.79998779296875</ele>
        <time>2017-05-05T13:42:42.000Z</time>
        <extensions>
          <ns3:TrackPointExtension>
            <ns3:hr>147</ns3:hr>
          </ns3:TrackPointExtension>
        </extensions>
      </trkpt>
      <trkpt lat="46.78303842432796955108642578125" lon="6.7685289680957794189453125">
        <ele>661.5999755859375</ele>
        <time>2017-05-05T13:42:49.000Z</time>
        <extensions>
          <ns3:TrackPointExtension>
            <ns3:hr>144</ns3:hr>
          </ns3:TrackPointExtension>
        </extensions>
      </trkpt>
      <trkpt lat="46.78305652923882007598876953125" lon="6.76859325729310512542724609375">
        <ele>661.79998779296875</ele>
        <time>2017-05-05T13:42:51.000Z</time>
        <extensions>
          <ns3:TrackPointExtension>
            <ns3:hr>144</ns3:hr>
          </ns3:TrackPointExtension>
        </extensions>
      </trkpt>
      <trkpt lat="46.7831719480454921722412109375" lon="6.768797524273395538330078125">
        <ele>663</ele>
        <time>2017-05-05T13:42:59.000Z</time>
        <extensions>
          <ns3:TrackPointExtension>
            <ns3:hr>144</ns3:hr>
          </ns3:TrackPointExtension>
        </extensions>
      </trkpt>
      <trkpt lat="46.783256940543651580810546875" lon="6.76891529001295566558837890625">
        <ele>664.20001220703125</ele>
        <time>2017-05-05T13:43:04.000Z</time>
        <extensions>
          <ns3:TrackPointExtension>
            <ns3:hr>143</ns3:hr>
          </ns3:TrackPointExtension>
        </extensions>
      </trkpt>
      <trkpt lat="46.78332122974097728729248046875" lon="6.769013106822967529296875">
        <ele>665.20001220703125</ele>
        <time>2017-05-05T13:43:08.000Z</time>
        <extensions>
          <ns3:TrackPointExtension>
            <ns3:hr>143</ns3:hr>
          </ns3:TrackPointExtension>
        </extensions>
      </trkpt>
      <trkpt lat="46.783409155905246734619140625" lon="6.76915970630943775177001953125">
        <ele>666.4000244140625</ele>
        <time>2017-05-05T13:43:14.000Z</time>
        <extensions>
          <ns3:TrackPointExtension>
            <ns3:hr>145</ns3:hr>
          </ns3:TrackPointExtension>
        </extensions>
      </trkpt>
      <trkpt lat="46.78345969878137111663818359375" lon="6.76922759972512722015380859375">
        <ele>667.4000244140625</ele>
        <time>2017-05-05T13:43:17.000Z</time>
        <extensions>
          <ns3:TrackPointExtension>
            <ns3:hr>144</ns3:hr>
          </ns3:TrackPointExtension>
        </extensions>
      </trkpt>
      <trkpt lat="46.78359054028987884521484375" lon="6.76932332105934619903564453125">
        <ele>668.4000244140625</ele>
        <time>2017-05-05T13:43:23.000Z</time>
        <extensions>
          <ns3:TrackPointExtension>
            <ns3:hr>144</ns3:hr>
          </ns3:TrackPointExtension>
        </extensions>
      </trkpt>
      <trkpt lat="46.783692799508571624755859375" lon="6.76931661553680896759033203125">
        <ele>669</ele>
        <time>2017-05-05T13:43:27.000Z</time>
        <extensions>
          <ns3:TrackPointExtension>
            <ns3:hr>147</ns3:hr>
          </ns3:TrackPointExtension>
        </extensions>
      </trkpt>
      <trkpt lat="46.78388767875730991363525390625" lon="6.76927537657320499420166015625">
        <ele>669.5999755859375</ele>
        <time>2017-05-05T13:43:34.000Z</time>
        <extensions>
          <ns3:TrackPointExtension>
            <ns3:hr>149</ns3:hr>
          </ns3:TrackPointExtension>
        </extensions>
      </trkpt>
      <trkpt lat="46.78411415778100490570068359375" lon="6.7692858539521694183349609375">
        <ele>670.5999755859375</ele>
        <time>2017-05-05T13:43:42.000Z</time>
        <extensions>
          <ns3:TrackPointExtension>
            <ns3:hr>147</ns3:hr>
          </ns3:TrackPointExtension>
        </extensions>
      </trkpt>
      <trkpt lat="46.7845254577696323394775390625" lon="6.76943664439022541046142578125">
        <ele>670.20001220703125</ele>
        <time>2017-05-05T13:43:53.000Z</time>
        <extensions>
          <ns3:TrackPointExtension>
            <ns3:hr>148</ns3:hr>
          </ns3:TrackPointExtension>
        </extensions>
      </trkpt>
      <trkpt lat="46.7845891602337360382080078125" lon="6.76952113397419452667236328125">
        <ele>669.5999755859375</ele>
        <time>2017-05-05T13:43:55.000Z</time>
        <extensions>
          <ns3:TrackPointExtension>
            <ns3:hr>148</ns3:hr>
          </ns3:TrackPointExtension>
        </extensions>
      </trkpt>
      <trkpt lat="46.78464758209884166717529296875" lon="6.76982514560222625732421875">
        <ele>668.20001220703125</ele>
        <time>2017-05-05T13:43:59.000Z</time>
        <extensions>
          <ns3:TrackPointExtension>
            <ns3:hr>149</ns3:hr>
          </ns3:TrackPointExtension>
        </extensions>
      </trkpt>
      <trkpt lat="46.78470809943974018096923828125" lon="6.7704479210078716278076171875">
        <ele>667</ele>
        <time>2017-05-05T13:44:05.000Z</time>
        <extensions>
          <ns3:TrackPointExtension>
            <ns3:hr>151</ns3:hr>
          </ns3:TrackPointExtension>
        </extensions>
      </trkpt>
      <trkpt lat="46.7847185768187046051025390625" lon="6.77069141529500484466552734375">
        <ele>666</ele>
        <time>2017-05-05T13:44:07.000Z</time>
        <extensions>
          <ns3:TrackPointExtension>
            <ns3:hr>151</ns3:hr>
          </ns3:TrackPointExtension>
        </extensions>
      </trkpt>
      <trkpt lat="46.7847356759011745452880859375" lon="6.77108033560216426849365234375">
        <ele>664.20001220703125</ele>
        <time>2017-05-05T13:44:10.000Z</time>
        <extensions>
          <ns3:TrackPointExtension>
            <ns3:hr>151</ns3:hr>
          </ns3:TrackPointExtension>
        </extensions>
      </trkpt>
      <trkpt lat="46.784740872681140899658203125" lon="6.77134235389530658721923828125">
        <ele>663.20001220703125</ele>
        <time>2017-05-05T13:44:12.000Z</time>
        <extensions>
          <ns3:TrackPointExtension>
            <ns3:hr>150</ns3:hr>
          </ns3:TrackPointExtension>
        </extensions>
      </trkpt>
      <trkpt lat="46.78476140834391117095947265625" lon="6.7717280052602291107177734375">
        <ele>661.4000244140625</ele>
        <time>2017-05-05T13:44:15.000Z</time>
        <extensions>
          <ns3:TrackPointExtension>
            <ns3:hr>148</ns3:hr>
          </ns3:TrackPointExtension>
        </extensions>
      </trkpt>
      <trkpt lat="46.78477196954190731048583984375" lon="6.77198390476405620574951171875">
        <ele>660</ele>
        <time>2017-05-05T13:44:17.000Z</time>
        <extensions>
          <ns3:TrackPointExtension>
            <ns3:hr>149</ns3:hr>
          </ns3:TrackPointExtension>
        </extensions>
      </trkpt>
      <trkpt lat="46.78476191125810146331787109375" lon="6.77233963273465633392333984375">
        <ele>659</ele>
        <time>2017-05-05T13:44:20.000Z</time>
        <extensions>
          <ns3:TrackPointExtension>
            <ns3:hr>151</ns3:hr>
          </ns3:TrackPointExtension>
        </extensions>
      </trkpt>
      <trkpt lat="46.78471866063773632049560546875" lon="6.77318595349788665771484375">
        <ele>660</ele>
        <time>2017-05-05T13:44:30.000Z</time>
        <extensions>
          <ns3:TrackPointExtension>
            <ns3:hr>149</ns3:hr>
          </ns3:TrackPointExtension>
        </extensions>
      </trkpt>
      <trkpt lat="46.7847155593335628509521484375" lon="6.7733323015272617340087890625">
        <ele>661.20001220703125</ele>
        <time>2017-05-05T13:44:32.000Z</time>
        <extensions>
          <ns3:TrackPointExtension>
            <ns3:hr>148</ns3:hr>
          </ns3:TrackPointExtension>
        </extensions>
      </trkpt>
      <trkpt lat="46.78470659069716930389404296875" lon="6.7735401727259159088134765625">
        <ele>662</ele>
        <time>2017-05-05T13:44:35.000Z</time>
        <extensions>
          <ns3:TrackPointExtension>
            <ns3:hr>146</ns3:hr>
          </ns3:TrackPointExtension>
        </extensions>
      </trkpt>
      <trkpt lat="46.78469636477530002593994140625" lon="6.77366464398801326751708984375">
        <ele>662.5999755859375</ele>
        <time>2017-05-05T13:44:37.000Z</time>
        <extensions>
          <ns3:TrackPointExtension>
            <ns3:hr>146</ns3:hr>
          </ns3:TrackPointExtension>
        </extensions>
      </trkpt>
      <trkpt lat="46.78468764759600162506103515625" lon="6.77400796674191951751708984375">
        <ele>663.79998779296875</ele>
        <time>2017-05-05T13:44:43.000Z</time>
        <extensions>
          <ns3:TrackPointExtension>
            <ns3:hr>144</ns3:hr>
          </ns3:TrackPointExtension>
        </extensions>
      </trkpt>
      <trkpt lat="46.7846813611686229705810546875" lon="6.77416085265576839447021484375">
        <ele>665.20001220703125</ele>
        <time>2017-05-05T13:44:46.000Z</time>
        <extensions>
          <ns3:TrackPointExtension>
            <ns3:hr>143</ns3:hr>
          </ns3:TrackPointExtension>
        </extensions>
      </trkpt>
      <trkpt lat="46.7846984602510929107666015625" lon="6.7743022553622722625732421875">
        <ele>666.4000244140625</ele>
        <time>2017-05-05T13:44:49.000Z</time>
        <extensions>
          <ns3:TrackPointExtension>
            <ns3:hr>143</ns3:hr>
          </ns3:TrackPointExtension>
        </extensions>
      </trkpt>
      <trkpt lat="46.7848934233188629150390625" lon="6.774417422711849212646484375">
        <ele>667.5999755859375</ele>
        <time>2017-05-05T13:44:55.000Z</time>
        <extensions>
          <ns3:TrackPointExtension>
            <ns3:hr>141</ns3:hr>
          </ns3:TrackPointExtension>
        </extensions>
      </trkpt>
      <trkpt lat="46.785118393599987030029296875" lon="6.7745077796280384063720703125">
        <ele>668.79998779296875</ele>
        <time>2017-05-05T13:45:01.000Z</time>
        <extensions>
          <ns3:TrackPointExtension>
            <ns3:hr>142</ns3:hr>
          </ns3:TrackPointExtension>
        </extensions>
      </trkpt>
      <trkpt lat="46.7852959223091602325439453125" lon="6.77457374520599842071533203125">
        <ele>669.4000244140625</ele>
        <time>2017-05-05T13:45:06.000Z</time>
        <extensions>
          <ns3:TrackPointExtension>
            <ns3:hr>145</ns3:hr>
          </ns3:TrackPointExtension>
        </extensions>
      </trkpt>
      <trkpt lat="46.78542240522801876068115234375" lon="6.7746229469776153564453125">
        <ele>669.79998779296875</ele>
        <time>2017-05-05T13:45:10.000Z</time>
        <extensions>
          <ns3:TrackPointExtension>
            <ns3:hr>146</ns3:hr>
          </ns3:TrackPointExtension>
        </extensions>
      </trkpt>
      <trkpt lat="46.78563865832984447479248046875" lon="6.77469511516392230987548828125">
        <ele>671</ele>
        <time>2017-05-05T13:45:18.000Z</time>
        <extensions>
          <ns3:TrackPointExtension>
            <ns3:hr>144</ns3:hr>
          </ns3:TrackPointExtension>
        </extensions>
      </trkpt>
      <trkpt lat="46.78574745543301105499267578125" lon="6.77473568357527256011962890625">
        <ele>672</ele>
        <time>2017-05-05T13:45:22.000Z</time>
        <extensions>
          <ns3:TrackPointExtension>
            <ns3:hr>143</ns3:hr>
          </ns3:TrackPointExtension>
        </extensions>
      </trkpt>
      <trkpt lat="46.7858501337468624114990234375" lon="6.77477139048278331756591796875">
        <ele>673.20001220703125</ele>
        <time>2017-05-05T13:45:26.000Z</time>
        <extensions>
          <ns3:TrackPointExtension>
            <ns3:hr>144</ns3:hr>
          </ns3:TrackPointExtension>
        </extensions>
      </trkpt>
      <trkpt lat="46.78594996221363544464111328125" lon="6.77480860613286495208740234375">
        <ele>674.20001220703125</ele>
        <time>2017-05-05T13:45:30.000Z</time>
        <extensions>
          <ns3:TrackPointExtension>
            <ns3:hr>147</ns3:hr>
          </ns3:TrackPointExtension>
        </extensions>
      </trkpt>
      <trkpt lat="46.78602330386638641357421875" lon="6.7748363502323627471923828125">
        <ele>675.20001220703125</ele>
        <time>2017-05-05T13:45:33.000Z</time>
        <extensions>
          <ns3:TrackPointExtension>
            <ns3:hr>149</ns3:hr>
          </ns3:TrackPointExtension>
        </extensions>
      </trkpt>
      <trkpt lat="46.7861264012753963470458984375" lon="6.77486929111182689666748046875">
        <ele>676.4000244140625</ele>
        <time>2017-05-05T13:45:37.000Z</time>
        <extensions>
          <ns3:TrackPointExtension>
            <ns3:hr>149</ns3:hr>
          </ns3:TrackPointExtension>
        </extensions>
      </trkpt>
      <trkpt lat="46.786267720162868499755859375" lon="6.77492159418761730194091796875">
        <ele>677.5999755859375</ele>
        <time>2017-05-05T13:45:42.000Z</time>
        <extensions>
          <ns3:TrackPointExtension>
            <ns3:hr>149</ns3:hr>
          </ns3:TrackPointExtension>
        </extensions>
      </trkpt>
      <trkpt lat="46.78641532547771930694580078125" lon="6.77497775293886661529541015625">
        <ele>678.79998779296875</ele>
        <time>2017-05-05T13:45:47.000Z</time>
        <extensions>
          <ns3:TrackPointExtension>
            <ns3:hr>147</ns3:hr>
          </ns3:TrackPointExtension>
        </extensions>
      </trkpt>
      <trkpt lat="46.78665353916585445404052734375" lon="6.77504262886941432952880859375">
        <ele>679.79998779296875</ele>
        <time>2017-05-05T13:45:55.000Z</time>
        <extensions>
          <ns3:TrackPointExtension>
            <ns3:hr>146</ns3:hr>
          </ns3:TrackPointExtension>
        </extensions>
      </trkpt>
      <trkpt lat="46.7868058383464813232421875" lon="6.77505821920931339263916015625">
        <ele>681</ele>
        <time>2017-05-05T13:46:00.000Z</time>
        <extensions>
          <ns3:TrackPointExtension>
            <ns3:hr>145</ns3:hr>
          </ns3:TrackPointExtension>
        </extensions>
      </trkpt>
      <trkpt lat="46.78695998154580593109130859375" lon="6.775086633861064910888671875">
        <ele>682</ele>
        <time>2017-05-05T13:46:05.000Z</time>
        <extensions>
          <ns3:TrackPointExtension>
            <ns3:hr>146</ns3:hr>
          </ns3:TrackPointExtension>
        </extensions>
      </trkpt>
      <trkpt lat="46.7872029729187488555908203125" lon="6.77510851062834262847900390625">
        <ele>683.20001220703125</ele>
        <time>2017-05-05T13:46:13.000Z</time>
        <extensions>
          <ns3:TrackPointExtension>
            <ns3:hr>145</ns3:hr>
          </ns3:TrackPointExtension>
        </extensions>
      </trkpt>
      <trkpt lat="46.78737840615212917327880859375" lon="6.77510214038193225860595703125">
        <ele>684.20001220703125</ele>
        <time>2017-05-05T13:46:19.000Z</time>
        <extensions>
          <ns3:TrackPointExtension>
            <ns3:hr>147</ns3:hr>
          </ns3:TrackPointExtension>
        </extensions>
      </trkpt>
      <trkpt lat="46.787510253489017486572265625" lon="6.775065846741199493408203125">
        <ele>685</ele>
        <time>2017-05-05T13:46:24.000Z</time>
        <extensions>
          <ns3:TrackPointExtension>
            <ns3:hr>144</ns3:hr>
          </ns3:TrackPointExtension>
        </extensions>
      </trkpt>
      <trkpt lat="46.78756599314510822296142578125" lon="6.77506207488477230072021484375">
        <ele>685.20001220703125</ele>
        <time>2017-05-05T13:46:26.000Z</time>
        <extensions>
          <ns3:TrackPointExtension>
            <ns3:hr>140</ns3:hr>
          </ns3:TrackPointExtension>
        </extensions>
      </trkpt>
      <trkpt lat="46.78759247995913028717041015625" lon="6.77506324835121631622314453125">
        <ele>685.20001220703125</ele>
        <time>2017-05-05T13:46:27.000Z</time>
        <extensions>
          <ns3:TrackPointExtension>
            <ns3:hr>145</ns3:hr>
          </ns3:TrackPointExtension>
        </extensions>
      </trkpt>
      <trkpt lat="46.78766305558383464813232421875" lon="6.7750720493495464324951171875">
        <ele>685.4000244140625</ele>
        <time>2017-05-05T13:46:30.000Z</time>
        <extensions>
          <ns3:TrackPointExtension>
            <ns3:hr>152</ns3:hr>
          </ns3:TrackPointExtension>
        </extensions>
      </trkpt>
      <trkpt lat="46.78784259594976902008056640625" lon="6.77508118562400341033935546875">
        <ele>686.4000244140625</ele>
        <time>2017-05-05T13:46:37.000Z</time>
        <extensions>
          <ns3:TrackPointExtension>
            <ns3:hr>151</ns3:hr>
          </ns3:TrackPointExtension>
        </extensions>
      </trkpt>
      <trkpt lat="46.78804778493940830230712890625" lon="6.7751337401568889617919921875">
        <ele>687.4000244140625</ele>
        <time>2017-05-05T13:46:45.000Z</time>
        <extensions>
          <ns3:TrackPointExtension>
            <ns3:hr>148</ns3:hr>
          </ns3:TrackPointExtension>
        </extensions>
      </trkpt>
      <trkpt lat="46.7880780436098575592041015625" lon="6.77513902075588703155517578125">
        <ele>687.5999755859375</ele>
        <time>2017-05-05T13:46:46.000Z</time>
        <extensions>
          <ns3:TrackPointExtension>
            <ns3:hr>148</ns3:hr>
          </ns3:TrackPointExtension>
        </extensions>
      </trkpt>
      <trkpt lat="46.7882810533046722412109375" lon="6.775155030190944671630859375">
        <ele>688.5999755859375</ele>
        <time>2017-05-05T13:46:52.000Z</time>
        <extensions>
          <ns3:TrackPointExtension>
            <ns3:hr>149</ns3:hr>
          </ns3:TrackPointExtension>
        </extensions>
      </trkpt>
      <trkpt lat="46.788505017757415771484375" lon="6.775169111788272857666015625">
        <ele>689.79998779296875</ele>
        <time>2017-05-05T13:46:59.000Z</time>
        <extensions>
          <ns3:TrackPointExtension>
            <ns3:hr>152</ns3:hr>
          </ns3:TrackPointExtension>
        </extensions>
      </trkpt>
      <trkpt lat="46.7886560596525669097900390625" lon="6.7752048186957836151123046875">
        <ele>690.79998779296875</ele>
        <time>2017-05-05T13:47:05.000Z</time>
        <extensions>
          <ns3:TrackPointExtension>
            <ns3:hr>152</ns3:hr>
          </ns3:TrackPointExtension>
        </extensions>
      </trkpt>
      <trkpt lat="46.78916190750896930694580078125" lon="6.77539869211614131927490234375">
        <ele>690.79998779296875</ele>
        <time>2017-05-05T13:47:18.000Z</time>
        <extensions>
          <ns3:TrackPointExtension>
            <ns3:hr>150</ns3:hr>
          </ns3:TrackPointExtension>
        </extensions>
      </trkpt>
      <trkpt lat="46.7892511747777462005615234375" lon="6.775472201406955718994140625">
        <ele>689.79998779296875</ele>
        <time>2017-05-05T13:47:20.000Z</time>
        <extensions>
          <ns3:TrackPointExtension>
            <ns3:hr>147</ns3:hr>
          </ns3:TrackPointExtension>
        </extensions>
      </trkpt>
      <trkpt lat="46.78943314589560031890869140625" lon="6.77561603486537933349609375">
        <ele>688.5999755859375</ele>
        <time>2017-05-05T13:47:24.000Z</time>
        <extensions>
          <ns3:TrackPointExtension>
            <ns3:hr>147</ns3:hr>
          </ns3:TrackPointExtension>
        </extensions>
      </trkpt>
      <trkpt lat="46.78965291939675807952880859375" lon="6.77581158466637134552001953125">
        <ele>688</ele>
        <time>2017-05-05T13:47:29.000Z</time>
        <extensions>
          <ns3:TrackPointExtension>
            <ns3:hr>147</ns3:hr>
          </ns3:TrackPointExtension>
        </extensions>
      </trkpt>
      <trkpt lat="46.789739839732646942138671875" lon="6.775887273252010345458984375">
        <ele>687.5999755859375</ele>
        <time>2017-05-05T13:47:31.000Z</time>
        <extensions>
          <ns3:TrackPointExtension>
            <ns3:hr>147</ns3:hr>
          </ns3:TrackPointExtension>
        </extensions>
      </trkpt>
      <trkpt lat="46.78982726298272609710693359375" lon="6.77597553469240665435791015625">
        <ele>687.4000244140625</ele>
        <time>2017-05-05T13:47:33.000Z</time>
        <extensions>
          <ns3:TrackPointExtension>
            <ns3:hr>147</ns3:hr>
          </ns3:TrackPointExtension>
        </extensions>
      </trkpt>
      <trkpt lat="46.79022925905883312225341796875" lon="6.77640887908637523651123046875">
        <ele>686.5999755859375</ele>
        <time>2017-05-05T13:47:43.000Z</time>
        <extensions>
          <ns3:TrackPointExtension>
            <ns3:hr>149</ns3:hr>
          </ns3:TrackPointExtension>
        </extensions>
      </trkpt>
      <trkpt lat="46.7907203547656536102294921875" lon="6.77681230008602142333984375">
        <ele>685.5999755859375</ele>
        <time>2017-05-05T13:47:55.000Z</time>
        <extensions>
          <ns3:TrackPointExtension>
            <ns3:hr>149</ns3:hr>
          </ns3:TrackPointExtension>
        </extensions>
      </trkpt>
      <trkpt lat="46.79085538722574710845947265625" lon="6.77689804695546627044677734375">
        <ele>685.4000244140625</ele>
        <time>2017-05-05T13:47:58.000Z</time>
        <extensions>
          <ns3:TrackPointExtension>
            <ns3:hr>150</ns3:hr>
          </ns3:TrackPointExtension>
        </extensions>
      </trkpt>
      <trkpt lat="46.791165769100189208984375" lon="6.7770471610128879547119140625">
        <ele>684.79998779296875</ele>
        <time>2017-05-05T13:48:05.000Z</time>
        <extensions>
          <ns3:TrackPointExtension>
            <ns3:hr>152</ns3:hr>
          </ns3:TrackPointExtension>
        </extensions>
      </trkpt>
      <trkpt lat="46.791291497647762298583984375" lon="6.7771323211491107940673828125">
        <ele>684.79998779296875</ele>
        <time>2017-05-05T13:48:08.000Z</time>
        <extensions>
          <ns3:TrackPointExtension>
            <ns3:hr>152</ns3:hr>
          </ns3:TrackPointExtension>
        </extensions>
      </trkpt>
      <trkpt lat="46.79156449623405933380126953125" lon="6.77724908106029033660888671875">
        <ele>684.5999755859375</ele>
        <time>2017-05-05T13:48:14.000Z</time>
        <extensions>
          <ns3:TrackPointExtension>
            <ns3:hr>152</ns3:hr>
          </ns3:TrackPointExtension>
        </extensions>
      </trkpt>
      <trkpt lat="46.79170229472219944000244140625" lon="6.77734480239450931549072265625">
        <ele>684.4000244140625</ele>
        <time>2017-05-05T13:48:17.000Z</time>
        <extensions>
          <ns3:TrackPointExtension>
            <ns3:hr>152</ns3:hr>
          </ns3:TrackPointExtension>
        </extensions>
      </trkpt>
      <trkpt lat="46.79198040626943111419677734375" lon="6.77751109935343265533447265625">
        <ele>684</ele>
        <time>2017-05-05T13:48:23.000Z</time>
        <extensions>
          <ns3:TrackPointExtension>
            <ns3:hr>152</ns3:hr>
          </ns3:TrackPointExtension>
        </extensions>
      </trkpt>
      <trkpt lat="46.79224879480898380279541015625" lon="6.77766012959182262420654296875">
        <ele>683.4000244140625</ele>
        <time>2017-05-05T13:48:29.000Z</time>
        <extensions>
          <ns3:TrackPointExtension>
            <ns3:hr>152</ns3:hr>
          </ns3:TrackPointExtension>
        </extensions>
      </trkpt>
      <trkpt lat="46.79231585003435611724853515625" lon="6.7777083255350589752197265625">
        <ele>682.5999755859375</ele>
        <time>2017-05-05T13:48:32.000Z</time>
        <extensions>
          <ns3:TrackPointExtension>
            <ns3:hr>151</ns3:hr>
          </ns3:TrackPointExtension>
        </extensions>
      </trkpt>
      <trkpt lat="46.792321465909481048583984375" lon="6.77774730138480663299560546875">
        <ele>682.4000244140625</ele>
        <time>2017-05-05T13:48:34.000Z</time>
        <extensions>
          <ns3:TrackPointExtension>
            <ns3:hr>151</ns3:hr>
          </ns3:TrackPointExtension>
        </extensions>
      </trkpt>
      <trkpt lat="46.79206405766308307647705078125" lon="6.77798601798713207244873046875">
        <ele>683</ele>
        <time>2017-05-05T13:48:48.000Z</time>
        <extensions>
          <ns3:TrackPointExtension>
            <ns3:hr>148</ns3:hr>
          </ns3:TrackPointExtension>
        </extensions>
      </trkpt>
      <trkpt lat="46.7919280193746089935302734375" lon="6.77810537628829479217529296875">
        <ele>684.5999755859375</ele>
        <time>2017-05-05T13:48:55.000Z</time>
        <extensions>
          <ns3:TrackPointExtension>
            <ns3:hr>146</ns3:hr>
          </ns3:TrackPointExtension>
        </extensions>
      </trkpt>
      <trkpt lat="46.791871525347232818603515625" lon="6.778162457048892974853515625">
        <ele>685.5999755859375</ele>
        <time>2017-05-05T13:48:58.000Z</time>
        <extensions>
          <ns3:TrackPointExtension>
            <ns3:hr>144</ns3:hr>
          </ns3:TrackPointExtension>
        </extensions>
      </trkpt>
      <trkpt lat="46.79177756421267986297607421875" lon="6.77822506986558437347412109375">
        <ele>686.79998779296875</ele>
        <time>2017-05-05T13:49:03.000Z</time>
        <extensions>
          <ns3:TrackPointExtension>
            <ns3:hr>142</ns3:hr>
          </ns3:TrackPointExtension>
        </extensions>
      </trkpt>
      <trkpt lat="46.791728027164936065673828125" lon="6.77825323306024074554443359375">
        <ele>687.79998779296875</ele>
        <time>2017-05-05T13:49:06.000Z</time>
        <extensions>
          <ns3:TrackPointExtension>
            <ns3:hr>142</ns3:hr>
          </ns3:TrackPointExtension>
        </extensions>
      </trkpt>
      <trkpt lat="46.791597269475460052490234375" lon="6.77831492386758327484130859375">
        <ele>688.79998779296875</ele>
        <time>2017-05-05T13:49:12.000Z</time>
        <extensions>
          <ns3:TrackPointExtension>
            <ns3:hr>144</ns3:hr>
          </ns3:TrackPointExtension>
        </extensions>
      </trkpt>
      <trkpt lat="46.79154035635292530059814453125" lon="6.7783678136765956878662109375">
        <ele>690</ele>
        <time>2017-05-05T13:49:15.000Z</time>
        <extensions>
          <ns3:TrackPointExtension>
            <ns3:hr>144</ns3:hr>
          </ns3:TrackPointExtension>
        </extensions>
      </trkpt>
      <trkpt lat="46.791541278362274169921875" lon="6.77839539013803005218505859375">
        <ele>690</ele>
        <time>2017-05-05T13:49:16.000Z</time>
        <extensions>
          <ns3:TrackPointExtension>
            <ns3:hr>144</ns3:hr>
          </ns3:TrackPointExtension>
        </extensions>
      </trkpt>
      <trkpt lat="46.79159517399966716766357421875" lon="6.77846185863018035888671875">
        <ele>690.5999755859375</ele>
        <time>2017-05-05T13:49:19.000Z</time>
        <extensions>
          <ns3:TrackPointExtension>
            <ns3:hr>147</ns3:hr>
          </ns3:TrackPointExtension>
        </extensions>
      </trkpt>
      <trkpt lat="46.7916467227041721343994140625" lon="6.7785389721393585205078125">
        <ele>691</ele>
        <time>2017-05-05T13:49:22.000Z</time>
        <extensions>
          <ns3:TrackPointExtension>
            <ns3:hr>148</ns3:hr>
          </ns3:TrackPointExtension>
        </extensions>
      </trkpt>
      <trkpt lat="46.79195995442569255828857421875" lon="6.7791309021413326263427734375">
        <ele>692</ele>
        <time>2017-05-05T13:49:36.000Z</time>
        <extensions>
          <ns3:TrackPointExtension>
            <ns3:hr>151</ns3:hr>
          </ns3:TrackPointExtension>
        </extensions>
      </trkpt>
      <trkpt lat="46.7920980043709278106689453125" lon="6.77941982634365558624267578125">
        <ele>692</ele>
        <time>2017-05-05T13:49:42.000Z</time>
        <extensions>
          <ns3:TrackPointExtension>
            <ns3:hr>151</ns3:hr>
          </ns3:TrackPointExtension>
        </extensions>
      </trkpt>
      <trkpt lat="46.7923150956630706787109375" lon="6.77987898699939250946044921875">
        <ele>692</ele>
        <time>2017-05-05T13:49:50.000Z</time>
        <extensions>
          <ns3:TrackPointExtension>
            <ns3:hr>152</ns3:hr>
          </ns3:TrackPointExtension>
        </extensions>
      </trkpt>
      <trkpt lat="46.792482398450374603271484375" lon="6.78015542216598987579345703125">
        <ele>691.79998779296875</ele>
        <time>2017-05-05T13:49:54.000Z</time>
        <extensions>
          <ns3:TrackPointExtension>
            <ns3:hr>149</ns3:hr>
          </ns3:TrackPointExtension>
        </extensions>
      </trkpt>
      <trkpt lat="46.79267308674752712249755859375" lon="6.78047762252390384674072265625">
        <ele>691</ele>
        <time>2017-05-05T13:49:59.000Z</time>
        <extensions>
          <ns3:TrackPointExtension>
            <ns3:hr>149</ns3:hr>
          </ns3:TrackPointExtension>
        </extensions>
      </trkpt>
      <trkpt lat="46.79272346198558807373046875" lon="6.7805506289005279541015625">
        <ele>690</ele>
        <time>2017-05-05T13:50:01.000Z</time>
        <extensions>
          <ns3:TrackPointExtension>
            <ns3:hr>150</ns3:hr>
          </ns3:TrackPointExtension>
        </extensions>
      </trkpt>
      <trkpt lat="46.79276159964501857757568359375" lon="6.7805873416364192962646484375">
        <ele>689.4000244140625</ele>
        <time>2017-05-05T13:50:03.000Z</time>
        <extensions>
          <ns3:TrackPointExtension>
            <ns3:hr>151</ns3:hr>
          </ns3:TrackPointExtension>
        </extensions>
      </trkpt>
      <trkpt lat="46.79278775118291378021240234375" lon="6.7805801331996917724609375">
        <ele>688.79998779296875</ele>
        <time>2017-05-05T13:50:05.000Z</time>
        <extensions>
          <ns3:TrackPointExtension>
            <ns3:hr>151</ns3:hr>
          </ns3:TrackPointExtension>
        </extensions>
      </trkpt>
      <trkpt lat="46.79279529489576816558837890625" lon="6.7805615253746509552001953125">
        <ele>687.79998779296875</ele>
        <time>2017-05-05T13:50:10.000Z</time>
        <extensions>
          <ns3:TrackPointExtension>
            <ns3:hr>151</ns3:hr>
          </ns3:TrackPointExtension>
        </extensions>
      </trkpt>
      <trkpt lat="46.79277241230010986328125" lon="6.780608631670475006103515625">
        <ele>687</ele>
        <time>2017-05-05T13:50:20.000Z</time>
        <extensions>
          <ns3:TrackPointExtension>
            <ns3:hr>151</ns3:hr>
          </ns3:TrackPointExtension>
        </extensions>
      </trkpt>
      <trkpt lat="46.7926569096744060516357421875" lon="6.7807740904390811920166015625">
        <ele>686.5999755859375</ele>
        <time>2017-05-05T13:50:25.000Z</time>
        <extensions>
          <ns3:TrackPointExtension>
            <ns3:hr>151</ns3:hr>
          </ns3:TrackPointExtension>
        </extensions>
      </trkpt>
      <trkpt lat="46.7923323623836040496826171875" lon="6.7812050879001617431640625">
        <ele>685.5999755859375</ele>
        <time>2017-05-05T13:50:33.000Z</time>
        <extensions>
          <ns3:TrackPointExtension>
            <ns3:hr>149</ns3:hr>
          </ns3:TrackPointExtension>
        </extensions>
      </trkpt>
      <trkpt lat="46.79186909459531307220458984375" lon="6.781680844724178314208984375">
        <ele>685.20001220703125</ele>
        <time>2017-05-05T13:50:43.000Z</time>
        <extensions>
          <ns3:TrackPointExtension>
            <ns3:hr>151</ns3:hr>
          </ns3:TrackPointExtension>
        </extensions>
      </trkpt>
      <trkpt lat="46.7916986905038356781005859375" lon="6.7818536795675754547119140625">
        <ele>687</ele>
        <time>2017-05-05T13:50:50.000Z</time>
        <extensions>
          <ns3:TrackPointExtension>
            <ns3:hr>151</ns3:hr>
          </ns3:TrackPointExtension>
        </extensions>
      </trkpt>
      <trkpt lat="46.79167832247912883758544921875" lon="6.78188913501799106597900390625">
        <ele>688</ele>
        <time>2017-05-05T13:50:52.000Z</time>
        <extensions>
          <ns3:TrackPointExtension>
            <ns3:hr>152</ns3:hr>
          </ns3:TrackPointExtension>
        </extensions>
      </trkpt>
      <trkpt lat="46.7916364967823028564453125" lon="6.78194277919828891754150390625">
        <ele>689</ele>
        <time>2017-05-05T13:50:54.000Z</time>
        <extensions>
          <ns3:TrackPointExtension>
            <ns3:hr>155</ns3:hr>
          </ns3:TrackPointExtension>
        </extensions>
      </trkpt>
      <trkpt lat="46.791612021625041961669921875" lon="6.7819683440029621124267578125">
        <ele>689.79998779296875</ele>
        <time>2017-05-05T13:50:55.000Z</time>
        <extensions>
          <ns3:TrackPointExtension>
            <ns3:hr>155</ns3:hr>
          </ns3:TrackPointExtension>
        </extensions>
      </trkpt>
      <trkpt lat="46.7915243469178676605224609375" lon="6.7820548452436923980712890625">
        <ele>691.20001220703125</ele>
        <time>2017-05-05T13:50:58.000Z</time>
        <extensions>
          <ns3:TrackPointExtension>
            <ns3:hr>155</ns3:hr>
          </ns3:TrackPointExtension>
        </extensions>
      </trkpt>
      <trkpt lat="46.7910455726087093353271484375" lon="6.78260109387338161468505859375">
        <ele>692</ele>
        <time>2017-05-05T13:51:08.000Z</time>
        <extensions>
          <ns3:TrackPointExtension>
            <ns3:hr>156</ns3:hr>
          </ns3:TrackPointExtension>
        </extensions>
      </trkpt>
      <trkpt lat="46.7906630225479602813720703125" lon="6.78302295506000518798828125">
        <ele>690.20001220703125</ele>
        <time>2017-05-05T13:51:12.000Z</time>
        <extensions>
          <ns3:TrackPointExtension>
            <ns3:hr>155</ns3:hr>
          </ns3:TrackPointExtension>
        </extensions>
      </trkpt>
      <trkpt lat="46.79055917076766490936279296875" lon="6.7831397987902164459228515625">
        <ele>689</ele>
        <time>2017-05-05T13:51:13.000Z</time>
        <extensions>
          <ns3:TrackPointExtension>
            <ns3:hr>155</ns3:hr>
          </ns3:TrackPointExtension>
        </extensions>
      </trkpt>
      <trkpt lat="46.79045942611992359161376953125" lon="6.7832490988075733184814453125">
        <ele>687</ele>
        <time>2017-05-05T13:51:14.000Z</time>
        <extensions>
          <ns3:TrackPointExtension>
            <ns3:hr>154</ns3:hr>
          </ns3:TrackPointExtension>
        </extensions>
      </trkpt>
      <trkpt lat="46.79036772809922695159912109375" lon="6.78335311822593212127685546875">
        <ele>684.79998779296875</ele>
        <time>2017-05-05T13:51:15.000Z</time>
        <extensions>
          <ns3:TrackPointExtension>
            <ns3:hr>154</ns3:hr>
          </ns3:TrackPointExtension>
        </extensions>
      </trkpt>
      <trkpt lat="46.79028156213462352752685546875" lon="6.78346007131040096282958984375">
        <ele>682.79998779296875</ele>
        <time>2017-05-05T13:51:16.000Z</time>
        <extensions>
          <ns3:TrackPointExtension>
            <ns3:hr>153</ns3:hr>
          </ns3:TrackPointExtension>
        </extensions>
      </trkpt>
      <trkpt lat="46.79023194126784801483154296875" lon="6.7835521884262561798095703125">
        <ele>680.4000244140625</ele>
        <time>2017-05-05T13:51:17.000Z</time>
        <extensions>
          <ns3:TrackPointExtension>
            <ns3:hr>153</ns3:hr>
          </ns3:TrackPointExtension>
        </extensions>
      </trkpt>
      <trkpt lat="46.79020461626350879669189453125" lon="6.7836405336856842041015625">
        <ele>679</ele>
        <time>2017-05-05T13:51:18.000Z</time>
        <extensions>
          <ns3:TrackPointExtension>
            <ns3:hr>152</ns3:hr>
          </ns3:TrackPointExtension>
        </extensions>
      </trkpt>
      <trkpt lat="46.79021366871893405914306640625" lon="6.783727370202541351318359375">
        <ele>678.4000244140625</ele>
        <time>2017-05-05T13:51:19.000Z</time>
        <extensions>
          <ns3:TrackPointExtension>
            <ns3:hr>152</ns3:hr>
          </ns3:TrackPointExtension>
        </extensions>
      </trkpt>
      <trkpt lat="46.7902764491736888885498046875" lon="6.7838867940008640289306640625">
        <ele>678</ele>
        <time>2017-05-05T13:51:21.000Z</time>
        <extensions>
          <ns3:TrackPointExtension>
            <ns3:hr>151</ns3:hr>
          </ns3:TrackPointExtension>
        </extensions>
      </trkpt>
      <trkpt lat="46.790646426379680633544921875" lon="6.7844785563647747039794921875">
        <ele>678</ele>
        <time>2017-05-05T13:51:30.000Z</time>
        <extensions>
          <ns3:TrackPointExtension>
            <ns3:hr>149</ns3:hr>
          </ns3:TrackPointExtension>
        </extensions>
      </trkpt>
      <trkpt lat="46.79098161868751049041748046875" lon="6.78512890823185443878173828125">
        <ele>678</ele>
        <time>2017-05-05T13:51:39.000Z</time>
        <extensions>
          <ns3:TrackPointExtension>
            <ns3:hr>148</ns3:hr>
          </ns3:TrackPointExtension>
        </extensions>
      </trkpt>
      <trkpt lat="46.791230477392673492431640625" lon="6.785658560693264007568359375">
        <ele>677</ele>
        <time>2017-05-05T13:51:46.000Z</time>
        <extensions>
          <ns3:TrackPointExtension>
            <ns3:hr>149</ns3:hr>
          </ns3:TrackPointExtension>
        </extensions>
      </trkpt>
      <trkpt lat="46.7912467382848262786865234375" lon="6.7857237718999385833740234375">
        <ele>676.5999755859375</ele>
        <time>2017-05-05T13:51:47.000Z</time>
        <extensions>
          <ns3:TrackPointExtension>
            <ns3:hr>149</ns3:hr>
          </ns3:TrackPointExtension>
        </extensions>
      </trkpt>
      <trkpt lat="46.791229136288166046142578125" lon="6.7857992090284824371337890625">
        <ele>676.20001220703125</ele>
        <time>2017-05-05T13:51:48.000Z</time>
        <extensions>
          <ns3:TrackPointExtension>
            <ns3:hr>149</ns3:hr>
          </ns3:TrackPointExtension>
        </extensions>
      </trkpt>
      <trkpt lat="46.79113827645778656005859375" lon="6.7859356664121150970458984375">
        <ele>675.4000244140625</ele>
        <time>2017-05-05T13:51:50.000Z</time>
        <extensions>
          <ns3:TrackPointExtension>
            <ns3:hr>149</ns3:hr>
          </ns3:TrackPointExtension>
        </extensions>
      </trkpt>
      <trkpt lat="46.79077609442174434661865234375" lon="6.786418296396732330322265625">
        <ele>674.4000244140625</ele>
        <time>2017-05-05T13:51:55.000Z</time>
        <extensions>
          <ns3:TrackPointExtension>
            <ns3:hr>148</ns3:hr>
          </ns3:TrackPointExtension>
        </extensions>
      </trkpt>
      <trkpt lat="46.79042690433561801910400390625" lon="6.7868861742317676544189453125">
        <ele>672</ele>
        <time>2017-05-05T13:51:59.000Z</time>
        <extensions>
          <ns3:TrackPointExtension>
            <ns3:hr>148</ns3:hr>
          </ns3:TrackPointExtension>
        </extensions>
      </trkpt>
      <trkpt lat="46.79034568369388580322265625" lon="6.7869991622865200042724609375">
        <ele>669.5999755859375</ele>
        <time>2017-05-05T13:52:00.000Z</time>
        <extensions>
          <ns3:TrackPointExtension>
            <ns3:hr>147</ns3:hr>
          </ns3:TrackPointExtension>
        </extensions>
      </trkpt>
      <trkpt lat="46.79026831872761249542236328125" lon="6.78711039014160633087158203125">
        <ele>666.5999755859375</ele>
        <time>2017-05-05T13:52:01.000Z</time>
        <extensions>
          <ns3:TrackPointExtension>
            <ns3:hr>147</ns3:hr>
          </ns3:TrackPointExtension>
        </extensions>
      </trkpt>
      <trkpt lat="46.79019204340875148773193359375" lon="6.787220276892185211181640625">
        <ele>664.4000244140625</ele>
        <time>2017-05-05T13:52:02.000Z</time>
        <extensions>
          <ns3:TrackPointExtension>
            <ns3:hr>147</ns3:hr>
          </ns3:TrackPointExtension>
        </extensions>
      </trkpt>
      <trkpt lat="46.7901138402521610260009765625" lon="6.78732790052890777587890625">
        <ele>661</ele>
        <time>2017-05-05T13:52:03.000Z</time>
        <extensions>
          <ns3:TrackPointExtension>
            <ns3:hr>148</ns3:hr>
          </ns3:TrackPointExtension>
        </extensions>
      </trkpt>
      <trkpt lat="46.7900397442281246185302734375" lon="6.78744080476462841033935546875">
        <ele>659.20001220703125</ele>
        <time>2017-05-05T13:52:04.000Z</time>
        <extensions>
          <ns3:TrackPointExtension>
            <ns3:hr>148</ns3:hr>
          </ns3:TrackPointExtension>
        </extensions>
      </trkpt>
      <trkpt lat="46.7899713478982448577880859375" lon="6.787562929093837738037109375">
        <ele>658</ele>
        <time>2017-05-05T13:52:05.000Z</time>
        <extensions>
          <ns3:TrackPointExtension>
            <ns3:hr>149</ns3:hr>
          </ns3:TrackPointExtension>
        </extensions>
      </trkpt>
      <trkpt lat="46.7898248322308063507080078125" lon="6.78780323825776576995849609375">
        <ele>656.79998779296875</ele>
        <time>2017-05-05T13:52:07.000Z</time>
        <extensions>
          <ns3:TrackPointExtension>
            <ns3:hr>149</ns3:hr>
          </ns3:TrackPointExtension>
        </extensions>
      </trkpt>
      <trkpt lat="46.789588965475559234619140625" lon="6.7880955152213573455810546875">
        <ele>655.5999755859375</ele>
        <time>2017-05-05T13:52:10.000Z</time>
        <extensions>
          <ns3:TrackPointExtension>
            <ns3:hr>148</ns3:hr>
          </ns3:TrackPointExtension>
        </extensions>
      </trkpt>
      <trkpt lat="46.7891596443951129913330078125" lon="6.7885967530310153961181640625">
        <ele>655.4000244140625</ele>
        <time>2017-05-05T13:52:18.000Z</time>
        <extensions>
          <ns3:TrackPointExtension>
            <ns3:hr>150</ns3:hr>
          </ns3:TrackPointExtension>
        </extensions>
      </trkpt>
      <trkpt lat="46.78901664912700653076171875" lon="6.78876330144703388214111328125">
        <ele>657</ele>
        <time>2017-05-05T13:52:23.000Z</time>
        <extensions>
          <ns3:TrackPointExtension>
            <ns3:hr>151</ns3:hr>
          </ns3:TrackPointExtension>
        </extensions>
      </trkpt>
      <trkpt lat="46.78897130303084850311279296875" lon="6.7888187058269977569580078125">
        <ele>659</ele>
        <time>2017-05-05T13:52:25.000Z</time>
        <extensions>
          <ns3:TrackPointExtension>
            <ns3:hr>149</ns3:hr>
          </ns3:TrackPointExtension>
        </extensions>
      </trkpt>
      <trkpt lat="46.788947246968746185302734375" lon="6.78884603083133697509765625">
        <ele>660</ele>
        <time>2017-05-05T13:52:26.000Z</time>
        <extensions>
          <ns3:TrackPointExtension>
            <ns3:hr>149</ns3:hr>
          </ns3:TrackPointExtension>
        </extensions>
      </trkpt>
      <trkpt lat="46.78889972157776355743408203125" lon="6.78890931420028209686279296875">
        <ele>661.5999755859375</ele>
        <time>2017-05-05T13:52:28.000Z</time>
        <extensions>
          <ns3:TrackPointExtension>
            <ns3:hr>147</ns3:hr>
          </ns3:TrackPointExtension>
        </extensions>
      </trkpt>
      <trkpt lat="46.78885613568127155303955078125" lon="6.78897477686405181884765625">
        <ele>663</ele>
        <time>2017-05-05T13:52:30.000Z</time>
        <extensions>
          <ns3:TrackPointExtension>
            <ns3:hr>146</ns3:hr>
          </ns3:TrackPointExtension>
        </extensions>
      </trkpt>
      <trkpt lat="46.7888337559998035430908203125" lon="6.78901107050478458404541015625">
        <ele>663.20001220703125</ele>
        <time>2017-05-05T13:52:31.000Z</time>
        <extensions>
          <ns3:TrackPointExtension>
            <ns3:hr>143</ns3:hr>
          </ns3:TrackPointExtension>
        </extensions>
      </trkpt>
      <trkpt lat="46.7887660302221775054931640625" lon="6.789120621979236602783203125">
        <ele>664</ele>
        <time>2017-05-05T13:52:34.000Z</time>
        <extensions>
          <ns3:TrackPointExtension>
            <ns3:hr>143</ns3:hr>
          </ns3:TrackPointExtension>
        </extensions>
      </trkpt>
      <trkpt lat="46.78866687230765819549560546875" lon="6.7893635295331478118896484375">
        <ele>665.20001220703125</ele>
        <time>2017-05-05T13:52:40.000Z</time>
        <extensions>
          <ns3:TrackPointExtension>
            <ns3:hr>142</ns3:hr>
          </ns3:TrackPointExtension>
        </extensions>
      </trkpt>
      <trkpt lat="46.78862596862018108367919921875" lon="6.7894657887518405914306640625">
        <ele>666.4000244140625</ele>
        <time>2017-05-05T13:52:43.000Z</time>
        <extensions>
          <ns3:TrackPointExtension>
            <ns3:hr>144</ns3:hr>
          </ns3:TrackPointExtension>
        </extensions>
      </trkpt>
      <trkpt lat="46.78854919038712978363037109375" lon="6.78966636769473552703857421875">
        <ele>667.20001220703125</ele>
        <time>2017-05-05T13:52:49.000Z</time>
        <extensions>
          <ns3:TrackPointExtension>
            <ns3:hr>147</ns3:hr>
          </ns3:TrackPointExtension>
        </extensions>
      </trkpt>
      <trkpt lat="46.78853058256208896636962890625" lon="6.78969905711710453033447265625">
        <ele>667.79998779296875</ele>
        <time>2017-05-05T13:52:50.000Z</time>
        <extensions>
          <ns3:TrackPointExtension>
            <ns3:hr>147</ns3:hr>
          </ns3:TrackPointExtension>
        </extensions>
      </trkpt>
      <trkpt lat="46.788463778793811798095703125" lon="6.78981187753379344940185546875">
        <ele>669</ele>
        <time>2017-05-05T13:52:53.000Z</time>
        <extensions>
          <ns3:TrackPointExtension>
            <ns3:hr>147</ns3:hr>
          </ns3:TrackPointExtension>
        </extensions>
      </trkpt>
      <trkpt lat="46.78839194588363170623779296875" lon="6.7899254523217678070068359375">
        <ele>670</ele>
        <time>2017-05-05T13:52:56.000Z</time>
        <extensions>
          <ns3:TrackPointExtension>
            <ns3:hr>146</ns3:hr>
          </ns3:TrackPointExtension>
        </extensions>
      </trkpt>
      <trkpt lat="46.78828633390367031097412109375" lon="6.79009702987968921661376953125">
        <ele>671.20001220703125</ele>
        <time>2017-05-05T13:53:00.000Z</time>
        <extensions>
          <ns3:TrackPointExtension>
            <ns3:hr>144</ns3:hr>
          </ns3:TrackPointExtension>
        </extensions>
      </trkpt>
      <trkpt lat="46.78789615631103515625" lon="6.7904659174382686614990234375">
        <ele>671.20001220703125</ele>
        <time>2017-05-05T13:53:09.000Z</time>
        <extensions>
          <ns3:TrackPointExtension>
            <ns3:hr>147</ns3:hr>
          </ns3:TrackPointExtension>
        </extensions>
      </trkpt>
      <trkpt lat="46.78756398148834705352783203125" lon="6.79074235260486602783203125">
        <ele>670.79998779296875</ele>
        <time>2017-05-05T13:53:14.000Z</time>
        <extensions>
          <ns3:TrackPointExtension>
            <ns3:hr>148</ns3:hr>
          </ns3:TrackPointExtension>
        </extensions>
      </trkpt>
      <trkpt lat="46.78724379278719425201416015625" lon="6.7911414988338947296142578125">
        <ele>670.20001220703125</ele>
        <time>2017-05-05T13:53:18.000Z</time>
        <extensions>
          <ns3:TrackPointExtension>
            <ns3:hr>147</ns3:hr>
          </ns3:TrackPointExtension>
        </extensions>
      </trkpt>
      <trkpt lat="46.787110604345798492431640625" lon="6.79134744219481945037841796875">
        <ele>668.4000244140625</ele>
        <time>2017-05-05T13:53:20.000Z</time>
        <extensions>
          <ns3:TrackPointExtension>
            <ns3:hr>145</ns3:hr>
          </ns3:TrackPointExtension>
        </extensions>
      </trkpt>
      <trkpt lat="46.78700499236583709716796875" lon="6.79152715019881725311279296875">
        <ele>665.79998779296875</ele>
        <time>2017-05-05T13:53:22.000Z</time>
        <extensions>
          <ns3:TrackPointExtension>
            <ns3:hr>145</ns3:hr>
          </ns3:TrackPointExtension>
        </extensions>
      </trkpt>
      <trkpt lat="46.7869562096893787384033203125" lon="6.79160158149898052215576171875">
        <ele>664.5999755859375</ele>
        <time>2017-05-05T13:53:23.000Z</time>
        <extensions>
          <ns3:TrackPointExtension>
            <ns3:hr>145</ns3:hr>
          </ns3:TrackPointExtension>
        </extensions>
      </trkpt>
      <trkpt lat="46.78691321052610874176025390625" lon="6.79166712798178195953369140625">
        <ele>662.79998779296875</ele>
        <time>2017-05-05T13:53:24.000Z</time>
        <extensions>
          <ns3:TrackPointExtension>
            <ns3:hr>145</ns3:hr>
          </ns3:TrackPointExtension>
        </extensions>
      </trkpt>
      <trkpt lat="46.78686878643929958343505859375" lon="6.79172328673303127288818359375">
        <ele>661</ele>
        <time>2017-05-05T13:53:25.000Z</time>
        <extensions>
          <ns3:TrackPointExtension>
            <ns3:hr>145</ns3:hr>
          </ns3:TrackPointExtension>
        </extensions>
      </trkpt>
      <trkpt lat="46.78682302124798297882080078125" lon="6.7917607538402080535888671875">
        <ele>659.5999755859375</ele>
        <time>2017-05-05T13:53:26.000Z</time>
        <extensions>
          <ns3:TrackPointExtension>
            <ns3:hr>145</ns3:hr>
          </ns3:TrackPointExtension>
        </extensions>
      </trkpt>
      <trkpt lat="46.78676786832511425018310546875" lon="6.7917580716311931610107421875">
        <ele>658.4000244140625</ele>
        <time>2017-05-05T13:53:27.000Z</time>
        <extensions>
          <ns3:TrackPointExtension>
            <ns3:hr>145</ns3:hr>
          </ns3:TrackPointExtension>
        </extensions>
      </trkpt>
      <trkpt lat="46.7866722308099269866943359375" lon="6.79172269999980926513671875">
        <ele>656.5999755859375</ele>
        <time>2017-05-05T13:53:29.000Z</time>
        <extensions>
          <ns3:TrackPointExtension>
            <ns3:hr>144</ns3:hr>
          </ns3:TrackPointExtension>
        </extensions>
      </trkpt>
      <trkpt lat="46.78660291247069835662841796875" lon="6.7917584069073200225830078125">
        <ele>655</ele>
        <time>2017-05-05T13:53:31.000Z</time>
        <extensions>
          <ns3:TrackPointExtension>
            <ns3:hr>144</ns3:hr>
          </ns3:TrackPointExtension>
        </extensions>
      </trkpt>
      <trkpt lat="46.7865790240466594696044921875" lon="6.7918036691844463348388671875">
        <ele>653.79998779296875</ele>
        <time>2017-05-05T13:53:32.000Z</time>
        <extensions>
          <ns3:TrackPointExtension>
            <ns3:hr>144</ns3:hr>
          </ns3:TrackPointExtension>
        </extensions>
      </trkpt>
      <trkpt lat="46.786562763154506683349609375" lon="6.79185303859412670135498046875">
        <ele>651.5999755859375</ele>
        <time>2017-05-05T13:53:33.000Z</time>
        <extensions>
          <ns3:TrackPointExtension>
            <ns3:hr>144</ns3:hr>
          </ns3:TrackPointExtension>
        </extensions>
      </trkpt>
      <trkpt lat="46.78655278868973255157470703125" lon="6.79189511574804782867431640625">
        <ele>650</ele>
        <time>2017-05-05T13:53:34.000Z</time>
        <extensions>
          <ns3:TrackPointExtension>
            <ns3:hr>144</ns3:hr>
          </ns3:TrackPointExtension>
        </extensions>
      </trkpt>
      <trkpt lat="46.78652822971343994140625" lon="6.79195915348827838897705078125">
        <ele>648.5999755859375</ele>
        <time>2017-05-05T13:53:36.000Z</time>
        <extensions>
          <ns3:TrackPointExtension>
            <ns3:hr>144</ns3:hr>
          </ns3:TrackPointExtension>
        </extensions>
      </trkpt>
      <trkpt lat="46.78635053336620330810546875" lon="6.7921620793640613555908203125">
        <ele>649.79998779296875</ele>
        <time>2017-05-05T13:53:50.000Z</time>
        <extensions>
          <ns3:TrackPointExtension>
            <ns3:hr>143</ns3:hr>
          </ns3:TrackPointExtension>
        </extensions>
      </trkpt>
      <trkpt lat="46.78630166687071323394775390625" lon="6.79222368635237216949462890625">
        <ele>651.20001220703125</ele>
        <time>2017-05-05T13:53:54.000Z</time>
        <extensions>
          <ns3:TrackPointExtension>
            <ns3:hr>142</ns3:hr>
          </ns3:TrackPointExtension>
        </extensions>
      </trkpt>
      <trkpt lat="46.78626327775418758392333984375" lon="6.79226391948759555816650390625">
        <ele>652.79998779296875</ele>
        <time>2017-05-05T13:53:57.000Z</time>
        <extensions>
          <ns3:TrackPointExtension>
            <ns3:hr>143</ns3:hr>
          </ns3:TrackPointExtension>
        </extensions>
      </trkpt>
      <trkpt lat="46.78622757084667682647705078125" lon="6.79230700246989727020263671875">
        <ele>654</ele>
        <time>2017-05-05T13:54:00.000Z</time>
        <extensions>
          <ns3:TrackPointExtension>
            <ns3:hr>142</ns3:hr>
          </ns3:TrackPointExtension>
        </extensions>
      </trkpt>
      <trkpt lat="46.78619052283465862274169921875" lon="6.79235327057540416717529296875">
        <ele>655.20001220703125</ele>
        <time>2017-05-05T13:54:03.000Z</time>
        <extensions>
          <ns3:TrackPointExtension>
            <ns3:hr>142</ns3:hr>
          </ns3:TrackPointExtension>
        </extensions>
      </trkpt>
      <trkpt lat="46.7861424945294857025146484375" lon="6.79242275655269622802734375">
        <ele>656.4000244140625</ele>
        <time>2017-05-05T13:54:07.000Z</time>
        <extensions>
          <ns3:TrackPointExtension>
            <ns3:hr>145</ns3:hr>
          </ns3:TrackPointExtension>
        </extensions>
      </trkpt>
      <trkpt lat="46.786082647740840911865234375" lon="6.7924826033413410186767578125">
        <ele>657.5999755859375</ele>
        <time>2017-05-05T13:54:12.000Z</time>
        <extensions>
          <ns3:TrackPointExtension>
            <ns3:hr>145</ns3:hr>
          </ns3:TrackPointExtension>
        </extensions>
      </trkpt>
      <trkpt lat="46.786075271666049957275390625" lon="6.79250380955636501312255859375">
        <ele>658</ele>
        <time>2017-05-05T13:54:13.000Z</time>
        <extensions>
          <ns3:TrackPointExtension>
            <ns3:hr>146</ns3:hr>
          </ns3:TrackPointExtension>
        </extensions>
      </trkpt>
      <trkpt lat="46.7860575020313262939453125" lon="6.79254152812063694000244140625">
        <ele>658.79998779296875</ele>
        <time>2017-05-05T13:54:15.000Z</time>
        <extensions>
          <ns3:TrackPointExtension>
            <ns3:hr>146</ns3:hr>
          </ns3:TrackPointExtension>
        </extensions>
      </trkpt>
      <trkpt lat="46.78602464497089385986328125" lon="6.792593412101268768310546875">
        <ele>659.79998779296875</ele>
        <time>2017-05-05T13:54:18.000Z</time>
        <extensions>
          <ns3:TrackPointExtension>
            <ns3:hr>148</ns3:hr>
          </ns3:TrackPointExtension>
        </extensions>
      </trkpt>
      <trkpt lat="46.7859725095331668853759765625" lon="6.7926519177854061126708984375">
        <ele>661</ele>
        <time>2017-05-05T13:54:22.000Z</time>
        <extensions>
          <ns3:TrackPointExtension>
            <ns3:hr>150</ns3:hr>
          </ns3:TrackPointExtension>
        </extensions>
      </trkpt>
      <trkpt lat="46.78593671880662441253662109375" lon="6.79270011372864246368408203125">
        <ele>662</ele>
        <time>2017-05-05T13:54:25.000Z</time>
        <extensions>
          <ns3:TrackPointExtension>
            <ns3:hr>150</ns3:hr>
          </ns3:TrackPointExtension>
        </extensions>
      </trkpt>
      <trkpt lat="46.78590486757457256317138671875" lon="6.79275459609925746917724609375">
        <ele>663.5999755859375</ele>
        <time>2017-05-05T13:54:28.000Z</time>
        <extensions>
          <ns3:TrackPointExtension>
            <ns3:hr>150</ns3:hr>
          </ns3:TrackPointExtension>
        </extensions>
      </trkpt>
      <trkpt lat="46.78585834801197052001953125" lon="6.7928027920424938201904296875">
        <ele>664.79998779296875</ele>
        <time>2017-05-05T13:54:32.000Z</time>
        <extensions>
          <ns3:TrackPointExtension>
            <ns3:hr>150</ns3:hr>
          </ns3:TrackPointExtension>
        </extensions>
      </trkpt>
      <trkpt lat="46.78585021756589412689208984375" lon="6.7928202264010906219482421875">
        <ele>665.20001220703125</ele>
        <time>2017-05-05T13:54:33.000Z</time>
        <extensions>
          <ns3:TrackPointExtension>
            <ns3:hr>149</ns3:hr>
          </ns3:TrackPointExtension>
        </extensions>
      </trkpt>
      <trkpt lat="46.785812079906463623046875" lon="6.79289708845317363739013671875">
        <ele>665.79998779296875</ele>
        <time>2017-05-05T13:54:37.000Z</time>
        <extensions>
          <ns3:TrackPointExtension>
            <ns3:hr>150</ns3:hr>
          </ns3:TrackPointExtension>
        </extensions>
      </trkpt>
      <trkpt lat="46.78577578626573085784912109375" lon="6.7929424345493316650390625">
        <ele>667</ele>
        <time>2017-05-05T13:54:40.000Z</time>
        <extensions>
          <ns3:TrackPointExtension>
            <ns3:hr>149</ns3:hr>
          </ns3:TrackPointExtension>
        </extensions>
      </trkpt>
      <trkpt lat="46.78576556034386157989501953125" lon="6.7929560132324695587158203125">
        <ele>667.20001220703125</ele>
        <time>2017-05-05T13:54:41.000Z</time>
        <extensions>
          <ns3:TrackPointExtension>
            <ns3:hr>149</ns3:hr>
          </ns3:TrackPointExtension>
        </extensions>
      </trkpt>
      <trkpt lat="46.7857314459979534149169921875" lon="6.79300990886986255645751953125">
        <ele>668</ele>
        <time>2017-05-05T13:54:44.000Z</time>
        <extensions>
          <ns3:TrackPointExtension>
            <ns3:hr>149</ns3:hr>
          </ns3:TrackPointExtension>
        </extensions>
      </trkpt>
      <trkpt lat="46.7856764607131481170654296875" lon="6.79307763464748859405517578125">
        <ele>669.4000244140625</ele>
        <time>2017-05-05T13:54:48.000Z</time>
        <extensions>
          <ns3:TrackPointExtension>
            <ns3:hr>148</ns3:hr>
          </ns3:TrackPointExtension>
        </extensions>
      </trkpt>
      <trkpt lat="46.7856063880026340484619140625" lon="6.7931954003870487213134765625">
        <ele>670.4000244140625</ele>
        <time>2017-05-05T13:54:53.000Z</time>
        <extensions>
          <ns3:TrackPointExtension>
            <ns3:hr>148</ns3:hr>
          </ns3:TrackPointExtension>
        </extensions>
      </trkpt>
      <trkpt lat="46.78551292978227138519287109375" lon="6.79334820248186588287353515625">
        <ele>671.4000244140625</ele>
        <time>2017-05-05T13:54:59.000Z</time>
        <extensions>
          <ns3:TrackPointExtension>
            <ns3:hr>148</ns3:hr>
          </ns3:TrackPointExtension>
        </extensions>
      </trkpt>
      <trkpt lat="46.7854062281548976898193359375" lon="6.79352254606783390045166015625">
        <ele>672.5999755859375</ele>
        <time>2017-05-05T13:55:06.000Z</time>
        <extensions>
          <ns3:TrackPointExtension>
            <ns3:hr>146</ns3:hr>
          </ns3:TrackPointExtension>
        </extensions>
      </trkpt>
      <trkpt lat="46.785319559276103973388671875" lon="6.7936771921813488006591796875">
        <ele>673.5999755859375</ele>
        <time>2017-05-05T13:55:12.000Z</time>
        <extensions>
          <ns3:TrackPointExtension>
            <ns3:hr>145</ns3:hr>
          </ns3:TrackPointExtension>
        </extensions>
      </trkpt>
      <trkpt lat="46.7852121032774448394775390625" lon="6.7938703112304210662841796875">
        <ele>674.79998779296875</ele>
        <time>2017-05-05T13:55:19.000Z</time>
        <extensions>
          <ns3:TrackPointExtension>
            <ns3:hr>145</ns3:hr>
          </ns3:TrackPointExtension>
        </extensions>
      </trkpt>
      <trkpt lat="46.78510255180299282073974609375" lon="6.794023700058460235595703125">
        <ele>676</ele>
        <time>2017-05-05T13:55:25.000Z</time>
        <extensions>
          <ns3:TrackPointExtension>
            <ns3:hr>144</ns3:hr>
          </ns3:TrackPointExtension>
        </extensions>
      </trkpt>
      <trkpt lat="46.785030551254749298095703125" lon="6.794133670628070831298828125">
        <ele>677.20001220703125</ele>
        <time>2017-05-05T13:55:29.000Z</time>
        <extensions>
          <ns3:TrackPointExtension>
            <ns3:hr>145</ns3:hr>
          </ns3:TrackPointExtension>
        </extensions>
      </trkpt>
      <trkpt lat="46.7849405296146869659423828125" lon="6.79427037946879863739013671875">
        <ele>678.20001220703125</ele>
        <time>2017-05-05T13:55:34.000Z</time>
        <extensions>
          <ns3:TrackPointExtension>
            <ns3:hr>148</ns3:hr>
          </ns3:TrackPointExtension>
        </extensions>
      </trkpt>
      <trkpt lat="46.784923933446407318115234375" lon="6.79429954849183559417724609375">
        <ele>678.4000244140625</ele>
        <time>2017-05-05T13:55:35.000Z</time>
        <extensions>
          <ns3:TrackPointExtension>
            <ns3:hr>149</ns3:hr>
          </ns3:TrackPointExtension>
        </extensions>
      </trkpt>
      <trkpt lat="46.784834079444408416748046875" lon="6.7944469861686229705810546875">
        <ele>679.4000244140625</ele>
        <time>2017-05-05T13:55:40.000Z</time>
        <extensions>
          <ns3:TrackPointExtension>
            <ns3:hr>151</ns3:hr>
          </ns3:TrackPointExtension>
        </extensions>
      </trkpt>
      <trkpt lat="46.78473827429115772247314453125" lon="6.7945827730000019073486328125">
        <ele>679.79998779296875</ele>
        <time>2017-05-05T13:55:45.000Z</time>
        <extensions>
          <ns3:TrackPointExtension>
            <ns3:hr>148</ns3:hr>
          </ns3:TrackPointExtension>
        </extensions>
      </trkpt>
      <trkpt lat="46.7847065068781375885009765625" lon="6.79464337415993213653564453125">
        <ele>680.4000244140625</ele>
        <time>2017-05-05T13:55:47.000Z</time>
        <extensions>
          <ns3:TrackPointExtension>
            <ns3:hr>146</ns3:hr>
          </ns3:TrackPointExtension>
        </extensions>
      </trkpt>
      <trkpt lat="46.78463702090084552764892578125" lon="6.79480229504406452178955078125">
        <ele>681.4000244140625</ele>
        <time>2017-05-05T13:55:52.000Z</time>
        <extensions>
          <ns3:TrackPointExtension>
            <ns3:hr>143</ns3:hr>
          </ns3:TrackPointExtension>
        </extensions>
      </trkpt>
      <trkpt lat="46.78461606614291667938232421875" lon="6.79482609964907169342041015625">
        <ele>681.5999755859375</ele>
        <time>2017-05-05T13:55:53.000Z</time>
        <extensions>
          <ns3:TrackPointExtension>
            <ns3:hr>143</ns3:hr>
          </ns3:TrackPointExtension>
        </extensions>
      </trkpt>
      <trkpt lat="46.78451950661838054656982421875" lon="6.79495350457727909088134765625">
        <ele>682.5999755859375</ele>
        <time>2017-05-05T13:55:58.000Z</time>
        <extensions>
          <ns3:TrackPointExtension>
            <ns3:hr>142</ns3:hr>
          </ns3:TrackPointExtension>
        </extensions>
      </trkpt>
      <trkpt lat="46.784431748092174530029296875" lon="6.79510488174855709075927734375">
        <ele>683.5999755859375</ele>
        <time>2017-05-05T13:56:04.000Z</time>
        <extensions>
          <ns3:TrackPointExtension>
            <ns3:hr>145</ns3:hr>
          </ns3:TrackPointExtension>
        </extensions>
      </trkpt>
      <trkpt lat="46.78438455797731876373291015625" lon="6.795179732143878936767578125">
        <ele>684.79998779296875</ele>
        <time>2017-05-05T13:56:07.000Z</time>
        <extensions>
          <ns3:TrackPointExtension>
            <ns3:hr>146</ns3:hr>
          </ns3:TrackPointExtension>
        </extensions>
      </trkpt>
      <trkpt lat="46.78432018496096134185791015625" lon="6.79529733024537563323974609375">
        <ele>686</ele>
        <time>2017-05-05T13:56:12.000Z</time>
        <extensions>
          <ns3:TrackPointExtension>
            <ns3:hr>146</ns3:hr>
          </ns3:TrackPointExtension>
        </extensions>
      </trkpt>
      <trkpt lat="46.7842458374798297882080078125" lon="6.79542087949812412261962890625">
        <ele>687.20001220703125</ele>
        <time>2017-05-05T13:56:17.000Z</time>
        <extensions>
          <ns3:TrackPointExtension>
            <ns3:hr>145</ns3:hr>
          </ns3:TrackPointExtension>
        </extensions>
      </trkpt>
      <trkpt lat="46.78418942727148532867431640625" lon="6.79553085006773471832275390625">
        <ele>688.20001220703125</ele>
        <time>2017-05-05T13:56:21.000Z</time>
        <extensions>
          <ns3:TrackPointExtension>
            <ns3:hr>146</ns3:hr>
          </ns3:TrackPointExtension>
        </extensions>
      </trkpt>
      <trkpt lat="46.7840862460434436798095703125" lon="6.79574525915086269378662109375">
        <ele>689.20001220703125</ele>
        <time>2017-05-05T13:56:28.000Z</time>
        <extensions>
          <ns3:TrackPointExtension>
            <ns3:hr>147</ns3:hr>
          </ns3:TrackPointExtension>
        </extensions>
      </trkpt>
      <trkpt lat="46.78393118083477020263671875" lon="6.79601917974650859832763671875">
        <ele>690.20001220703125</ele>
        <time>2017-05-05T13:56:36.000Z</time>
        <extensions>
          <ns3:TrackPointExtension>
            <ns3:hr>150</ns3:hr>
          </ns3:TrackPointExtension>
        </extensions>
      </trkpt>
      <trkpt lat="46.7838555760681629180908203125" lon="6.79614205844700336456298828125">
        <ele>690.4000244140625</ele>
        <time>2017-05-05T13:56:40.000Z</time>
        <extensions>
          <ns3:TrackPointExtension>
            <ns3:hr>149</ns3:hr>
          </ns3:TrackPointExtension>
        </extensions>
      </trkpt>
      <trkpt lat="46.783520467579364776611328125" lon="6.7967935837805271148681640625">
        <ele>690.5999755859375</ele>
        <time>2017-05-05T13:56:55.000Z</time>
        <extensions>
          <ns3:TrackPointExtension>
            <ns3:hr>149</ns3:hr>
          </ns3:TrackPointExtension>
        </extensions>
      </trkpt>
      <trkpt lat="46.78318795748054981231689453125" lon="6.79741459898650646209716796875">
        <ele>689.79998779296875</ele>
        <time>2017-05-05T13:57:01.000Z</time>
        <extensions>
          <ns3:TrackPointExtension>
            <ns3:hr>148</ns3:hr>
          </ns3:TrackPointExtension>
        </extensions>
      </trkpt>
      <trkpt lat="46.783123500645160675048828125" lon="6.797531358897686004638671875">
        <ele>688.5999755859375</ele>
        <time>2017-05-05T13:57:02.000Z</time>
        <extensions>
          <ns3:TrackPointExtension>
            <ns3:hr>148</ns3:hr>
          </ns3:TrackPointExtension>
        </extensions>
      </trkpt>
      <trkpt lat="46.7830641567707061767578125" lon="6.7976443469524383544921875">
        <ele>687.20001220703125</ele>
        <time>2017-05-05T13:57:03.000Z</time>
        <extensions>
          <ns3:TrackPointExtension>
            <ns3:hr>148</ns3:hr>
          </ns3:TrackPointExtension>
        </extensions>
      </trkpt>
      <trkpt lat="46.78301076404750347137451171875" lon="6.79775255732238292694091796875">
        <ele>685.79998779296875</ele>
        <time>2017-05-05T13:57:04.000Z</time>
        <extensions>
          <ns3:TrackPointExtension>
            <ns3:hr>148</ns3:hr>
          </ns3:TrackPointExtension>
        </extensions>
      </trkpt>
      <trkpt lat="46.782966591417789459228515625" lon="6.79784861393272876739501953125">
        <ele>684</ele>
        <time>2017-05-05T13:57:05.000Z</time>
        <extensions>
          <ns3:TrackPointExtension>
            <ns3:hr>148</ns3:hr>
          </ns3:TrackPointExtension>
        </extensions>
      </trkpt>
      <trkpt lat="46.78294144570827484130859375" lon="6.79793511517345905303955078125">
        <ele>681.5999755859375</ele>
        <time>2017-05-05T13:57:06.000Z</time>
        <extensions>
          <ns3:TrackPointExtension>
            <ns3:hr>148</ns3:hr>
          </ns3:TrackPointExtension>
        </extensions>
      </trkpt>
      <trkpt lat="46.78294991143047809600830078125" lon="6.79801918566226959228515625">
        <ele>679.5999755859375</ele>
        <time>2017-05-05T13:57:07.000Z</time>
        <extensions>
          <ns3:TrackPointExtension>
            <ns3:hr>148</ns3:hr>
          </ns3:TrackPointExtension>
        </extensions>
      </trkpt>
      <trkpt lat="46.7829737998545169830322265625" lon="6.79809629917144775390625">
        <ele>678</ele>
        <time>2017-05-05T13:57:08.000Z</time>
        <extensions>
          <ns3:TrackPointExtension>
            <ns3:hr>148</ns3:hr>
          </ns3:TrackPointExtension>
        </extensions>
      </trkpt>
      <trkpt lat="46.78301478736102581024169921875" lon="6.79816662333905696868896484375">
        <ele>676.4000244140625</ele>
        <time>2017-05-05T13:57:09.000Z</time>
        <extensions>
          <ns3:TrackPointExtension>
            <ns3:hr>148</ns3:hr>
          </ns3:TrackPointExtension>
        </extensions>
      </trkpt>
      <trkpt lat="46.78306591697037220001220703125" lon="6.79823535494506359100341796875">
        <ele>675.5999755859375</ele>
        <time>2017-05-05T13:57:10.000Z</time>
        <extensions>
          <ns3:TrackPointExtension>
            <ns3:hr>147</ns3:hr>
          </ns3:TrackPointExtension>
        </extensions>
      </trkpt>
      <trkpt lat="46.7831172980368137359619140625" lon="6.7983029969036579132080078125">
        <ele>675.20001220703125</ele>
        <time>2017-05-05T13:57:11.000Z</time>
        <extensions>
          <ns3:TrackPointExtension>
            <ns3:hr>147</ns3:hr>
          </ns3:TrackPointExtension>
        </extensions>
      </trkpt>
      <trkpt lat="46.7832872830331325531005859375" lon="6.7985014803707599639892578125">
        <ele>674</ele>
        <time>2017-05-05T13:57:14.000Z</time>
        <extensions>
          <ns3:TrackPointExtension>
            <ns3:hr>146</ns3:hr>
          </ns3:TrackPointExtension>
        </extensions>
      </trkpt>
      <trkpt lat="46.78359380923211574554443359375" lon="6.79884656332433223724365234375">
        <ele>673</ele>
        <time>2017-05-05T13:57:19.000Z</time>
        <extensions>
          <ns3:TrackPointExtension>
            <ns3:hr>146</ns3:hr>
          </ns3:TrackPointExtension>
        </extensions>
      </trkpt>
      <trkpt lat="46.78400695323944091796875" lon="6.7992944084107875823974609375">
        <ele>672</ele>
        <time>2017-05-05T13:57:26.000Z</time>
        <extensions>
          <ns3:TrackPointExtension>
            <ns3:hr>145</ns3:hr>
          </ns3:TrackPointExtension>
        </extensions>
      </trkpt>
      <trkpt lat="46.78428079001605510711669921875" lon="6.7995807342231273651123046875">
        <ele>671.5999755859375</ele>
        <time>2017-05-05T13:57:31.000Z</time>
        <extensions>
          <ns3:TrackPointExtension>
            <ns3:hr>149</ns3:hr>
          </ns3:TrackPointExtension>
        </extensions>
      </trkpt>
      <trkpt lat="46.78454406559467315673828125" lon="6.79981090128421783447265625">
        <ele>671</ele>
        <time>2017-05-05T13:57:36.000Z</time>
        <extensions>
          <ns3:TrackPointExtension>
            <ns3:hr>152</ns3:hr>
          </ns3:TrackPointExtension>
        </extensions>
      </trkpt>
      <trkpt lat="46.78459863178431987762451171875" lon="6.79985239170491695404052734375">
        <ele>670.79998779296875</ele>
        <time>2017-05-05T13:57:37.000Z</time>
        <extensions>
          <ns3:TrackPointExtension>
            <ns3:hr>152</ns3:hr>
          </ns3:TrackPointExtension>
        </extensions>
      </trkpt>
      <trkpt lat="46.78469787351787090301513671875" lon="6.7999344505369663238525390625">
        <ele>669.79998779296875</ele>
        <time>2017-05-05T13:57:39.000Z</time>
        <extensions>
          <ns3:TrackPointExtension>
            <ns3:hr>154</ns3:hr>
          </ns3:TrackPointExtension>
        </extensions>
      </trkpt>
      <trkpt lat="46.78474581800401210784912109375" lon="6.7999746836721897125244140625">
        <ele>668.5999755859375</ele>
        <time>2017-05-05T13:57:40.000Z</time>
        <extensions>
          <ns3:TrackPointExtension>
            <ns3:hr>155</ns3:hr>
          </ns3:TrackPointExtension>
        </extensions>
      </trkpt>
      <trkpt lat="46.7849294655025005340576171875" lon="6.80014542303979396820068359375">
        <ele>667.4000244140625</ele>
        <time>2017-05-05T13:57:44.000Z</time>
        <extensions>
          <ns3:TrackPointExtension>
            <ns3:hr>156</ns3:hr>
          </ns3:TrackPointExtension>
        </extensions>
      </trkpt>
      <trkpt lat="46.78535350598394870758056640625" lon="6.80063433945178985595703125">
        <ele>667</ele>
        <time>2017-05-05T13:57:53.000Z</time>
        <extensions>
          <ns3:TrackPointExtension>
            <ns3:hr>156</ns3:hr>
          </ns3:TrackPointExtension>
        </extensions>
      </trkpt>
      <trkpt lat="46.78580478765070438385009765625" lon="6.80115192197263240814208984375">
        <ele>666.79998779296875</ele>
        <time>2017-05-05T13:58:02.000Z</time>
        <extensions>
          <ns3:TrackPointExtension>
            <ns3:hr>157</ns3:hr>
          </ns3:TrackPointExtension>
        </extensions>
      </trkpt>
      <trkpt lat="46.78595197387039661407470703125" lon="6.80132173933088779449462890625">
        <ele>666.4000244140625</ele>
        <time>2017-05-05T13:58:05.000Z</time>
        <extensions>
          <ns3:TrackPointExtension>
            <ns3:hr>159</ns3:hr>
          </ns3:TrackPointExtension>
        </extensions>
      </trkpt>
      <trkpt lat="46.7860000021755695343017578125" lon="6.80138108320534229278564453125">
        <ele>666.20001220703125</ele>
        <time>2017-05-05T13:58:06.000Z</time>
        <extensions>
          <ns3:TrackPointExtension>
            <ns3:hr>159</ns3:hr>
          </ns3:TrackPointExtension>
        </extensions>
      </trkpt>
      <trkpt lat="46.7860455997288227081298828125" lon="6.80153748951852321624755859375">
        <ele>665.79998779296875</ele>
        <time>2017-05-05T13:58:08.000Z</time>
        <extensions>
          <ns3:TrackPointExtension>
            <ns3:hr>159</ns3:hr>
          </ns3:TrackPointExtension>
        </extensions>
      </trkpt>
      <trkpt lat="46.78601349703967571258544921875" lon="6.80167931132018566131591796875">
        <ele>665.5999755859375</ele>
        <time>2017-05-05T13:58:10.000Z</time>
        <extensions>
          <ns3:TrackPointExtension>
            <ns3:hr>158</ns3:hr>
          </ns3:TrackPointExtension>
        </extensions>
      </trkpt>
      <trkpt lat="46.785913668572902679443359375" lon="6.80186253972351551055908203125">
        <ele>665.5999755859375</ele>
        <time>2017-05-05T13:58:14.000Z</time>
        <extensions>
          <ns3:TrackPointExtension>
            <ns3:hr>155</ns3:hr>
          </ns3:TrackPointExtension>
        </extensions>
      </trkpt>
      <trkpt lat="46.7858142592012882232666015625" lon="6.8020466901361942291259765625">
        <ele>667</ele>
        <time>2017-05-05T13:58:19.000Z</time>
        <extensions>
          <ns3:TrackPointExtension>
            <ns3:hr>152</ns3:hr>
          </ns3:TrackPointExtension>
        </extensions>
      </trkpt>
      <trkpt lat="46.78579523228108882904052734375" lon="6.80208005011081695556640625">
        <ele>667.5999755859375</ele>
        <time>2017-05-05T13:58:20.000Z</time>
        <extensions>
          <ns3:TrackPointExtension>
            <ns3:hr>152</ns3:hr>
          </ns3:TrackPointExtension>
        </extensions>
      </trkpt>
      <trkpt lat="46.78575642406940460205078125" lon="6.8021455965936183929443359375">
        <ele>668.79998779296875</ele>
        <time>2017-05-05T13:58:22.000Z</time>
        <extensions>
          <ns3:TrackPointExtension>
            <ns3:hr>150</ns3:hr>
          </ns3:TrackPointExtension>
        </extensions>
      </trkpt>
      <trkpt lat="46.7856846749782562255859375" lon="6.8022766895592212677001953125">
        <ele>670.20001220703125</ele>
        <time>2017-05-05T13:58:26.000Z</time>
        <extensions>
          <ns3:TrackPointExtension>
            <ns3:hr>150</ns3:hr>
          </ns3:TrackPointExtension>
        </extensions>
      </trkpt>
      <trkpt lat="46.78563429974019527435302734375" lon="6.8023648671805858612060546875">
        <ele>671.4000244140625</ele>
        <time>2017-05-05T13:58:29.000Z</time>
        <extensions>
          <ns3:TrackPointExtension>
            <ns3:hr>150</ns3:hr>
          </ns3:TrackPointExtension>
        </extensions>
      </trkpt>
      <trkpt lat="46.78558920510113239288330078125" lon="6.80245094932615756988525390625">
        <ele>672.20001220703125</ele>
        <time>2017-05-05T13:58:32.000Z</time>
        <extensions>
          <ns3:TrackPointExtension>
            <ns3:hr>153</ns3:hr>
          </ns3:TrackPointExtension>
        </extensions>
      </trkpt>
      <trkpt lat="46.78557193838059902191162109375" lon="6.8024776875972747802734375">
        <ele>672.5999755859375</ele>
        <time>2017-05-05T13:58:33.000Z</time>
        <extensions>
          <ns3:TrackPointExtension>
            <ns3:hr>153</ns3:hr>
          </ns3:TrackPointExtension>
        </extensions>
      </trkpt>
      <trkpt lat="46.78553774021565914154052734375" lon="6.80252923630177974700927734375">
        <ele>674</ele>
        <time>2017-05-05T13:58:35.000Z</time>
        <extensions>
          <ns3:TrackPointExtension>
            <ns3:hr>154</ns3:hr>
          </ns3:TrackPointExtension>
        </extensions>
      </trkpt>
      <trkpt lat="46.78551024757325649261474609375" lon="6.8025881610810756683349609375">
        <ele>675</ele>
        <time>2017-05-05T13:58:37.000Z</time>
        <extensions>
          <ns3:TrackPointExtension>
            <ns3:hr>155</ns3:hr>
          </ns3:TrackPointExtension>
        </extensions>
      </trkpt>
      <trkpt lat="46.785452999174594879150390625" lon="6.802700646221637725830078125">
        <ele>676.20001220703125</ele>
        <time>2017-05-05T13:58:41.000Z</time>
        <extensions>
          <ns3:TrackPointExtension>
            <ns3:hr>158</ns3:hr>
          </ns3:TrackPointExtension>
        </extensions>
      </trkpt>
      <trkpt lat="46.78540497086942195892333984375" lon="6.80282930843532085418701171875">
        <ele>677.5999755859375</ele>
        <time>2017-05-05T13:58:45.000Z</time>
        <extensions>
          <ns3:TrackPointExtension>
            <ns3:hr>158</ns3:hr>
          </ns3:TrackPointExtension>
        </extensions>
      </trkpt>
      <trkpt lat="46.7853589542210102081298828125" lon="6.80299124680459499359130859375">
        <ele>678.5999755859375</ele>
        <time>2017-05-05T13:58:49.000Z</time>
        <extensions>
          <ns3:TrackPointExtension>
            <ns3:hr>158</ns3:hr>
          </ns3:TrackPointExtension>
        </extensions>
      </trkpt>
      <trkpt lat="46.78519257344305515289306640625" lon="6.8035772256553173065185546875">
        <ele>679.5999755859375</ele>
        <time>2017-05-05T13:58:58.000Z</time>
        <extensions>
          <ns3:TrackPointExtension>
            <ns3:hr>155</ns3:hr>
          </ns3:TrackPointExtension>
        </extensions>
      </trkpt>
      <trkpt lat="46.78506064228713512420654296875" lon="6.80403647013008594512939453125">
        <ele>679.20001220703125</ele>
        <time>2017-05-05T13:59:03.000Z</time>
        <extensions>
          <ns3:TrackPointExtension>
            <ns3:hr>153</ns3:hr>
          </ns3:TrackPointExtension>
        </extensions>
      </trkpt>
      <trkpt lat="46.7850129492580890655517578125" lon="6.80418466217815876007080078125">
        <ele>678.79998779296875</ele>
        <time>2017-05-05T13:59:05.000Z</time>
        <extensions>
          <ns3:TrackPointExtension>
            <ns3:hr>152</ns3:hr>
          </ns3:TrackPointExtension>
        </extensions>
      </trkpt>
      <trkpt lat="46.78501102142035961151123046875" lon="6.80431759916245937347412109375">
        <ele>678.5999755859375</ele>
        <time>2017-05-05T13:59:07.000Z</time>
        <extensions>
          <ns3:TrackPointExtension>
            <ns3:hr>152</ns3:hr>
          </ns3:TrackPointExtension>
        </extensions>
      </trkpt>
      <trkpt lat="46.78504429757595062255859375" lon="6.804396472871303558349609375">
        <ele>678.5999755859375</ele>
        <time>2017-05-05T13:59:13.000Z</time>
        <extensions>
          <ns3:TrackPointExtension>
            <ns3:hr>152</ns3:hr>
          </ns3:TrackPointExtension>
        </extensions>
      </trkpt>
      <trkpt lat="46.78516726009547710418701171875" lon="6.8045089580118656158447265625">
        <ele>678.5999755859375</ele>
        <time>2017-05-05T13:59:17.000Z</time>
        <extensions>
          <ns3:TrackPointExtension>
            <ns3:hr>151</ns3:hr>
          </ns3:TrackPointExtension>
        </extensions>
      </trkpt>
      <trkpt lat="46.78553002886474132537841796875" lon="6.804682128131389617919921875">
        <ele>678.4000244140625</ele>
        <time>2017-05-05T13:59:24.000Z</time>
        <extensions>
          <ns3:TrackPointExtension>
            <ns3:hr>151</ns3:hr>
          </ns3:TrackPointExtension>
        </extensions>
      </trkpt>
      <trkpt lat="46.7855879478156566619873046875" lon="6.80481732822954654693603515625">
        <ele>677.4000244140625</ele>
        <time>2017-05-05T13:59:26.000Z</time>
        <extensions>
          <ns3:TrackPointExtension>
            <ns3:hr>151</ns3:hr>
          </ns3:TrackPointExtension>
        </extensions>
      </trkpt>
      <trkpt lat="46.78554545156657695770263671875" lon="6.8049481697380542755126953125">
        <ele>677.20001220703125</ele>
        <time>2017-05-05T13:59:28.000Z</time>
        <extensions>
          <ns3:TrackPointExtension>
            <ns3:hr>150</ns3:hr>
          </ns3:TrackPointExtension>
        </extensions>
      </trkpt>
      <trkpt lat="46.7854893766343593597412109375" lon="6.8050447292625904083251953125">
        <ele>677</ele>
        <time>2017-05-05T13:59:30.000Z</time>
        <extensions>
          <ns3:TrackPointExtension>
            <ns3:hr>149</ns3:hr>
          </ns3:TrackPointExtension>
        </extensions>
      </trkpt>
      <trkpt lat="46.78532433696091175079345703125" lon="6.80534421466290950775146484375">
        <ele>679</ele>
        <time>2017-05-05T13:59:38.000Z</time>
        <extensions>
          <ns3:TrackPointExtension>
            <ns3:hr>148</ns3:hr>
          </ns3:TrackPointExtension>
        </extensions>
      </trkpt>
      <trkpt lat="46.7852721177041530609130859375" lon="6.80544261820614337921142578125">
        <ele>680.20001220703125</ele>
        <time>2017-05-05T13:59:41.000Z</time>
        <extensions>
          <ns3:TrackPointExtension>
            <ns3:hr>151</ns3:hr>
          </ns3:TrackPointExtension>
        </extensions>
      </trkpt>
      <trkpt lat="46.78522325120866298675537109375" lon="6.80552492849528789520263671875">
        <ele>681.4000244140625</ele>
        <time>2017-05-05T13:59:44.000Z</time>
        <extensions>
          <ns3:TrackPointExtension>
            <ns3:hr>153</ns3:hr>
          </ns3:TrackPointExtension>
        </extensions>
      </trkpt>
      <trkpt lat="46.78518352098762989044189453125" lon="6.80560539476573467254638671875">
        <ele>682.5999755859375</ele>
        <time>2017-05-05T13:59:47.000Z</time>
        <extensions>
          <ns3:TrackPointExtension>
            <ns3:hr>152</ns3:hr>
          </ns3:TrackPointExtension>
        </extensions>
      </trkpt>
      <trkpt lat="46.7851162143051624298095703125" lon="6.8056874535977840423583984375">
        <ele>684</ele>
        <time>2017-05-05T13:59:51.000Z</time>
        <extensions>
          <ns3:TrackPointExtension>
            <ns3:hr>153</ns3:hr>
          </ns3:TrackPointExtension>
        </extensions>
      </trkpt>
      <trkpt lat="46.785078160464763641357421875" lon="6.80579063482582569122314453125">
        <ele>685</ele>
        <time>2017-05-05T13:59:55.000Z</time>
        <extensions>
          <ns3:TrackPointExtension>
            <ns3:hr>154</ns3:hr>
          </ns3:TrackPointExtension>
        </extensions>
      </trkpt>
      <trkpt lat="46.78502594120800495147705078125" lon="6.8058411777019500732421875">
        <ele>686</ele>
        <time>2017-05-05T13:59:58.000Z</time>
        <extensions>
          <ns3:TrackPointExtension>
            <ns3:hr>154</ns3:hr>
          </ns3:TrackPointExtension>
        </extensions>
      </trkpt>
      <trkpt lat="46.78501487709581851959228515625" lon="6.80586154572665691375732421875">
        <ele>686.4000244140625</ele>
        <time>2017-05-05T13:59:59.000Z</time>
        <extensions>
          <ns3:TrackPointExtension>
            <ns3:hr>155</ns3:hr>
          </ns3:TrackPointExtension>
        </extensions>
      </trkpt>
      <trkpt lat="46.7850038968026638031005859375" lon="6.8059224821627140045166015625">
        <ele>687.20001220703125</ele>
        <time>2017-05-05T14:00:01.000Z</time>
        <extensions>
          <ns3:TrackPointExtension>
            <ns3:hr>155</ns3:hr>
          </ns3:TrackPointExtension>
        </extensions>
      </trkpt>
      <trkpt lat="46.784988306462764739990234375" lon="6.8060103245079517364501953125">
        <ele>688.4000244140625</ele>
        <time>2017-05-05T14:00:04.000Z</time>
        <extensions>
          <ns3:TrackPointExtension>
            <ns3:hr>156</ns3:hr>
          </ns3:TrackPointExtension>
        </extensions>
      </trkpt>
      <trkpt lat="46.78503314964473247528076171875" lon="6.80615239776670932769775390625">
        <ele>689.5999755859375</ele>
        <time>2017-05-05T14:00:09.000Z</time>
        <extensions>
          <ns3:TrackPointExtension>
            <ns3:hr>154</ns3:hr>
          </ns3:TrackPointExtension>
        </extensions>
      </trkpt>
      <trkpt lat="46.7851095087826251983642578125" lon="6.80623135529458522796630859375">
        <ele>690.79998779296875</ele>
        <time>2017-05-05T14:00:12.000Z</time>
        <extensions>
          <ns3:TrackPointExtension>
            <ns3:hr>156</ns3:hr>
          </ns3:TrackPointExtension>
        </extensions>
      </trkpt>
      <trkpt lat="46.78524839691817760467529296875" lon="6.8063968978822231292724609375">
        <ele>691.79998779296875</ele>
        <time>2017-05-05T14:00:17.000Z</time>
        <extensions>
          <ns3:TrackPointExtension>
            <ns3:hr>153</ns3:hr>
          </ns3:TrackPointExtension>
        </extensions>
      </trkpt>
      <trkpt lat="46.7852791585028171539306640625" lon="6.80643503554165363311767578125">
        <ele>691.79998779296875</ele>
        <time>2017-05-05T14:00:18.000Z</time>
        <extensions>
          <ns3:TrackPointExtension>
            <ns3:hr>153</ns3:hr>
          </ns3:TrackPointExtension>
        </extensions>
      </trkpt>
      <trkpt lat="46.785423494875431060791015625" lon="6.80656512267887592315673828125">
        <ele>691.79998779296875</ele>
        <time>2017-05-05T14:00:22.000Z</time>
        <extensions>
          <ns3:TrackPointExtension>
            <ns3:hr>153</ns3:hr>
          </ns3:TrackPointExtension>
        </extensions>
      </trkpt>
      <trkpt lat="46.78565592505037784576416015625" lon="6.80680937133729457855224609375">
        <ele>691.79998779296875</ele>
        <time>2017-05-05T14:00:28.000Z</time>
        <extensions>
          <ns3:TrackPointExtension>
            <ns3:hr>150</ns3:hr>
          </ns3:TrackPointExtension>
        </extensions>
      </trkpt>
      <trkpt lat="46.78614324890077114105224609375" lon="6.80731211788952350616455078125">
        <ele>692.20001220703125</ele>
        <time>2017-05-05T14:00:39.000Z</time>
        <extensions>
          <ns3:TrackPointExtension>
            <ns3:hr>151</ns3:hr>
          </ns3:TrackPointExtension>
        </extensions>
      </trkpt>
      <trkpt lat="46.78663711063563823699951171875" lon="6.8077819235622882843017578125">
        <ele>691.79998779296875</ele>
        <time>2017-05-05T14:00:48.000Z</time>
        <extensions>
          <ns3:TrackPointExtension>
            <ns3:hr>150</ns3:hr>
          </ns3:TrackPointExtension>
        </extensions>
      </trkpt>
      <trkpt lat="46.78704522550106048583984375" lon="6.8081653118133544921875">
        <ele>690.4000244140625</ele>
        <time>2017-05-05T14:00:55.000Z</time>
        <extensions>
          <ns3:TrackPointExtension>
            <ns3:hr>150</ns3:hr>
          </ns3:TrackPointExtension>
        </extensions>
      </trkpt>
      <trkpt lat="46.78728930652141571044921875" lon="6.80841668508946895599365234375">
        <ele>688.4000244140625</ele>
        <time>2017-05-05T14:00:59.000Z</time>
        <extensions>
          <ns3:TrackPointExtension>
            <ns3:hr>149</ns3:hr>
          </ns3:TrackPointExtension>
        </extensions>
      </trkpt>
      <trkpt lat="46.78735435009002685546875" lon="6.80848860181868076324462890625">
        <ele>686.79998779296875</ele>
        <time>2017-05-05T14:01:00.000Z</time>
        <extensions>
          <ns3:TrackPointExtension>
            <ns3:hr>149</ns3:hr>
          </ns3:TrackPointExtension>
        </extensions>
      </trkpt>
      <trkpt lat="46.78741939365863800048828125" lon="6.8085664696991443634033203125">
        <ele>685.5999755859375</ele>
        <time>2017-05-05T14:01:01.000Z</time>
        <extensions>
          <ns3:TrackPointExtension>
            <ns3:hr>149</ns3:hr>
          </ns3:TrackPointExtension>
        </extensions>
      </trkpt>
      <trkpt lat="46.7876130156219005584716796875" lon="6.8088159151375293731689453125">
        <ele>684.5999755859375</ele>
        <time>2017-05-05T14:01:04.000Z</time>
        <extensions>
          <ns3:TrackPointExtension>
            <ns3:hr>150</ns3:hr>
          </ns3:TrackPointExtension>
        </extensions>
      </trkpt>
      <trkpt lat="46.78788986988365650177001953125" lon="6.8091555498540401458740234375">
        <ele>683.20001220703125</ele>
        <time>2017-05-05T14:01:08.000Z</time>
        <extensions>
          <ns3:TrackPointExtension>
            <ns3:hr>149</ns3:hr>
          </ns3:TrackPointExtension>
        </extensions>
      </trkpt>
      <trkpt lat="46.787960864603519439697265625" lon="6.8092376925051212310791015625">
        <ele>682</ele>
        <time>2017-05-05T14:01:09.000Z</time>
        <extensions>
          <ns3:TrackPointExtension>
            <ns3:hr>148</ns3:hr>
          </ns3:TrackPointExtension>
        </extensions>
      </trkpt>
      <trkpt lat="46.78803219459950923919677734375" lon="6.80931807495653629302978515625">
        <ele>680.79998779296875</ele>
        <time>2017-05-05T14:01:10.000Z</time>
        <extensions>
          <ns3:TrackPointExtension>
            <ns3:hr>148</ns3:hr>
          </ns3:TrackPointExtension>
        </extensions>
      </trkpt>
      <trkpt lat="46.78817016072571277618408203125" lon="6.809470541775226593017578125">
        <ele>679.4000244140625</ele>
        <time>2017-05-05T14:01:12.000Z</time>
        <extensions>
          <ns3:TrackPointExtension>
            <ns3:hr>148</ns3:hr>
          </ns3:TrackPointExtension>
        </extensions>
      </trkpt>
      <trkpt lat="46.78824375383555889129638671875" lon="6.80953768081963062286376953125">
        <ele>678.79998779296875</ele>
        <time>2017-05-05T14:01:13.000Z</time>
        <extensions>
          <ns3:TrackPointExtension>
            <ns3:hr>148</ns3:hr>
          </ns3:TrackPointExtension>
        </extensions>
      </trkpt>
      <trkpt lat="46.78831525146961212158203125" lon="6.809606663882732391357421875">
        <ele>678.20001220703125</ele>
        <time>2017-05-05T14:01:14.000Z</time>
        <extensions>
          <ns3:TrackPointExtension>
            <ns3:hr>148</ns3:hr>
          </ns3:TrackPointExtension>
        </extensions>
      </trkpt>
      <trkpt lat="46.78846168331801891326904296875" lon="6.8097357451915740966796875">
        <ele>676.4000244140625</ele>
        <time>2017-05-05T14:01:16.000Z</time>
        <extensions>
          <ns3:TrackPointExtension>
            <ns3:hr>148</ns3:hr>
          </ns3:TrackPointExtension>
        </extensions>
      </trkpt>
      <trkpt lat="46.78853192366659641265869140625" lon="6.80980087257921695709228515625">
        <ele>675.4000244140625</ele>
        <time>2017-05-05T14:01:17.000Z</time>
        <extensions>
          <ns3:TrackPointExtension>
            <ns3:hr>148</ns3:hr>
          </ns3:TrackPointExtension>
        </extensions>
      </trkpt>
      <trkpt lat="46.78869419731199741363525390625" lon="6.809897683560848236083984375">
        <ele>674.4000244140625</ele>
        <time>2017-05-05T14:01:19.000Z</time>
        <extensions>
          <ns3:TrackPointExtension>
            <ns3:hr>147</ns3:hr>
          </ns3:TrackPointExtension>
        </extensions>
      </trkpt>
      <trkpt lat="46.78877684287726879119873046875" lon="6.8099248409271240234375">
        <ele>674.20001220703125</ele>
        <time>2017-05-05T14:01:20.000Z</time>
        <extensions>
          <ns3:TrackPointExtension>
            <ns3:hr>147</ns3:hr>
          </ns3:TrackPointExtension>
        </extensions>
      </trkpt>
      <trkpt lat="46.78884490393102169036865234375" lon="6.80993582122027873992919921875">
        <ele>674</ele>
        <time>2017-05-05T14:01:21.000Z</time>
        <extensions>
          <ns3:TrackPointExtension>
            <ns3:hr>147</ns3:hr>
          </ns3:TrackPointExtension>
        </extensions>
      </trkpt>
      <trkpt lat="46.7889574728906154632568359375" lon="6.80998862721025943756103515625">
        <ele>673.79998779296875</ele>
        <time>2017-05-05T14:01:24.000Z</time>
        <extensions>
          <ns3:TrackPointExtension>
            <ns3:hr>148</ns3:hr>
          </ns3:TrackPointExtension>
        </extensions>
      </trkpt>
      <trkpt lat="46.788810789585113525390625" lon="6.8103135935962200164794921875">
        <ele>674.79998779296875</ele>
        <time>2017-05-05T14:01:34.000Z</time>
        <extensions>
          <ns3:TrackPointExtension>
            <ns3:hr>145</ns3:hr>
          </ns3:TrackPointExtension>
        </extensions>
      </trkpt>
      <trkpt lat="46.7887673713266849517822265625" lon="6.810374446213245391845703125">
        <ele>675.20001220703125</ele>
        <time>2017-05-05T14:01:36.000Z</time>
        <extensions>
          <ns3:TrackPointExtension>
            <ns3:hr>143</ns3:hr>
          </ns3:TrackPointExtension>
        </extensions>
      </trkpt>
      <trkpt lat="46.78868539631366729736328125" lon="6.810484416782855987548828125">
        <ele>676.5999755859375</ele>
        <time>2017-05-05T14:01:40.000Z</time>
        <extensions>
          <ns3:TrackPointExtension>
            <ns3:hr>143</ns3:hr>
          </ns3:TrackPointExtension>
        </extensions>
      </trkpt>
      <trkpt lat="46.78862362168729305267333984375" lon="6.81062288582324981689453125">
        <ele>677.5999755859375</ele>
        <time>2017-05-05T14:01:44.000Z</time>
        <extensions>
          <ns3:TrackPointExtension>
            <ns3:hr>144</ns3:hr>
          </ns3:TrackPointExtension>
        </extensions>
      </trkpt>
      <trkpt lat="46.78855874575674533843994140625" lon="6.8107387237250804901123046875">
        <ele>678.5999755859375</ele>
        <time>2017-05-05T14:01:47.000Z</time>
        <extensions>
          <ns3:TrackPointExtension>
            <ns3:hr>145</ns3:hr>
          </ns3:TrackPointExtension>
        </extensions>
      </trkpt>
      <trkpt lat="46.78844491951167583465576171875" lon="6.8109105527400970458984375">
        <ele>679.79998779296875</ele>
        <time>2017-05-05T14:01:51.000Z</time>
        <extensions>
          <ns3:TrackPointExtension>
            <ns3:hr>143</ns3:hr>
          </ns3:TrackPointExtension>
        </extensions>
      </trkpt>
      <trkpt lat="46.7880879342555999755859375" lon="6.81160499341785907745361328125">
        <ele>679.5999755859375</ele>
        <time>2017-05-05T14:02:01.000Z</time>
        <extensions>
          <ns3:TrackPointExtension>
            <ns3:hr>145</ns3:hr>
          </ns3:TrackPointExtension>
        </extensions>
      </trkpt>
      <trkpt lat="46.78794820792973041534423828125" lon="6.811845302581787109375">
        <ele>678.5999755859375</ele>
        <time>2017-05-05T14:02:04.000Z</time>
        <extensions>
          <ns3:TrackPointExtension>
            <ns3:hr>147</ns3:hr>
          </ns3:TrackPointExtension>
        </extensions>
      </trkpt>
      <trkpt lat="46.7877404205501079559326171875" lon="6.8121737055480480194091796875">
        <ele>677.4000244140625</ele>
        <time>2017-05-05T14:02:08.000Z</time>
        <extensions>
          <ns3:TrackPointExtension>
            <ns3:hr>149</ns3:hr>
          </ns3:TrackPointExtension>
        </extensions>
      </trkpt>
      <trkpt lat="46.787406988441944122314453125" lon="6.81272179819643497467041015625">
        <ele>677</ele>
        <time>2017-05-05T14:02:16.000Z</time>
        <extensions>
          <ns3:TrackPointExtension>
            <ns3:hr>150</ns3:hr>
          </ns3:TrackPointExtension>
        </extensions>
      </trkpt>
      <trkpt lat="46.787242703139781951904296875" lon="6.812985241413116455078125">
        <ele>678.4000244140625</ele>
        <time>2017-05-05T14:02:23.000Z</time>
        <extensions>
          <ns3:TrackPointExtension>
            <ns3:hr>148</ns3:hr>
          </ns3:TrackPointExtension>
        </extensions>
      </trkpt>
      <trkpt lat="46.7871748097240924835205078125" lon="6.8130880035459995269775390625">
        <ele>679.5999755859375</ele>
        <time>2017-05-05T14:02:26.000Z</time>
        <extensions>
          <ns3:TrackPointExtension>
            <ns3:hr>147</ns3:hr>
          </ns3:TrackPointExtension>
        </extensions>
      </trkpt>
      <trkpt lat="46.78711202926933765411376953125" lon="6.813187412917613983154296875">
        <ele>681.20001220703125</ele>
        <time>2017-05-05T14:02:29.000Z</time>
        <extensions>
          <ns3:TrackPointExtension>
            <ns3:hr>147</ns3:hr>
          </ns3:TrackPointExtension>
        </extensions>
      </trkpt>
      <trkpt lat="46.78702452220022678375244140625" lon="6.81332898326218128204345703125">
        <ele>682.4000244140625</ele>
        <time>2017-05-05T14:02:33.000Z</time>
        <extensions>
          <ns3:TrackPointExtension>
            <ns3:hr>147</ns3:hr>
          </ns3:TrackPointExtension>
        </extensions>
      </trkpt>
      <trkpt lat="46.78689124993979930877685546875" lon="6.81353936903178691864013671875">
        <ele>683.79998779296875</ele>
        <time>2017-05-05T14:02:39.000Z</time>
        <extensions>
          <ns3:TrackPointExtension>
            <ns3:hr>148</ns3:hr>
          </ns3:TrackPointExtension>
        </extensions>
      </trkpt>
      <trkpt lat="46.78682201541960239410400390625" lon="6.813648752868175506591796875">
        <ele>684.79998779296875</ele>
        <time>2017-05-05T14:02:42.000Z</time>
        <extensions>
          <ns3:TrackPointExtension>
            <ns3:hr>147</ns3:hr>
          </ns3:TrackPointExtension>
        </extensions>
      </trkpt>
      <trkpt lat="46.786729730665683746337890625" lon="6.81381345726549625396728515625">
        <ele>685.79998779296875</ele>
        <time>2017-05-05T14:02:46.000Z</time>
        <extensions>
          <ns3:TrackPointExtension>
            <ns3:hr>149</ns3:hr>
          </ns3:TrackPointExtension>
        </extensions>
      </trkpt>
      <trkpt lat="46.7867094464600086212158203125" lon="6.81386559270322322845458984375">
        <ele>686</ele>
        <time>2017-05-05T14:02:47.000Z</time>
        <extensions>
          <ns3:TrackPointExtension>
            <ns3:hr>149</ns3:hr>
          </ns3:TrackPointExtension>
        </extensions>
      </trkpt>
      <trkpt lat="46.78661883808672428131103515625" lon="6.81409659795463085174560546875">
        <ele>686.20001220703125</ele>
        <time>2017-05-05T14:02:51.000Z</time>
        <extensions>
          <ns3:TrackPointExtension>
            <ns3:hr>146</ns3:hr>
          </ns3:TrackPointExtension>
        </extensions>
      </trkpt>
      <trkpt lat="46.78654759190976619720458984375" lon="6.8142802454531192779541015625">
        <ele>686.4000244140625</ele>
        <time>2017-05-05T14:02:54.000Z</time>
        <extensions>
          <ns3:TrackPointExtension>
            <ns3:hr>144</ns3:hr>
          </ns3:TrackPointExtension>
        </extensions>
      </trkpt>
      <trkpt lat="46.7865672893822193145751953125" lon="6.8144478835165500640869140625">
        <ele>686.4000244140625</ele>
        <time>2017-05-05T14:02:57.000Z</time>
        <extensions>
          <ns3:TrackPointExtension>
            <ns3:hr>147</ns3:hr>
          </ns3:TrackPointExtension>
        </extensions>
      </trkpt>
      <trkpt lat="46.7866279743611812591552734375" lon="6.81452373974025249481201171875">
        <ele>686.4000244140625</ele>
        <time>2017-05-05T14:02:59.000Z</time>
        <extensions>
          <ns3:TrackPointExtension>
            <ns3:hr>146</ns3:hr>
          </ns3:TrackPointExtension>
        </extensions>
      </trkpt>
      <trkpt lat="46.78677960298955440521240234375" lon="6.8146604485809803009033203125">
        <ele>686.4000244140625</ele>
        <time>2017-05-05T14:03:03.000Z</time>
        <extensions>
          <ns3:TrackPointExtension>
            <ns3:hr>143</ns3:hr>
          </ns3:TrackPointExtension>
        </extensions>
      </trkpt>
      <trkpt lat="46.78693969734013080596923828125" lon="6.81481224484741687774658203125">
        <ele>686.5999755859375</ele>
        <time>2017-05-05T14:03:07.000Z</time>
        <extensions>
          <ns3:TrackPointExtension>
            <ns3:hr>140</ns3:hr>
          </ns3:TrackPointExtension>
        </extensions>
      </trkpt>
      <trkpt lat="46.7870531044900417327880859375" lon="6.81493545882403850555419921875">
        <ele>687</ele>
        <time>2017-05-05T14:03:10.000Z</time>
        <extensions>
          <ns3:TrackPointExtension>
            <ns3:hr>137</ns3:hr>
          </ns3:TrackPointExtension>
        </extensions>
      </trkpt>
      <trkpt lat="46.7872416973114013671875" lon="6.815153472125530242919921875">
        <ele>687.79998779296875</ele>
        <time>2017-05-05T14:03:15.000Z</time>
        <extensions>
          <ns3:TrackPointExtension>
            <ns3:hr>140</ns3:hr>
          </ns3:TrackPointExtension>
        </extensions>
      </trkpt>
      <trkpt lat="46.78728050552308559417724609375" lon="6.81519244797527790069580078125">
        <ele>688</ele>
        <time>2017-05-05T14:03:16.000Z</time>
        <extensions>
          <ns3:TrackPointExtension>
            <ns3:hr>140</ns3:hr>
          </ns3:TrackPointExtension>
        </extensions>
      </trkpt>
      <trkpt lat="46.78761695511639118194580078125" lon="6.81554733775556087493896484375">
        <ele>688.5999755859375</ele>
        <time>2017-05-05T14:03:25.000Z</time>
        <extensions>
          <ns3:TrackPointExtension>
            <ns3:hr>140</ns3:hr>
          </ns3:TrackPointExtension>
        </extensions>
      </trkpt>
      <trkpt lat="46.78769029676914215087890625" lon="6.81551967747509479522705078125">
        <ele>688.79998779296875</ele>
        <time>2017-05-05T14:03:27.000Z</time>
        <extensions>
          <ns3:TrackPointExtension>
            <ns3:hr>141</ns3:hr>
          </ns3:TrackPointExtension>
        </extensions>
      </trkpt>
      <trkpt lat="46.78774125874042510986328125" lon="6.81541423313319683074951171875">
        <ele>688.79998779296875</ele>
        <time>2017-05-05T14:03:29.000Z</time>
        <extensions>
          <ns3:TrackPointExtension>
            <ns3:hr>141</ns3:hr>
          </ns3:TrackPointExtension>
        </extensions>
      </trkpt>
      <trkpt lat="46.78788785822689533233642578125" lon="6.8150745145976543426513671875">
        <ele>689</ele>
        <time>2017-05-05T14:03:35.000Z</time>
        <extensions>
          <ns3:TrackPointExtension>
            <ns3:hr>142</ns3:hr>
          </ns3:TrackPointExtension>
        </extensions>
      </trkpt>
      <trkpt lat="46.78795960731804370880126953125" lon="6.8150406517088413238525390625">
        <ele>689</ele>
        <time>2017-05-05T14:03:37.000Z</time>
        <extensions>
          <ns3:TrackPointExtension>
            <ns3:hr>141</ns3:hr>
          </ns3:TrackPointExtension>
        </extensions>
      </trkpt>
      <trkpt lat="46.7879927158355712890625" lon="6.8150698207318782806396484375">
        <ele>689</ele>
        <time>2017-05-05T14:03:38.000Z</time>
        <extensions>
          <ns3:TrackPointExtension>
            <ns3:hr>141</ns3:hr>
          </ns3:TrackPointExtension>
        </extensions>
      </trkpt>
      <trkpt lat="46.78801844827830791473388671875" lon="6.8151214532554149627685546875">
        <ele>689.20001220703125</ele>
        <time>2017-05-05T14:03:39.000Z</time>
        <extensions>
          <ns3:TrackPointExtension>
            <ns3:hr>142</ns3:hr>
          </ns3:TrackPointExtension>
        </extensions>
      </trkpt>
      <trkpt lat="46.7882289178669452667236328125" lon="6.81554415263235569000244140625">
        <ele>690.20001220703125</ele>
        <time>2017-05-05T14:03:47.000Z</time>
        <extensions>
          <ns3:TrackPointExtension>
            <ns3:hr>141</ns3:hr>
          </ns3:TrackPointExtension>
        </extensions>
      </trkpt>
      <trkpt lat="46.788303516805171966552734375" lon="6.8156873993575572967529296875">
        <ele>690.4000244140625</ele>
        <time>2017-05-05T14:03:50.000Z</time>
        <extensions>
          <ns3:TrackPointExtension>
            <ns3:hr>141</ns3:hr>
          </ns3:TrackPointExtension>
        </extensions>
      </trkpt>
      <trkpt lat="46.788561344146728515625" lon="6.81598621420562267303466796875">
        <ele>691.20001220703125</ele>
        <time>2017-05-05T14:03:58.000Z</time>
        <extensions>
          <ns3:TrackPointExtension>
            <ns3:hr>140</ns3:hr>
          </ns3:TrackPointExtension>
        </extensions>
      </trkpt>
      <trkpt lat="46.78866653703153133392333984375" lon="6.81607221253216266632080078125">
        <ele>692.4000244140625</ele>
        <time>2017-05-05T14:04:01.000Z</time>
        <extensions>
          <ns3:TrackPointExtension>
            <ns3:hr>140</ns3:hr>
          </ns3:TrackPointExtension>
        </extensions>
      </trkpt>
      <trkpt lat="46.78878656588494777679443359375" lon="6.81619408540427684783935546875">
        <ele>693.20001220703125</ele>
        <time>2017-05-05T14:04:05.000Z</time>
        <extensions>
          <ns3:TrackPointExtension>
            <ns3:hr>143</ns3:hr>
          </ns3:TrackPointExtension>
        </extensions>
      </trkpt>
      <trkpt lat="46.7888845503330230712890625" lon="6.816298104822635650634765625">
        <ele>693.5999755859375</ele>
        <time>2017-05-05T14:04:08.000Z</time>
        <extensions>
          <ns3:TrackPointExtension>
            <ns3:hr>144</ns3:hr>
          </ns3:TrackPointExtension>
        </extensions>
      </trkpt>
      <trkpt lat="46.78908278234302997589111328125" lon="6.8165031261742115020751953125">
        <ele>694.5999755859375</ele>
        <time>2017-05-05T14:04:14.000Z</time>
        <extensions>
          <ns3:TrackPointExtension>
            <ns3:hr>144</ns3:hr>
          </ns3:TrackPointExtension>
        </extensions>
      </trkpt>
      <trkpt lat="46.789449490606784820556640625" lon="6.81691627018153667449951171875">
        <ele>695</ele>
        <time>2017-05-05T14:04:25.000Z</time>
        <extensions>
          <ns3:TrackPointExtension>
            <ns3:hr>145</ns3:hr>
          </ns3:TrackPointExtension>
        </extensions>
      </trkpt>
      <trkpt lat="46.7895229160785675048828125" lon="6.81699120439589023590087890625">
        <ele>695</ele>
        <time>2017-05-05T14:04:27.000Z</time>
        <extensions>
          <ns3:TrackPointExtension>
            <ns3:hr>144</ns3:hr>
          </ns3:TrackPointExtension>
        </extensions>
      </trkpt>
      <trkpt lat="46.7898553423583507537841796875" lon="6.81734810583293437957763671875">
        <ele>693.5999755859375</ele>
        <time>2017-05-05T14:04:35.000Z</time>
        <extensions>
          <ns3:TrackPointExtension>
            <ns3:hr>145</ns3:hr>
          </ns3:TrackPointExtension>
        </extensions>
      </trkpt>
      <trkpt lat="46.78998735733330249786376953125" lon="6.8175163306295871734619140625">
        <ele>692.5999755859375</ele>
        <time>2017-05-05T14:04:38.000Z</time>
        <extensions>
          <ns3:TrackPointExtension>
            <ns3:hr>146</ns3:hr>
          </ns3:TrackPointExtension>
        </extensions>
      </trkpt>
      <trkpt lat="46.79003295488655567169189453125" lon="6.81757072918117046356201171875">
        <ele>692.4000244140625</ele>
        <time>2017-05-05T14:04:39.000Z</time>
        <extensions>
          <ns3:TrackPointExtension>
            <ns3:hr>146</ns3:hr>
          </ns3:TrackPointExtension>
        </extensions>
      </trkpt>
      <trkpt lat="46.79018282331526279449462890625" lon="6.81774071417748928070068359375">
        <ele>691.79998779296875</ele>
        <time>2017-05-05T14:04:42.000Z</time>
        <extensions>
          <ns3:TrackPointExtension>
            <ns3:hr>146</ns3:hr>
          </ns3:TrackPointExtension>
        </extensions>
      </trkpt>
      <trkpt lat="46.7902613617479801177978515625" lon="6.8178945221006870269775390625">
        <ele>691.5999755859375</ele>
        <time>2017-05-05T14:04:44.000Z</time>
        <extensions>
          <ns3:TrackPointExtension>
            <ns3:hr>145</ns3:hr>
          </ns3:TrackPointExtension>
        </extensions>
      </trkpt>
      <trkpt lat="46.79033629596233367919921875" lon="6.818048916757106781005859375">
        <ele>691.20001220703125</ele>
        <time>2017-05-05T14:04:46.000Z</time>
        <extensions>
          <ns3:TrackPointExtension>
            <ns3:hr>144</ns3:hr>
          </ns3:TrackPointExtension>
        </extensions>
      </trkpt>
      <trkpt lat="46.7905818857252597808837890625" lon="6.81825670413672924041748046875">
        <ele>690.20001220703125</ele>
        <time>2017-05-05T14:04:50.000Z</time>
        <extensions>
          <ns3:TrackPointExtension>
            <ns3:hr>144</ns3:hr>
          </ns3:TrackPointExtension>
        </extensions>
      </trkpt>
      <trkpt lat="46.7908353544771671295166015625" lon="6.81849139742553234100341796875">
        <ele>689</ele>
        <time>2017-05-05T14:04:54.000Z</time>
        <extensions>
          <ns3:TrackPointExtension>
            <ns3:hr>144</ns3:hr>
          </ns3:TrackPointExtension>
        </extensions>
      </trkpt>
      <trkpt lat="46.790960244834423065185546875" lon="6.81862165220081806182861328125">
        <ele>687.5999755859375</ele>
        <time>2017-05-05T14:04:56.000Z</time>
        <extensions>
          <ns3:TrackPointExtension>
            <ns3:hr>143</ns3:hr>
          </ns3:TrackPointExtension>
        </extensions>
      </trkpt>
      <trkpt lat="46.79103123955428600311279296875" lon="6.8186646513640880584716796875">
        <ele>687</ele>
        <time>2017-05-05T14:04:57.000Z</time>
        <extensions>
          <ns3:TrackPointExtension>
            <ns3:hr>142</ns3:hr>
          </ns3:TrackPointExtension>
        </extensions>
      </trkpt>
      <trkpt lat="46.79110935889184474945068359375" lon="6.8186763860285282135009765625">
        <ele>686</ele>
        <time>2017-05-05T14:04:58.000Z</time>
        <extensions>
          <ns3:TrackPointExtension>
            <ns3:hr>141</ns3:hr>
          </ns3:TrackPointExtension>
        </extensions>
      </trkpt>
      <trkpt lat="46.791186220943927764892578125" lon="6.818669177591800689697265625">
        <ele>685.5999755859375</ele>
        <time>2017-05-05T14:04:59.000Z</time>
        <extensions>
          <ns3:TrackPointExtension>
            <ns3:hr>140</ns3:hr>
          </ns3:TrackPointExtension>
        </extensions>
      </trkpt>
      <trkpt lat="46.79132494144141674041748046875" lon="6.81868334300816059112548828125">
        <ele>685</ele>
        <time>2017-05-05T14:05:01.000Z</time>
        <extensions>
          <ns3:TrackPointExtension>
            <ns3:hr>140</ns3:hr>
          </ns3:TrackPointExtension>
        </extensions>
      </trkpt>
      <trkpt lat="46.79138428531587123870849609375" lon="6.81870781816542148590087890625">
        <ele>684.5999755859375</ele>
        <time>2017-05-05T14:05:02.000Z</time>
        <extensions>
          <ns3:TrackPointExtension>
            <ns3:hr>140</ns3:hr>
          </ns3:TrackPointExtension>
        </extensions>
      </trkpt>
      <trkpt lat="46.79146952927112579345703125" lon="6.81879767216742038726806640625">
        <ele>684.20001220703125</ele>
        <time>2017-05-05T14:05:04.000Z</time>
        <extensions>
          <ns3:TrackPointExtension>
            <ns3:hr>139</ns3:hr>
          </ns3:TrackPointExtension>
        </extensions>
      </trkpt>
      <trkpt lat="46.79153264500200748443603515625" lon="6.81890864856541156768798828125">
        <ele>683.79998779296875</ele>
        <time>2017-05-05T14:05:06.000Z</time>
        <extensions>
          <ns3:TrackPointExtension>
            <ns3:hr>138</ns3:hr>
          </ns3:TrackPointExtension>
        </extensions>
      </trkpt>
      <trkpt lat="46.791671700775623321533203125" lon="6.81906907819211483001708984375">
        <ele>682.79998779296875</ele>
        <time>2017-05-05T14:05:11.000Z</time>
        <extensions>
          <ns3:TrackPointExtension>
            <ns3:hr>139</ns3:hr>
          </ns3:TrackPointExtension>
        </extensions>
      </trkpt>
      <trkpt lat="46.79177689366042613983154296875" lon="6.8191199563443660736083984375">
        <ele>682.5999755859375</ele>
        <time>2017-05-05T14:05:14.000Z</time>
        <extensions>
          <ns3:TrackPointExtension>
            <ns3:hr>139</ns3:hr>
          </ns3:TrackPointExtension>
        </extensions>
      </trkpt>
      <trkpt lat="46.79185819812119007110595703125" lon="6.81917049922049045562744140625">
        <ele>682.20001220703125</ele>
        <time>2017-05-05T14:05:16.000Z</time>
        <extensions>
          <ns3:TrackPointExtension>
            <ns3:hr>139</ns3:hr>
          </ns3:TrackPointExtension>
        </extensions>
      </trkpt>
      <trkpt lat="46.79191385395824909210205078125" lon="6.819255240261554718017578125">
        <ele>682</ele>
        <time>2017-05-05T14:05:18.000Z</time>
        <extensions>
          <ns3:TrackPointExtension>
            <ns3:hr>140</ns3:hr>
          </ns3:TrackPointExtension>
        </extensions>
      </trkpt>
      <trkpt lat="46.79198560304939746856689453125" lon="6.81937904097139835357666015625">
        <ele>681.79998779296875</ele>
        <time>2017-05-05T14:05:21.000Z</time>
        <extensions>
          <ns3:TrackPointExtension>
            <ns3:hr>140</ns3:hr>
          </ns3:TrackPointExtension>
        </extensions>
      </trkpt>
      <trkpt lat="46.79207663051784038543701171875" lon="6.81938172318041324615478515625">
        <ele>680.5999755859375</ele>
        <time>2017-05-05T14:05:23.000Z</time>
        <extensions>
          <ns3:TrackPointExtension>
            <ns3:hr>140</ns3:hr>
          </ns3:TrackPointExtension>
        </extensions>
      </trkpt>
      <trkpt lat="46.79219640791416168212890625" lon="6.8193787895143032073974609375">
        <ele>679.4000244140625</ele>
        <time>2017-05-05T14:05:25.000Z</time>
        <extensions>
          <ns3:TrackPointExtension>
            <ns3:hr>140</ns3:hr>
          </ns3:TrackPointExtension>
        </extensions>
      </trkpt>
      <trkpt lat="46.79231752641499042510986328125" lon="6.81941357441246509552001953125">
        <ele>677.79998779296875</ele>
        <time>2017-05-05T14:05:27.000Z</time>
        <extensions>
          <ns3:TrackPointExtension>
            <ns3:hr>140</ns3:hr>
          </ns3:TrackPointExtension>
        </extensions>
      </trkpt>
      <trkpt lat="46.792371757328510284423828125" lon="6.81943737901747226715087890625">
        <ele>676.5999755859375</ele>
        <time>2017-05-05T14:05:28.000Z</time>
        <extensions>
          <ns3:TrackPointExtension>
            <ns3:hr>140</ns3:hr>
          </ns3:TrackPointExtension>
        </extensions>
      </trkpt>
      <trkpt lat="46.79242045618593692779541015625" lon="6.81945766322314739227294921875">
        <ele>675.5999755859375</ele>
        <time>2017-05-05T14:05:29.000Z</time>
        <extensions>
          <ns3:TrackPointExtension>
            <ns3:hr>140</ns3:hr>
          </ns3:TrackPointExtension>
        </extensions>
      </trkpt>
      <trkpt lat="46.7924688197672367095947265625" lon="6.81947685778141021728515625">
        <ele>674.5999755859375</ele>
        <time>2017-05-05T14:05:30.000Z</time>
        <extensions>
          <ns3:TrackPointExtension>
            <ns3:hr>141</ns3:hr>
          </ns3:TrackPointExtension>
        </extensions>
      </trkpt>
      <trkpt lat="46.7925395630300045013427734375" lon="6.81950502097606658935546875">
        <ele>672.79998779296875</ele>
        <time>2017-05-05T14:05:32.000Z</time>
        <extensions>
          <ns3:TrackPointExtension>
            <ns3:hr>141</ns3:hr>
          </ns3:TrackPointExtension>
        </extensions>
      </trkpt>
      <trkpt lat="46.79261424578726291656494140625" lon="6.8195387162268161773681640625">
        <ele>671.4000244140625</ele>
        <time>2017-05-05T14:05:34.000Z</time>
        <extensions>
          <ns3:TrackPointExtension>
            <ns3:hr>141</ns3:hr>
          </ns3:TrackPointExtension>
        </extensions>
      </trkpt>
      <trkpt lat="46.79268582724034786224365234375" lon="6.819578111171722412109375">
        <ele>670</ele>
        <time>2017-05-05T14:05:36.000Z</time>
        <extensions>
          <ns3:TrackPointExtension>
            <ns3:hr>141</ns3:hr>
          </ns3:TrackPointExtension>
        </extensions>
      </trkpt>
      <trkpt lat="46.7927742563188076019287109375" lon="6.819600574672222137451171875">
        <ele>668.79998779296875</ele>
        <time>2017-05-05T14:05:39.000Z</time>
        <extensions>
          <ns3:TrackPointExtension>
            <ns3:hr>141</ns3:hr>
          </ns3:TrackPointExtension>
        </extensions>
      </trkpt>
      <trkpt lat="46.7927950434386730194091796875" lon="6.819581128656864166259765625">
        <ele>667.5999755859375</ele>
        <time>2017-05-05T14:05:41.000Z</time>
        <extensions>
          <ns3:TrackPointExtension>
            <ns3:hr>141</ns3:hr>
          </ns3:TrackPointExtension>
        </extensions>
      </trkpt>
      <trkpt lat="46.7927906848490238189697265625" lon="6.81955556385219097137451171875">
        <ele>666.20001220703125</ele>
        <time>2017-05-05T14:05:42.000Z</time>
        <extensions>
          <ns3:TrackPointExtension>
            <ns3:hr>141</ns3:hr>
          </ns3:TrackPointExtension>
        </extensions>
      </trkpt>
      <trkpt lat="46.79278825409710407257080078125" lon="6.81953695602715015411376953125">
        <ele>664.79998779296875</ele>
        <time>2017-05-05T14:05:43.000Z</time>
        <extensions>
          <ns3:TrackPointExtension>
            <ns3:hr>141</ns3:hr>
          </ns3:TrackPointExtension>
        </extensions>
      </trkpt>
      <trkpt lat="46.79277752526104450225830078125" lon="6.81949672289192676544189453125">
        <ele>663.79998779296875</ele>
        <time>2017-05-05T14:05:45.000Z</time>
        <extensions>
          <ns3:TrackPointExtension>
            <ns3:hr>141</ns3:hr>
          </ns3:TrackPointExtension>
        </extensions>
      </trkpt>
      <trkpt lat="46.792753636837005615234375" lon="6.8191233091056346893310546875">
        <ele>664.79998779296875</ele>
        <time>2017-05-05T14:05:59.000Z</time>
        <extensions>
          <ns3:TrackPointExtension>
            <ns3:hr>141</ns3:hr>
          </ns3:TrackPointExtension>
        </extensions>
      </trkpt>
      <trkpt lat="46.7928027547895908355712890625" lon="6.81901459582149982452392578125">
        <ele>666</ele>
        <time>2017-05-05T14:06:03.000Z</time>
        <extensions>
          <ns3:TrackPointExtension>
            <ns3:hr>143</ns3:hr>
          </ns3:TrackPointExtension>
        </extensions>
      </trkpt>
      <trkpt lat="46.7928557284176349639892578125" lon="6.81891351006925106048583984375">
        <ele>667</ele>
        <time>2017-05-05T14:06:07.000Z</time>
        <extensions>
          <ns3:TrackPointExtension>
            <ns3:hr>144</ns3:hr>
          </ns3:TrackPointExtension>
        </extensions>
      </trkpt>
      <trkpt lat="46.79289235733449459075927734375" lon="6.81880228221416473388671875">
        <ele>668.20001220703125</ele>
        <time>2017-05-05T14:06:12.000Z</time>
        <extensions>
          <ns3:TrackPointExtension>
            <ns3:hr>144</ns3:hr>
          </ns3:TrackPointExtension>
        </extensions>
      </trkpt>
      <trkpt lat="46.792966537177562713623046875" lon="6.8186542578041553497314453125">
        <ele>669.20001220703125</ele>
        <time>2017-05-05T14:06:19.000Z</time>
        <extensions>
          <ns3:TrackPointExtension>
            <ns3:hr>143</ns3:hr>
          </ns3:TrackPointExtension>
        </extensions>
      </trkpt>
      <trkpt lat="46.7929707281291484832763671875" lon="6.8186200596392154693603515625">
        <ele>669.5999755859375</ele>
        <time>2017-05-05T14:06:21.000Z</time>
        <extensions>
          <ns3:TrackPointExtension>
            <ns3:hr>143</ns3:hr>
          </ns3:TrackPointExtension>
        </extensions>
      </trkpt>
      <trkpt lat="46.7929992265999317169189453125" lon="6.81866507045924663543701171875">
        <ele>670.4000244140625</ele>
        <time>2017-05-05T14:06:23.000Z</time>
        <extensions>
          <ns3:TrackPointExtension>
            <ns3:hr>143</ns3:hr>
          </ns3:TrackPointExtension>
        </extensions>
      </trkpt>
      <trkpt lat="46.79305873811244964599609375" lon="6.81886053644120693206787109375">
        <ele>671.5999755859375</ele>
        <time>2017-05-05T14:06:27.000Z</time>
        <extensions>
          <ns3:TrackPointExtension>
            <ns3:hr>144</ns3:hr>
          </ns3:TrackPointExtension>
        </extensions>
      </trkpt>
      <trkpt lat="46.79316560737788677215576171875" lon="6.8190579302608966827392578125">
        <ele>671.79998779296875</ele>
        <time>2017-05-05T14:06:31.000Z</time>
        <extensions>
          <ns3:TrackPointExtension>
            <ns3:hr>143</ns3:hr>
          </ns3:TrackPointExtension>
        </extensions>
      </trkpt>
      <trkpt lat="46.7932838760316371917724609375" lon="6.81919463910162448883056640625">
        <ele>671.79998779296875</ele>
        <time>2017-05-05T14:06:34.000Z</time>
        <extensions>
          <ns3:TrackPointExtension>
            <ns3:hr>142</ns3:hr>
          </ns3:TrackPointExtension>
        </extensions>
      </trkpt>
      <trkpt lat="46.793553940951824188232421875" lon="6.81938021443784236907958984375">
        <ele>671.4000244140625</ele>
        <time>2017-05-05T14:06:39.000Z</time>
        <extensions>
          <ns3:TrackPointExtension>
            <ns3:hr>145</ns3:hr>
          </ns3:TrackPointExtension>
        </extensions>
      </trkpt>
      <trkpt lat="46.79395954124629497528076171875" lon="6.81958221830427646636962890625">
        <ele>670.5999755859375</ele>
        <time>2017-05-05T14:06:46.000Z</time>
        <extensions>
          <ns3:TrackPointExtension>
            <ns3:hr>148</ns3:hr>
          </ns3:TrackPointExtension>
        </extensions>
      </trkpt>
      <trkpt lat="46.7944985814392566680908203125" lon="6.81975387968122959136962890625">
        <ele>671.4000244140625</ele>
        <time>2017-05-05T14:06:57.000Z</time>
        <extensions>
          <ns3:TrackPointExtension>
            <ns3:hr>148</ns3:hr>
          </ns3:TrackPointExtension>
        </extensions>
      </trkpt>
      <trkpt lat="46.7947094701230525970458984375" lon="6.81985236704349517822265625">
        <ele>672.5999755859375</ele>
        <time>2017-05-05T14:07:03.000Z</time>
        <extensions>
          <ns3:TrackPointExtension>
            <ns3:hr>147</ns3:hr>
          </ns3:TrackPointExtension>
        </extensions>
      </trkpt>
      <trkpt lat="46.79484349675476551055908203125" lon="6.81991497986018657684326171875">
        <ele>674</ele>
        <time>2017-05-05T14:07:07.000Z</time>
        <extensions>
          <ns3:TrackPointExtension>
            <ns3:hr>146</ns3:hr>
          </ns3:TrackPointExtension>
        </extensions>
      </trkpt>
      <trkpt lat="46.79500895552337169647216796875" lon="6.82000332511961460113525390625">
        <ele>675.20001220703125</ele>
        <time>2017-05-05T14:07:12.000Z</time>
        <extensions>
          <ns3:TrackPointExtension>
            <ns3:hr>144</ns3:hr>
          </ns3:TrackPointExtension>
        </extensions>
      </trkpt>
      <trkpt lat="46.79513652808964252471923828125" lon="6.82009083218872547149658203125">
        <ele>676.20001220703125</ele>
        <time>2017-05-05T14:07:16.000Z</time>
        <extensions>
          <ns3:TrackPointExtension>
            <ns3:hr>143</ns3:hr>
          </ns3:TrackPointExtension>
        </extensions>
      </trkpt>
      <trkpt lat="46.79533065296709537506103515625" lon="6.82022477500140666961669921875">
        <ele>677.5999755859375</ele>
        <time>2017-05-05T14:07:22.000Z</time>
        <extensions>
          <ns3:TrackPointExtension>
            <ns3:hr>143</ns3:hr>
          </ns3:TrackPointExtension>
        </extensions>
      </trkpt>
      <trkpt lat="46.7957806773483753204345703125" lon="6.8205167166888713836669921875">
        <ele>678.4000244140625</ele>
        <time>2017-05-05T14:07:33.000Z</time>
        <extensions>
          <ns3:TrackPointExtension>
            <ns3:hr>144</ns3:hr>
          </ns3:TrackPointExtension>
        </extensions>
      </trkpt>
      <trkpt lat="46.79591973312199115753173828125" lon="6.82062174193561077117919921875">
        <ele>678.5999755859375</ele>
        <time>2017-05-05T14:07:36.000Z</time>
        <extensions>
          <ns3:TrackPointExtension>
            <ns3:hr>143</ns3:hr>
          </ns3:TrackPointExtension>
        </extensions>
      </trkpt>
      <trkpt lat="46.7961890436708927154541015625" lon="6.8208322115242481231689453125">
        <ele>678.5999755859375</ele>
        <time>2017-05-05T14:07:42.000Z</time>
        <extensions>
          <ns3:TrackPointExtension>
            <ns3:hr>149</ns3:hr>
          </ns3:TrackPointExtension>
        </extensions>
      </trkpt>
      <trkpt lat="46.7962346412241458892822265625" lon="6.8208590336143970489501953125">
        <ele>678.5999755859375</ele>
        <time>2017-05-05T14:07:43.000Z</time>
        <extensions>
          <ns3:TrackPointExtension>
            <ns3:hr>151</ns3:hr>
          </ns3:TrackPointExtension>
        </extensions>
      </trkpt>
      <trkpt lat="46.796376295387744903564453125" lon="6.82090781629085540771484375">
        <ele>678.5999755859375</ele>
        <time>2017-05-05T14:07:46.000Z</time>
        <extensions>
          <ns3:TrackPointExtension>
            <ns3:hr>155</ns3:hr>
          </ns3:TrackPointExtension>
        </extensions>
      </trkpt>
      <trkpt lat="46.79642013274133205413818359375" lon="6.8209405057132244110107421875">
        <ele>678.5999755859375</ele>
        <time>2017-05-05T14:07:47.000Z</time>
        <extensions>
          <ns3:TrackPointExtension>
            <ns3:hr>160</ns3:hr>
          </ns3:TrackPointExtension>
        </extensions>
      </trkpt>
      <trkpt lat="46.79646916687488555908203125" lon="6.82097478769719600677490234375">
        <ele>678.5999755859375</ele>
        <time>2017-05-05T14:07:48.000Z</time>
        <extensions>
          <ns3:TrackPointExtension>
            <ns3:hr>160</ns3:hr>
          </ns3:TrackPointExtension>
        </extensions>
      </trkpt>
      <trkpt lat="46.79651367478072643280029296875" lon="6.82102072052657604217529296875">
        <ele>678.5999755859375</ele>
        <time>2017-05-05T14:07:49.000Z</time>
        <extensions>
          <ns3:TrackPointExtension>
            <ns3:hr>160</ns3:hr>
          </ns3:TrackPointExtension>
        </extensions>
      </trkpt>
      <trkpt lat="46.796843670308589935302734375" lon="6.82136421091854572296142578125">
        <ele>678.5999755859375</ele>
        <time>2017-05-05T14:07:54.000Z</time>
        <extensions>
          <ns3:TrackPointExtension>
            <ns3:hr>160</ns3:hr>
          </ns3:TrackPointExtension>
        </extensions>
      </trkpt>
      <trkpt lat="46.79710795171558856964111328125" lon="6.82159018702805042266845703125">
        <ele>677</ele>
        <time>2017-05-05T14:07:58.000Z</time>
        <extensions>
          <ns3:TrackPointExtension>
            <ns3:hr>158</ns3:hr>
          </ns3:TrackPointExtension>
        </extensions>
      </trkpt>
      <trkpt lat="46.7971600033342838287353515625" lon="6.82164131663739681243896484375">
        <ele>675.79998779296875</ele>
        <time>2017-05-05T14:07:59.000Z</time>
        <extensions>
          <ns3:TrackPointExtension>
            <ns3:hr>158</ns3:hr>
          </ns3:TrackPointExtension>
        </extensions>
      </trkpt>
      <trkpt lat="46.7972109653055667877197265625" lon="6.821684651076793670654296875">
        <ele>674.20001220703125</ele>
        <time>2017-05-05T14:08:00.000Z</time>
        <extensions>
          <ns3:TrackPointExtension>
            <ns3:hr>156</ns3:hr>
          </ns3:TrackPointExtension>
        </extensions>
      </trkpt>
      <trkpt lat="46.79726117290556430816650390625" lon="6.82171775959432125091552734375">
        <ele>673.20001220703125</ele>
        <time>2017-05-05T14:08:01.000Z</time>
        <extensions>
          <ns3:TrackPointExtension>
            <ns3:hr>156</ns3:hr>
          </ns3:TrackPointExtension>
        </extensions>
      </trkpt>
      <trkpt lat="46.79737583734095096588134765625" lon="6.82177827693521976470947265625">
        <ele>672</ele>
        <time>2017-05-05T14:08:03.000Z</time>
        <extensions>
          <ns3:TrackPointExtension>
            <ns3:hr>155</ns3:hr>
          </ns3:TrackPointExtension>
        </extensions>
      </trkpt>
      <trkpt lat="46.79742629639804363250732421875" lon="6.82181683368980884552001953125">
        <ele>671.79998779296875</ele>
        <time>2017-05-05T14:08:04.000Z</time>
        <extensions>
          <ns3:TrackPointExtension>
            <ns3:hr>155</ns3:hr>
          </ns3:TrackPointExtension>
        </extensions>
      </trkpt>
      <trkpt lat="46.797659732401371002197265625" lon="6.82203459553420543670654296875">
        <ele>671.20001220703125</ele>
        <time>2017-05-05T14:08:09.000Z</time>
        <extensions>
          <ns3:TrackPointExtension>
            <ns3:hr>154</ns3:hr>
          </ns3:TrackPointExtension>
        </extensions>
      </trkpt>
      <trkpt lat="46.797752939164638519287109375" lon="6.82203568518161773681640625">
        <ele>671</ele>
        <time>2017-05-05T14:08:11.000Z</time>
        <extensions>
          <ns3:TrackPointExtension>
            <ns3:hr>154</ns3:hr>
          </ns3:TrackPointExtension>
        </extensions>
      </trkpt>
      <trkpt lat="46.79785092361271381378173828125" lon="6.82195228524506092071533203125">
        <ele>671</ele>
        <time>2017-05-05T14:08:13.000Z</time>
        <extensions>
          <ns3:TrackPointExtension>
            <ns3:hr>153</ns3:hr>
          </ns3:TrackPointExtension>
        </extensions>
      </trkpt>
      <trkpt lat="46.7979182302951812744140625" lon="6.82181716896593570709228515625">
        <ele>671</ele>
        <time>2017-05-05T14:08:15.000Z</time>
        <extensions>
          <ns3:TrackPointExtension>
            <ns3:hr>151</ns3:hr>
          </ns3:TrackPointExtension>
        </extensions>
      </trkpt>
      <trkpt lat="46.79792166687548160552978515625" lon="6.821657828986644744873046875">
        <ele>671</ele>
        <time>2017-05-05T14:08:17.000Z</time>
        <extensions>
          <ns3:TrackPointExtension>
            <ns3:hr>151</ns3:hr>
          </ns3:TrackPointExtension>
        </extensions>
      </trkpt>
      <trkpt lat="46.79786349646747112274169921875" lon="6.8215232156217098236083984375">
        <ele>670.79998779296875</ele>
        <time>2017-05-05T14:08:19.000Z</time>
        <extensions>
          <ns3:TrackPointExtension>
            <ns3:hr>151</ns3:hr>
          </ns3:TrackPointExtension>
        </extensions>
      </trkpt>
      <trkpt lat="46.7977923341095447540283203125" lon="6.82140544988214969635009765625">
        <ele>670.79998779296875</ele>
        <time>2017-05-05T14:08:21.000Z</time>
        <extensions>
          <ns3:TrackPointExtension>
            <ns3:hr>151</ns3:hr>
          </ns3:TrackPointExtension>
        </extensions>
      </trkpt>
      <trkpt lat="46.79760416038334369659423828125" lon="6.82108324952423572540283203125">
        <ele>670.5999755859375</ele>
        <time>2017-05-05T14:08:26.000Z</time>
        <extensions>
          <ns3:TrackPointExtension>
            <ns3:hr>150</ns3:hr>
          </ns3:TrackPointExtension>
        </extensions>
      </trkpt>
      <trkpt lat="46.79753878153860569000244140625" lon="6.8209495581686496734619140625">
        <ele>670.79998779296875</ele>
        <time>2017-05-05T14:08:28.000Z</time>
        <extensions>
          <ns3:TrackPointExtension>
            <ns3:hr>147</ns3:hr>
          </ns3:TrackPointExtension>
        </extensions>
      </trkpt>
      <trkpt lat="46.79750173352658748626708984375" lon="6.82089398615062236785888671875">
        <ele>670.79998779296875</ele>
        <time>2017-05-05T14:08:29.000Z</time>
        <extensions>
          <ns3:TrackPointExtension>
            <ns3:hr>145</ns3:hr>
          </ns3:TrackPointExtension>
        </extensions>
      </trkpt>
      <trkpt lat="46.79743744432926177978515625" lon="6.8207983486354351043701171875">
        <ele>671</ele>
        <time>2017-05-05T14:08:31.000Z</time>
        <extensions>
          <ns3:TrackPointExtension>
            <ns3:hr>144</ns3:hr>
          </ns3:TrackPointExtension>
        </extensions>
      </trkpt>
      <trkpt lat="46.79721121676266193389892578125" lon="6.82037271559238433837890625">
        <ele>672</ele>
        <time>2017-05-05T14:08:39.000Z</time>
        <extensions>
          <ns3:TrackPointExtension>
            <ns3:hr>143</ns3:hr>
          </ns3:TrackPointExtension>
        </extensions>
      </trkpt>
      <trkpt lat="46.797183640301227569580078125" lon="6.82033826597034931182861328125">
        <ele>672</ele>
        <time>2017-05-05T14:08:40.000Z</time>
        <extensions>
          <ns3:TrackPointExtension>
            <ns3:hr>143</ns3:hr>
          </ns3:TrackPointExtension>
        </extensions>
      </trkpt>
      <trkpt lat="46.7971378751099109649658203125" lon="6.8202528543770313262939453125">
        <ele>672.20001220703125</ele>
        <time>2017-05-05T14:08:43.000Z</time>
        <extensions>
          <ns3:TrackPointExtension>
            <ns3:hr>143</ns3:hr>
          </ns3:TrackPointExtension>
        </extensions>
      </trkpt>
      <trkpt lat="46.79711398668587207794189453125" lon="6.81996501982212066650390625">
        <ele>672.20001220703125</ele>
        <time>2017-05-05T14:08:48.000Z</time>
        <extensions>
          <ns3:TrackPointExtension>
            <ns3:hr>142</ns3:hr>
          </ns3:TrackPointExtension>
        </extensions>
      </trkpt>
      <trkpt lat="46.797273159027099609375" lon="6.8196188472211360931396484375">
        <ele>671</ele>
        <time>2017-05-05T14:08:57.000Z</time>
        <extensions>
          <ns3:TrackPointExtension>
            <ns3:hr>142</ns3:hr>
          </ns3:TrackPointExtension>
        </extensions>
      </trkpt>
      <trkpt lat="46.79737868718802928924560546875" lon="6.8195216171443462371826171875">
        <ele>670.4000244140625</ele>
        <time>2017-05-05T14:08:59.000Z</time>
        <extensions>
          <ns3:TrackPointExtension>
            <ns3:hr>143</ns3:hr>
          </ns3:TrackPointExtension>
        </extensions>
      </trkpt>
      <trkpt lat="46.79741573520004749298095703125" lon="6.8194270692765712738037109375">
        <ele>670</ele>
        <time>2017-05-05T14:09:01.000Z</time>
        <extensions>
          <ns3:TrackPointExtension>
            <ns3:hr>144</ns3:hr>
          </ns3:TrackPointExtension>
        </extensions>
      </trkpt>
      <trkpt lat="46.7974221892654895782470703125" lon="6.8193737603724002838134765625">
        <ele>669.5999755859375</ele>
        <time>2017-05-05T14:09:02.000Z</time>
        <extensions>
          <ns3:TrackPointExtension>
            <ns3:hr>145</ns3:hr>
          </ns3:TrackPointExtension>
        </extensions>
      </trkpt>
      <trkpt lat="46.79741799831390380859375" lon="6.81931097991764545440673828125">
        <ele>668</ele>
        <time>2017-05-05T14:09:03.000Z</time>
        <extensions>
          <ns3:TrackPointExtension>
            <ns3:hr>145</ns3:hr>
          </ns3:TrackPointExtension>
        </extensions>
      </trkpt>
      <trkpt lat="46.79739746265113353729248046875" lon="6.81925431825220584869384765625">
        <ele>666.5999755859375</ele>
        <time>2017-05-05T14:09:04.000Z</time>
        <extensions>
          <ns3:TrackPointExtension>
            <ns3:hr>145</ns3:hr>
          </ns3:TrackPointExtension>
        </extensions>
      </trkpt>
      <trkpt lat="46.79739327169954776763916015625" lon="6.81919950060546398162841796875">
        <ele>665.20001220703125</ele>
        <time>2017-05-05T14:09:05.000Z</time>
        <extensions>
          <ns3:TrackPointExtension>
            <ns3:hr>145</ns3:hr>
          </ns3:TrackPointExtension>
        </extensions>
      </trkpt>
      <trkpt lat="46.79739427752792835235595703125" lon="6.819158010184764862060546875">
        <ele>663.79998779296875</ele>
        <time>2017-05-05T14:09:06.000Z</time>
        <extensions>
          <ns3:TrackPointExtension>
            <ns3:hr>144</ns3:hr>
          </ns3:TrackPointExtension>
        </extensions>
      </trkpt>
      <trkpt lat="46.79740400053560733795166015625" lon="6.8191236443817615509033203125">
        <ele>662.5999755859375</ele>
        <time>2017-05-05T14:09:07.000Z</time>
        <extensions>
          <ns3:TrackPointExtension>
            <ns3:hr>144</ns3:hr>
          </ns3:TrackPointExtension>
        </extensions>
      </trkpt>
      <trkpt lat="46.79746686480939388275146484375" lon="6.81907813064754009246826171875">
        <ele>661.20001220703125</ele>
        <time>2017-05-05T14:09:09.000Z</time>
        <extensions>
          <ns3:TrackPointExtension>
            <ns3:hr>143</ns3:hr>
          </ns3:TrackPointExtension>
        </extensions>
      </trkpt>
      <trkpt lat="46.79765336215496063232421875" lon="6.81901593692600727081298828125">
        <ele>660.4000244140625</ele>
        <time>2017-05-05T14:09:13.000Z</time>
        <extensions>
          <ns3:TrackPointExtension>
            <ns3:hr>145</ns3:hr>
          </ns3:TrackPointExtension>
        </extensions>
      </trkpt>
      <trkpt lat="46.79776509292423725128173828125" lon="6.81906790472567081451416015625">
        <ele>659.79998779296875</ele>
        <time>2017-05-05T14:09:15.000Z</time>
        <extensions>
          <ns3:TrackPointExtension>
            <ns3:hr>145</ns3:hr>
          </ns3:TrackPointExtension>
        </extensions>
      </trkpt>
      <trkpt lat="46.79785997606813907623291015625" lon="6.81917217560112476348876953125">
        <ele>658</ele>
        <time>2017-05-05T14:09:17.000Z</time>
        <extensions>
          <ns3:TrackPointExtension>
            <ns3:hr>146</ns3:hr>
          </ns3:TrackPointExtension>
        </extensions>
      </trkpt>
      <trkpt lat="46.79790121503174304962158203125" lon="6.81923286058008670806884765625">
        <ele>655.79998779296875</ele>
        <time>2017-05-05T14:09:18.000Z</time>
        <extensions>
          <ns3:TrackPointExtension>
            <ns3:hr>147</ns3:hr>
          </ns3:TrackPointExtension>
        </extensions>
      </trkpt>
      <trkpt lat="46.797952763736248016357421875" lon="6.8192942999303340911865234375">
        <ele>653.79998779296875</ele>
        <time>2017-05-05T14:09:19.000Z</time>
        <extensions>
          <ns3:TrackPointExtension>
            <ns3:hr>148</ns3:hr>
          </ns3:TrackPointExtension>
        </extensions>
      </trkpt>
      <trkpt lat="46.797991655766963958740234375" lon="6.819365881383419036865234375">
        <ele>652.20001220703125</ele>
        <time>2017-05-05T14:09:20.000Z</time>
        <extensions>
          <ns3:TrackPointExtension>
            <ns3:hr>149</ns3:hr>
          </ns3:TrackPointExtension>
        </extensions>
      </trkpt>
      <trkpt lat="46.7980860359966754913330078125" lon="6.81952689774334430694580078125">
        <ele>651</ele>
        <time>2017-05-05T14:09:22.000Z</time>
        <extensions>
          <ns3:TrackPointExtension>
            <ns3:hr>150</ns3:hr>
          </ns3:TrackPointExtension>
        </extensions>
      </trkpt>
      <trkpt lat="46.79819340817630290985107421875" lon="6.81970618665218353271484375">
        <ele>649.79998779296875</ele>
        <time>2017-05-05T14:09:24.000Z</time>
        <extensions>
          <ns3:TrackPointExtension>
            <ns3:hr>150</ns3:hr>
          </ns3:TrackPointExtension>
        </extensions>
      </trkpt>
      <trkpt lat="46.798308826982975006103515625" lon="6.81990743614733219146728515625">
        <ele>648.5999755859375</ele>
        <time>2017-05-05T14:09:26.000Z</time>
        <extensions>
          <ns3:TrackPointExtension>
            <ns3:hr>149</ns3:hr>
          </ns3:TrackPointExtension>
        </extensions>
      </trkpt>
      <trkpt lat="46.7984980903565883636474609375" lon="6.82021924294531345367431640625">
        <ele>647</ele>
        <time>2017-05-05T14:09:29.000Z</time>
        <extensions>
          <ns3:TrackPointExtension>
            <ns3:hr>147</ns3:hr>
          </ns3:TrackPointExtension>
        </extensions>
      </trkpt>
      <trkpt lat="46.7985619604587554931640625" lon="6.82033038698136806488037109375">
        <ele>646</ele>
        <time>2017-05-05T14:09:30.000Z</time>
        <extensions>
          <ns3:TrackPointExtension>
            <ns3:hr>147</ns3:hr>
          </ns3:TrackPointExtension>
        </extensions>
      </trkpt>
      <trkpt lat="46.79860982112586498260498046875" lon="6.82045309804379940032958984375">
        <ele>645</ele>
        <time>2017-05-05T14:09:31.000Z</time>
        <extensions>
          <ns3:TrackPointExtension>
            <ns3:hr>147</ns3:hr>
          </ns3:TrackPointExtension>
        </extensions>
      </trkpt>
      <trkpt lat="46.7986687459051609039306640625" lon="6.8205790780484676361083984375">
        <ele>644</ele>
        <time>2017-05-05T14:09:32.000Z</time>
        <extensions>
          <ns3:TrackPointExtension>
            <ns3:hr>147</ns3:hr>
          </ns3:TrackPointExtension>
        </extensions>
      </trkpt>
      <trkpt lat="46.798715181648731231689453125" lon="6.82071268558502197265625">
        <ele>642.5999755859375</ele>
        <time>2017-05-05T14:09:33.000Z</time>
        <extensions>
          <ns3:TrackPointExtension>
            <ns3:hr>147</ns3:hr>
          </ns3:TrackPointExtension>
        </extensions>
      </trkpt>
      <trkpt lat="46.79877360351383686065673828125" lon="6.820841096341609954833984375">
        <ele>641.20001220703125</ele>
        <time>2017-05-05T14:09:34.000Z</time>
        <extensions>
          <ns3:TrackPointExtension>
            <ns3:hr>147</ns3:hr>
          </ns3:TrackPointExtension>
        </extensions>
      </trkpt>
      <trkpt lat="46.7988373897969722747802734375" lon="6.820964813232421875">
        <ele>640</ele>
        <time>2017-05-05T14:09:35.000Z</time>
        <extensions>
          <ns3:TrackPointExtension>
            <ns3:hr>147</ns3:hr>
          </ns3:TrackPointExtension>
        </extensions>
      </trkpt>
      <trkpt lat="46.7989508807659149169921875" lon="6.8211983330547809600830078125">
        <ele>638</ele>
        <time>2017-05-05T14:09:37.000Z</time>
        <extensions>
          <ns3:TrackPointExtension>
            <ns3:hr>148</ns3:hr>
          </ns3:TrackPointExtension>
        </extensions>
      </trkpt>
      <trkpt lat="46.79905707947909832000732421875" lon="6.82140561752021312713623046875">
        <ele>636.20001220703125</ele>
        <time>2017-05-05T14:09:39.000Z</time>
        <extensions>
          <ns3:TrackPointExtension>
            <ns3:hr>150</ns3:hr>
          </ns3:TrackPointExtension>
        </extensions>
      </trkpt>
      <trkpt lat="46.79910737089812755584716796875" lon="6.8214742653071880340576171875">
        <ele>635.5999755859375</ele>
        <time>2017-05-05T14:09:40.000Z</time>
        <extensions>
          <ns3:TrackPointExtension>
            <ns3:hr>150</ns3:hr>
          </ns3:TrackPointExtension>
        </extensions>
      </trkpt>
      <trkpt lat="46.799148358404636383056640625" lon="6.8214997462928295135498046875">
        <ele>635</ele>
        <time>2017-05-05T14:09:41.000Z</time>
        <extensions>
          <ns3:TrackPointExtension>
            <ns3:hr>150</ns3:hr>
          </ns3:TrackPointExtension>
        </extensions>
      </trkpt>
      <trkpt lat="46.79918892681598663330078125" lon="6.82149597443640232086181640625">
        <ele>634.5999755859375</ele>
        <time>2017-05-05T14:09:42.000Z</time>
        <extensions>
          <ns3:TrackPointExtension>
            <ns3:hr>150</ns3:hr>
          </ns3:TrackPointExtension>
        </extensions>
      </trkpt>
      <trkpt lat="46.79926344193518161773681640625" lon="6.82142975740134716033935546875">
        <ele>634.4000244140625</ele>
        <time>2017-05-05T14:09:44.000Z</time>
        <extensions>
          <ns3:TrackPointExtension>
            <ns3:hr>150</ns3:hr>
          </ns3:TrackPointExtension>
        </extensions>
      </trkpt>
      <trkpt lat="46.79932462982833385467529296875" lon="6.8213512189686298370361328125">
        <ele>634.20001220703125</ele>
        <time>2017-05-05T14:09:46.000Z</time>
        <extensions>
          <ns3:TrackPointExtension>
            <ns3:hr>150</ns3:hr>
          </ns3:TrackPointExtension>
        </extensions>
      </trkpt>
      <trkpt lat="46.799374334514141082763671875" lon="6.8211929686367511749267578125">
        <ele>634</ele>
        <time>2017-05-05T14:09:49.000Z</time>
        <extensions>
          <ns3:TrackPointExtension>
            <ns3:hr>150</ns3:hr>
          </ns3:TrackPointExtension>
        </extensions>
      </trkpt>
      <trkpt lat="46.79940140806138515472412109375" lon="6.82115281932055950164794921875">
        <ele>633.4000244140625</ele>
        <time>2017-05-05T14:09:50.000Z</time>
        <extensions>
          <ns3:TrackPointExtension>
            <ns3:hr>150</ns3:hr>
          </ns3:TrackPointExtension>
        </extensions>
      </trkpt>
      <trkpt lat="46.799425296485424041748046875" lon="6.82111744768917560577392578125">
        <ele>632.79998779296875</ele>
        <time>2017-05-05T14:09:51.000Z</time>
        <extensions>
          <ns3:TrackPointExtension>
            <ns3:hr>150</ns3:hr>
          </ns3:TrackPointExtension>
        </extensions>
      </trkpt>
      <trkpt lat="46.799470894038677215576171875" lon="6.82107704691588878631591796875">
        <ele>632.20001220703125</ele>
        <time>2017-05-05T14:09:53.000Z</time>
        <extensions>
          <ns3:TrackPointExtension>
            <ns3:hr>149</ns3:hr>
          </ns3:TrackPointExtension>
        </extensions>
      </trkpt>
      <trkpt lat="46.79958178661763668060302734375" lon="6.82119774632155895233154296875">
        <ele>631.79998779296875</ele>
        <time>2017-05-05T14:09:56.000Z</time>
        <extensions>
          <ns3:TrackPointExtension>
            <ns3:hr>149</ns3:hr>
          </ns3:TrackPointExtension>
        </extensions>
      </trkpt>
      <trkpt lat="46.7996511049568653106689453125" lon="6.82133940048515796661376953125">
        <ele>631</ele>
        <time>2017-05-05T14:09:58.000Z</time>
        <extensions>
          <ns3:TrackPointExtension>
            <ns3:hr>149</ns3:hr>
          </ns3:TrackPointExtension>
        </extensions>
      </trkpt>
      <trkpt lat="46.79969024844467639923095703125" lon="6.82139539159834384918212890625">
        <ele>630.79998779296875</ele>
        <time>2017-05-05T14:09:59.000Z</time>
        <extensions>
          <ns3:TrackPointExtension>
            <ns3:hr>149</ns3:hr>
          </ns3:TrackPointExtension>
        </extensions>
      </trkpt>
      <trkpt lat="46.7997355945408344268798828125" lon="6.82143093086779117584228515625">
        <ele>630.4000244140625</ele>
        <time>2017-05-05T14:10:00.000Z</time>
        <extensions>
          <ns3:TrackPointExtension>
            <ns3:hr>149</ns3:hr>
          </ns3:TrackPointExtension>
        </extensions>
      </trkpt>
      <trkpt lat="46.799836345016956329345703125" lon="6.8214194476604461669921875">
        <ele>629.4000244140625</ele>
        <time>2017-05-05T14:10:02.000Z</time>
        <extensions>
          <ns3:TrackPointExtension>
            <ns3:hr>149</ns3:hr>
          </ns3:TrackPointExtension>
        </extensions>
      </trkpt>
      <trkpt lat="46.79988303221762180328369140625" lon="6.82138390839099884033203125">
        <ele>628.20001220703125</ele>
        <time>2017-05-05T14:10:03.000Z</time>
        <extensions>
          <ns3:TrackPointExtension>
            <ns3:hr>148</ns3:hr>
          </ns3:TrackPointExtension>
        </extensions>
      </trkpt>
      <trkpt lat="46.79998210631310939788818359375" lon="6.82130486704409122467041015625">
        <ele>627</ele>
        <time>2017-05-05T14:10:05.000Z</time>
        <extensions>
          <ns3:TrackPointExtension>
            <ns3:hr>148</ns3:hr>
          </ns3:TrackPointExtension>
        </extensions>
      </trkpt>
      <trkpt lat="46.80010020732879638671875" lon="6.8213347904384136199951171875">
        <ele>626.5999755859375</ele>
        <time>2017-05-05T14:10:07.000Z</time>
        <extensions>
          <ns3:TrackPointExtension>
            <ns3:hr>147</ns3:hr>
          </ns3:TrackPointExtension>
        </extensions>
      </trkpt>
      <trkpt lat="46.80019517429172992706298828125" lon="6.82142791338264942169189453125">
        <ele>626.20001220703125</ele>
        <time>2017-05-05T14:10:09.000Z</time>
        <extensions>
          <ns3:TrackPointExtension>
            <ns3:hr>147</ns3:hr>
          </ns3:TrackPointExtension>
        </extensions>
      </trkpt>
      <trkpt lat="46.80019743740558624267578125" lon="6.821550540626049041748046875">
        <ele>626</ele>
        <time>2017-05-05T14:10:11.000Z</time>
        <extensions>
          <ns3:TrackPointExtension>
            <ns3:hr>147</ns3:hr>
          </ns3:TrackPointExtension>
        </extensions>
      </trkpt>
      <trkpt lat="46.80023540742695331573486328125" lon="6.82194155640900135040283203125">
        <ele>625.5999755859375</ele>
        <time>2017-05-05T14:10:21.000Z</time>
        <extensions>
          <ns3:TrackPointExtension>
            <ns3:hr>144</ns3:hr>
          </ns3:TrackPointExtension>
        </extensions>
      </trkpt>
      <trkpt lat="46.80034152232110500335693359375" lon="6.82212595827877521514892578125">
        <ele>627.20001220703125</ele>
        <time>2017-05-05T14:10:26.000Z</time>
        <extensions>
          <ns3:TrackPointExtension>
            <ns3:hr>142</ns3:hr>
          </ns3:TrackPointExtension>
        </extensions>
      </trkpt>
      <trkpt lat="46.8004400096833705902099609375" lon="6.82234154082834720611572265625">
        <ele>628.20001220703125</ele>
        <time>2017-05-05T14:10:31.000Z</time>
        <extensions>
          <ns3:TrackPointExtension>
            <ns3:hr>142</ns3:hr>
          </ns3:TrackPointExtension>
        </extensions>
      </trkpt>
      <trkpt lat="46.8005607090890407562255859375" lon="6.82250448502600193023681640625">
        <ele>629.20001220703125</ele>
        <time>2017-05-05T14:10:35.000Z</time>
        <extensions>
          <ns3:TrackPointExtension>
            <ns3:hr>142</ns3:hr>
          </ns3:TrackPointExtension>
        </extensions>
      </trkpt>
      <trkpt lat="46.80071870796382427215576171875" lon="6.82275183498859405517578125">
        <ele>630.20001220703125</ele>
        <time>2017-05-05T14:10:41.000Z</time>
        <extensions>
          <ns3:TrackPointExtension>
            <ns3:hr>141</ns3:hr>
          </ns3:TrackPointExtension>
        </extensions>
      </trkpt>
      <trkpt lat="46.80079950951039791107177734375" lon="6.8228423595428466796875">
        <ele>630.79998779296875</ele>
        <time>2017-05-05T14:10:45.000Z</time>
        <extensions>
          <ns3:TrackPointExtension>
            <ns3:hr>141</ns3:hr>
          </ns3:TrackPointExtension>
        </extensions>
      </trkpt>
      <trkpt lat="46.800950802862644195556640625" lon="6.8228284455835819244384765625">
        <ele>630.79998779296875</ele>
        <time>2017-05-05T14:10:49.000Z</time>
        <extensions>
          <ns3:TrackPointExtension>
            <ns3:hr>142</ns3:hr>
          </ns3:TrackPointExtension>
        </extensions>
      </trkpt>
      <trkpt lat="46.80147961713373661041259765625" lon="6.82306104339659214019775390625">
        <ele>629.20001220703125</ele>
        <time>2017-05-05T14:10:58.000Z</time>
        <extensions>
          <ns3:TrackPointExtension>
            <ns3:hr>143</ns3:hr>
          </ns3:TrackPointExtension>
        </extensions>
      </trkpt>
      <trkpt lat="46.801538206636905670166015625" lon="6.8231030367314815521240234375">
        <ele>628</ele>
        <time>2017-05-05T14:10:59.000Z</time>
        <extensions>
          <ns3:TrackPointExtension>
            <ns3:hr>143</ns3:hr>
          </ns3:TrackPointExtension>
        </extensions>
      </trkpt>
      <trkpt lat="46.80165446363389492034912109375" lon="6.82321325875818729400634765625">
        <ele>627</ele>
        <time>2017-05-05T14:11:01.000Z</time>
        <extensions>
          <ns3:TrackPointExtension>
            <ns3:hr>143</ns3:hr>
          </ns3:TrackPointExtension>
        </extensions>
      </trkpt>
      <trkpt lat="46.80175806395709514617919921875" lon="6.82334518991410732269287109375">
        <ele>626</ele>
        <time>2017-05-05T14:11:03.000Z</time>
        <extensions>
          <ns3:TrackPointExtension>
            <ns3:hr>144</ns3:hr>
          </ns3:TrackPointExtension>
        </extensions>
      </trkpt>
      <trkpt lat="46.8018562160432338714599609375" lon="6.8234822340309619903564453125">
        <ele>625.4000244140625</ele>
        <time>2017-05-05T14:11:05.000Z</time>
        <extensions>
          <ns3:TrackPointExtension>
            <ns3:hr>145</ns3:hr>
          </ns3:TrackPointExtension>
        </extensions>
      </trkpt>
      <trkpt lat="46.80196492932736873626708984375" lon="6.823574937880039215087890625">
        <ele>624.79998779296875</ele>
        <time>2017-05-05T14:11:07.000Z</time>
        <extensions>
          <ns3:TrackPointExtension>
            <ns3:hr>146</ns3:hr>
          </ns3:TrackPointExtension>
        </extensions>
      </trkpt>
      <trkpt lat="46.802086718380451202392578125" lon="6.82362397201359272003173828125">
        <ele>624.20001220703125</ele>
        <time>2017-05-05T14:11:09.000Z</time>
        <extensions>
          <ns3:TrackPointExtension>
            <ns3:hr>146</ns3:hr>
          </ns3:TrackPointExtension>
        </extensions>
      </trkpt>
      <trkpt lat="46.802200041711330413818359375" lon="6.823644675314426422119140625">
        <ele>623.5999755859375</ele>
        <time>2017-05-05T14:11:11.000Z</time>
        <extensions>
          <ns3:TrackPointExtension>
            <ns3:hr>147</ns3:hr>
          </ns3:TrackPointExtension>
        </extensions>
      </trkpt>
      <trkpt lat="46.80236198008060455322265625" lon="6.82365565560758113861083984375">
        <ele>622.5999755859375</ele>
        <time>2017-05-05T14:11:14.000Z</time>
        <extensions>
          <ns3:TrackPointExtension>
            <ns3:hr>147</ns3:hr>
          </ns3:TrackPointExtension>
        </extensions>
      </trkpt>
      <trkpt lat="46.80254043079912662506103515625" lon="6.82368046604096889495849609375">
        <ele>621.4000244140625</ele>
        <time>2017-05-05T14:11:17.000Z</time>
        <extensions>
          <ns3:TrackPointExtension>
            <ns3:hr>147</ns3:hr>
          </ns3:TrackPointExtension>
        </extensions>
      </trkpt>
      <trkpt lat="46.8027524091303348541259765625" lon="6.82370209135115146636962890625">
        <ele>620.4000244140625</ele>
        <time>2017-05-05T14:11:20.000Z</time>
        <extensions>
          <ns3:TrackPointExtension>
            <ns3:hr>147</ns3:hr>
          </ns3:TrackPointExtension>
        </extensions>
      </trkpt>
      <trkpt lat="46.8028213083744049072265625" lon="6.82372136972844600677490234375">
        <ele>620.20001220703125</ele>
        <time>2017-05-05T14:11:21.000Z</time>
        <extensions>
          <ns3:TrackPointExtension>
            <ns3:hr>147</ns3:hr>
          </ns3:TrackPointExtension>
        </extensions>
      </trkpt>
      <trkpt lat="46.80296857841312885284423828125" lon="6.823772750794887542724609375">
        <ele>618.20001220703125</ele>
        <time>2017-05-05T14:11:23.000Z</time>
        <extensions>
          <ns3:TrackPointExtension>
            <ns3:hr>147</ns3:hr>
          </ns3:TrackPointExtension>
        </extensions>
      </trkpt>
      <trkpt lat="46.8031238950788974761962890625" lon="6.82383905164897441864013671875">
        <ele>616.4000244140625</ele>
        <time>2017-05-05T14:11:25.000Z</time>
        <extensions>
          <ns3:TrackPointExtension>
            <ns3:hr>148</ns3:hr>
          </ns3:TrackPointExtension>
        </extensions>
      </trkpt>
      <trkpt lat="46.8032771162688732147216796875" lon="6.82390962727367877960205078125">
        <ele>615</ele>
        <time>2017-05-05T14:11:27.000Z</time>
        <extensions>
          <ns3:TrackPointExtension>
            <ns3:hr>148</ns3:hr>
          </ns3:TrackPointExtension>
        </extensions>
      </trkpt>
      <trkpt lat="46.80341382510960102081298828125" lon="6.8239861540496349334716796875">
        <ele>613.5999755859375</ele>
        <time>2017-05-05T14:11:29.000Z</time>
        <extensions>
          <ns3:TrackPointExtension>
            <ns3:hr>148</ns3:hr>
          </ns3:TrackPointExtension>
        </extensions>
      </trkpt>
      <trkpt lat="46.80356436409056186676025390625" lon="6.82406033389270305633544921875">
        <ele>611.4000244140625</ele>
        <time>2017-05-05T14:11:31.000Z</time>
        <extensions>
          <ns3:TrackPointExtension>
            <ns3:hr>148</ns3:hr>
          </ns3:TrackPointExtension>
        </extensions>
      </trkpt>
      <trkpt lat="46.803689338266849517822265625" lon="6.82413023896515369415283203125">
        <ele>610</ele>
        <time>2017-05-05T14:11:33.000Z</time>
        <extensions>
          <ns3:TrackPointExtension>
            <ns3:hr>148</ns3:hr>
          </ns3:TrackPointExtension>
        </extensions>
      </trkpt>
      <trkpt lat="46.80384599603712558746337890625" lon="6.8241933546960353851318359375">
        <ele>608.5999755859375</ele>
        <time>2017-05-05T14:11:36.000Z</time>
        <extensions>
          <ns3:TrackPointExtension>
            <ns3:hr>148</ns3:hr>
          </ns3:TrackPointExtension>
        </extensions>
      </trkpt>
      <trkpt lat="46.803975664079189300537109375" lon="6.82425680570304393768310546875">
        <ele>607.79998779296875</ele>
        <time>2017-05-05T14:11:38.000Z</time>
        <extensions>
          <ns3:TrackPointExtension>
            <ns3:hr>147</ns3:hr>
          </ns3:TrackPointExtension>
        </extensions>
      </trkpt>
      <trkpt lat="46.8040314875543117523193359375" lon="6.8242920935153961181640625">
        <ele>607.5999755859375</ele>
        <time>2017-05-05T14:11:39.000Z</time>
        <extensions>
          <ns3:TrackPointExtension>
            <ns3:hr>147</ns3:hr>
          </ns3:TrackPointExtension>
        </extensions>
      </trkpt>
      <trkpt lat="46.80413751862943172454833984375" lon="6.8243618309497833251953125">
        <ele>607.4000244140625</ele>
        <time>2017-05-05T14:11:41.000Z</time>
        <extensions>
          <ns3:TrackPointExtension>
            <ns3:hr>147</ns3:hr>
          </ns3:TrackPointExtension>
        </extensions>
      </trkpt>
      <trkpt lat="46.80425201542675495147705078125" lon="6.8243210949003696441650390625">
        <ele>607</ele>
        <time>2017-05-05T14:11:43.000Z</time>
        <extensions>
          <ns3:TrackPointExtension>
            <ns3:hr>147</ns3:hr>
          </ns3:TrackPointExtension>
        </extensions>
      </trkpt>
      <trkpt lat="46.80444379337131977081298828125" lon="6.82406251318752765655517578125">
        <ele>606.4000244140625</ele>
        <time>2017-05-05T14:11:46.000Z</time>
        <extensions>
          <ns3:TrackPointExtension>
            <ns3:hr>146</ns3:hr>
          </ns3:TrackPointExtension>
        </extensions>
      </trkpt>
      <trkpt lat="46.80460690520703792572021484375" lon="6.82394080795347690582275390625">
        <ele>606.20001220703125</ele>
        <time>2017-05-05T14:11:48.000Z</time>
        <extensions>
          <ns3:TrackPointExtension>
            <ns3:hr>146</ns3:hr>
          </ns3:TrackPointExtension>
        </extensions>
      </trkpt>
      <trkpt lat="46.80495324544608592987060546875" lon="6.82379093952476978302001953125">
        <ele>604</ele>
        <time>2017-05-05T14:11:52.000Z</time>
        <extensions>
          <ns3:TrackPointExtension>
            <ns3:hr>148</ns3:hr>
          </ns3:TrackPointExtension>
        </extensions>
      </trkpt>
      <trkpt lat="46.8050406686961650848388671875" lon="6.8237517960369586944580078125">
        <ele>601.79998779296875</ele>
        <time>2017-05-05T14:11:53.000Z</time>
        <extensions>
          <ns3:TrackPointExtension>
            <ns3:hr>148</ns3:hr>
          </ns3:TrackPointExtension>
        </extensions>
      </trkpt>
      <trkpt lat="46.80513110943138599395751953125" lon="6.82370946742594242095947265625">
        <ele>600.4000244140625</ele>
        <time>2017-05-05T14:11:54.000Z</time>
        <extensions>
          <ns3:TrackPointExtension>
            <ns3:hr>148</ns3:hr>
          </ns3:TrackPointExtension>
        </extensions>
      </trkpt>
      <trkpt lat="46.80522934533655643463134765625" lon="6.82365976274013519287109375">
        <ele>599.4000244140625</ele>
        <time>2017-05-05T14:11:55.000Z</time>
        <extensions>
          <ns3:TrackPointExtension>
            <ns3:hr>147</ns3:hr>
          </ns3:TrackPointExtension>
        </extensions>
      </trkpt>
      <trkpt lat="46.805566884577274322509765625" lon="6.82349204085767269134521484375">
        <ele>598.20001220703125</ele>
        <time>2017-05-05T14:11:58.000Z</time>
        <extensions>
          <ns3:TrackPointExtension>
            <ns3:hr>145</ns3:hr>
          </ns3:TrackPointExtension>
        </extensions>
      </trkpt>
      <trkpt lat="46.8059291504323482513427734375" lon="6.82328785769641399383544921875">
        <ele>597.20001220703125</ele>
        <time>2017-05-05T14:12:01.000Z</time>
        <extensions>
          <ns3:TrackPointExtension>
            <ns3:hr>144</ns3:hr>
          </ns3:TrackPointExtension>
        </extensions>
      </trkpt>
      <trkpt lat="46.80614699609577655792236328125" lon="6.82307906448841094970703125">
        <ele>594.79998779296875</ele>
        <time>2017-05-05T14:12:03.000Z</time>
        <extensions>
          <ns3:TrackPointExtension>
            <ns3:hr>144</ns3:hr>
          </ns3:TrackPointExtension>
        </extensions>
      </trkpt>
      <trkpt lat="46.80625252425670623779296875" lon="6.82296062819659709930419921875">
        <ele>593.4000244140625</ele>
        <time>2017-05-05T14:12:04.000Z</time>
        <extensions>
          <ns3:TrackPointExtension>
            <ns3:hr>144</ns3:hr>
          </ns3:TrackPointExtension>
        </extensions>
      </trkpt>
      <trkpt lat="46.8063599802553653717041015625" lon="6.82284168899059295654296875">
        <ele>590.79998779296875</ele>
        <time>2017-05-05T14:12:05.000Z</time>
        <extensions>
          <ns3:TrackPointExtension>
            <ns3:hr>144</ns3:hr>
          </ns3:TrackPointExtension>
        </extensions>
      </trkpt>
      <trkpt lat="46.80646684952080249786376953125" lon="6.82272593490779399871826171875">
        <ele>588.20001220703125</ele>
        <time>2017-05-05T14:12:06.000Z</time>
        <extensions>
          <ns3:TrackPointExtension>
            <ns3:hr>145</ns3:hr>
          </ns3:TrackPointExtension>
        </extensions>
      </trkpt>
      <trkpt lat="46.80657246150076389312744140625" lon="6.82260925881564617156982421875">
        <ele>585.79998779296875</ele>
        <time>2017-05-05T14:12:07.000Z</time>
        <extensions>
          <ns3:TrackPointExtension>
            <ns3:hr>145</ns3:hr>
          </ns3:TrackPointExtension>
        </extensions>
      </trkpt>
      <trkpt lat="46.80667706765234470367431640625" lon="6.8224981985986232757568359375">
        <ele>584.4000244140625</ele>
        <time>2017-05-05T14:12:08.000Z</time>
        <extensions>
          <ns3:TrackPointExtension>
            <ns3:hr>145</ns3:hr>
          </ns3:TrackPointExtension>
        </extensions>
      </trkpt>
      <trkpt lat="46.80677890777587890625" lon="6.82239015586674213409423828125">
        <ele>582.5999755859375</ele>
        <time>2017-05-05T14:12:09.000Z</time>
        <extensions>
          <ns3:TrackPointExtension>
            <ns3:hr>145</ns3:hr>
          </ns3:TrackPointExtension>
        </extensions>
      </trkpt>
      <trkpt lat="46.80687471292912960052490234375" lon="6.82229309342801570892333984375">
        <ele>581</ele>
        <time>2017-05-05T14:12:10.000Z</time>
        <extensions>
          <ns3:TrackPointExtension>
            <ns3:hr>145</ns3:hr>
          </ns3:TrackPointExtension>
        </extensions>
      </trkpt>
      <trkpt lat="46.80695584975183010101318359375" lon="6.82220692746341228485107421875">
        <ele>579.4000244140625</ele>
        <time>2017-05-05T14:12:11.000Z</time>
        <extensions>
          <ns3:TrackPointExtension>
            <ns3:hr>145</ns3:hr>
          </ns3:TrackPointExtension>
        </extensions>
      </trkpt>
      <trkpt lat="46.8070296943187713623046875" lon="6.8221334181725978851318359375">
        <ele>578.20001220703125</ele>
        <time>2017-05-05T14:12:12.000Z</time>
        <extensions>
          <ns3:TrackPointExtension>
            <ns3:hr>145</ns3:hr>
          </ns3:TrackPointExtension>
        </extensions>
      </trkpt>
      <trkpt lat="46.8071079812943935394287109375" lon="6.82208991609513759613037109375">
        <ele>576.79998779296875</ele>
        <time>2017-05-05T14:12:13.000Z</time>
        <extensions>
          <ns3:TrackPointExtension>
            <ns3:hr>145</ns3:hr>
          </ns3:TrackPointExtension>
        </extensions>
      </trkpt>
      <trkpt lat="46.807183586061000823974609375" lon="6.8220767565071582794189453125">
        <ele>575</ele>
        <time>2017-05-05T14:12:14.000Z</time>
        <extensions>
          <ns3:TrackPointExtension>
            <ns3:hr>145</ns3:hr>
          </ns3:TrackPointExtension>
        </extensions>
      </trkpt>
      <trkpt lat="46.80726581253111362457275390625" lon="6.822072565555572509765625">
        <ele>573.4000244140625</ele>
        <time>2017-05-05T14:12:15.000Z</time>
        <extensions>
          <ns3:TrackPointExtension>
            <ns3:hr>145</ns3:hr>
          </ns3:TrackPointExtension>
        </extensions>
      </trkpt>
      <trkpt lat="46.80745457299053668975830078125" lon="6.82208396494388580322265625">
        <ele>572</ele>
        <time>2017-05-05T14:12:17.000Z</time>
        <extensions>
          <ns3:TrackPointExtension>
            <ns3:hr>144</ns3:hr>
          </ns3:TrackPointExtension>
        </extensions>
      </trkpt>
      <trkpt lat="46.80788406170904636383056640625" lon="6.82208723388612270355224609375">
        <ele>571</ele>
        <time>2017-05-05T14:12:21.000Z</time>
        <extensions>
          <ns3:TrackPointExtension>
            <ns3:hr>144</ns3:hr>
          </ns3:TrackPointExtension>
        </extensions>
      </trkpt>
      <trkpt lat="46.8081939406692981719970703125" lon="6.8219612538814544677734375">
        <ele>569.5999755859375</ele>
        <time>2017-05-05T14:12:24.000Z</time>
        <extensions>
          <ns3:TrackPointExtension>
            <ns3:hr>145</ns3:hr>
          </ns3:TrackPointExtension>
        </extensions>
      </trkpt>
      <trkpt lat="46.80828136391937732696533203125" lon="6.82189998216927051544189453125">
        <ele>568.20001220703125</ele>
        <time>2017-05-05T14:12:25.000Z</time>
        <extensions>
          <ns3:TrackPointExtension>
            <ns3:hr>145</ns3:hr>
          </ns3:TrackPointExtension>
        </extensions>
      </trkpt>
      <trkpt lat="46.8084353394806385040283203125" lon="6.82181431911885738372802734375">
        <ele>566</ele>
        <time>2017-05-05T14:12:27.000Z</time>
        <extensions>
          <ns3:TrackPointExtension>
            <ns3:hr>146</ns3:hr>
          </ns3:TrackPointExtension>
        </extensions>
      </trkpt>
      <trkpt lat="46.80858680047094821929931640625" lon="6.82181281037628650665283203125">
        <ele>564.4000244140625</ele>
        <time>2017-05-05T14:12:29.000Z</time>
        <extensions>
          <ns3:TrackPointExtension>
            <ns3:hr>145</ns3:hr>
          </ns3:TrackPointExtension>
        </extensions>
      </trkpt>
      <trkpt lat="46.808712445199489593505859375" lon="6.821833513677120208740234375">
        <ele>563.4000244140625</ele>
        <time>2017-05-05T14:12:31.000Z</time>
        <extensions>
          <ns3:TrackPointExtension>
            <ns3:hr>145</ns3:hr>
          </ns3:TrackPointExtension>
        </extensions>
      </trkpt>
      <trkpt lat="46.80876784957945346832275390625" lon="6.82185874320566654205322265625">
        <ele>563.4000244140625</ele>
        <time>2017-05-05T14:12:32.000Z</time>
        <extensions>
          <ns3:TrackPointExtension>
            <ns3:hr>144</ns3:hr>
          </ns3:TrackPointExtension>
        </extensions>
      </trkpt>
      <trkpt lat="46.80880489759147167205810546875" lon="6.82190358638763427734375">
        <ele>563.20001220703125</ele>
        <time>2017-05-05T14:12:33.000Z</time>
        <extensions>
          <ns3:TrackPointExtension>
            <ns3:hr>145</ns3:hr>
          </ns3:TrackPointExtension>
        </extensions>
      </trkpt>
      <trkpt lat="46.80909273214638233184814453125" lon="6.822316646575927734375">
        <ele>564.5999755859375</ele>
        <time>2017-05-05T14:12:44.000Z</time>
        <extensions>
          <ns3:TrackPointExtension>
            <ns3:hr>145</ns3:hr>
          </ns3:TrackPointExtension>
        </extensions>
      </trkpt>
      <trkpt lat="46.809134893119335174560546875" lon="6.822442375123500823974609375">
        <ele>565.79998779296875</ele>
        <time>2017-05-05T14:12:48.000Z</time>
        <extensions>
          <ns3:TrackPointExtension>
            <ns3:hr>144</ns3:hr>
          </ns3:TrackPointExtension>
        </extensions>
      </trkpt>
      <trkpt lat="46.80918862111866474151611328125" lon="6.8225508369505405426025390625">
        <ele>567</ele>
        <time>2017-05-05T14:12:52.000Z</time>
        <extensions>
          <ns3:TrackPointExtension>
            <ns3:hr>145</ns3:hr>
          </ns3:TrackPointExtension>
        </extensions>
      </trkpt>
      <trkpt lat="46.80923287756741046905517578125" lon="6.82264278642833232879638671875">
        <ele>568.20001220703125</ele>
        <time>2017-05-05T14:12:56.000Z</time>
        <extensions>
          <ns3:TrackPointExtension>
            <ns3:hr>144</ns3:hr>
          </ns3:TrackPointExtension>
        </extensions>
      </trkpt>
      <trkpt lat="46.8092634715139865875244140625" lon="6.82271922938525676727294921875">
        <ele>569.20001220703125</ele>
        <time>2017-05-05T14:12:59.000Z</time>
        <extensions>
          <ns3:TrackPointExtension>
            <ns3:hr>143</ns3:hr>
          </ns3:TrackPointExtension>
        </extensions>
      </trkpt>
      <trkpt lat="46.809286437928676605224609375" lon="6.82279600761830806732177734375">
        <ele>570.4000244140625</ele>
        <time>2017-05-05T14:13:02.000Z</time>
        <extensions>
          <ns3:TrackPointExtension>
            <ns3:hr>142</ns3:hr>
          </ns3:TrackPointExtension>
        </extensions>
      </trkpt>
      <trkpt lat="46.80934972129762172698974609375" lon="6.82290949858725070953369140625">
        <ele>571.79998779296875</ele>
        <time>2017-05-05T14:13:07.000Z</time>
        <extensions>
          <ns3:TrackPointExtension>
            <ns3:hr>143</ns3:hr>
          </ns3:TrackPointExtension>
        </extensions>
      </trkpt>
      <trkpt lat="46.80947159416973590850830078125" lon="6.8230309523642063140869140625">
        <ele>573</ele>
        <time>2017-05-05T14:13:12.000Z</time>
        <extensions>
          <ns3:TrackPointExtension>
            <ns3:hr>144</ns3:hr>
          </ns3:TrackPointExtension>
        </extensions>
      </trkpt>
      <trkpt lat="46.8095192871987819671630859375" lon="6.82310664094984531402587890625">
        <ele>574.4000244140625</ele>
        <time>2017-05-05T14:13:16.000Z</time>
        <extensions>
          <ns3:TrackPointExtension>
            <ns3:hr>146</ns3:hr>
          </ns3:TrackPointExtension>
        </extensions>
      </trkpt>
      <trkpt lat="46.8095467798411846160888671875" lon="6.8231660686433315277099609375">
        <ele>575.5999755859375</ele>
        <time>2017-05-05T14:13:21.000Z</time>
        <extensions>
          <ns3:TrackPointExtension>
            <ns3:hr>147</ns3:hr>
          </ns3:TrackPointExtension>
        </extensions>
      </trkpt>
      <trkpt lat="46.8095836602151393890380859375" lon="6.8231945671141147613525390625">
        <ele>576.79998779296875</ele>
        <time>2017-05-05T14:13:25.000Z</time>
        <extensions>
          <ns3:TrackPointExtension>
            <ns3:hr>149</ns3:hr>
          </ns3:TrackPointExtension>
        </extensions>
      </trkpt>
      <trkpt lat="46.80960796773433685302734375" lon="6.8232535757124423980712890625">
        <ele>577.79998779296875</ele>
        <time>2017-05-05T14:13:28.000Z</time>
        <extensions>
          <ns3:TrackPointExtension>
            <ns3:hr>150</ns3:hr>
          </ns3:TrackPointExtension>
        </extensions>
      </trkpt>
      <trkpt lat="46.80968449451029300689697265625" lon="6.82335474528372287750244140625">
        <ele>579</ele>
        <time>2017-05-05T14:13:34.000Z</time>
        <extensions>
          <ns3:TrackPointExtension>
            <ns3:hr>151</ns3:hr>
          </ns3:TrackPointExtension>
        </extensions>
      </trkpt>
      <trkpt lat="46.80971349589526653289794921875" lon="6.8234922923147678375244140625">
        <ele>580</ele>
        <time>2017-05-05T14:13:38.000Z</time>
        <extensions>
          <ns3:TrackPointExtension>
            <ns3:hr>153</ns3:hr>
          </ns3:TrackPointExtension>
        </extensions>
      </trkpt>
      <trkpt lat="46.8097714148461818695068359375" lon="6.82358206249773502349853515625">
        <ele>581</ele>
        <time>2017-05-05T14:13:42.000Z</time>
        <extensions>
          <ns3:TrackPointExtension>
            <ns3:hr>154</ns3:hr>
          </ns3:TrackPointExtension>
        </extensions>
      </trkpt>
      <trkpt lat="46.80995221249759197235107421875" lon="6.8236569128930568695068359375">
        <ele>581.4000244140625</ele>
        <time>2017-05-05T14:13:47.000Z</time>
        <extensions>
          <ns3:TrackPointExtension>
            <ns3:hr>151</ns3:hr>
          </ns3:TrackPointExtension>
        </extensions>
      </trkpt>
      <trkpt lat="46.81022294797003269195556640625" lon="6.82373025454580783843994140625">
        <ele>581.4000244140625</ele>
        <time>2017-05-05T14:13:51.000Z</time>
        <extensions>
          <ns3:TrackPointExtension>
            <ns3:hr>148</ns3:hr>
          </ns3:TrackPointExtension>
        </extensions>
      </trkpt>
      <trkpt lat="46.81059041060507297515869140625" lon="6.82389521040022373199462890625">
        <ele>580</ele>
        <time>2017-05-05T14:13:56.000Z</time>
        <extensions>
          <ns3:TrackPointExtension>
            <ns3:hr>148</ns3:hr>
          </ns3:TrackPointExtension>
        </extensions>
      </trkpt>
      <trkpt lat="46.8106344155967235565185546875" lon="6.82396846823394298553466796875">
        <ele>579.20001220703125</ele>
        <time>2017-05-05T14:13:57.000Z</time>
        <extensions>
          <ns3:TrackPointExtension>
            <ns3:hr>148</ns3:hr>
          </ns3:TrackPointExtension>
        </extensions>
      </trkpt>
      <trkpt lat="46.81064757518470287322998046875" lon="6.82405765168368816375732421875">
        <ele>578.4000244140625</ele>
        <time>2017-05-05T14:13:58.000Z</time>
        <extensions>
          <ns3:TrackPointExtension>
            <ns3:hr>147</ns3:hr>
          </ns3:TrackPointExtension>
        </extensions>
      </trkpt>
      <trkpt lat="46.81063885800540447235107421875" lon="6.82414616458117961883544921875">
        <ele>577.5999755859375</ele>
        <time>2017-05-05T14:13:59.000Z</time>
        <extensions>
          <ns3:TrackPointExtension>
            <ns3:hr>147</ns3:hr>
          </ns3:TrackPointExtension>
        </extensions>
      </trkpt>
      <trkpt lat="46.81061647832393646240234375" lon="6.82422361336648464202880859375">
        <ele>577.20001220703125</ele>
        <time>2017-05-05T14:14:00.000Z</time>
        <extensions>
          <ns3:TrackPointExtension>
            <ns3:hr>147</ns3:hr>
          </ns3:TrackPointExtension>
        </extensions>
      </trkpt>
      <trkpt lat="46.81051095016300678253173828125" lon="6.82452335022389888763427734375">
        <ele>576.5999755859375</ele>
        <time>2017-05-05T14:14:05.000Z</time>
        <extensions>
          <ns3:TrackPointExtension>
            <ns3:hr>146</ns3:hr>
          </ns3:TrackPointExtension>
        </extensions>
      </trkpt>
      <trkpt lat="46.81041137315332889556884765625" lon="6.8248568661510944366455078125">
        <ele>577.79998779296875</ele>
        <time>2017-05-05T14:14:12.000Z</time>
        <extensions>
          <ns3:TrackPointExtension>
            <ns3:hr>144</ns3:hr>
          </ns3:TrackPointExtension>
        </extensions>
      </trkpt>
      <trkpt lat="46.81036032736301422119140625" lon="6.82511662133038043975830078125">
        <ele>579</ele>
        <time>2017-05-05T14:14:17.000Z</time>
        <extensions>
          <ns3:TrackPointExtension>
            <ns3:hr>142</ns3:hr>
          </ns3:TrackPointExtension>
        </extensions>
      </trkpt>
      <trkpt lat="46.81039226241409778594970703125" lon="6.82517780922353267669677734375">
        <ele>579.20001220703125</ele>
        <time>2017-05-05T14:14:18.000Z</time>
        <extensions>
          <ns3:TrackPointExtension>
            <ns3:hr>142</ns3:hr>
          </ns3:TrackPointExtension>
        </extensions>
      </trkpt>
      <trkpt lat="46.81047457270324230194091796875" lon="6.82528040371835231781005859375">
        <ele>579.5999755859375</ele>
        <time>2017-05-05T14:14:20.000Z</time>
        <extensions>
          <ns3:TrackPointExtension>
            <ns3:hr>143</ns3:hr>
          </ns3:TrackPointExtension>
        </extensions>
      </trkpt>
      <trkpt lat="46.8105589784681797027587890625" lon="6.8253741972148418426513671875">
        <ele>580</ele>
        <time>2017-05-05T14:14:22.000Z</time>
        <extensions>
          <ns3:TrackPointExtension>
            <ns3:hr>144</ns3:hr>
          </ns3:TrackPointExtension>
        </extensions>
      </trkpt>
      <trkpt lat="46.81085008196532726287841796875" lon="6.82572179473936557769775390625">
        <ele>580.4000244140625</ele>
        <time>2017-05-05T14:14:29.000Z</time>
        <extensions>
          <ns3:TrackPointExtension>
            <ns3:hr>141</ns3:hr>
          </ns3:TrackPointExtension>
        </extensions>
      </trkpt>
      <trkpt lat="46.81113506667315959930419921875" lon="6.8260672129690647125244140625">
        <ele>580</ele>
        <time>2017-05-05T14:14:36.000Z</time>
        <extensions>
          <ns3:TrackPointExtension>
            <ns3:hr>144</ns3:hr>
          </ns3:TrackPointExtension>
        </extensions>
      </trkpt>
      <trkpt lat="46.81157176382839679718017578125" lon="6.82657892815768718719482421875">
        <ele>580.4000244140625</ele>
        <time>2017-05-05T14:14:47.000Z</time>
        <extensions>
          <ns3:TrackPointExtension>
            <ns3:hr>144</ns3:hr>
          </ns3:TrackPointExtension>
        </extensions>
      </trkpt>
      <trkpt lat="46.81168458424508571624755859375" lon="6.82671102695167064666748046875">
        <ele>581</ele>
        <time>2017-05-05T14:14:50.000Z</time>
        <extensions>
          <ns3:TrackPointExtension>
            <ns3:hr>145</ns3:hr>
          </ns3:TrackPointExtension>
        </extensions>
      </trkpt>
      <trkpt lat="46.8120744265615940093994140625" lon="6.82716297917068004608154296875">
        <ele>582.20001220703125</ele>
        <time>2017-05-05T14:15:01.000Z</time>
        <extensions>
          <ns3:TrackPointExtension>
            <ns3:hr>146</ns3:hr>
          </ns3:TrackPointExtension>
        </extensions>
      </trkpt>
      <trkpt lat="46.81223141960799694061279296875" lon="6.82732005603611469268798828125">
        <ele>582.4000244140625</ele>
        <time>2017-05-05T14:15:05.000Z</time>
        <extensions>
          <ns3:TrackPointExtension>
            <ns3:hr>149</ns3:hr>
          </ns3:TrackPointExtension>
        </extensions>
      </trkpt>
      <trkpt lat="46.812592260539531707763671875" lon="6.82768500410020351409912109375">
        <ele>582.20001220703125</ele>
        <time>2017-05-05T14:15:12.000Z</time>
        <extensions>
          <ns3:TrackPointExtension>
            <ns3:hr>146</ns3:hr>
          </ns3:TrackPointExtension>
        </extensions>
      </trkpt>
      <trkpt lat="46.81298411451280117034912109375" lon="6.8280446715652942657470703125">
        <ele>581</ele>
        <time>2017-05-05T14:15:17.000Z</time>
        <extensions>
          <ns3:TrackPointExtension>
            <ns3:hr>146</ns3:hr>
          </ns3:TrackPointExtension>
        </extensions>
      </trkpt>
      <trkpt lat="46.81306592188775539398193359375" lon="6.828100495040416717529296875">
        <ele>579.79998779296875</ele>
        <time>2017-05-05T14:15:18.000Z</time>
        <extensions>
          <ns3:TrackPointExtension>
            <ns3:hr>146</ns3:hr>
          </ns3:TrackPointExtension>
        </extensions>
      </trkpt>
      <trkpt lat="46.81314605288207530975341796875" lon="6.828152127563953399658203125">
        <ele>578.4000244140625</ele>
        <time>2017-05-05T14:15:19.000Z</time>
        <extensions>
          <ns3:TrackPointExtension>
            <ns3:hr>146</ns3:hr>
          </ns3:TrackPointExtension>
        </extensions>
      </trkpt>
      <trkpt lat="46.81322417221963405609130859375" lon="6.8282049335539340972900390625">
        <ele>577.20001220703125</ele>
        <time>2017-05-05T14:15:20.000Z</time>
        <extensions>
          <ns3:TrackPointExtension>
            <ns3:hr>146</ns3:hr>
          </ns3:TrackPointExtension>
        </extensions>
      </trkpt>
      <trkpt lat="46.813300363719463348388671875" lon="6.82825706899166107177734375">
        <ele>576</ele>
        <time>2017-05-05T14:15:21.000Z</time>
        <extensions>
          <ns3:TrackPointExtension>
            <ns3:hr>146</ns3:hr>
          </ns3:TrackPointExtension>
        </extensions>
      </trkpt>
      <trkpt lat="46.81337052024900913238525390625" lon="6.8283140659332275390625">
        <ele>574.20001220703125</ele>
        <time>2017-05-05T14:15:22.000Z</time>
        <extensions>
          <ns3:TrackPointExtension>
            <ns3:hr>145</ns3:hr>
          </ns3:TrackPointExtension>
        </extensions>
      </trkpt>
      <trkpt lat="46.8134329654276371002197265625" lon="6.8283725716173648834228515625">
        <ele>572.5999755859375</ele>
        <time>2017-05-05T14:15:23.000Z</time>
        <extensions>
          <ns3:TrackPointExtension>
            <ns3:hr>145</ns3:hr>
          </ns3:TrackPointExtension>
        </extensions>
      </trkpt>
      <trkpt lat="46.8134886212646961212158203125" lon="6.82843149639666080474853515625">
        <ele>570.5999755859375</ele>
        <time>2017-05-05T14:15:24.000Z</time>
        <extensions>
          <ns3:TrackPointExtension>
            <ns3:hr>145</ns3:hr>
          </ns3:TrackPointExtension>
        </extensions>
      </trkpt>
      <trkpt lat="46.81359549053013324737548828125" lon="6.82853962294757366180419921875">
        <ele>569.20001220703125</ele>
        <time>2017-05-05T14:15:26.000Z</time>
        <extensions>
          <ns3:TrackPointExtension>
            <ns3:hr>145</ns3:hr>
          </ns3:TrackPointExtension>
        </extensions>
      </trkpt>
      <trkpt lat="46.81405766867101192474365234375" lon="6.82898051105439662933349609375">
        <ele>569.5999755859375</ele>
        <time>2017-05-05T14:15:40.000Z</time>
        <extensions>
          <ns3:TrackPointExtension>
            <ns3:hr>146</ns3:hr>
          </ns3:TrackPointExtension>
        </extensions>
      </trkpt>
      <trkpt lat="46.814396046102046966552734375" lon="6.82935266755521297454833984375">
        <ele>569.5999755859375</ele>
        <time>2017-05-05T14:15:50.000Z</time>
        <extensions>
          <ns3:TrackPointExtension>
            <ns3:hr>146</ns3:hr>
          </ns3:TrackPointExtension>
        </extensions>
      </trkpt>
      <trkpt lat="46.8146208487451076507568359375" lon="6.82961585931479930877685546875">
        <ele>569</ele>
        <time>2017-05-05T14:15:57.000Z</time>
        <extensions>
          <ns3:TrackPointExtension>
            <ns3:hr>146</ns3:hr>
          </ns3:TrackPointExtension>
        </extensions>
      </trkpt>
      <trkpt lat="46.8148092739284038543701171875" lon="6.829821802675724029541015625">
        <ele>568.5999755859375</ele>
        <time>2017-05-05T14:16:03.000Z</time>
        <extensions>
          <ns3:TrackPointExtension>
            <ns3:hr>148</ns3:hr>
          </ns3:TrackPointExtension>
        </extensions>
      </trkpt>
      <trkpt lat="46.8148994632065296173095703125" lon="6.8298440985381603240966796875">
        <ele>568.5999755859375</ele>
        <time>2017-05-05T14:16:05.000Z</time>
        <extensions>
          <ns3:TrackPointExtension>
            <ns3:hr>147</ns3:hr>
          </ns3:TrackPointExtension>
        </extensions>
      </trkpt>
      <trkpt lat="46.814986132085323333740234375" lon="6.829786598682403564453125">
        <ele>568.20001220703125</ele>
        <time>2017-05-05T14:16:07.000Z</time>
        <extensions>
          <ns3:TrackPointExtension>
            <ns3:hr>147</ns3:hr>
          </ns3:TrackPointExtension>
        </extensions>
      </trkpt>
      <trkpt lat="46.815065257251262664794921875" lon="6.82963698171079158782958984375">
        <ele>568</ele>
        <time>2017-05-05T14:16:09.000Z</time>
        <extensions>
          <ns3:TrackPointExtension>
            <ns3:hr>147</ns3:hr>
          </ns3:TrackPointExtension>
        </extensions>
      </trkpt>
      <trkpt lat="46.81517422199249267578125" lon="6.8294333852827548980712890625">
        <ele>567.20001220703125</ele>
        <time>2017-05-05T14:16:12.000Z</time>
        <extensions>
          <ns3:TrackPointExtension>
            <ns3:hr>147</ns3:hr>
          </ns3:TrackPointExtension>
        </extensions>
      </trkpt>
      <trkpt lat="46.81524035520851612091064453125" lon="6.8293488956987857818603515625">
        <ele>566.79998779296875</ele>
        <time>2017-05-05T14:16:14.000Z</time>
        <extensions>
          <ns3:TrackPointExtension>
            <ns3:hr>148</ns3:hr>
          </ns3:TrackPointExtension>
        </extensions>
      </trkpt>
      <trkpt lat="46.81529282592236995697021484375" lon="6.82926851324737071990966796875">
        <ele>564.79998779296875</ele>
        <time>2017-05-05T14:16:16.000Z</time>
        <extensions>
          <ns3:TrackPointExtension>
            <ns3:hr>149</ns3:hr>
          </ns3:TrackPointExtension>
        </extensions>
      </trkpt>
      <trkpt lat="46.8153021298348903656005859375" lon="6.829239428043365478515625">
        <ele>563.79998779296875</ele>
        <time>2017-05-05T14:16:17.000Z</time>
        <extensions>
          <ns3:TrackPointExtension>
            <ns3:hr>149</ns3:hr>
          </ns3:TrackPointExtension>
        </extensions>
      </trkpt>
      <trkpt lat="46.81530389003455638885498046875" lon="6.829214282333850860595703125">
        <ele>562.5999755859375</ele>
        <time>2017-05-05T14:16:18.000Z</time>
        <extensions>
          <ns3:TrackPointExtension>
            <ns3:hr>149</ns3:hr>
          </ns3:TrackPointExtension>
        </extensions>
      </trkpt>
      <trkpt lat="46.81528218090534210205078125" lon="6.829175055027008056640625">
        <ele>561</ele>
        <time>2017-05-05T14:16:20.000Z</time>
        <extensions>
          <ns3:TrackPointExtension>
            <ns3:hr>149</ns3:hr>
          </ns3:TrackPointExtension>
        </extensions>
      </trkpt>
      <trkpt lat="46.81521512567996978759765625" lon="6.82909014634788036346435546875">
        <ele>559.4000244140625</ele>
        <time>2017-05-05T14:16:23.000Z</time>
        <extensions>
          <ns3:TrackPointExtension>
            <ns3:hr>148</ns3:hr>
          </ns3:TrackPointExtension>
        </extensions>
      </trkpt>
      <trkpt lat="46.815160810947418212890625" lon="6.82900297455489635467529296875">
        <ele>558</ele>
        <time>2017-05-05T14:16:25.000Z</time>
        <extensions>
          <ns3:TrackPointExtension>
            <ns3:hr>148</ns3:hr>
          </ns3:TrackPointExtension>
        </extensions>
      </trkpt>
      <trkpt lat="46.81509383954107761383056640625" lon="6.82891127653419971466064453125">
        <ele>557.4000244140625</ele>
        <time>2017-05-05T14:16:27.000Z</time>
        <extensions>
          <ns3:TrackPointExtension>
            <ns3:hr>147</ns3:hr>
          </ns3:TrackPointExtension>
        </extensions>
      </trkpt>
      <trkpt lat="46.814940534532070159912109375" lon="6.82873584330081939697265625">
        <ele>557</ele>
        <time>2017-05-05T14:16:31.000Z</time>
        <extensions>
          <ns3:TrackPointExtension>
            <ns3:hr>149</ns3:hr>
          </ns3:TrackPointExtension>
        </extensions>
      </trkpt>
      <trkpt lat="46.8148126266896724700927734375" lon="6.828619502484798431396484375">
        <ele>556.4000244140625</ele>
        <time>2017-05-05T14:16:34.000Z</time>
        <extensions>
          <ns3:TrackPointExtension>
            <ns3:hr>150</ns3:hr>
          </ns3:TrackPointExtension>
        </extensions>
      </trkpt>
      <trkpt lat="46.81471095420420169830322265625" lon="6.82855588383972644805908203125">
        <ele>556</ele>
        <time>2017-05-05T14:16:36.000Z</time>
        <extensions>
          <ns3:TrackPointExtension>
            <ns3:hr>150</ns3:hr>
          </ns3:TrackPointExtension>
        </extensions>
      </trkpt>
      <trkpt lat="46.8146614171564579010009765625" lon="6.828502826392650604248046875">
        <ele>555.79998779296875</ele>
        <time>2017-05-05T14:16:37.000Z</time>
        <extensions>
          <ns3:TrackPointExtension>
            <ns3:hr>150</ns3:hr>
          </ns3:TrackPointExtension>
        </extensions>
      </trkpt>
      <trkpt lat="46.81454197503626346588134765625" lon="6.828248016536235809326171875">
        <ele>555.20001220703125</ele>
        <time>2017-05-05T14:16:42.000Z</time>
        <extensions>
          <ns3:TrackPointExtension>
            <ns3:hr>148</ns3:hr>
          </ns3:TrackPointExtension>
        </extensions>
      </trkpt>
      <trkpt lat="46.814587153494358062744140625" lon="6.82816595770418643951416015625">
        <ele>555</ele>
        <time>2017-05-05T14:16:44.000Z</time>
        <extensions>
          <ns3:TrackPointExtension>
            <ns3:hr>148</ns3:hr>
          </ns3:TrackPointExtension>
        </extensions>
      </trkpt>
      <trkpt lat="46.81462110020220279693603515625" lon="6.82811801321804523468017578125">
        <ele>554.20001220703125</ele>
        <time>2017-05-05T14:16:45.000Z</time>
        <extensions>
          <ns3:TrackPointExtension>
            <ns3:hr>148</ns3:hr>
          </ns3:TrackPointExtension>
        </extensions>
      </trkpt>
      <trkpt lat="46.81467038579285144805908203125" lon="6.82801139540970325469970703125">
        <ele>553.20001220703125</ele>
        <time>2017-05-05T14:16:47.000Z</time>
        <extensions>
          <ns3:TrackPointExtension>
            <ns3:hr>147</ns3:hr>
          </ns3:TrackPointExtension>
        </extensions>
      </trkpt>
      <trkpt lat="46.8146788515150547027587890625" lon="6.8279598467051982879638671875">
        <ele>552.79998779296875</ele>
        <time>2017-05-05T14:16:48.000Z</time>
        <extensions>
          <ns3:TrackPointExtension>
            <ns3:hr>146</ns3:hr>
          </ns3:TrackPointExtension>
        </extensions>
      </trkpt>
      <trkpt lat="46.81476040743291378021240234375" lon="6.82788449339568614959716796875">
        <ele>551.20001220703125</ele>
        <time>2017-05-05T14:16:52.000Z</time>
        <extensions>
          <ns3:TrackPointExtension>
            <ns3:hr>145</ns3:hr>
          </ns3:TrackPointExtension>
        </extensions>
      </trkpt>
      <trkpt lat="46.81477515958249568939208984375" lon="6.8279058672487735748291015625">
        <ele>549.79998779296875</ele>
        <time>2017-05-05T14:16:53.000Z</time>
        <extensions>
          <ns3:TrackPointExtension>
            <ns3:hr>145</ns3:hr>
          </ns3:TrackPointExtension>
        </extensions>
      </trkpt>
      <trkpt lat="46.81479527615010738372802734375" lon="6.82797367684543132781982421875">
        <ele>548.4000244140625</ele>
        <time>2017-05-05T14:16:55.000Z</time>
        <extensions>
          <ns3:TrackPointExtension>
            <ns3:hr>144</ns3:hr>
          </ns3:TrackPointExtension>
        </extensions>
      </trkpt>
      <trkpt lat="46.81476610712707042694091796875" lon="6.8280351161956787109375">
        <ele>548.20001220703125</ele>
        <time>2017-05-05T14:16:56.000Z</time>
        <extensions>
          <ns3:TrackPointExtension>
            <ns3:hr>144</ns3:hr>
          </ns3:TrackPointExtension>
        </extensions>
      </trkpt>
      <trkpt lat="46.81476979516446590423583984375" lon="6.828186325728893280029296875">
        <ele>547.79998779296875</ele>
        <time>2017-05-05T14:16:59.000Z</time>
        <extensions>
          <ns3:TrackPointExtension>
            <ns3:hr>144</ns3:hr>
          </ns3:TrackPointExtension>
        </extensions>
      </trkpt>
      <trkpt lat="46.814901642501354217529296875" lon="6.82827584445476531982421875">
        <ele>547.4000244140625</ele>
        <time>2017-05-05T14:17:02.000Z</time>
        <extensions>
          <ns3:TrackPointExtension>
            <ns3:hr>145</ns3:hr>
          </ns3:TrackPointExtension>
        </extensions>
      </trkpt>
      <trkpt lat="46.8152025528252124786376953125" lon="6.828400902450084686279296875">
        <ele>546.79998779296875</ele>
        <time>2017-05-05T14:17:07.000Z</time>
        <extensions>
          <ns3:TrackPointExtension>
            <ns3:hr>145</ns3:hr>
          </ns3:TrackPointExtension>
        </extensions>
      </trkpt>
      <trkpt lat="46.8153145350515842437744140625" lon="6.82848011143505573272705078125">
        <ele>546.4000244140625</ele>
        <time>2017-05-05T14:17:09.000Z</time>
        <extensions>
          <ns3:TrackPointExtension>
            <ns3:hr>145</ns3:hr>
          </ns3:TrackPointExtension>
        </extensions>
      </trkpt>
      <trkpt lat="46.8155341409146785736083984375" lon="6.82863500900566577911376953125">
        <ele>545.5999755859375</ele>
        <time>2017-05-05T14:17:13.000Z</time>
        <extensions>
          <ns3:TrackPointExtension>
            <ns3:hr>144</ns3:hr>
          </ns3:TrackPointExtension>
        </extensions>
      </trkpt>
      <trkpt lat="46.81565274484455585479736328125" lon="6.8286736495792865753173828125">
        <ele>545.4000244140625</ele>
        <time>2017-05-05T14:17:15.000Z</time>
        <extensions>
          <ns3:TrackPointExtension>
            <ns3:hr>144</ns3:hr>
          </ns3:TrackPointExtension>
        </extensions>
      </trkpt>
      <trkpt lat="46.8160062097012996673583984375" lon="6.828643642365932464599609375">
        <ele>546.79998779296875</ele>
        <time>2017-05-05T14:17:26.000Z</time>
        <extensions>
          <ns3:TrackPointExtension>
            <ns3:hr>144</ns3:hr>
          </ns3:TrackPointExtension>
        </extensions>
      </trkpt>
      <trkpt lat="46.81604367680847644805908203125" lon="6.82861187495291233062744140625">
        <ele>547.79998779296875</ele>
        <time>2017-05-05T14:17:28.000Z</time>
        <extensions>
          <ns3:TrackPointExtension>
            <ns3:hr>144</ns3:hr>
          </ns3:TrackPointExtension>
        </extensions>
      </trkpt>
      <trkpt lat="46.8160605244338512420654296875" lon="6.828594692051410675048828125">
        <ele>549</ele>
        <time>2017-05-05T14:17:29.000Z</time>
        <extensions>
          <ns3:TrackPointExtension>
            <ns3:hr>144</ns3:hr>
          </ns3:TrackPointExtension>
        </extensions>
      </trkpt>
      <trkpt lat="46.81608675979077816009521484375" lon="6.82854683138430118560791015625">
        <ele>550.4000244140625</ele>
        <time>2017-05-05T14:17:31.000Z</time>
        <extensions>
          <ns3:TrackPointExtension>
            <ns3:hr>144</ns3:hr>
          </ns3:TrackPointExtension>
        </extensions>
      </trkpt>
      <trkpt lat="46.8161433376371860504150390625" lon="6.82846887968480587005615234375">
        <ele>551.5999755859375</ele>
        <time>2017-05-05T14:17:34.000Z</time>
        <extensions>
          <ns3:TrackPointExtension>
            <ns3:hr>144</ns3:hr>
          </ns3:TrackPointExtension>
        </extensions>
      </trkpt>
      <trkpt lat="46.81620997376739978790283203125" lon="6.828382797539234161376953125">
        <ele>552.79998779296875</ele>
        <time>2017-05-05T14:17:37.000Z</time>
        <extensions>
          <ns3:TrackPointExtension>
            <ns3:hr>145</ns3:hr>
          </ns3:TrackPointExtension>
        </extensions>
      </trkpt>
      <trkpt lat="46.816400997340679168701171875" lon="6.82814835570752620697021484375">
        <ele>554</ele>
        <time>2017-05-05T14:17:45.000Z</time>
        <extensions>
          <ns3:TrackPointExtension>
            <ns3:hr>145</ns3:hr>
          </ns3:TrackPointExtension>
        </extensions>
      </trkpt>
      <trkpt lat="46.8165949545800685882568359375" lon="6.8279792927205562591552734375">
        <ele>555</ele>
        <time>2017-05-05T14:17:51.000Z</time>
        <extensions>
          <ns3:TrackPointExtension>
            <ns3:hr>146</ns3:hr>
          </ns3:TrackPointExtension>
        </extensions>
      </trkpt>
      <trkpt lat="46.81685638613998889923095703125" lon="6.82778357528150081634521484375">
        <ele>556</ele>
        <time>2017-05-05T14:18:00.000Z</time>
        <extensions>
          <ns3:TrackPointExtension>
            <ns3:hr>147</ns3:hr>
          </ns3:TrackPointExtension>
        </extensions>
      </trkpt>
      <trkpt lat="46.816909611225128173828125" lon="6.82783168740570545196533203125">
        <ele>556.20001220703125</ele>
        <time>2017-05-05T14:18:02.000Z</time>
        <extensions>
          <ns3:TrackPointExtension>
            <ns3:hr>147</ns3:hr>
          </ns3:TrackPointExtension>
        </extensions>
      </trkpt>
      <trkpt lat="46.8169922567903995513916015625" lon="6.827940903604030609130859375">
        <ele>556.4000244140625</ele>
        <time>2017-05-05T14:18:05.000Z</time>
        <extensions>
          <ns3:TrackPointExtension>
            <ns3:hr>145</ns3:hr>
          </ns3:TrackPointExtension>
        </extensions>
      </trkpt>
      <trkpt lat="46.8170686997473239898681640625" lon="6.8279303424060344696044921875">
        <ele>556.5999755859375</ele>
        <time>2017-05-05T14:18:07.000Z</time>
        <extensions>
          <ns3:TrackPointExtension>
            <ns3:hr>144</ns3:hr>
          </ns3:TrackPointExtension>
        </extensions>
      </trkpt>
      <trkpt lat="46.81722275912761688232421875" lon="6.8278089724481105804443359375">
        <ele>557</ele>
        <time>2017-05-05T14:18:11.000Z</time>
        <extensions>
          <ns3:TrackPointExtension>
            <ns3:hr>145</ns3:hr>
          </ns3:TrackPointExtension>
        </extensions>
      </trkpt>
      <trkpt lat="46.81760841049253940582275390625" lon="6.82742114178836345672607421875">
        <ele>558.20001220703125</ele>
        <time>2017-05-05T14:18:24.000Z</time>
        <extensions>
          <ns3:TrackPointExtension>
            <ns3:hr>145</ns3:hr>
          </ns3:TrackPointExtension>
        </extensions>
      </trkpt>
      <trkpt lat="46.81778476573526859283447265625" lon="6.82720891200006008148193359375">
        <ele>559.20001220703125</ele>
        <time>2017-05-05T14:18:31.000Z</time>
        <extensions>
          <ns3:TrackPointExtension>
            <ns3:hr>143</ns3:hr>
          </ns3:TrackPointExtension>
        </extensions>
      </trkpt>
      <trkpt lat="46.81793295778334140777587890625" lon="6.827093996107578277587890625">
        <ele>560.4000244140625</ele>
        <time>2017-05-05T14:18:37.000Z</time>
        <extensions>
          <ns3:TrackPointExtension>
            <ns3:hr>145</ns3:hr>
          </ns3:TrackPointExtension>
        </extensions>
      </trkpt>
      <trkpt lat="46.81802364997565746307373046875" lon="6.82694823481142520904541015625">
        <ele>561.5999755859375</ele>
        <time>2017-05-05T14:18:41.000Z</time>
        <extensions>
          <ns3:TrackPointExtension>
            <ns3:hr>146</ns3:hr>
          </ns3:TrackPointExtension>
        </extensions>
      </trkpt>
      <trkpt lat="46.81807042099535465240478515625" lon="6.82678679935634136199951171875">
        <ele>562.5999755859375</ele>
        <time>2017-05-05T14:18:45.000Z</time>
        <extensions>
          <ns3:TrackPointExtension>
            <ns3:hr>147</ns3:hr>
          </ns3:TrackPointExtension>
        </extensions>
      </trkpt>
      <trkpt lat="46.8180359713733196258544921875" lon="6.8264222703874111175537109375">
        <ele>563.79998779296875</ele>
        <time>2017-05-05T14:18:53.000Z</time>
        <extensions>
          <ns3:TrackPointExtension>
            <ns3:hr>145</ns3:hr>
          </ns3:TrackPointExtension>
        </extensions>
      </trkpt>
      <trkpt lat="46.8180135078728199005126953125" lon="6.826229989528656005859375">
        <ele>564.79998779296875</ele>
        <time>2017-05-05T14:18:57.000Z</time>
        <extensions>
          <ns3:TrackPointExtension>
            <ns3:hr>147</ns3:hr>
          </ns3:TrackPointExtension>
        </extensions>
      </trkpt>
      <trkpt lat="46.8179999291896820068359375" lon="6.82603594847023487091064453125">
        <ele>566</ele>
        <time>2017-05-05T14:19:01.000Z</time>
        <extensions>
          <ns3:TrackPointExtension>
            <ns3:hr>147</ns3:hr>
          </ns3:TrackPointExtension>
        </extensions>
      </trkpt>
      <trkpt lat="46.8179521523416042327880859375" lon="6.82578465901315212249755859375">
        <ele>566.79998779296875</ele>
        <time>2017-05-05T14:19:07.000Z</time>
        <extensions>
          <ns3:TrackPointExtension>
            <ns3:hr>144</ns3:hr>
          </ns3:TrackPointExtension>
        </extensions>
      </trkpt>
      <trkpt lat="46.817937903106212615966796875" lon="6.82574660517275333404541015625">
        <ele>567.20001220703125</ele>
        <time>2017-05-05T14:19:08.000Z</time>
        <extensions>
          <ns3:TrackPointExtension>
            <ns3:hr>144</ns3:hr>
          </ns3:TrackPointExtension>
        </extensions>
      </trkpt>
      <trkpt lat="46.8178639747202396392822265625" lon="6.8255978263914585113525390625">
        <ele>568.20001220703125</ele>
        <time>2017-05-05T14:19:12.000Z</time>
        <extensions>
          <ns3:TrackPointExtension>
            <ns3:hr>145</ns3:hr>
          </ns3:TrackPointExtension>
        </extensions>
      </trkpt>
      <trkpt lat="46.81776833720505237579345703125" lon="6.825459860265254974365234375">
        <ele>569.20001220703125</ele>
        <time>2017-05-05T14:19:16.000Z</time>
        <extensions>
          <ns3:TrackPointExtension>
            <ns3:hr>146</ns3:hr>
          </ns3:TrackPointExtension>
        </extensions>
      </trkpt>
      <trkpt lat="46.81758443824946880340576171875" lon="6.825077645480632781982421875">
        <ele>570.20001220703125</ele>
        <time>2017-05-05T14:19:25.000Z</time>
        <extensions>
          <ns3:TrackPointExtension>
            <ns3:hr>145</ns3:hr>
          </ns3:TrackPointExtension>
        </extensions>
      </trkpt>
      <trkpt lat="46.8174277804791927337646484375" lon="6.8247012980282306671142578125">
        <ele>571.5999755859375</ele>
        <time>2017-05-05T14:19:33.000Z</time>
        <extensions>
          <ns3:TrackPointExtension>
            <ns3:hr>143</ns3:hr>
          </ns3:TrackPointExtension>
        </extensions>
      </trkpt>
      <trkpt lat="46.81729375384747982025146484375" lon="6.82441840879619121551513671875">
        <ele>572.5999755859375</ele>
        <time>2017-05-05T14:19:39.000Z</time>
        <extensions>
          <ns3:TrackPointExtension>
            <ns3:hr>144</ns3:hr>
          </ns3:TrackPointExtension>
        </extensions>
      </trkpt>
      <trkpt lat="46.81724647991359233856201171875" lon="6.82432620786130428314208984375">
        <ele>573.20001220703125</ele>
        <time>2017-05-05T14:19:41.000Z</time>
        <extensions>
          <ns3:TrackPointExtension>
            <ns3:hr>147</ns3:hr>
          </ns3:TrackPointExtension>
        </extensions>
      </trkpt>
      <trkpt lat="46.81716886349022388458251953125" lon="6.824195869266986846923828125">
        <ele>573.79998779296875</ele>
        <time>2017-05-05T14:19:44.000Z</time>
        <extensions>
          <ns3:TrackPointExtension>
            <ns3:hr>148</ns3:hr>
          </ns3:TrackPointExtension>
        </extensions>
      </trkpt>
      <trkpt lat="46.81705554015934467315673828125" lon="6.82399227283895015716552734375">
        <ele>574.4000244140625</ele>
        <time>2017-05-05T14:19:49.000Z</time>
        <extensions>
          <ns3:TrackPointExtension>
            <ns3:hr>145</ns3:hr>
          </ns3:TrackPointExtension>
        </extensions>
      </trkpt>
      <trkpt lat="46.8170086853206157684326171875" lon="6.8239237926900386810302734375">
        <ele>574.79998779296875</ele>
        <time>2017-05-05T14:19:51.000Z</time>
        <extensions>
          <ns3:TrackPointExtension>
            <ns3:hr>144</ns3:hr>
          </ns3:TrackPointExtension>
        </extensions>
      </trkpt>
      <trkpt lat="46.81690357625484466552734375" lon="6.82372438721358776092529296875">
        <ele>576</ele>
        <time>2017-05-05T14:19:56.000Z</time>
        <extensions>
          <ns3:TrackPointExtension>
            <ns3:hr>143</ns3:hr>
          </ns3:TrackPointExtension>
        </extensions>
      </trkpt>
      <trkpt lat="46.81680274195969104766845703125" lon="6.8235224671661853790283203125">
        <ele>577</ele>
        <time>2017-05-05T14:20:01.000Z</time>
        <extensions>
          <ns3:TrackPointExtension>
            <ns3:hr>144</ns3:hr>
          </ns3:TrackPointExtension>
        </extensions>
      </trkpt>
      <trkpt lat="46.8167005665600299835205078125" lon="6.8232515640556812286376953125">
        <ele>578.20001220703125</ele>
        <time>2017-05-05T14:20:07.000Z</time>
        <extensions>
          <ns3:TrackPointExtension>
            <ns3:hr>143</ns3:hr>
          </ns3:TrackPointExtension>
        </extensions>
      </trkpt>
      <trkpt lat="46.81662999093532562255859375" lon="6.82296129874885082244873046875">
        <ele>579.4000244140625</ele>
        <time>2017-05-05T14:20:13.000Z</time>
        <extensions>
          <ns3:TrackPointExtension>
            <ns3:hr>146</ns3:hr>
          </ns3:TrackPointExtension>
        </extensions>
      </trkpt>
      <trkpt lat="46.81659537367522716522216796875" lon="6.8227674253284931182861328125">
        <ele>580.4000244140625</ele>
        <time>2017-05-05T14:20:17.000Z</time>
        <extensions>
          <ns3:TrackPointExtension>
            <ns3:hr>148</ns3:hr>
          </ns3:TrackPointExtension>
        </extensions>
      </trkpt>
      <trkpt lat="46.81654860265552997589111328125" lon="6.82252108119428157806396484375">
        <ele>581.5999755859375</ele>
        <time>2017-05-05T14:20:22.000Z</time>
        <extensions>
          <ns3:TrackPointExtension>
            <ns3:hr>148</ns3:hr>
          </ns3:TrackPointExtension>
        </extensions>
      </trkpt>
      <trkpt lat="46.8164410628378391265869140625" lon="6.8221302330493927001953125">
        <ele>582.79998779296875</ele>
        <time>2017-05-05T14:20:30.000Z</time>
        <extensions>
          <ns3:TrackPointExtension>
            <ns3:hr>150</ns3:hr>
          </ns3:TrackPointExtension>
        </extensions>
      </trkpt>
      <trkpt lat="46.81638163514435291290283203125" lon="6.82184969075024127960205078125">
        <ele>583.79998779296875</ele>
        <time>2017-05-05T14:20:36.000Z</time>
        <extensions>
          <ns3:TrackPointExtension>
            <ns3:hr>151</ns3:hr>
          </ns3:TrackPointExtension>
        </extensions>
      </trkpt>
      <trkpt lat="46.81634827516973018646240234375" lon="6.82171113789081573486328125">
        <ele>585</ele>
        <time>2017-05-05T14:20:39.000Z</time>
        <extensions>
          <ns3:TrackPointExtension>
            <ns3:hr>149</ns3:hr>
          </ns3:TrackPointExtension>
        </extensions>
      </trkpt>
      <trkpt lat="46.81631390936672687530517578125" lon="6.821569316089153289794921875">
        <ele>585.5999755859375</ele>
        <time>2017-05-05T14:20:42.000Z</time>
        <extensions>
          <ns3:TrackPointExtension>
            <ns3:hr>146</ns3:hr>
          </ns3:TrackPointExtension>
        </extensions>
      </trkpt>
      <trkpt lat="46.81628842838108539581298828125" lon="6.82147971354424953460693359375">
        <ele>586</ele>
        <time>2017-05-05T14:20:44.000Z</time>
        <extensions>
          <ns3:TrackPointExtension>
            <ns3:hr>145</ns3:hr>
          </ns3:TrackPointExtension>
        </extensions>
      </trkpt>
      <trkpt lat="46.81624098680913448333740234375" lon="6.8212985806167125701904296875">
        <ele>587</ele>
        <time>2017-05-05T14:20:48.000Z</time>
        <extensions>
          <ns3:TrackPointExtension>
            <ns3:hr>142</ns3:hr>
          </ns3:TrackPointExtension>
        </extensions>
      </trkpt>
      <trkpt lat="46.81622656993567943572998046875" lon="6.82125591672956943511962890625">
        <ele>587.4000244140625</ele>
        <time>2017-05-05T14:20:49.000Z</time>
        <extensions>
          <ns3:TrackPointExtension>
            <ns3:hr>142</ns3:hr>
          </ns3:TrackPointExtension>
        </extensions>
      </trkpt>
      <trkpt lat="46.816144175827503204345703125" lon="6.82105961255729198455810546875">
        <ele>588.5999755859375</ele>
        <time>2017-05-05T14:20:54.000Z</time>
        <extensions>
          <ns3:TrackPointExtension>
            <ns3:hr>143</ns3:hr>
          </ns3:TrackPointExtension>
        </extensions>
      </trkpt>
      <trkpt lat="46.816071756184101104736328125" lon="6.82085953652858734130859375">
        <ele>589.5999755859375</ele>
        <time>2017-05-05T14:20:59.000Z</time>
        <extensions>
          <ns3:TrackPointExtension>
            <ns3:hr>144</ns3:hr>
          </ns3:TrackPointExtension>
        </extensions>
      </trkpt>
      <trkpt lat="46.8160172738134860992431640625" lon="6.82060447521507740020751953125">
        <ele>590.79998779296875</ele>
        <time>2017-05-05T14:21:05.000Z</time>
        <extensions>
          <ns3:TrackPointExtension>
            <ns3:hr>144</ns3:hr>
          </ns3:TrackPointExtension>
        </extensions>
      </trkpt>
      <trkpt lat="46.81595231406390666961669921875" lon="6.820371709764003753662109375">
        <ele>592</ele>
        <time>2017-05-05T14:21:11.000Z</time>
        <extensions>
          <ns3:TrackPointExtension>
            <ns3:hr>146</ns3:hr>
          </ns3:TrackPointExtension>
        </extensions>
      </trkpt>
      <trkpt lat="46.815883331000804901123046875" lon="6.82014078833162784576416015625">
        <ele>593.4000244140625</ele>
        <time>2017-05-05T14:21:17.000Z</time>
        <extensions>
          <ns3:TrackPointExtension>
            <ns3:hr>144</ns3:hr>
          </ns3:TrackPointExtension>
        </extensions>
      </trkpt>
      <trkpt lat="46.8158487975597381591796875" lon="6.8199041672050952911376953125">
        <ele>594.5999755859375</ele>
        <time>2017-05-05T14:21:22.000Z</time>
        <extensions>
          <ns3:TrackPointExtension>
            <ns3:hr>143</ns3:hr>
          </ns3:TrackPointExtension>
        </extensions>
      </trkpt>
      <trkpt lat="46.8158140964806079864501953125" lon="6.819669641554355621337890625">
        <ele>595.5999755859375</ele>
        <time>2017-05-05T14:21:27.000Z</time>
        <extensions>
          <ns3:TrackPointExtension>
            <ns3:hr>145</ns3:hr>
          </ns3:TrackPointExtension>
        </extensions>
      </trkpt>
      <trkpt lat="46.81578509509563446044921875" lon="6.81938272900879383087158203125">
        <ele>596.79998779296875</ele>
        <time>2017-05-05T14:21:33.000Z</time>
        <extensions>
          <ns3:TrackPointExtension>
            <ns3:hr>144</ns3:hr>
          </ns3:TrackPointExtension>
        </extensions>
      </trkpt>
      <trkpt lat="46.81576900184154510498046875" lon="6.8192627839744091033935546875">
        <ele>597.20001220703125</ele>
        <time>2017-05-05T14:21:36.000Z</time>
        <extensions>
          <ns3:TrackPointExtension>
            <ns3:hr>140</ns3:hr>
          </ns3:TrackPointExtension>
        </extensions>
      </trkpt>
      <trkpt lat="46.81576355360448360443115234375" lon="6.81922330521047115325927734375">
        <ele>597.4000244140625</ele>
        <time>2017-05-05T14:21:37.000Z</time>
        <extensions>
          <ns3:TrackPointExtension>
            <ns3:hr>137</ns3:hr>
          </ns3:TrackPointExtension>
        </extensions>
      </trkpt>
      <trkpt lat="46.8157420121133327484130859375" lon="6.81910495273768901824951171875">
        <ele>598</ele>
        <time>2017-05-05T14:21:40.000Z</time>
        <extensions>
          <ns3:TrackPointExtension>
            <ns3:hr>138</ns3:hr>
          </ns3:TrackPointExtension>
        </extensions>
      </trkpt>
      <trkpt lat="46.815678812563419342041015625" lon="6.81887964718043804168701171875">
        <ele>599.20001220703125</ele>
        <time>2017-05-05T14:21:46.000Z</time>
        <extensions>
          <ns3:TrackPointExtension>
            <ns3:hr>136</ns3:hr>
          </ns3:TrackPointExtension>
        </extensions>
      </trkpt>
      <trkpt lat="46.8156203068792819976806640625" lon="6.81871083565056324005126953125">
        <ele>600.4000244140625</ele>
        <time>2017-05-05T14:21:50.000Z</time>
        <extensions>
          <ns3:TrackPointExtension>
            <ns3:hr>134</ns3:hr>
          </ns3:TrackPointExtension>
        </extensions>
      </trkpt>
      <trkpt lat="46.81554629467427730560302734375" lon="6.81855208240449428558349609375">
        <ele>601.4000244140625</ele>
        <time>2017-05-05T14:21:54.000Z</time>
        <extensions>
          <ns3:TrackPointExtension>
            <ns3:hr>133</ns3:hr>
          </ns3:TrackPointExtension>
        </extensions>
      </trkpt>
      <trkpt lat="46.815457530319690704345703125" lon="6.81835058145225048065185546875">
        <ele>602.4000244140625</ele>
        <time>2017-05-05T14:21:59.000Z</time>
        <extensions>
          <ns3:TrackPointExtension>
            <ns3:hr>132</ns3:hr>
          </ns3:TrackPointExtension>
        </extensions>
      </trkpt>
      <trkpt lat="46.815345548093318939208984375" lon="6.818092167377471923828125">
        <ele>603</ele>
        <time>2017-05-05T14:22:05.000Z</time>
        <extensions>
          <ns3:TrackPointExtension>
            <ns3:hr>135</ns3:hr>
          </ns3:TrackPointExtension>
        </extensions>
      </trkpt>
      <trkpt lat="46.815268434584140777587890625" lon="6.81791841052472591400146484375">
        <ele>603.5999755859375</ele>
        <time>2017-05-05T14:22:09.000Z</time>
        <extensions>
          <ns3:TrackPointExtension>
            <ns3:hr>136</ns3:hr>
          </ns3:TrackPointExtension>
        </extensions>
      </trkpt>
      <trkpt lat="46.815153099596500396728515625" lon="6.81764490902423858642578125">
        <ele>604.5999755859375</ele>
        <time>2017-05-05T14:22:15.000Z</time>
        <extensions>
          <ns3:TrackPointExtension>
            <ns3:hr>137</ns3:hr>
          </ns3:TrackPointExtension>
        </extensions>
      </trkpt>
      <trkpt lat="46.815050505101680755615234375" lon="6.81741750799119472503662109375">
        <ele>605.20001220703125</ele>
        <time>2017-05-05T14:22:20.000Z</time>
        <extensions>
          <ns3:TrackPointExtension>
            <ns3:hr>140</ns3:hr>
          </ns3:TrackPointExtension>
        </extensions>
      </trkpt>
      <trkpt lat="46.81495168246328830718994140625" lon="6.8171914480626583099365234375">
        <ele>605.79998779296875</ele>
        <time>2017-05-05T14:22:25.000Z</time>
        <extensions>
          <ns3:TrackPointExtension>
            <ns3:hr>142</ns3:hr>
          </ns3:TrackPointExtension>
        </extensions>
      </trkpt>
      <trkpt lat="46.814801059663295745849609375" lon="6.81684502400457859039306640625">
        <ele>607</ele>
        <time>2017-05-05T14:22:33.000Z</time>
        <extensions>
          <ns3:TrackPointExtension>
            <ns3:hr>141</ns3:hr>
          </ns3:TrackPointExtension>
        </extensions>
      </trkpt>
      <trkpt lat="46.814717240631580352783203125" lon="6.81663447059690952301025390625">
        <ele>608.20001220703125</ele>
        <time>2017-05-05T14:22:38.000Z</time>
        <extensions>
          <ns3:TrackPointExtension>
            <ns3:hr>140</ns3:hr>
          </ns3:TrackPointExtension>
        </extensions>
      </trkpt>
      <trkpt lat="46.8146176636219024658203125" lon="6.81641553528606891632080078125">
        <ele>609.4000244140625</ele>
        <time>2017-05-05T14:22:44.000Z</time>
        <extensions>
          <ns3:TrackPointExtension>
            <ns3:hr>139</ns3:hr>
          </ns3:TrackPointExtension>
        </extensions>
      </trkpt>
      <trkpt lat="46.81453191675245761871337890625" lon="6.8162476457655429840087890625">
        <ele>610.5999755859375</ele>
        <time>2017-05-05T14:22:49.000Z</time>
        <extensions>
          <ns3:TrackPointExtension>
            <ns3:hr>140</ns3:hr>
          </ns3:TrackPointExtension>
        </extensions>
      </trkpt>
      <trkpt lat="46.81441725231707096099853515625" lon="6.815965510904788970947265625">
        <ele>611.79998779296875</ele>
        <time>2017-05-05T14:22:57.000Z</time>
        <extensions>
          <ns3:TrackPointExtension>
            <ns3:hr>146</ns3:hr>
          </ns3:TrackPointExtension>
        </extensions>
      </trkpt>
      <trkpt lat="46.81436025537550449371337890625" lon="6.815800555050373077392578125">
        <ele>613</ele>
        <time>2017-05-05T14:23:02.000Z</time>
        <extensions>
          <ns3:TrackPointExtension>
            <ns3:hr>147</ns3:hr>
          </ns3:TrackPointExtension>
        </extensions>
      </trkpt>
      <trkpt lat="46.81431583128869533538818359375" lon="6.8156917579472064971923828125">
        <ele>614.20001220703125</ele>
        <time>2017-05-05T14:23:05.000Z</time>
        <extensions>
          <ns3:TrackPointExtension>
            <ns3:hr>146</ns3:hr>
          </ns3:TrackPointExtension>
        </extensions>
      </trkpt>
      <trkpt lat="46.81425229646265506744384765625" lon="6.8155526183545589447021484375">
        <ele>615.20001220703125</ele>
        <time>2017-05-05T14:23:09.000Z</time>
        <extensions>
          <ns3:TrackPointExtension>
            <ns3:hr>144</ns3:hr>
          </ns3:TrackPointExtension>
        </extensions>
      </trkpt>
      <trkpt lat="46.8142114765942096710205078125" lon="6.81544004939496517181396484375">
        <ele>616.4000244140625</ele>
        <time>2017-05-05T14:23:12.000Z</time>
        <extensions>
          <ns3:TrackPointExtension>
            <ns3:hr>143</ns3:hr>
          </ns3:TrackPointExtension>
        </extensions>
      </trkpt>
      <trkpt lat="46.81415674276649951934814453125" lon="6.81534550152719020843505859375">
        <ele>617.4000244140625</ele>
        <time>2017-05-05T14:23:15.000Z</time>
        <extensions>
          <ns3:TrackPointExtension>
            <ns3:hr>142</ns3:hr>
          </ns3:TrackPointExtension>
        </extensions>
      </trkpt>
      <trkpt lat="46.81409890763461589813232421875" lon="6.81520401500165462493896484375">
        <ele>618.4000244140625</ele>
        <time>2017-05-05T14:23:19.000Z</time>
        <extensions>
          <ns3:TrackPointExtension>
            <ns3:hr>141</ns3:hr>
          </ns3:TrackPointExtension>
        </extensions>
      </trkpt>
      <trkpt lat="46.814039982855319976806640625" lon="6.81505389511585235595703125">
        <ele>619.5999755859375</ele>
        <time>2017-05-05T14:23:23.000Z</time>
        <extensions>
          <ns3:TrackPointExtension>
            <ns3:hr>141</ns3:hr>
          </ns3:TrackPointExtension>
        </extensions>
      </trkpt>
      <trkpt lat="46.8139660544693470001220703125" lon="6.81486991234123706817626953125">
        <ele>620.79998779296875</ele>
        <time>2017-05-05T14:23:28.000Z</time>
        <extensions>
          <ns3:TrackPointExtension>
            <ns3:hr>140</ns3:hr>
          </ns3:TrackPointExtension>
        </extensions>
      </trkpt>
      <trkpt lat="46.81390562094748020172119140625" lon="6.81472306139767169952392578125">
        <ele>622</ele>
        <time>2017-05-05T14:23:32.000Z</time>
        <extensions>
          <ns3:TrackPointExtension>
            <ns3:hr>141</ns3:hr>
          </ns3:TrackPointExtension>
        </extensions>
      </trkpt>
      <trkpt lat="46.813852228224277496337890625" lon="6.81460873223841190338134765625">
        <ele>623</ele>
        <time>2017-05-05T14:23:35.000Z</time>
        <extensions>
          <ns3:TrackPointExtension>
            <ns3:hr>142</ns3:hr>
          </ns3:TrackPointExtension>
        </extensions>
      </trkpt>
      <trkpt lat="46.8137722648680210113525390625" lon="6.81445182301104068756103515625">
        <ele>624.20001220703125</ele>
        <time>2017-05-05T14:23:39.000Z</time>
        <extensions>
          <ns3:TrackPointExtension>
            <ns3:hr>143</ns3:hr>
          </ns3:TrackPointExtension>
        </extensions>
      </trkpt>
      <trkpt lat="46.8136720173060894012451171875" lon="6.81424043141305446624755859375">
        <ele>625</ele>
        <time>2017-05-05T14:23:44.000Z</time>
        <extensions>
          <ns3:TrackPointExtension>
            <ns3:hr>146</ns3:hr>
          </ns3:TrackPointExtension>
        </extensions>
      </trkpt>
      <trkpt lat="46.81363438256084918975830078125" lon="6.814150996506214141845703125">
        <ele>625.4000244140625</ele>
        <time>2017-05-05T14:23:46.000Z</time>
        <extensions>
          <ns3:TrackPointExtension>
            <ns3:hr>147</ns3:hr>
          </ns3:TrackPointExtension>
        </extensions>
      </trkpt>
      <trkpt lat="46.81351125240325927734375" lon="6.81388420052826404571533203125">
        <ele>626.4000244140625</ele>
        <time>2017-05-05T14:23:52.000Z</time>
        <extensions>
          <ns3:TrackPointExtension>
            <ns3:hr>146</ns3:hr>
          </ns3:TrackPointExtension>
        </extensions>
      </trkpt>
      <trkpt lat="46.813274212181568145751953125" lon="6.8133843876421451568603515625">
        <ele>627.5999755859375</ele>
        <time>2017-05-05T14:24:03.000Z</time>
        <extensions>
          <ns3:TrackPointExtension>
            <ns3:hr>146</ns3:hr>
          </ns3:TrackPointExtension>
        </extensions>
      </trkpt>
      <trkpt lat="46.8131590448319911956787109375" lon="6.81331657804548740386962890625">
        <ele>628</ele>
        <time>2017-05-05T14:24:07.000Z</time>
        <extensions>
          <ns3:TrackPointExtension>
            <ns3:hr>147</ns3:hr>
          </ns3:TrackPointExtension>
        </extensions>
      </trkpt>
      <trkpt lat="46.81303557939827442169189453125" lon="6.8134145624935626983642578125">
        <ele>628.4000244140625</ele>
        <time>2017-05-05T14:24:11.000Z</time>
        <extensions>
          <ns3:TrackPointExtension>
            <ns3:hr>144</ns3:hr>
          </ns3:TrackPointExtension>
        </extensions>
      </trkpt>
      <trkpt lat="46.81296584196388721466064453125" lon="6.81347432546317577362060546875">
        <ele>628.5999755859375</ele>
        <time>2017-05-05T14:24:13.000Z</time>
        <extensions>
          <ns3:TrackPointExtension>
            <ns3:hr>144</ns3:hr>
          </ns3:TrackPointExtension>
        </extensions>
      </trkpt>
      <trkpt lat="46.81250332854688167572021484375" lon="6.81397807784378528594970703125">
        <ele>628.79998779296875</ele>
        <time>2017-05-05T14:24:23.000Z</time>
        <extensions>
          <ns3:TrackPointExtension>
            <ns3:hr>144</ns3:hr>
          </ns3:TrackPointExtension>
        </extensions>
      </trkpt>
      <trkpt lat="46.81230015121400356292724609375" lon="6.8142192251980304718017578125">
        <ele>627.5999755859375</ele>
        <time>2017-05-05T14:24:27.000Z</time>
        <extensions>
          <ns3:TrackPointExtension>
            <ns3:hr>143</ns3:hr>
          </ns3:TrackPointExtension>
        </extensions>
      </trkpt>
      <trkpt lat="46.81198398582637310028076171875" lon="6.81453128345310688018798828125">
        <ele>626.79998779296875</ele>
        <time>2017-05-05T14:24:34.000Z</time>
        <extensions>
          <ns3:TrackPointExtension>
            <ns3:hr>142</ns3:hr>
          </ns3:TrackPointExtension>
        </extensions>
      </trkpt>
      <trkpt lat="46.81186630390584468841552734375" lon="6.81450278498232364654541015625">
        <ele>626.79998779296875</ele>
        <time>2017-05-05T14:24:36.000Z</time>
        <extensions>
          <ns3:TrackPointExtension>
            <ns3:hr>142</ns3:hr>
          </ns3:TrackPointExtension>
        </extensions>
      </trkpt>
      <trkpt lat="46.81179740466177463531494140625" lon="6.8144029565155506134033203125">
        <ele>626.79998779296875</ele>
        <time>2017-05-05T14:24:38.000Z</time>
        <extensions>
          <ns3:TrackPointExtension>
            <ns3:hr>142</ns3:hr>
          </ns3:TrackPointExtension>
        </extensions>
      </trkpt>
      <trkpt lat="46.81160621345043182373046875" lon="6.8140975199639797210693359375">
        <ele>628.79998779296875</ele>
        <time>2017-05-05T14:24:44.000Z</time>
        <extensions>
          <ns3:TrackPointExtension>
            <ns3:hr>142</ns3:hr>
          </ns3:TrackPointExtension>
        </extensions>
      </trkpt>
      <trkpt lat="46.81148978881537914276123046875" lon="6.8139282055199146270751953125">
        <ele>629.5999755859375</ele>
        <time>2017-05-05T14:24:48.000Z</time>
        <extensions>
          <ns3:TrackPointExtension>
            <ns3:hr>141</ns3:hr>
          </ns3:TrackPointExtension>
        </extensions>
      </trkpt>
      <trkpt lat="46.81143329478800296783447265625" lon="6.8138396926224231719970703125">
        <ele>630</ele>
        <time>2017-05-05T14:24:50.000Z</time>
        <extensions>
          <ns3:TrackPointExtension>
            <ns3:hr>141</ns3:hr>
          </ns3:TrackPointExtension>
        </extensions>
      </trkpt>
      <trkpt lat="46.8113964982330799102783203125" lon="6.813731230795383453369140625">
        <ele>630.4000244140625</ele>
        <time>2017-05-05T14:24:52.000Z</time>
        <extensions>
          <ns3:TrackPointExtension>
            <ns3:hr>141</ns3:hr>
          </ns3:TrackPointExtension>
        </extensions>
      </trkpt>
      <trkpt lat="46.8113405071198940277099609375" lon="6.81349980644881725311279296875">
        <ele>631</ele>
        <time>2017-05-05T14:24:56.000Z</time>
        <extensions>
          <ns3:TrackPointExtension>
            <ns3:hr>142</ns3:hr>
          </ns3:TrackPointExtension>
        </extensions>
      </trkpt>
      <trkpt lat="46.8112778104841709136962890625" lon="6.8133206851780414581298828125">
        <ele>632.20001220703125</ele>
        <time>2017-05-05T14:25:00.000Z</time>
        <extensions>
          <ns3:TrackPointExtension>
            <ns3:hr>145</ns3:hr>
          </ns3:TrackPointExtension>
        </extensions>
      </trkpt>
      <trkpt lat="46.81115853600203990936279296875" lon="6.8131795339286327362060546875">
        <ele>633.20001220703125</ele>
        <time>2017-05-05T14:25:04.000Z</time>
        <extensions>
          <ns3:TrackPointExtension>
            <ns3:hr>145</ns3:hr>
          </ns3:TrackPointExtension>
        </extensions>
      </trkpt>
      <trkpt lat="46.8110287003219127655029296875" lon="6.8130581639707088470458984375">
        <ele>634.4000244140625</ele>
        <time>2017-05-05T14:25:08.000Z</time>
        <extensions>
          <ns3:TrackPointExtension>
            <ns3:hr>145</ns3:hr>
          </ns3:TrackPointExtension>
        </extensions>
      </trkpt>
      <trkpt lat="46.81087086908519268035888671875" lon="6.81291910819709300994873046875">
        <ele>635.5999755859375</ele>
        <time>2017-05-05T14:25:14.000Z</time>
        <extensions>
          <ns3:TrackPointExtension>
            <ns3:hr>145</ns3:hr>
          </ns3:TrackPointExtension>
        </extensions>
      </trkpt>
      <trkpt lat="46.81075997650623321533203125" lon="6.8127708323299884796142578125">
        <ele>636.79998779296875</ele>
        <time>2017-05-05T14:25:19.000Z</time>
        <extensions>
          <ns3:TrackPointExtension>
            <ns3:hr>146</ns3:hr>
          </ns3:TrackPointExtension>
        </extensions>
      </trkpt>
      <trkpt lat="46.81060030125081539154052734375" lon="6.8125760369002819061279296875">
        <ele>638</ele>
        <time>2017-05-05T14:25:25.000Z</time>
        <extensions>
          <ns3:TrackPointExtension>
            <ns3:hr>144</ns3:hr>
          </ns3:TrackPointExtension>
        </extensions>
      </trkpt>
      <trkpt lat="46.81052302010357379913330078125" lon="6.81240412406623363494873046875">
        <ele>639</ele>
        <time>2017-05-05T14:25:30.000Z</time>
        <extensions>
          <ns3:TrackPointExtension>
            <ns3:hr>146</ns3:hr>
          </ns3:TrackPointExtension>
        </extensions>
      </trkpt>
      <trkpt lat="46.8104174919426441192626953125" lon="6.8121911399066448211669921875">
        <ele>640</ele>
        <time>2017-05-05T14:25:36.000Z</time>
        <extensions>
          <ns3:TrackPointExtension>
            <ns3:hr>145</ns3:hr>
          </ns3:TrackPointExtension>
        </extensions>
      </trkpt>
      <trkpt lat="46.81006394326686859130859375" lon="6.81158957071602344512939453125">
        <ele>640.79998779296875</ele>
        <time>2017-05-05T14:25:46.000Z</time>
        <extensions>
          <ns3:TrackPointExtension>
            <ns3:hr>143</ns3:hr>
          </ns3:TrackPointExtension>
        </extensions>
      </trkpt>
      <trkpt lat="46.8099206127226352691650390625" lon="6.81131145916879177093505859375">
        <ele>640.79998779296875</ele>
        <time>2017-05-05T14:25:50.000Z</time>
        <extensions>
          <ns3:TrackPointExtension>
            <ns3:hr>144</ns3:hr>
          </ns3:TrackPointExtension>
        </extensions>
      </trkpt>
      <trkpt lat="46.8099199421703815460205078125" lon="6.8111615069210529327392578125">
        <ele>640.79998779296875</ele>
        <time>2017-05-05T14:25:52.000Z</time>
        <extensions>
          <ns3:TrackPointExtension>
            <ns3:hr>143</ns3:hr>
          </ns3:TrackPointExtension>
        </extensions>
      </trkpt>
      <trkpt lat="46.81006654165685176849365234375" lon="6.81081877090036869049072265625">
        <ele>641.20001220703125</ele>
        <time>2017-05-05T14:26:01.000Z</time>
        <extensions>
          <ns3:TrackPointExtension>
            <ns3:hr>144</ns3:hr>
          </ns3:TrackPointExtension>
        </extensions>
      </trkpt>
      <trkpt lat="46.81009034626185894012451171875" lon="6.81073377840220928192138671875">
        <ele>642.4000244140625</ele>
        <time>2017-05-05T14:26:04.000Z</time>
        <extensions>
          <ns3:TrackPointExtension>
            <ns3:hr>143</ns3:hr>
          </ns3:TrackPointExtension>
        </extensions>
      </trkpt>
      <trkpt lat="46.81007601320743560791015625" lon="6.81056731380522251129150390625">
        <ele>643.4000244140625</ele>
        <time>2017-05-05T14:26:09.000Z</time>
        <extensions>
          <ns3:TrackPointExtension>
            <ns3:hr>142</ns3:hr>
          </ns3:TrackPointExtension>
        </extensions>
      </trkpt>
      <trkpt lat="46.81015924550592899322509765625" lon="6.81036815978586673736572265625">
        <ele>644.5999755859375</ele>
        <time>2017-05-05T14:26:14.000Z</time>
        <extensions>
          <ns3:TrackPointExtension>
            <ns3:hr>142</ns3:hr>
          </ns3:TrackPointExtension>
        </extensions>
      </trkpt>
      <trkpt lat="46.8102294020354747772216796875" lon="6.81009993888437747955322265625">
        <ele>645.79998779296875</ele>
        <time>2017-05-05T14:26:21.000Z</time>
        <extensions>
          <ns3:TrackPointExtension>
            <ns3:hr>143</ns3:hr>
          </ns3:TrackPointExtension>
        </extensions>
      </trkpt>
      <trkpt lat="46.81022898294031620025634765625" lon="6.8099109269678592681884765625">
        <ele>646.79998779296875</ele>
        <time>2017-05-05T14:26:26.000Z</time>
        <extensions>
          <ns3:TrackPointExtension>
            <ns3:hr>142</ns3:hr>
          </ns3:TrackPointExtension>
        </extensions>
      </trkpt>
      <trkpt lat="46.810258738696575164794921875" lon="6.80980539880692958831787109375">
        <ele>647.5999755859375</ele>
        <time>2017-05-05T14:26:29.000Z</time>
        <extensions>
          <ns3:TrackPointExtension>
            <ns3:hr>139</ns3:hr>
          </ns3:TrackPointExtension>
        </extensions>
      </trkpt>
      <trkpt lat="46.810262091457843780517578125" lon="6.80976700969040393829345703125">
        <ele>648.20001220703125</ele>
        <time>2017-05-05T14:26:30.000Z</time>
        <extensions>
          <ns3:TrackPointExtension>
            <ns3:hr>138</ns3:hr>
          </ns3:TrackPointExtension>
        </extensions>
      </trkpt>
      <trkpt lat="46.810279525816440582275390625" lon="6.80959451012313365936279296875">
        <ele>649.20001220703125</ele>
        <time>2017-05-05T14:26:34.000Z</time>
        <extensions>
          <ns3:TrackPointExtension>
            <ns3:hr>138</ns3:hr>
          </ns3:TrackPointExtension>
        </extensions>
      </trkpt>
      <trkpt lat="46.81029033847153186798095703125" lon="6.80940642021596431732177734375">
        <ele>650.4000244140625</ele>
        <time>2017-05-05T14:26:38.000Z</time>
        <extensions>
          <ns3:TrackPointExtension>
            <ns3:hr>139</ns3:hr>
          </ns3:TrackPointExtension>
        </extensions>
      </trkpt>
      <trkpt lat="46.81028597988188266754150390625" lon="6.80922956205904483795166015625">
        <ele>651.5999755859375</ele>
        <time>2017-05-05T14:26:42.000Z</time>
        <extensions>
          <ns3:TrackPointExtension>
            <ns3:hr>140</ns3:hr>
          </ns3:TrackPointExtension>
        </extensions>
      </trkpt>
      <trkpt lat="46.81026603095233440399169921875" lon="6.8090214394032955169677734375">
        <ele>652.79998779296875</ele>
        <time>2017-05-05T14:26:47.000Z</time>
        <extensions>
          <ns3:TrackPointExtension>
            <ns3:hr>141</ns3:hr>
          </ns3:TrackPointExtension>
        </extensions>
      </trkpt>
      <trkpt lat="46.810144074261188507080078125" lon="6.80841014720499515533447265625">
        <ele>653.5999755859375</ele>
        <time>2017-05-05T14:26:59.000Z</time>
        <extensions>
          <ns3:TrackPointExtension>
            <ns3:hr>144</ns3:hr>
          </ns3:TrackPointExtension>
        </extensions>
      </trkpt>
      <trkpt lat="46.81013368070125579833984375" lon="6.808306463062763214111328125">
        <ele>653.5999755859375</ele>
        <time>2017-05-05T14:27:01.000Z</time>
        <extensions>
          <ns3:TrackPointExtension>
            <ns3:hr>147</ns3:hr>
          </ns3:TrackPointExtension>
        </extensions>
      </trkpt>
      <trkpt lat="46.810099147260189056396484375" lon="6.8081621266901493072509765625">
        <ele>653.79998779296875</ele>
        <time>2017-05-05T14:27:04.000Z</time>
        <extensions>
          <ns3:TrackPointExtension>
            <ns3:hr>150</ns3:hr>
          </ns3:TrackPointExtension>
        </extensions>
      </trkpt>
      <trkpt lat="46.80998750030994415283203125" lon="6.80787085555493831634521484375">
        <ele>653.79998779296875</ele>
        <time>2017-05-05T14:27:10.000Z</time>
        <extensions>
          <ns3:TrackPointExtension>
            <ns3:hr>152</ns3:hr>
          </ns3:TrackPointExtension>
        </extensions>
      </trkpt>
      <trkpt lat="46.80992337875068187713623046875" lon="6.80780799128115177154541015625">
        <ele>654</ele>
        <time>2017-05-05T14:27:12.000Z</time>
        <extensions>
          <ns3:TrackPointExtension>
            <ns3:hr>153</ns3:hr>
          </ns3:TrackPointExtension>
        </extensions>
      </trkpt>
      <trkpt lat="46.809855401515960693359375" lon="6.807733140885829925537109375">
        <ele>654.20001220703125</ele>
        <time>2017-05-05T14:27:14.000Z</time>
        <extensions>
          <ns3:TrackPointExtension>
            <ns3:hr>153</ns3:hr>
          </ns3:TrackPointExtension>
        </extensions>
      </trkpt>
      <trkpt lat="46.8096389807760715484619140625" lon="6.80740465410053730010986328125">
        <ele>653.79998779296875</ele>
        <time>2017-05-05T14:27:20.000Z</time>
        <extensions>
          <ns3:TrackPointExtension>
            <ns3:hr>152</ns3:hr>
          </ns3:TrackPointExtension>
        </extensions>
      </trkpt>
      <trkpt lat="46.80956161580979824066162109375" lon="6.8072887323796749114990234375">
        <ele>653.79998779296875</ele>
        <time>2017-05-05T14:27:22.000Z</time>
        <extensions>
          <ns3:TrackPointExtension>
            <ns3:hr>151</ns3:hr>
          </ns3:TrackPointExtension>
        </extensions>
      </trkpt>
      <trkpt lat="46.80937252007424831390380859375" lon="6.8069695495069026947021484375">
        <ele>653.20001220703125</ele>
        <time>2017-05-05T14:27:27.000Z</time>
        <extensions>
          <ns3:TrackPointExtension>
            <ns3:hr>148</ns3:hr>
          </ns3:TrackPointExtension>
        </extensions>
      </trkpt>
      <trkpt lat="46.8093063868582248687744140625" lon="6.8068334273993968963623046875">
        <ele>652.79998779296875</ele>
        <time>2017-05-05T14:27:29.000Z</time>
        <extensions>
          <ns3:TrackPointExtension>
            <ns3:hr>148</ns3:hr>
          </ns3:TrackPointExtension>
        </extensions>
      </trkpt>
      <trkpt lat="46.80918753147125244140625" lon="6.80656227283179759979248046875">
        <ele>651.79998779296875</ele>
        <time>2017-05-05T14:27:33.000Z</time>
        <extensions>
          <ns3:TrackPointExtension>
            <ns3:hr>148</ns3:hr>
          </ns3:TrackPointExtension>
        </extensions>
      </trkpt>
      <trkpt lat="46.80903573520481586456298828125" lon="6.8061430938541889190673828125">
        <ele>650.5999755859375</ele>
        <time>2017-05-05T14:27:39.000Z</time>
        <extensions>
          <ns3:TrackPointExtension>
            <ns3:hr>147</ns3:hr>
          </ns3:TrackPointExtension>
        </extensions>
      </trkpt>
      <trkpt lat="46.808957196772098541259765625" lon="6.805704049766063690185546875">
        <ele>649.5999755859375</ele>
        <time>2017-05-05T14:27:46.000Z</time>
        <extensions>
          <ns3:TrackPointExtension>
            <ns3:hr>147</ns3:hr>
          </ns3:TrackPointExtension>
        </extensions>
      </trkpt>
      <trkpt lat="46.80879785679280757904052734375" lon="6.80515042506158351898193359375">
        <ele>648.79998779296875</ele>
        <time>2017-05-05T14:27:55.000Z</time>
        <extensions>
          <ns3:TrackPointExtension>
            <ns3:hr>146</ns3:hr>
          </ns3:TrackPointExtension>
        </extensions>
      </trkpt>
      <trkpt lat="46.80838127620518207550048828125" lon="6.8045864067971706390380859375">
        <ele>649.4000244140625</ele>
        <time>2017-05-05T14:28:10.000Z</time>
        <extensions>
          <ns3:TrackPointExtension>
            <ns3:hr>147</ns3:hr>
          </ns3:TrackPointExtension>
        </extensions>
      </trkpt>
      <trkpt lat="46.80837172083556652069091796875" lon="6.80453837849199771881103515625">
        <ele>649.5999755859375</ele>
        <time>2017-05-05T14:28:11.000Z</time>
        <extensions>
          <ns3:TrackPointExtension>
            <ns3:hr>148</ns3:hr>
          </ns3:TrackPointExtension>
        </extensions>
      </trkpt>
      <trkpt lat="46.80826225318014621734619140625" lon="6.80426395498216152191162109375">
        <ele>650.5999755859375</ele>
        <time>2017-05-05T14:28:18.000Z</time>
        <extensions>
          <ns3:TrackPointExtension>
            <ns3:hr>147</ns3:hr>
          </ns3:TrackPointExtension>
        </extensions>
      </trkpt>
      <trkpt lat="46.8082274682819843292236328125" lon="6.80416236631572246551513671875">
        <ele>651</ele>
        <time>2017-05-05T14:28:21.000Z</time>
        <extensions>
          <ns3:TrackPointExtension>
            <ns3:hr>144</ns3:hr>
          </ns3:TrackPointExtension>
        </extensions>
      </trkpt>
      <trkpt lat="46.80822554044425487518310546875" lon="6.8041227199137210845947265625">
        <ele>651.20001220703125</ele>
        <time>2017-05-05T14:28:22.000Z</time>
        <extensions>
          <ns3:TrackPointExtension>
            <ns3:hr>140</ns3:hr>
          </ns3:TrackPointExtension>
        </extensions>
      </trkpt>
      <trkpt lat="46.80821162648499011993408203125" lon="6.8040757812559604644775390625">
        <ele>651.20001220703125</ele>
        <time>2017-05-05T14:28:23.000Z</time>
        <extensions>
          <ns3:TrackPointExtension>
            <ns3:hr>140</ns3:hr>
          </ns3:TrackPointExtension>
        </extensions>
      </trkpt>
      <trkpt lat="46.80815965868532657623291015625" lon="6.80398978292942047119140625">
        <ele>651.4000244140625</ele>
        <time>2017-05-05T14:28:25.000Z</time>
        <extensions>
          <ns3:TrackPointExtension>
            <ns3:hr>136</ns3:hr>
          </ns3:TrackPointExtension>
        </extensions>
      </trkpt>
      <trkpt lat="46.8080900050699710845947265625" lon="6.80390663444995880126953125">
        <ele>651.79998779296875</ele>
        <time>2017-05-05T14:28:27.000Z</time>
        <extensions>
          <ns3:TrackPointExtension>
            <ns3:hr>136</ns3:hr>
          </ns3:TrackPointExtension>
        </extensions>
      </trkpt>
      <trkpt lat="46.8077959679067134857177734375" lon="6.8032201565802097320556640625">
        <ele>652.4000244140625</ele>
        <time>2017-05-05T14:28:43.000Z</time>
        <extensions>
          <ns3:TrackPointExtension>
            <ns3:hr>136</ns3:hr>
          </ns3:TrackPointExtension>
        </extensions>
      </trkpt>
      <trkpt lat="46.8077983148396015167236328125" lon="6.80317263118922710418701171875">
        <ele>652.4000244140625</ele>
        <time>2017-05-05T14:28:44.000Z</time>
        <extensions>
          <ns3:TrackPointExtension>
            <ns3:hr>136</ns3:hr>
          </ns3:TrackPointExtension>
        </extensions>
      </trkpt>
      <trkpt lat="46.8078982271254062652587890625" lon="6.803076155483722686767578125">
        <ele>652.4000244140625</ele>
        <time>2017-05-05T14:28:47.000Z</time>
        <extensions>
          <ns3:TrackPointExtension>
            <ns3:hr>137</ns3:hr>
          </ns3:TrackPointExtension>
        </extensions>
      </trkpt>
      <trkpt lat="46.80830349214375019073486328125" lon="6.8029599823057651519775390625">
        <ele>651.5999755859375</ele>
        <time>2017-05-05T14:28:56.000Z</time>
        <extensions>
          <ns3:TrackPointExtension>
            <ns3:hr>137</ns3:hr>
          </ns3:TrackPointExtension>
        </extensions>
      </trkpt>
      <trkpt lat="46.8084051646292209625244140625" lon="6.80288043804466724395751953125">
        <ele>651.4000244140625</ele>
        <time>2017-05-05T14:28:58.000Z</time>
        <extensions>
          <ns3:TrackPointExtension>
            <ns3:hr>136</ns3:hr>
          </ns3:TrackPointExtension>
        </extensions>
      </trkpt>
      <trkpt lat="46.808669529855251312255859375" lon="6.8025204353034496307373046875">
        <ele>650.5999755859375</ele>
        <time>2017-05-05T14:29:03.000Z</time>
        <extensions>
          <ns3:TrackPointExtension>
            <ns3:hr>136</ns3:hr>
          </ns3:TrackPointExtension>
        </extensions>
      </trkpt>
      <trkpt lat="46.8087293766438961029052734375" lon="6.80244893766939640045166015625">
        <ele>650.5999755859375</ele>
        <time>2017-05-05T14:29:04.000Z</time>
        <extensions>
          <ns3:TrackPointExtension>
            <ns3:hr>140</ns3:hr>
          </ns3:TrackPointExtension>
        </extensions>
      </trkpt>
      <trkpt lat="46.8089070729911327362060546875" lon="6.8022336065769195556640625">
        <ele>649.5999755859375</ele>
        <time>2017-05-05T14:29:07.000Z</time>
        <extensions>
          <ns3:TrackPointExtension>
            <ns3:hr>141</ns3:hr>
          </ns3:TrackPointExtension>
        </extensions>
      </trkpt>
      <trkpt lat="46.8091887049376964569091796875" lon="6.801878549158573150634765625">
        <ele>649.4000244140625</ele>
        <time>2017-05-05T14:29:12.000Z</time>
        <extensions>
          <ns3:TrackPointExtension>
            <ns3:hr>138</ns3:hr>
          </ns3:TrackPointExtension>
        </extensions>
      </trkpt>
      <trkpt lat="46.8096245639026165008544921875" lon="6.80135392583906650543212890625">
        <ele>649</ele>
        <time>2017-05-05T14:29:19.000Z</time>
        <extensions>
          <ns3:TrackPointExtension>
            <ns3:hr>138</ns3:hr>
          </ns3:TrackPointExtension>
        </extensions>
      </trkpt>
      <trkpt lat="46.80986277759075164794921875" lon="6.80108964443206787109375">
        <ele>648</ele>
        <time>2017-05-05T14:29:23.000Z</time>
        <extensions>
          <ns3:TrackPointExtension>
            <ns3:hr>141</ns3:hr>
          </ns3:TrackPointExtension>
        </extensions>
      </trkpt>
      <trkpt lat="46.81002236902713775634765625" lon="6.80088370107114315032958984375">
        <ele>646.79998779296875</ele>
        <time>2017-05-05T14:29:26.000Z</time>
        <extensions>
          <ns3:TrackPointExtension>
            <ns3:hr>142</ns3:hr>
          </ns3:TrackPointExtension>
        </extensions>
      </trkpt>
      <trkpt lat="46.81047339923679828643798828125" lon="6.8003622628748416900634765625">
        <ele>646.20001220703125</ele>
        <time>2017-05-05T14:29:36.000Z</time>
        <extensions>
          <ns3:TrackPointExtension>
            <ns3:hr>143</ns3:hr>
          </ns3:TrackPointExtension>
        </extensions>
      </trkpt>
      <trkpt lat="46.81054900400340557098388671875" lon="6.80026260204613208770751953125">
        <ele>646.4000244140625</ele>
        <time>2017-05-05T14:29:38.000Z</time>
        <extensions>
          <ns3:TrackPointExtension>
            <ns3:hr>143</ns3:hr>
          </ns3:TrackPointExtension>
        </extensions>
      </trkpt>
      <trkpt lat="46.81096340529620647430419921875" lon="6.7997580952942371368408203125">
        <ele>647.79998779296875</ele>
        <time>2017-05-05T14:29:51.000Z</time>
        <extensions>
          <ns3:TrackPointExtension>
            <ns3:hr>143</ns3:hr>
          </ns3:TrackPointExtension>
        </extensions>
      </trkpt>
      <trkpt lat="46.8109934963285923004150390625" lon="6.79972632788121700286865234375">
        <ele>648.20001220703125</ele>
        <time>2017-05-05T14:29:52.000Z</time>
        <extensions>
          <ns3:TrackPointExtension>
            <ns3:hr>143</ns3:hr>
          </ns3:TrackPointExtension>
        </extensions>
      </trkpt>
      <trkpt lat="46.81110656820237636566162109375" lon="6.799588613212108612060546875">
        <ele>649.20001220703125</ele>
        <time>2017-05-05T14:29:56.000Z</time>
        <extensions>
          <ns3:TrackPointExtension>
            <ns3:hr>144</ns3:hr>
          </ns3:TrackPointExtension>
        </extensions>
      </trkpt>
      <trkpt lat="46.81116767227649688720703125" lon="6.79951476864516735076904296875">
        <ele>650</ele>
        <time>2017-05-05T14:29:58.000Z</time>
        <extensions>
          <ns3:TrackPointExtension>
            <ns3:hr>144</ns3:hr>
          </ns3:TrackPointExtension>
        </extensions>
      </trkpt>
      <trkpt lat="46.811182759702205657958984375" lon="6.79945542477071285247802734375">
        <ele>650.4000244140625</ele>
        <time>2017-05-05T14:29:59.000Z</time>
        <extensions>
          <ns3:TrackPointExtension>
            <ns3:hr>144</ns3:hr>
          </ns3:TrackPointExtension>
        </extensions>
      </trkpt>
      <trkpt lat="46.8111815862357616424560546875" lon="6.79939113557338714599609375">
        <ele>650.4000244140625</ele>
        <time>2017-05-05T14:30:00.000Z</time>
        <extensions>
          <ns3:TrackPointExtension>
            <ns3:hr>143</ns3:hr>
          </ns3:TrackPointExtension>
        </extensions>
      </trkpt>
      <trkpt lat="46.8110709451138973236083984375" lon="6.79913221858441829681396484375">
        <ele>650.5999755859375</ele>
        <time>2017-05-05T14:30:04.000Z</time>
        <extensions>
          <ns3:TrackPointExtension>
            <ns3:hr>143</ns3:hr>
          </ns3:TrackPointExtension>
        </extensions>
      </trkpt>
      <trkpt lat="46.81072737090289592742919921875" lon="6.7984220199286937713623046875">
        <ele>650</ele>
        <time>2017-05-05T14:30:14.000Z</time>
        <extensions>
          <ns3:TrackPointExtension>
            <ns3:hr>145</ns3:hr>
          </ns3:TrackPointExtension>
        </extensions>
      </trkpt>
      <trkpt lat="46.81041237898170948028564453125" lon="6.79776077158749103546142578125">
        <ele>649.5999755859375</ele>
        <time>2017-05-05T14:30:23.000Z</time>
        <extensions>
          <ns3:TrackPointExtension>
            <ns3:hr>147</ns3:hr>
          </ns3:TrackPointExtension>
        </extensions>
      </trkpt>
      <trkpt lat="46.810375750064849853515625" lon="6.7976830713450908660888671875">
        <ele>649.5999755859375</ele>
        <time>2017-05-05T14:30:24.000Z</time>
        <extensions>
          <ns3:TrackPointExtension>
            <ns3:hr>147</ns3:hr>
          </ns3:TrackPointExtension>
        </extensions>
      </trkpt>
      <trkpt lat="46.81014667265117168426513671875" lon="6.79720052517950534820556640625">
        <ele>649.5999755859375</ele>
        <time>2017-05-05T14:30:31.000Z</time>
        <extensions>
          <ns3:TrackPointExtension>
            <ns3:hr>144</ns3:hr>
          </ns3:TrackPointExtension>
        </extensions>
      </trkpt>
      <trkpt lat="46.81003033183515071868896484375" lon="6.79697086103260517120361328125">
        <ele>649.20001220703125</ele>
        <time>2017-05-05T14:30:35.000Z</time>
        <extensions>
          <ns3:TrackPointExtension>
            <ns3:hr>142</ns3:hr>
          </ns3:TrackPointExtension>
        </extensions>
      </trkpt>
      <trkpt lat="46.80993008427321910858154296875" lon="6.796700544655323028564453125">
        <ele>649</ele>
        <time>2017-05-05T14:30:39.000Z</time>
        <extensions>
          <ns3:TrackPointExtension>
            <ns3:hr>142</ns3:hr>
          </ns3:TrackPointExtension>
        </extensions>
      </trkpt>
      <trkpt lat="46.80996277369558811187744140625" lon="6.7965223453938961029052734375">
        <ele>648.5999755859375</ele>
        <time>2017-05-05T14:30:41.000Z</time>
        <extensions>
          <ns3:TrackPointExtension>
            <ns3:hr>141</ns3:hr>
          </ns3:TrackPointExtension>
        </extensions>
      </trkpt>
      <trkpt lat="46.8101164139807224273681640625" lon="6.79628203622996807098388671875">
        <ele>648.20001220703125</ele>
        <time>2017-05-05T14:30:44.000Z</time>
        <extensions>
          <ns3:TrackPointExtension>
            <ns3:hr>140</ns3:hr>
          </ns3:TrackPointExtension>
        </extensions>
      </trkpt>
      <trkpt lat="46.810176260769367218017578125" lon="6.79620458744466304779052734375">
        <ele>648.20001220703125</ele>
        <time>2017-05-05T14:30:45.000Z</time>
        <extensions>
          <ns3:TrackPointExtension>
            <ns3:hr>140</ns3:hr>
          </ns3:TrackPointExtension>
        </extensions>
      </trkpt>
      <trkpt lat="46.8103142268955707550048828125" lon="6.79606385529041290283203125">
        <ele>647</ele>
        <time>2017-05-05T14:30:47.000Z</time>
        <extensions>
          <ns3:TrackPointExtension>
            <ns3:hr>139</ns3:hr>
          </ns3:TrackPointExtension>
        </extensions>
      </trkpt>
      <trkpt lat="46.81044347584247589111328125" lon="6.79590317420661449432373046875">
        <ele>645.79998779296875</ele>
        <time>2017-05-05T14:30:49.000Z</time>
        <extensions>
          <ns3:TrackPointExtension>
            <ns3:hr>139</ns3:hr>
          </ns3:TrackPointExtension>
        </extensions>
      </trkpt>
      <trkpt lat="46.81056308560073375701904296875" lon="6.7957217060029506683349609375">
        <ele>644.4000244140625</ele>
        <time>2017-05-05T14:30:51.000Z</time>
        <extensions>
          <ns3:TrackPointExtension>
            <ns3:hr>139</ns3:hr>
          </ns3:TrackPointExtension>
        </extensions>
      </trkpt>
      <trkpt lat="46.81061555631458759307861328125" lon="6.795629672706127166748046875">
        <ele>643</ele>
        <time>2017-05-05T14:30:52.000Z</time>
        <extensions>
          <ns3:TrackPointExtension>
            <ns3:hr>139</ns3:hr>
          </ns3:TrackPointExtension>
        </extensions>
      </trkpt>
      <trkpt lat="46.810712032020092010498046875" lon="6.7954487912356853485107421875">
        <ele>641.20001220703125</ele>
        <time>2017-05-05T14:30:54.000Z</time>
        <extensions>
          <ns3:TrackPointExtension>
            <ns3:hr>140</ns3:hr>
          </ns3:TrackPointExtension>
        </extensions>
      </trkpt>
      <trkpt lat="46.81080062873661518096923828125" lon="6.7952680774033069610595703125">
        <ele>640.20001220703125</ele>
        <time>2017-05-05T14:30:56.000Z</time>
        <extensions>
          <ns3:TrackPointExtension>
            <ns3:hr>140</ns3:hr>
          </ns3:TrackPointExtension>
        </extensions>
      </trkpt>
      <trkpt lat="46.81104940362274646759033203125" lon="6.79449610412120819091796875">
        <ele>639.20001220703125</ele>
        <time>2017-05-05T14:31:04.000Z</time>
        <extensions>
          <ns3:TrackPointExtension>
            <ns3:hr>141</ns3:hr>
          </ns3:TrackPointExtension>
        </extensions>
      </trkpt>
      <trkpt lat="46.81132583878934383392333984375" lon="6.7937274836003780364990234375">
        <ele>639</ele>
        <time>2017-05-05T14:31:11.000Z</time>
        <extensions>
          <ns3:TrackPointExtension>
            <ns3:hr>142</ns3:hr>
          </ns3:TrackPointExtension>
        </extensions>
      </trkpt>
      <trkpt lat="46.81146112270653247833251953125" lon="6.7933486215770244598388671875">
        <ele>637.79998779296875</ele>
        <time>2017-05-05T14:31:14.000Z</time>
        <extensions>
          <ns3:TrackPointExtension>
            <ns3:hr>144</ns3:hr>
          </ns3:TrackPointExtension>
        </extensions>
      </trkpt>
      <trkpt lat="46.811532787978649139404296875" lon="6.7931270040571689605712890625">
        <ele>636.5999755859375</ele>
        <time>2017-05-05T14:31:16.000Z</time>
        <extensions>
          <ns3:TrackPointExtension>
            <ns3:hr>145</ns3:hr>
          </ns3:TrackPointExtension>
        </extensions>
      </trkpt>
      <trkpt lat="46.8116231448948383331298828125" lon="6.79295651614665985107421875">
        <ele>635</ele>
        <time>2017-05-05T14:31:18.000Z</time>
        <extensions>
          <ns3:TrackPointExtension>
            <ns3:hr>145</ns3:hr>
          </ns3:TrackPointExtension>
        </extensions>
      </trkpt>
      <trkpt lat="46.81167435832321643829345703125" lon="6.79289574734866619110107421875">
        <ele>633.79998779296875</ele>
        <time>2017-05-05T14:31:19.000Z</time>
        <extensions>
          <ns3:TrackPointExtension>
            <ns3:hr>146</ns3:hr>
          </ns3:TrackPointExtension>
        </extensions>
      </trkpt>
      <trkpt lat="46.81172716431319713592529296875" lon="6.79287177510559558868408203125">
        <ele>633.20001220703125</ele>
        <time>2017-05-05T14:31:20.000Z</time>
        <extensions>
          <ns3:TrackPointExtension>
            <ns3:hr>146</ns3:hr>
          </ns3:TrackPointExtension>
        </extensions>
      </trkpt>
      <trkpt lat="46.8117867596447467803955078125" lon="6.79286255501210689544677734375">
        <ele>631.5999755859375</ele>
        <time>2017-05-05T14:31:21.000Z</time>
        <extensions>
          <ns3:TrackPointExtension>
            <ns3:hr>146</ns3:hr>
          </ns3:TrackPointExtension>
        </extensions>
      </trkpt>
      <trkpt lat="46.811848618090152740478515625" lon="6.792879737913608551025390625">
        <ele>630.79998779296875</ele>
        <time>2017-05-05T14:31:22.000Z</time>
        <extensions>
          <ns3:TrackPointExtension>
            <ns3:hr>145</ns3:hr>
          </ns3:TrackPointExtension>
        </extensions>
      </trkpt>
      <trkpt lat="46.81189228780567646026611328125" lon="6.7929048836231231689453125">
        <ele>630.4000244140625</ele>
        <time>2017-05-05T14:31:23.000Z</time>
        <extensions>
          <ns3:TrackPointExtension>
            <ns3:hr>145</ns3:hr>
          </ns3:TrackPointExtension>
        </extensions>
      </trkpt>
      <trkpt lat="46.81193252094089984893798828125" lon="6.79293313063681125640869140625">
        <ele>630.20001220703125</ele>
        <time>2017-05-05T14:31:24.000Z</time>
        <extensions>
          <ns3:TrackPointExtension>
            <ns3:hr>145</ns3:hr>
          </ns3:TrackPointExtension>
        </extensions>
      </trkpt>
      <trkpt lat="46.81212832219898700714111328125" lon="6.793136559426784515380859375">
        <ele>630</ele>
        <time>2017-05-05T14:31:30.000Z</time>
        <extensions>
          <ns3:TrackPointExtension>
            <ns3:hr>148</ns3:hr>
          </ns3:TrackPointExtension>
        </extensions>
      </trkpt>
      <trkpt lat="46.81246343068778514862060546875" lon="6.79353059269487857818603515625">
        <ele>630.5999755859375</ele>
        <time>2017-05-05T14:31:40.000Z</time>
        <extensions>
          <ns3:TrackPointExtension>
            <ns3:hr>145</ns3:hr>
          </ns3:TrackPointExtension>
        </extensions>
      </trkpt>
      <trkpt lat="46.81250953115522861480712890625" lon="6.79377769120037555694580078125">
        <ele>631.4000244140625</ele>
        <time>2017-05-05T14:31:45.000Z</time>
        <extensions>
          <ns3:TrackPointExtension>
            <ns3:hr>145</ns3:hr>
          </ns3:TrackPointExtension>
        </extensions>
      </trkpt>
      <trkpt lat="46.8125364370644092559814453125" lon="6.79396636784076690673828125">
        <ele>632.79998779296875</ele>
        <time>2017-05-05T14:31:49.000Z</time>
        <extensions>
          <ns3:TrackPointExtension>
            <ns3:hr>145</ns3:hr>
          </ns3:TrackPointExtension>
        </extensions>
      </trkpt>
      <trkpt lat="46.81253400631248950958251953125" lon="6.79410986602306365966796875">
        <ele>634</ele>
        <time>2017-05-05T14:31:52.000Z</time>
        <extensions>
          <ns3:TrackPointExtension>
            <ns3:hr>144</ns3:hr>
          </ns3:TrackPointExtension>
        </extensions>
      </trkpt>
      <trkpt lat="46.81252109818160533905029296875" lon="6.794247664511203765869140625">
        <ele>635.20001220703125</ele>
        <time>2017-05-05T14:31:55.000Z</time>
        <extensions>
          <ns3:TrackPointExtension>
            <ns3:hr>144</ns3:hr>
          </ns3:TrackPointExtension>
        </extensions>
      </trkpt>
      <trkpt lat="46.8128968589007854461669921875" lon="6.794658713042736053466796875">
        <ele>636.20001220703125</ele>
        <time>2017-05-05T14:32:07.000Z</time>
        <extensions>
          <ns3:TrackPointExtension>
            <ns3:hr>143</ns3:hr>
          </ns3:TrackPointExtension>
        </extensions>
      </trkpt>
      <trkpt lat="46.81345232762396335601806640625" lon="6.79479994811117649078369140625">
        <ele>636.5999755859375</ele>
        <time>2017-05-05T14:32:19.000Z</time>
        <extensions>
          <ns3:TrackPointExtension>
            <ns3:hr>144</ns3:hr>
          </ns3:TrackPointExtension>
        </extensions>
      </trkpt>
      <trkpt lat="46.81371132843196392059326171875" lon="6.794847138226032257080078125">
        <ele>635.4000244140625</ele>
        <time>2017-05-05T14:32:23.000Z</time>
        <extensions>
          <ns3:TrackPointExtension>
            <ns3:hr>144</ns3:hr>
          </ns3:TrackPointExtension>
        </extensions>
      </trkpt>
      <trkpt lat="46.81377486325800418853759765625" lon="6.79486800916492938995361328125">
        <ele>634.79998779296875</ele>
        <time>2017-05-05T14:32:24.000Z</time>
        <extensions>
          <ns3:TrackPointExtension>
            <ns3:hr>144</ns3:hr>
          </ns3:TrackPointExtension>
        </extensions>
      </trkpt>
      <trkpt lat="46.81383873336017131805419921875" lon="6.79489910602569580078125">
        <ele>634.5999755859375</ele>
        <time>2017-05-05T14:32:25.000Z</time>
        <extensions>
          <ns3:TrackPointExtension>
            <ns3:hr>144</ns3:hr>
          </ns3:TrackPointExtension>
        </extensions>
      </trkpt>
      <trkpt lat="46.81402967311441898345947265625" lon="6.79502609185874462127685546875">
        <ele>633.79998779296875</ele>
        <time>2017-05-05T14:32:28.000Z</time>
        <extensions>
          <ns3:TrackPointExtension>
            <ns3:hr>146</ns3:hr>
          </ns3:TrackPointExtension>
        </extensions>
      </trkpt>
      <trkpt lat="46.81432639248669147491455078125" lon="6.795333959162235260009765625">
        <ele>633</ele>
        <time>2017-05-05T14:32:33.000Z</time>
        <extensions>
          <ns3:TrackPointExtension>
            <ns3:hr>147</ns3:hr>
          </ns3:TrackPointExtension>
        </extensions>
      </trkpt>
      <trkpt lat="46.81437433697283267974853515625" lon="6.79541551508009433746337890625">
        <ele>632.79998779296875</ele>
        <time>2017-05-05T14:32:34.000Z</time>
        <extensions>
          <ns3:TrackPointExtension>
            <ns3:hr>146</ns3:hr>
          </ns3:TrackPointExtension>
        </extensions>
      </trkpt>
      <trkpt lat="46.81447123177349567413330078125" lon="6.7955772019922733306884765625">
        <ele>632.20001220703125</ele>
        <time>2017-05-05T14:32:36.000Z</time>
        <extensions>
          <ns3:TrackPointExtension>
            <ns3:hr>147</ns3:hr>
          </ns3:TrackPointExtension>
        </extensions>
      </trkpt>
      <trkpt lat="46.81453250348567962646484375" lon="6.79564953781664371490478515625">
        <ele>631.5999755859375</ele>
        <time>2017-05-05T14:32:37.000Z</time>
        <extensions>
          <ns3:TrackPointExtension>
            <ns3:hr>146</ns3:hr>
          </ns3:TrackPointExtension>
        </extensions>
      </trkpt>
      <trkpt lat="46.814603246748447418212890625" lon="6.7957106418907642364501953125">
        <ele>631</ele>
        <time>2017-05-05T14:32:38.000Z</time>
        <extensions>
          <ns3:TrackPointExtension>
            <ns3:hr>146</ns3:hr>
          </ns3:TrackPointExtension>
        </extensions>
      </trkpt>
      <trkpt lat="46.81474263779819011688232421875" lon="6.7958403937518596649169921875">
        <ele>629.79998779296875</ele>
        <time>2017-05-05T14:32:40.000Z</time>
        <extensions>
          <ns3:TrackPointExtension>
            <ns3:hr>146</ns3:hr>
          </ns3:TrackPointExtension>
        </extensions>
      </trkpt>
      <trkpt lat="46.81491849012672901153564453125" lon="6.7960737459361553192138671875">
        <ele>628.79998779296875</ele>
        <time>2017-05-05T14:32:43.000Z</time>
        <extensions>
          <ns3:TrackPointExtension>
            <ns3:hr>147</ns3:hr>
          </ns3:TrackPointExtension>
        </extensions>
      </trkpt>
      <trkpt lat="46.81506550870835781097412109375" lon="6.79635889828205108642578125">
        <ele>627.4000244140625</ele>
        <time>2017-05-05T14:32:46.000Z</time>
        <extensions>
          <ns3:TrackPointExtension>
            <ns3:hr>147</ns3:hr>
          </ns3:TrackPointExtension>
        </extensions>
      </trkpt>
      <trkpt lat="46.81516994722187519073486328125" lon="6.79654757492244243621826171875">
        <ele>626.20001220703125</ele>
        <time>2017-05-05T14:32:48.000Z</time>
        <extensions>
          <ns3:TrackPointExtension>
            <ns3:hr>147</ns3:hr>
          </ns3:TrackPointExtension>
        </extensions>
      </trkpt>
      <trkpt lat="46.81536859832704067230224609375" lon="6.79690782912075519561767578125">
        <ele>625.20001220703125</ele>
        <time>2017-05-05T14:32:52.000Z</time>
        <extensions>
          <ns3:TrackPointExtension>
            <ns3:hr>147</ns3:hr>
          </ns3:TrackPointExtension>
        </extensions>
      </trkpt>
      <trkpt lat="46.8154543451964855194091796875" lon="6.7970846034586429595947265625">
        <ele>624</ele>
        <time>2017-05-05T14:32:54.000Z</time>
        <extensions>
          <ns3:TrackPointExtension>
            <ns3:hr>147</ns3:hr>
          </ns3:TrackPointExtension>
        </extensions>
      </trkpt>
      <trkpt lat="46.81550807319581508636474609375" lon="6.79728216491639614105224609375">
        <ele>622.79998779296875</ele>
        <time>2017-05-05T14:32:56.000Z</time>
        <extensions>
          <ns3:TrackPointExtension>
            <ns3:hr>147</ns3:hr>
          </ns3:TrackPointExtension>
        </extensions>
      </trkpt>
      <trkpt lat="46.81552802212536334991455078125" lon="6.7974644713103771209716796875">
        <ele>622.20001220703125</ele>
        <time>2017-05-05T14:32:58.000Z</time>
        <extensions>
          <ns3:TrackPointExtension>
            <ns3:hr>146</ns3:hr>
          </ns3:TrackPointExtension>
        </extensions>
      </trkpt>
      <trkpt lat="46.8155482225120067596435546875" lon="6.79763973690569400787353515625">
        <ele>622</ele>
        <time>2017-05-05T14:33:00.000Z</time>
        <extensions>
          <ns3:TrackPointExtension>
            <ns3:hr>145</ns3:hr>
          </ns3:TrackPointExtension>
        </extensions>
      </trkpt>
      <trkpt lat="46.81561955250799655914306640625" lon="6.79778759367763996124267578125">
        <ele>621.79998779296875</ele>
        <time>2017-05-05T14:33:02.000Z</time>
        <extensions>
          <ns3:TrackPointExtension>
            <ns3:hr>145</ns3:hr>
          </ns3:TrackPointExtension>
        </extensions>
      </trkpt>
      <trkpt lat="46.8158174492418766021728515625" lon="6.7980914376676082611083984375">
        <ele>621</ele>
        <time>2017-05-05T14:33:07.000Z</time>
        <extensions>
          <ns3:TrackPointExtension>
            <ns3:hr>145</ns3:hr>
          </ns3:TrackPointExtension>
        </extensions>
      </trkpt>
      <trkpt lat="46.8158278428018093109130859375" lon="6.79825932718813419342041015625">
        <ele>620.79998779296875</ele>
        <time>2017-05-05T14:33:09.000Z</time>
        <extensions>
          <ns3:TrackPointExtension>
            <ns3:hr>145</ns3:hr>
          </ns3:TrackPointExtension>
        </extensions>
      </trkpt>
      <trkpt lat="46.815808229148387908935546875" lon="6.7983492650091648101806640625">
        <ele>620.5999755859375</ele>
        <time>2017-05-05T14:33:10.000Z</time>
        <extensions>
          <ns3:TrackPointExtension>
            <ns3:hr>144</ns3:hr>
          </ns3:TrackPointExtension>
        </extensions>
      </trkpt>
      <trkpt lat="46.81578316725790500640869140625" lon="6.7984129674732685089111328125">
        <ele>620.5999755859375</ele>
        <time>2017-05-05T14:33:11.000Z</time>
        <extensions>
          <ns3:TrackPointExtension>
            <ns3:hr>144</ns3:hr>
          </ns3:TrackPointExtension>
        </extensions>
      </trkpt>
      <trkpt lat="46.8157146871089935302734375" lon="6.79851061664521694183349609375">
        <ele>620.5999755859375</ele>
        <time>2017-05-05T14:33:13.000Z</time>
        <extensions>
          <ns3:TrackPointExtension>
            <ns3:hr>143</ns3:hr>
          </ns3:TrackPointExtension>
        </extensions>
      </trkpt>
      <trkpt lat="46.81547664105892181396484375" lon="6.798916719853878021240234375">
        <ele>619.5999755859375</ele>
        <time>2017-05-05T14:33:20.000Z</time>
        <extensions>
          <ns3:TrackPointExtension>
            <ns3:hr>143</ns3:hr>
          </ns3:TrackPointExtension>
        </extensions>
      </trkpt>
      <trkpt lat="46.8151760660111904144287109375" lon="6.79943312890827655792236328125">
        <ele>620</ele>
        <time>2017-05-05T14:33:30.000Z</time>
        <extensions>
          <ns3:TrackPointExtension>
            <ns3:hr>145</ns3:hr>
          </ns3:TrackPointExtension>
        </extensions>
      </trkpt>
      <trkpt lat="46.8149745650589466094970703125" lon="6.7999247275292873382568359375">
        <ele>620</ele>
        <time>2017-05-05T14:33:37.000Z</time>
        <extensions>
          <ns3:TrackPointExtension>
            <ns3:hr>144</ns3:hr>
          </ns3:TrackPointExtension>
        </extensions>
      </trkpt>
      <trkpt lat="46.81497146375477313995361328125" lon="6.8001121468842029571533203125">
        <ele>620</ele>
        <time>2017-05-05T14:33:39.000Z</time>
        <extensions>
          <ns3:TrackPointExtension>
            <ns3:hr>144</ns3:hr>
          </ns3:TrackPointExtension>
        </extensions>
      </trkpt>
      <trkpt lat="46.81504136882722377777099609375" lon="6.80031456984579563140869140625">
        <ele>620</ele>
        <time>2017-05-05T14:33:41.000Z</time>
        <extensions>
          <ns3:TrackPointExtension>
            <ns3:hr>145</ns3:hr>
          </ns3:TrackPointExtension>
        </extensions>
      </trkpt>
      <trkpt lat="46.81533984839916229248046875" lon="6.800995767116546630859375">
        <ele>619.20001220703125</ele>
        <time>2017-05-05T14:33:47.000Z</time>
        <extensions>
          <ns3:TrackPointExtension>
            <ns3:hr>143</ns3:hr>
          </ns3:TrackPointExtension>
        </extensions>
      </trkpt>
      <trkpt lat="46.81565341539680957794189453125" lon="6.80165047757327556610107421875">
        <ele>618.5999755859375</ele>
        <time>2017-05-05T14:33:52.000Z</time>
        <extensions>
          <ns3:TrackPointExtension>
            <ns3:hr>142</ns3:hr>
          </ns3:TrackPointExtension>
        </extensions>
      </trkpt>
      <trkpt lat="46.81578283198177814483642578125" lon="6.8019243143498897552490234375">
        <ele>617.4000244140625</ele>
        <time>2017-05-05T14:33:54.000Z</time>
        <extensions>
          <ns3:TrackPointExtension>
            <ns3:hr>143</ns3:hr>
          </ns3:TrackPointExtension>
        </extensions>
      </trkpt>
      <trkpt lat="46.8159126676619052886962890625" lon="6.802215166389942169189453125">
        <ele>613.20001220703125</ele>
        <time>2017-05-05T14:33:56.000Z</time>
        <extensions>
          <ns3:TrackPointExtension>
            <ns3:hr>144</ns3:hr>
          </ns3:TrackPointExtension>
        </extensions>
      </trkpt>
      <trkpt lat="46.81597360409796237945556640625" lon="6.80235757492482662200927734375">
        <ele>610.4000244140625</ele>
        <time>2017-05-05T14:33:57.000Z</time>
        <extensions>
          <ns3:TrackPointExtension>
            <ns3:hr>144</ns3:hr>
          </ns3:TrackPointExtension>
        </extensions>
      </trkpt>
      <trkpt lat="46.8160320259630680084228515625" lon="6.8024835549294948577880859375">
        <ele>608.5999755859375</ele>
        <time>2017-05-05T14:33:58.000Z</time>
        <extensions>
          <ns3:TrackPointExtension>
            <ns3:hr>145</ns3:hr>
          </ns3:TrackPointExtension>
        </extensions>
      </trkpt>
      <trkpt lat="46.816074438393115997314453125" lon="6.80258698761463165283203125">
        <ele>607.4000244140625</ele>
        <time>2017-05-05T14:33:59.000Z</time>
        <extensions>
          <ns3:TrackPointExtension>
            <ns3:hr>145</ns3:hr>
          </ns3:TrackPointExtension>
        </extensions>
      </trkpt>
      <trkpt lat="46.8161384761333465576171875" lon="6.80264876224100589752197265625">
        <ele>606</ele>
        <time>2017-05-05T14:34:00.000Z</time>
        <extensions>
          <ns3:TrackPointExtension>
            <ns3:hr>145</ns3:hr>
          </ns3:TrackPointExtension>
        </extensions>
      </trkpt>
      <trkpt lat="46.81620561517775058746337890625" lon="6.80266737006604671478271484375">
        <ele>604.20001220703125</ele>
        <time>2017-05-05T14:34:01.000Z</time>
        <extensions>
          <ns3:TrackPointExtension>
            <ns3:hr>145</ns3:hr>
          </ns3:TrackPointExtension>
        </extensions>
      </trkpt>
      <trkpt lat="46.81627384386956691741943359375" lon="6.802640967071056365966796875">
        <ele>603</ele>
        <time>2017-05-05T14:34:02.000Z</time>
        <extensions>
          <ns3:TrackPointExtension>
            <ns3:hr>144</ns3:hr>
          </ns3:TrackPointExtension>
        </extensions>
      </trkpt>
      <trkpt lat="46.8164155818521976470947265625" lon="6.80254851467907428741455078125">
        <ele>601.5999755859375</ele>
        <time>2017-05-05T14:34:04.000Z</time>
        <extensions>
          <ns3:TrackPointExtension>
            <ns3:hr>144</ns3:hr>
          </ns3:TrackPointExtension>
        </extensions>
      </trkpt>
      <trkpt lat="46.81656771339476108551025390625" lon="6.80247056297957897186279296875">
        <ele>600.4000244140625</ele>
        <time>2017-05-05T14:34:06.000Z</time>
        <extensions>
          <ns3:TrackPointExtension>
            <ns3:hr>143</ns3:hr>
          </ns3:TrackPointExtension>
        </extensions>
      </trkpt>
      <trkpt lat="46.816861331462860107421875" lon="6.80236260406672954559326171875">
        <ele>599.5999755859375</ele>
        <time>2017-05-05T14:34:10.000Z</time>
        <extensions>
          <ns3:TrackPointExtension>
            <ns3:hr>144</ns3:hr>
          </ns3:TrackPointExtension>
        </extensions>
      </trkpt>
      <trkpt lat="46.81697926484048366546630859375" lon="6.80224902927875518798828125">
        <ele>599.20001220703125</ele>
        <time>2017-05-05T14:34:12.000Z</time>
        <extensions>
          <ns3:TrackPointExtension>
            <ns3:hr>144</ns3:hr>
          </ns3:TrackPointExtension>
        </extensions>
      </trkpt>
      <trkpt lat="46.817127875983715057373046875" lon="6.8020332790911197662353515625">
        <ele>598.79998779296875</ele>
        <time>2017-05-05T14:34:16.000Z</time>
        <extensions>
          <ns3:TrackPointExtension>
            <ns3:hr>144</ns3:hr>
          </ns3:TrackPointExtension>
        </extensions>
      </trkpt>
      <trkpt lat="46.81719602085649967193603515625" lon="6.80200704373419284820556640625">
        <ele>598.4000244140625</ele>
        <time>2017-05-05T14:34:18.000Z</time>
        <extensions>
          <ns3:TrackPointExtension>
            <ns3:hr>144</ns3:hr>
          </ns3:TrackPointExtension>
        </extensions>
      </trkpt>
      <trkpt lat="46.817220412194728851318359375" lon="6.80202431045472621917724609375">
        <ele>597.79998779296875</ele>
        <time>2017-05-05T14:34:19.000Z</time>
        <extensions>
          <ns3:TrackPointExtension>
            <ns3:hr>145</ns3:hr>
          </ns3:TrackPointExtension>
        </extensions>
      </trkpt>
      <trkpt lat="46.8172370083630084991455078125" lon="6.80210930295288562774658203125">
        <ele>597</ele>
        <time>2017-05-05T14:34:21.000Z</time>
        <extensions>
          <ns3:TrackPointExtension>
            <ns3:hr>145</ns3:hr>
          </ns3:TrackPointExtension>
        </extensions>
      </trkpt>
      <trkpt lat="46.81727372109889984130859375" lon="6.8021549843251705169677734375">
        <ele>596.4000244140625</ele>
        <time>2017-05-05T14:34:22.000Z</time>
        <extensions>
          <ns3:TrackPointExtension>
            <ns3:hr>144</ns3:hr>
          </ns3:TrackPointExtension>
        </extensions>
      </trkpt>
      <trkpt lat="46.81733314879238605499267578125" lon="6.80234533734619617462158203125">
        <ele>595.20001220703125</ele>
        <time>2017-05-05T14:34:25.000Z</time>
        <extensions>
          <ns3:TrackPointExtension>
            <ns3:hr>143</ns3:hr>
          </ns3:TrackPointExtension>
        </extensions>
      </trkpt>
      <trkpt lat="46.8173761479556560516357421875" lon="6.802509538829326629638671875">
        <ele>593.4000244140625</ele>
        <time>2017-05-05T14:34:28.000Z</time>
        <extensions>
          <ns3:TrackPointExtension>
            <ns3:hr>143</ns3:hr>
          </ns3:TrackPointExtension>
        </extensions>
      </trkpt>
      <trkpt lat="46.8173922412097454071044921875" lon="6.802600063383579254150390625">
        <ele>592.4000244140625</ele>
        <time>2017-05-05T14:34:30.000Z</time>
        <extensions>
          <ns3:TrackPointExtension>
            <ns3:hr>143</ns3:hr>
          </ns3:TrackPointExtension>
        </extensions>
      </trkpt>
      <trkpt lat="46.8173965997993946075439453125" lon="6.80263870395720005035400390625">
        <ele>590.79998779296875</ele>
        <time>2017-05-05T14:34:31.000Z</time>
        <extensions>
          <ns3:TrackPointExtension>
            <ns3:hr>143</ns3:hr>
          </ns3:TrackPointExtension>
        </extensions>
      </trkpt>
      <trkpt lat="46.817375980317592620849609375" lon="6.80269503034651279449462890625">
        <ele>589.79998779296875</ele>
        <time>2017-05-05T14:34:32.000Z</time>
        <extensions>
          <ns3:TrackPointExtension>
            <ns3:hr>143</ns3:hr>
          </ns3:TrackPointExtension>
        </extensions>
      </trkpt>
      <trkpt lat="46.81734203360974788665771484375" lon="6.8027968704700469970703125">
        <ele>588</ele>
        <time>2017-05-05T14:34:34.000Z</time>
        <extensions>
          <ns3:TrackPointExtension>
            <ns3:hr>143</ns3:hr>
          </ns3:TrackPointExtension>
        </extensions>
      </trkpt>
      <trkpt lat="46.81735016405582427978515625" lon="6.80284288711845874786376953125">
        <ele>586.79998779296875</ele>
        <time>2017-05-05T14:34:36.000Z</time>
        <extensions>
          <ns3:TrackPointExtension>
            <ns3:hr>144</ns3:hr>
          </ns3:TrackPointExtension>
        </extensions>
      </trkpt>
      <trkpt lat="46.81736223399639129638671875" lon="6.80285093374550342559814453125">
        <ele>585.5999755859375</ele>
        <time>2017-05-05T14:34:37.000Z</time>
        <extensions>
          <ns3:TrackPointExtension>
            <ns3:hr>144</ns3:hr>
          </ns3:TrackPointExtension>
        </extensions>
      </trkpt>
      <trkpt lat="46.81738042272627353668212890625" lon="6.80285512469708919525146484375">
        <ele>584.20001220703125</ele>
        <time>2017-05-05T14:34:38.000Z</time>
        <extensions>
          <ns3:TrackPointExtension>
            <ns3:hr>144</ns3:hr>
          </ns3:TrackPointExtension>
        </extensions>
      </trkpt>
      <trkpt lat="46.81741244159638881683349609375" lon="6.80286996066570281982421875">
        <ele>583.20001220703125</ele>
        <time>2017-05-05T14:34:40.000Z</time>
        <extensions>
          <ns3:TrackPointExtension>
            <ns3:hr>144</ns3:hr>
          </ns3:TrackPointExtension>
        </extensions>
      </trkpt>
      <trkpt lat="46.81774134747684001922607421875" lon="6.8028064258396625518798828125">
        <ele>582.20001220703125</ele>
        <time>2017-05-05T14:34:50.000Z</time>
        <extensions>
          <ns3:TrackPointExtension>
            <ns3:hr>145</ns3:hr>
          </ns3:TrackPointExtension>
        </extensions>
      </trkpt>
      <trkpt lat="46.8178381584584712982177734375" lon="6.80279511027038097381591796875">
        <ele>582.20001220703125</ele>
        <time>2017-05-05T14:34:52.000Z</time>
        <extensions>
          <ns3:TrackPointExtension>
            <ns3:hr>145</ns3:hr>
          </ns3:TrackPointExtension>
        </extensions>
      </trkpt>
      <trkpt lat="46.818127334117889404296875" lon="6.8027941882610321044921875">
        <ele>582.4000244140625</ele>
        <time>2017-05-05T14:34:59.000Z</time>
        <extensions>
          <ns3:TrackPointExtension>
            <ns3:hr>142</ns3:hr>
          </ns3:TrackPointExtension>
        </extensions>
      </trkpt>
      <trkpt lat="46.81866855360567569732666015625" lon="6.8026428110897541046142578125">
        <ele>583.4000244140625</ele>
        <time>2017-05-05T14:35:14.000Z</time>
        <extensions>
          <ns3:TrackPointExtension>
            <ns3:hr>144</ns3:hr>
          </ns3:TrackPointExtension>
        </extensions>
      </trkpt>
      <trkpt lat="46.818743236362934112548828125" lon="6.80258371867239475250244140625">
        <ele>583.4000244140625</ele>
        <time>2017-05-05T14:35:16.000Z</time>
        <extensions>
          <ns3:TrackPointExtension>
            <ns3:hr>145</ns3:hr>
          </ns3:TrackPointExtension>
        </extensions>
      </trkpt>
      <trkpt lat="46.8188969604671001434326171875" lon="6.8024463392794132232666015625">
        <ele>583.4000244140625</ele>
        <time>2017-05-05T14:35:20.000Z</time>
        <extensions>
          <ns3:TrackPointExtension>
            <ns3:hr>144</ns3:hr>
          </ns3:TrackPointExtension>
        </extensions>
      </trkpt>
      <trkpt lat="46.81898237206041812896728515625" lon="6.80236025713384151458740234375">
        <ele>583.4000244140625</ele>
        <time>2017-05-05T14:35:22.000Z</time>
        <extensions>
          <ns3:TrackPointExtension>
            <ns3:hr>144</ns3:hr>
          </ns3:TrackPointExtension>
        </extensions>
      </trkpt>
      <trkpt lat="46.81908982805907726287841796875" lon="6.80223804898560047149658203125">
        <ele>583.4000244140625</ele>
        <time>2017-05-05T14:35:25.000Z</time>
        <extensions>
          <ns3:TrackPointExtension>
            <ns3:hr>143</ns3:hr>
          </ns3:TrackPointExtension>
        </extensions>
      </trkpt>
      <trkpt lat="46.8194414488971233367919921875" lon="6.80181375704705715179443359375">
        <ele>581.79998779296875</ele>
        <time>2017-05-05T14:35:33.000Z</time>
        <extensions>
          <ns3:TrackPointExtension>
            <ns3:hr>143</ns3:hr>
          </ns3:TrackPointExtension>
        </extensions>
      </trkpt>
      <trkpt lat="46.81952434591948986053466796875" lon="6.80171124637126922607421875">
        <ele>581</ele>
        <time>2017-05-05T14:35:35.000Z</time>
        <extensions>
          <ns3:TrackPointExtension>
            <ns3:hr>144</ns3:hr>
          </ns3:TrackPointExtension>
        </extensions>
      </trkpt>
      <trkpt lat="46.8195631541311740875244140625" lon="6.8016681633889675140380859375">
        <ele>580.79998779296875</ele>
        <time>2017-05-05T14:35:36.000Z</time>
        <extensions>
          <ns3:TrackPointExtension>
            <ns3:hr>144</ns3:hr>
          </ns3:TrackPointExtension>
        </extensions>
      </trkpt>
      <trkpt lat="46.82005919516086578369140625" lon="6.801278404891490936279296875">
        <ele>580.5999755859375</ele>
        <time>2017-05-05T14:35:53.000Z</time>
        <extensions>
          <ns3:TrackPointExtension>
            <ns3:hr>143</ns3:hr>
          </ns3:TrackPointExtension>
        </extensions>
      </trkpt>
      <trkpt lat="46.82021300308406352996826171875" lon="6.801187880337238311767578125">
        <ele>579.79998779296875</ele>
        <time>2017-05-05T14:35:57.000Z</time>
        <extensions>
          <ns3:TrackPointExtension>
            <ns3:hr>143</ns3:hr>
          </ns3:TrackPointExtension>
        </extensions>
      </trkpt>
      <trkpt lat="46.8202541582286357879638671875" lon="6.80116214789450168609619140625">
        <ele>578.5999755859375</ele>
        <time>2017-05-05T14:35:58.000Z</time>
        <extensions>
          <ns3:TrackPointExtension>
            <ns3:hr>143</ns3:hr>
          </ns3:TrackPointExtension>
        </extensions>
      </trkpt>
      <trkpt lat="46.820348203182220458984375" lon="6.801094003021717071533203125">
        <ele>577</ele>
        <time>2017-05-05T14:36:00.000Z</time>
        <extensions>
          <ns3:TrackPointExtension>
            <ns3:hr>144</ns3:hr>
          </ns3:TrackPointExtension>
        </extensions>
      </trkpt>
      <trkpt lat="46.82044199667870998382568359375" lon="6.80101395584642887115478515625">
        <ele>575</ele>
        <time>2017-05-05T14:36:02.000Z</time>
        <extensions>
          <ns3:TrackPointExtension>
            <ns3:hr>144</ns3:hr>
          </ns3:TrackPointExtension>
        </extensions>
      </trkpt>
      <trkpt lat="46.82048608548939228057861328125" lon="6.80099115706980228424072265625">
        <ele>573.20001220703125</ele>
        <time>2017-05-05T14:36:03.000Z</time>
        <extensions>
          <ns3:TrackPointExtension>
            <ns3:hr>144</ns3:hr>
          </ns3:TrackPointExtension>
        </extensions>
      </trkpt>
      <trkpt lat="46.82053386233747005462646484375" lon="6.8009580485522747039794921875">
        <ele>571.79998779296875</ele>
        <time>2017-05-05T14:36:04.000Z</time>
        <extensions>
          <ns3:TrackPointExtension>
            <ns3:hr>144</ns3:hr>
          </ns3:TrackPointExtension>
        </extensions>
      </trkpt>
      <trkpt lat="46.820571161806583404541015625" lon="6.8009295500814914703369140625">
        <ele>570</ele>
        <time>2017-05-05T14:36:05.000Z</time>
        <extensions>
          <ns3:TrackPointExtension>
            <ns3:hr>144</ns3:hr>
          </ns3:TrackPointExtension>
        </extensions>
      </trkpt>
      <trkpt lat="46.82060561142861843109130859375" lon="6.80090331472456455230712890625">
        <ele>567.79998779296875</ele>
        <time>2017-05-05T14:36:06.000Z</time>
        <extensions>
          <ns3:TrackPointExtension>
            <ns3:hr>144</ns3:hr>
          </ns3:TrackPointExtension>
        </extensions>
      </trkpt>
      <trkpt lat="46.820638887584209442138671875" lon="6.80087649263441562652587890625">
        <ele>566</ele>
        <time>2017-05-05T14:36:07.000Z</time>
        <extensions>
          <ns3:TrackPointExtension>
            <ns3:hr>143</ns3:hr>
          </ns3:TrackPointExtension>
        </extensions>
      </trkpt>
      <trkpt lat="46.8206605128943920135498046875" lon="6.80085302330553531646728515625">
        <ele>563.5999755859375</ele>
        <time>2017-05-05T14:36:08.000Z</time>
        <extensions>
          <ns3:TrackPointExtension>
            <ns3:hr>143</ns3:hr>
          </ns3:TrackPointExtension>
        </extensions>
      </trkpt>
      <trkpt lat="46.82068088091909885406494140625" lon="6.8008132092654705047607421875">
        <ele>561.4000244140625</ele>
        <time>2017-05-05T14:36:09.000Z</time>
        <extensions>
          <ns3:TrackPointExtension>
            <ns3:hr>143</ns3:hr>
          </ns3:TrackPointExtension>
        </extensions>
      </trkpt>
      <trkpt lat="46.82070426642894744873046875" lon="6.80078051984310150146484375">
        <ele>559.79998779296875</ele>
        <time>2017-05-05T14:36:10.000Z</time>
        <extensions>
          <ns3:TrackPointExtension>
            <ns3:hr>142</ns3:hr>
          </ns3:TrackPointExtension>
        </extensions>
      </trkpt>
      <trkpt lat="46.820726729929447174072265625" lon="6.800759397447109222412109375">
        <ele>557.4000244140625</ele>
        <time>2017-05-05T14:36:11.000Z</time>
        <extensions>
          <ns3:TrackPointExtension>
            <ns3:hr>142</ns3:hr>
          </ns3:TrackPointExtension>
        </extensions>
      </trkpt>
      <trkpt lat="46.82074676267802715301513671875" lon="6.8007461540400981903076171875">
        <ele>556</ele>
        <time>2017-05-05T14:36:12.000Z</time>
        <extensions>
          <ns3:TrackPointExtension>
            <ns3:hr>142</ns3:hr>
          </ns3:TrackPointExtension>
        </extensions>
      </trkpt>
      <trkpt lat="46.8207577429711818695068359375" lon="6.8007303960621356964111328125">
        <ele>554.5999755859375</ele>
        <time>2017-05-05T14:36:13.000Z</time>
        <extensions>
          <ns3:TrackPointExtension>
            <ns3:hr>141</ns3:hr>
          </ns3:TrackPointExtension>
        </extensions>
      </trkpt>
      <trkpt lat="46.820766292512416839599609375" lon="6.800706088542938232421875">
        <ele>553.4000244140625</ele>
        <time>2017-05-05T14:36:14.000Z</time>
        <extensions>
          <ns3:TrackPointExtension>
            <ns3:hr>141</ns3:hr>
          </ns3:TrackPointExtension>
        </extensions>
      </trkpt>
      <trkpt lat="46.82079118676483631134033203125" lon="6.800699718296527862548828125">
        <ele>552.20001220703125</ele>
        <time>2017-05-05T14:36:16.000Z</time>
        <extensions>
          <ns3:TrackPointExtension>
            <ns3:hr>140</ns3:hr>
          </ns3:TrackPointExtension>
        </extensions>
      </trkpt>
      <trkpt lat="46.8208030052483081817626953125" lon="6.80068521760404109954833984375">
        <ele>550.5999755859375</ele>
        <time>2017-05-05T14:36:18.000Z</time>
        <extensions>
          <ns3:TrackPointExtension>
            <ns3:hr>140</ns3:hr>
          </ns3:TrackPointExtension>
        </extensions>
      </trkpt>
      <trkpt lat="46.82078984566032886505126953125" lon="6.80067415349185466766357421875">
        <ele>549.20001220703125</ele>
        <time>2017-05-05T14:36:20.000Z</time>
        <extensions>
          <ns3:TrackPointExtension>
            <ns3:hr>139</ns3:hr>
          </ns3:TrackPointExtension>
        </extensions>
      </trkpt>
      <trkpt lat="46.8207869119942188262939453125" lon="6.80067163892090320587158203125">
        <ele>548</ele>
        <time>2017-05-05T14:36:23.000Z</time>
        <extensions>
          <ns3:TrackPointExtension>
            <ns3:hr>139</ns3:hr>
          </ns3:TrackPointExtension>
        </extensions>
      </trkpt>
      <trkpt lat="46.8207869119942188262939453125" lon="6.80067163892090320587158203125">
        <ele>547</ele>
        <time>2017-05-05T14:36:27.000Z</time>
        <extensions>
          <ns3:TrackPointExtension>
            <ns3:hr>141</ns3:hr>
          </ns3:TrackPointExtension>
        </extensions>
      </trkpt>
      <trkpt lat="46.8207869119942188262939453125" lon="6.80067163892090320587158203125">
        <ele>546</ele>
        <time>2017-05-05T14:36:35.000Z</time>
        <extensions>
          <ns3:TrackPointExtension>
            <ns3:hr>142</ns3:hr>
          </ns3:TrackPointExtension>
        </extensions>
      </trkpt>
      <trkpt lat="46.82090409100055694580078125" lon="6.8005760014057159423828125">
        <ele>545</ele>
        <time>2017-05-05T14:36:40.000Z</time>
        <extensions>
          <ns3:TrackPointExtension>
            <ns3:hr>144</ns3:hr>
          </ns3:TrackPointExtension>
        </extensions>
      </trkpt>
      <trkpt lat="46.820994950830936431884765625" lon="6.80034792982041835784912109375">
        <ele>544.79998779296875</ele>
        <time>2017-05-05T14:36:42.000Z</time>
        <extensions>
          <ns3:TrackPointExtension>
            <ns3:hr>144</ns3:hr>
          </ns3:TrackPointExtension>
        </extensions>
      </trkpt>
      <trkpt lat="46.8210817873477935791015625" lon="6.80003025569021701812744140625">
        <ele>544.20001220703125</ele>
        <time>2017-05-05T14:36:45.000Z</time>
        <extensions>
          <ns3:TrackPointExtension>
            <ns3:hr>145</ns3:hr>
          </ns3:TrackPointExtension>
        </extensions>
      </trkpt>
      <trkpt lat="46.8211030773818492889404296875" lon="6.79989832453429698944091796875">
        <ele>542.5999755859375</ele>
        <time>2017-05-05T14:36:47.000Z</time>
        <extensions>
          <ns3:TrackPointExtension>
            <ns3:hr>144</ns3:hr>
          </ns3:TrackPointExtension>
        </extensions>
      </trkpt>
      <trkpt lat="46.82109612040221691131591796875" lon="6.79976622574031352996826171875">
        <ele>541.5999755859375</ele>
        <time>2017-05-05T14:36:51.000Z</time>
        <extensions>
          <ns3:TrackPointExtension>
            <ns3:hr>143</ns3:hr>
          </ns3:TrackPointExtension>
        </extensions>
      </trkpt>
      <trkpt lat="46.8211037479341030120849609375" lon="6.79974812082946300506591796875">
        <ele>541.4000244140625</ele>
        <time>2017-05-05T14:36:52.000Z</time>
        <extensions>
          <ns3:TrackPointExtension>
            <ns3:hr>143</ns3:hr>
          </ns3:TrackPointExtension>
        </extensions>
      </trkpt>
      <trkpt lat="46.82128638960421085357666015625" lon="6.7998539842665195465087890625">
        <ele>542.5999755859375</ele>
        <time>2017-05-05T14:36:59.000Z</time>
        <extensions>
          <ns3:TrackPointExtension>
            <ns3:hr>144</ns3:hr>
          </ns3:TrackPointExtension>
        </extensions>
      </trkpt>
      <trkpt lat="46.8214023113250732421875" lon="6.799937970936298370361328125">
        <ele>543.79998779296875</ele>
        <time>2017-05-05T14:37:04.000Z</time>
        <extensions>
          <ns3:TrackPointExtension>
            <ns3:hr>144</ns3:hr>
          </ns3:TrackPointExtension>
        </extensions>
      </trkpt>
      <trkpt lat="46.8214919976890087127685546875" lon="6.8000046908855438232421875">
        <ele>545</ele>
        <time>2017-05-05T14:37:08.000Z</time>
        <extensions>
          <ns3:TrackPointExtension>
            <ns3:hr>143</ns3:hr>
          </ns3:TrackPointExtension>
        </extensions>
      </trkpt>
      <trkpt lat="46.82154254056513309478759765625" lon="6.80008985102176666259765625">
        <ele>546.4000244140625</ele>
        <time>2017-05-05T14:37:12.000Z</time>
        <extensions>
          <ns3:TrackPointExtension>
            <ns3:hr>143</ns3:hr>
          </ns3:TrackPointExtension>
        </extensions>
      </trkpt>
      <trkpt lat="46.82159383781254291534423828125" lon="6.80012027733027935028076171875">
        <ele>547.4000244140625</ele>
        <time>2017-05-05T14:37:15.000Z</time>
        <extensions>
          <ns3:TrackPointExtension>
            <ns3:hr>142</ns3:hr>
          </ns3:TrackPointExtension>
        </extensions>
      </trkpt>
      <trkpt lat="46.82172090746462345123291015625" lon="6.80015020072460174560546875">
        <ele>548.5999755859375</ele>
        <time>2017-05-05T14:37:20.000Z</time>
        <extensions>
          <ns3:TrackPointExtension>
            <ns3:hr>142</ns3:hr>
          </ns3:TrackPointExtension>
        </extensions>
      </trkpt>
      <trkpt lat="46.8218071572482585906982421875" lon="6.8001604266464710235595703125">
        <ele>549.20001220703125</ele>
        <time>2017-05-05T14:37:24.000Z</time>
        <extensions>
          <ns3:TrackPointExtension>
            <ns3:hr>145</ns3:hr>
          </ns3:TrackPointExtension>
        </extensions>
      </trkpt>
      <trkpt lat="46.8218494020402431488037109375" lon="6.80016771890223026275634765625">
        <ele>549.5999755859375</ele>
        <time>2017-05-05T14:37:26.000Z</time>
        <extensions>
          <ns3:TrackPointExtension>
            <ns3:hr>145</ns3:hr>
          </ns3:TrackPointExtension>
        </extensions>
      </trkpt>
      <trkpt lat="46.8220750428736209869384765625" lon="6.80017358623445034027099609375">
        <ele>550.5999755859375</ele>
        <time>2017-05-05T14:37:34.000Z</time>
        <extensions>
          <ns3:TrackPointExtension>
            <ns3:hr>147</ns3:hr>
          </ns3:TrackPointExtension>
        </extensions>
      </trkpt>
      <trkpt lat="46.82225349359214305877685546875" lon="6.8001822195947170257568359375">
        <ele>551.79998779296875</ele>
        <time>2017-05-05T14:37:40.000Z</time>
        <extensions>
          <ns3:TrackPointExtension>
            <ns3:hr>147</ns3:hr>
          </ns3:TrackPointExtension>
        </extensions>
      </trkpt>
      <trkpt lat="46.8224535696208477020263671875" lon="6.80034105665981769561767578125">
        <ele>552.79998779296875</ele>
        <time>2017-05-05T14:37:45.000Z</time>
        <extensions>
          <ns3:TrackPointExtension>
            <ns3:hr>147</ns3:hr>
          </ns3:TrackPointExtension>
        </extensions>
      </trkpt>
      <trkpt lat="46.8226669728755950927734375" lon="6.800631321966648101806640625">
        <ele>554</ele>
        <time>2017-05-05T14:37:53.000Z</time>
        <extensions>
          <ns3:TrackPointExtension>
            <ns3:hr>146</ns3:hr>
          </ns3:TrackPointExtension>
        </extensions>
      </trkpt>
      <trkpt lat="46.82282061316072940826416015625" lon="6.80086609907448291778564453125">
        <ele>555.20001220703125</ele>
        <time>2017-05-05T14:37:59.000Z</time>
        <extensions>
          <ns3:TrackPointExtension>
            <ns3:hr>145</ns3:hr>
          </ns3:TrackPointExtension>
        </extensions>
      </trkpt>
      <trkpt lat="46.822939552366733551025390625" lon="6.80105284787714481353759765625">
        <ele>556.4000244140625</ele>
        <time>2017-05-05T14:38:05.000Z</time>
        <extensions>
          <ns3:TrackPointExtension>
            <ns3:hr>144</ns3:hr>
          </ns3:TrackPointExtension>
        </extensions>
      </trkpt>
      <trkpt lat="46.82302915491163730621337890625" lon="6.8011608906090259552001953125">
        <ele>557.5999755859375</ele>
        <time>2017-05-05T14:38:09.000Z</time>
        <extensions>
          <ns3:TrackPointExtension>
            <ns3:hr>142</ns3:hr>
          </ns3:TrackPointExtension>
        </extensions>
      </trkpt>
      <trkpt lat="46.82308849878609180450439453125" lon="6.8012369982898235321044921875">
        <ele>558.5999755859375</ele>
        <time>2017-05-05T14:38:12.000Z</time>
        <extensions>
          <ns3:TrackPointExtension>
            <ns3:hr>141</ns3:hr>
          </ns3:TrackPointExtension>
        </extensions>
      </trkpt>
      <trkpt lat="46.82316242717206478118896484375" lon="6.80133464746177196502685546875">
        <ele>559.79998779296875</ele>
        <time>2017-05-05T14:38:16.000Z</time>
        <extensions>
          <ns3:TrackPointExtension>
            <ns3:hr>140</ns3:hr>
          </ns3:TrackPointExtension>
        </extensions>
      </trkpt>
      <trkpt lat="46.82323358952999114990234375" lon="6.80143523029983043670654296875">
        <ele>560.79998779296875</ele>
        <time>2017-05-05T14:38:20.000Z</time>
        <extensions>
          <ns3:TrackPointExtension>
            <ns3:hr>140</ns3:hr>
          </ns3:TrackPointExtension>
        </extensions>
      </trkpt>
      <trkpt lat="46.82329603470861911773681640625" lon="6.80154897272586822509765625">
        <ele>562</ele>
        <time>2017-05-05T14:38:24.000Z</time>
        <extensions>
          <ns3:TrackPointExtension>
            <ns3:hr>142</ns3:hr>
          </ns3:TrackPointExtension>
        </extensions>
      </trkpt>
      <trkpt lat="46.82337113656103610992431640625" lon="6.80164444260299205780029296875">
        <ele>563</ele>
        <time>2017-05-05T14:38:28.000Z</time>
        <extensions>
          <ns3:TrackPointExtension>
            <ns3:hr>143</ns3:hr>
          </ns3:TrackPointExtension>
        </extensions>
      </trkpt>
      <trkpt lat="46.82342628948390483856201171875" lon="6.80175240151584148406982421875">
        <ele>564</ele>
        <time>2017-05-05T14:38:32.000Z</time>
        <extensions>
          <ns3:TrackPointExtension>
            <ns3:hr>142</ns3:hr>
          </ns3:TrackPointExtension>
        </extensions>
      </trkpt>
      <trkpt lat="46.823461242020130157470703125" lon="6.801847033202648162841796875">
        <ele>565.20001220703125</ele>
        <time>2017-05-05T14:38:35.000Z</time>
        <extensions>
          <ns3:TrackPointExtension>
            <ns3:hr>144</ns3:hr>
          </ns3:TrackPointExtension>
        </extensions>
      </trkpt>
      <trkpt lat="46.82350759394466876983642578125" lon="6.80197955109179019927978515625">
        <ele>566.4000244140625</ele>
        <time>2017-05-05T14:38:39.000Z</time>
        <extensions>
          <ns3:TrackPointExtension>
            <ns3:hr>145</ns3:hr>
          </ns3:TrackPointExtension>
        </extensions>
      </trkpt>
      <trkpt lat="46.82357347570359706878662109375" lon="6.80213578976690769195556640625">
        <ele>567.5999755859375</ele>
        <time>2017-05-05T14:38:44.000Z</time>
        <extensions>
          <ns3:TrackPointExtension>
            <ns3:hr>145</ns3:hr>
          </ns3:TrackPointExtension>
        </extensions>
      </trkpt>
      <trkpt lat="46.82361102662980556488037109375" lon="6.802231930196285247802734375">
        <ele>568.79998779296875</ele>
        <time>2017-05-05T14:38:47.000Z</time>
        <extensions>
          <ns3:TrackPointExtension>
            <ns3:hr>144</ns3:hr>
          </ns3:TrackPointExtension>
        </extensions>
      </trkpt>
      <trkpt lat="46.82365209795534610748291015625" lon="6.802378781139850616455078125">
        <ele>570</ele>
        <time>2017-05-05T14:38:51.000Z</time>
        <extensions>
          <ns3:TrackPointExtension>
            <ns3:hr>143</ns3:hr>
          </ns3:TrackPointExtension>
        </extensions>
      </trkpt>
      <trkpt lat="46.82375066913664340972900390625" lon="6.80255304090678691864013671875">
        <ele>571</ele>
        <time>2017-05-05T14:38:56.000Z</time>
        <extensions>
          <ns3:TrackPointExtension>
            <ns3:hr>143</ns3:hr>
          </ns3:TrackPointExtension>
        </extensions>
      </trkpt>
      <trkpt lat="46.82396139018237590789794921875" lon="6.80268262512981891632080078125">
        <ele>571.20001220703125</ele>
        <time>2017-05-05T14:39:02.000Z</time>
        <extensions>
          <ns3:TrackPointExtension>
            <ns3:hr>144</ns3:hr>
          </ns3:TrackPointExtension>
        </extensions>
      </trkpt>
      <trkpt lat="46.82405191473662853240966796875" lon="6.80278153158724308013916015625">
        <ele>571.20001220703125</ele>
        <time>2017-05-05T14:39:04.000Z</time>
        <extensions>
          <ns3:TrackPointExtension>
            <ns3:hr>143</ns3:hr>
          </ns3:TrackPointExtension>
        </extensions>
      </trkpt>
      <trkpt lat="46.8243969976902008056640625" lon="6.803155280649662017822265625">
        <ele>569.79998779296875</ele>
        <time>2017-05-05T14:39:10.000Z</time>
        <extensions>
          <ns3:TrackPointExtension>
            <ns3:hr>142</ns3:hr>
          </ns3:TrackPointExtension>
        </extensions>
      </trkpt>
      <trkpt lat="46.82451945729553699493408203125" lon="6.803273968398571014404296875">
        <ele>568.4000244140625</ele>
        <time>2017-05-05T14:39:12.000Z</time>
        <extensions>
          <ns3:TrackPointExtension>
            <ns3:hr>142</ns3:hr>
          </ns3:TrackPointExtension>
        </extensions>
      </trkpt>
      <trkpt lat="46.82464350946247577667236328125" lon="6.8034030497074127197265625">
        <ele>567.20001220703125</ele>
        <time>2017-05-05T14:39:14.000Z</time>
        <extensions>
          <ns3:TrackPointExtension>
            <ns3:hr>143</ns3:hr>
          </ns3:TrackPointExtension>
        </extensions>
      </trkpt>
      <trkpt lat="46.8248856626451015472412109375" lon="6.803683340549468994140625">
        <ele>565.5999755859375</ele>
        <time>2017-05-05T14:39:18.000Z</time>
        <extensions>
          <ns3:TrackPointExtension>
            <ns3:hr>145</ns3:hr>
          </ns3:TrackPointExtension>
        </extensions>
      </trkpt>
      <trkpt lat="46.82501298375427722930908203125" lon="6.80382021702826023101806640625">
        <ele>564.4000244140625</ele>
        <time>2017-05-05T14:39:20.000Z</time>
        <extensions>
          <ns3:TrackPointExtension>
            <ns3:hr>146</ns3:hr>
          </ns3:TrackPointExtension>
        </extensions>
      </trkpt>
      <trkpt lat="46.82514944113790988922119140625" lon="6.8039674870669841766357421875">
        <ele>563</ele>
        <time>2017-05-05T14:39:22.000Z</time>
        <extensions>
          <ns3:TrackPointExtension>
            <ns3:hr>147</ns3:hr>
          </ns3:TrackPointExtension>
        </extensions>
      </trkpt>
      <trkpt lat="46.8254244513809680938720703125" lon="6.80429396219551563262939453125">
        <ele>561.79998779296875</ele>
        <time>2017-05-05T14:39:26.000Z</time>
        <extensions>
          <ns3:TrackPointExtension>
            <ns3:hr>148</ns3:hr>
          </ns3:TrackPointExtension>
        </extensions>
      </trkpt>
      <trkpt lat="46.82563274167478084564208984375" lon="6.80455505847930908203125">
        <ele>560.79998779296875</ele>
        <time>2017-05-05T14:39:29.000Z</time>
        <extensions>
          <ns3:TrackPointExtension>
            <ns3:hr>148</ns3:hr>
          </ns3:TrackPointExtension>
        </extensions>
      </trkpt>
      <trkpt lat="46.82577741332352161407470703125" lon="6.80473543703556060791015625">
        <ele>559.79998779296875</ele>
        <time>2017-05-05T14:39:31.000Z</time>
        <extensions>
          <ns3:TrackPointExtension>
            <ns3:hr>148</ns3:hr>
          </ns3:TrackPointExtension>
        </extensions>
      </trkpt>
      <trkpt lat="46.825936250388622283935546875" lon="6.80492394603788852691650390625">
        <ele>557.79998779296875</ele>
        <time>2017-05-05T14:39:33.000Z</time>
        <extensions>
          <ns3:TrackPointExtension>
            <ns3:hr>148</ns3:hr>
          </ns3:TrackPointExtension>
        </extensions>
      </trkpt>
      <trkpt lat="46.82609559036791324615478515625" lon="6.80512444116175174713134765625">
        <ele>556.20001220703125</ele>
        <time>2017-05-05T14:39:35.000Z</time>
        <extensions>
          <ns3:TrackPointExtension>
            <ns3:hr>147</ns3:hr>
          </ns3:TrackPointExtension>
        </extensions>
      </trkpt>
      <trkpt lat="46.8261707760393619537353515625" lon="6.8052269518375396728515625">
        <ele>555</ele>
        <time>2017-05-05T14:39:36.000Z</time>
        <extensions>
          <ns3:TrackPointExtension>
            <ns3:hr>147</ns3:hr>
          </ns3:TrackPointExtension>
        </extensions>
      </trkpt>
      <trkpt lat="46.826378814876079559326171875" lon="6.80553280748426914215087890625">
        <ele>553.79998779296875</ele>
        <time>2017-05-05T14:39:39.000Z</time>
        <extensions>
          <ns3:TrackPointExtension>
            <ns3:hr>145</ns3:hr>
          </ns3:TrackPointExtension>
        </extensions>
      </trkpt>
      <trkpt lat="46.826565228402614593505859375" lon="6.805838160216808319091796875">
        <ele>553.5999755859375</ele>
        <time>2017-05-05T14:39:42.000Z</time>
        <extensions>
          <ns3:TrackPointExtension>
            <ns3:hr>145</ns3:hr>
          </ns3:TrackPointExtension>
        </extensions>
      </trkpt>
      <trkpt lat="46.82673797942698001861572265625" lon="6.8062614463269710540771484375">
        <ele>552.79998779296875</ele>
        <time>2017-05-05T14:39:46.000Z</time>
        <extensions>
          <ns3:TrackPointExtension>
            <ns3:hr>145</ns3:hr>
          </ns3:TrackPointExtension>
        </extensions>
      </trkpt>
      <trkpt lat="46.82683177292346954345703125" lon="6.8065465986728668212890625">
        <ele>553.79998779296875</ele>
        <time>2017-05-05T14:39:49.000Z</time>
        <extensions>
          <ns3:TrackPointExtension>
            <ns3:hr>145</ns3:hr>
          </ns3:TrackPointExtension>
        </extensions>
      </trkpt>
      <trkpt lat="46.82688700966536998748779296875" lon="6.8067123927175998687744140625">
        <ele>555.4000244140625</ele>
        <time>2017-05-05T14:39:51.000Z</time>
        <extensions>
          <ns3:TrackPointExtension>
            <ns3:hr>145</ns3:hr>
          </ns3:TrackPointExtension>
        </extensions>
      </trkpt>
      <trkpt lat="46.8269710801541805267333984375" lon="6.8069799430668354034423828125">
        <ele>556.4000244140625</ele>
        <time>2017-05-05T14:39:55.000Z</time>
        <extensions>
          <ns3:TrackPointExtension>
            <ns3:hr>147</ns3:hr>
          </ns3:TrackPointExtension>
        </extensions>
      </trkpt>
      <trkpt lat="46.82706001214683055877685546875" lon="6.80722226388752460479736328125">
        <ele>557.5999755859375</ele>
        <time>2017-05-05T14:40:00.000Z</time>
        <extensions>
          <ns3:TrackPointExtension>
            <ns3:hr>145</ns3:hr>
          </ns3:TrackPointExtension>
        </extensions>
      </trkpt>
      <trkpt lat="46.8271289952099323272705078125" lon="6.8073148839175701141357421875">
        <ele>558.5999755859375</ele>
        <time>2017-05-05T14:40:03.000Z</time>
        <extensions>
          <ns3:TrackPointExtension>
            <ns3:hr>144</ns3:hr>
          </ns3:TrackPointExtension>
        </extensions>
      </trkpt>
      <trkpt lat="46.82716495357453823089599609375" lon="6.80732267908751964569091796875">
        <ele>558.79998779296875</ele>
        <time>2017-05-05T14:40:04.000Z</time>
        <extensions>
          <ns3:TrackPointExtension>
            <ns3:hr>144</ns3:hr>
          </ns3:TrackPointExtension>
        </extensions>
      </trkpt>
      <trkpt lat="46.82720921002328395843505859375" lon="6.80732133798301219940185546875">
        <ele>558.79998779296875</ele>
        <time>2017-05-05T14:40:05.000Z</time>
        <extensions>
          <ns3:TrackPointExtension>
            <ns3:hr>144</ns3:hr>
          </ns3:TrackPointExtension>
        </extensions>
      </trkpt>
      <trkpt lat="46.8274059332907199859619140625" lon="6.80730574764311313629150390625">
        <ele>559</ele>
        <time>2017-05-05T14:40:08.000Z</time>
        <extensions>
          <ns3:TrackPointExtension>
            <ns3:hr>144</ns3:hr>
          </ns3:TrackPointExtension>
        </extensions>
      </trkpt>
      <trkpt lat="46.82755487971007823944091796875" lon="6.80736274458467960357666015625">
        <ele>559</ele>
        <time>2017-05-05T14:40:10.000Z</time>
        <extensions>
          <ns3:TrackPointExtension>
            <ns3:hr>144</ns3:hr>
          </ns3:TrackPointExtension>
        </extensions>
      </trkpt>
      <trkpt lat="46.8279728852212429046630859375" lon="6.80782140232622623443603515625">
        <ele>557</ele>
        <time>2017-05-05T14:40:16.000Z</time>
        <extensions>
          <ns3:TrackPointExtension>
            <ns3:hr>142</ns3:hr>
          </ns3:TrackPointExtension>
        </extensions>
      </trkpt>
      <trkpt lat="46.82803197763860225677490234375" lon="6.80791846476495265960693359375">
        <ele>555.5999755859375</ele>
        <time>2017-05-05T14:40:17.000Z</time>
        <extensions>
          <ns3:TrackPointExtension>
            <ns3:hr>142</ns3:hr>
          </ns3:TrackPointExtension>
        </extensions>
      </trkpt>
      <trkpt lat="46.82808662764728069305419921875" lon="6.808018125593662261962890625">
        <ele>554.20001220703125</ele>
        <time>2017-05-05T14:40:18.000Z</time>
        <extensions>
          <ns3:TrackPointExtension>
            <ns3:hr>142</ns3:hr>
          </ns3:TrackPointExtension>
        </extensions>
      </trkpt>
      <trkpt lat="46.82813725434243679046630859375" lon="6.8081188760697841644287109375">
        <ele>553</ele>
        <time>2017-05-05T14:40:19.000Z</time>
        <extensions>
          <ns3:TrackPointExtension>
            <ns3:hr>142</ns3:hr>
          </ns3:TrackPointExtension>
        </extensions>
      </trkpt>
      <trkpt lat="46.82823465205729007720947265625" lon="6.8083220534026622772216796875">
        <ele>551.4000244140625</ele>
        <time>2017-05-05T14:40:21.000Z</time>
        <extensions>
          <ns3:TrackPointExtension>
            <ns3:hr>143</ns3:hr>
          </ns3:TrackPointExtension>
        </extensions>
      </trkpt>
      <trkpt lat="46.82833674363791942596435546875" lon="6.8085148371756076812744140625">
        <ele>550.20001220703125</ele>
        <time>2017-05-05T14:40:23.000Z</time>
        <extensions>
          <ns3:TrackPointExtension>
            <ns3:hr>144</ns3:hr>
          </ns3:TrackPointExtension>
        </extensions>
      </trkpt>
      <trkpt lat="46.8287125043570995330810546875" lon="6.80914138443768024444580078125">
        <ele>549.20001220703125</ele>
        <time>2017-05-05T14:40:30.000Z</time>
        <extensions>
          <ns3:TrackPointExtension>
            <ns3:hr>143</ns3:hr>
          </ns3:TrackPointExtension>
        </extensions>
      </trkpt>
      <trkpt lat="46.8290841579437255859375" lon="6.8097151257097721099853515625">
        <ele>548</ele>
        <time>2017-05-05T14:40:36.000Z</time>
        <extensions>
          <ns3:TrackPointExtension>
            <ns3:hr>146</ns3:hr>
          </ns3:TrackPointExtension>
        </extensions>
      </trkpt>
      <trkpt lat="46.8291966430842876434326171875" lon="6.8099387548863887786865234375">
        <ele>546.5999755859375</ele>
        <time>2017-05-05T14:40:38.000Z</time>
        <extensions>
          <ns3:TrackPointExtension>
            <ns3:hr>146</ns3:hr>
          </ns3:TrackPointExtension>
        </extensions>
      </trkpt>
      <trkpt lat="46.8293257243931293487548828125" lon="6.81030496023595333099365234375">
        <ele>545.4000244140625</ele>
        <time>2017-05-05T14:40:41.000Z</time>
        <extensions>
          <ns3:TrackPointExtension>
            <ns3:hr>150</ns3:hr>
          </ns3:TrackPointExtension>
        </extensions>
      </trkpt>
      <trkpt lat="46.82939470745623111724853515625" lon="6.8105482868850231170654296875">
        <ele>544.20001220703125</ele>
        <time>2017-05-05T14:40:43.000Z</time>
        <extensions>
          <ns3:TrackPointExtension>
            <ns3:hr>152</ns3:hr>
          </ns3:TrackPointExtension>
        </extensions>
      </trkpt>
      <trkpt lat="46.82945086620748043060302734375" lon="6.810781471431255340576171875">
        <ele>543.4000244140625</ele>
        <time>2017-05-05T14:40:45.000Z</time>
        <extensions>
          <ns3:TrackPointExtension>
            <ns3:hr>154</ns3:hr>
          </ns3:TrackPointExtension>
        </extensions>
      </trkpt>
      <trkpt lat="46.829459667205810546875" lon="6.8110039271414279937744140625">
        <ele>543.4000244140625</ele>
        <time>2017-05-05T14:40:47.000Z</time>
        <extensions>
          <ns3:TrackPointExtension>
            <ns3:hr>154</ns3:hr>
          </ns3:TrackPointExtension>
        </extensions>
      </trkpt>
      <trkpt lat="46.82938129641115665435791015625" lon="6.811134181916713714599609375">
        <ele>543.20001220703125</ele>
        <time>2017-05-05T14:40:49.000Z</time>
        <extensions>
          <ns3:TrackPointExtension>
            <ns3:hr>153</ns3:hr>
          </ns3:TrackPointExtension>
        </extensions>
      </trkpt>
      <trkpt lat="46.82929672300815582275390625" lon="6.811175756156444549560546875">
        <ele>543.20001220703125</ele>
        <time>2017-05-05T14:40:51.000Z</time>
        <extensions>
          <ns3:TrackPointExtension>
            <ns3:hr>153</ns3:hr>
          </ns3:TrackPointExtension>
        </extensions>
      </trkpt>
      <trkpt lat="46.829126738011837005615234375" lon="6.81121422909200191497802734375">
        <ele>545.4000244140625</ele>
        <time>2017-05-05T14:40:57.000Z</time>
        <extensions>
          <ns3:TrackPointExtension>
            <ns3:hr>151</ns3:hr>
          </ns3:TrackPointExtension>
        </extensions>
      </trkpt>
      <trkpt lat="46.82910335250198841094970703125" lon="6.8112136423587799072265625">
        <ele>546.79998779296875</ele>
        <time>2017-05-05T14:40:58.000Z</time>
        <extensions>
          <ns3:TrackPointExtension>
            <ns3:hr>150</ns3:hr>
          </ns3:TrackPointExtension>
        </extensions>
      </trkpt>
      <trkpt lat="46.82906077243387699127197265625" lon="6.81122177280485630035400390625">
        <ele>548.4000244140625</ele>
        <time>2017-05-05T14:41:00.000Z</time>
        <extensions>
          <ns3:TrackPointExtension>
            <ns3:hr>149</ns3:hr>
          </ns3:TrackPointExtension>
        </extensions>
      </trkpt>
      <trkpt lat="46.8290157616138458251953125" lon="6.81122043170034885406494140625">
        <ele>549.79998779296875</ele>
        <time>2017-05-05T14:41:02.000Z</time>
        <extensions>
          <ns3:TrackPointExtension>
            <ns3:hr>149</ns3:hr>
          </ns3:TrackPointExtension>
        </extensions>
      </trkpt>
      <trkpt lat="46.8289421685039997100830078125" lon="6.81120048277080059051513671875">
        <ele>551</ele>
        <time>2017-05-05T14:41:05.000Z</time>
        <extensions>
          <ns3:TrackPointExtension>
            <ns3:hr>152</ns3:hr>
          </ns3:TrackPointExtension>
        </extensions>
      </trkpt>
      <trkpt lat="46.82889162562787532806396484375" lon="6.8111782707273960113525390625">
        <ele>552.20001220703125</ele>
        <time>2017-05-05T14:41:07.000Z</time>
        <extensions>
          <ns3:TrackPointExtension>
            <ns3:hr>153</ns3:hr>
          </ns3:TrackPointExtension>
        </extensions>
      </trkpt>
      <trkpt lat="46.8287896178662776947021484375" lon="6.81114985607564449310302734375">
        <ele>553.4000244140625</ele>
        <time>2017-05-05T14:41:10.000Z</time>
        <extensions>
          <ns3:TrackPointExtension>
            <ns3:hr>155</ns3:hr>
          </ns3:TrackPointExtension>
        </extensions>
      </trkpt>
      <trkpt lat="46.828723065555095672607421875" lon="6.81109755299985408782958984375">
        <ele>554.20001220703125</ele>
        <time>2017-05-05T14:41:13.000Z</time>
        <extensions>
          <ns3:TrackPointExtension>
            <ns3:hr>160</ns3:hr>
          </ns3:TrackPointExtension>
        </extensions>
      </trkpt>
      <trkpt lat="46.8286979198455810546875" lon="6.8110790289938449859619140625">
        <ele>554.4000244140625</ele>
        <time>2017-05-05T14:41:14.000Z</time>
        <extensions>
          <ns3:TrackPointExtension>
            <ns3:hr>161</ns3:hr>
          </ns3:TrackPointExtension>
        </extensions>
      </trkpt>
      <trkpt lat="46.82863555848598480224609375" lon="6.811011135578155517578125">
        <ele>555.79998779296875</ele>
        <time>2017-05-05T14:41:17.000Z</time>
        <extensions>
          <ns3:TrackPointExtension>
            <ns3:hr>162</ns3:hr>
          </ns3:TrackPointExtension>
        </extensions>
      </trkpt>
      <trkpt lat="46.82856716215610504150390625" lon="6.81091382168233394622802734375">
        <ele>557</ele>
        <time>2017-05-05T14:41:21.000Z</time>
        <extensions>
          <ns3:TrackPointExtension>
            <ns3:hr>163</ns3:hr>
          </ns3:TrackPointExtension>
        </extensions>
      </trkpt>
      <trkpt lat="46.828477643430233001708984375" lon="6.81076378561556339263916015625">
        <ele>558.20001220703125</ele>
        <time>2017-05-05T14:41:27.000Z</time>
        <extensions>
          <ns3:TrackPointExtension>
            <ns3:hr>163</ns3:hr>
          </ns3:TrackPointExtension>
        </extensions>
      </trkpt>
      <trkpt lat="46.8284070678055286407470703125" lon="6.8106659688055515289306640625">
        <ele>559.4000244140625</ele>
        <time>2017-05-05T14:41:31.000Z</time>
        <extensions>
          <ns3:TrackPointExtension>
            <ns3:hr>162</ns3:hr>
          </ns3:TrackPointExtension>
        </extensions>
      </trkpt>
      <trkpt lat="46.8283343128859996795654296875" lon="6.8105725944042205810546875">
        <ele>560.4000244140625</ele>
        <time>2017-05-05T14:41:35.000Z</time>
        <extensions>
          <ns3:TrackPointExtension>
            <ns3:hr>161</ns3:hr>
          </ns3:TrackPointExtension>
        </extensions>
      </trkpt>
      <trkpt lat="46.8282639048993587493896484375" lon="6.81048416532576084136962890625">
        <ele>561.5999755859375</ele>
        <time>2017-05-05T14:41:39.000Z</time>
        <extensions>
          <ns3:TrackPointExtension>
            <ns3:hr>161</ns3:hr>
          </ns3:TrackPointExtension>
        </extensions>
      </trkpt>
      <trkpt lat="46.82820363901555538177490234375" lon="6.810372769832611083984375">
        <ele>562.79998779296875</ele>
        <time>2017-05-05T14:41:43.000Z</time>
        <extensions>
          <ns3:TrackPointExtension>
            <ns3:hr>160</ns3:hr>
          </ns3:TrackPointExtension>
        </extensions>
      </trkpt>
      <trkpt lat="46.8281482346355915069580078125" lon="6.8102963268756866455078125">
        <ele>563.79998779296875</ele>
        <time>2017-05-05T14:41:46.000Z</time>
        <extensions>
          <ns3:TrackPointExtension>
            <ns3:hr>158</ns3:hr>
          </ns3:TrackPointExtension>
        </extensions>
      </trkpt>
      <trkpt lat="46.82809375226497650146484375" lon="6.81021627970039844512939453125">
        <ele>564.79998779296875</ele>
        <time>2017-05-05T14:41:49.000Z</time>
        <extensions>
          <ns3:TrackPointExtension>
            <ns3:hr>155</ns3:hr>
          </ns3:TrackPointExtension>
        </extensions>
      </trkpt>
      <trkpt lat="46.82807103730738162994384765625" lon="6.810192726552486419677734375">
        <ele>565</ele>
        <time>2017-05-05T14:41:50.000Z</time>
        <extensions>
          <ns3:TrackPointExtension>
            <ns3:hr>154</ns3:hr>
          </ns3:TrackPointExtension>
        </extensions>
      </trkpt>
      <trkpt lat="46.8279869668185710906982421875" lon="6.81009792722761631011962890625">
        <ele>566</ele>
        <time>2017-05-05T14:41:54.000Z</time>
        <extensions>
          <ns3:TrackPointExtension>
            <ns3:hr>151</ns3:hr>
          </ns3:TrackPointExtension>
        </extensions>
      </trkpt>
      <trkpt lat="46.827854700386524200439453125" lon="6.80996264331042766571044921875">
        <ele>567.20001220703125</ele>
        <time>2017-05-05T14:42:00.000Z</time>
        <extensions>
          <ns3:TrackPointExtension>
            <ns3:hr>149</ns3:hr>
          </ns3:TrackPointExtension>
        </extensions>
      </trkpt>
      <trkpt lat="46.8277583085000514984130859375" lon="6.80990363471210002899169921875">
        <ele>568</ele>
        <time>2017-05-05T14:42:04.000Z</time>
        <extensions>
          <ns3:TrackPointExtension>
            <ns3:hr>146</ns3:hr>
          </ns3:TrackPointExtension>
        </extensions>
      </trkpt>
      <trkpt lat="46.8276872299611568450927734375" lon="6.80990874767303466796875">
        <ele>568.4000244140625</ele>
        <time>2017-05-05T14:42:06.000Z</time>
        <extensions>
          <ns3:TrackPointExtension>
            <ns3:hr>145</ns3:hr>
          </ns3:TrackPointExtension>
        </extensions>
      </trkpt>
      <trkpt lat="46.82742428965866565704345703125" lon="6.8099213205277919769287109375">
        <ele>568.79998779296875</ele>
        <time>2017-05-05T14:42:12.000Z</time>
        <extensions>
          <ns3:TrackPointExtension>
            <ns3:hr>142</ns3:hr>
          </ns3:TrackPointExtension>
        </extensions>
      </trkpt>
      <trkpt lat="46.82733393274247646331787109375" lon="6.80991503410041332244873046875">
        <ele>569</ele>
        <time>2017-05-05T14:42:14.000Z</time>
        <extensions>
          <ns3:TrackPointExtension>
            <ns3:hr>138</ns3:hr>
          </ns3:TrackPointExtension>
        </extensions>
      </trkpt>
      <trkpt lat="46.82699664495885372161865234375" lon="6.80991704575717449188232421875">
        <ele>569.20001220703125</ele>
        <time>2017-05-05T14:42:21.000Z</time>
        <extensions>
          <ns3:TrackPointExtension>
            <ns3:hr>141</ns3:hr>
          </ns3:TrackPointExtension>
        </extensions>
      </trkpt>
      <trkpt lat="46.8267367221415042877197265625" lon="6.809925176203250885009765625">
        <ele>569.20001220703125</ele>
        <time>2017-05-05T14:42:27.000Z</time>
        <extensions>
          <ns3:TrackPointExtension>
            <ns3:hr>142</ns3:hr>
          </ns3:TrackPointExtension>
        </extensions>
      </trkpt>
      <trkpt lat="46.82665399275720119476318359375" lon="6.810058616101741790771484375">
        <ele>569.4000244140625</ele>
        <time>2017-05-05T14:42:30.000Z</time>
        <extensions>
          <ns3:TrackPointExtension>
            <ns3:hr>141</ns3:hr>
          </ns3:TrackPointExtension>
        </extensions>
      </trkpt>
      <trkpt lat="46.826659105718135833740234375" lon="6.81010924279689788818359375">
        <ele>569.4000244140625</ele>
        <time>2017-05-05T14:42:31.000Z</time>
        <extensions>
          <ns3:TrackPointExtension>
            <ns3:hr>141</ns3:hr>
          </ns3:TrackPointExtension>
        </extensions>
      </trkpt>
      <trkpt lat="46.826815344393253326416015625" lon="6.81054015643894672393798828125">
        <ele>570.20001220703125</ele>
        <time>2017-05-05T14:42:39.000Z</time>
        <extensions>
          <ns3:TrackPointExtension>
            <ns3:hr>144</ns3:hr>
          </ns3:TrackPointExtension>
        </extensions>
      </trkpt>
      <trkpt lat="46.82689991779625415802001953125" lon="6.81067376397550106048583984375">
        <ele>570.4000244140625</ele>
        <time>2017-05-05T14:42:42.000Z</time>
        <extensions>
          <ns3:TrackPointExtension>
            <ns3:hr>146</ns3:hr>
          </ns3:TrackPointExtension>
        </extensions>
      </trkpt>
      <trkpt lat="46.82705582119524478912353515625" lon="6.810914240777492523193359375">
        <ele>571.4000244140625</ele>
        <time>2017-05-05T14:42:48.000Z</time>
        <extensions>
          <ns3:TrackPointExtension>
            <ns3:hr>146</ns3:hr>
          </ns3:TrackPointExtension>
        </extensions>
      </trkpt>
      <trkpt lat="46.82710762135684490203857421875" lon="6.81102479808032512664794921875">
        <ele>572.5999755859375</ele>
        <time>2017-05-05T14:42:54.000Z</time>
        <extensions>
          <ns3:TrackPointExtension>
            <ns3:hr>144</ns3:hr>
          </ns3:TrackPointExtension>
        </extensions>
      </trkpt>
      <trkpt lat="46.82711164467036724090576171875" lon="6.8110163323581218719482421875">
        <ele>573.5999755859375</ele>
        <time>2017-05-05T14:43:00.000Z</time>
        <extensions>
          <ns3:TrackPointExtension>
            <ns3:hr>145</ns3:hr>
          </ns3:TrackPointExtension>
        </extensions>
      </trkpt>
      <trkpt lat="46.82713796384632587432861328125" lon="6.8110473453998565673828125">
        <ele>574</ele>
        <time>2017-05-05T14:43:10.000Z</time>
        <extensions>
          <ns3:TrackPointExtension>
            <ns3:hr>143</ns3:hr>
          </ns3:TrackPointExtension>
        </extensions>
      </trkpt>
      <trkpt lat="46.827326975762844085693359375" lon="6.81134833954274654388427734375">
        <ele>573.4000244140625</ele>
        <time>2017-05-05T14:43:18.000Z</time>
        <extensions>
          <ns3:TrackPointExtension>
            <ns3:hr>144</ns3:hr>
          </ns3:TrackPointExtension>
        </extensions>
      </trkpt>
      <trkpt lat="46.8277026526629924774169921875" lon="6.8119839392602443695068359375">
        <ele>574.20001220703125</ele>
        <time>2017-05-05T14:43:31.000Z</time>
        <extensions>
          <ns3:TrackPointExtension>
            <ns3:hr>144</ns3:hr>
          </ns3:TrackPointExtension>
        </extensions>
      </trkpt>
      <trkpt lat="46.82776115834712982177734375" lon="6.8120835162699222564697265625">
        <ele>574.79998779296875</ele>
        <time>2017-05-05T14:43:33.000Z</time>
        <extensions>
          <ns3:TrackPointExtension>
            <ns3:hr>145</ns3:hr>
          </ns3:TrackPointExtension>
        </extensions>
      </trkpt>
      <trkpt lat="46.8279470689594745635986328125" lon="6.81243798695504665374755859375">
        <ele>575.79998779296875</ele>
        <time>2017-05-05T14:43:40.000Z</time>
        <extensions>
          <ns3:TrackPointExtension>
            <ns3:hr>144</ns3:hr>
          </ns3:TrackPointExtension>
        </extensions>
      </trkpt>
      <trkpt lat="46.828199364244937896728515625" lon="6.8131004087626934051513671875">
        <ele>577</ele>
        <time>2017-05-05T14:43:52.000Z</time>
        <extensions>
          <ns3:TrackPointExtension>
            <ns3:hr>145</ns3:hr>
          </ns3:TrackPointExtension>
        </extensions>
      </trkpt>
      <trkpt lat="46.82831796817481517791748046875" lon="6.813457645475864410400390625">
        <ele>577.5999755859375</ele>
        <time>2017-05-05T14:43:58.000Z</time>
        <extensions>
          <ns3:TrackPointExtension>
            <ns3:hr>148</ns3:hr>
          </ns3:TrackPointExtension>
        </extensions>
      </trkpt>
      <trkpt lat="46.8284315429627895355224609375" lon="6.8137575499713420867919921875">
        <ele>578.20001220703125</ele>
        <time>2017-05-05T14:44:03.000Z</time>
        <extensions>
          <ns3:TrackPointExtension>
            <ns3:hr>150</ns3:hr>
          </ns3:TrackPointExtension>
        </extensions>
      </trkpt>
      <trkpt lat="46.8285626359283924102783203125" lon="6.8141176365315914154052734375">
        <ele>579</ele>
        <time>2017-05-05T14:44:09.000Z</time>
        <extensions>
          <ns3:TrackPointExtension>
            <ns3:hr>153</ns3:hr>
          </ns3:TrackPointExtension>
        </extensions>
      </trkpt>
      <trkpt lat="46.82867419905960559844970703125" lon="6.81435811333358287811279296875">
        <ele>579.4000244140625</ele>
        <time>2017-05-05T14:44:13.000Z</time>
        <extensions>
          <ns3:TrackPointExtension>
            <ns3:hr>152</ns3:hr>
          </ns3:TrackPointExtension>
        </extensions>
      </trkpt>
      <trkpt lat="46.82884518988430500030517578125" lon="6.81470328010618686676025390625">
        <ele>580.20001220703125</ele>
        <time>2017-05-05T14:44:19.000Z</time>
        <extensions>
          <ns3:TrackPointExtension>
            <ns3:hr>149</ns3:hr>
          </ns3:TrackPointExtension>
        </extensions>
      </trkpt>
      <trkpt lat="46.82889548130333423614501953125" lon="6.8148163519799709320068359375">
        <ele>580.4000244140625</ele>
        <time>2017-05-05T14:44:21.000Z</time>
        <extensions>
          <ns3:TrackPointExtension>
            <ns3:hr>148</ns3:hr>
          </ns3:TrackPointExtension>
        </extensions>
      </trkpt>
      <trkpt lat="46.82904836721718311309814453125" lon="6.81516545824706554412841796875">
        <ele>581</ele>
        <time>2017-05-05T14:44:27.000Z</time>
        <extensions>
          <ns3:TrackPointExtension>
            <ns3:hr>145</ns3:hr>
          </ns3:TrackPointExtension>
        </extensions>
      </trkpt>
      <trkpt lat="46.82911726646125316619873046875" lon="6.81533913128077983856201171875">
        <ele>581.5999755859375</ele>
        <time>2017-05-05T14:44:30.000Z</time>
        <extensions>
          <ns3:TrackPointExtension>
            <ns3:hr>144</ns3:hr>
          </ns3:TrackPointExtension>
        </extensions>
      </trkpt>
      <trkpt lat="46.82914878241717815399169921875" lon="6.8153876625001430511474609375">
        <ele>581.79998779296875</ele>
        <time>2017-05-05T14:44:31.000Z</time>
        <extensions>
          <ns3:TrackPointExtension>
            <ns3:hr>144</ns3:hr>
          </ns3:TrackPointExtension>
        </extensions>
      </trkpt>
      <trkpt lat="46.8293703161180019378662109375" lon="6.81566032581031322479248046875">
        <ele>582.5999755859375</ele>
        <time>2017-05-05T14:44:38.000Z</time>
        <extensions>
          <ns3:TrackPointExtension>
            <ns3:hr>143</ns3:hr>
          </ns3:TrackPointExtension>
        </extensions>
      </trkpt>
      <trkpt lat="46.82960023172199726104736328125" lon="6.8158446438610553741455078125">
        <ele>583.79998779296875</ele>
        <time>2017-05-05T14:44:44.000Z</time>
        <extensions>
          <ns3:TrackPointExtension>
            <ns3:hr>144</ns3:hr>
          </ns3:TrackPointExtension>
        </extensions>
      </trkpt>
      <trkpt lat="46.83007632382214069366455078125" lon="6.81626684032380580902099609375">
        <ele>584.20001220703125</ele>
        <time>2017-05-05T14:44:53.000Z</time>
        <extensions>
          <ns3:TrackPointExtension>
            <ns3:hr>144</ns3:hr>
          </ns3:TrackPointExtension>
        </extensions>
      </trkpt>
      <trkpt lat="46.83024530299007892608642578125" lon="6.81645694188773632049560546875">
        <ele>584.20001220703125</ele>
        <time>2017-05-05T14:44:56.000Z</time>
        <extensions>
          <ns3:TrackPointExtension>
            <ns3:hr>144</ns3:hr>
          </ns3:TrackPointExtension>
        </extensions>
      </trkpt>
      <trkpt lat="46.830336414277553558349609375" lon="6.8166204728186130523681640625">
        <ele>583.20001220703125</ele>
        <time>2017-05-05T14:44:58.000Z</time>
        <extensions>
          <ns3:TrackPointExtension>
            <ns3:hr>145</ns3:hr>
          </ns3:TrackPointExtension>
        </extensions>
      </trkpt>
      <trkpt lat="46.8303771503269672393798828125" lon="6.816713176667690277099609375">
        <ele>582.20001220703125</ele>
        <time>2017-05-05T14:44:59.000Z</time>
        <extensions>
          <ns3:TrackPointExtension>
            <ns3:hr>145</ns3:hr>
          </ns3:TrackPointExtension>
        </extensions>
      </trkpt>
      <trkpt lat="46.8304794095456600189208984375" lon="6.817025654017925262451171875">
        <ele>580.79998779296875</ele>
        <time>2017-05-05T14:45:02.000Z</time>
        <extensions>
          <ns3:TrackPointExtension>
            <ns3:hr>146</ns3:hr>
          </ns3:TrackPointExtension>
        </extensions>
      </trkpt>
      <trkpt lat="46.8305337242782115936279296875" lon="6.81734492070972919464111328125">
        <ele>579.79998779296875</ele>
        <time>2017-05-05T14:45:05.000Z</time>
        <extensions>
          <ns3:TrackPointExtension>
            <ns3:hr>146</ns3:hr>
          </ns3:TrackPointExtension>
        </extensions>
      </trkpt>
      <trkpt lat="46.83053649030625820159912109375" lon="6.817820928990840911865234375">
        <ele>578.79998779296875</ele>
        <time>2017-05-05T14:45:10.000Z</time>
        <extensions>
          <ns3:TrackPointExtension>
            <ns3:hr>146</ns3:hr>
          </ns3:TrackPointExtension>
        </extensions>
      </trkpt>
      <trkpt lat="46.8305494822561740875244140625" lon="6.8179907463490962982177734375">
        <ele>578.5999755859375</ele>
        <time>2017-05-05T14:45:12.000Z</time>
        <extensions>
          <ns3:TrackPointExtension>
            <ns3:hr>146</ns3:hr>
          </ns3:TrackPointExtension>
        </extensions>
      </trkpt>
      <trkpt lat="46.8306011147797107696533203125" lon="6.81813776493072509765625">
        <ele>578.5999755859375</ele>
        <time>2017-05-05T14:45:14.000Z</time>
        <extensions>
          <ns3:TrackPointExtension>
            <ns3:hr>146</ns3:hr>
          </ns3:TrackPointExtension>
        </extensions>
      </trkpt>
      <trkpt lat="46.83068803511559963226318359375" lon="6.8182546086609363555908203125">
        <ele>578.4000244140625</ele>
        <time>2017-05-05T14:45:16.000Z</time>
        <extensions>
          <ns3:TrackPointExtension>
            <ns3:hr>146</ns3:hr>
          </ns3:TrackPointExtension>
        </extensions>
      </trkpt>
      <trkpt lat="46.83080219663679599761962890625" lon="6.81835778988897800445556640625">
        <ele>578.20001220703125</ele>
        <time>2017-05-05T14:45:18.000Z</time>
        <extensions>
          <ns3:TrackPointExtension>
            <ns3:hr>145</ns3:hr>
          </ns3:TrackPointExtension>
        </extensions>
      </trkpt>
      <trkpt lat="46.83098257519304752349853515625" lon="6.81848687119781970977783203125">
        <ele>578.20001220703125</ele>
        <time>2017-05-05T14:45:21.000Z</time>
        <extensions>
          <ns3:TrackPointExtension>
            <ns3:hr>146</ns3:hr>
          </ns3:TrackPointExtension>
        </extensions>
      </trkpt>
      <trkpt lat="46.8312393128871917724609375" lon="6.8186482228338718414306640625">
        <ele>577.5999755859375</ele>
        <time>2017-05-05T14:45:25.000Z</time>
        <extensions>
          <ns3:TrackPointExtension>
            <ns3:hr>146</ns3:hr>
          </ns3:TrackPointExtension>
        </extensions>
      </trkpt>
      <trkpt lat="46.831414662301540374755859375" lon="6.81877973489463329315185546875">
        <ele>576.20001220703125</ele>
        <time>2017-05-05T14:45:27.000Z</time>
        <extensions>
          <ns3:TrackPointExtension>
            <ns3:hr>145</ns3:hr>
          </ns3:TrackPointExtension>
        </extensions>
      </trkpt>
      <trkpt lat="46.831495799124240875244140625" lon="6.81887260638177394866943359375">
        <ele>575.5999755859375</ele>
        <time>2017-05-05T14:45:28.000Z</time>
        <extensions>
          <ns3:TrackPointExtension>
            <ns3:hr>145</ns3:hr>
          </ns3:TrackPointExtension>
        </extensions>
      </trkpt>
      <trkpt lat="46.83165572583675384521484375" lon="6.8190958164632320404052734375">
        <ele>574.5999755859375</ele>
        <time>2017-05-05T14:45:30.000Z</time>
        <extensions>
          <ns3:TrackPointExtension>
            <ns3:hr>145</ns3:hr>
          </ns3:TrackPointExtension>
        </extensions>
      </trkpt>
      <trkpt lat="46.83181070722639560699462890625" lon="6.81935406289994716644287109375">
        <ele>573.20001220703125</ele>
        <time>2017-05-05T14:45:32.000Z</time>
        <extensions>
          <ns3:TrackPointExtension>
            <ns3:hr>145</ns3:hr>
          </ns3:TrackPointExtension>
        </extensions>
      </trkpt>
      <trkpt lat="46.83196485042572021484375" lon="6.8196191824972629547119140625">
        <ele>571.5999755859375</ele>
        <time>2017-05-05T14:45:34.000Z</time>
        <extensions>
          <ns3:TrackPointExtension>
            <ns3:hr>145</ns3:hr>
          </ns3:TrackPointExtension>
        </extensions>
      </trkpt>
      <trkpt lat="46.83212771080434322357177734375" lon="6.81988866068422794342041015625">
        <ele>568.79998779296875</ele>
        <time>2017-05-05T14:45:36.000Z</time>
        <extensions>
          <ns3:TrackPointExtension>
            <ns3:hr>144</ns3:hr>
          </ns3:TrackPointExtension>
        </extensions>
      </trkpt>
      <trkpt lat="46.83222359977662563323974609375" lon="6.8200205080211162567138671875">
        <ele>567</ele>
        <time>2017-05-05T14:45:37.000Z</time>
        <extensions>
          <ns3:TrackPointExtension>
            <ns3:hr>144</ns3:hr>
          </ns3:TrackPointExtension>
        </extensions>
      </trkpt>
      <trkpt lat="46.8323277868330478668212890625" lon="6.82014430873095989227294921875">
        <ele>565.5999755859375</ele>
        <time>2017-05-05T14:45:38.000Z</time>
        <extensions>
          <ns3:TrackPointExtension>
            <ns3:hr>144</ns3:hr>
          </ns3:TrackPointExtension>
        </extensions>
      </trkpt>
      <trkpt lat="46.83242342434823513031005859375" lon="6.820267103612422943115234375">
        <ele>564.20001220703125</ele>
        <time>2017-05-05T14:45:39.000Z</time>
        <extensions>
          <ns3:TrackPointExtension>
            <ns3:hr>144</ns3:hr>
          </ns3:TrackPointExtension>
        </extensions>
      </trkpt>
      <trkpt lat="46.83253255672752857208251953125" lon="6.82038688100874423980712890625">
        <ele>562.20001220703125</ele>
        <time>2017-05-05T14:45:40.000Z</time>
        <extensions>
          <ns3:TrackPointExtension>
            <ns3:hr>144</ns3:hr>
          </ns3:TrackPointExtension>
        </extensions>
      </trkpt>
      <trkpt lat="46.83262559585273265838623046875" lon="6.82051621377468109130859375">
        <ele>560.79998779296875</ele>
        <time>2017-05-05T14:45:41.000Z</time>
        <extensions>
          <ns3:TrackPointExtension>
            <ns3:hr>145</ns3:hr>
          </ns3:TrackPointExtension>
        </extensions>
      </trkpt>
      <trkpt lat="46.83273187838494777679443359375" lon="6.82064906693994998931884765625">
        <ele>558.79998779296875</ele>
        <time>2017-05-05T14:45:42.000Z</time>
        <extensions>
          <ns3:TrackPointExtension>
            <ns3:hr>145</ns3:hr>
          </ns3:TrackPointExtension>
        </extensions>
      </trkpt>
      <trkpt lat="46.83281301520764827728271484375" lon="6.8207936547696590423583984375">
        <ele>556.4000244140625</ele>
        <time>2017-05-05T14:45:43.000Z</time>
        <extensions>
          <ns3:TrackPointExtension>
            <ns3:hr>145</ns3:hr>
          </ns3:TrackPointExtension>
        </extensions>
      </trkpt>
      <trkpt lat="46.832879483699798583984375" lon="6.82095567695796489715576171875">
        <ele>554.4000244140625</ele>
        <time>2017-05-05T14:45:44.000Z</time>
        <extensions>
          <ns3:TrackPointExtension>
            <ns3:hr>146</ns3:hr>
          </ns3:TrackPointExtension>
        </extensions>
      </trkpt>
      <trkpt lat="46.832929439842700958251953125" lon="6.82112038135528564453125">
        <ele>553.20001220703125</ele>
        <time>2017-05-05T14:45:45.000Z</time>
        <extensions>
          <ns3:TrackPointExtension>
            <ns3:hr>146</ns3:hr>
          </ns3:TrackPointExtension>
        </extensions>
      </trkpt>
      <trkpt lat="46.8329798988997936248779296875" lon="6.8212831579148769378662109375">
        <ele>552</ele>
        <time>2017-05-05T14:45:46.000Z</time>
        <extensions>
          <ns3:TrackPointExtension>
            <ns3:hr>147</ns3:hr>
          </ns3:TrackPointExtension>
        </extensions>
      </trkpt>
      <trkpt lat="46.83302231132984161376953125" lon="6.82145607657730579376220703125">
        <ele>550.4000244140625</ele>
        <time>2017-05-05T14:45:47.000Z</time>
        <extensions>
          <ns3:TrackPointExtension>
            <ns3:hr>147</ns3:hr>
          </ns3:TrackPointExtension>
        </extensions>
      </trkpt>
      <trkpt lat="46.83306179009377956390380859375" lon="6.821621954441070556640625">
        <ele>549.20001220703125</ele>
        <time>2017-05-05T14:45:48.000Z</time>
        <extensions>
          <ns3:TrackPointExtension>
            <ns3:hr>148</ns3:hr>
          </ns3:TrackPointExtension>
        </extensions>
      </trkpt>
      <trkpt lat="46.8330878578126430511474609375" lon="6.8217917717993259429931640625">
        <ele>547.5999755859375</ele>
        <time>2017-05-05T14:45:49.000Z</time>
        <extensions>
          <ns3:TrackPointExtension>
            <ns3:hr>148</ns3:hr>
          </ns3:TrackPointExtension>
        </extensions>
      </trkpt>
      <trkpt lat="46.833106465637683868408203125" lon="6.82195127941668033599853515625">
        <ele>545.79998779296875</ele>
        <time>2017-05-05T14:45:50.000Z</time>
        <extensions>
          <ns3:TrackPointExtension>
            <ns3:hr>149</ns3:hr>
          </ns3:TrackPointExtension>
        </extensions>
      </trkpt>
      <trkpt lat="46.833115518093109130859375" lon="6.822100393474102020263671875">
        <ele>544.4000244140625</ele>
        <time>2017-05-05T14:45:51.000Z</time>
        <extensions>
          <ns3:TrackPointExtension>
            <ns3:hr>149</ns3:hr>
          </ns3:TrackPointExtension>
        </extensions>
      </trkpt>
      <trkpt lat="46.83312825858592987060546875" lon="6.82234506122767925262451171875">
        <ele>543</ele>
        <time>2017-05-05T14:45:53.000Z</time>
        <extensions>
          <ns3:TrackPointExtension>
            <ns3:hr>148</ns3:hr>
          </ns3:TrackPointExtension>
        </extensions>
      </trkpt>
      <trkpt lat="46.8331160210072994232177734375" lon="6.8225129507482051849365234375">
        <ele>542.4000244140625</ele>
        <time>2017-05-05T14:45:55.000Z</time>
        <extensions>
          <ns3:TrackPointExtension>
            <ns3:hr>148</ns3:hr>
          </ns3:TrackPointExtension>
        </extensions>
      </trkpt>
      <trkpt lat="46.83305676095187664031982421875" lon="6.8226034753024578094482421875">
        <ele>542</ele>
        <time>2017-05-05T14:45:57.000Z</time>
        <extensions>
          <ns3:TrackPointExtension>
            <ns3:hr>146</ns3:hr>
          </ns3:TrackPointExtension>
        </extensions>
      </trkpt>
      <trkpt lat="46.8329071439802646636962890625" lon="6.8226101808249950408935546875">
        <ele>542</ele>
        <time>2017-05-05T14:45:58.000Z</time>
        <extensions>
          <ns3:TrackPointExtension>
            <ns3:hr>146</ns3:hr>
          </ns3:TrackPointExtension>
        </extensions>
      </trkpt>
      <trkpt lat="46.83236508630216121673583984375" lon="6.8228157050907611846923828125">
        <ele>540.5999755859375</ele>
        <time>2017-05-05T14:46:04.000Z</time>
        <extensions>
          <ns3:TrackPointExtension>
            <ns3:hr>145</ns3:hr>
          </ns3:TrackPointExtension>
        </extensions>
      </trkpt>
      <trkpt lat="46.83213491924107074737548828125" lon="6.82286985218524932861328125">
        <ele>539.79998779296875</ele>
        <time>2017-05-05T14:46:06.000Z</time>
        <extensions>
          <ns3:TrackPointExtension>
            <ns3:hr>146</ns3:hr>
          </ns3:TrackPointExtension>
        </extensions>
      </trkpt>
      <trkpt lat="46.8320377729833126068115234375" lon="6.82292676530778408050537109375">
        <ele>539.4000244140625</ele>
        <time>2017-05-05T14:46:07.000Z</time>
        <extensions>
          <ns3:TrackPointExtension>
            <ns3:hr>146</ns3:hr>
          </ns3:TrackPointExtension>
        </extensions>
      </trkpt>
      <trkpt lat="46.8318696320056915283203125" lon="6.8230765499174594879150390625">
        <ele>538.5999755859375</ele>
        <time>2017-05-05T14:46:09.000Z</time>
        <extensions>
          <ns3:TrackPointExtension>
            <ns3:hr>146</ns3:hr>
          </ns3:TrackPointExtension>
        </extensions>
      </trkpt>
      <trkpt lat="46.83179360814392566680908203125" lon="6.8231767974793910980224609375">
        <ele>538.20001220703125</ele>
        <time>2017-05-05T14:46:10.000Z</time>
        <extensions>
          <ns3:TrackPointExtension>
            <ns3:hr>146</ns3:hr>
          </ns3:TrackPointExtension>
        </extensions>
      </trkpt>
      <trkpt lat="46.831761337816715240478515625" lon="6.82329925708472728729248046875">
        <ele>537.4000244140625</ele>
        <time>2017-05-05T14:46:11.000Z</time>
        <extensions>
          <ns3:TrackPointExtension>
            <ns3:hr>145</ns3:hr>
          </ns3:TrackPointExtension>
        </extensions>
      </trkpt>
      <trkpt lat="46.83170710690319538116455078125" lon="6.8234175257384777069091796875">
        <ele>536.79998779296875</ele>
        <time>2017-05-05T14:46:12.000Z</time>
        <extensions>
          <ns3:TrackPointExtension>
            <ns3:hr>145</ns3:hr>
          </ns3:TrackPointExtension>
        </extensions>
      </trkpt>
      <trkpt lat="46.83153636753559112548828125" lon="6.82382983155548572540283203125">
        <ele>535.79998779296875</ele>
        <time>2017-05-05T14:46:16.000Z</time>
        <extensions>
          <ns3:TrackPointExtension>
            <ns3:hr>146</ns3:hr>
          </ns3:TrackPointExtension>
        </extensions>
      </trkpt>
      <trkpt lat="46.83144710026681423187255859375" lon="6.8239120580255985260009765625">
        <ele>535.5999755859375</ele>
        <time>2017-05-05T14:46:18.000Z</time>
        <extensions>
          <ns3:TrackPointExtension>
            <ns3:hr>147</ns3:hr>
          </ns3:TrackPointExtension>
        </extensions>
      </trkpt>
      <trkpt lat="46.83135573752224445343017578125" lon="6.8239030055701732635498046875">
        <ele>535.4000244140625</ele>
        <time>2017-05-05T14:46:20.000Z</time>
        <extensions>
          <ns3:TrackPointExtension>
            <ns3:hr>147</ns3:hr>
          </ns3:TrackPointExtension>
        </extensions>
      </trkpt>
      <trkpt lat="46.83118893764913082122802734375" lon="6.82377182878553867340087890625">
        <ele>535.20001220703125</ele>
        <time>2017-05-05T14:46:23.000Z</time>
        <extensions>
          <ns3:TrackPointExtension>
            <ns3:hr>147</ns3:hr>
          </ns3:TrackPointExtension>
        </extensions>
      </trkpt>
      <trkpt lat="46.8308814056217670440673828125" lon="6.82339983992278575897216796875">
        <ele>534.4000244140625</ele>
        <time>2017-05-05T14:46:28.000Z</time>
        <extensions>
          <ns3:TrackPointExtension>
            <ns3:hr>146</ns3:hr>
          </ns3:TrackPointExtension>
        </extensions>
      </trkpt>
      <trkpt lat="46.8307402543723583221435546875" lon="6.82327310554683208465576171875">
        <ele>534</ele>
        <time>2017-05-05T14:46:30.000Z</time>
        <extensions>
          <ns3:TrackPointExtension>
            <ns3:hr>147</ns3:hr>
          </ns3:TrackPointExtension>
        </extensions>
      </trkpt>
      <trkpt lat="46.8306517414748668670654296875" lon="6.8232364766299724578857421875">
        <ele>533.79998779296875</ele>
        <time>2017-05-05T14:46:33.000Z</time>
        <extensions>
          <ns3:TrackPointExtension>
            <ns3:hr>148</ns3:hr>
          </ns3:TrackPointExtension>
        </extensions>
      </trkpt>
      <trkpt lat="46.830673702061176300048828125" lon="6.8234262429177761077880859375">
        <ele>533.79998779296875</ele>
        <time>2017-05-05T14:46:38.000Z</time>
        <extensions>
          <ns3:TrackPointExtension>
            <ns3:hr>151</ns3:hr>
          </ns3:TrackPointExtension>
        </extensions>
      </trkpt>
      <trkpt lat="46.830669343471527099609375" lon="6.82396821677684783935546875">
        <ele>535.5999755859375</ele>
        <time>2017-05-05T14:46:50.000Z</time>
        <extensions>
          <ns3:TrackPointExtension>
            <ns3:hr>152</ns3:hr>
          </ns3:TrackPointExtension>
        </extensions>
      </trkpt>
      <trkpt lat="46.83077688328921794891357421875" lon="6.824259571731090545654296875">
        <ele>536.4000244140625</ele>
        <time>2017-05-05T14:46:56.000Z</time>
        <extensions>
          <ns3:TrackPointExtension>
            <ns3:hr>149</ns3:hr>
          </ns3:TrackPointExtension>
        </extensions>
      </trkpt>
      <trkpt lat="46.83079205453395843505859375" lon="6.824384965002536773681640625">
        <ele>536.5999755859375</ele>
        <time>2017-05-05T14:46:59.000Z</time>
        <extensions>
          <ns3:TrackPointExtension>
            <ns3:hr>148</ns3:hr>
          </ns3:TrackPointExtension>
        </extensions>
      </trkpt>
      <trkpt lat="46.830841340124607086181640625" lon="6.8245269544422626495361328125">
        <ele>538</ele>
        <time>2017-05-05T14:47:03.000Z</time>
        <extensions>
          <ns3:TrackPointExtension>
            <ns3:hr>146</ns3:hr>
          </ns3:TrackPointExtension>
        </extensions>
      </trkpt>
      <trkpt lat="46.830900348722934722900390625" lon="6.82464740239083766937255859375">
        <ele>539.20001220703125</ele>
        <time>2017-05-05T14:47:07.000Z</time>
        <extensions>
          <ns3:TrackPointExtension>
            <ns3:hr>144</ns3:hr>
          </ns3:TrackPointExtension>
        </extensions>
      </trkpt>
      <trkpt lat="46.83098374865949153900146484375" lon="6.8247566185891628265380859375">
        <ele>540.20001220703125</ele>
        <time>2017-05-05T14:47:11.000Z</time>
        <extensions>
          <ns3:TrackPointExtension>
            <ns3:hr>144</ns3:hr>
          </ns3:TrackPointExtension>
        </extensions>
      </trkpt>
      <trkpt lat="46.83139622211456298828125" lon="6.82540311478078365325927734375">
        <ele>540</ele>
        <time>2017-05-05T14:47:21.000Z</time>
        <extensions>
          <ns3:TrackPointExtension>
            <ns3:hr>146</ns3:hr>
          </ns3:TrackPointExtension>
        </extensions>
      </trkpt>
      <trkpt lat="46.83150057680904865264892578125" lon="6.825589947402477264404296875">
        <ele>539.20001220703125</ele>
        <time>2017-05-05T14:47:23.000Z</time>
        <extensions>
          <ns3:TrackPointExtension>
            <ns3:hr>145</ns3:hr>
          </ns3:TrackPointExtension>
        </extensions>
      </trkpt>
      <trkpt lat="46.8316156603395938873291015625" lon="6.8257699906826019287109375">
        <ele>537.4000244140625</ele>
        <time>2017-05-05T14:47:25.000Z</time>
        <extensions>
          <ns3:TrackPointExtension>
            <ns3:hr>145</ns3:hr>
          </ns3:TrackPointExtension>
        </extensions>
      </trkpt>
      <trkpt lat="46.83173409663140773773193359375" lon="6.82593670673668384552001953125">
        <ele>535.4000244140625</ele>
        <time>2017-05-05T14:47:27.000Z</time>
        <extensions>
          <ns3:TrackPointExtension>
            <ns3:hr>144</ns3:hr>
          </ns3:TrackPointExtension>
        </extensions>
      </trkpt>
      <trkpt lat="46.8318307399749755859375" lon="6.8261208571493625640869140625">
        <ele>533.79998779296875</ele>
        <time>2017-05-05T14:47:29.000Z</time>
        <extensions>
          <ns3:TrackPointExtension>
            <ns3:hr>144</ns3:hr>
          </ns3:TrackPointExtension>
        </extensions>
      </trkpt>
      <trkpt lat="46.83187642134726047515869140625" lon="6.82622973807156085968017578125">
        <ele>533.20001220703125</ele>
        <time>2017-05-05T14:47:30.000Z</time>
        <extensions>
          <ns3:TrackPointExtension>
            <ns3:hr>143</ns3:hr>
          </ns3:TrackPointExtension>
        </extensions>
      </trkpt>
      <trkpt lat="46.831967532634735107421875" lon="6.8264511041343212127685546875">
        <ele>532.4000244140625</ele>
        <time>2017-05-05T14:47:32.000Z</time>
        <extensions>
          <ns3:TrackPointExtension>
            <ns3:hr>143</ns3:hr>
          </ns3:TrackPointExtension>
        </extensions>
      </trkpt>
      <trkpt lat="46.83202193118631839752197265625" lon="6.8265547044575214385986328125">
        <ele>531.5999755859375</ele>
        <time>2017-05-05T14:47:33.000Z</time>
        <extensions>
          <ns3:TrackPointExtension>
            <ns3:hr>143</ns3:hr>
          </ns3:TrackPointExtension>
        </extensions>
      </trkpt>
      <trkpt lat="46.8320796824991703033447265625" lon="6.8266505934298038482666015625">
        <ele>531</ele>
        <time>2017-05-05T14:47:34.000Z</time>
        <extensions>
          <ns3:TrackPointExtension>
            <ns3:hr>143</ns3:hr>
          </ns3:TrackPointExtension>
        </extensions>
      </trkpt>
      <trkpt lat="46.832137517631053924560546875" lon="6.8267354182898998260498046875">
        <ele>529</ele>
        <time>2017-05-05T14:47:35.000Z</time>
        <extensions>
          <ns3:TrackPointExtension>
            <ns3:hr>143</ns3:hr>
          </ns3:TrackPointExtension>
        </extensions>
      </trkpt>
      <trkpt lat="46.832185126841068267822265625" lon="6.826825104653835296630859375">
        <ele>528</ele>
        <time>2017-05-05T14:47:36.000Z</time>
        <extensions>
          <ns3:TrackPointExtension>
            <ns3:hr>144</ns3:hr>
          </ns3:TrackPointExtension>
        </extensions>
      </trkpt>
      <trkpt lat="46.832234077155590057373046875" lon="6.8269060738384723663330078125">
        <ele>526.79998779296875</ele>
        <time>2017-05-05T14:47:37.000Z</time>
        <extensions>
          <ns3:TrackPointExtension>
            <ns3:hr>144</ns3:hr>
          </ns3:TrackPointExtension>
        </extensions>
      </trkpt>
      <trkpt lat="46.83228244073688983917236328125" lon="6.82697455398738384246826171875">
        <ele>525.5999755859375</ele>
        <time>2017-05-05T14:47:38.000Z</time>
        <extensions>
          <ns3:TrackPointExtension>
            <ns3:hr>144</ns3:hr>
          </ns3:TrackPointExtension>
        </extensions>
      </trkpt>
      <trkpt lat="46.8323214165866374969482421875" lon="6.82703993283212184906005859375">
        <ele>524.4000244140625</ele>
        <time>2017-05-05T14:47:39.000Z</time>
        <extensions>
          <ns3:TrackPointExtension>
            <ns3:hr>145</ns3:hr>
          </ns3:TrackPointExtension>
        </extensions>
      </trkpt>
      <trkpt lat="46.8323841132223606109619140625" lon="6.8271754682064056396484375">
        <ele>522.79998779296875</ele>
        <time>2017-05-05T14:47:41.000Z</time>
        <extensions>
          <ns3:TrackPointExtension>
            <ns3:hr>145</ns3:hr>
          </ns3:TrackPointExtension>
        </extensions>
      </trkpt>
      <trkpt lat="46.83238537050783634185791015625" lon="6.82735542766749858856201171875">
        <ele>521.20001220703125</ele>
        <time>2017-05-05T14:47:43.000Z</time>
        <extensions>
          <ns3:TrackPointExtension>
            <ns3:hr>145</ns3:hr>
          </ns3:TrackPointExtension>
        </extensions>
      </trkpt>
      <trkpt lat="46.83235569857060909271240234375" lon="6.82750110514461994171142578125">
        <ele>520.20001220703125</ele>
        <time>2017-05-05T14:47:45.000Z</time>
        <extensions>
          <ns3:TrackPointExtension>
            <ns3:hr>145</ns3:hr>
          </ns3:TrackPointExtension>
        </extensions>
      </trkpt>
      <trkpt lat="46.832041628658771514892578125" lon="6.8276882730424404144287109375">
        <ele>521.20001220703125</ele>
        <time>2017-05-05T14:47:57.000Z</time>
        <extensions>
          <ns3:TrackPointExtension>
            <ns3:hr>143</ns3:hr>
          </ns3:TrackPointExtension>
        </extensions>
      </trkpt>
      <trkpt lat="46.83199502527713775634765625" lon="6.82764158584177494049072265625">
        <ele>522.5999755859375</ele>
        <time>2017-05-05T14:47:59.000Z</time>
        <extensions>
          <ns3:TrackPointExtension>
            <ns3:hr>144</ns3:hr>
          </ns3:TrackPointExtension>
        </extensions>
      </trkpt>
      <trkpt lat="46.831960491836071014404296875" lon="6.8275256641209125518798828125">
        <ele>523.5999755859375</ele>
        <time>2017-05-05T14:48:02.000Z</time>
        <extensions>
          <ns3:TrackPointExtension>
            <ns3:hr>146</ns3:hr>
          </ns3:TrackPointExtension>
        </extensions>
      </trkpt>
      <trkpt lat="46.83193492703139781951904296875" lon="6.82739339768886566162109375">
        <ele>524.79998779296875</ele>
        <time>2017-05-05T14:48:05.000Z</time>
        <extensions>
          <ns3:TrackPointExtension>
            <ns3:hr>145</ns3:hr>
          </ns3:TrackPointExtension>
        </extensions>
      </trkpt>
      <trkpt lat="46.8318776786327362060546875" lon="6.827251911163330078125">
        <ele>525.79998779296875</ele>
        <time>2017-05-05T14:48:09.000Z</time>
        <extensions>
          <ns3:TrackPointExtension>
            <ns3:hr>144</ns3:hr>
          </ns3:TrackPointExtension>
        </extensions>
      </trkpt>
      <trkpt lat="46.831847168505191802978515625" lon="6.82709743268787860870361328125">
        <ele>526.79998779296875</ele>
        <time>2017-05-05T14:48:13.000Z</time>
        <extensions>
          <ns3:TrackPointExtension>
            <ns3:hr>145</ns3:hr>
          </ns3:TrackPointExtension>
        </extensions>
      </trkpt>
      <trkpt lat="46.831812970340251922607421875" lon="6.82696064002811908721923828125">
        <ele>528.20001220703125</ele>
        <time>2017-05-05T14:48:17.000Z</time>
        <extensions>
          <ns3:TrackPointExtension>
            <ns3:hr>146</ns3:hr>
          </ns3:TrackPointExtension>
        </extensions>
      </trkpt>
      <trkpt lat="46.83173409663140773773193359375" lon="6.82683658786118030548095703125">
        <ele>529.4000244140625</ele>
        <time>2017-05-05T14:48:22.000Z</time>
        <extensions>
          <ns3:TrackPointExtension>
            <ns3:hr>146</ns3:hr>
          </ns3:TrackPointExtension>
        </extensions>
      </trkpt>
      <trkpt lat="46.8316552229225635528564453125" lon="6.82675695978105068206787109375">
        <ele>530.79998779296875</ele>
        <time>2017-05-05T14:48:27.000Z</time>
        <extensions>
          <ns3:TrackPointExtension>
            <ns3:hr>147</ns3:hr>
          </ns3:TrackPointExtension>
        </extensions>
      </trkpt>
      <trkpt lat="46.8315925262868404388427734375" lon="6.8267176486551761627197265625">
        <ele>532.20001220703125</ele>
        <time>2017-05-05T14:48:30.000Z</time>
        <extensions>
          <ns3:TrackPointExtension>
            <ns3:hr>150</ns3:hr>
          </ns3:TrackPointExtension>
        </extensions>
      </trkpt>
      <trkpt lat="46.8315127305686473846435546875" lon="6.82668370194733142852783203125">
        <ele>533.20001220703125</ele>
        <time>2017-05-05T14:48:34.000Z</time>
        <extensions>
          <ns3:TrackPointExtension>
            <ns3:hr>150</ns3:hr>
          </ns3:TrackPointExtension>
        </extensions>
      </trkpt>
      <trkpt lat="46.83149051852524280548095703125" lon="6.8266712129116058349609375">
        <ele>533.4000244140625</ele>
        <time>2017-05-05T14:48:35.000Z</time>
        <extensions>
          <ns3:TrackPointExtension>
            <ns3:hr>150</ns3:hr>
          </ns3:TrackPointExtension>
        </extensions>
      </trkpt>
      <trkpt lat="46.8314212001860141754150390625" lon="6.82661212049424648284912109375">
        <ele>534.4000244140625</ele>
        <time>2017-05-05T14:48:39.000Z</time>
        <extensions>
          <ns3:TrackPointExtension>
            <ns3:hr>150</ns3:hr>
          </ns3:TrackPointExtension>
        </extensions>
      </trkpt>
      <trkpt lat="46.831372417509555816650390625" lon="6.82658378966152667999267578125">
        <ele>535.4000244140625</ele>
        <time>2017-05-05T14:48:42.000Z</time>
        <extensions>
          <ns3:TrackPointExtension>
            <ns3:hr>149</ns3:hr>
          </ns3:TrackPointExtension>
        </extensions>
      </trkpt>
      <trkpt lat="46.83130837976932525634765625" lon="6.8265691213309764862060546875">
        <ele>536.79998779296875</ele>
        <time>2017-05-05T14:48:46.000Z</time>
        <extensions>
          <ns3:TrackPointExtension>
            <ns3:hr>148</ns3:hr>
          </ns3:TrackPointExtension>
        </extensions>
      </trkpt>
      <trkpt lat="46.83127225376665592193603515625" lon="6.8265466578304767608642578125">
        <ele>537.79998779296875</ele>
        <time>2017-05-05T14:48:49.000Z</time>
        <extensions>
          <ns3:TrackPointExtension>
            <ns3:hr>147</ns3:hr>
          </ns3:TrackPointExtension>
        </extensions>
      </trkpt>
      <trkpt lat="46.83123906143009662628173828125" lon="6.826501898467540740966796875">
        <ele>539</ele>
        <time>2017-05-05T14:48:53.000Z</time>
        <extensions>
          <ns3:TrackPointExtension>
            <ns3:hr>145</ns3:hr>
          </ns3:TrackPointExtension>
        </extensions>
      </trkpt>
      <trkpt lat="46.8312042765319347381591796875" lon="6.82646040804684162139892578125">
        <ele>540.20001220703125</ele>
        <time>2017-05-05T14:48:56.000Z</time>
        <extensions>
          <ns3:TrackPointExtension>
            <ns3:hr>144</ns3:hr>
          </ns3:TrackPointExtension>
        </extensions>
      </trkpt>
      <trkpt lat="46.83118072338402271270751953125" lon="6.82639251463115215301513671875">
        <ele>541.20001220703125</ele>
        <time>2017-05-05T14:48:59.000Z</time>
        <extensions>
          <ns3:TrackPointExtension>
            <ns3:hr>145</ns3:hr>
          </ns3:TrackPointExtension>
        </extensions>
      </trkpt>
      <trkpt lat="46.83116110973060131072998046875" lon="6.82627064175903797149658203125">
        <ele>542.4000244140625</ele>
        <time>2017-05-05T14:49:04.000Z</time>
        <extensions>
          <ns3:TrackPointExtension>
            <ns3:hr>145</ns3:hr>
          </ns3:TrackPointExtension>
        </extensions>
      </trkpt>
      <trkpt lat="46.83111567981541156768798828125" lon="6.82619956322014331817626953125">
        <ele>543.5999755859375</ele>
        <time>2017-05-05T14:49:07.000Z</time>
        <extensions>
          <ns3:TrackPointExtension>
            <ns3:hr>146</ns3:hr>
          </ns3:TrackPointExtension>
        </extensions>
      </trkpt>
      <trkpt lat="46.83108751662075519561767578125" lon="6.82609680108726024627685546875">
        <ele>544.5999755859375</ele>
        <time>2017-05-05T14:49:11.000Z</time>
        <extensions>
          <ns3:TrackPointExtension>
            <ns3:hr>146</ns3:hr>
          </ns3:TrackPointExtension>
        </extensions>
      </trkpt>
      <trkpt lat="46.83103856630623340606689453125" lon="6.8259496986865997314453125">
        <ele>545.79998779296875</ele>
        <time>2017-05-05T14:49:16.000Z</time>
        <extensions>
          <ns3:TrackPointExtension>
            <ns3:hr>144</ns3:hr>
          </ns3:TrackPointExtension>
        </extensions>
      </trkpt>
      <trkpt lat="46.83095558546483516693115234375" lon="6.82576403953135013580322265625">
        <ele>547</ele>
        <time>2017-05-05T14:49:23.000Z</time>
        <extensions>
          <ns3:TrackPointExtension>
            <ns3:hr>143</ns3:hr>
          </ns3:TrackPointExtension>
        </extensions>
      </trkpt>
      <trkpt lat="46.8308847583830356597900390625" lon="6.82569564320147037506103515625">
        <ele>548.4000244140625</ele>
        <time>2017-05-05T14:49:27.000Z</time>
        <extensions>
          <ns3:TrackPointExtension>
            <ns3:hr>144</ns3:hr>
          </ns3:TrackPointExtension>
        </extensions>
      </trkpt>
      <trkpt lat="46.83081175200641155242919921875" lon="6.8256367184221744537353515625">
        <ele>549.4000244140625</ele>
        <time>2017-05-05T14:49:31.000Z</time>
        <extensions>
          <ns3:TrackPointExtension>
            <ns3:hr>143</ns3:hr>
          </ns3:TrackPointExtension>
        </extensions>
      </trkpt>
      <trkpt lat="46.8307573534548282623291015625" lon="6.825512833893299102783203125">
        <ele>550.5999755859375</ele>
        <time>2017-05-05T14:49:37.000Z</time>
        <extensions>
          <ns3:TrackPointExtension>
            <ns3:hr>144</ns3:hr>
          </ns3:TrackPointExtension>
        </extensions>
      </trkpt>
      <trkpt lat="46.83073463849723339080810546875" lon="6.82538936845958232879638671875">
        <ele>552</ele>
        <time>2017-05-05T14:49:42.000Z</time>
        <extensions>
          <ns3:TrackPointExtension>
            <ns3:hr>144</ns3:hr>
          </ns3:TrackPointExtension>
        </extensions>
      </trkpt>
      <trkpt lat="46.83069038204848766326904296875" lon="6.8253245763480663299560546875">
        <ele>552.4000244140625</ele>
        <time>2017-05-05T14:49:45.000Z</time>
        <extensions>
          <ns3:TrackPointExtension>
            <ns3:hr>147</ns3:hr>
          </ns3:TrackPointExtension>
        </extensions>
      </trkpt>
      <trkpt lat="46.8306648172438144683837890625" lon="6.82525173760950565338134765625">
        <ele>553</ele>
        <time>2017-05-05T14:49:48.000Z</time>
        <extensions>
          <ns3:TrackPointExtension>
            <ns3:hr>147</ns3:hr>
          </ns3:TrackPointExtension>
        </extensions>
      </trkpt>
      <trkpt lat="46.8306343071162700653076171875" lon="6.82515232823789119720458984375">
        <ele>554</ele>
        <time>2017-05-05T14:49:52.000Z</time>
        <extensions>
          <ns3:TrackPointExtension>
            <ns3:hr>146</ns3:hr>
          </ns3:TrackPointExtension>
        </extensions>
      </trkpt>
      <trkpt lat="46.83060253970324993133544921875" lon="6.82499550282955169677734375">
        <ele>555.20001220703125</ele>
        <time>2017-05-05T14:49:58.000Z</time>
        <extensions>
          <ns3:TrackPointExtension>
            <ns3:hr>144</ns3:hr>
          </ns3:TrackPointExtension>
        </extensions>
      </trkpt>
      <trkpt lat="46.83056850917637348175048828125" lon="6.82491830550134181976318359375">
        <ele>556.20001220703125</ele>
        <time>2017-05-05T14:50:02.000Z</time>
        <extensions>
          <ns3:TrackPointExtension>
            <ns3:hr>142</ns3:hr>
          </ns3:TrackPointExtension>
        </extensions>
      </trkpt>
      <trkpt lat="46.8305216543376445770263671875" lon="6.824850998818874359130859375">
        <ele>557.4000244140625</ele>
        <time>2017-05-05T14:50:06.000Z</time>
        <extensions>
          <ns3:TrackPointExtension>
            <ns3:hr>141</ns3:hr>
          </ns3:TrackPointExtension>
        </extensions>
      </trkpt>
      <trkpt lat="46.83046440593898296356201171875" lon="6.82480984367430210113525390625">
        <ele>557.79998779296875</ele>
        <time>2017-05-05T14:50:09.000Z</time>
        <extensions>
          <ns3:TrackPointExtension>
            <ns3:hr>140</ns3:hr>
          </ns3:TrackPointExtension>
        </extensions>
      </trkpt>
      <trkpt lat="46.8304157070815563201904296875" lon="6.824753768742084503173828125">
        <ele>558.4000244140625</ele>
        <time>2017-05-05T14:50:11.000Z</time>
        <extensions>
          <ns3:TrackPointExtension>
            <ns3:hr>138</ns3:hr>
          </ns3:TrackPointExtension>
        </extensions>
      </trkpt>
      <trkpt lat="46.83036952279508113861083984375" lon="6.824653185904026031494140625">
        <ele>559.5999755859375</ele>
        <time>2017-05-05T14:50:15.000Z</time>
        <extensions>
          <ns3:TrackPointExtension>
            <ns3:hr>136</ns3:hr>
          </ns3:TrackPointExtension>
        </extensions>
      </trkpt>
      <trkpt lat="46.83032727800309658050537109375" lon="6.82454380206763744354248046875">
        <ele>560.79998779296875</ele>
        <time>2017-05-05T14:50:20.000Z</time>
        <extensions>
          <ns3:TrackPointExtension>
            <ns3:hr>139</ns3:hr>
          </ns3:TrackPointExtension>
        </extensions>
      </trkpt>
      <trkpt lat="46.830262653529644012451171875" lon="6.82444321922957897186279296875">
        <ele>562</ele>
        <time>2017-05-05T14:50:24.000Z</time>
        <extensions>
          <ns3:TrackPointExtension>
            <ns3:hr>141</ns3:hr>
          </ns3:TrackPointExtension>
        </extensions>
      </trkpt>
      <trkpt lat="46.83023004792630672454833984375" lon="6.82434364221990108489990234375">
        <ele>563.20001220703125</ele>
        <time>2017-05-05T14:50:28.000Z</time>
        <extensions>
          <ns3:TrackPointExtension>
            <ns3:hr>141</ns3:hr>
          </ns3:TrackPointExtension>
        </extensions>
      </trkpt>
      <trkpt lat="46.83016433380544185638427734375" lon="6.82426837272942066192626953125">
        <ele>564.20001220703125</ele>
        <time>2017-05-05T14:50:32.000Z</time>
        <extensions>
          <ns3:TrackPointExtension>
            <ns3:hr>140</ns3:hr>
          </ns3:TrackPointExtension>
        </extensions>
      </trkpt>
      <trkpt lat="46.83010809123516082763671875" lon="6.82419192977249622344970703125">
        <ele>565.20001220703125</ele>
        <time>2017-05-05T14:50:36.000Z</time>
        <extensions>
          <ns3:TrackPointExtension>
            <ns3:hr>140</ns3:hr>
          </ns3:TrackPointExtension>
        </extensions>
      </trkpt>
      <trkpt lat="46.8300462327897548675537109375" lon="6.824084557592868804931640625">
        <ele>566.4000244140625</ele>
        <time>2017-05-05T14:50:41.000Z</time>
        <extensions>
          <ns3:TrackPointExtension>
            <ns3:hr>143</ns3:hr>
          </ns3:TrackPointExtension>
        </extensions>
      </trkpt>
      <trkpt lat="46.8299982883036136627197265625" lon="6.8240346014499664306640625">
        <ele>566.79998779296875</ele>
        <time>2017-05-05T14:50:44.000Z</time>
        <extensions>
          <ns3:TrackPointExtension>
            <ns3:hr>146</ns3:hr>
          </ns3:TrackPointExtension>
        </extensions>
      </trkpt>
      <trkpt lat="46.829976998269557952880859375" lon="6.82399059645831584930419921875">
        <ele>567.5999755859375</ele>
        <time>2017-05-05T14:50:46.000Z</time>
        <extensions>
          <ns3:TrackPointExtension>
            <ns3:hr>147</ns3:hr>
          </ns3:TrackPointExtension>
        </extensions>
      </trkpt>
      <trkpt lat="46.82991564273834228515625" lon="6.8238575756549835205078125">
        <ele>568.4000244140625</ele>
        <time>2017-05-05T14:50:52.000Z</time>
        <extensions>
          <ns3:TrackPointExtension>
            <ns3:hr>150</ns3:hr>
          </ns3:TrackPointExtension>
        </extensions>
      </trkpt>
      <trkpt lat="46.829909943044185638427734375" lon="6.82383569888770580291748046875">
        <ele>568.79998779296875</ele>
        <time>2017-05-05T14:50:53.000Z</time>
        <extensions>
          <ns3:TrackPointExtension>
            <ns3:hr>150</ns3:hr>
          </ns3:TrackPointExtension>
        </extensions>
      </trkpt>
      <trkpt lat="46.82984297163784503936767578125" lon="6.82378238998353481292724609375">
        <ele>569.79998779296875</ele>
        <time>2017-05-05T14:50:57.000Z</time>
        <extensions>
          <ns3:TrackPointExtension>
            <ns3:hr>151</ns3:hr>
          </ns3:TrackPointExtension>
        </extensions>
      </trkpt>
      <trkpt lat="46.82982151396572589874267578125" lon="6.823688261210918426513671875">
        <ele>571</ele>
        <time>2017-05-05T14:51:02.000Z</time>
        <extensions>
          <ns3:TrackPointExtension>
            <ns3:hr>149</ns3:hr>
          </ns3:TrackPointExtension>
        </extensions>
      </trkpt>
      <trkpt lat="46.82975948788225650787353515625" lon="6.82364174164831638336181640625">
        <ele>572.20001220703125</ele>
        <time>2017-05-05T14:51:06.000Z</time>
        <extensions>
          <ns3:TrackPointExtension>
            <ns3:hr>147</ns3:hr>
          </ns3:TrackPointExtension>
        </extensions>
      </trkpt>
      <trkpt lat="46.82965370826423168182373046875" lon="6.8235901929438114166259765625">
        <ele>573.4000244140625</ele>
        <time>2017-05-05T14:51:11.000Z</time>
        <extensions>
          <ns3:TrackPointExtension>
            <ns3:hr>148</ns3:hr>
          </ns3:TrackPointExtension>
        </extensions>
      </trkpt>
      <trkpt lat="46.82959713041782379150390625" lon="6.82354870252311229705810546875">
        <ele>574.5999755859375</ele>
        <time>2017-05-05T14:51:15.000Z</time>
        <extensions>
          <ns3:TrackPointExtension>
            <ns3:hr>147</ns3:hr>
          </ns3:TrackPointExtension>
        </extensions>
      </trkpt>
      <trkpt lat="46.82951666414737701416015625" lon="6.8235142529010772705078125">
        <ele>575.79998779296875</ele>
        <time>2017-05-05T14:51:19.000Z</time>
        <extensions>
          <ns3:TrackPointExtension>
            <ns3:hr>147</ns3:hr>
          </ns3:TrackPointExtension>
        </extensions>
      </trkpt>
      <trkpt lat="46.82946662418544292449951171875" lon="6.823460943996906280517578125">
        <ele>576.79998779296875</ele>
        <time>2017-05-05T14:51:23.000Z</time>
        <extensions>
          <ns3:TrackPointExtension>
            <ns3:hr>146</ns3:hr>
          </ns3:TrackPointExtension>
        </extensions>
      </trkpt>
      <trkpt lat="46.8293885886669158935546875" lon="6.82335424236953258514404296875">
        <ele>578.20001220703125</ele>
        <time>2017-05-05T14:51:28.000Z</time>
        <extensions>
          <ns3:TrackPointExtension>
            <ns3:hr>145</ns3:hr>
          </ns3:TrackPointExtension>
        </extensions>
      </trkpt>
      <trkpt lat="46.82928926311433315277099609375" lon="6.823273859918117523193359375">
        <ele>579.4000244140625</ele>
        <time>2017-05-05T14:51:32.000Z</time>
        <extensions>
          <ns3:TrackPointExtension>
            <ns3:hr>145</ns3:hr>
          </ns3:TrackPointExtension>
        </extensions>
      </trkpt>
      <trkpt lat="46.8291766941547393798828125" lon="6.823156177997589111328125">
        <ele>580.4000244140625</ele>
        <time>2017-05-05T14:51:38.000Z</time>
        <extensions>
          <ns3:TrackPointExtension>
            <ns3:hr>145</ns3:hr>
          </ns3:TrackPointExtension>
        </extensions>
      </trkpt>
      <trkpt lat="46.8290316872298717498779296875" lon="6.82302650995552539825439453125">
        <ele>581.4000244140625</ele>
        <time>2017-05-05T14:51:47.000Z</time>
        <extensions>
          <ns3:TrackPointExtension>
            <ns3:hr>147</ns3:hr>
          </ns3:TrackPointExtension>
        </extensions>
      </trkpt>
      <trkpt lat="46.82895340025424957275390625" lon="6.82301066815853118896484375">
        <ele>582</ele>
        <time>2017-05-05T14:51:50.000Z</time>
        <extensions>
          <ns3:TrackPointExtension>
            <ns3:hr>148</ns3:hr>
          </ns3:TrackPointExtension>
        </extensions>
      </trkpt>
      <trkpt lat="46.8287071399390697479248046875" lon="6.82302005589008331298828125">
        <ele>582.5999755859375</ele>
        <time>2017-05-05T14:51:57.000Z</time>
        <extensions>
          <ns3:TrackPointExtension>
            <ns3:hr>149</ns3:hr>
          </ns3:TrackPointExtension>
        </extensions>
      </trkpt>
      <trkpt lat="46.8284198082983493804931640625" lon="6.8230809085071086883544921875">
        <ele>583.5999755859375</ele>
        <time>2017-05-05T14:52:06.000Z</time>
        <extensions>
          <ns3:TrackPointExtension>
            <ns3:hr>149</ns3:hr>
          </ns3:TrackPointExtension>
        </extensions>
      </trkpt>
      <trkpt lat="46.82818771339952945709228515625" lon="6.8232676573097705841064453125">
        <ele>584.79998779296875</ele>
        <time>2017-05-05T14:52:15.000Z</time>
        <extensions>
          <ns3:TrackPointExtension>
            <ns3:hr>151</ns3:hr>
          </ns3:TrackPointExtension>
        </extensions>
      </trkpt>
      <trkpt lat="46.82812501676380634307861328125" lon="6.823317445814609527587890625">
        <ele>586.20001220703125</ele>
        <time>2017-05-05T14:52:18.000Z</time>
        <extensions>
          <ns3:TrackPointExtension>
            <ns3:hr>152</ns3:hr>
          </ns3:TrackPointExtension>
        </extensions>
      </trkpt>
      <trkpt lat="46.82801588438451290130615234375" lon="6.82340855710208415985107421875">
        <ele>587.20001220703125</ele>
        <time>2017-05-05T14:52:23.000Z</time>
        <extensions>
          <ns3:TrackPointExtension>
            <ns3:hr>154</ns3:hr>
          </ns3:TrackPointExtension>
        </extensions>
      </trkpt>
      <trkpt lat="46.8279225938022136688232421875" lon="6.82356094010174274444580078125">
        <ele>588.4000244140625</ele>
        <time>2017-05-05T14:52:28.000Z</time>
        <extensions>
          <ns3:TrackPointExtension>
            <ns3:hr>153</ns3:hr>
          </ns3:TrackPointExtension>
        </extensions>
      </trkpt>
      <trkpt lat="46.827865429222583770751953125" lon="6.82369102723896503448486328125">
        <ele>589.4000244140625</ele>
        <time>2017-05-05T14:52:31.000Z</time>
        <extensions>
          <ns3:TrackPointExtension>
            <ns3:hr>150</ns3:hr>
          </ns3:TrackPointExtension>
        </extensions>
      </trkpt>
      <trkpt lat="46.82785394601523876190185546875" lon="6.82372472248971462249755859375">
        <ele>589.4000244140625</ele>
        <time>2017-05-05T14:52:32.000Z</time>
        <extensions>
          <ns3:TrackPointExtension>
            <ns3:hr>150</ns3:hr>
          </ns3:TrackPointExtension>
        </extensions>
      </trkpt>
      <trkpt lat="46.82780667208135128021240234375" lon="6.8238681368529796600341796875">
        <ele>590.5999755859375</ele>
        <time>2017-05-05T14:52:37.000Z</time>
        <extensions>
          <ns3:TrackPointExtension>
            <ns3:hr>149</ns3:hr>
          </ns3:TrackPointExtension>
        </extensions>
      </trkpt>
      <trkpt lat="46.82778261601924896240234375" lon="6.82397358119487762451171875">
        <ele>591.79998779296875</ele>
        <time>2017-05-05T14:52:41.000Z</time>
        <extensions>
          <ns3:TrackPointExtension>
            <ns3:hr>150</ns3:hr>
          </ns3:TrackPointExtension>
        </extensions>
      </trkpt>
      <trkpt lat="46.82775470428168773651123046875" lon="6.82409537024796009063720703125">
        <ele>593</ele>
        <time>2017-05-05T14:52:46.000Z</time>
        <extensions>
          <ns3:TrackPointExtension>
            <ns3:hr>148</ns3:hr>
          </ns3:TrackPointExtension>
        </extensions>
      </trkpt>
      <trkpt lat="46.8277740664780139923095703125" lon="6.824187822639942169189453125">
        <ele>594.20001220703125</ele>
        <time>2017-05-05T14:52:50.000Z</time>
        <extensions>
          <ns3:TrackPointExtension>
            <ns3:hr>147</ns3:hr>
          </ns3:TrackPointExtension>
        </extensions>
      </trkpt>
      <trkpt lat="46.82781689800322055816650390625" lon="6.824276335537433624267578125">
        <ele>595.20001220703125</ele>
        <time>2017-05-05T14:52:55.000Z</time>
        <extensions>
          <ns3:TrackPointExtension>
            <ns3:hr>145</ns3:hr>
          </ns3:TrackPointExtension>
        </extensions>
      </trkpt>
      <trkpt lat="46.82789149694144725799560546875" lon="6.824380271136760711669921875">
        <ele>596.4000244140625</ele>
        <time>2017-05-05T14:53:01.000Z</time>
        <extensions>
          <ns3:TrackPointExtension>
            <ns3:hr>145</ns3:hr>
          </ns3:TrackPointExtension>
        </extensions>
      </trkpt>
      <trkpt lat="46.8279567919671535491943359375" lon="6.82447775267064571380615234375">
        <ele>597.79998779296875</ele>
        <time>2017-05-05T14:53:06.000Z</time>
        <extensions>
          <ns3:TrackPointExtension>
            <ns3:hr>150</ns3:hr>
          </ns3:TrackPointExtension>
        </extensions>
      </trkpt>
      <trkpt lat="46.827997528016567230224609375" lon="6.8245293013751506805419921875">
        <ele>599</ele>
        <time>2017-05-05T14:53:09.000Z</time>
        <extensions>
          <ns3:TrackPointExtension>
            <ns3:hr>152</ns3:hr>
          </ns3:TrackPointExtension>
        </extensions>
      </trkpt>
      <trkpt lat="46.8280359171330928802490234375" lon="6.8245629966259002685546875">
        <ele>599.4000244140625</ele>
        <time>2017-05-05T14:53:11.000Z</time>
        <extensions>
          <ns3:TrackPointExtension>
            <ns3:hr>156</ns3:hr>
          </ns3:TrackPointExtension>
        </extensions>
      </trkpt>
      <trkpt lat="46.82808436453342437744140625" lon="6.824622340500354766845703125">
        <ele>600</ele>
        <time>2017-05-05T14:53:14.000Z</time>
        <extensions>
          <ns3:TrackPointExtension>
            <ns3:hr>158</ns3:hr>
          </ns3:TrackPointExtension>
        </extensions>
      </trkpt>
      <trkpt lat="46.82815611362457275390625" lon="6.82470104657113552093505859375">
        <ele>601.20001220703125</ele>
        <time>2017-05-05T14:53:19.000Z</time>
        <extensions>
          <ns3:TrackPointExtension>
            <ns3:hr>161</ns3:hr>
          </ns3:TrackPointExtension>
        </extensions>
      </trkpt>
      <trkpt lat="46.828169859945774078369140625" lon="6.82471596635878086090087890625">
        <ele>601.5999755859375</ele>
        <time>2017-05-05T14:53:20.000Z</time>
        <extensions>
          <ns3:TrackPointExtension>
            <ns3:hr>166</ns3:hr>
          </ns3:TrackPointExtension>
        </extensions>
      </trkpt>
      <trkpt lat="46.82818134315311908721923828125" lon="6.8247306346893310546875">
        <ele>601.79998779296875</ele>
        <time>2017-05-05T14:53:21.000Z</time>
        <extensions>
          <ns3:TrackPointExtension>
            <ns3:hr>171</ns3:hr>
          </ns3:TrackPointExtension>
        </extensions>
      </trkpt>
      <trkpt lat="46.82819492183625698089599609375" lon="6.824747063219547271728515625">
        <ele>602.20001220703125</ele>
        <time>2017-05-05T14:53:22.000Z</time>
        <extensions>
          <ns3:TrackPointExtension>
            <ns3:hr>176</ns3:hr>
          </ns3:TrackPointExtension>
        </extensions>
      </trkpt>
      <trkpt lat="46.828211434185504913330078125" lon="6.824763156473636627197265625">
        <ele>602.5999755859375</ele>
        <time>2017-05-05T14:53:23.000Z</time>
        <extensions>
          <ns3:TrackPointExtension>
            <ns3:hr>175</ns3:hr>
          </ns3:TrackPointExtension>
        </extensions>
      </trkpt>
      <trkpt lat="46.82830321602523326873779296875" lon="6.824840605258941650390625">
        <ele>603.5999755859375</ele>
        <time>2017-05-05T14:53:28.000Z</time>
        <extensions>
          <ns3:TrackPointExtension>
            <ns3:hr>176</ns3:hr>
          </ns3:TrackPointExtension>
        </extensions>
      </trkpt>
      <trkpt lat="46.828358285129070281982421875" lon="6.82488008402287960052490234375">
        <ele>604.5999755859375</ele>
        <time>2017-05-05T14:53:31.000Z</time>
        <extensions>
          <ns3:TrackPointExtension>
            <ns3:hr>175</ns3:hr>
          </ns3:TrackPointExtension>
        </extensions>
      </trkpt>
      <trkpt lat="46.82839239947497844696044921875" lon="6.82492920197546482086181640625">
        <ele>605.5999755859375</ele>
        <time>2017-05-05T14:53:34.000Z</time>
        <extensions>
          <ns3:TrackPointExtension>
            <ns3:hr>173</ns3:hr>
          </ns3:TrackPointExtension>
        </extensions>
      </trkpt>
      <trkpt lat="46.828458197414875030517578125" lon="6.8250298686325550079345703125">
        <ele>606.5999755859375</ele>
        <time>2017-05-05T14:53:39.000Z</time>
        <extensions>
          <ns3:TrackPointExtension>
            <ns3:hr>171</ns3:hr>
          </ns3:TrackPointExtension>
        </extensions>
      </trkpt>
      <trkpt lat="46.8285036273300647735595703125" lon="6.82508669793605804443359375">
        <ele>607.20001220703125</ele>
        <time>2017-05-05T14:53:42.000Z</time>
        <extensions>
          <ns3:TrackPointExtension>
            <ns3:hr>167</ns3:hr>
          </ns3:TrackPointExtension>
        </extensions>
      </trkpt>
      <trkpt lat="46.82853355072438716888427734375" lon="6.8251235783100128173828125">
        <ele>607.5999755859375</ele>
        <time>2017-05-05T14:53:44.000Z</time>
        <extensions>
          <ns3:TrackPointExtension>
            <ns3:hr>166</ns3:hr>
          </ns3:TrackPointExtension>
        </extensions>
      </trkpt>
      <trkpt lat="46.828614771366119384765625" lon="6.825266741216182708740234375">
        <ele>608.5999755859375</ele>
        <time>2017-05-05T14:53:52.000Z</time>
        <extensions>
          <ns3:TrackPointExtension>
            <ns3:hr>163</ns3:hr>
          </ns3:TrackPointExtension>
        </extensions>
      </trkpt>
      <trkpt lat="46.82861049659550189971923828125" lon="6.825429685413837432861328125">
        <ele>609.79998779296875</ele>
        <time>2017-05-05T14:53:58.000Z</time>
        <extensions>
          <ns3:TrackPointExtension>
            <ns3:hr>161</ns3:hr>
          </ns3:TrackPointExtension>
        </extensions>
      </trkpt>
      <trkpt lat="46.82866447605192661285400390625" lon="6.82568307034671306610107421875">
        <ele>610.79998779296875</ele>
        <time>2017-05-05T14:54:04.000Z</time>
        <extensions>
          <ns3:TrackPointExtension>
            <ns3:hr>161</ns3:hr>
          </ns3:TrackPointExtension>
        </extensions>
      </trkpt>
      <trkpt lat="46.8287778832018375396728515625" lon="6.82635714299976825714111328125">
        <ele>611.20001220703125</ele>
        <time>2017-05-05T14:54:13.000Z</time>
        <extensions>
          <ns3:TrackPointExtension>
            <ns3:hr>161</ns3:hr>
          </ns3:TrackPointExtension>
        </extensions>
      </trkpt>
      <trkpt lat="46.82888366281986236572265625" lon="6.826736591756343841552734375">
        <ele>611.20001220703125</ele>
        <time>2017-05-05T14:54:16.000Z</time>
        <extensions>
          <ns3:TrackPointExtension>
            <ns3:hr>159</ns3:hr>
          </ns3:TrackPointExtension>
        </extensions>
      </trkpt>
      <trkpt lat="46.829079799354076385498046875" lon="6.82711754925549030303955078125">
        <ele>609</ele>
        <time>2017-05-05T14:54:19.000Z</time>
        <extensions>
          <ns3:TrackPointExtension>
            <ns3:hr>157</ns3:hr>
          </ns3:TrackPointExtension>
        </extensions>
      </trkpt>
      <trkpt lat="46.8291584216058254241943359375" lon="6.82725953869521617889404296875">
        <ele>607.20001220703125</ele>
        <time>2017-05-05T14:54:20.000Z</time>
        <extensions>
          <ns3:TrackPointExtension>
            <ns3:hr>157</ns3:hr>
          </ns3:TrackPointExtension>
        </extensions>
      </trkpt>
      <trkpt lat="46.82923813350498676300048828125" lon="6.8274120055139064788818359375">
        <ele>605.20001220703125</ele>
        <time>2017-05-05T14:54:21.000Z</time>
        <extensions>
          <ns3:TrackPointExtension>
            <ns3:hr>157</ns3:hr>
          </ns3:TrackPointExtension>
        </extensions>
      </trkpt>
      <trkpt lat="46.82931558229029178619384765625" lon="6.82756832800805568695068359375">
        <ele>604</ele>
        <time>2017-05-05T14:54:22.000Z</time>
        <extensions>
          <ns3:TrackPointExtension>
            <ns3:hr>156</ns3:hr>
          </ns3:TrackPointExtension>
        </extensions>
      </trkpt>
      <trkpt lat="46.82939328253269195556640625" lon="6.82771903462707996368408203125">
        <ele>602</ele>
        <time>2017-05-05T14:54:23.000Z</time>
        <extensions>
          <ns3:TrackPointExtension>
            <ns3:hr>156</ns3:hr>
          </ns3:TrackPointExtension>
        </extensions>
      </trkpt>
      <trkpt lat="46.82946377433836460113525390625" lon="6.82786680757999420166015625">
        <ele>601</ele>
        <time>2017-05-05T14:54:24.000Z</time>
        <extensions>
          <ns3:TrackPointExtension>
            <ns3:hr>156</ns3:hr>
          </ns3:TrackPointExtension>
        </extensions>
      </trkpt>
      <trkpt lat="46.829590089619159698486328125" lon="6.82813645340502262115478515625">
        <ele>598.4000244140625</ele>
        <time>2017-05-05T14:54:26.000Z</time>
        <extensions>
          <ns3:TrackPointExtension>
            <ns3:hr>156</ns3:hr>
          </ns3:TrackPointExtension>
        </extensions>
      </trkpt>
      <trkpt lat="46.8296506069600582122802734375" lon="6.8282644450664520263671875">
        <ele>595.4000244140625</ele>
        <time>2017-05-05T14:54:27.000Z</time>
        <extensions>
          <ns3:TrackPointExtension>
            <ns3:hr>155</ns3:hr>
          </ns3:TrackPointExtension>
        </extensions>
      </trkpt>
      <trkpt lat="46.8297072686254978179931640625" lon="6.8283829651772975921630859375">
        <ele>593.20001220703125</ele>
        <time>2017-05-05T14:54:28.000Z</time>
        <extensions>
          <ns3:TrackPointExtension>
            <ns3:hr>155</ns3:hr>
          </ns3:TrackPointExtension>
        </extensions>
      </trkpt>
      <trkpt lat="46.82976074516773223876953125" lon="6.82849419303238391876220703125">
        <ele>590.20001220703125</ele>
        <time>2017-05-05T14:54:29.000Z</time>
        <extensions>
          <ns3:TrackPointExtension>
            <ns3:hr>154</ns3:hr>
          </ns3:TrackPointExtension>
        </extensions>
      </trkpt>
      <trkpt lat="46.82981296442449092864990234375" lon="6.82859846390783786773681640625">
        <ele>588</ele>
        <time>2017-05-05T14:54:30.000Z</time>
        <extensions>
          <ns3:TrackPointExtension>
            <ns3:hr>154</ns3:hr>
          </ns3:TrackPointExtension>
        </extensions>
      </trkpt>
      <trkpt lat="46.82985655032098293304443359375" lon="6.82869418524205684661865234375">
        <ele>586.20001220703125</ele>
        <time>2017-05-05T14:54:31.000Z</time>
        <extensions>
          <ns3:TrackPointExtension>
            <ns3:hr>154</ns3:hr>
          </ns3:TrackPointExtension>
        </extensions>
      </trkpt>
      <trkpt lat="46.8298955261707305908203125" lon="6.82878001593053340911865234375">
        <ele>584.5999755859375</ele>
        <time>2017-05-05T14:54:32.000Z</time>
        <extensions>
          <ns3:TrackPointExtension>
            <ns3:hr>155</ns3:hr>
          </ns3:TrackPointExtension>
        </extensions>
      </trkpt>
      <trkpt lat="46.82997439987957477569580078125" lon="6.82891127653419971466064453125">
        <ele>583.5999755859375</ele>
        <time>2017-05-05T14:54:34.000Z</time>
        <extensions>
          <ns3:TrackPointExtension>
            <ns3:hr>156</ns3:hr>
          </ns3:TrackPointExtension>
        </extensions>
      </trkpt>
      <trkpt lat="46.83005184866487979888916015625" lon="6.8290206603705883026123046875">
        <ele>581.79998779296875</ele>
        <time>2017-05-05T14:54:36.000Z</time>
        <extensions>
          <ns3:TrackPointExtension>
            <ns3:hr>157</ns3:hr>
          </ns3:TrackPointExtension>
        </extensions>
      </trkpt>
      <trkpt lat="46.83011638931930065155029296875" lon="6.82914462871849536895751953125">
        <ele>580.20001220703125</ele>
        <time>2017-05-05T14:54:38.000Z</time>
        <extensions>
          <ns3:TrackPointExtension>
            <ns3:hr>157</ns3:hr>
          </ns3:TrackPointExtension>
        </extensions>
      </trkpt>
      <trkpt lat="46.83021998964250087738037109375" lon="6.8293869495391845703125">
        <ele>579</ele>
        <time>2017-05-05T14:54:41.000Z</time>
        <extensions>
          <ns3:TrackPointExtension>
            <ns3:hr>155</ns3:hr>
          </ns3:TrackPointExtension>
        </extensions>
      </trkpt>
      <trkpt lat="46.830277405679225921630859375" lon="6.82957244105637073516845703125">
        <ele>578.5999755859375</ele>
        <time>2017-05-05T14:54:43.000Z</time>
        <extensions>
          <ns3:TrackPointExtension>
            <ns3:hr>154</ns3:hr>
          </ns3:TrackPointExtension>
        </extensions>
      </trkpt>
      <trkpt lat="46.8302819319069385528564453125" lon="6.829770505428314208984375">
        <ele>577.20001220703125</ele>
        <time>2017-05-05T14:54:45.000Z</time>
        <extensions>
          <ns3:TrackPointExtension>
            <ns3:hr>153</ns3:hr>
          </ns3:TrackPointExtension>
        </extensions>
      </trkpt>
      <trkpt lat="46.8302648328244686126708984375" lon="6.829901598393917083740234375">
        <ele>575.20001220703125</ele>
        <time>2017-05-05T14:54:47.000Z</time>
        <extensions>
          <ns3:TrackPointExtension>
            <ns3:hr>152</ns3:hr>
          </ns3:TrackPointExtension>
        </extensions>
      </trkpt>
      <trkpt lat="46.83018394745886325836181640625" lon="6.8299168534576892852783203125">
        <ele>574</ele>
        <time>2017-05-05T14:54:48.000Z</time>
        <extensions>
          <ns3:TrackPointExtension>
            <ns3:hr>152</ns3:hr>
          </ns3:TrackPointExtension>
        </extensions>
      </trkpt>
      <trkpt lat="46.83011806569993495941162109375" lon="6.82994225062429904937744140625">
        <ele>573</ele>
        <time>2017-05-05T14:54:50.000Z</time>
        <extensions>
          <ns3:TrackPointExtension>
            <ns3:hr>153</ns3:hr>
          </ns3:TrackPointExtension>
        </extensions>
      </trkpt>
      <trkpt lat="46.82987608015537261962890625" lon="6.8300512991845607757568359375">
        <ele>572</ele>
        <time>2017-05-05T14:54:56.000Z</time>
        <extensions>
          <ns3:TrackPointExtension>
            <ns3:hr>153</ns3:hr>
          </ns3:TrackPointExtension>
        </extensions>
      </trkpt>
      <trkpt lat="46.8295993097126483917236328125" lon="6.8302246369421482086181640625">
        <ele>572.5999755859375</ele>
        <time>2017-05-05T14:55:02.000Z</time>
        <extensions>
          <ns3:TrackPointExtension>
            <ns3:hr>151</ns3:hr>
          </ns3:TrackPointExtension>
        </extensions>
      </trkpt>
      <trkpt lat="46.8293210305273532867431640625" lon="6.83052982203662395477294921875">
        <ele>574.20001220703125</ele>
        <time>2017-05-05T14:55:12.000Z</time>
        <extensions>
          <ns3:TrackPointExtension>
            <ns3:hr>152</ns3:hr>
          </ns3:TrackPointExtension>
        </extensions>
      </trkpt>
      <trkpt lat="46.8292553164064884185791015625" lon="6.83066460303962230682373046875">
        <ele>575.5999755859375</ele>
        <time>2017-05-05T14:55:16.000Z</time>
        <extensions>
          <ns3:TrackPointExtension>
            <ns3:hr>153</ns3:hr>
          </ns3:TrackPointExtension>
        </extensions>
      </trkpt>
      <trkpt lat="46.8292023427784442901611328125" lon="6.83071925304830074310302734375">
        <ele>576.20001220703125</ele>
        <time>2017-05-05T14:55:19.000Z</time>
        <extensions>
          <ns3:TrackPointExtension>
            <ns3:hr>156</ns3:hr>
          </ns3:TrackPointExtension>
        </extensions>
      </trkpt>
      <trkpt lat="46.82918851263821125030517578125" lon="6.8307352624833583831787109375">
        <ele>576.79998779296875</ele>
        <time>2017-05-05T14:55:20.000Z</time>
        <extensions>
          <ns3:TrackPointExtension>
            <ns3:hr>156</ns3:hr>
          </ns3:TrackPointExtension>
        </extensions>
      </trkpt>
      <trkpt lat="46.82914241217076778411865234375" lon="6.83083391748368740081787109375">
        <ele>578.20001220703125</ele>
        <time>2017-05-05T14:55:23.000Z</time>
        <extensions>
          <ns3:TrackPointExtension>
            <ns3:hr>156</ns3:hr>
          </ns3:TrackPointExtension>
        </extensions>
      </trkpt>
      <trkpt lat="46.829105950891971588134765625" lon="6.830891668796539306640625">
        <ele>579.20001220703125</ele>
        <time>2017-05-05T14:55:25.000Z</time>
        <extensions>
          <ns3:TrackPointExtension>
            <ns3:hr>155</ns3:hr>
          </ns3:TrackPointExtension>
        </extensions>
      </trkpt>
      <trkpt lat="46.82903344742953777313232421875" lon="6.8309868872165679931640625">
        <ele>580.5999755859375</ele>
        <time>2017-05-05T14:55:28.000Z</time>
        <extensions>
          <ns3:TrackPointExtension>
            <ns3:hr>156</ns3:hr>
          </ns3:TrackPointExtension>
        </extensions>
      </trkpt>
      <trkpt lat="46.82892414741218090057373046875" lon="6.83111437596380710601806640625">
        <ele>581.79998779296875</ele>
        <time>2017-05-05T14:55:32.000Z</time>
        <extensions>
          <ns3:TrackPointExtension>
            <ns3:hr>157</ns3:hr>
          </ns3:TrackPointExtension>
        </extensions>
      </trkpt>
      <trkpt lat="46.8285408429801464080810546875" lon="6.8316861055791378021240234375">
        <ele>582.4000244140625</ele>
        <time>2017-05-05T14:55:43.000Z</time>
        <extensions>
          <ns3:TrackPointExtension>
            <ns3:hr>159</ns3:hr>
          </ns3:TrackPointExtension>
        </extensions>
      </trkpt>
      <trkpt lat="46.8284928984940052032470703125" lon="6.83173321187496185302734375">
        <ele>582.4000244140625</ele>
        <time>2017-05-05T14:55:44.000Z</time>
        <extensions>
          <ns3:TrackPointExtension>
            <ns3:hr>160</ns3:hr>
          </ns3:TrackPointExtension>
        </extensions>
      </trkpt>
      <trkpt lat="46.82839156128466129302978515625" lon="6.83177101425826549530029296875">
        <ele>582.5999755859375</ele>
        <time>2017-05-05T14:55:46.000Z</time>
        <extensions>
          <ns3:TrackPointExtension>
            <ns3:hr>160</ns3:hr>
          </ns3:TrackPointExtension>
        </extensions>
      </trkpt>
      <trkpt lat="46.828191317617893218994140625" lon="6.83166154660284519195556640625">
        <ele>582.5999755859375</ele>
        <time>2017-05-05T14:55:50.000Z</time>
        <extensions>
          <ns3:TrackPointExtension>
            <ns3:hr>157</ns3:hr>
          </ns3:TrackPointExtension>
        </extensions>
      </trkpt>
      <trkpt lat="46.82814312167465686798095703125" lon="6.83164469897747039794921875">
        <ele>582.5999755859375</ele>
        <time>2017-05-05T14:55:51.000Z</time>
        <extensions>
          <ns3:TrackPointExtension>
            <ns3:hr>156</ns3:hr>
          </ns3:TrackPointExtension>
        </extensions>
      </trkpt>
      <trkpt lat="46.82765210978686809539794921875" lon="6.831526346504688262939453125">
        <ele>582.20001220703125</ele>
        <time>2017-05-05T14:55:59.000Z</time>
        <extensions>
          <ns3:TrackPointExtension>
            <ns3:hr>157</ns3:hr>
          </ns3:TrackPointExtension>
        </extensions>
      </trkpt>
      <trkpt lat="46.82740844786167144775390625" lon="6.83156565763056278228759765625">
        <ele>580</ele>
        <time>2017-05-05T14:56:03.000Z</time>
        <extensions>
          <ns3:TrackPointExtension>
            <ns3:hr>158</ns3:hr>
          </ns3:TrackPointExtension>
        </extensions>
      </trkpt>
      <trkpt lat="46.82727836072444915771484375" lon="6.83160446584224700927734375">
        <ele>578.79998779296875</ele>
        <time>2017-05-05T14:56:05.000Z</time>
        <extensions>
          <ns3:TrackPointExtension>
            <ns3:hr>157</ns3:hr>
          </ns3:TrackPointExtension>
        </extensions>
      </trkpt>
      <trkpt lat="46.82698809541761875152587890625" lon="6.83180554769933223724365234375">
        <ele>577.79998779296875</ele>
        <time>2017-05-05T14:56:10.000Z</time>
        <extensions>
          <ns3:TrackPointExtension>
            <ns3:hr>158</ns3:hr>
          </ns3:TrackPointExtension>
        </extensions>
      </trkpt>
      <trkpt lat="46.82642349041998386383056640625" lon="6.83211743831634521484375">
        <ele>576.79998779296875</ele>
        <time>2017-05-05T14:56:18.000Z</time>
        <extensions>
          <ns3:TrackPointExtension>
            <ns3:hr>157</ns3:hr>
          </ns3:TrackPointExtension>
        </extensions>
      </trkpt>
      <trkpt lat="46.82617463171482086181640625" lon="6.83224274776875972747802734375">
        <ele>575.79998779296875</ele>
        <time>2017-05-05T14:56:21.000Z</time>
        <extensions>
          <ns3:TrackPointExtension>
            <ns3:hr>156</ns3:hr>
          </ns3:TrackPointExtension>
        </extensions>
      </trkpt>
      <trkpt lat="46.82610221207141876220703125" lon="6.83228985406458377838134765625">
        <ele>575</ele>
        <time>2017-05-05T14:56:22.000Z</time>
        <extensions>
          <ns3:TrackPointExtension>
            <ns3:hr>155</ns3:hr>
          </ns3:TrackPointExtension>
        </extensions>
      </trkpt>
      <trkpt lat="46.8260581232607364654541015625" lon="6.83235053904354572296142578125">
        <ele>574.20001220703125</ele>
        <time>2017-05-05T14:56:23.000Z</time>
        <extensions>
          <ns3:TrackPointExtension>
            <ns3:hr>155</ns3:hr>
          </ns3:TrackPointExtension>
        </extensions>
      </trkpt>
      <trkpt lat="46.82603180408477783203125" lon="6.8324247188866138458251953125">
        <ele>573.4000244140625</ele>
        <time>2017-05-05T14:56:24.000Z</time>
        <extensions>
          <ns3:TrackPointExtension>
            <ns3:hr>155</ns3:hr>
          </ns3:TrackPointExtension>
        </extensions>
      </trkpt>
      <trkpt lat="46.82601227425038814544677734375" lon="6.8325075320899486541748046875">
        <ele>573</ele>
        <time>2017-05-05T14:56:25.000Z</time>
        <extensions>
          <ns3:TrackPointExtension>
            <ns3:hr>155</ns3:hr>
          </ns3:TrackPointExtension>
        </extensions>
      </trkpt>
      <trkpt lat="46.82598746381700038909912109375" lon="6.83271263726055622100830078125">
        <ele>571.79998779296875</ele>
        <time>2017-05-05T14:56:27.000Z</time>
        <extensions>
          <ns3:TrackPointExtension>
            <ns3:hr>156</ns3:hr>
          </ns3:TrackPointExtension>
        </extensions>
      </trkpt>
      <trkpt lat="46.825981847941875457763671875" lon="6.8329447321593761444091796875">
        <ele>571</ele>
        <time>2017-05-05T14:56:29.000Z</time>
        <extensions>
          <ns3:TrackPointExtension>
            <ns3:hr>156</ns3:hr>
          </ns3:TrackPointExtension>
        </extensions>
      </trkpt>
      <trkpt lat="46.825973130762577056884765625" lon="6.83303668163716793060302734375">
        <ele>570.79998779296875</ele>
        <time>2017-05-05T14:56:30.000Z</time>
        <extensions>
          <ns3:TrackPointExtension>
            <ns3:hr>156</ns3:hr>
          </ns3:TrackPointExtension>
        </extensions>
      </trkpt>
      <trkpt lat="46.8259575404226779937744140625" lon="6.83309988118708133697509765625">
        <ele>570.5999755859375</ele>
        <time>2017-05-05T14:56:31.000Z</time>
        <extensions>
          <ns3:TrackPointExtension>
            <ns3:hr>156</ns3:hr>
          </ns3:TrackPointExtension>
        </extensions>
      </trkpt>
      <trkpt lat="46.82588369585573673248291015625" lon="6.8331318162381649017333984375">
        <ele>569.4000244140625</ele>
        <time>2017-05-05T14:56:33.000Z</time>
        <extensions>
          <ns3:TrackPointExtension>
            <ns3:hr>156</ns3:hr>
          </ns3:TrackPointExtension>
        </extensions>
      </trkpt>
      <trkpt lat="46.8258427083492279052734375" lon="6.83309401385486125946044921875">
        <ele>568</ele>
        <time>2017-05-05T14:56:34.000Z</time>
        <extensions>
          <ns3:TrackPointExtension>
            <ns3:hr>156</ns3:hr>
          </ns3:TrackPointExtension>
        </extensions>
      </trkpt>
      <trkpt lat="46.82576668448746204376220703125" lon="6.832990832626819610595703125">
        <ele>566.20001220703125</ele>
        <time>2017-05-05T14:56:36.000Z</time>
        <extensions>
          <ns3:TrackPointExtension>
            <ns3:hr>156</ns3:hr>
          </ns3:TrackPointExtension>
        </extensions>
      </trkpt>
      <trkpt lat="46.8257282115519046783447265625" lon="6.8329309858381748199462890625">
        <ele>565.79998779296875</ele>
        <time>2017-05-05T14:56:37.000Z</time>
        <extensions>
          <ns3:TrackPointExtension>
            <ns3:hr>156</ns3:hr>
          </ns3:TrackPointExtension>
        </extensions>
      </trkpt>
      <trkpt lat="46.8256598152220249176025390625" lon="6.832801736891269683837890625">
        <ele>564.79998779296875</ele>
        <time>2017-05-05T14:56:39.000Z</time>
        <extensions>
          <ns3:TrackPointExtension>
            <ns3:hr>156</ns3:hr>
          </ns3:TrackPointExtension>
        </extensions>
      </trkpt>
      <trkpt lat="46.82557591237127780914306640625" lon="6.832683719694614410400390625">
        <ele>564.20001220703125</ele>
        <time>2017-05-05T14:56:41.000Z</time>
        <extensions>
          <ns3:TrackPointExtension>
            <ns3:hr>156</ns3:hr>
          </ns3:TrackPointExtension>
        </extensions>
      </trkpt>
      <trkpt lat="46.82548974640667438507080078125" lon="6.83255732059478759765625">
        <ele>563.5999755859375</ele>
        <time>2017-05-05T14:56:43.000Z</time>
        <extensions>
          <ns3:TrackPointExtension>
            <ns3:hr>157</ns3:hr>
          </ns3:TrackPointExtension>
        </extensions>
      </trkpt>
      <trkpt lat="46.82534851133823394775390625" lon="6.83238373138010501861572265625">
        <ele>562.4000244140625</ele>
        <time>2017-05-05T14:56:46.000Z</time>
        <extensions>
          <ns3:TrackPointExtension>
            <ns3:hr>158</ns3:hr>
          </ns3:TrackPointExtension>
        </extensions>
      </trkpt>
      <trkpt lat="46.824929751455783843994140625" lon="6.83186371810734272003173828125">
        <ele>561</ele>
        <time>2017-05-05T14:56:53.000Z</time>
        <extensions>
          <ns3:TrackPointExtension>
            <ns3:hr>158</ns3:hr>
          </ns3:TrackPointExtension>
        </extensions>
      </trkpt>
      <trkpt lat="46.82472489774227142333984375" lon="6.8316626362502574920654296875">
        <ele>559.4000244140625</ele>
        <time>2017-05-05T14:56:56.000Z</time>
        <extensions>
          <ns3:TrackPointExtension>
            <ns3:hr>157</ns3:hr>
          </ns3:TrackPointExtension>
        </extensions>
      </trkpt>
      <trkpt lat="46.82461266405880451202392578125" lon="6.83153472840785980224609375">
        <ele>557.79998779296875</ele>
        <time>2017-05-05T14:56:58.000Z</time>
        <extensions>
          <ns3:TrackPointExtension>
            <ns3:hr>156</ns3:hr>
          </ns3:TrackPointExtension>
        </extensions>
      </trkpt>
      <trkpt lat="46.8245631270110607147216796875" lon="6.8314876221120357513427734375">
        <ele>557.4000244140625</ele>
        <time>2017-05-05T14:56:59.000Z</time>
        <extensions>
          <ns3:TrackPointExtension>
            <ns3:hr>156</ns3:hr>
          </ns3:TrackPointExtension>
        </extensions>
      </trkpt>
      <trkpt lat="46.82449263520538806915283203125" lon="6.83150547556579113006591796875">
        <ele>557.20001220703125</ele>
        <time>2017-05-05T14:57:01.000Z</time>
        <extensions>
          <ns3:TrackPointExtension>
            <ns3:hr>156</ns3:hr>
          </ns3:TrackPointExtension>
        </extensions>
      </trkpt>
      <trkpt lat="46.82445893995463848114013671875" lon="6.83157630264759063720703125">
        <ele>557.20001220703125</ele>
        <time>2017-05-05T14:57:03.000Z</time>
        <extensions>
          <ns3:TrackPointExtension>
            <ns3:hr>156</ns3:hr>
          </ns3:TrackPointExtension>
        </extensions>
      </trkpt>
      <trkpt lat="46.82448291219770908355712890625" lon="6.83170110918581485748291015625">
        <ele>557.20001220703125</ele>
        <time>2017-05-05T14:57:05.000Z</time>
        <extensions>
          <ns3:TrackPointExtension>
            <ns3:hr>156</ns3:hr>
          </ns3:TrackPointExtension>
        </extensions>
      </trkpt>
      <trkpt lat="46.8245483748614788055419921875" lon="6.831928007304668426513671875">
        <ele>557.4000244140625</ele>
        <time>2017-05-05T14:57:08.000Z</time>
        <extensions>
          <ns3:TrackPointExtension>
            <ns3:hr>157</ns3:hr>
          </ns3:TrackPointExtension>
        </extensions>
      </trkpt>
      <trkpt lat="46.8245954811573028564453125" lon="6.83216747827827930450439453125">
        <ele>558</ele>
        <time>2017-05-05T14:57:11.000Z</time>
        <extensions>
          <ns3:TrackPointExtension>
            <ns3:hr>156</ns3:hr>
          </ns3:TrackPointExtension>
        </extensions>
      </trkpt>
      <trkpt lat="46.82463646866381168365478515625" lon="6.83232405222952365875244140625">
        <ele>558</ele>
        <time>2017-05-05T14:57:13.000Z</time>
        <extensions>
          <ns3:TrackPointExtension>
            <ns3:hr>155</ns3:hr>
          </ns3:TrackPointExtension>
        </extensions>
      </trkpt>
      <trkpt lat="46.8247431702911853790283203125" lon="6.83275454677641391754150390625">
        <ele>558</ele>
        <time>2017-05-05T14:57:19.000Z</time>
        <extensions>
          <ns3:TrackPointExtension>
            <ns3:hr>155</ns3:hr>
          </ns3:TrackPointExtension>
        </extensions>
      </trkpt>
      <trkpt lat="46.824925057590007781982421875" lon="6.83330154977738857269287109375">
        <ele>557.79998779296875</ele>
        <time>2017-05-05T14:57:26.000Z</time>
        <extensions>
          <ns3:TrackPointExtension>
            <ns3:hr>155</ns3:hr>
          </ns3:TrackPointExtension>
        </extensions>
      </trkpt>
      <trkpt lat="46.8251424841582775115966796875" lon="6.8340548314154148101806640625">
        <ele>557</ele>
        <time>2017-05-05T14:57:36.000Z</time>
        <extensions>
          <ns3:TrackPointExtension>
            <ns3:hr>156</ns3:hr>
          </ns3:TrackPointExtension>
        </extensions>
      </trkpt>
      <trkpt lat="46.8251931108534336090087890625" lon="6.8342422507703304290771484375">
        <ele>556.5999755859375</ele>
        <time>2017-05-05T14:57:38.000Z</time>
        <extensions>
          <ns3:TrackPointExtension>
            <ns3:hr>155</ns3:hr>
          </ns3:TrackPointExtension>
        </extensions>
      </trkpt>
      <trkpt lat="46.82521716691553592681884765625" lon="6.83443260379135608673095703125">
        <ele>555.5999755859375</ele>
        <time>2017-05-05T14:57:40.000Z</time>
        <extensions>
          <ns3:TrackPointExtension>
            <ns3:hr>153</ns3:hr>
          </ns3:TrackPointExtension>
        </extensions>
      </trkpt>
      <trkpt lat="46.82523979805409908294677734375" lon="6.8345222063362598419189453125">
        <ele>554.5999755859375</ele>
        <time>2017-05-05T14:57:41.000Z</time>
        <extensions>
          <ns3:TrackPointExtension>
            <ns3:hr>152</ns3:hr>
          </ns3:TrackPointExtension>
        </extensions>
      </trkpt>
      <trkpt lat="46.8252578191459178924560546875" lon="6.83459755964577198028564453125">
        <ele>552.79998779296875</ele>
        <time>2017-05-05T14:57:42.000Z</time>
        <extensions>
          <ns3:TrackPointExtension>
            <ns3:hr>152</ns3:hr>
          </ns3:TrackPointExtension>
        </extensions>
      </trkpt>
      <trkpt lat="46.82533442974090576171875" lon="6.83476821519434452056884765625">
        <ele>551.4000244140625</ele>
        <time>2017-05-05T14:57:44.000Z</time>
        <extensions>
          <ns3:TrackPointExtension>
            <ns3:hr>151</ns3:hr>
          </ns3:TrackPointExtension>
        </extensions>
      </trkpt>
      <trkpt lat="46.82546577416360378265380859375" lon="6.83503492735326290130615234375">
        <ele>549.5999755859375</ele>
        <time>2017-05-05T14:57:47.000Z</time>
        <extensions>
          <ns3:TrackPointExtension>
            <ns3:hr>151</ns3:hr>
          </ns3:TrackPointExtension>
        </extensions>
      </trkpt>
      <trkpt lat="46.82556753046810626983642578125" lon="6.83519368059933185577392578125">
        <ele>548.4000244140625</ele>
        <time>2017-05-05T14:57:49.000Z</time>
        <extensions>
          <ns3:TrackPointExtension>
            <ns3:hr>152</ns3:hr>
          </ns3:TrackPointExtension>
        </extensions>
      </trkpt>
      <trkpt lat="46.82564330287277698516845703125" lon="6.8353158049285411834716796875">
        <ele>547.4000244140625</ele>
        <time>2017-05-05T14:57:51.000Z</time>
        <extensions>
          <ns3:TrackPointExtension>
            <ns3:hr>152</ns3:hr>
          </ns3:TrackPointExtension>
        </extensions>
      </trkpt>
      <trkpt lat="46.825706921517848968505859375" lon="6.83544882573187351226806640625">
        <ele>546.20001220703125</ele>
        <time>2017-05-05T14:57:54.000Z</time>
        <extensions>
          <ns3:TrackPointExtension>
            <ns3:hr>152</ns3:hr>
          </ns3:TrackPointExtension>
        </extensions>
      </trkpt>
      <trkpt lat="46.82572041638195514678955078125" lon="6.83558595366775989532470703125">
        <ele>545.4000244140625</ele>
        <time>2017-05-05T14:57:56.000Z</time>
        <extensions>
          <ns3:TrackPointExtension>
            <ns3:hr>152</ns3:hr>
          </ns3:TrackPointExtension>
        </extensions>
      </trkpt>
      <trkpt lat="46.82570633478462696075439453125" lon="6.835679076611995697021484375">
        <ele>545</ele>
        <time>2017-05-05T14:57:57.000Z</time>
        <extensions>
          <ns3:TrackPointExtension>
            <ns3:hr>152</ns3:hr>
          </ns3:TrackPointExtension>
        </extensions>
      </trkpt>
      <trkpt lat="46.8256313167512416839599609375" lon="6.835793741047382354736328125">
        <ele>544.5999755859375</ele>
        <time>2017-05-05T14:57:58.000Z</time>
        <extensions>
          <ns3:TrackPointExtension>
            <ns3:hr>153</ns3:hr>
          </ns3:TrackPointExtension>
        </extensions>
      </trkpt>
      <trkpt lat="46.82554037310183048248291015625" lon="6.8360819108784198760986328125">
        <ele>543.5999755859375</ele>
        <time>2017-05-05T14:58:01.000Z</time>
        <extensions>
          <ns3:TrackPointExtension>
            <ns3:hr>154</ns3:hr>
          </ns3:TrackPointExtension>
        </extensions>
      </trkpt>
      <trkpt lat="46.82552092708647251129150390625" lon="6.8361801467835903167724609375">
        <ele>542.5999755859375</ele>
        <time>2017-05-05T14:58:02.000Z</time>
        <extensions>
          <ns3:TrackPointExtension>
            <ns3:hr>154</ns3:hr>
          </ns3:TrackPointExtension>
        </extensions>
      </trkpt>
      <trkpt lat="46.82545571587979793548583984375" lon="6.83624544180929660797119140625">
        <ele>541.20001220703125</ele>
        <time>2017-05-05T14:58:03.000Z</time>
        <extensions>
          <ns3:TrackPointExtension>
            <ns3:hr>154</ns3:hr>
          </ns3:TrackPointExtension>
        </extensions>
      </trkpt>
      <trkpt lat="46.82532110251486301422119140625" lon="6.83632406406104564666748046875">
        <ele>539.5999755859375</ele>
        <time>2017-05-05T14:58:04.000Z</time>
        <extensions>
          <ns3:TrackPointExtension>
            <ns3:hr>155</ns3:hr>
          </ns3:TrackPointExtension>
        </extensions>
      </trkpt>
      <trkpt lat="46.825210712850093841552734375" lon="6.83649941347539424896240234375">
        <ele>536.5999755859375</ele>
        <time>2017-05-05T14:58:06.000Z</time>
        <extensions>
          <ns3:TrackPointExtension>
            <ns3:hr>154</ns3:hr>
          </ns3:TrackPointExtension>
        </extensions>
      </trkpt>
      <trkpt lat="46.82508674450218677520751953125" lon="6.8365600146353244781494140625">
        <ele>535.5999755859375</ele>
        <time>2017-05-05T14:58:07.000Z</time>
        <extensions>
          <ns3:TrackPointExtension>
            <ns3:hr>154</ns3:hr>
          </ns3:TrackPointExtension>
        </extensions>
      </trkpt>
      <trkpt lat="46.82487376034259796142578125" lon="6.8367437459528446197509765625">
        <ele>534.4000244140625</ele>
        <time>2017-05-05T14:58:10.000Z</time>
        <extensions>
          <ns3:TrackPointExtension>
            <ns3:hr>155</ns3:hr>
          </ns3:TrackPointExtension>
        </extensions>
      </trkpt>
      <trkpt lat="46.8243586085736751556396484375" lon="6.83703535236418247222900390625">
        <ele>534.79998779296875</ele>
        <time>2017-05-05T14:58:20.000Z</time>
        <extensions>
          <ns3:TrackPointExtension>
            <ns3:hr>156</ns3:hr>
          </ns3:TrackPointExtension>
        </extensions>
      </trkpt>
      <trkpt lat="46.8243165314197540283203125" lon="6.83708832599222660064697265625">
        <ele>534.79998779296875</ele>
        <time>2017-05-05T14:58:21.000Z</time>
        <extensions>
          <ns3:TrackPointExtension>
            <ns3:hr>156</ns3:hr>
          </ns3:TrackPointExtension>
        </extensions>
      </trkpt>
      <trkpt lat="46.82425827719271183013916015625" lon="6.83725143782794475555419921875">
        <ele>534.79998779296875</ele>
        <time>2017-05-05T14:58:23.000Z</time>
        <extensions>
          <ns3:TrackPointExtension>
            <ns3:hr>155</ns3:hr>
          </ns3:TrackPointExtension>
        </extensions>
      </trkpt>
      <trkpt lat="46.82429348118603229522705078125" lon="6.8374454788863658905029296875">
        <ele>534.79998779296875</ele>
        <time>2017-05-05T14:58:25.000Z</time>
        <extensions>
          <ns3:TrackPointExtension>
            <ns3:hr>154</ns3:hr>
          </ns3:TrackPointExtension>
        </extensions>
      </trkpt>
      <trkpt lat="46.82425056584179401397705078125" lon="6.83758336119353771209716796875">
        <ele>534.79998779296875</ele>
        <time>2017-05-05T14:58:27.000Z</time>
        <extensions>
          <ns3:TrackPointExtension>
            <ns3:hr>155</ns3:hr>
          </ns3:TrackPointExtension>
        </extensions>
      </trkpt>
      <trkpt lat="46.824108995497226715087890625" lon="6.8376882188022136688232421875">
        <ele>533.4000244140625</ele>
        <time>2017-05-05T14:58:30.000Z</time>
        <extensions>
          <ns3:TrackPointExtension>
            <ns3:hr>155</ns3:hr>
          </ns3:TrackPointExtension>
        </extensions>
      </trkpt>
      <trkpt lat="46.82395015843212604522705078125" lon="6.83778687380254268646240234375">
        <ele>532.4000244140625</ele>
        <time>2017-05-05T14:58:33.000Z</time>
        <extensions>
          <ns3:TrackPointExtension>
            <ns3:hr>156</ns3:hr>
          </ns3:TrackPointExtension>
        </extensions>
      </trkpt>
      <trkpt lat="46.823575906455516815185546875" lon="6.83803849853575229644775390625">
        <ele>532</ele>
        <time>2017-05-05T14:58:41.000Z</time>
        <extensions>
          <ns3:TrackPointExtension>
            <ns3:hr>159</ns3:hr>
          </ns3:TrackPointExtension>
        </extensions>
      </trkpt>
      <trkpt lat="46.8233725614845752716064453125" lon="6.8382457830011844635009765625">
        <ele>532.5999755859375</ele>
        <time>2017-05-05T14:58:46.000Z</time>
        <extensions>
          <ns3:TrackPointExtension>
            <ns3:hr>156</ns3:hr>
          </ns3:TrackPointExtension>
        </extensions>
      </trkpt>
      <trkpt lat="46.82332939468324184417724609375" lon="6.83829749934375286102294921875">
        <ele>533.4000244140625</ele>
        <time>2017-05-05T14:58:47.000Z</time>
        <extensions>
          <ns3:TrackPointExtension>
            <ns3:hr>156</ns3:hr>
          </ns3:TrackPointExtension>
        </extensions>
      </trkpt>
      <trkpt lat="46.823108531534671783447265625" lon="6.8386229686439037322998046875">
        <ele>534.4000244140625</ele>
        <time>2017-05-05T14:58:52.000Z</time>
        <extensions>
          <ns3:TrackPointExtension>
            <ns3:hr>157</ns3:hr>
          </ns3:TrackPointExtension>
        </extensions>
      </trkpt>
      <trkpt lat="46.8227244727313518524169921875" lon="6.83917005546391010284423828125">
        <ele>534.4000244140625</ele>
        <time>2017-05-05T14:59:01.000Z</time>
        <extensions>
          <ns3:TrackPointExtension>
            <ns3:hr>159</ns3:hr>
          </ns3:TrackPointExtension>
        </extensions>
      </trkpt>
      <trkpt lat="46.82267208583652973175048828125" lon="6.839297711849212646484375">
        <ele>534.4000244140625</ele>
        <time>2017-05-05T14:59:03.000Z</time>
        <extensions>
          <ns3:TrackPointExtension>
            <ns3:hr>159</ns3:hr>
          </ns3:TrackPointExtension>
        </extensions>
      </trkpt>
      <trkpt lat="46.822649203240871429443359375" lon="6.83944431133568286895751953125">
        <ele>534.20001220703125</ele>
        <time>2017-05-05T14:59:05.000Z</time>
        <extensions>
          <ns3:TrackPointExtension>
            <ns3:hr>159</ns3:hr>
          </ns3:TrackPointExtension>
        </extensions>
      </trkpt>
      <trkpt lat="46.8226624466478824615478515625" lon="6.8396043218672275543212890625">
        <ele>533.5999755859375</ele>
        <time>2017-05-05T14:59:07.000Z</time>
        <extensions>
          <ns3:TrackPointExtension>
            <ns3:hr>159</ns3:hr>
          </ns3:TrackPointExtension>
        </extensions>
      </trkpt>
      <trkpt lat="46.82270519435405731201171875" lon="6.8397558666765689849853515625">
        <ele>533.4000244140625</ele>
        <time>2017-05-05T14:59:09.000Z</time>
        <extensions>
          <ns3:TrackPointExtension>
            <ns3:hr>159</ns3:hr>
          </ns3:TrackPointExtension>
        </extensions>
      </trkpt>
      <trkpt lat="46.82269982993602752685546875" lon="6.83982166461646556854248046875">
        <ele>533.4000244140625</ele>
        <time>2017-05-05T14:59:10.000Z</time>
        <extensions>
          <ns3:TrackPointExtension>
            <ns3:hr>159</ns3:hr>
          </ns3:TrackPointExtension>
        </extensions>
      </trkpt>
      <trkpt lat="46.82255339808762073516845703125" lon="6.839837171137332916259765625">
        <ele>532.5999755859375</ele>
        <time>2017-05-05T14:59:13.000Z</time>
        <extensions>
          <ns3:TrackPointExtension>
            <ns3:hr>160</ns3:hr>
          </ns3:TrackPointExtension>
        </extensions>
      </trkpt>
      <trkpt lat="46.8224981613457202911376953125" lon="6.83980070985853672027587890625">
        <ele>532.4000244140625</ele>
        <time>2017-05-05T14:59:14.000Z</time>
        <extensions>
          <ns3:TrackPointExtension>
            <ns3:hr>160</ns3:hr>
          </ns3:TrackPointExtension>
        </extensions>
      </trkpt>
      <trkpt lat="46.8222483806312084197998046875" lon="6.83967397548258304595947265625">
        <ele>531.5999755859375</ele>
        <time>2017-05-05T14:59:18.000Z</time>
        <extensions>
          <ns3:TrackPointExtension>
            <ns3:hr>157</ns3:hr>
          </ns3:TrackPointExtension>
        </extensions>
      </trkpt>
      <trkpt lat="46.821973957121372222900390625" lon="6.8395516835153102874755859375">
        <ele>531.4000244140625</ele>
        <time>2017-05-05T14:59:22.000Z</time>
        <extensions>
          <ns3:TrackPointExtension>
            <ns3:hr>154</ns3:hr>
          </ns3:TrackPointExtension>
        </extensions>
      </trkpt>
      <trkpt lat="46.82177555747330188751220703125" lon="6.83941648341715335845947265625">
        <ele>531.4000244140625</ele>
        <time>2017-05-05T14:59:25.000Z</time>
        <extensions>
          <ns3:TrackPointExtension>
            <ns3:hr>153</ns3:hr>
          </ns3:TrackPointExtension>
        </extensions>
      </trkpt>
      <trkpt lat="46.82171856053173542022705078125" lon="6.8393518589437007904052734375">
        <ele>531.20001220703125</ele>
        <time>2017-05-05T14:59:26.000Z</time>
        <extensions>
          <ns3:TrackPointExtension>
            <ns3:hr>152</ns3:hr>
          </ns3:TrackPointExtension>
        </extensions>
      </trkpt>
      <trkpt lat="46.82156600989401340484619140625" lon="6.83916117064654827117919921875">
        <ele>531</ele>
        <time>2017-05-05T14:59:29.000Z</time>
        <extensions>
          <ns3:TrackPointExtension>
            <ns3:hr>152</ns3:hr>
          </ns3:TrackPointExtension>
        </extensions>
      </trkpt>
      <trkpt lat="46.82147380895912647247314453125" lon="6.83910819701850414276123046875">
        <ele>531</ele>
        <time>2017-05-05T14:59:31.000Z</time>
        <extensions>
          <ns3:TrackPointExtension>
            <ns3:hr>152</ns3:hr>
          </ns3:TrackPointExtension>
        </extensions>
      </trkpt>
      <trkpt lat="46.8213902413845062255859375" lon="6.83917701244354248046875">
        <ele>531.20001220703125</ele>
        <time>2017-05-05T14:59:33.000Z</time>
        <extensions>
          <ns3:TrackPointExtension>
            <ns3:hr>152</ns3:hr>
          </ns3:TrackPointExtension>
        </extensions>
      </trkpt>
      <trkpt lat="46.821335591375827789306640625" lon="6.8394055031239986419677734375">
        <ele>532.5999755859375</ele>
        <time>2017-05-05T14:59:39.000Z</time>
        <extensions>
          <ns3:TrackPointExtension>
            <ns3:hr>155</ns3:hr>
          </ns3:TrackPointExtension>
        </extensions>
      </trkpt>
      <trkpt lat="46.82134933769702911376953125" lon="6.8394594825804233551025390625">
        <ele>533</ele>
        <time>2017-05-05T14:59:41.000Z</time>
        <extensions>
          <ns3:TrackPointExtension>
            <ns3:hr>155</ns3:hr>
          </ns3:TrackPointExtension>
        </extensions>
      </trkpt>
      <trkpt lat="46.82136769406497478485107421875" lon="6.83948588557541370391845703125">
        <ele>533.5999755859375</ele>
        <time>2017-05-05T14:59:42.000Z</time>
        <extensions>
          <ns3:TrackPointExtension>
            <ns3:hr>156</ns3:hr>
          </ns3:TrackPointExtension>
        </extensions>
      </trkpt>
      <trkpt lat="46.8213994614779949188232421875" lon="6.83958537876605987548828125">
        <ele>534.79998779296875</ele>
        <time>2017-05-05T14:59:45.000Z</time>
        <extensions>
          <ns3:TrackPointExtension>
            <ns3:hr>157</ns3:hr>
          </ns3:TrackPointExtension>
        </extensions>
      </trkpt>
      <trkpt lat="46.821440868079662322998046875" lon="6.83972996659576892852783203125">
        <ele>536.4000244140625</ele>
        <time>2017-05-05T14:59:49.000Z</time>
        <extensions>
          <ns3:TrackPointExtension>
            <ns3:hr>157</ns3:hr>
          </ns3:TrackPointExtension>
        </extensions>
      </trkpt>
      <trkpt lat="46.82141773402690887451171875" lon="6.83991730213165283203125">
        <ele>537.5999755859375</ele>
        <time>2017-05-05T14:59:53.000Z</time>
        <extensions>
          <ns3:TrackPointExtension>
            <ns3:hr>157</ns3:hr>
          </ns3:TrackPointExtension>
        </extensions>
      </trkpt>
      <trkpt lat="46.82142469100654125213623046875" lon="6.8401367403566837310791015625">
        <ele>538.79998779296875</ele>
        <time>2017-05-05T14:59:58.000Z</time>
        <extensions>
          <ns3:TrackPointExtension>
            <ns3:hr>159</ns3:hr>
          </ns3:TrackPointExtension>
        </extensions>
      </trkpt>
      <trkpt lat="46.821471713483333587646484375" lon="6.8403647281229496002197265625">
        <ele>539.79998779296875</ele>
        <time>2017-05-05T15:00:03.000Z</time>
        <extensions>
          <ns3:TrackPointExtension>
            <ns3:hr>160</ns3:hr>
          </ns3:TrackPointExtension>
        </extensions>
      </trkpt>
      <trkpt lat="46.82146710343658924102783203125" lon="6.840564049780368804931640625">
        <ele>540.79998779296875</ele>
        <time>2017-05-05T15:00:07.000Z</time>
        <extensions>
          <ns3:TrackPointExtension>
            <ns3:hr>160</ns3:hr>
          </ns3:TrackPointExtension>
        </extensions>
      </trkpt>
      <trkpt lat="46.8214614875614643096923828125" lon="6.84070914052426815032958984375">
        <ele>541.4000244140625</ele>
        <time>2017-05-05T15:00:10.000Z</time>
        <extensions>
          <ns3:TrackPointExtension>
            <ns3:hr>163</ns3:hr>
          </ns3:TrackPointExtension>
        </extensions>
      </trkpt>
      <trkpt lat="46.8214653432369232177734375" lon="6.840811483561992645263671875">
        <ele>542</ele>
        <time>2017-05-05T15:00:12.000Z</time>
        <extensions>
          <ns3:TrackPointExtension>
            <ns3:hr>163</ns3:hr>
          </ns3:TrackPointExtension>
        </extensions>
      </trkpt>
      <trkpt lat="46.8214765749871730804443359375" lon="6.8410094641149044036865234375">
        <ele>542.5999755859375</ele>
        <time>2017-05-05T15:00:16.000Z</time>
        <extensions>
          <ns3:TrackPointExtension>
            <ns3:hr>160</ns3:hr>
          </ns3:TrackPointExtension>
        </extensions>
      </trkpt>
      <trkpt lat="46.82148520834743976593017578125" lon="6.84110292233526706695556640625">
        <ele>543</ele>
        <time>2017-05-05T15:00:18.000Z</time>
        <extensions>
          <ns3:TrackPointExtension>
            <ns3:hr>159</ns3:hr>
          </ns3:TrackPointExtension>
        </extensions>
      </trkpt>
      <trkpt lat="46.8215270340442657470703125" lon="6.84137935750186443328857421875">
        <ele>543.5999755859375</ele>
        <time>2017-05-05T15:00:23.000Z</time>
        <extensions>
          <ns3:TrackPointExtension>
            <ns3:hr>156</ns3:hr>
          </ns3:TrackPointExtension>
        </extensions>
      </trkpt>
      <trkpt lat="46.82173431850969791412353515625" lon="6.84216926805675029754638671875">
        <ele>542.4000244140625</ele>
        <time>2017-05-05T15:00:33.000Z</time>
        <extensions>
          <ns3:TrackPointExtension>
            <ns3:hr>156</ns3:hr>
          </ns3:TrackPointExtension>
        </extensions>
      </trkpt>
      <trkpt lat="46.82177321054041385650634765625" lon="6.84225275181233882904052734375">
        <ele>542</ele>
        <time>2017-05-05T15:00:34.000Z</time>
        <extensions>
          <ns3:TrackPointExtension>
            <ns3:hr>155</ns3:hr>
          </ns3:TrackPointExtension>
        </extensions>
      </trkpt>
      <trkpt lat="46.82191369123756885528564453125" lon="6.84264536015689373016357421875">
        <ele>540.79998779296875</ele>
        <time>2017-05-05T15:00:38.000Z</time>
        <extensions>
          <ns3:TrackPointExtension>
            <ns3:hr>156</ns3:hr>
          </ns3:TrackPointExtension>
        </extensions>
      </trkpt>
      <trkpt lat="46.82200111448764801025390625" lon="6.84296839870512485504150390625">
        <ele>539.4000244140625</ele>
        <time>2017-05-05T15:00:41.000Z</time>
        <extensions>
          <ns3:TrackPointExtension>
            <ns3:hr>156</ns3:hr>
          </ns3:TrackPointExtension>
        </extensions>
      </trkpt>
      <trkpt lat="46.82208954356610774993896484375" lon="6.8432982265949249267578125">
        <ele>538.20001220703125</ele>
        <time>2017-05-05T15:00:44.000Z</time>
        <extensions>
          <ns3:TrackPointExtension>
            <ns3:hr>157</ns3:hr>
          </ns3:TrackPointExtension>
        </extensions>
      </trkpt>
      <trkpt lat="46.82219691574573516845703125" lon="6.8437178246676921844482421875">
        <ele>538</ele>
        <time>2017-05-05T15:00:48.000Z</time>
        <extensions>
          <ns3:TrackPointExtension>
            <ns3:hr>160</ns3:hr>
          </ns3:TrackPointExtension>
        </extensions>
      </trkpt>
      <trkpt lat="46.822328008711338043212890625" lon="6.8441295437514781951904296875">
        <ele>537</ele>
        <time>2017-05-05T15:00:52.000Z</time>
        <extensions>
          <ns3:TrackPointExtension>
            <ns3:hr>158</ns3:hr>
          </ns3:TrackPointExtension>
        </extensions>
      </trkpt>
      <trkpt lat="46.8223865143954753875732421875" lon="6.8444483913481235504150390625">
        <ele>537</ele>
        <time>2017-05-05T15:00:55.000Z</time>
        <extensions>
          <ns3:TrackPointExtension>
            <ns3:hr>155</ns3:hr>
          </ns3:TrackPointExtension>
        </extensions>
      </trkpt>
      <trkpt lat="46.822413504123687744140625" lon="6.84465366415679454803466796875">
        <ele>537</ele>
        <time>2017-05-05T15:00:57.000Z</time>
        <extensions>
          <ns3:TrackPointExtension>
            <ns3:hr>154</ns3:hr>
          </ns3:TrackPointExtension>
        </extensions>
      </trkpt>
      <trkpt lat="46.82226673699915409088134765625" lon="6.84546620585024356842041015625">
        <ele>537</ele>
        <time>2017-05-05T15:01:05.000Z</time>
        <extensions>
          <ns3:TrackPointExtension>
            <ns3:hr>152</ns3:hr>
          </ns3:TrackPointExtension>
        </extensions>
      </trkpt>
      <trkpt lat="46.82210865430533885955810546875" lon="6.845940537750720977783203125">
        <ele>537</ele>
        <time>2017-05-05T15:01:10.000Z</time>
        <extensions>
          <ns3:TrackPointExtension>
            <ns3:hr>153</ns3:hr>
          </ns3:TrackPointExtension>
        </extensions>
      </trkpt>
      <trkpt lat="46.8219429440796375274658203125" lon="6.846172548830509185791015625">
        <ele>536.5999755859375</ele>
        <time>2017-05-05T15:01:13.000Z</time>
        <extensions>
          <ns3:TrackPointExtension>
            <ns3:hr>154</ns3:hr>
          </ns3:TrackPointExtension>
        </extensions>
      </trkpt>
      <trkpt lat="46.821773461997509002685546875" lon="6.8462468124926090240478515625">
        <ele>536.4000244140625</ele>
        <time>2017-05-05T15:01:15.000Z</time>
        <extensions>
          <ns3:TrackPointExtension>
            <ns3:hr>154</ns3:hr>
          </ns3:TrackPointExtension>
        </extensions>
      </trkpt>
      <trkpt lat="46.82159467600286006927490234375" lon="6.84627422131597995758056640625">
        <ele>536</ele>
        <time>2017-05-05T15:01:17.000Z</time>
        <extensions>
          <ns3:TrackPointExtension>
            <ns3:hr>154</ns3:hr>
          </ns3:TrackPointExtension>
        </extensions>
      </trkpt>
      <trkpt lat="46.82144413702189922332763671875" lon="6.84631646610796451568603515625">
        <ele>534.20001220703125</ele>
        <time>2017-05-05T15:01:19.000Z</time>
        <extensions>
          <ns3:TrackPointExtension>
            <ns3:hr>154</ns3:hr>
          </ns3:TrackPointExtension>
        </extensions>
      </trkpt>
      <trkpt lat="46.821373142302036285400390625" lon="6.846353597939014434814453125">
        <ele>532.79998779296875</ele>
        <time>2017-05-05T15:01:20.000Z</time>
        <extensions>
          <ns3:TrackPointExtension>
            <ns3:hr>153</ns3:hr>
          </ns3:TrackPointExtension>
        </extensions>
      </trkpt>
      <trkpt lat="46.82130667380988597869873046875" lon="6.846405230462551116943359375">
        <ele>531.5999755859375</ele>
        <time>2017-05-05T15:01:21.000Z</time>
        <extensions>
          <ns3:TrackPointExtension>
            <ns3:hr>153</ns3:hr>
          </ns3:TrackPointExtension>
        </extensions>
      </trkpt>
      <trkpt lat="46.821260154247283935546875" lon="6.84647521935403347015380859375">
        <ele>530.79998779296875</ele>
        <time>2017-05-05T15:01:22.000Z</time>
        <extensions>
          <ns3:TrackPointExtension>
            <ns3:hr>153</ns3:hr>
          </ns3:TrackPointExtension>
        </extensions>
      </trkpt>
      <trkpt lat="46.82122587226331233978271484375" lon="6.84656121768057346343994140625">
        <ele>529.79998779296875</ele>
        <time>2017-05-05T15:01:23.000Z</time>
        <extensions>
          <ns3:TrackPointExtension>
            <ns3:hr>152</ns3:hr>
          </ns3:TrackPointExtension>
        </extensions>
      </trkpt>
      <trkpt lat="46.82120642624795436859130859375" lon="6.8466509878635406494140625">
        <ele>528.79998779296875</ele>
        <time>2017-05-05T15:01:24.000Z</time>
        <extensions>
          <ns3:TrackPointExtension>
            <ns3:hr>152</ns3:hr>
          </ns3:TrackPointExtension>
        </extensions>
      </trkpt>
      <trkpt lat="46.821143813431262969970703125" lon="6.84678870253264904022216796875">
        <ele>527.4000244140625</ele>
        <time>2017-05-05T15:01:26.000Z</time>
        <extensions>
          <ns3:TrackPointExtension>
            <ns3:hr>153</ns3:hr>
          </ns3:TrackPointExtension>
        </extensions>
      </trkpt>
      <trkpt lat="46.8211097829043865203857421875" lon="6.846837736666202545166015625">
        <ele>527</ele>
        <time>2017-05-05T15:01:27.000Z</time>
        <extensions>
          <ns3:TrackPointExtension>
            <ns3:hr>153</ns3:hr>
          </ns3:TrackPointExtension>
        </extensions>
      </trkpt>
      <trkpt lat="46.82104549370706081390380859375" lon="6.84691308997571468353271484375">
        <ele>526.20001220703125</ele>
        <time>2017-05-05T15:01:29.000Z</time>
        <extensions>
          <ns3:TrackPointExtension>
            <ns3:hr>153</ns3:hr>
          </ns3:TrackPointExtension>
        </extensions>
      </trkpt>
      <trkpt lat="46.8208864890038967132568359375" lon="6.84707687236368656158447265625">
        <ele>525.20001220703125</ele>
        <time>2017-05-05T15:01:35.000Z</time>
        <extensions>
          <ns3:TrackPointExtension>
            <ns3:hr>155</ns3:hr>
          </ns3:TrackPointExtension>
        </extensions>
      </trkpt>
      <trkpt lat="46.82063042186200618743896484375" lon="6.8474316783249378204345703125">
        <ele>526.5999755859375</ele>
        <time>2017-05-05T15:01:47.000Z</time>
        <extensions>
          <ns3:TrackPointExtension>
            <ns3:hr>155</ns3:hr>
          </ns3:TrackPointExtension>
        </extensions>
      </trkpt>
      <trkpt lat="46.82058490812778472900390625" lon="6.84748984873294830322265625">
        <ele>527.79998779296875</ele>
        <time>2017-05-05T15:01:49.000Z</time>
        <extensions>
          <ns3:TrackPointExtension>
            <ns3:hr>155</ns3:hr>
          </ns3:TrackPointExtension>
        </extensions>
      </trkpt>
      <trkpt lat="46.8205321021378040313720703125" lon="6.847576014697551727294921875">
        <ele>529</ele>
        <time>2017-05-05T15:01:52.000Z</time>
        <extensions>
          <ns3:TrackPointExtension>
            <ns3:hr>156</ns3:hr>
          </ns3:TrackPointExtension>
        </extensions>
      </trkpt>
      <trkpt lat="46.82046881876885890960693359375" lon="6.84767986647784709930419921875">
        <ele>529.79998779296875</ele>
        <time>2017-05-05T15:01:56.000Z</time>
        <extensions>
          <ns3:TrackPointExtension>
            <ns3:hr>159</ns3:hr>
          </ns3:TrackPointExtension>
        </extensions>
      </trkpt>
      <trkpt lat="46.820450462400913238525390625" lon="6.8476992286741733551025390625">
        <ele>530</ele>
        <time>2017-05-05T15:01:57.000Z</time>
        <extensions>
          <ns3:TrackPointExtension>
            <ns3:hr>159</ns3:hr>
          </ns3:TrackPointExtension>
        </extensions>
      </trkpt>
      <trkpt lat="46.82039304636418819427490234375" lon="6.8477625958621501922607421875">
        <ele>531</ele>
        <time>2017-05-05T15:02:00.000Z</time>
        <extensions>
          <ns3:TrackPointExtension>
            <ns3:hr>159</ns3:hr>
          </ns3:TrackPointExtension>
        </extensions>
      </trkpt>
      <trkpt lat="46.82034610770642757415771484375" lon="6.8478464148938655853271484375">
        <ele>532.20001220703125</ele>
        <time>2017-05-05T15:02:04.000Z</time>
        <extensions>
          <ns3:TrackPointExtension>
            <ns3:hr>157</ns3:hr>
          </ns3:TrackPointExtension>
        </extensions>
      </trkpt>
      <trkpt lat="46.8203225545585155487060546875" lon="6.84791170991957187652587890625">
        <ele>533.4000244140625</ele>
        <time>2017-05-05T15:02:07.000Z</time>
        <extensions>
          <ns3:TrackPointExtension>
            <ns3:hr>154</ns3:hr>
          </ns3:TrackPointExtension>
        </extensions>
      </trkpt>
      <trkpt lat="46.82023747824132442474365234375" lon="6.848127879202365875244140625">
        <ele>534.4000244140625</ele>
        <time>2017-05-05T15:02:12.000Z</time>
        <extensions>
          <ns3:TrackPointExtension>
            <ns3:hr>154</ns3:hr>
          </ns3:TrackPointExtension>
        </extensions>
      </trkpt>
      <trkpt lat="46.82019598782062530517578125" lon="6.84823089279234409332275390625">
        <ele>535.5999755859375</ele>
        <time>2017-05-05T15:02:16.000Z</time>
        <extensions>
          <ns3:TrackPointExtension>
            <ns3:hr>154</ns3:hr>
          </ns3:TrackPointExtension>
        </extensions>
      </trkpt>
      <trkpt lat="46.82016472332179546356201171875" lon="6.84829677455127239227294921875">
        <ele>536.79998779296875</ele>
        <time>2017-05-05T15:02:19.000Z</time>
        <extensions>
          <ns3:TrackPointExtension>
            <ns3:hr>155</ns3:hr>
          </ns3:TrackPointExtension>
        </extensions>
      </trkpt>
      <trkpt lat="46.81992650963366031646728515625" lon="6.84874990023672580718994140625">
        <ele>535.79998779296875</ele>
        <time>2017-05-05T15:02:31.000Z</time>
        <extensions>
          <ns3:TrackPointExtension>
            <ns3:hr>154</ns3:hr>
          </ns3:TrackPointExtension>
        </extensions>
      </trkpt>
      <trkpt lat="46.8194079212844371795654296875" lon="6.8485102616250514984130859375">
        <ele>536.20001220703125</ele>
        <time>2017-05-05T15:02:45.000Z</time>
        <extensions>
          <ns3:TrackPointExtension>
            <ns3:hr>153</ns3:hr>
          </ns3:TrackPointExtension>
        </extensions>
      </trkpt>
      <trkpt lat="46.8193747289478778839111328125" lon="6.8485451303422451019287109375">
        <ele>536.20001220703125</ele>
        <time>2017-05-05T15:02:47.000Z</time>
        <extensions>
          <ns3:TrackPointExtension>
            <ns3:hr>154</ns3:hr>
          </ns3:TrackPointExtension>
        </extensions>
      </trkpt>
      <trkpt lat="46.8192419596016407012939453125" lon="6.8492740206420421600341796875">
        <ele>535</ele>
        <time>2017-05-05T15:02:57.000Z</time>
        <extensions>
          <ns3:TrackPointExtension>
            <ns3:hr>154</ns3:hr>
          </ns3:TrackPointExtension>
        </extensions>
      </trkpt>
      <trkpt lat="46.8191873095929622650146484375" lon="6.84941969811916351318359375">
        <ele>534.20001220703125</ele>
        <time>2017-05-05T15:02:59.000Z</time>
        <extensions>
          <ns3:TrackPointExtension>
            <ns3:hr>154</ns3:hr>
          </ns3:TrackPointExtension>
        </extensions>
      </trkpt>
      <trkpt lat="46.819077841937541961669921875" lon="6.84956864453852176666259765625">
        <ele>533.20001220703125</ele>
        <time>2017-05-05T15:03:01.000Z</time>
        <extensions>
          <ns3:TrackPointExtension>
            <ns3:hr>155</ns3:hr>
          </ns3:TrackPointExtension>
        </extensions>
      </trkpt>
      <trkpt lat="46.818970553576946258544921875" lon="6.8497113883495330810546875">
        <ele>532.5999755859375</ele>
        <time>2017-05-05T15:03:03.000Z</time>
        <extensions>
          <ns3:TrackPointExtension>
            <ns3:hr>155</ns3:hr>
          </ns3:TrackPointExtension>
        </extensions>
      </trkpt>
      <trkpt lat="46.818926967680454254150390625" lon="6.84979110024869441986083984375">
        <ele>532</ele>
        <time>2017-05-05T15:03:04.000Z</time>
        <extensions>
          <ns3:TrackPointExtension>
            <ns3:hr>155</ns3:hr>
          </ns3:TrackPointExtension>
        </extensions>
      </trkpt>
      <trkpt lat="46.8188027478754520416259765625" lon="6.85004599392414093017578125">
        <ele>530.20001220703125</ele>
        <time>2017-05-05T15:03:07.000Z</time>
        <extensions>
          <ns3:TrackPointExtension>
            <ns3:hr>155</ns3:hr>
          </ns3:TrackPointExtension>
        </extensions>
      </trkpt>
      <trkpt lat="46.81873275898396968841552734375" lon="6.850210614502429962158203125">
        <ele>528.20001220703125</ele>
        <time>2017-05-05T15:03:09.000Z</time>
        <extensions>
          <ns3:TrackPointExtension>
            <ns3:hr>155</ns3:hr>
          </ns3:TrackPointExtension>
        </extensions>
      </trkpt>
      <trkpt lat="46.8186897598206996917724609375" lon="6.8503137119114398956298828125">
        <ele>527</ele>
        <time>2017-05-05T15:03:10.000Z</time>
        <extensions>
          <ns3:TrackPointExtension>
            <ns3:hr>155</ns3:hr>
          </ns3:TrackPointExtension>
        </extensions>
      </trkpt>
      <trkpt lat="46.81864826940000057220458984375" lon="6.850405745208263397216796875">
        <ele>525.79998779296875</ele>
        <time>2017-05-05T15:03:11.000Z</time>
        <extensions>
          <ns3:TrackPointExtension>
            <ns3:hr>156</ns3:hr>
          </ns3:TrackPointExtension>
        </extensions>
      </trkpt>
      <trkpt lat="46.81860535405576229095458984375" lon="6.8504999577999114990234375">
        <ele>524</ele>
        <time>2017-05-05T15:03:12.000Z</time>
        <extensions>
          <ns3:TrackPointExtension>
            <ns3:hr>156</ns3:hr>
          </ns3:TrackPointExtension>
        </extensions>
      </trkpt>
      <trkpt lat="46.81856277398765087127685546875" lon="6.85060163028538227081298828125">
        <ele>522.79998779296875</ele>
        <time>2017-05-05T15:03:13.000Z</time>
        <extensions>
          <ns3:TrackPointExtension>
            <ns3:hr>156</ns3:hr>
          </ns3:TrackPointExtension>
        </extensions>
      </trkpt>
      <trkpt lat="46.8185283243656158447265625" lon="6.85070891864597797393798828125">
        <ele>521.4000244140625</ele>
        <time>2017-05-05T15:03:14.000Z</time>
        <extensions>
          <ns3:TrackPointExtension>
            <ns3:hr>155</ns3:hr>
          </ns3:TrackPointExtension>
        </extensions>
      </trkpt>
      <trkpt lat="46.8185033462941646575927734375" lon="6.850818134844303131103515625">
        <ele>520</ele>
        <time>2017-05-05T15:03:15.000Z</time>
        <extensions>
          <ns3:TrackPointExtension>
            <ns3:hr>155</ns3:hr>
          </ns3:TrackPointExtension>
        </extensions>
      </trkpt>
      <trkpt lat="46.8185174278914928436279296875" lon="6.85091427527368068695068359375">
        <ele>518.5999755859375</ele>
        <time>2017-05-05T15:03:16.000Z</time>
        <extensions>
          <ns3:TrackPointExtension>
            <ns3:hr>155</ns3:hr>
          </ns3:TrackPointExtension>
        </extensions>
      </trkpt>
      <trkpt lat="46.81854307651519775390625" lon="6.85098853893578052520751953125">
        <ele>516.20001220703125</ele>
        <time>2017-05-05T15:03:17.000Z</time>
        <extensions>
          <ns3:TrackPointExtension>
            <ns3:hr>154</ns3:hr>
          </ns3:TrackPointExtension>
        </extensions>
      </trkpt>
      <trkpt lat="46.81857685558497905731201171875" lon="6.85105274431407451629638671875">
        <ele>514.79998779296875</ele>
        <time>2017-05-05T15:03:18.000Z</time>
        <extensions>
          <ns3:TrackPointExtension>
            <ns3:hr>154</ns3:hr>
          </ns3:TrackPointExtension>
        </extensions>
      </trkpt>
      <trkpt lat="46.81861675344407558441162109375" lon="6.85109834186732769012451171875">
        <ele>513</ele>
        <time>2017-05-05T15:03:19.000Z</time>
        <extensions>
          <ns3:TrackPointExtension>
            <ns3:hr>154</ns3:hr>
          </ns3:TrackPointExtension>
        </extensions>
      </trkpt>
      <trkpt lat="46.8186575733125209808349609375" lon="6.8511431850492954254150390625">
        <ele>511.600006103515625</ele>
        <time>2017-05-05T15:03:20.000Z</time>
        <extensions>
          <ns3:TrackPointExtension>
            <ns3:hr>154</ns3:hr>
          </ns3:TrackPointExtension>
        </extensions>
      </trkpt>
      <trkpt lat="46.81869990192353725433349609375" lon="6.85117646120488643646240234375">
        <ele>510.399993896484375</ele>
        <time>2017-05-05T15:03:21.000Z</time>
        <extensions>
          <ns3:TrackPointExtension>
            <ns3:hr>154</ns3:hr>
          </ns3:TrackPointExtension>
        </extensions>
      </trkpt>
      <trkpt lat="46.8187437392771244049072265625" lon="6.851201355457305908203125">
        <ele>509.79998779296875</ele>
        <time>2017-05-05T15:03:22.000Z</time>
        <extensions>
          <ns3:TrackPointExtension>
            <ns3:hr>154</ns3:hr>
          </ns3:TrackPointExtension>
        </extensions>
      </trkpt>
      <trkpt lat="46.81878506205976009368896484375" lon="6.85122524388134479522705078125">
        <ele>509.399993896484375</ele>
        <time>2017-05-05T15:03:23.000Z</time>
        <extensions>
          <ns3:TrackPointExtension>
            <ns3:hr>154</ns3:hr>
          </ns3:TrackPointExtension>
        </extensions>
      </trkpt>
      <trkpt lat="46.81886561214923858642578125" lon="6.85125357471406459808349609375">
        <ele>509</ele>
        <time>2017-05-05T15:03:25.000Z</time>
        <extensions>
          <ns3:TrackPointExtension>
            <ns3:hr>154</ns3:hr>
          </ns3:TrackPointExtension>
        </extensions>
      </trkpt>
      <trkpt lat="46.81894850917160511016845703125" lon="6.851274780929088592529296875">
        <ele>508.79998779296875</ele>
        <time>2017-05-05T15:03:27.000Z</time>
        <extensions>
          <ns3:TrackPointExtension>
            <ns3:hr>154</ns3:hr>
          </ns3:TrackPointExtension>
        </extensions>
      </trkpt>
      <trkpt lat="46.8190848827362060546875" lon="6.85125776566565036773681640625">
        <ele>508.399993896484375</ele>
        <time>2017-05-05T15:03:30.000Z</time>
        <extensions>
          <ns3:TrackPointExtension>
            <ns3:hr>154</ns3:hr>
          </ns3:TrackPointExtension>
        </extensions>
      </trkpt>
      <trkpt lat="46.81921371258795261383056640625" lon="6.8512427620589733123779296875">
        <ele>508.20001220703125</ele>
        <time>2017-05-05T15:03:33.000Z</time>
        <extensions>
          <ns3:TrackPointExtension>
            <ns3:hr>155</ns3:hr>
          </ns3:TrackPointExtension>
        </extensions>
      </trkpt>
      <trkpt lat="46.81928110308945178985595703125" lon="6.85135197825729846954345703125">
        <ele>508.20001220703125</ele>
        <time>2017-05-05T15:03:35.000Z</time>
        <extensions>
          <ns3:TrackPointExtension>
            <ns3:hr>155</ns3:hr>
          </ns3:TrackPointExtension>
        </extensions>
      </trkpt>
      <trkpt lat="46.81929853744804859161376953125" lon="6.85152347199618816375732421875">
        <ele>508</ele>
        <time>2017-05-05T15:03:37.000Z</time>
        <extensions>
          <ns3:TrackPointExtension>
            <ns3:hr>155</ns3:hr>
          </ns3:TrackPointExtension>
        </extensions>
      </trkpt>
      <trkpt lat="46.81921270675957202911376953125" lon="6.85183930210769176483154296875">
        <ele>507.399993896484375</ele>
        <time>2017-05-05T15:03:41.000Z</time>
        <extensions>
          <ns3:TrackPointExtension>
            <ns3:hr>156</ns3:hr>
          </ns3:TrackPointExtension>
        </extensions>
      </trkpt>
      <trkpt lat="46.81912067346274852752685546875" lon="6.85218161903321743011474609375">
        <ele>506.20001220703125</ele>
        <time>2017-05-05T15:03:45.000Z</time>
        <extensions>
          <ns3:TrackPointExtension>
            <ns3:hr>155</ns3:hr>
          </ns3:TrackPointExtension>
        </extensions>
      </trkpt>
      <trkpt lat="46.81906007230281829833984375" lon="6.8523421324789524078369140625">
        <ele>505.600006103515625</ele>
        <time>2017-05-05T15:03:47.000Z</time>
        <extensions>
          <ns3:TrackPointExtension>
            <ns3:hr>155</ns3:hr>
          </ns3:TrackPointExtension>
        </extensions>
      </trkpt>
      <trkpt lat="46.81896057911217212677001953125" lon="6.8524738959968090057373046875">
        <ele>505.399993896484375</ele>
        <time>2017-05-05T15:03:49.000Z</time>
        <extensions>
          <ns3:TrackPointExtension>
            <ns3:hr>156</ns3:hr>
          </ns3:TrackPointExtension>
        </extensions>
      </trkpt>
      <trkpt lat="46.8188396282494068145751953125" lon="6.8525966070592403411865234375">
        <ele>505</ele>
        <time>2017-05-05T15:03:51.000Z</time>
        <extensions>
          <ns3:TrackPointExtension>
            <ns3:hr>157</ns3:hr>
          </ns3:TrackPointExtension>
        </extensions>
      </trkpt>
      <trkpt lat="46.81872722692787647247314453125" lon="6.852698028087615966796875">
        <ele>505</ele>
        <time>2017-05-05T15:03:53.000Z</time>
        <extensions>
          <ns3:TrackPointExtension>
            <ns3:hr>157</ns3:hr>
          </ns3:TrackPointExtension>
        </extensions>
      </trkpt>
      <trkpt lat="46.81861423887312412261962890625" lon="6.852739267051219940185546875">
        <ele>505</ele>
        <time>2017-05-05T15:03:55.000Z</time>
        <extensions>
          <ns3:TrackPointExtension>
            <ns3:hr>157</ns3:hr>
          </ns3:TrackPointExtension>
        </extensions>
      </trkpt>
      <trkpt lat="46.8185120634734630584716796875" lon="6.85268905945122241973876953125">
        <ele>505</ele>
        <time>2017-05-05T15:03:57.000Z</time>
        <extensions>
          <ns3:TrackPointExtension>
            <ns3:hr>157</ns3:hr>
          </ns3:TrackPointExtension>
        </extensions>
      </trkpt>
      <trkpt lat="46.8182974867522716522216796875" lon="6.85243223793804645538330078125">
        <ele>505</ele>
        <time>2017-05-05T15:04:02.000Z</time>
        <extensions>
          <ns3:TrackPointExtension>
            <ns3:hr>158</ns3:hr>
          </ns3:TrackPointExtension>
        </extensions>
      </trkpt>
      <trkpt lat="46.81820369325578212738037109375" lon="6.85234623961150646209716796875">
        <ele>505</ele>
        <time>2017-05-05T15:04:04.000Z</time>
        <extensions>
          <ns3:TrackPointExtension>
            <ns3:hr>158</ns3:hr>
          </ns3:TrackPointExtension>
        </extensions>
      </trkpt>
      <trkpt lat="46.81810344569385051727294921875" lon="6.85236744582653045654296875">
        <ele>504.79998779296875</ele>
        <time>2017-05-05T15:04:06.000Z</time>
        <extensions>
          <ns3:TrackPointExtension>
            <ns3:hr>158</ns3:hr>
          </ns3:TrackPointExtension>
        </extensions>
      </trkpt>
      <trkpt lat="46.81782332248985767364501953125" lon="6.85285569168627262115478515625">
        <ele>504</ele>
        <time>2017-05-05T15:04:13.000Z</time>
        <extensions>
          <ns3:TrackPointExtension>
            <ns3:hr>158</ns3:hr>
          </ns3:TrackPointExtension>
        </extensions>
      </trkpt>
      <trkpt lat="46.81747329421341419219970703125" lon="6.8535206280648708343505859375">
        <ele>503</ele>
        <time>2017-05-05T15:04:21.000Z</time>
        <extensions>
          <ns3:TrackPointExtension>
            <ns3:hr>158</ns3:hr>
          </ns3:TrackPointExtension>
        </extensions>
      </trkpt>
      <trkpt lat="46.81717305444180965423583984375" lon="6.85406394302845001220703125">
        <ele>502.20001220703125</ele>
        <time>2017-05-05T15:04:27.000Z</time>
        <extensions>
          <ns3:TrackPointExtension>
            <ns3:hr>157</ns3:hr>
          </ns3:TrackPointExtension>
        </extensions>
      </trkpt>
      <trkpt lat="46.81703902781009674072265625" lon="6.8541633524000644683837890625">
        <ele>502.20001220703125</ele>
        <time>2017-05-05T15:04:29.000Z</time>
        <extensions>
          <ns3:TrackPointExtension>
            <ns3:hr>156</ns3:hr>
          </ns3:TrackPointExtension>
        </extensions>
      </trkpt>
      <trkpt lat="46.81686745025217533111572265625" lon="6.85415538959205150604248046875">
        <ele>502.20001220703125</ele>
        <time>2017-05-05T15:04:32.000Z</time>
        <extensions>
          <ns3:TrackPointExtension>
            <ns3:hr>157</ns3:hr>
          </ns3:TrackPointExtension>
        </extensions>
      </trkpt>
      <trkpt lat="46.81633855216205120086669921875" lon="6.85385917313396930694580078125">
        <ele>503</ele>
        <time>2017-05-05T15:04:44.000Z</time>
        <extensions>
          <ns3:TrackPointExtension>
            <ns3:hr>156</ns3:hr>
          </ns3:TrackPointExtension>
        </extensions>
      </trkpt>
      <trkpt lat="46.816274262964725494384765625" lon="6.85389521531760692596435546875">
        <ele>503.20001220703125</ele>
        <time>2017-05-05T15:04:46.000Z</time>
        <extensions>
          <ns3:TrackPointExtension>
            <ns3:hr>155</ns3:hr>
          </ns3:TrackPointExtension>
        </extensions>
      </trkpt>
      <trkpt lat="46.81622405536472797393798828125" lon="6.8539772741496562957763671875">
        <ele>503.399993896484375</ele>
        <time>2017-05-05T15:04:48.000Z</time>
        <extensions>
          <ns3:TrackPointExtension>
            <ns3:hr>153</ns3:hr>
          </ns3:TrackPointExtension>
        </extensions>
      </trkpt>
      <trkpt lat="46.81620092131197452545166015625" lon="6.8541261367499828338623046875">
        <ele>503.600006103515625</ele>
        <time>2017-05-05T15:04:50.000Z</time>
        <extensions>
          <ns3:TrackPointExtension>
            <ns3:hr>153</ns3:hr>
          </ns3:TrackPointExtension>
        </extensions>
      </trkpt>
      <trkpt lat="46.816136129200458526611328125" lon="6.854427047073841094970703125">
        <ele>504</ele>
        <time>2017-05-05T15:04:54.000Z</time>
        <extensions>
          <ns3:TrackPointExtension>
            <ns3:hr>154</ns3:hr>
          </ns3:TrackPointExtension>
        </extensions>
      </trkpt>
      <trkpt lat="46.816107966005802154541015625" lon="6.854623518884181976318359375">
        <ele>504</ele>
        <time>2017-05-05T15:04:57.000Z</time>
        <extensions>
          <ns3:TrackPointExtension>
            <ns3:hr>157</ns3:hr>
          </ns3:TrackPointExtension>
        </extensions>
      </trkpt>
      <trkpt lat="46.816103942692279815673828125" lon="6.85492250137031078338623046875">
        <ele>504.20001220703125</ele>
        <time>2017-05-05T15:05:01.000Z</time>
        <extensions>
          <ns3:TrackPointExtension>
            <ns3:hr>160</ns3:hr>
          </ns3:TrackPointExtension>
        </extensions>
      </trkpt>
      <trkpt lat="46.8161329440772533416748046875" lon="6.8552271835505962371826171875">
        <ele>504.600006103515625</ele>
        <time>2017-05-05T15:05:05.000Z</time>
        <extensions>
          <ns3:TrackPointExtension>
            <ns3:hr>162</ns3:hr>
          </ns3:TrackPointExtension>
        </extensions>
      </trkpt>
      <trkpt lat="46.81613805703818798065185546875" lon="6.85542508028447628021240234375">
        <ele>505</ele>
        <time>2017-05-05T15:05:08.000Z</time>
        <extensions>
          <ns3:TrackPointExtension>
            <ns3:hr>161</ns3:hr>
          </ns3:TrackPointExtension>
        </extensions>
      </trkpt>
      <trkpt lat="46.8161170184612274169921875" lon="6.8557512201368808746337890625">
        <ele>505.399993896484375</ele>
        <time>2017-05-05T15:05:13.000Z</time>
        <extensions>
          <ns3:TrackPointExtension>
            <ns3:hr>158</ns3:hr>
          </ns3:TrackPointExtension>
        </extensions>
      </trkpt>
      <trkpt lat="46.81604049168527126312255859375" lon="6.85601633973419666290283203125">
        <ele>505.399993896484375</ele>
        <time>2017-05-05T15:05:17.000Z</time>
        <extensions>
          <ns3:TrackPointExtension>
            <ns3:hr>158</ns3:hr>
          </ns3:TrackPointExtension>
        </extensions>
      </trkpt>
      <trkpt lat="46.81598483584821224212646484375" lon="6.8561193533241748809814453125">
        <ele>505.399993896484375</ele>
        <time>2017-05-05T15:05:19.000Z</time>
        <extensions>
          <ns3:TrackPointExtension>
            <ns3:hr>158</ns3:hr>
          </ns3:TrackPointExtension>
        </extensions>
      </trkpt>
      <trkpt lat="46.815875954926013946533203125" lon="6.856260336935520172119140625">
        <ele>505.600006103515625</ele>
        <time>2017-05-05T15:05:22.000Z</time>
        <extensions>
          <ns3:TrackPointExtension>
            <ns3:hr>156</ns3:hr>
          </ns3:TrackPointExtension>
        </extensions>
      </trkpt>
      <trkpt lat="46.8157254159450531005859375" lon="6.85635563917458057403564453125">
        <ele>505.79998779296875</ele>
        <time>2017-05-05T15:05:25.000Z</time>
        <extensions>
          <ns3:TrackPointExtension>
            <ns3:hr>154</ns3:hr>
          </ns3:TrackPointExtension>
        </extensions>
      </trkpt>
      <trkpt lat="46.8155995197594165802001953125" lon="6.85638262890279293060302734375">
        <ele>505.600006103515625</ele>
        <time>2017-05-05T15:05:27.000Z</time>
        <extensions>
          <ns3:TrackPointExtension>
            <ns3:hr>154</ns3:hr>
          </ns3:TrackPointExtension>
        </extensions>
      </trkpt>
      <trkpt lat="46.81546800769865512847900390625" lon="6.85637474991381168365478515625">
        <ele>505.600006103515625</ele>
        <time>2017-05-05T15:05:29.000Z</time>
        <extensions>
          <ns3:TrackPointExtension>
            <ns3:hr>155</ns3:hr>
          </ns3:TrackPointExtension>
        </extensions>
      </trkpt>
      <trkpt lat="46.81537396274507045745849609375" lon="6.8562883324921131134033203125">
        <ele>505.20001220703125</ele>
        <time>2017-05-05T15:05:31.000Z</time>
        <extensions>
          <ns3:TrackPointExtension>
            <ns3:hr>155</ns3:hr>
          </ns3:TrackPointExtension>
        </extensions>
      </trkpt>
      <trkpt lat="46.81531260721385478973388671875" lon="6.85615866445004940032958984375">
        <ele>505.20001220703125</ele>
        <time>2017-05-05T15:05:33.000Z</time>
        <extensions>
          <ns3:TrackPointExtension>
            <ns3:hr>156</ns3:hr>
          </ns3:TrackPointExtension>
        </extensions>
      </trkpt>
      <trkpt lat="46.81520305573940277099609375" lon="6.855832524597644805908203125">
        <ele>503.79998779296875</ele>
        <time>2017-05-05T15:05:38.000Z</time>
        <extensions>
          <ns3:TrackPointExtension>
            <ns3:hr>154</ns3:hr>
          </ns3:TrackPointExtension>
        </extensions>
      </trkpt>
      <trkpt lat="46.815037094056606292724609375" lon="6.8552305363118648529052734375">
        <ele>503</ele>
        <time>2017-05-05T15:05:48.000Z</time>
        <extensions>
          <ns3:TrackPointExtension>
            <ns3:hr>154</ns3:hr>
          </ns3:TrackPointExtension>
        </extensions>
      </trkpt>
      <trkpt lat="46.81500348262488842010498046875" lon="6.8551267683506011962890625">
        <ele>503.20001220703125</ele>
        <time>2017-05-05T15:05:50.000Z</time>
        <extensions>
          <ns3:TrackPointExtension>
            <ns3:hr>154</ns3:hr>
          </ns3:TrackPointExtension>
        </extensions>
      </trkpt>
      <trkpt lat="46.81481547653675079345703125" lon="6.85454749502241611480712890625">
        <ele>504</ele>
        <time>2017-05-05T15:05:59.000Z</time>
        <extensions>
          <ns3:TrackPointExtension>
            <ns3:hr>151</ns3:hr>
          </ns3:TrackPointExtension>
        </extensions>
      </trkpt>
      <trkpt lat="46.814715899527072906494140625" lon="6.85428145341575145721435546875">
        <ele>504</ele>
        <time>2017-05-05T15:06:03.000Z</time>
        <extensions>
          <ns3:TrackPointExtension>
            <ns3:hr>148</ns3:hr>
          </ns3:TrackPointExtension>
        </extensions>
      </trkpt>
      <trkpt lat="46.814673654735088348388671875" lon="6.85420081950724124908447265625">
        <ele>504</ele>
        <time>2017-05-05T15:06:04.000Z</time>
        <extensions>
          <ns3:TrackPointExtension>
            <ns3:hr>148</ns3:hr>
          </ns3:TrackPointExtension>
        </extensions>
      </trkpt>
      <trkpt lat="46.81439260952174663543701171875" lon="6.85377292335033416748046875">
        <ele>503.399993896484375</ele>
        <time>2017-05-05T15:06:10.000Z</time>
        <extensions>
          <ns3:TrackPointExtension>
            <ns3:hr>149</ns3:hr>
          </ns3:TrackPointExtension>
        </extensions>
      </trkpt>
      <trkpt lat="46.81430174969136714935302734375" lon="6.8536926247179508209228515625">
        <ele>502.399993896484375</ele>
        <time>2017-05-05T15:06:12.000Z</time>
        <extensions>
          <ns3:TrackPointExtension>
            <ns3:hr>149</ns3:hr>
          </ns3:TrackPointExtension>
        </extensions>
      </trkpt>
      <trkpt lat="46.81423117406666278839111328125" lon="6.8536698259413242340087890625">
        <ele>501.20001220703125</ele>
        <time>2017-05-05T15:06:14.000Z</time>
        <extensions>
          <ns3:TrackPointExtension>
            <ns3:hr>150</ns3:hr>
          </ns3:TrackPointExtension>
        </extensions>
      </trkpt>
      <trkpt lat="46.81415833532810211181640625" lon="6.8537427484989166259765625">
        <ele>500.20001220703125</ele>
        <time>2017-05-05T15:06:16.000Z</time>
        <extensions>
          <ns3:TrackPointExtension>
            <ns3:hr>151</ns3:hr>
          </ns3:TrackPointExtension>
        </extensions>
      </trkpt>
      <trkpt lat="46.814120113849639892578125" lon="6.85381743125617504119873046875">
        <ele>500</ele>
        <time>2017-05-05T15:06:17.000Z</time>
        <extensions>
          <ns3:TrackPointExtension>
            <ns3:hr>153</ns3:hr>
          </ns3:TrackPointExtension>
        </extensions>
      </trkpt>
      <trkpt lat="46.81410796009004116058349609375" lon="6.8539088778197765350341796875">
        <ele>500</ele>
        <time>2017-05-05T15:06:18.000Z</time>
        <extensions>
          <ns3:TrackPointExtension>
            <ns3:hr>154</ns3:hr>
          </ns3:TrackPointExtension>
        </extensions>
      </trkpt>
      <trkpt lat="46.81410469114780426025390625" lon="6.85415421612560749053955078125">
        <ele>499</ele>
        <time>2017-05-05T15:06:21.000Z</time>
        <extensions>
          <ns3:TrackPointExtension>
            <ns3:hr>156</ns3:hr>
          </ns3:TrackPointExtension>
        </extensions>
      </trkpt>
      <trkpt lat="46.8141323514282703399658203125" lon="6.854294948279857635498046875">
        <ele>498.20001220703125</ele>
        <time>2017-05-05T15:06:23.000Z</time>
        <extensions>
          <ns3:TrackPointExtension>
            <ns3:hr>156</ns3:hr>
          </ns3:TrackPointExtension>
        </extensions>
      </trkpt>
      <trkpt lat="46.81415020488202571868896484375" lon="6.8544104509055614471435546875">
        <ele>496.79998779296875</ele>
        <time>2017-05-05T15:06:25.000Z</time>
        <extensions>
          <ns3:TrackPointExtension>
            <ns3:hr>156</ns3:hr>
          </ns3:TrackPointExtension>
        </extensions>
      </trkpt>
      <trkpt lat="46.81413880549371242523193359375" lon="6.85451782308518886566162109375">
        <ele>495.600006103515625</ele>
        <time>2017-05-05T15:06:27.000Z</time>
        <extensions>
          <ns3:TrackPointExtension>
            <ns3:hr>156</ns3:hr>
          </ns3:TrackPointExtension>
        </extensions>
      </trkpt>
      <trkpt lat="46.8140676431357860565185546875" lon="6.8545817770063877105712890625">
        <ele>495</ele>
        <time>2017-05-05T15:06:30.000Z</time>
        <extensions>
          <ns3:TrackPointExtension>
            <ns3:hr>154</ns3:hr>
          </ns3:TrackPointExtension>
        </extensions>
      </trkpt>
      <trkpt lat="46.813908554613590240478515625" lon="6.85455671511590480804443359375">
        <ele>494.79998779296875</ele>
        <time>2017-05-05T15:06:36.000Z</time>
        <extensions>
          <ns3:TrackPointExtension>
            <ns3:hr>154</ns3:hr>
          </ns3:TrackPointExtension>
        </extensions>
      </trkpt>
      <trkpt lat="46.8138312734663486480712890625" lon="6.8547252751886844635009765625">
        <ele>495</ele>
        <time>2017-05-05T15:06:41.000Z</time>
        <extensions>
          <ns3:TrackPointExtension>
            <ns3:hr>157</ns3:hr>
          </ns3:TrackPointExtension>
        </extensions>
      </trkpt>
      <trkpt lat="46.81384912692010402679443359375" lon="6.85498100705444812774658203125">
        <ele>495.79998779296875</ele>
        <time>2017-05-05T15:06:45.000Z</time>
        <extensions>
          <ns3:TrackPointExtension>
            <ns3:hr>157</ns3:hr>
          </ns3:TrackPointExtension>
        </extensions>
      </trkpt>
      <trkpt lat="46.813864968717098236083984375" lon="6.8551225773990154266357421875">
        <ele>495.79998779296875</ele>
        <time>2017-05-05T15:06:47.000Z</time>
        <extensions>
          <ns3:TrackPointExtension>
            <ns3:hr>157</ns3:hr>
          </ns3:TrackPointExtension>
        </extensions>
      </trkpt>
      <trkpt lat="46.81390075944364070892333984375" lon="6.85558081604540348052978515625">
        <ele>496</ele>
        <time>2017-05-05T15:06:54.000Z</time>
        <extensions>
          <ns3:TrackPointExtension>
            <ns3:hr>154</ns3:hr>
          </ns3:TrackPointExtension>
        </extensions>
      </trkpt>
      <trkpt lat="46.8139234744012355804443359375" lon="6.85639922507107257843017578125">
        <ele>496</ele>
        <time>2017-05-05T15:07:07.000Z</time>
        <extensions>
          <ns3:TrackPointExtension>
            <ns3:hr>153</ns3:hr>
          </ns3:TrackPointExtension>
        </extensions>
      </trkpt>
      <trkpt lat="46.81409169919788837432861328125" lon="6.8570011295378208160400390625">
        <ele>496.600006103515625</ele>
        <time>2017-05-05T15:07:18.000Z</time>
        <extensions>
          <ns3:TrackPointExtension>
            <ns3:hr>156</ns3:hr>
          </ns3:TrackPointExtension>
        </extensions>
      </trkpt>
      <trkpt lat="46.81415992788970470428466796875" lon="6.85727077536284923553466796875">
        <ele>497.79998779296875</ele>
        <time>2017-05-05T15:07:23.000Z</time>
        <extensions>
          <ns3:TrackPointExtension>
            <ns3:hr>155</ns3:hr>
          </ns3:TrackPointExtension>
        </extensions>
      </trkpt>
      <trkpt lat="46.814173422753810882568359375" lon="6.85751502402126789093017578125">
        <ele>499</ele>
        <time>2017-05-05T15:07:28.000Z</time>
        <extensions>
          <ns3:TrackPointExtension>
            <ns3:hr>154</ns3:hr>
          </ns3:TrackPointExtension>
        </extensions>
      </trkpt>
      <trkpt lat="46.8141853250563144683837890625" lon="6.8576740287244319915771484375">
        <ele>499.79998779296875</ele>
        <time>2017-05-05T15:07:32.000Z</time>
        <extensions>
          <ns3:TrackPointExtension>
            <ns3:hr>157</ns3:hr>
          </ns3:TrackPointExtension>
        </extensions>
      </trkpt>
      <trkpt lat="46.8141750991344451904296875" lon="6.85777075588703155517578125">
        <ele>500.20001220703125</ele>
        <time>2017-05-05T15:07:34.000Z</time>
        <extensions>
          <ns3:TrackPointExtension>
            <ns3:hr>157</ns3:hr>
          </ns3:TrackPointExtension>
        </extensions>
      </trkpt>
      <trkpt lat="46.8141236342489719390869140625" lon="6.8580262362957000732421875">
        <ele>501</ele>
        <time>2017-05-05T15:07:40.000Z</time>
        <extensions>
          <ns3:TrackPointExtension>
            <ns3:hr>154</ns3:hr>
          </ns3:TrackPointExtension>
        </extensions>
      </trkpt>
      <trkpt lat="46.81411667726933956146240234375" lon="6.85810360126197338104248046875">
        <ele>501.20001220703125</ele>
        <time>2017-05-05T15:07:42.000Z</time>
        <extensions>
          <ns3:TrackPointExtension>
            <ns3:hr>152</ns3:hr>
          </ns3:TrackPointExtension>
        </extensions>
      </trkpt>
      <trkpt lat="46.81393277831375598907470703125" lon="6.858421526849269866943359375">
        <ele>502.20001220703125</ele>
        <time>2017-05-05T15:07:52.000Z</time>
        <extensions>
          <ns3:TrackPointExtension>
            <ns3:hr>151</ns3:hr>
          </ns3:TrackPointExtension>
        </extensions>
      </trkpt>
      <trkpt lat="46.81386488489806652069091796875" lon="6.85856644995510578155517578125">
        <ele>503.600006103515625</ele>
        <time>2017-05-05T15:07:57.000Z</time>
        <extensions>
          <ns3:TrackPointExtension>
            <ns3:hr>152</ns3:hr>
          </ns3:TrackPointExtension>
        </extensions>
      </trkpt>
      <trkpt lat="46.813782490789890289306640625" lon="6.85866971500217914581298828125">
        <ele>504.600006103515625</ele>
        <time>2017-05-05T15:08:02.000Z</time>
        <extensions>
          <ns3:TrackPointExtension>
            <ns3:hr>151</ns3:hr>
          </ns3:TrackPointExtension>
        </extensions>
      </trkpt>
      <trkpt lat="46.8136938102543354034423828125" lon="6.85889552347362041473388671875">
        <ele>505.79998779296875</ele>
        <time>2017-05-05T15:08:07.000Z</time>
        <extensions>
          <ns3:TrackPointExtension>
            <ns3:hr>149</ns3:hr>
          </ns3:TrackPointExtension>
        </extensions>
      </trkpt>
      <trkpt lat="46.8136539123952388763427734375" lon="6.859055869281291961669921875">
        <ele>507</ele>
        <time>2017-05-05T15:08:11.000Z</time>
        <extensions>
          <ns3:TrackPointExtension>
            <ns3:hr>147</ns3:hr>
          </ns3:TrackPointExtension>
        </extensions>
      </trkpt>
      <trkpt lat="46.8136332929134368896484375" lon="6.8591727130115032196044921875">
        <ele>508</ele>
        <time>2017-05-05T15:08:16.000Z</time>
        <extensions>
          <ns3:TrackPointExtension>
            <ns3:hr>149</ns3:hr>
          </ns3:TrackPointExtension>
        </extensions>
      </trkpt>
      <trkpt lat="46.813610494136810302734375" lon="6.859294585883617401123046875">
        <ele>509.20001220703125</ele>
        <time>2017-05-05T15:08:21.000Z</time>
        <extensions>
          <ns3:TrackPointExtension>
            <ns3:hr>152</ns3:hr>
          </ns3:TrackPointExtension>
        </extensions>
      </trkpt>
      <trkpt lat="46.81359708309173583984375" lon="6.8593604676425457000732421875">
        <ele>510.399993896484375</ele>
        <time>2017-05-05T15:08:24.000Z</time>
        <extensions>
          <ns3:TrackPointExtension>
            <ns3:hr>152</ns3:hr>
          </ns3:TrackPointExtension>
        </extensions>
      </trkpt>
      <trkpt lat="46.8135831691324710845947265625" lon="6.859399862587451934814453125">
        <ele>510.79998779296875</ele>
        <time>2017-05-05T15:08:26.000Z</time>
        <extensions>
          <ns3:TrackPointExtension>
            <ns3:hr>152</ns3:hr>
          </ns3:TrackPointExtension>
        </extensions>
      </trkpt>
      <trkpt lat="46.8135702610015869140625" lon="6.8594533391296863555908203125">
        <ele>511.600006103515625</ele>
        <time>2017-05-05T15:08:28.000Z</time>
        <extensions>
          <ns3:TrackPointExtension>
            <ns3:hr>152</ns3:hr>
          </ns3:TrackPointExtension>
        </extensions>
      </trkpt>
      <trkpt lat="46.81353664956986904144287109375" lon="6.8595867790281772613525390625">
        <ele>512.5999755859375</ele>
        <time>2017-05-05T15:08:33.000Z</time>
        <extensions>
          <ns3:TrackPointExtension>
            <ns3:hr>151</ns3:hr>
          </ns3:TrackPointExtension>
        </extensions>
      </trkpt>
      <trkpt lat="46.81351603008806705474853515625" lon="6.8597912974655628204345703125">
        <ele>512.79998779296875</ele>
        <time>2017-05-05T15:08:37.000Z</time>
        <extensions>
          <ns3:TrackPointExtension>
            <ns3:hr>153</ns3:hr>
          </ns3:TrackPointExtension>
        </extensions>
      </trkpt>
      <trkpt lat="46.81349893100559711456298828125" lon="6.85992951504886150360107421875">
        <ele>512.79998779296875</ele>
        <time>2017-05-05T15:08:39.000Z</time>
        <extensions>
          <ns3:TrackPointExtension>
            <ns3:hr>153</ns3:hr>
          </ns3:TrackPointExtension>
        </extensions>
      </trkpt>
      <trkpt lat="46.81347227655351161956787109375" lon="6.86016923747956752777099609375">
        <ele>512.79998779296875</ele>
        <time>2017-05-05T15:08:42.000Z</time>
        <extensions>
          <ns3:TrackPointExtension>
            <ns3:hr>154</ns3:hr>
          </ns3:TrackPointExtension>
        </extensions>
      </trkpt>
      <trkpt lat="46.813452243804931640625" lon="6.8605869077146053314208984375">
        <ele>511.399993896484375</ele>
        <time>2017-05-05T15:08:46.000Z</time>
        <extensions>
          <ns3:TrackPointExtension>
            <ns3:hr>155</ns3:hr>
          </ns3:TrackPointExtension>
        </extensions>
      </trkpt>
      <trkpt lat="46.81345333345234394073486328125" lon="6.8608963675796985626220703125">
        <ele>510.399993896484375</ele>
        <time>2017-05-05T15:08:49.000Z</time>
        <extensions>
          <ns3:TrackPointExtension>
            <ns3:hr>156</ns3:hr>
          </ns3:TrackPointExtension>
        </extensions>
      </trkpt>
      <trkpt lat="46.8134490586817264556884765625" lon="6.860991753637790679931640625">
        <ele>509.20001220703125</ele>
        <time>2017-05-05T15:08:50.000Z</time>
        <extensions>
          <ns3:TrackPointExtension>
            <ns3:hr>156</ns3:hr>
          </ns3:TrackPointExtension>
        </extensions>
      </trkpt>
      <trkpt lat="46.81341226212680339813232421875" lon="6.8612262792885303497314453125">
        <ele>507.399993896484375</ele>
        <time>2017-05-05T15:08:52.000Z</time>
        <extensions>
          <ns3:TrackPointExtension>
            <ns3:hr>157</ns3:hr>
          </ns3:TrackPointExtension>
        </extensions>
      </trkpt>
      <trkpt lat="46.813402287662029266357421875" lon="6.86132560484111309051513671875">
        <ele>506.20001220703125</ele>
        <time>2017-05-05T15:08:53.000Z</time>
        <extensions>
          <ns3:TrackPointExtension>
            <ns3:hr>157</ns3:hr>
          </ns3:TrackPointExtension>
        </extensions>
      </trkpt>
      <trkpt lat="46.813362725079059600830078125" lon="6.86151511967182159423828125">
        <ele>505</ele>
        <time>2017-05-05T15:08:55.000Z</time>
        <extensions>
          <ns3:TrackPointExtension>
            <ns3:hr>156</ns3:hr>
          </ns3:TrackPointExtension>
        </extensions>
      </trkpt>
      <trkpt lat="46.81320372037589550018310546875" lon="6.86225733719766139984130859375">
        <ele>503.79998779296875</ele>
        <time>2017-05-05T15:09:02.000Z</time>
        <extensions>
          <ns3:TrackPointExtension>
            <ns3:hr>155</ns3:hr>
          </ns3:TrackPointExtension>
        </extensions>
      </trkpt>
      <trkpt lat="46.81318913586437702178955078125" lon="6.86246118508279323577880859375">
        <ele>503</ele>
        <time>2017-05-05T15:09:04.000Z</time>
        <extensions>
          <ns3:TrackPointExtension>
            <ns3:hr>155</ns3:hr>
          </ns3:TrackPointExtension>
        </extensions>
      </trkpt>
      <trkpt lat="46.8131831847131252288818359375" lon="6.86255984008312225341796875">
        <ele>502.600006103515625</ele>
        <time>2017-05-05T15:09:05.000Z</time>
        <extensions>
          <ns3:TrackPointExtension>
            <ns3:hr>155</ns3:hr>
          </ns3:TrackPointExtension>
        </extensions>
      </trkpt>
      <trkpt lat="46.8131719529628753662109375" lon="6.8633559532463550567626953125">
        <ele>502.399993896484375</ele>
        <time>2017-05-05T15:09:15.000Z</time>
        <extensions>
          <ns3:TrackPointExtension>
            <ns3:hr>154</ns3:hr>
          </ns3:TrackPointExtension>
        </extensions>
      </trkpt>
      <trkpt lat="46.813187040388584136962890625" lon="6.86341403983533382415771484375">
        <ele>502.399993896484375</ele>
        <time>2017-05-05T15:09:16.000Z</time>
        <extensions>
          <ns3:TrackPointExtension>
            <ns3:hr>154</ns3:hr>
          </ns3:TrackPointExtension>
        </extensions>
      </trkpt>
      <trkpt lat="46.8132043071091175079345703125" lon="6.86388040892779827117919921875">
        <ele>503.600006103515625</ele>
        <time>2017-05-05T15:09:23.000Z</time>
        <extensions>
          <ns3:TrackPointExtension>
            <ns3:hr>153</ns3:hr>
          </ns3:TrackPointExtension>
        </extensions>
      </trkpt>
      <trkpt lat="46.81320942007005214691162109375" lon="6.86420227400958538055419921875">
        <ele>505</ele>
        <time>2017-05-05T15:09:28.000Z</time>
        <extensions>
          <ns3:TrackPointExtension>
            <ns3:hr>154</ns3:hr>
          </ns3:TrackPointExtension>
        </extensions>
      </trkpt>
      <trkpt lat="46.81320103816688060760498046875" lon="6.8642648868262767791748046875">
        <ele>505.20001220703125</ele>
        <time>2017-05-05T15:09:29.000Z</time>
        <extensions>
          <ns3:TrackPointExtension>
            <ns3:hr>154</ns3:hr>
          </ns3:TrackPointExtension>
        </extensions>
      </trkpt>
      <trkpt lat="46.8132173828780651092529296875" lon="6.86477190814912319183349609375">
        <ele>505.399993896484375</ele>
        <time>2017-05-05T15:09:36.000Z</time>
        <extensions>
          <ns3:TrackPointExtension>
            <ns3:hr>152</ns3:hr>
          </ns3:TrackPointExtension>
        </extensions>
      </trkpt>
      <trkpt lat="46.81327027268707752227783203125" lon="6.86495915986597537994384765625">
        <ele>505.399993896484375</ele>
        <time>2017-05-05T15:09:38.000Z</time>
        <extensions>
          <ns3:TrackPointExtension>
            <ns3:hr>152</ns3:hr>
          </ns3:TrackPointExtension>
        </extensions>
      </trkpt>
      <trkpt lat="46.8133866973221302032470703125" lon="6.86517759226262569427490234375">
        <ele>505.399993896484375</ele>
        <time>2017-05-05T15:09:40.000Z</time>
        <extensions>
          <ns3:TrackPointExtension>
            <ns3:hr>152</ns3:hr>
          </ns3:TrackPointExtension>
        </extensions>
      </trkpt>
      <trkpt lat="46.81367981247603893280029296875" lon="6.86569693498313426971435546875">
        <ele>503.79998779296875</ele>
        <time>2017-05-05T15:09:44.000Z</time>
        <extensions>
          <ns3:TrackPointExtension>
            <ns3:hr>151</ns3:hr>
          </ns3:TrackPointExtension>
        </extensions>
      </trkpt>
      <trkpt lat="46.813730187714099884033203125" lon="6.865853928029537200927734375">
        <ele>503.600006103515625</ele>
        <time>2017-05-05T15:09:45.000Z</time>
        <extensions>
          <ns3:TrackPointExtension>
            <ns3:hr>151</ns3:hr>
          </ns3:TrackPointExtension>
        </extensions>
      </trkpt>
      <trkpt lat="46.81376949883997440338134765625" lon="6.86620035208761692047119140625">
        <ele>502.20001220703125</ele>
        <time>2017-05-05T15:09:47.000Z</time>
        <extensions>
          <ns3:TrackPointExtension>
            <ns3:hr>150</ns3:hr>
          </ns3:TrackPointExtension>
        </extensions>
      </trkpt>
      <trkpt lat="46.81376648135483264923095703125" lon="6.86638290993869304656982421875">
        <ele>500.79998779296875</ele>
        <time>2017-05-05T15:09:48.000Z</time>
        <extensions>
          <ns3:TrackPointExtension>
            <ns3:hr>149</ns3:hr>
          </ns3:TrackPointExtension>
        </extensions>
      </trkpt>
      <trkpt lat="46.8137484602630138397216796875" lon="6.86655809171497821807861328125">
        <ele>499.20001220703125</ele>
        <time>2017-05-05T15:09:49.000Z</time>
        <extensions>
          <ns3:TrackPointExtension>
            <ns3:hr>149</ns3:hr>
          </ns3:TrackPointExtension>
        </extensions>
      </trkpt>
      <trkpt lat="46.81374259293079376220703125" lon="6.8667365424335002899169921875">
        <ele>497.79998779296875</ele>
        <time>2017-05-05T15:09:50.000Z</time>
        <extensions>
          <ns3:TrackPointExtension>
            <ns3:hr>149</ns3:hr>
          </ns3:TrackPointExtension>
        </extensions>
      </trkpt>
      <trkpt lat="46.81374737061560153961181640625" lon="6.866909377276897430419921875">
        <ele>495.79998779296875</ele>
        <time>2017-05-05T15:09:51.000Z</time>
        <extensions>
          <ns3:TrackPointExtension>
            <ns3:hr>149</ns3:hr>
          </ns3:TrackPointExtension>
        </extensions>
      </trkpt>
      <trkpt lat="46.81377134285867214202880859375" lon="6.867073662579059600830078125">
        <ele>494.600006103515625</ele>
        <time>2017-05-05T15:09:52.000Z</time>
        <extensions>
          <ns3:TrackPointExtension>
            <ns3:hr>149</ns3:hr>
          </ns3:TrackPointExtension>
        </extensions>
      </trkpt>
      <trkpt lat="46.8138037808239459991455078125" lon="6.86722897924482822418212890625">
        <ele>492.399993896484375</ele>
        <time>2017-05-05T15:09:53.000Z</time>
        <extensions>
          <ns3:TrackPointExtension>
            <ns3:hr>149</ns3:hr>
          </ns3:TrackPointExtension>
        </extensions>
      </trkpt>
      <trkpt lat="46.81383336894214153289794921875" lon="6.86738404445350170135498046875">
        <ele>490.79998779296875</ele>
        <time>2017-05-05T15:09:54.000Z</time>
        <extensions>
          <ns3:TrackPointExtension>
            <ns3:hr>150</ns3:hr>
          </ns3:TrackPointExtension>
        </extensions>
      </trkpt>
      <trkpt lat="46.81384610943496227264404296875" lon="6.8675386905670166015625">
        <ele>489.20001220703125</ele>
        <time>2017-05-05T15:09:55.000Z</time>
        <extensions>
          <ns3:TrackPointExtension>
            <ns3:hr>150</ns3:hr>
          </ns3:TrackPointExtension>
        </extensions>
      </trkpt>
      <trkpt lat="46.8138557486236095428466796875" lon="6.86769383959472179412841796875">
        <ele>488</ele>
        <time>2017-05-05T15:09:56.000Z</time>
        <extensions>
          <ns3:TrackPointExtension>
            <ns3:hr>150</ns3:hr>
          </ns3:TrackPointExtension>
        </extensions>
      </trkpt>
      <trkpt lat="46.81384108029305934906005859375" lon="6.8679737113416194915771484375">
        <ele>486</ele>
        <time>2017-05-05T15:09:58.000Z</time>
        <extensions>
          <ns3:TrackPointExtension>
            <ns3:hr>150</ns3:hr>
          </ns3:TrackPointExtension>
        </extensions>
      </trkpt>
      <trkpt lat="46.813841499388217926025390625" lon="6.86823279596865177154541015625">
        <ele>484.399993896484375</ele>
        <time>2017-05-05T15:10:00.000Z</time>
        <extensions>
          <ns3:TrackPointExtension>
            <ns3:hr>150</ns3:hr>
          </ns3:TrackPointExtension>
        </extensions>
      </trkpt>
      <trkpt lat="46.813857257366180419921875" lon="6.86836414039134979248046875">
        <ele>484</ele>
        <time>2017-05-05T15:10:01.000Z</time>
        <extensions>
          <ns3:TrackPointExtension>
            <ns3:hr>151</ns3:hr>
          </ns3:TrackPointExtension>
        </extensions>
      </trkpt>
      <trkpt lat="46.81394032202661037445068359375" lon="6.8687324412167072296142578125">
        <ele>483.399993896484375</ele>
        <time>2017-05-05T15:10:04.000Z</time>
        <extensions>
          <ns3:TrackPointExtension>
            <ns3:hr>152</ns3:hr>
          </ns3:TrackPointExtension>
        </extensions>
      </trkpt>
      <trkpt lat="46.81400553323328495025634765625" lon="6.86904944479465484619140625">
        <ele>483</ele>
        <time>2017-05-05T15:10:07.000Z</time>
        <extensions>
          <ns3:TrackPointExtension>
            <ns3:hr>152</ns3:hr>
          </ns3:TrackPointExtension>
        </extensions>
      </trkpt>
      <trkpt lat="46.8139741010963916778564453125" lon="6.869241893291473388671875">
        <ele>482.79998779296875</ele>
        <time>2017-05-05T15:10:09.000Z</time>
        <extensions>
          <ns3:TrackPointExtension>
            <ns3:hr>152</ns3:hr>
          </ns3:TrackPointExtension>
        </extensions>
      </trkpt>
      <trkpt lat="46.81388533674180507659912109375" lon="6.86938497237861156463623046875">
        <ele>483.20001220703125</ele>
        <time>2017-05-05T15:10:11.000Z</time>
        <extensions>
          <ns3:TrackPointExtension>
            <ns3:hr>150</ns3:hr>
          </ns3:TrackPointExtension>
        </extensions>
      </trkpt>
      <trkpt lat="46.813695318996906280517578125" lon="6.86965000815689563751220703125">
        <ele>484.399993896484375</ele>
        <time>2017-05-05T15:10:15.000Z</time>
        <extensions>
          <ns3:TrackPointExtension>
            <ns3:hr>150</ns3:hr>
          </ns3:TrackPointExtension>
        </extensions>
      </trkpt>
      <trkpt lat="46.81361711584031581878662109375" lon="6.86978830955922603607177734375">
        <ele>485.600006103515625</ele>
        <time>2017-05-05T15:10:17.000Z</time>
        <extensions>
          <ns3:TrackPointExtension>
            <ns3:hr>150</ns3:hr>
          </ns3:TrackPointExtension>
        </extensions>
      </trkpt>
      <trkpt lat="46.81344260461628437042236328125" lon="6.87008938752114772796630859375">
        <ele>486.79998779296875</ele>
        <time>2017-05-05T15:10:22.000Z</time>
        <extensions>
          <ns3:TrackPointExtension>
            <ns3:hr>151</ns3:hr>
          </ns3:TrackPointExtension>
        </extensions>
      </trkpt>
      <trkpt lat="46.8132844381034374237060546875" lon="6.87031368725001811981201171875">
        <ele>487.600006103515625</ele>
        <time>2017-05-05T15:10:26.000Z</time>
        <extensions>
          <ns3:TrackPointExtension>
            <ns3:hr>154</ns3:hr>
          </ns3:TrackPointExtension>
        </extensions>
      </trkpt>
      <trkpt lat="46.8132411874830722808837890625" lon="6.87037043273448944091796875">
        <ele>488</ele>
        <time>2017-05-05T15:10:27.000Z</time>
        <extensions>
          <ns3:TrackPointExtension>
            <ns3:hr>154</ns3:hr>
          </ns3:TrackPointExtension>
        </extensions>
      </trkpt>
      <trkpt lat="46.81310531683266162872314453125" lon="6.87052776105701923370361328125">
        <ele>489</ele>
        <time>2017-05-05T15:10:30.000Z</time>
        <extensions>
          <ns3:TrackPointExtension>
            <ns3:hr>154</ns3:hr>
          </ns3:TrackPointExtension>
        </extensions>
      </trkpt>
      <trkpt lat="46.812874563038349151611328125" lon="6.87073462642729282379150390625">
        <ele>490.20001220703125</ele>
        <time>2017-05-05T15:10:35.000Z</time>
        <extensions>
          <ns3:TrackPointExtension>
            <ns3:hr>154</ns3:hr>
          </ns3:TrackPointExtension>
        </extensions>
      </trkpt>
      <trkpt lat="46.81268052197992801666259765625" lon="6.870862282812595367431640625">
        <ele>491.20001220703125</ele>
        <time>2017-05-05T15:10:39.000Z</time>
        <extensions>
          <ns3:TrackPointExtension>
            <ns3:hr>152</ns3:hr>
          </ns3:TrackPointExtension>
        </extensions>
      </trkpt>
      <trkpt lat="46.8125317431986331939697265625" lon="6.870942413806915283203125">
        <ele>492.20001220703125</ele>
        <time>2017-05-05T15:10:42.000Z</time>
        <extensions>
          <ns3:TrackPointExtension>
            <ns3:hr>152</ns3:hr>
          </ns3:TrackPointExtension>
        </extensions>
      </trkpt>
      <trkpt lat="46.81222982704639434814453125" lon="6.8711152486503124237060546875">
        <ele>493.20001220703125</ele>
        <time>2017-05-05T15:10:48.000Z</time>
        <extensions>
          <ns3:TrackPointExtension>
            <ns3:hr>149</ns3:hr>
          </ns3:TrackPointExtension>
        </extensions>
      </trkpt>
      <trkpt lat="46.8121790327131748199462890625" lon="6.8711449205875396728515625">
        <ele>493.399993896484375</ele>
        <time>2017-05-05T15:10:49.000Z</time>
        <extensions>
          <ns3:TrackPointExtension>
            <ns3:hr>149</ns3:hr>
          </ns3:TrackPointExtension>
        </extensions>
      </trkpt>
      <trkpt lat="46.81166262365877628326416015625" lon="6.87144055031239986419677734375">
        <ele>494.600006103515625</ele>
        <time>2017-05-05T15:10:59.000Z</time>
        <extensions>
          <ns3:TrackPointExtension>
            <ns3:hr>151</ns3:hr>
          </ns3:TrackPointExtension>
        </extensions>
      </trkpt>
      <trkpt lat="46.8114632181823253631591796875" lon="6.8715598247945308685302734375">
        <ele>495.600006103515625</ele>
        <time>2017-05-05T15:11:03.000Z</time>
        <extensions>
          <ns3:TrackPointExtension>
            <ns3:hr>149</ns3:hr>
          </ns3:TrackPointExtension>
        </extensions>
      </trkpt>
      <trkpt lat="46.81101570837199687957763671875" lon="6.87184925191104412078857421875">
        <ele>496.600006103515625</ele>
        <time>2017-05-05T15:11:12.000Z</time>
        <extensions>
          <ns3:TrackPointExtension>
            <ns3:hr>151</ns3:hr>
          </ns3:TrackPointExtension>
        </extensions>
      </trkpt>
      <trkpt lat="46.8109281174838542938232421875" lon="6.87194044701755046844482421875">
        <ele>496.79998779296875</ele>
        <time>2017-05-05T15:11:14.000Z</time>
        <extensions>
          <ns3:TrackPointExtension>
            <ns3:hr>151</ns3:hr>
          </ns3:TrackPointExtension>
        </extensions>
      </trkpt>
      <trkpt lat="46.8108992837369441986083984375" lon="6.872090399265289306640625">
        <ele>497</ele>
        <time>2017-05-05T15:11:16.000Z</time>
        <extensions>
          <ns3:TrackPointExtension>
            <ns3:hr>150</ns3:hr>
          </ns3:TrackPointExtension>
        </extensions>
      </trkpt>
      <trkpt lat="46.81093608029186725616455078125" lon="6.87228393740952014923095703125">
        <ele>497</ele>
        <time>2017-05-05T15:11:18.000Z</time>
        <extensions>
          <ns3:TrackPointExtension>
            <ns3:hr>150</ns3:hr>
          </ns3:TrackPointExtension>
        </extensions>
      </trkpt>
      <trkpt lat="46.81106549687683582305908203125" lon="6.872608400881290435791015625">
        <ele>497</ele>
        <time>2017-05-05T15:11:21.000Z</time>
        <extensions>
          <ns3:TrackPointExtension>
            <ns3:hr>150</ns3:hr>
          </ns3:TrackPointExtension>
        </extensions>
      </trkpt>
      <trkpt lat="46.81135148741304874420166015625" lon="6.8730863370001316070556640625">
        <ele>495.399993896484375</ele>
        <time>2017-05-05T15:11:26.000Z</time>
        <extensions>
          <ns3:TrackPointExtension>
            <ns3:hr>152</ns3:hr>
          </ns3:TrackPointExtension>
        </extensions>
      </trkpt>
      <trkpt lat="46.8114097416400909423828125" lon="6.87316739000380039215087890625">
        <ele>493.79998779296875</ele>
        <time>2017-05-05T15:11:27.000Z</time>
        <extensions>
          <ns3:TrackPointExtension>
            <ns3:hr>153</ns3:hr>
          </ns3:TrackPointExtension>
        </extensions>
      </trkpt>
      <trkpt lat="46.8115165270864963531494140625" lon="6.8733401410281658172607421875">
        <ele>492</ele>
        <time>2017-05-05T15:11:29.000Z</time>
        <extensions>
          <ns3:TrackPointExtension>
            <ns3:hr>154</ns3:hr>
          </ns3:TrackPointExtension>
        </extensions>
      </trkpt>
      <trkpt lat="46.8116214685142040252685546875" lon="6.8735081143677234649658203125">
        <ele>490.600006103515625</ele>
        <time>2017-05-05T15:11:31.000Z</time>
        <extensions>
          <ns3:TrackPointExtension>
            <ns3:hr>154</ns3:hr>
          </ns3:TrackPointExtension>
        </extensions>
      </trkpt>
      <trkpt lat="46.81167595088481903076171875" lon="6.87358112074434757232666015625">
        <ele>490.20001220703125</ele>
        <time>2017-05-05T15:11:32.000Z</time>
        <extensions>
          <ns3:TrackPointExtension>
            <ns3:hr>154</ns3:hr>
          </ns3:TrackPointExtension>
        </extensions>
      </trkpt>
      <trkpt lat="46.81188122369349002838134765625" lon="6.873834840953350067138671875">
        <ele>489.79998779296875</ele>
        <time>2017-05-05T15:11:36.000Z</time>
        <extensions>
          <ns3:TrackPointExtension>
            <ns3:hr>153</ns3:hr>
          </ns3:TrackPointExtension>
        </extensions>
      </trkpt>
      <trkpt lat="46.81223561055958271026611328125" lon="6.87451670877635478973388671875">
        <ele>490.79998779296875</ele>
        <time>2017-05-05T15:11:45.000Z</time>
        <extensions>
          <ns3:TrackPointExtension>
            <ns3:hr>151</ns3:hr>
          </ns3:TrackPointExtension>
        </extensions>
      </trkpt>
      <trkpt lat="46.8124073557555675506591796875" lon="6.87501543201506137847900390625">
        <ele>491.20001220703125</ele>
        <time>2017-05-05T15:11:51.000Z</time>
        <extensions>
          <ns3:TrackPointExtension>
            <ns3:hr>154</ns3:hr>
          </ns3:TrackPointExtension>
        </extensions>
      </trkpt>
      <trkpt lat="46.8124009855091571807861328125" lon="6.87522430904209613800048828125">
        <ele>491.20001220703125</ele>
        <time>2017-05-05T15:11:53.000Z</time>
        <extensions>
          <ns3:TrackPointExtension>
            <ns3:hr>157</ns3:hr>
          </ns3:TrackPointExtension>
        </extensions>
      </trkpt>
      <trkpt lat="46.81240760721266269683837890625" lon="6.87546570785343647003173828125">
        <ele>491.20001220703125</ele>
        <time>2017-05-05T15:11:55.000Z</time>
        <extensions>
          <ns3:TrackPointExtension>
            <ns3:hr>157</ns3:hr>
          </ns3:TrackPointExtension>
        </extensions>
      </trkpt>
      <trkpt lat="46.8124583177268505096435546875" lon="6.87566419132053852081298828125">
        <ele>491.20001220703125</ele>
        <time>2017-05-05T15:11:57.000Z</time>
        <extensions>
          <ns3:TrackPointExtension>
            <ns3:hr>157</ns3:hr>
          </ns3:TrackPointExtension>
        </extensions>
      </trkpt>
      <trkpt lat="46.81247097440063953399658203125" lon="6.87579645775258541107177734375">
        <ele>491</ele>
        <time>2017-05-05T15:12:00.000Z</time>
        <extensions>
          <ns3:TrackPointExtension>
            <ns3:hr>158</ns3:hr>
          </ns3:TrackPointExtension>
        </extensions>
      </trkpt>
      <trkpt lat="46.81244214065372943878173828125" lon="6.87582931481301784515380859375">
        <ele>489.600006103515625</ele>
        <time>2017-05-05T15:12:02.000Z</time>
        <extensions>
          <ns3:TrackPointExtension>
            <ns3:hr>158</ns3:hr>
          </ns3:TrackPointExtension>
        </extensions>
      </trkpt>
      <trkpt lat="46.81243912316858768463134765625" lon="6.875879354774951934814453125">
        <ele>489.399993896484375</ele>
        <time>2017-05-05T15:12:13.000Z</time>
        <extensions>
          <ns3:TrackPointExtension>
            <ns3:hr>156</ns3:hr>
          </ns3:TrackPointExtension>
        </extensions>
      </trkpt>
      <trkpt lat="46.81228816509246826171875" lon="6.87597624957561492919921875">
        <ele>490</ele>
        <time>2017-05-05T15:12:21.000Z</time>
        <extensions>
          <ns3:TrackPointExtension>
            <ns3:hr>156</ns3:hr>
          </ns3:TrackPointExtension>
        </extensions>
      </trkpt>
      <trkpt lat="46.8121773563325405120849609375" lon="6.875787489116191864013671875">
        <ele>490.399993896484375</ele>
        <time>2017-05-05T15:12:26.000Z</time>
        <extensions>
          <ns3:TrackPointExtension>
            <ns3:hr>159</ns3:hr>
          </ns3:TrackPointExtension>
        </extensions>
      </trkpt>
      <trkpt lat="46.8120186030864715576171875" lon="6.87545766122639179229736328125">
        <ele>490.79998779296875</ele>
        <time>2017-05-05T15:12:34.000Z</time>
        <extensions>
          <ns3:TrackPointExtension>
            <ns3:hr>160</ns3:hr>
          </ns3:TrackPointExtension>
        </extensions>
      </trkpt>
      <trkpt lat="46.81191743351519107818603515625" lon="6.87525381334125995635986328125">
        <ele>492</ele>
        <time>2017-05-05T15:12:39.000Z</time>
        <extensions>
          <ns3:TrackPointExtension>
            <ns3:hr>160</ns3:hr>
          </ns3:TrackPointExtension>
        </extensions>
      </trkpt>
      <trkpt lat="46.8118457682430744171142578125" lon="6.8750979937613010406494140625">
        <ele>493</ele>
        <time>2017-05-05T15:12:43.000Z</time>
        <extensions>
          <ns3:TrackPointExtension>
            <ns3:hr>159</ns3:hr>
          </ns3:TrackPointExtension>
        </extensions>
      </trkpt>
      <trkpt lat="46.811754405498504638671875" lon="6.87490998767316341400146484375">
        <ele>494</ele>
        <time>2017-05-05T15:12:48.000Z</time>
        <extensions>
          <ns3:TrackPointExtension>
            <ns3:hr>160</ns3:hr>
          </ns3:TrackPointExtension>
        </extensions>
      </trkpt>
      <trkpt lat="46.811674274504184722900390625" lon="6.87472625635564327239990234375">
        <ele>495.20001220703125</ele>
        <time>2017-05-05T15:12:53.000Z</time>
        <extensions>
          <ns3:TrackPointExtension>
            <ns3:hr>159</ns3:hr>
          </ns3:TrackPointExtension>
        </extensions>
      </trkpt>
      <trkpt lat="46.81159959174692630767822265625" lon="6.87459667213261127471923828125">
        <ele>496.600006103515625</ele>
        <time>2017-05-05T15:12:57.000Z</time>
        <extensions>
          <ns3:TrackPointExtension>
            <ns3:hr>160</ns3:hr>
          </ns3:TrackPointExtension>
        </extensions>
      </trkpt>
      <trkpt lat="46.81151962839066982269287109375" lon="6.87444948591291904449462890625">
        <ele>497.600006103515625</ele>
        <time>2017-05-05T15:13:02.000Z</time>
        <extensions>
          <ns3:TrackPointExtension>
            <ns3:hr>158</ns3:hr>
          </ns3:TrackPointExtension>
        </extensions>
      </trkpt>
      <trkpt lat="46.81148509494960308074951171875" lon="6.87437706626951694488525390625">
        <ele>498.20001220703125</ele>
        <time>2017-05-05T15:13:05.000Z</time>
        <extensions>
          <ns3:TrackPointExtension>
            <ns3:hr>161</ns3:hr>
          </ns3:TrackPointExtension>
        </extensions>
      </trkpt>
      <trkpt lat="46.81145961396396160125732421875" lon="6.87431923113763332366943359375">
        <ele>499</ele>
        <time>2017-05-05T15:13:07.000Z</time>
        <extensions>
          <ns3:TrackPointExtension>
            <ns3:hr>162</ns3:hr>
          </ns3:TrackPointExtension>
        </extensions>
      </trkpt>
      <trkpt lat="46.8113861046731472015380859375" lon="6.87416064552962779998779296875">
        <ele>500</ele>
        <time>2017-05-05T15:13:12.000Z</time>
        <extensions>
          <ns3:TrackPointExtension>
            <ns3:hr>165</ns3:hr>
          </ns3:TrackPointExtension>
        </extensions>
      </trkpt>
      <trkpt lat="46.81137629784643650054931640625" lon="6.87413415871560573577880859375">
        <ele>500.20001220703125</ele>
        <time>2017-05-05T15:13:13.000Z</time>
        <extensions>
          <ns3:TrackPointExtension>
            <ns3:hr>166</ns3:hr>
          </ns3:TrackPointExtension>
        </extensions>
      </trkpt>
      <trkpt lat="46.81132726371288299560546875" lon="6.87400926835834980010986328125">
        <ele>501.399993896484375</ele>
        <time>2017-05-05T15:13:17.000Z</time>
        <extensions>
          <ns3:TrackPointExtension>
            <ns3:hr>166</ns3:hr>
          </ns3:TrackPointExtension>
        </extensions>
      </trkpt>
      <trkpt lat="46.81118921376764774322509765625" lon="6.8739141337573528289794921875">
        <ele>502.79998779296875</ele>
        <time>2017-05-05T15:13:22.000Z</time>
        <extensions>
          <ns3:TrackPointExtension>
            <ns3:hr>163</ns3:hr>
          </ns3:TrackPointExtension>
        </extensions>
      </trkpt>
      <trkpt lat="46.8110717833042144775390625" lon="6.87387918122112751007080078125">
        <ele>503.79998779296875</ele>
        <time>2017-05-05T15:13:26.000Z</time>
        <extensions>
          <ns3:TrackPointExtension>
            <ns3:hr>161</ns3:hr>
          </ns3:TrackPointExtension>
        </extensions>
      </trkpt>
      <trkpt lat="46.8109859526157379150390625" lon="6.87388286925852298736572265625">
        <ele>505.20001220703125</ele>
        <time>2017-05-05T15:13:29.000Z</time>
        <extensions>
          <ns3:TrackPointExtension>
            <ns3:hr>161</ns3:hr>
          </ns3:TrackPointExtension>
        </extensions>
      </trkpt>
      <trkpt lat="46.81084304116666316986083984375" lon="6.87390751205384731292724609375">
        <ele>506.399993896484375</ele>
        <time>2017-05-05T15:13:34.000Z</time>
        <extensions>
          <ns3:TrackPointExtension>
            <ns3:hr>161</ns3:hr>
          </ns3:TrackPointExtension>
        </extensions>
      </trkpt>
      <trkpt lat="46.8107168935239315032958984375" lon="6.87394288368523120880126953125">
        <ele>507.600006103515625</ele>
        <time>2017-05-05T15:13:39.000Z</time>
        <extensions>
          <ns3:TrackPointExtension>
            <ns3:hr>162</ns3:hr>
          </ns3:TrackPointExtension>
        </extensions>
      </trkpt>
      <trkpt lat="46.81063030846416950225830078125" lon="6.8739956058561801910400390625">
        <ele>508.600006103515625</ele>
        <time>2017-05-05T15:13:43.000Z</time>
        <extensions>
          <ns3:TrackPointExtension>
            <ns3:hr>161</ns3:hr>
          </ns3:TrackPointExtension>
        </extensions>
      </trkpt>
      <trkpt lat="46.8104919232428073883056640625" lon="6.874041371047496795654296875">
        <ele>509.79998779296875</ele>
        <time>2017-05-05T15:13:48.000Z</time>
        <extensions>
          <ns3:TrackPointExtension>
            <ns3:hr>160</ns3:hr>
          </ns3:TrackPointExtension>
        </extensions>
      </trkpt>
      <trkpt lat="46.81022311560809612274169921875" lon="6.874172799289226531982421875">
        <ele>510.399993896484375</ele>
        <time>2017-05-05T15:13:55.000Z</time>
        <extensions>
          <ns3:TrackPointExtension>
            <ns3:hr>158</ns3:hr>
          </ns3:TrackPointExtension>
        </extensions>
      </trkpt>
      <trkpt lat="46.81015840731561183929443359375" lon="6.87429140321910381317138671875">
        <ele>510.399993896484375</ele>
        <time>2017-05-05T15:13:57.000Z</time>
        <extensions>
          <ns3:TrackPointExtension>
            <ns3:hr>158</ns3:hr>
          </ns3:TrackPointExtension>
        </extensions>
      </trkpt>
      <trkpt lat="46.81002010591328144073486328125" lon="6.8747757934033870697021484375">
        <ele>510.79998779296875</ele>
        <time>2017-05-05T15:14:05.000Z</time>
        <extensions>
          <ns3:TrackPointExtension>
            <ns3:hr>160</ns3:hr>
          </ns3:TrackPointExtension>
        </extensions>
      </trkpt>
      <trkpt lat="46.80997886694967746734619140625" lon="6.874938905239105224609375">
        <ele>511.20001220703125</ele>
        <time>2017-05-05T15:14:08.000Z</time>
        <extensions>
          <ns3:TrackPointExtension>
            <ns3:hr>163</ns3:hr>
          </ns3:TrackPointExtension>
        </extensions>
      </trkpt>
      <trkpt lat="46.8099521286785602569580078125" lon="6.8750436790287494659423828125">
        <ele>512</ele>
        <time>2017-05-05T15:14:10.000Z</time>
        <extensions>
          <ns3:TrackPointExtension>
            <ns3:hr>163</ns3:hr>
          </ns3:TrackPointExtension>
        </extensions>
      </trkpt>
      <trkpt lat="46.8099330179393291473388671875" lon="6.87520771287381649017333984375">
        <ele>513.20001220703125</ele>
        <time>2017-05-05T15:14:13.000Z</time>
        <extensions>
          <ns3:TrackPointExtension>
            <ns3:hr>164</ns3:hr>
          </ns3:TrackPointExtension>
        </extensions>
      </trkpt>
      <trkpt lat="46.8100154958665370941162109375" lon="6.8754151649773120880126953125">
        <ele>514.20001220703125</ele>
        <time>2017-05-05T15:14:18.000Z</time>
        <extensions>
          <ns3:TrackPointExtension>
            <ns3:hr>161</ns3:hr>
          </ns3:TrackPointExtension>
        </extensions>
      </trkpt>
      <trkpt lat="46.81004625745117664337158203125" lon="6.87543402425944805145263671875">
        <ele>514.4000244140625</ele>
        <time>2017-05-05T15:14:19.000Z</time>
        <extensions>
          <ns3:TrackPointExtension>
            <ns3:hr>161</ns3:hr>
          </ns3:TrackPointExtension>
        </extensions>
      </trkpt>
      <trkpt lat="46.810265444219112396240234375" lon="6.87551113776862621307373046875">
        <ele>515.5999755859375</ele>
        <time>2017-05-05T15:14:25.000Z</time>
        <extensions>
          <ns3:TrackPointExtension>
            <ns3:hr>161</ns3:hr>
          </ns3:TrackPointExtension>
        </extensions>
      </trkpt>
      <trkpt lat="46.810386814177036285400390625" lon="6.8757192604243755340576171875">
        <ele>516.5999755859375</ele>
        <time>2017-05-05T15:14:30.000Z</time>
        <extensions>
          <ns3:TrackPointExtension>
            <ns3:hr>162</ns3:hr>
          </ns3:TrackPointExtension>
        </extensions>
      </trkpt>
      <trkpt lat="46.81032353080809116363525390625" lon="6.87616375274956226348876953125">
        <ele>517.20001220703125</ele>
        <time>2017-05-05T15:14:36.000Z</time>
        <extensions>
          <ns3:TrackPointExtension>
            <ns3:hr>159</ns3:hr>
          </ns3:TrackPointExtension>
        </extensions>
      </trkpt>
      <trkpt lat="46.81014440953731536865234375" lon="6.87690588645637035369873046875">
        <ele>517</ele>
        <time>2017-05-05T15:14:45.000Z</time>
        <extensions>
          <ns3:TrackPointExtension>
            <ns3:hr>158</ns3:hr>
          </ns3:TrackPointExtension>
        </extensions>
      </trkpt>
      <trkpt lat="46.810035444796085357666015625" lon="6.877421624958515167236328125">
        <ele>516.5999755859375</ele>
        <time>2017-05-05T15:14:51.000Z</time>
        <extensions>
          <ns3:TrackPointExtension>
            <ns3:hr>161</ns3:hr>
          </ns3:TrackPointExtension>
        </extensions>
      </trkpt>
      <trkpt lat="46.80994064547121524810791015625" lon="6.877910457551479339599609375">
        <ele>515.5999755859375</ele>
        <time>2017-05-05T15:14:57.000Z</time>
        <extensions>
          <ns3:TrackPointExtension>
            <ns3:hr>159</ns3:hr>
          </ns3:TrackPointExtension>
        </extensions>
      </trkpt>
      <trkpt lat="46.8098267354071140289306640625" lon="6.8782267905771732330322265625">
        <ele>515.4000244140625</ele>
        <time>2017-05-05T15:15:02.000Z</time>
        <extensions>
          <ns3:TrackPointExtension>
            <ns3:hr>156</ns3:hr>
          </ns3:TrackPointExtension>
        </extensions>
      </trkpt>
      <trkpt lat="46.80973109789192676544189453125" lon="6.87846173532307147979736328125">
        <ele>515.4000244140625</ele>
        <time>2017-05-05T15:15:06.000Z</time>
        <extensions>
          <ns3:TrackPointExtension>
            <ns3:hr>154</ns3:hr>
          </ns3:TrackPointExtension>
        </extensions>
      </trkpt>
      <trkpt lat="46.80958441458642482757568359375" lon="6.87880639918148517608642578125">
        <ele>516.5999755859375</ele>
        <time>2017-05-05T15:15:12.000Z</time>
        <extensions>
          <ns3:TrackPointExtension>
            <ns3:hr>151</ns3:hr>
          </ns3:TrackPointExtension>
        </extensions>
      </trkpt>
      <trkpt lat="46.80948802269995212554931640625" lon="6.8790301121771335601806640625">
        <ele>517.79998779296875</ele>
        <time>2017-05-05T15:15:16.000Z</time>
        <extensions>
          <ns3:TrackPointExtension>
            <ns3:hr>151</ns3:hr>
          </ns3:TrackPointExtension>
        </extensions>
      </trkpt>
      <trkpt lat="46.8092299439013004302978515625" lon="6.87964106909930706024169921875">
        <ele>518.4000244140625</ele>
        <time>2017-05-05T15:15:25.000Z</time>
        <extensions>
          <ns3:TrackPointExtension>
            <ns3:hr>153</ns3:hr>
          </ns3:TrackPointExtension>
        </extensions>
      </trkpt>
      <trkpt lat="46.80912609212100505828857421875" lon="6.8797362037003040313720703125">
        <ele>518.20001220703125</ele>
        <time>2017-05-05T15:15:27.000Z</time>
        <extensions>
          <ns3:TrackPointExtension>
            <ns3:hr>153</ns3:hr>
          </ns3:TrackPointExtension>
        </extensions>
      </trkpt>
      <trkpt lat="46.80898368358612060546875" lon="6.879722960293292999267578125">
        <ele>518</ele>
        <time>2017-05-05T15:15:29.000Z</time>
        <extensions>
          <ns3:TrackPointExtension>
            <ns3:hr>152</ns3:hr>
          </ns3:TrackPointExtension>
        </extensions>
      </trkpt>
      <trkpt lat="46.80837959982454776763916015625" lon="6.87949396669864654541015625">
        <ele>516.5999755859375</ele>
        <time>2017-05-05T15:15:36.000Z</time>
        <extensions>
          <ns3:TrackPointExtension>
            <ns3:hr>154</ns3:hr>
          </ns3:TrackPointExtension>
        </extensions>
      </trkpt>
      <trkpt lat="46.80820257402956485748291015625" lon="6.87943353317677974700927734375">
        <ele>514.5999755859375</ele>
        <time>2017-05-05T15:15:38.000Z</time>
        <extensions>
          <ns3:TrackPointExtension>
            <ns3:hr>156</ns3:hr>
          </ns3:TrackPointExtension>
        </extensions>
      </trkpt>
      <trkpt lat="46.80811238475143909454345703125" lon="6.87940855510532855987548828125">
        <ele>513.5999755859375</ele>
        <time>2017-05-05T15:15:39.000Z</time>
        <extensions>
          <ns3:TrackPointExtension>
            <ns3:hr>157</ns3:hr>
          </ns3:TrackPointExtension>
        </extensions>
      </trkpt>
      <trkpt lat="46.80794139392673969268798828125" lon="6.87935608439147472381591796875">
        <ele>512</ele>
        <time>2017-05-05T15:15:41.000Z</time>
        <extensions>
          <ns3:TrackPointExtension>
            <ns3:hr>158</ns3:hr>
          </ns3:TrackPointExtension>
        </extensions>
      </trkpt>
      <trkpt lat="46.80754174478352069854736328125" lon="6.879212670028209686279296875">
        <ele>511</ele>
        <time>2017-05-05T15:15:46.000Z</time>
        <extensions>
          <ns3:TrackPointExtension>
            <ns3:hr>158</ns3:hr>
          </ns3:TrackPointExtension>
        </extensions>
      </trkpt>
      <trkpt lat="46.80710538290441036224365234375" lon="6.87905467115342617034912109375">
        <ele>511</ele>
        <time>2017-05-05T15:15:52.000Z</time>
        <extensions>
          <ns3:TrackPointExtension>
            <ns3:hr>155</ns3:hr>
          </ns3:TrackPointExtension>
        </extensions>
      </trkpt>
      <trkpt lat="46.8065266124904155731201171875" lon="6.8788624741137027740478515625">
        <ele>511.600006103515625</ele>
        <time>2017-05-05T15:16:01.000Z</time>
        <extensions>
          <ns3:TrackPointExtension>
            <ns3:hr>154</ns3:hr>
          </ns3:TrackPointExtension>
        </extensions>
      </trkpt>
      <trkpt lat="46.80641077458858489990234375" lon="6.87882584519684314727783203125">
        <ele>512</ele>
        <time>2017-05-05T15:16:03.000Z</time>
        <extensions>
          <ns3:TrackPointExtension>
            <ns3:hr>153</ns3:hr>
          </ns3:TrackPointExtension>
        </extensions>
      </trkpt>
      <trkpt lat="46.80607541464269161224365234375" lon="6.8787079118192195892333984375">
        <ele>513.20001220703125</ele>
        <time>2017-05-05T15:16:11.000Z</time>
        <extensions>
          <ns3:TrackPointExtension>
            <ns3:hr>155</ns3:hr>
          </ns3:TrackPointExtension>
        </extensions>
      </trkpt>
      <trkpt lat="46.80601757951080799102783203125" lon="6.87867991626262664794921875">
        <ele>514.20001220703125</ele>
        <time>2017-05-05T15:16:13.000Z</time>
        <extensions>
          <ns3:TrackPointExtension>
            <ns3:hr>157</ns3:hr>
          </ns3:TrackPointExtension>
        </extensions>
      </trkpt>
      <trkpt lat="46.80590249598026275634765625" lon="6.87862216494977474212646484375">
        <ele>516</ele>
        <time>2017-05-05T15:16:17.000Z</time>
        <extensions>
          <ns3:TrackPointExtension>
            <ns3:hr>158</ns3:hr>
          </ns3:TrackPointExtension>
        </extensions>
      </trkpt>
      <trkpt lat="46.80581440217792987823486328125" lon="6.87857958488166332244873046875">
        <ele>517</ele>
        <time>2017-05-05T15:16:20.000Z</time>
        <extensions>
          <ns3:TrackPointExtension>
            <ns3:hr>158</ns3:hr>
          </ns3:TrackPointExtension>
        </extensions>
      </trkpt>
      <trkpt lat="46.8057544715702533721923828125" lon="6.87855158932507038116455078125">
        <ele>518.20001220703125</ele>
        <time>2017-05-05T15:16:22.000Z</time>
        <extensions>
          <ns3:TrackPointExtension>
            <ns3:hr>159</ns3:hr>
          </ns3:TrackPointExtension>
        </extensions>
      </trkpt>
      <trkpt lat="46.80561290122568607330322265625" lon="6.8784775771200656890869140625">
        <ele>519.4000244140625</ele>
        <time>2017-05-05T15:16:27.000Z</time>
        <extensions>
          <ns3:TrackPointExtension>
            <ns3:hr>159</ns3:hr>
          </ns3:TrackPointExtension>
        </extensions>
      </trkpt>
      <trkpt lat="46.8054902739822864532470703125" lon="6.87843055464327335357666015625">
        <ele>520.5999755859375</ele>
        <time>2017-05-05T15:16:31.000Z</time>
        <extensions>
          <ns3:TrackPointExtension>
            <ns3:hr>162</ns3:hr>
          </ns3:TrackPointExtension>
        </extensions>
      </trkpt>
      <trkpt lat="46.80537435226142406463623046875" lon="6.87835662625730037689208984375">
        <ele>521.79998779296875</ele>
        <time>2017-05-05T15:16:35.000Z</time>
        <extensions>
          <ns3:TrackPointExtension>
            <ns3:hr>162</ns3:hr>
          </ns3:TrackPointExtension>
        </extensions>
      </trkpt>
      <trkpt lat="46.80526010692119598388671875" lon="6.87829728238284587860107421875">
        <ele>522.79998779296875</ele>
        <time>2017-05-05T15:16:39.000Z</time>
        <extensions>
          <ns3:TrackPointExtension>
            <ns3:hr>161</ns3:hr>
          </ns3:TrackPointExtension>
        </extensions>
      </trkpt>
      <trkpt lat="46.80515072308480739593505859375" lon="6.87823944725096225738525390625">
        <ele>524</ele>
        <time>2017-05-05T15:16:43.000Z</time>
        <extensions>
          <ns3:TrackPointExtension>
            <ns3:hr>160</ns3:hr>
          </ns3:TrackPointExtension>
        </extensions>
      </trkpt>
      <trkpt lat="46.8050061352550983428955078125" lon="6.8781550414860248565673828125">
        <ele>525.20001220703125</ele>
        <time>2017-05-05T15:16:49.000Z</time>
        <extensions>
          <ns3:TrackPointExtension>
            <ns3:hr>159</ns3:hr>
          </ns3:TrackPointExtension>
        </extensions>
      </trkpt>
      <trkpt lat="46.80491435341536998748779296875" lon="6.87810533680021762847900390625">
        <ele>526.4000244140625</ele>
        <time>2017-05-05T15:16:53.000Z</time>
        <extensions>
          <ns3:TrackPointExtension>
            <ns3:hr>159</ns3:hr>
          </ns3:TrackPointExtension>
        </extensions>
      </trkpt>
      <trkpt lat="46.80480069480836391448974609375" lon="6.87803140841424465179443359375">
        <ele>527.5999755859375</ele>
        <time>2017-05-05T15:16:58.000Z</time>
        <extensions>
          <ns3:TrackPointExtension>
            <ns3:hr>158</ns3:hr>
          </ns3:TrackPointExtension>
        </extensions>
      </trkpt>
      <trkpt lat="46.80468770675361156463623046875" lon="6.87794926576316356658935546875">
        <ele>528.79998779296875</ele>
        <time>2017-05-05T15:17:03.000Z</time>
        <extensions>
          <ns3:TrackPointExtension>
            <ns3:hr>158</ns3:hr>
          </ns3:TrackPointExtension>
        </extensions>
      </trkpt>
      <trkpt lat="46.8045164644718170166015625" lon="6.87787659466266632080078125">
        <ele>530</ele>
        <time>2017-05-05T15:17:10.000Z</time>
        <extensions>
          <ns3:TrackPointExtension>
            <ns3:hr>157</ns3:hr>
          </ns3:TrackPointExtension>
        </extensions>
      </trkpt>
      <trkpt lat="46.80440758354961872100830078125" lon="6.87779353000223636627197265625">
        <ele>531</ele>
        <time>2017-05-05T15:17:15.000Z</time>
        <extensions>
          <ns3:TrackPointExtension>
            <ns3:hr>157</ns3:hr>
          </ns3:TrackPointExtension>
        </extensions>
      </trkpt>
      <trkpt lat="46.80429174564778804779052734375" lon="6.8777399696409702301025390625">
        <ele>532.20001220703125</ele>
        <time>2017-05-05T15:17:20.000Z</time>
        <extensions>
          <ns3:TrackPointExtension>
            <ns3:hr>159</ns3:hr>
          </ns3:TrackPointExtension>
        </extensions>
      </trkpt>
      <trkpt lat="46.8042105250060558319091796875" lon="6.8776846490800380706787109375">
        <ele>533.20001220703125</ele>
        <time>2017-05-05T15:17:24.000Z</time>
        <extensions>
          <ns3:TrackPointExtension>
            <ns3:hr>162</ns3:hr>
          </ns3:TrackPointExtension>
        </extensions>
      </trkpt>
      <trkpt lat="46.8041407875716686248779296875" lon="6.87766562215983867645263671875">
        <ele>533.79998779296875</ele>
        <time>2017-05-05T15:17:27.000Z</time>
        <extensions>
          <ns3:TrackPointExtension>
            <ns3:hr>165</ns3:hr>
          </ns3:TrackPointExtension>
        </extensions>
      </trkpt>
      <trkpt lat="46.80409242399036884307861328125" lon="6.87764315865933895111083984375">
        <ele>534.4000244140625</ele>
        <time>2017-05-05T15:17:29.000Z</time>
        <extensions>
          <ns3:TrackPointExtension>
            <ns3:hr>164</ns3:hr>
          </ns3:TrackPointExtension>
        </extensions>
      </trkpt>
      <trkpt lat="46.80399586446583271026611328125" lon="6.87758901156485080718994140625">
        <ele>535.5999755859375</ele>
        <time>2017-05-05T15:17:33.000Z</time>
        <extensions>
          <ns3:TrackPointExtension>
            <ns3:hr>163</ns3:hr>
          </ns3:TrackPointExtension>
        </extensions>
      </trkpt>
      <trkpt lat="46.803883798420429229736328125" lon="6.8775165081024169921875">
        <ele>536.5999755859375</ele>
        <time>2017-05-05T15:17:38.000Z</time>
        <extensions>
          <ns3:TrackPointExtension>
            <ns3:hr>164</ns3:hr>
          </ns3:TrackPointExtension>
        </extensions>
      </trkpt>
      <trkpt lat="46.80381079204380512237548828125" lon="6.87748457305133342742919921875">
        <ele>537.79998779296875</ele>
        <time>2017-05-05T15:17:41.000Z</time>
        <extensions>
          <ns3:TrackPointExtension>
            <ns3:hr>163</ns3:hr>
          </ns3:TrackPointExtension>
        </extensions>
      </trkpt>
      <trkpt lat="46.8037159927189350128173828125" lon="6.87742673791944980621337890625">
        <ele>538.79998779296875</ele>
        <time>2017-05-05T15:17:45.000Z</time>
        <extensions>
          <ns3:TrackPointExtension>
            <ns3:hr>163</ns3:hr>
          </ns3:TrackPointExtension>
        </extensions>
      </trkpt>
      <trkpt lat="46.80360023863613605499267578125" lon="6.87735599465668201446533203125">
        <ele>540</ele>
        <time>2017-05-05T15:17:50.000Z</time>
        <extensions>
          <ns3:TrackPointExtension>
            <ns3:hr>163</ns3:hr>
          </ns3:TrackPointExtension>
        </extensions>
      </trkpt>
      <trkpt lat="46.803428493440151214599609375" lon="6.87726614065468311309814453125">
        <ele>541</ele>
        <time>2017-05-05T15:17:57.000Z</time>
        <extensions>
          <ns3:TrackPointExtension>
            <ns3:hr>162</ns3:hr>
          </ns3:TrackPointExtension>
        </extensions>
      </trkpt>
      <trkpt lat="46.80328608490526676177978515625" lon="6.8771978281438350677490234375">
        <ele>542.20001220703125</ele>
        <time>2017-05-05T15:18:03.000Z</time>
        <extensions>
          <ns3:TrackPointExtension>
            <ns3:hr>163</ns3:hr>
          </ns3:TrackPointExtension>
        </extensions>
      </trkpt>
      <trkpt lat="46.803087852895259857177734375" lon="6.87713563442230224609375">
        <ele>543.4000244140625</ele>
        <time>2017-05-05T15:18:11.000Z</time>
        <extensions>
          <ns3:TrackPointExtension>
            <ns3:hr>162</ns3:hr>
          </ns3:TrackPointExtension>
        </extensions>
      </trkpt>
      <trkpt lat="46.80294762365520000457763671875" lon="6.87714627943933010101318359375">
        <ele>544.4000244140625</ele>
        <time>2017-05-05T15:18:16.000Z</time>
        <extensions>
          <ns3:TrackPointExtension>
            <ns3:hr>161</ns3:hr>
          </ns3:TrackPointExtension>
        </extensions>
      </trkpt>
      <trkpt lat="46.80276037193834781646728515625" lon="6.87719305045902729034423828125">
        <ele>545.5999755859375</ele>
        <time>2017-05-05T15:18:22.000Z</time>
        <extensions>
          <ns3:TrackPointExtension>
            <ns3:hr>158</ns3:hr>
          </ns3:TrackPointExtension>
        </extensions>
      </trkpt>
      <trkpt lat="46.8025861121714115142822265625" lon="6.87726831994950771331787109375">
        <ele>546.4000244140625</ele>
        <time>2017-05-05T15:18:28.000Z</time>
        <extensions>
          <ns3:TrackPointExtension>
            <ns3:hr>155</ns3:hr>
          </ns3:TrackPointExtension>
        </extensions>
      </trkpt>
      <trkpt lat="46.8025328032672405242919921875" lon="6.87728692777454853057861328125">
        <ele>546.79998779296875</ele>
        <time>2017-05-05T15:18:30.000Z</time>
        <extensions>
          <ns3:TrackPointExtension>
            <ns3:hr>155</ns3:hr>
          </ns3:TrackPointExtension>
        </extensions>
      </trkpt>
      <trkpt lat="46.8024137802422046661376953125" lon="6.87732699327170848846435546875">
        <ele>548</ele>
        <time>2017-05-05T15:18:35.000Z</time>
        <extensions>
          <ns3:TrackPointExtension>
            <ns3:hr>157</ns3:hr>
          </ns3:TrackPointExtension>
        </extensions>
      </trkpt>
      <trkpt lat="46.80232174694538116455078125" lon="6.8773684836924076080322265625">
        <ele>548.79998779296875</ele>
        <time>2017-05-05T15:18:39.000Z</time>
        <extensions>
          <ns3:TrackPointExtension>
            <ns3:hr>154</ns3:hr>
          </ns3:TrackPointExtension>
        </extensions>
      </trkpt>
      <trkpt lat="46.80227874778211116790771484375" lon="6.8773842416703701019287109375">
        <ele>549</ele>
        <time>2017-05-05T15:18:41.000Z</time>
        <extensions>
          <ns3:TrackPointExtension>
            <ns3:hr>151</ns3:hr>
          </ns3:TrackPointExtension>
        </extensions>
      </trkpt>
      <trkpt lat="46.80225871503353118896484375" lon="6.877395473420619964599609375">
        <ele>549</ele>
        <time>2017-05-05T15:18:42.000Z</time>
        <extensions>
          <ns3:TrackPointExtension>
            <ns3:hr>148</ns3:hr>
          </ns3:TrackPointExtension>
        </extensions>
      </trkpt>
      <trkpt lat="46.8022163026034832000732421875" lon="6.87742355279624462127685546875">
        <ele>549.5999755859375</ele>
        <time>2017-05-05T15:18:44.000Z</time>
        <extensions>
          <ns3:TrackPointExtension>
            <ns3:hr>145</ns3:hr>
          </ns3:TrackPointExtension>
        </extensions>
      </trkpt>
      <trkpt lat="46.80214463733136653900146484375" lon="6.877445764839649200439453125">
        <ele>550.5999755859375</ele>
        <time>2017-05-05T15:18:47.000Z</time>
        <extensions>
          <ns3:TrackPointExtension>
            <ns3:hr>143</ns3:hr>
          </ns3:TrackPointExtension>
        </extensions>
      </trkpt>
      <trkpt lat="46.80205352604389190673828125" lon="6.87746353447437286376953125">
        <ele>551.79998779296875</ele>
        <time>2017-05-05T15:18:51.000Z</time>
        <extensions>
          <ns3:TrackPointExtension>
            <ns3:hr>142</ns3:hr>
          </ns3:TrackPointExtension>
        </extensions>
      </trkpt>
      <trkpt lat="46.80188831873238086700439453125" lon="6.8775334395468235015869140625">
        <ele>553</ele>
        <time>2017-05-05T15:18:58.000Z</time>
        <extensions>
          <ns3:TrackPointExtension>
            <ns3:hr>144</ns3:hr>
          </ns3:TrackPointExtension>
        </extensions>
      </trkpt>
      <trkpt lat="46.80175236426293849945068359375" lon="6.8775941245257854461669921875">
        <ele>554</ele>
        <time>2017-05-05T15:19:04.000Z</time>
        <extensions>
          <ns3:TrackPointExtension>
            <ns3:hr>145</ns3:hr>
          </ns3:TrackPointExtension>
        </extensions>
      </trkpt>
      <trkpt lat="46.8016376160085201263427734375" lon="6.87763812951743602752685546875">
        <ele>555</ele>
        <time>2017-05-05T15:19:09.000Z</time>
        <extensions>
          <ns3:TrackPointExtension>
            <ns3:hr>146</ns3:hr>
          </ns3:TrackPointExtension>
        </extensions>
      </trkpt>
      <trkpt lat="46.801565028727054595947265625" lon="6.8776546418666839599609375">
        <ele>556.20001220703125</ele>
        <time>2017-05-05T15:19:12.000Z</time>
        <extensions>
          <ns3:TrackPointExtension>
            <ns3:hr>146</ns3:hr>
          </ns3:TrackPointExtension>
        </extensions>
      </trkpt>
      <trkpt lat="46.801470480859279632568359375" lon="6.8776772730052471160888671875">
        <ele>557.20001220703125</ele>
        <time>2017-05-05T15:19:16.000Z</time>
        <extensions>
          <ns3:TrackPointExtension>
            <ns3:hr>147</ns3:hr>
          </ns3:TrackPointExtension>
        </extensions>
      </trkpt>
      <trkpt lat="46.801355816423892974853515625" lon="6.8777163326740264892578125">
        <ele>558.4000244140625</ele>
        <time>2017-05-05T15:19:21.000Z</time>
        <extensions>
          <ns3:TrackPointExtension>
            <ns3:hr>149</ns3:hr>
          </ns3:TrackPointExtension>
        </extensions>
      </trkpt>
      <trkpt lat="46.801243834197521209716796875" lon="6.87775530852377414703369140625">
        <ele>559.5999755859375</ele>
        <time>2017-05-05T15:19:26.000Z</time>
        <extensions>
          <ns3:TrackPointExtension>
            <ns3:hr>150</ns3:hr>
          </ns3:TrackPointExtension>
        </extensions>
      </trkpt>
      <trkpt lat="46.80114652030169963836669921875" lon="6.8777969665825366973876953125">
        <ele>560.79998779296875</ele>
        <time>2017-05-05T15:19:30.000Z</time>
        <extensions>
          <ns3:TrackPointExtension>
            <ns3:hr>151</ns3:hr>
          </ns3:TrackPointExtension>
        </extensions>
      </trkpt>
      <trkpt lat="46.80101341567933559417724609375" lon="6.8778496049344539642333984375">
        <ele>561.79998779296875</ele>
        <time>2017-05-05T15:19:35.000Z</time>
        <extensions>
          <ns3:TrackPointExtension>
            <ns3:hr>153</ns3:hr>
          </ns3:TrackPointExtension>
        </extensions>
      </trkpt>
      <trkpt lat="46.80078542791306972503662109375" lon="6.87795999459922313690185546875">
        <ele>563</ele>
        <time>2017-05-05T15:19:42.000Z</time>
        <extensions>
          <ns3:TrackPointExtension>
            <ns3:hr>155</ns3:hr>
          </ns3:TrackPointExtension>
        </extensions>
      </trkpt>
      <trkpt lat="46.8005590327084064483642578125" lon="6.8783028982579708099365234375">
        <ele>563.4000244140625</ele>
        <time>2017-05-05T15:19:50.000Z</time>
        <extensions>
          <ns3:TrackPointExtension>
            <ns3:hr>152</ns3:hr>
          </ns3:TrackPointExtension>
        </extensions>
      </trkpt>
      <trkpt lat="46.80024764500558376312255859375" lon="6.87892802059650421142578125">
        <ele>563.79998779296875</ele>
        <time>2017-05-05T15:20:04.000Z</time>
        <extensions>
          <ns3:TrackPointExtension>
            <ns3:hr>151</ns3:hr>
          </ns3:TrackPointExtension>
        </extensions>
      </trkpt>
      <trkpt lat="46.8001203238964080810546875" lon="6.87915709801018238067626953125">
        <ele>563.79998779296875</ele>
        <time>2017-05-05T15:20:11.000Z</time>
        <extensions>
          <ns3:TrackPointExtension>
            <ns3:hr>154</ns3:hr>
          </ns3:TrackPointExtension>
        </extensions>
      </trkpt>
      <trkpt lat="46.800023429095745086669921875" lon="6.87932725064456462860107421875">
        <ele>564</ele>
        <time>2017-05-05T15:20:16.000Z</time>
        <extensions>
          <ns3:TrackPointExtension>
            <ns3:hr>154</ns3:hr>
          </ns3:TrackPointExtension>
        </extensions>
      </trkpt>
      <trkpt lat="46.7999253608286380767822265625" lon="6.8795058690011501312255859375">
        <ele>565.20001220703125</ele>
        <time>2017-05-05T15:20:21.000Z</time>
        <extensions>
          <ns3:TrackPointExtension>
            <ns3:hr>152</ns3:hr>
          </ns3:TrackPointExtension>
        </extensions>
      </trkpt>
      <trkpt lat="46.7998207546770572662353515625" lon="6.8797157518565654754638671875">
        <ele>566.4000244140625</ele>
        <time>2017-05-05T15:20:26.000Z</time>
        <extensions>
          <ns3:TrackPointExtension>
            <ns3:hr>153</ns3:hr>
          </ns3:TrackPointExtension>
        </extensions>
      </trkpt>
      <trkpt lat="46.799712292850017547607421875" lon="6.87988950870931148529052734375">
        <ele>567.4000244140625</ele>
        <time>2017-05-05T15:20:31.000Z</time>
        <extensions>
          <ns3:TrackPointExtension>
            <ns3:hr>152</ns3:hr>
          </ns3:TrackPointExtension>
        </extensions>
      </trkpt>
      <trkpt lat="46.7995213530957698822021484375" lon="6.8801552988588809967041015625">
        <ele>567.5999755859375</ele>
        <time>2017-05-05T15:20:38.000Z</time>
        <extensions>
          <ns3:TrackPointExtension>
            <ns3:hr>149</ns3:hr>
          </ns3:TrackPointExtension>
        </extensions>
      </trkpt>
      <trkpt lat="46.79923578165471553802490234375" lon="6.88037649728357791900634765625">
        <ele>567</ele>
        <time>2017-05-05T15:20:45.000Z</time>
        <extensions>
          <ns3:TrackPointExtension>
            <ns3:hr>149</ns3:hr>
          </ns3:TrackPointExtension>
        </extensions>
      </trkpt>
      <trkpt lat="46.7988410778343677520751953125" lon="6.88096155412495136260986328125">
        <ele>566.4000244140625</ele>
        <time>2017-05-05T15:20:52.000Z</time>
        <extensions>
          <ns3:TrackPointExtension>
            <ns3:hr>152</ns3:hr>
          </ns3:TrackPointExtension>
        </extensions>
      </trkpt>
      <trkpt lat="46.79878667928278446197509765625" lon="6.88105660490691661834716796875">
        <ele>565.5999755859375</ele>
        <time>2017-05-05T15:20:53.000Z</time>
        <extensions>
          <ns3:TrackPointExtension>
            <ns3:hr>152</ns3:hr>
          </ns3:TrackPointExtension>
        </extensions>
      </trkpt>
      <trkpt lat="46.79868492297828197479248046875" lon="6.8812664039433002471923828125">
        <ele>563.79998779296875</ele>
        <time>2017-05-05T15:20:55.000Z</time>
        <extensions>
          <ns3:TrackPointExtension>
            <ns3:hr>152</ns3:hr>
          </ns3:TrackPointExtension>
        </extensions>
      </trkpt>
      <trkpt lat="46.7986375652253627777099609375" lon="6.8813542462885379791259765625">
        <ele>562.5999755859375</ele>
        <time>2017-05-05T15:20:56.000Z</time>
        <extensions>
          <ns3:TrackPointExtension>
            <ns3:hr>151</ns3:hr>
          </ns3:TrackPointExtension>
        </extensions>
      </trkpt>
      <trkpt lat="46.79858853109180927276611328125" lon="6.8814327009022235870361328125">
        <ele>561.20001220703125</ele>
        <time>2017-05-05T15:20:57.000Z</time>
        <extensions>
          <ns3:TrackPointExtension>
            <ns3:hr>151</ns3:hr>
          </ns3:TrackPointExtension>
        </extensions>
      </trkpt>
      <trkpt lat="46.79852985776960849761962890625" lon="6.88154493458569049835205078125">
        <ele>560</ele>
        <time>2017-05-05T15:20:58.000Z</time>
        <extensions>
          <ns3:TrackPointExtension>
            <ns3:hr>150</ns3:hr>
          </ns3:TrackPointExtension>
        </extensions>
      </trkpt>
      <trkpt lat="46.79847084917128086090087890625" lon="6.88166429288685321807861328125">
        <ele>559.4000244140625</ele>
        <time>2017-05-05T15:20:59.000Z</time>
        <extensions>
          <ns3:TrackPointExtension>
            <ns3:hr>150</ns3:hr>
          </ns3:TrackPointExtension>
        </extensions>
      </trkpt>
      <trkpt lat="46.798429526388645172119140625" lon="6.881773509085178375244140625">
        <ele>558.79998779296875</ele>
        <time>2017-05-05T15:21:00.000Z</time>
        <extensions>
          <ns3:TrackPointExtension>
            <ns3:hr>150</ns3:hr>
          </ns3:TrackPointExtension>
        </extensions>
      </trkpt>
      <trkpt lat="46.79841016419231891632080078125" lon="6.88189127482473850250244140625">
        <ele>558.4000244140625</ele>
        <time>2017-05-05T15:21:01.000Z</time>
        <extensions>
          <ns3:TrackPointExtension>
            <ns3:hr>150</ns3:hr>
          </ns3:TrackPointExtension>
        </extensions>
      </trkpt>
      <trkpt lat="46.79843530990183353424072265625" lon="6.8821203522384166717529296875">
        <ele>557.79998779296875</ele>
        <time>2017-05-05T15:21:03.000Z</time>
        <extensions>
          <ns3:TrackPointExtension>
            <ns3:hr>149</ns3:hr>
          </ns3:TrackPointExtension>
        </extensions>
      </trkpt>
      <trkpt lat="46.79845400154590606689453125" lon="6.88222269527614116668701171875">
        <ele>557.5999755859375</ele>
        <time>2017-05-05T15:21:04.000Z</time>
        <extensions>
          <ns3:TrackPointExtension>
            <ns3:hr>149</ns3:hr>
          </ns3:TrackPointExtension>
        </extensions>
      </trkpt>
      <trkpt lat="46.79854494519531726837158203125" lon="6.8828220851719379425048828125">
        <ele>556.20001220703125</ele>
        <time>2017-05-05T15:21:10.000Z</time>
        <extensions>
          <ns3:TrackPointExtension>
            <ns3:hr>150</ns3:hr>
          </ns3:TrackPointExtension>
        </extensions>
      </trkpt>
      <trkpt lat="46.79856489412486553192138671875" lon="6.88290783204138278961181640625">
        <ele>555.79998779296875</ele>
        <time>2017-05-05T15:21:11.000Z</time>
        <extensions>
          <ns3:TrackPointExtension>
            <ns3:hr>150</ns3:hr>
          </ns3:TrackPointExtension>
        </extensions>
      </trkpt>
      <trkpt lat="46.798625998198986053466796875" lon="6.883256435394287109375">
        <ele>555</ele>
        <time>2017-05-05T15:21:15.000Z</time>
        <extensions>
          <ns3:TrackPointExtension>
            <ns3:hr>153</ns3:hr>
          </ns3:TrackPointExtension>
        </extensions>
      </trkpt>
      <trkpt lat="46.79861719720065593719482421875" lon="6.8838500417768955230712890625">
        <ele>554</ele>
        <time>2017-05-05T15:21:20.000Z</time>
        <extensions>
          <ns3:TrackPointExtension>
            <ns3:hr>156</ns3:hr>
          </ns3:TrackPointExtension>
        </extensions>
      </trkpt>
      <trkpt lat="46.7986308597028255462646484375" lon="6.88417375087738037109375">
        <ele>554</ele>
        <time>2017-05-05T15:21:22.000Z</time>
        <extensions>
          <ns3:TrackPointExtension>
            <ns3:hr>157</ns3:hr>
          </ns3:TrackPointExtension>
        </extensions>
      </trkpt>
      <trkpt lat="46.79867838509380817413330078125" lon="6.88449787907302379608154296875">
        <ele>552.4000244140625</ele>
        <time>2017-05-05T15:21:24.000Z</time>
        <extensions>
          <ns3:TrackPointExtension>
            <ns3:hr>157</ns3:hr>
          </ns3:TrackPointExtension>
        </extensions>
      </trkpt>
      <trkpt lat="46.798731945455074310302734375" lon="6.88478219322860240936279296875">
        <ele>550.5999755859375</ele>
        <time>2017-05-05T15:21:26.000Z</time>
        <extensions>
          <ns3:TrackPointExtension>
            <ns3:hr>156</ns3:hr>
          </ns3:TrackPointExtension>
        </extensions>
      </trkpt>
      <trkpt lat="46.7987604439258575439453125" lon="6.88491378910839557647705078125">
        <ele>549.20001220703125</ele>
        <time>2017-05-05T15:21:27.000Z</time>
        <extensions>
          <ns3:TrackPointExtension>
            <ns3:hr>155</ns3:hr>
          </ns3:TrackPointExtension>
        </extensions>
      </trkpt>
      <trkpt lat="46.7987954802811145782470703125" lon="6.88503541052341461181640625">
        <ele>547.20001220703125</ele>
        <time>2017-05-05T15:21:28.000Z</time>
        <extensions>
          <ns3:TrackPointExtension>
            <ns3:hr>155</ns3:hr>
          </ns3:TrackPointExtension>
        </extensions>
      </trkpt>
      <trkpt lat="46.79883428849279880523681640625" lon="6.8851458840072154998779296875">
        <ele>545.20001220703125</ele>
        <time>2017-05-05T15:21:29.000Z</time>
        <extensions>
          <ns3:TrackPointExtension>
            <ns3:hr>155</ns3:hr>
          </ns3:TrackPointExtension>
        </extensions>
      </trkpt>
      <trkpt lat="46.7988796345889568328857421875" lon="6.88524839468300342559814453125">
        <ele>543</ele>
        <time>2017-05-05T15:21:30.000Z</time>
        <extensions>
          <ns3:TrackPointExtension>
            <ns3:hr>155</ns3:hr>
          </ns3:TrackPointExtension>
        </extensions>
      </trkpt>
      <trkpt lat="46.7989329434931278228759765625" lon="6.885345540940761566162109375">
        <ele>541.79998779296875</ele>
        <time>2017-05-05T15:21:31.000Z</time>
        <extensions>
          <ns3:TrackPointExtension>
            <ns3:hr>155</ns3:hr>
          </ns3:TrackPointExtension>
        </extensions>
      </trkpt>
      <trkpt lat="46.79898633621633052825927734375" lon="6.88544067554175853729248046875">
        <ele>540.5999755859375</ele>
        <time>2017-05-05T15:21:32.000Z</time>
        <extensions>
          <ns3:TrackPointExtension>
            <ns3:hr>155</ns3:hr>
          </ns3:TrackPointExtension>
        </extensions>
      </trkpt>
      <trkpt lat="46.79909094236791133880615234375" lon="6.8856313638389110565185546875">
        <ele>539.5999755859375</ele>
        <time>2017-05-05T15:21:34.000Z</time>
        <extensions>
          <ns3:TrackPointExtension>
            <ns3:hr>156</ns3:hr>
          </ns3:TrackPointExtension>
        </extensions>
      </trkpt>
      <trkpt lat="46.79937844164669513702392578125" lon="6.886171661317348480224609375">
        <ele>538.4000244140625</ele>
        <time>2017-05-05T15:21:40.000Z</time>
        <extensions>
          <ns3:TrackPointExtension>
            <ns3:hr>157</ns3:hr>
          </ns3:TrackPointExtension>
        </extensions>
      </trkpt>
      <trkpt lat="46.799384392797946929931640625" lon="6.886289678514003753662109375">
        <ele>538.4000244140625</ele>
        <time>2017-05-05T15:21:42.000Z</time>
        <extensions>
          <ns3:TrackPointExtension>
            <ns3:hr>157</ns3:hr>
          </ns3:TrackPointExtension>
        </extensions>
      </trkpt>
      <trkpt lat="46.79929965175688266754150390625" lon="6.88650517724454402923583984375">
        <ele>538.20001220703125</ele>
        <time>2017-05-05T15:21:48.000Z</time>
        <extensions>
          <ns3:TrackPointExtension>
            <ns3:hr>156</ns3:hr>
          </ns3:TrackPointExtension>
        </extensions>
      </trkpt>
      <trkpt lat="46.79926394484937191009521484375" lon="6.88693533651530742645263671875">
        <ele>538.20001220703125</ele>
        <time>2017-05-05T15:21:55.000Z</time>
        <extensions>
          <ns3:TrackPointExtension>
            <ns3:hr>153</ns3:hr>
          </ns3:TrackPointExtension>
        </extensions>
      </trkpt>
      <trkpt lat="46.79915866814553737640380859375" lon="6.887730695307254791259765625">
        <ele>539</ele>
        <time>2017-05-05T15:22:08.000Z</time>
        <extensions>
          <ns3:TrackPointExtension>
            <ns3:hr>154</ns3:hr>
          </ns3:TrackPointExtension>
        </extensions>
      </trkpt>
      <trkpt lat="46.79910309612751007080078125" lon="6.8878907896578311920166015625">
        <ele>539.4000244140625</ele>
        <time>2017-05-05T15:22:11.000Z</time>
        <extensions>
          <ns3:TrackPointExtension>
            <ns3:hr>154</ns3:hr>
          </ns3:TrackPointExtension>
        </extensions>
      </trkpt>
      <trkpt lat="46.79907635785639286041259765625" lon="6.88794669695198535919189453125">
        <ele>539.5999755859375</ele>
        <time>2017-05-05T15:22:12.000Z</time>
        <extensions>
          <ns3:TrackPointExtension>
            <ns3:hr>154</ns3:hr>
          </ns3:TrackPointExtension>
        </extensions>
      </trkpt>
      <trkpt lat="46.7988838255405426025390625" lon="6.8883739225566387176513671875">
        <ele>540</ele>
        <time>2017-05-05T15:22:20.000Z</time>
        <extensions>
          <ns3:TrackPointExtension>
            <ns3:hr>152</ns3:hr>
          </ns3:TrackPointExtension>
        </extensions>
      </trkpt>
      <trkpt lat="46.7988544888794422149658203125" lon="6.888519935309886932373046875">
        <ele>540</ele>
        <time>2017-05-05T15:22:22.000Z</time>
        <extensions>
          <ns3:TrackPointExtension>
            <ns3:hr>151</ns3:hr>
          </ns3:TrackPointExtension>
        </extensions>
      </trkpt>
      <trkpt lat="46.79883110336959362030029296875" lon="6.88869134522974491119384765625">
        <ele>539.79998779296875</ele>
        <time>2017-05-05T15:22:24.000Z</time>
        <extensions>
          <ns3:TrackPointExtension>
            <ns3:hr>150</ns3:hr>
          </ns3:TrackPointExtension>
        </extensions>
      </trkpt>
      <trkpt lat="46.79879891686141490936279296875" lon="6.888977922499179840087890625">
        <ele>538.4000244140625</ele>
        <time>2017-05-05T15:22:28.000Z</time>
        <extensions>
          <ns3:TrackPointExtension>
            <ns3:hr>150</ns3:hr>
          </ns3:TrackPointExtension>
        </extensions>
      </trkpt>
      <trkpt lat="46.798813082277774810791015625" lon="6.88904128968715667724609375">
        <ele>538</ele>
        <time>2017-05-05T15:22:29.000Z</time>
        <extensions>
          <ns3:TrackPointExtension>
            <ns3:hr>149</ns3:hr>
          </ns3:TrackPointExtension>
        </extensions>
      </trkpt>
      <trkpt lat="46.79884434677660465240478515625" lon="6.88908361829817295074462890625">
        <ele>537.5999755859375</ele>
        <time>2017-05-05T15:22:30.000Z</time>
        <extensions>
          <ns3:TrackPointExtension>
            <ns3:hr>149</ns3:hr>
          </ns3:TrackPointExtension>
        </extensions>
      </trkpt>
      <trkpt lat="46.79890989325940608978271484375" lon="6.889137513935565948486328125">
        <ele>536.79998779296875</ele>
        <time>2017-05-05T15:22:32.000Z</time>
        <extensions>
          <ns3:TrackPointExtension>
            <ns3:hr>147</ns3:hr>
          </ns3:TrackPointExtension>
        </extensions>
      </trkpt>
      <trkpt lat="46.79921172559261322021484375" lon="6.8889060057699680328369140625">
        <ele>538</ele>
        <time>2017-05-05T15:22:47.000Z</time>
        <extensions>
          <ns3:TrackPointExtension>
            <ns3:hr>146</ns3:hr>
          </ns3:TrackPointExtension>
        </extensions>
      </trkpt>
      <trkpt lat="46.799291186034679412841796875" lon="6.8888144753873348236083984375">
        <ele>539.20001220703125</ele>
        <time>2017-05-05T15:22:50.000Z</time>
        <extensions>
          <ns3:TrackPointExtension>
            <ns3:hr>147</ns3:hr>
          </ns3:TrackPointExtension>
        </extensions>
      </trkpt>
      <trkpt lat="46.79945178329944610595703125" lon="6.88862378709018230438232421875">
        <ele>539.79998779296875</ele>
        <time>2017-05-05T15:22:55.000Z</time>
        <extensions>
          <ns3:TrackPointExtension>
            <ns3:hr>150</ns3:hr>
          </ns3:TrackPointExtension>
        </extensions>
      </trkpt>
      <trkpt lat="46.79954406805336475372314453125" lon="6.88853141851723194122314453125">
        <ele>539.79998779296875</ele>
        <time>2017-05-05T15:22:57.000Z</time>
        <extensions>
          <ns3:TrackPointExtension>
            <ns3:hr>151</ns3:hr>
          </ns3:TrackPointExtension>
        </extensions>
      </trkpt>
      <trkpt lat="46.79999115876853466033935546875" lon="6.88797050155699253082275390625">
        <ele>538.4000244140625</ele>
        <time>2017-05-05T15:23:08.000Z</time>
        <extensions>
          <ns3:TrackPointExtension>
            <ns3:hr>153</ns3:hr>
          </ns3:TrackPointExtension>
        </extensions>
      </trkpt>
      <trkpt lat="46.80007874965667724609375" lon="6.88787897117435932159423828125">
        <ele>538.20001220703125</ele>
        <time>2017-05-05T15:23:10.000Z</time>
        <extensions>
          <ns3:TrackPointExtension>
            <ns3:hr>153</ns3:hr>
          </ns3:TrackPointExtension>
        </extensions>
      </trkpt>
      <trkpt lat="46.800134070217609405517578125" lon="6.8878757022321224212646484375">
        <ele>538.20001220703125</ele>
        <time>2017-05-05T15:23:11.000Z</time>
        <extensions>
          <ns3:TrackPointExtension>
            <ns3:hr>154</ns3:hr>
          </ns3:TrackPointExtension>
        </extensions>
      </trkpt>
      <trkpt lat="46.80017908103764057159423828125" lon="6.8878911249339580535888671875">
        <ele>538.20001220703125</ele>
        <time>2017-05-05T15:23:12.000Z</time>
        <extensions>
          <ns3:TrackPointExtension>
            <ns3:hr>154</ns3:hr>
          </ns3:TrackPointExtension>
        </extensions>
      </trkpt>
      <trkpt lat="46.8002971820533275604248046875" lon="6.887908391654491424560546875">
        <ele>537.4000244140625</ele>
        <time>2017-05-05T15:23:14.000Z</time>
        <extensions>
          <ns3:TrackPointExtension>
            <ns3:hr>155</ns3:hr>
          </ns3:TrackPointExtension>
        </extensions>
      </trkpt>
      <trkpt lat="46.8003427796065807342529296875" lon="6.887943260371685028076171875">
        <ele>537</ele>
        <time>2017-05-05T15:23:15.000Z</time>
        <extensions>
          <ns3:TrackPointExtension>
            <ns3:hr>155</ns3:hr>
          </ns3:TrackPointExtension>
        </extensions>
      </trkpt>
      <trkpt lat="46.80039365775883197784423828125" lon="6.88801760785281658172607421875">
        <ele>535.4000244140625</ele>
        <time>2017-05-05T15:23:17.000Z</time>
        <extensions>
          <ns3:TrackPointExtension>
            <ns3:hr>155</ns3:hr>
          </ns3:TrackPointExtension>
        </extensions>
      </trkpt>
      <trkpt lat="46.8004799075424671173095703125" lon="6.8879957310855388641357421875">
        <ele>534.79998779296875</ele>
        <time>2017-05-05T15:23:20.000Z</time>
        <extensions>
          <ns3:TrackPointExtension>
            <ns3:hr>156</ns3:hr>
          </ns3:TrackPointExtension>
        </extensions>
      </trkpt>
      <trkpt lat="46.80051754228770732879638671875" lon="6.8878435157239437103271484375">
        <ele>534.5999755859375</ele>
        <time>2017-05-05T15:23:23.000Z</time>
        <extensions>
          <ns3:TrackPointExtension>
            <ns3:hr>153</ns3:hr>
          </ns3:TrackPointExtension>
        </extensions>
      </trkpt>
      <trkpt lat="46.800598092377185821533203125" lon="6.88747680746018886566162109375">
        <ele>534.79998779296875</ele>
        <time>2017-05-05T15:23:30.000Z</time>
        <extensions>
          <ns3:TrackPointExtension>
            <ns3:hr>150</ns3:hr>
          </ns3:TrackPointExtension>
        </extensions>
      </trkpt>
      <trkpt lat="46.80097871460020542144775390625" lon="6.8871216662228107452392578125">
        <ele>536.5999755859375</ele>
        <time>2017-05-05T15:23:43.000Z</time>
        <extensions>
          <ns3:TrackPointExtension>
            <ns3:hr>149</ns3:hr>
          </ns3:TrackPointExtension>
        </extensions>
      </trkpt>
      <trkpt lat="46.80110109038650989532470703125" lon="6.88709191046655178070068359375">
        <ele>537.5999755859375</ele>
        <time>2017-05-05T15:23:48.000Z</time>
        <extensions>
          <ns3:TrackPointExtension>
            <ns3:hr>142</ns3:hr>
          </ns3:TrackPointExtension>
        </extensions>
      </trkpt>
      <trkpt lat="46.801127158105373382568359375" lon="6.8870981968939304351806640625">
        <ele>538</ele>
        <time>2017-05-05T15:23:49.000Z</time>
        <extensions>
          <ns3:TrackPointExtension>
            <ns3:hr>138</ns3:hr>
          </ns3:TrackPointExtension>
        </extensions>
      </trkpt>
      <trkpt lat="46.80115490220487117767333984375" lon="6.887099035084247589111328125">
        <ele>538.20001220703125</ele>
        <time>2017-05-05T15:23:50.000Z</time>
        <extensions>
          <ns3:TrackPointExtension>
            <ns3:hr>135</ns3:hr>
          </ns3:TrackPointExtension>
        </extensions>
      </trkpt>
      <trkpt lat="46.8012480251491069793701171875" lon="6.88710766844451427459716796875">
        <ele>538.79998779296875</ele>
        <time>2017-05-05T15:23:53.000Z</time>
        <extensions>
          <ns3:TrackPointExtension>
            <ns3:hr>137</ns3:hr>
          </ns3:TrackPointExtension>
        </extensions>
      </trkpt>
      <trkpt lat="46.80134139955043792724609375" lon="6.88712711445987224578857421875">
        <ele>539.5999755859375</ele>
        <time>2017-05-05T15:23:56.000Z</time>
        <extensions>
          <ns3:TrackPointExtension>
            <ns3:hr>140</ns3:hr>
          </ns3:TrackPointExtension>
        </extensions>
      </trkpt>
      <trkpt lat="46.80152244865894317626953125" lon="6.8871282041072845458984375">
        <ele>539.79998779296875</ele>
        <time>2017-05-05T15:23:59.000Z</time>
        <extensions>
          <ns3:TrackPointExtension>
            <ns3:hr>141</ns3:hr>
          </ns3:TrackPointExtension>
        </extensions>
      </trkpt>
      <trkpt lat="46.80188580416142940521240234375" lon="6.88700356520712375640869140625">
        <ele>540.79998779296875</ele>
        <time>2017-05-05T15:24:08.000Z</time>
        <extensions>
          <ns3:TrackPointExtension>
            <ns3:hr>142</ns3:hr>
          </ns3:TrackPointExtension>
        </extensions>
      </trkpt>
      <trkpt lat="46.80192486383020877838134765625" lon="6.8869818560779094696044921875">
        <ele>540.79998779296875</ele>
        <time>2017-05-05T15:24:09.000Z</time>
        <extensions>
          <ns3:TrackPointExtension>
            <ns3:hr>142</ns3:hr>
          </ns3:TrackPointExtension>
        </extensions>
      </trkpt>
      <trkpt lat="46.80216483771800994873046875" lon="6.88683710061013698577880859375">
        <ele>541.20001220703125</ele>
        <time>2017-05-05T15:24:15.000Z</time>
        <extensions>
          <ns3:TrackPointExtension>
            <ns3:hr>143</ns3:hr>
          </ns3:TrackPointExtension>
        </extensions>
      </trkpt>
      <trkpt lat="46.80275031365454196929931640625" lon="6.88674607314169406890869140625">
        <ele>540.5999755859375</ele>
        <time>2017-05-05T15:24:26.000Z</time>
        <extensions>
          <ns3:TrackPointExtension>
            <ns3:hr>145</ns3:hr>
          </ns3:TrackPointExtension>
        </extensions>
      </trkpt>
      <trkpt lat="46.80310822091996669769287109375" lon="6.88663425855338573455810546875">
        <ele>539.4000244140625</ele>
        <time>2017-05-05T15:24:31.000Z</time>
        <extensions>
          <ns3:TrackPointExtension>
            <ns3:hr>146</ns3:hr>
          </ns3:TrackPointExtension>
        </extensions>
      </trkpt>
      <trkpt lat="46.80344433523714542388916015625" lon="6.886609531939029693603515625">
        <ele>537.5999755859375</ele>
        <time>2017-05-05T15:24:35.000Z</time>
        <extensions>
          <ns3:TrackPointExtension>
            <ns3:hr>145</ns3:hr>
          </ns3:TrackPointExtension>
        </extensions>
      </trkpt>
      <trkpt lat="46.80362605489790439605712890625" lon="6.886637695133686065673828125">
        <ele>536.4000244140625</ele>
        <time>2017-05-05T15:24:37.000Z</time>
        <extensions>
          <ns3:TrackPointExtension>
            <ns3:hr>146</ns3:hr>
          </ns3:TrackPointExtension>
        </extensions>
      </trkpt>
      <trkpt lat="46.8038179166615009307861328125" lon="6.8866546265780925750732421875">
        <ele>534.79998779296875</ele>
        <time>2017-05-05T15:24:39.000Z</time>
        <extensions>
          <ns3:TrackPointExtension>
            <ns3:hr>146</ns3:hr>
          </ns3:TrackPointExtension>
        </extensions>
      </trkpt>
      <trkpt lat="46.80403433740139007568359375" lon="6.886653117835521697998046875">
        <ele>533.5999755859375</ele>
        <time>2017-05-05T15:24:41.000Z</time>
        <extensions>
          <ns3:TrackPointExtension>
            <ns3:hr>146</ns3:hr>
          </ns3:TrackPointExtension>
        </extensions>
      </trkpt>
      <trkpt lat="46.8042437173426151275634765625" lon="6.8866174109280109405517578125">
        <ele>532.20001220703125</ele>
        <time>2017-05-05T15:24:43.000Z</time>
        <extensions>
          <ns3:TrackPointExtension>
            <ns3:hr>146</ns3:hr>
          </ns3:TrackPointExtension>
        </extensions>
      </trkpt>
      <trkpt lat="46.80456080473959445953369140625" lon="6.8864863179624080657958984375">
        <ele>530</ele>
        <time>2017-05-05T15:24:46.000Z</time>
        <extensions>
          <ns3:TrackPointExtension>
            <ns3:hr>146</ns3:hr>
          </ns3:TrackPointExtension>
        </extensions>
      </trkpt>
      <trkpt lat="46.8046490661799907684326171875" lon="6.88646410591900348663330078125">
        <ele>528.4000244140625</ele>
        <time>2017-05-05T15:24:47.000Z</time>
        <extensions>
          <ns3:TrackPointExtension>
            <ns3:hr>146</ns3:hr>
          </ns3:TrackPointExtension>
        </extensions>
      </trkpt>
      <trkpt lat="46.80472098290920257568359375" lon="6.88645698130130767822265625">
        <ele>527</ele>
        <time>2017-05-05T15:24:48.000Z</time>
        <extensions>
          <ns3:TrackPointExtension>
            <ns3:hr>147</ns3:hr>
          </ns3:TrackPointExtension>
        </extensions>
      </trkpt>
      <trkpt lat="46.804803796112537384033203125" lon="6.88646812923252582550048828125">
        <ele>525.20001220703125</ele>
        <time>2017-05-05T15:24:49.000Z</time>
        <extensions>
          <ns3:TrackPointExtension>
            <ns3:hr>147</ns3:hr>
          </ns3:TrackPointExtension>
        </extensions>
      </trkpt>
      <trkpt lat="46.804877556860446929931640625" lon="6.88652143813669681549072265625">
        <ele>523.79998779296875</ele>
        <time>2017-05-05T15:24:50.000Z</time>
        <extensions>
          <ns3:TrackPointExtension>
            <ns3:hr>147</ns3:hr>
          </ns3:TrackPointExtension>
        </extensions>
      </trkpt>
      <trkpt lat="46.80493287742137908935546875" lon="6.88660693354904651641845703125">
        <ele>521.4000244140625</ele>
        <time>2017-05-05T15:24:51.000Z</time>
        <extensions>
          <ns3:TrackPointExtension>
            <ns3:hr>147</ns3:hr>
          </ns3:TrackPointExtension>
        </extensions>
      </trkpt>
      <trkpt lat="46.8049719370901584625244140625" lon="6.886701397597789764404296875">
        <ele>520</ele>
        <time>2017-05-05T15:24:52.000Z</time>
        <extensions>
          <ns3:TrackPointExtension>
            <ns3:hr>148</ns3:hr>
          </ns3:TrackPointExtension>
        </extensions>
      </trkpt>
      <trkpt lat="46.80503438226878643035888671875" lon="6.88688588328659534454345703125">
        <ele>518.79998779296875</ele>
        <time>2017-05-05T15:24:54.000Z</time>
        <extensions>
          <ns3:TrackPointExtension>
            <ns3:hr>149</ns3:hr>
          </ns3:TrackPointExtension>
        </extensions>
      </trkpt>
      <trkpt lat="46.805343925952911376953125" lon="6.8875841796398162841796875">
        <ele>518.5999755859375</ele>
        <time>2017-05-05T15:25:03.000Z</time>
        <extensions>
          <ns3:TrackPointExtension>
            <ns3:hr>150</ns3:hr>
          </ns3:TrackPointExtension>
        </extensions>
      </trkpt>
      <trkpt lat="46.80537150241434574127197265625" lon="6.88766422681510448455810546875">
        <ele>518.79998779296875</ele>
        <time>2017-05-05T15:25:04.000Z</time>
        <extensions>
          <ns3:TrackPointExtension>
            <ns3:hr>150</ns3:hr>
          </ns3:TrackPointExtension>
        </extensions>
      </trkpt>
      <trkpt lat="46.80560133419930934906005859375" lon="6.88822715543210506439208984375">
        <ele>519.79998779296875</ele>
        <time>2017-05-05T15:25:11.000Z</time>
        <extensions>
          <ns3:TrackPointExtension>
            <ns3:hr>150</ns3:hr>
          </ns3:TrackPointExtension>
        </extensions>
      </trkpt>
      <trkpt lat="46.805640645325183868408203125" lon="6.8882901035249233245849609375">
        <ele>520</ele>
        <time>2017-05-05T15:25:12.000Z</time>
        <extensions>
          <ns3:TrackPointExtension>
            <ns3:hr>150</ns3:hr>
          </ns3:TrackPointExtension>
        </extensions>
      </trkpt>
      <trkpt lat="46.80572806857526302337646484375" lon="6.88837970606982707977294921875">
        <ele>520.20001220703125</ele>
        <time>2017-05-05T15:25:14.000Z</time>
        <extensions>
          <ns3:TrackPointExtension>
            <ns3:hr>151</ns3:hr>
          </ns3:TrackPointExtension>
        </extensions>
      </trkpt>
      <trkpt lat="46.80625612847506999969482421875" lon="6.88859176822006702423095703125">
        <ele>520.5999755859375</ele>
        <time>2017-05-05T15:25:23.000Z</time>
        <extensions>
          <ns3:TrackPointExtension>
            <ns3:hr>151</ns3:hr>
          </ns3:TrackPointExtension>
        </extensions>
      </trkpt>
      <trkpt lat="46.8067995272576808929443359375" lon="6.88876912929117679595947265625">
        <ele>520.5999755859375</ele>
        <time>2017-05-05T15:25:32.000Z</time>
        <extensions>
          <ns3:TrackPointExtension>
            <ns3:hr>149</ns3:hr>
          </ns3:TrackPointExtension>
        </extensions>
      </trkpt>
      <trkpt lat="46.8069809116423130035400390625" lon="6.888800226151943206787109375">
        <ele>521</ele>
        <time>2017-05-05T15:25:35.000Z</time>
        <extensions>
          <ns3:TrackPointExtension>
            <ns3:hr>149</ns3:hr>
          </ns3:TrackPointExtension>
        </extensions>
      </trkpt>
      <trkpt lat="46.80741149000823497772216796875" lon="6.8888081051409244537353515625">
        <ele>521.4000244140625</ele>
        <time>2017-05-05T15:25:42.000Z</time>
        <extensions>
          <ns3:TrackPointExtension>
            <ns3:hr>152</ns3:hr>
          </ns3:TrackPointExtension>
        </extensions>
      </trkpt>
      <trkpt lat="46.80781365372240543365478515625" lon="6.8887330032885074615478515625">
        <ele>521.79998779296875</ele>
        <time>2017-05-05T15:25:49.000Z</time>
        <extensions>
          <ns3:TrackPointExtension>
            <ns3:hr>153</ns3:hr>
          </ns3:TrackPointExtension>
        </extensions>
      </trkpt>
      <trkpt lat="46.80811674334108829498291015625" lon="6.8885144032537937164306640625">
        <ele>521.79998779296875</ele>
        <time>2017-05-05T15:25:55.000Z</time>
        <extensions>
          <ns3:TrackPointExtension>
            <ns3:hr>152</ns3:hr>
          </ns3:TrackPointExtension>
        </extensions>
      </trkpt>
      <trkpt lat="46.80833081714808940887451171875" lon="6.88840803690254688262939453125">
        <ele>522</ele>
        <time>2017-05-05T15:26:00.000Z</time>
        <extensions>
          <ns3:TrackPointExtension>
            <ns3:hr>150</ns3:hr>
          </ns3:TrackPointExtension>
        </extensions>
      </trkpt>
      <trkpt lat="46.8084484152495861053466796875" lon="6.8883102200925350189208984375">
        <ele>522.5999755859375</ele>
        <time>2017-05-05T15:26:03.000Z</time>
        <extensions>
          <ns3:TrackPointExtension>
            <ns3:hr>149</ns3:hr>
          </ns3:TrackPointExtension>
        </extensions>
      </trkpt>
      <trkpt lat="46.80849560536444187164306640625" lon="6.8881957232952117919921875">
        <ele>522.79998779296875</ele>
        <time>2017-05-05T15:26:05.000Z</time>
        <extensions>
          <ns3:TrackPointExtension>
            <ns3:hr>149</ns3:hr>
          </ns3:TrackPointExtension>
        </extensions>
      </trkpt>
      <trkpt lat="46.8085094355046749114990234375" lon="6.88805758953094482421875">
        <ele>523.20001220703125</ele>
        <time>2017-05-05T15:26:07.000Z</time>
        <extensions>
          <ns3:TrackPointExtension>
            <ns3:hr>149</ns3:hr>
          </ns3:TrackPointExtension>
        </extensions>
      </trkpt>
      <trkpt lat="46.80846056900918483734130859375" lon="6.8875893764197826385498046875">
        <ele>524.4000244140625</ele>
        <time>2017-05-05T15:26:14.000Z</time>
        <extensions>
          <ns3:TrackPointExtension>
            <ns3:hr>149</ns3:hr>
          </ns3:TrackPointExtension>
        </extensions>
      </trkpt>
      <trkpt lat="46.80841849185526371002197265625" lon="6.88731553964316844940185546875">
        <ele>525</ele>
        <time>2017-05-05T15:26:18.000Z</time>
        <extensions>
          <ns3:TrackPointExtension>
            <ns3:hr>146</ns3:hr>
          </ns3:TrackPointExtension>
        </extensions>
      </trkpt>
      <trkpt lat="46.80839468725025653839111328125" lon="6.887093000113964080810546875">
        <ele>525.20001220703125</ele>
        <time>2017-05-05T15:26:21.000Z</time>
        <extensions>
          <ns3:TrackPointExtension>
            <ns3:hr>145</ns3:hr>
          </ns3:TrackPointExtension>
        </extensions>
      </trkpt>
      <trkpt lat="46.808357723057270050048828125" lon="6.886954195797443389892578125">
        <ele>525.4000244140625</ele>
        <time>2017-05-05T15:26:23.000Z</time>
        <extensions>
          <ns3:TrackPointExtension>
            <ns3:hr>144</ns3:hr>
          </ns3:TrackPointExtension>
        </extensions>
      </trkpt>
      <trkpt lat="46.80825538001954555511474609375" lon="6.88669125549495220184326171875">
        <ele>525.4000244140625</ele>
        <time>2017-05-05T15:26:27.000Z</time>
        <extensions>
          <ns3:TrackPointExtension>
            <ns3:hr>145</ns3:hr>
          </ns3:TrackPointExtension>
        </extensions>
      </trkpt>
      <trkpt lat="46.8082366883754730224609375" lon="6.8866174109280109405517578125">
        <ele>525.4000244140625</ele>
        <time>2017-05-05T15:26:28.000Z</time>
        <extensions>
          <ns3:TrackPointExtension>
            <ns3:hr>146</ns3:hr>
          </ns3:TrackPointExtension>
        </extensions>
      </trkpt>
      <trkpt lat="46.808158569037914276123046875" lon="6.88618448562920093536376953125">
        <ele>525.5999755859375</ele>
        <time>2017-05-05T15:26:34.000Z</time>
        <extensions>
          <ns3:TrackPointExtension>
            <ns3:hr>148</ns3:hr>
          </ns3:TrackPointExtension>
        </extensions>
      </trkpt>
      <trkpt lat="46.80815798230469226837158203125" lon="6.8860333599150180816650390625">
        <ele>525.5999755859375</ele>
        <time>2017-05-05T15:26:36.000Z</time>
        <extensions>
          <ns3:TrackPointExtension>
            <ns3:hr>148</ns3:hr>
          </ns3:TrackPointExtension>
        </extensions>
      </trkpt>
      <trkpt lat="46.80823962204158306121826171875" lon="6.88531477935612201690673828125">
        <ele>525.4000244140625</ele>
        <time>2017-05-05T15:26:46.000Z</time>
        <extensions>
          <ns3:TrackPointExtension>
            <ns3:hr>145</ns3:hr>
          </ns3:TrackPointExtension>
        </extensions>
      </trkpt>
      <trkpt lat="46.8082747422158718109130859375" lon="6.88518133945763111114501953125">
        <ele>525.4000244140625</ele>
        <time>2017-05-05T15:26:48.000Z</time>
        <extensions>
          <ns3:TrackPointExtension>
            <ns3:hr>145</ns3:hr>
          </ns3:TrackPointExtension>
        </extensions>
      </trkpt>
      <trkpt lat="46.80846962146461009979248046875" lon="6.88443836756050586700439453125">
        <ele>525.5999755859375</ele>
        <time>2017-05-05T15:27:00.000Z</time>
        <extensions>
          <ns3:TrackPointExtension>
            <ns3:hr>146</ns3:hr>
          </ns3:TrackPointExtension>
        </extensions>
      </trkpt>
      <trkpt lat="46.80852175690233707427978515625" lon="6.884154975414276123046875">
        <ele>525.4000244140625</ele>
        <time>2017-05-05T15:27:04.000Z</time>
        <extensions>
          <ns3:TrackPointExtension>
            <ns3:hr>149</ns3:hr>
          </ns3:TrackPointExtension>
        </extensions>
      </trkpt>
      <trkpt lat="46.808570288121700286865234375" lon="6.88397048972547054290771484375">
        <ele>525.5999755859375</ele>
        <time>2017-05-05T15:27:07.000Z</time>
        <extensions>
          <ns3:TrackPointExtension>
            <ns3:hr>150</ns3:hr>
          </ns3:TrackPointExtension>
        </extensions>
      </trkpt>
      <trkpt lat="46.808670870959758758544921875" lon="6.8833712674677371978759765625">
        <ele>525.20001220703125</ele>
        <time>2017-05-05T15:27:16.000Z</time>
        <extensions>
          <ns3:TrackPointExtension>
            <ns3:hr>153</ns3:hr>
          </ns3:TrackPointExtension>
        </extensions>
      </trkpt>
      <trkpt lat="46.80868034251034259796142578125" lon="6.8833045475184917449951171875">
        <ele>525.20001220703125</ele>
        <time>2017-05-05T15:27:17.000Z</time>
        <extensions>
          <ns3:TrackPointExtension>
            <ns3:hr>153</ns3:hr>
          </ns3:TrackPointExtension>
        </extensions>
      </trkpt>
      <trkpt lat="46.80876617319881916046142578125" lon="6.8829615600407123565673828125">
        <ele>524.20001220703125</ele>
        <time>2017-05-05T15:27:23.000Z</time>
        <extensions>
          <ns3:TrackPointExtension>
            <ns3:hr>153</ns3:hr>
          </ns3:TrackPointExtension>
        </extensions>
      </trkpt>
      <trkpt lat="46.80886826477944850921630859375" lon="6.88261798582971096038818359375">
        <ele>523.4000244140625</ele>
        <time>2017-05-05T15:27:29.000Z</time>
        <extensions>
          <ns3:TrackPointExtension>
            <ns3:hr>150</ns3:hr>
          </ns3:TrackPointExtension>
        </extensions>
      </trkpt>
      <trkpt lat="46.80919063277542591094970703125" lon="6.88244431279599666595458984375">
        <ele>524.79998779296875</ele>
        <time>2017-05-05T15:27:42.000Z</time>
        <extensions>
          <ns3:TrackPointExtension>
            <ns3:hr>147</ns3:hr>
          </ns3:TrackPointExtension>
        </extensions>
      </trkpt>
      <trkpt lat="46.809340752661228179931640625" lon="6.8825401179492473602294921875">
        <ele>525</ele>
        <time>2017-05-05T15:27:45.000Z</time>
        <extensions>
          <ns3:TrackPointExtension>
            <ns3:hr>147</ns3:hr>
          </ns3:TrackPointExtension>
        </extensions>
      </trkpt>
      <trkpt lat="46.80942079983651638031005859375" lon="6.88267883844673633575439453125">
        <ele>525.20001220703125</ele>
        <time>2017-05-05T15:27:47.000Z</time>
        <extensions>
          <ns3:TrackPointExtension>
            <ns3:hr>146</ns3:hr>
          </ns3:TrackPointExtension>
        </extensions>
      </trkpt>
      <trkpt lat="46.809529848396778106689453125" lon="6.88303942792117595672607421875">
        <ele>523.20001220703125</ele>
        <time>2017-05-05T15:27:53.000Z</time>
        <extensions>
          <ns3:TrackPointExtension>
            <ns3:hr>147</ns3:hr>
          </ns3:TrackPointExtension>
        </extensions>
      </trkpt>
      <trkpt lat="46.8095497973263263702392578125" lon="6.883027441799640655517578125">
        <ele>522.20001220703125</ele>
        <time>2017-05-05T15:27:54.000Z</time>
        <extensions>
          <ns3:TrackPointExtension>
            <ns3:hr>148</ns3:hr>
          </ns3:TrackPointExtension>
        </extensions>
      </trkpt>
      <trkpt lat="46.8095722608268260955810546875" lon="6.88302534632384777069091796875">
        <ele>520.5999755859375</ele>
        <time>2017-05-05T15:27:55.000Z</time>
        <extensions>
          <ns3:TrackPointExtension>
            <ns3:hr>148</ns3:hr>
          </ns3:TrackPointExtension>
        </extensions>
      </trkpt>
      <trkpt lat="46.80959028191864490509033203125" lon="6.8830470554530620574951171875">
        <ele>519.4000244140625</ele>
        <time>2017-05-05T15:27:56.000Z</time>
        <extensions>
          <ns3:TrackPointExtension>
            <ns3:hr>148</ns3:hr>
          </ns3:TrackPointExtension>
        </extensions>
      </trkpt>
      <trkpt lat="46.80959715507924556732177734375" lon="6.8831268511712551116943359375">
        <ele>518.20001220703125</ele>
        <time>2017-05-05T15:27:58.000Z</time>
        <extensions>
          <ns3:TrackPointExtension>
            <ns3:hr>149</ns3:hr>
          </ns3:TrackPointExtension>
        </extensions>
      </trkpt>
      <trkpt lat="46.8095853365957736968994140625" lon="6.88323455862700939178466796875">
        <ele>517.20001220703125</ele>
        <time>2017-05-05T15:28:00.000Z</time>
        <extensions>
          <ns3:TrackPointExtension>
            <ns3:hr>149</ns3:hr>
          </ns3:TrackPointExtension>
        </extensions>
      </trkpt>
      <trkpt lat="46.8095628730952739715576171875" lon="6.8834349699318408966064453125">
        <ele>516</ele>
        <time>2017-05-05T15:28:03.000Z</time>
        <extensions>
          <ns3:TrackPointExtension>
            <ns3:hr>150</ns3:hr>
          </ns3:TrackPointExtension>
        </extensions>
      </trkpt>
      <trkpt lat="46.80953714065253734588623046875" lon="6.8837437592446804046630859375">
        <ele>514.79998779296875</ele>
        <time>2017-05-05T15:28:07.000Z</time>
        <extensions>
          <ns3:TrackPointExtension>
            <ns3:hr>151</ns3:hr>
          </ns3:TrackPointExtension>
        </extensions>
      </trkpt>
      <trkpt lat="46.8095551617443561553955078125" lon="6.88379698432981967926025390625">
        <ele>513.79998779296875</ele>
        <time>2017-05-05T15:28:10.000Z</time>
        <extensions>
          <ns3:TrackPointExtension>
            <ns3:hr>153</ns3:hr>
          </ns3:TrackPointExtension>
        </extensions>
      </trkpt>
      <trkpt lat="46.809591539204120635986328125" lon="6.88371174037456512451171875">
        <ele>512.4000244140625</ele>
        <time>2017-05-05T15:28:12.000Z</time>
        <extensions>
          <ns3:TrackPointExtension>
            <ns3:hr>153</ns3:hr>
          </ns3:TrackPointExtension>
        </extensions>
      </trkpt>
      <trkpt lat="46.8096973188221454620361328125" lon="6.88344611786305904388427734375">
        <ele>511.600006103515625</ele>
        <time>2017-05-05T15:28:16.000Z</time>
        <extensions>
          <ns3:TrackPointExtension>
            <ns3:hr>151</ns3:hr>
          </ns3:TrackPointExtension>
        </extensions>
      </trkpt>
      <trkpt lat="46.8097533099353313446044921875" lon="6.88341443426907062530517578125">
        <ele>511.399993896484375</ele>
        <time>2017-05-05T15:28:17.000Z</time>
        <extensions>
          <ns3:TrackPointExtension>
            <ns3:hr>150</ns3:hr>
          </ns3:TrackPointExtension>
        </extensions>
      </trkpt>
      <trkpt lat="46.809888593852519989013671875" lon="6.88348400406539440155029296875">
        <ele>510.79998779296875</ele>
        <time>2017-05-05T15:28:19.000Z</time>
        <extensions>
          <ns3:TrackPointExtension>
            <ns3:hr>149</ns3:hr>
          </ns3:TrackPointExtension>
        </extensions>
      </trkpt>
      <trkpt lat="46.8100391328334808349609375" lon="6.883631609380245208740234375">
        <ele>510.399993896484375</ele>
        <time>2017-05-05T15:28:21.000Z</time>
        <extensions>
          <ns3:TrackPointExtension>
            <ns3:hr>148</ns3:hr>
          </ns3:TrackPointExtension>
        </extensions>
      </trkpt>
      <trkpt lat="46.81013124994933605194091796875" lon="6.8836636282503604888916015625">
        <ele>510</ele>
        <time>2017-05-05T15:28:22.000Z</time>
        <extensions>
          <ns3:TrackPointExtension>
            <ns3:hr>149</ns3:hr>
          </ns3:TrackPointExtension>
        </extensions>
      </trkpt>
      <trkpt lat="46.8102310784161090850830078125" lon="6.88365633599460124969482421875">
        <ele>509.600006103515625</ele>
        <time>2017-05-05T15:28:23.000Z</time>
        <extensions>
          <ns3:TrackPointExtension>
            <ns3:hr>149</ns3:hr>
          </ns3:TrackPointExtension>
        </extensions>
      </trkpt>
      <trkpt lat="46.8103286437690258026123046875" lon="6.88362565822899341583251953125">
        <ele>508.79998779296875</ele>
        <time>2017-05-05T15:28:24.000Z</time>
        <extensions>
          <ns3:TrackPointExtension>
            <ns3:hr>149</ns3:hr>
          </ns3:TrackPointExtension>
        </extensions>
      </trkpt>
      <trkpt lat="46.81052670814096927642822265625" lon="6.883562542498111724853515625">
        <ele>507.399993896484375</ele>
        <time>2017-05-05T15:28:26.000Z</time>
        <extensions>
          <ns3:TrackPointExtension>
            <ns3:hr>150</ns3:hr>
          </ns3:TrackPointExtension>
        </extensions>
      </trkpt>
      <trkpt lat="46.810626871883869171142578125" lon="6.8835342116653919219970703125">
        <ele>506.399993896484375</ele>
        <time>2017-05-05T15:28:27.000Z</time>
        <extensions>
          <ns3:TrackPointExtension>
            <ns3:hr>150</ns3:hr>
          </ns3:TrackPointExtension>
        </extensions>
      </trkpt>
      <trkpt lat="46.81072837673127651214599609375" lon="6.8835130892693996429443359375">
        <ele>504.79998779296875</ele>
        <time>2017-05-05T15:28:28.000Z</time>
        <extensions>
          <ns3:TrackPointExtension>
            <ns3:hr>150</ns3:hr>
          </ns3:TrackPointExtension>
        </extensions>
      </trkpt>
      <trkpt lat="46.81083046831190586090087890625" lon="6.88349758274853229522705078125">
        <ele>502</ele>
        <time>2017-05-05T15:28:29.000Z</time>
        <extensions>
          <ns3:TrackPointExtension>
            <ns3:hr>151</ns3:hr>
          </ns3:TrackPointExtension>
        </extensions>
      </trkpt>
      <trkpt lat="46.81093297898769378662109375" lon="6.88347411341965198516845703125">
        <ele>499.79998779296875</ele>
        <time>2017-05-05T15:28:30.000Z</time>
        <extensions>
          <ns3:TrackPointExtension>
            <ns3:hr>151</ns3:hr>
          </ns3:TrackPointExtension>
        </extensions>
      </trkpt>
      <trkpt lat="46.8110337294638156890869140625" lon="6.88344980590045452117919921875">
        <ele>497.600006103515625</ele>
        <time>2017-05-05T15:28:31.000Z</time>
        <extensions>
          <ns3:TrackPointExtension>
            <ns3:hr>151</ns3:hr>
          </ns3:TrackPointExtension>
        </extensions>
      </trkpt>
      <trkpt lat="46.81113406084477901458740234375" lon="6.88342717476189136505126953125">
        <ele>496.399993896484375</ele>
        <time>2017-05-05T15:28:32.000Z</time>
        <extensions>
          <ns3:TrackPointExtension>
            <ns3:hr>151</ns3:hr>
          </ns3:TrackPointExtension>
        </extensions>
      </trkpt>
      <trkpt lat="46.81133505888283252716064453125" lon="6.88338174484670162200927734375">
        <ele>494</ele>
        <time>2017-05-05T15:28:34.000Z</time>
        <extensions>
          <ns3:TrackPointExtension>
            <ns3:hr>151</ns3:hr>
          </ns3:TrackPointExtension>
        </extensions>
      </trkpt>
      <trkpt lat="46.81154293008148670196533203125" lon="6.8833400867879390716552734375">
        <ele>492.399993896484375</ele>
        <time>2017-05-05T15:28:36.000Z</time>
        <extensions>
          <ns3:TrackPointExtension>
            <ns3:hr>151</ns3:hr>
          </ns3:TrackPointExtension>
        </extensions>
      </trkpt>
      <trkpt lat="46.81175432167947292327880859375" lon="6.88329138793051242828369140625">
        <ele>491</ele>
        <time>2017-05-05T15:28:38.000Z</time>
        <extensions>
          <ns3:TrackPointExtension>
            <ns3:hr>151</ns3:hr>
          </ns3:TrackPointExtension>
        </extensions>
      </trkpt>
      <trkpt lat="46.81196219287812709808349609375" lon="6.883236654102802276611328125">
        <ele>489.79998779296875</ele>
        <time>2017-05-05T15:28:40.000Z</time>
        <extensions>
          <ns3:TrackPointExtension>
            <ns3:hr>152</ns3:hr>
          </ns3:TrackPointExtension>
        </extensions>
      </trkpt>
      <trkpt lat="46.8121532164514064788818359375" lon="6.88318611122667789459228515625">
        <ele>488.20001220703125</ele>
        <time>2017-05-05T15:28:42.000Z</time>
        <extensions>
          <ns3:TrackPointExtension>
            <ns3:hr>153</ns3:hr>
          </ns3:TrackPointExtension>
        </extensions>
      </trkpt>
      <trkpt lat="46.81222940795123577117919921875" lon="6.88317437656223773956298828125">
        <ele>487.399993896484375</ele>
        <time>2017-05-05T15:28:43.000Z</time>
        <extensions>
          <ns3:TrackPointExtension>
            <ns3:hr>153</ns3:hr>
          </ns3:TrackPointExtension>
        </extensions>
      </trkpt>
      <trkpt lat="46.81228959001600742340087890625" lon="6.8831918947398662567138671875">
        <ele>486.399993896484375</ele>
        <time>2017-05-05T15:28:44.000Z</time>
        <extensions>
          <ns3:TrackPointExtension>
            <ns3:hr>153</ns3:hr>
          </ns3:TrackPointExtension>
        </extensions>
      </trkpt>
      <trkpt lat="46.81232948787510395050048828125" lon="6.883245371282100677490234375">
        <ele>485.79998779296875</ele>
        <time>2017-05-05T15:28:45.000Z</time>
        <extensions>
          <ns3:TrackPointExtension>
            <ns3:hr>153</ns3:hr>
          </ns3:TrackPointExtension>
        </extensions>
      </trkpt>
      <trkpt lat="46.81232630275189876556396484375" lon="6.88364929519593715667724609375">
        <ele>485.20001220703125</ele>
        <time>2017-05-05T15:28:50.000Z</time>
        <extensions>
          <ns3:TrackPointExtension>
            <ns3:hr>151</ns3:hr>
          </ns3:TrackPointExtension>
        </extensions>
      </trkpt>
      <trkpt lat="46.8123956210911273956298828125" lon="6.8843519501388072967529296875">
        <ele>485.20001220703125</ele>
        <time>2017-05-05T15:28:58.000Z</time>
        <extensions>
          <ns3:TrackPointExtension>
            <ns3:hr>148</ns3:hr>
          </ns3:TrackPointExtension>
        </extensions>
      </trkpt>
      <trkpt lat="46.8125042505562305450439453125" lon="6.88519139774143695831298828125">
        <ele>485.20001220703125</ele>
        <time>2017-05-05T15:29:07.000Z</time>
        <extensions>
          <ns3:TrackPointExtension>
            <ns3:hr>148</ns3:hr>
          </ns3:TrackPointExtension>
        </extensions>
      </trkpt>
      <trkpt lat="46.81259267963469028472900390625" lon="6.8858083896338939666748046875">
        <ele>485.20001220703125</ele>
        <time>2017-05-05T15:29:14.000Z</time>
        <extensions>
          <ns3:TrackPointExtension>
            <ns3:hr>145</ns3:hr>
          </ns3:TrackPointExtension>
        </extensions>
      </trkpt>
      <trkpt lat="46.8126863054931163787841796875" lon="6.88659905456006526947021484375">
        <ele>485.600006103515625</ele>
        <time>2017-05-05T15:29:23.000Z</time>
        <extensions>
          <ns3:TrackPointExtension>
            <ns3:hr>144</ns3:hr>
          </ns3:TrackPointExtension>
        </extensions>
      </trkpt>
      <trkpt lat="46.8127401173114776611328125" lon="6.8869258649647235870361328125">
        <ele>485.79998779296875</ele>
        <time>2017-05-05T15:29:27.000Z</time>
        <extensions>
          <ns3:TrackPointExtension>
            <ns3:hr>146</ns3:hr>
          </ns3:TrackPointExtension>
        </extensions>
      </trkpt>
      <trkpt lat="46.8127791769802570343017578125" lon="6.88729290850460529327392578125">
        <ele>486</ele>
        <time>2017-05-05T15:29:31.000Z</time>
        <extensions>
          <ns3:TrackPointExtension>
            <ns3:hr>149</ns3:hr>
          </ns3:TrackPointExtension>
        </extensions>
      </trkpt>
      <trkpt lat="46.81283692829310894012451171875" lon="6.88754327595233917236328125">
        <ele>486.20001220703125</ele>
        <time>2017-05-05T15:29:34.000Z</time>
        <extensions>
          <ns3:TrackPointExtension>
            <ns3:hr>150</ns3:hr>
          </ns3:TrackPointExtension>
        </extensions>
      </trkpt>
      <trkpt lat="46.81291923858225345611572265625" lon="6.8876691721379756927490234375">
        <ele>486</ele>
        <time>2017-05-05T15:29:36.000Z</time>
        <extensions>
          <ns3:TrackPointExtension>
            <ns3:hr>151</ns3:hr>
          </ns3:TrackPointExtension>
        </extensions>
      </trkpt>
      <trkpt lat="46.81343271397054195404052734375" lon="6.887848041951656341552734375">
        <ele>484</ele>
        <time>2017-05-05T15:29:45.000Z</time>
        <extensions>
          <ns3:TrackPointExtension>
            <ns3:hr>150</ns3:hr>
          </ns3:TrackPointExtension>
        </extensions>
      </trkpt>
      <trkpt lat="46.813486106693744659423828125" lon="6.88797779381275177001953125">
        <ele>483.399993896484375</ele>
        <time>2017-05-05T15:29:47.000Z</time>
        <extensions>
          <ns3:TrackPointExtension>
            <ns3:hr>150</ns3:hr>
          </ns3:TrackPointExtension>
        </extensions>
      </trkpt>
      <trkpt lat="46.81353748776018619537353515625" lon="6.888345591723918914794921875">
        <ele>483.20001220703125</ele>
        <time>2017-05-05T15:29:52.000Z</time>
        <extensions>
          <ns3:TrackPointExtension>
            <ns3:hr>148</ns3:hr>
          </ns3:TrackPointExtension>
        </extensions>
      </trkpt>
      <trkpt lat="46.81359465233981609344482421875" lon="6.888462267816066741943359375">
        <ele>483.20001220703125</ele>
        <time>2017-05-05T15:29:54.000Z</time>
        <extensions>
          <ns3:TrackPointExtension>
            <ns3:hr>148</ns3:hr>
          </ns3:TrackPointExtension>
        </extensions>
      </trkpt>
      <trkpt lat="46.813734881579875946044921875" lon="6.88856729306280612945556640625">
        <ele>483</ele>
        <time>2017-05-05T15:29:57.000Z</time>
        <extensions>
          <ns3:TrackPointExtension>
            <ns3:hr>148</ns3:hr>
          </ns3:TrackPointExtension>
        </extensions>
      </trkpt>
      <trkpt lat="46.81378089822828769683837890625" lon="6.8887008167803287506103515625">
        <ele>483</ele>
        <time>2017-05-05T15:29:59.000Z</time>
        <extensions>
          <ns3:TrackPointExtension>
            <ns3:hr>148</ns3:hr>
          </ns3:TrackPointExtension>
        </extensions>
      </trkpt>
      <trkpt lat="46.81378156878054141998291015625" lon="6.88885152339935302734375">
        <ele>483</ele>
        <time>2017-05-05T15:30:01.000Z</time>
        <extensions>
          <ns3:TrackPointExtension>
            <ns3:hr>149</ns3:hr>
          </ns3:TrackPointExtension>
        </extensions>
      </trkpt>
      <trkpt lat="46.81377905420958995819091796875" lon="6.88901555724442005157470703125">
        <ele>483</ele>
        <time>2017-05-05T15:30:03.000Z</time>
        <extensions>
          <ns3:TrackPointExtension>
            <ns3:hr>149</ns3:hr>
          </ns3:TrackPointExtension>
        </extensions>
      </trkpt>
      <trkpt lat="46.8137853406369686126708984375" lon="6.88918185420334339141845703125">
        <ele>483</ele>
        <time>2017-05-05T15:30:05.000Z</time>
        <extensions>
          <ns3:TrackPointExtension>
            <ns3:hr>149</ns3:hr>
          </ns3:TrackPointExtension>
        </extensions>
      </trkpt>
      <trkpt lat="46.81374804116785526275634765625" lon="6.889311186969280242919921875">
        <ele>482.79998779296875</ele>
        <time>2017-05-05T15:30:07.000Z</time>
        <extensions>
          <ns3:TrackPointExtension>
            <ns3:hr>149</ns3:hr>
          </ns3:TrackPointExtension>
        </extensions>
      </trkpt>
      <trkpt lat="46.81367394514381885528564453125" lon="6.88943079672753810882568359375">
        <ele>482.79998779296875</ele>
        <time>2017-05-05T15:30:10.000Z</time>
        <extensions>
          <ns3:TrackPointExtension>
            <ns3:hr>147</ns3:hr>
          </ns3:TrackPointExtension>
        </extensions>
      </trkpt>
      <trkpt lat="46.813728846609592437744140625" lon="6.89028390683233737945556640625">
        <ele>482</ele>
        <time>2017-05-05T15:30:20.000Z</time>
        <extensions>
          <ns3:TrackPointExtension>
            <ns3:hr>146</ns3:hr>
          </ns3:TrackPointExtension>
        </extensions>
      </trkpt>
      <trkpt lat="46.8137378990650177001953125" lon="6.89036822877824306488037109375">
        <ele>482</ele>
        <time>2017-05-05T15:30:21.000Z</time>
        <extensions>
          <ns3:TrackPointExtension>
            <ns3:hr>146</ns3:hr>
          </ns3:TrackPointExtension>
        </extensions>
      </trkpt>
      <trkpt lat="46.81389522738754749298095703125" lon="6.8907687999308109283447265625">
        <ele>481.399993896484375</ele>
        <time>2017-05-05T15:30:30.000Z</time>
        <extensions>
          <ns3:TrackPointExtension>
            <ns3:hr>147</ns3:hr>
          </ns3:TrackPointExtension>
        </extensions>
      </trkpt>
      <trkpt lat="46.8140817247331142425537109375" lon="6.89081699587404727935791015625">
        <ele>481.399993896484375</ele>
        <time>2017-05-05T15:30:33.000Z</time>
        <extensions>
          <ns3:TrackPointExtension>
            <ns3:hr>147</ns3:hr>
          </ns3:TrackPointExtension>
        </extensions>
      </trkpt>
      <trkpt lat="46.8144029192626476287841796875" lon="6.8907899223268032073974609375">
        <ele>481.600006103515625</ele>
        <time>2017-05-05T15:30:39.000Z</time>
        <extensions>
          <ns3:TrackPointExtension>
            <ns3:hr>147</ns3:hr>
          </ns3:TrackPointExtension>
        </extensions>
      </trkpt>
      <trkpt lat="46.81449897587299346923828125" lon="6.8908311612904071807861328125">
        <ele>481.600006103515625</ele>
        <time>2017-05-05T15:30:41.000Z</time>
        <extensions>
          <ns3:TrackPointExtension>
            <ns3:hr>146</ns3:hr>
          </ns3:TrackPointExtension>
        </extensions>
      </trkpt>
      <trkpt lat="46.81458807550370693206787109375" lon="6.8909128010272979736328125">
        <ele>481.79998779296875</ele>
        <time>2017-05-05T15:30:43.000Z</time>
        <extensions>
          <ns3:TrackPointExtension>
            <ns3:hr>145</ns3:hr>
          </ns3:TrackPointExtension>
        </extensions>
      </trkpt>
      <trkpt lat="46.81466133333742618560791015625" lon="6.8909910880029201507568359375">
        <ele>481.600006103515625</ele>
        <time>2017-05-05T15:30:45.000Z</time>
        <extensions>
          <ns3:TrackPointExtension>
            <ns3:hr>144</ns3:hr>
          </ns3:TrackPointExtension>
        </extensions>
      </trkpt>
      <trkpt lat="46.8147267960011959075927734375" lon="6.89100810326635837554931640625">
        <ele>481.79998779296875</ele>
        <time>2017-05-05T15:30:49.000Z</time>
        <extensions>
          <ns3:TrackPointExtension>
            <ns3:hr>144</ns3:hr>
          </ns3:TrackPointExtension>
        </extensions>
      </trkpt>
      <trkpt lat="46.81482578627765178680419921875" lon="6.8905046023428440093994140625">
        <ele>481.600006103515625</ele>
        <time>2017-05-05T15:31:00.000Z</time>
        <extensions>
          <ns3:TrackPointExtension>
            <ns3:hr>146</ns3:hr>
          </ns3:TrackPointExtension>
        </extensions>
      </trkpt>
    </trkseg>
  </trk>
</gpx>
